﻿<?xml version="1.0" encoding="UTF-8" standalone="no" ?>
<gpx xmlns="http://www.topografix.com/GPX/1/1" creator="CompeGPS" version="1.1" xmlns:xsi="http://www.w3.org/2001/XMLSchema-instance" xsi:schemaLocation="http://www.topografix.com/GPX/1/1 http://www.topografix.com/GPX/1/1/gpx.xsd">
  <metadata>
    <link href="http://www.compegps.com">
      <text>CompeGPS TEAM, SL</text>
    </link>
    <time>2021-11-10T08:32:35Z</time>
    <bounds maxlat="39.520524" maxlon="-5.024769" minlat="39.340885" minlon="-5.486316"/>
  </metadata>
  <trk>
    <name>CN-Villuercas</name>
    <desc>Etapa 1: Logrosan - Cañamero</desc>
    <trkseg>
      <trkpt lat="39.340885" lon="-5.486216">
        <ele>429.9</ele>
        <time>1970-01-01T00:00:00Z</time>
      </trkpt>
      <trkpt lat="39.340885" lon="-5.486216">
        <ele>429.9</ele>
        <time>1970-01-01T00:00:00Z</time>
      </trkpt>
      <trkpt lat="39.340885" lon="-5.486216">
        <ele>429.9</ele>
        <time>1970-01-01T00:00:00Z</time>
      </trkpt>
      <trkpt lat="39.340885" lon="-5.486216">
        <ele>429.9</ele>
        <time>1970-01-01T00:00:00Z</time>
      </trkpt>
      <trkpt lat="39.340897" lon="-5.486276">
        <ele>430.1</ele>
        <time>1970-01-01T00:00:00Z</time>
      </trkpt>
      <trkpt lat="39.340897" lon="-5.486276">
        <ele>430.1</ele>
        <time>1970-01-01T00:00:00Z</time>
      </trkpt>
      <trkpt lat="39.340897" lon="-5.486276">
        <ele>430.1</ele>
        <time>1970-01-01T00:00:00Z</time>
      </trkpt>
      <trkpt lat="39.340897" lon="-5.486276">
        <ele>430.1</ele>
        <time>1970-01-01T00:00:00Z</time>
      </trkpt>
      <trkpt lat="39.340973" lon="-5.486316">
        <ele>429.6</ele>
        <time>1970-01-01T00:00:00Z</time>
      </trkpt>
      <trkpt lat="39.340973" lon="-5.486316">
        <ele>429.6</ele>
        <time>1970-01-01T00:00:00Z</time>
      </trkpt>
      <trkpt lat="39.340973" lon="-5.486316">
        <ele>429.6</ele>
        <time>1970-01-01T00:00:00Z</time>
      </trkpt>
      <trkpt lat="39.340973" lon="-5.486316">
        <ele>429.6</ele>
        <time>1970-01-01T00:00:00Z</time>
      </trkpt>
      <trkpt lat="39.341023" lon="-5.486304">
        <ele>429.1</ele>
        <time>1970-01-01T00:00:00Z</time>
      </trkpt>
      <trkpt lat="39.341023" lon="-5.486304">
        <ele>429.1</ele>
        <time>1970-01-01T00:00:00Z</time>
      </trkpt>
      <trkpt lat="39.341023" lon="-5.486304">
        <ele>429.1</ele>
        <time>1970-01-01T00:00:00Z</time>
      </trkpt>
      <trkpt lat="39.341023" lon="-5.486304">
        <ele>429.1</ele>
        <time>1970-01-01T00:00:00Z</time>
      </trkpt>
      <trkpt lat="39.341059" lon="-5.486192">
        <ele>428.3</ele>
        <time>1970-01-01T00:00:00Z</time>
      </trkpt>
      <trkpt lat="39.341059" lon="-5.486192">
        <ele>428.3</ele>
        <time>1970-01-01T00:00:00Z</time>
      </trkpt>
      <trkpt lat="39.341059" lon="-5.486192">
        <ele>428.3</ele>
        <time>1970-01-01T00:00:00Z</time>
      </trkpt>
      <trkpt lat="39.341059" lon="-5.486192">
        <ele>428.3</ele>
        <time>1970-01-01T00:00:00Z</time>
      </trkpt>
      <trkpt lat="39.341082" lon="-5.485824">
        <ele>428.0</ele>
        <time>1970-01-01T00:00:00Z</time>
      </trkpt>
      <trkpt lat="39.341082" lon="-5.485824">
        <ele>428.0</ele>
        <time>1970-01-01T00:00:00Z</time>
      </trkpt>
      <trkpt lat="39.341082" lon="-5.485824">
        <ele>428.0</ele>
        <time>1970-01-01T00:00:00Z</time>
      </trkpt>
      <trkpt lat="39.341082" lon="-5.485824">
        <ele>428.0</ele>
        <time>1970-01-01T00:00:00Z</time>
      </trkpt>
      <trkpt lat="39.341108" lon="-5.485462">
        <ele>426.8</ele>
        <time>1970-01-01T00:00:00Z</time>
      </trkpt>
      <trkpt lat="39.341108" lon="-5.485462">
        <ele>426.8</ele>
        <time>1970-01-01T00:00:00Z</time>
      </trkpt>
      <trkpt lat="39.341108" lon="-5.485462">
        <ele>426.8</ele>
        <time>1970-01-01T00:00:00Z</time>
      </trkpt>
      <trkpt lat="39.341108" lon="-5.485462">
        <ele>426.8</ele>
        <time>1970-01-01T00:00:00Z</time>
      </trkpt>
      <trkpt lat="39.341116" lon="-5.485261">
        <ele>425.9</ele>
        <time>1970-01-01T00:00:00Z</time>
      </trkpt>
      <trkpt lat="39.341116" lon="-5.485261">
        <ele>425.9</ele>
        <time>1970-01-01T00:00:00Z</time>
      </trkpt>
      <trkpt lat="39.341116" lon="-5.485261">
        <ele>425.9</ele>
        <time>1970-01-01T00:00:00Z</time>
      </trkpt>
      <trkpt lat="39.341116" lon="-5.485261">
        <ele>425.9</ele>
        <time>1970-01-01T00:00:00Z</time>
      </trkpt>
      <trkpt lat="39.341114" lon="-5.485086">
        <ele>425.9</ele>
        <time>1970-01-01T00:00:00Z</time>
      </trkpt>
      <trkpt lat="39.341114" lon="-5.485086">
        <ele>425.9</ele>
        <time>1970-01-01T00:00:00Z</time>
      </trkpt>
      <trkpt lat="39.341114" lon="-5.485086">
        <ele>425.9</ele>
        <time>1970-01-01T00:00:00Z</time>
      </trkpt>
      <trkpt lat="39.341114" lon="-5.485086">
        <ele>425.9</ele>
        <time>1970-01-01T00:00:00Z</time>
      </trkpt>
      <trkpt lat="39.341109" lon="-5.484979">
        <ele>425.9</ele>
        <time>1970-01-01T00:00:00Z</time>
      </trkpt>
      <trkpt lat="39.341109" lon="-5.484979">
        <ele>425.9</ele>
        <time>1970-01-01T00:00:00Z</time>
      </trkpt>
      <trkpt lat="39.341109" lon="-5.484979">
        <ele>425.9</ele>
        <time>1970-01-01T00:00:00Z</time>
      </trkpt>
      <trkpt lat="39.341109" lon="-5.484979">
        <ele>425.9</ele>
        <time>1970-01-01T00:00:00Z</time>
      </trkpt>
      <trkpt lat="39.341135" lon="-5.484886">
        <ele>425.8</ele>
        <time>1970-01-01T00:00:00Z</time>
      </trkpt>
      <trkpt lat="39.341135" lon="-5.484886">
        <ele>425.8</ele>
        <time>1970-01-01T00:00:00Z</time>
      </trkpt>
      <trkpt lat="39.341135" lon="-5.484886">
        <ele>425.8</ele>
        <time>1970-01-01T00:00:00Z</time>
      </trkpt>
      <trkpt lat="39.341135" lon="-5.484886">
        <ele>425.8</ele>
        <time>1970-01-01T00:00:00Z</time>
      </trkpt>
      <trkpt lat="39.341157" lon="-5.484820">
        <ele>425.7</ele>
        <time>1970-01-01T00:00:00Z</time>
      </trkpt>
      <trkpt lat="39.341157" lon="-5.484820">
        <ele>425.7</ele>
        <time>1970-01-01T00:00:00Z</time>
      </trkpt>
      <trkpt lat="39.341157" lon="-5.484820">
        <ele>425.7</ele>
        <time>1970-01-01T00:00:00Z</time>
      </trkpt>
      <trkpt lat="39.341157" lon="-5.484820">
        <ele>425.7</ele>
        <time>1970-01-01T00:00:00Z</time>
      </trkpt>
      <trkpt lat="39.341226" lon="-5.484693">
        <ele>425.4</ele>
        <time>1970-01-01T00:00:00Z</time>
      </trkpt>
      <trkpt lat="39.341226" lon="-5.484693">
        <ele>425.4</ele>
        <time>1970-01-01T00:00:00Z</time>
      </trkpt>
      <trkpt lat="39.341226" lon="-5.484693">
        <ele>425.4</ele>
        <time>1970-01-01T00:00:00Z</time>
      </trkpt>
      <trkpt lat="39.341226" lon="-5.484693">
        <ele>425.4</ele>
        <time>1970-01-01T00:00:00Z</time>
      </trkpt>
      <trkpt lat="39.341273" lon="-5.484638">
        <ele>425.2</ele>
        <time>1970-01-01T00:00:00Z</time>
      </trkpt>
      <trkpt lat="39.341273" lon="-5.484638">
        <ele>425.2</ele>
        <time>1970-01-01T00:00:00Z</time>
      </trkpt>
      <trkpt lat="39.341273" lon="-5.484638">
        <ele>425.2</ele>
        <time>1970-01-01T00:00:00Z</time>
      </trkpt>
      <trkpt lat="39.341273" lon="-5.484638">
        <ele>425.2</ele>
        <time>1970-01-01T00:00:00Z</time>
      </trkpt>
      <trkpt lat="39.341309" lon="-5.484568">
        <ele>425.1</ele>
        <time>1970-01-01T00:00:00Z</time>
      </trkpt>
      <trkpt lat="39.341309" lon="-5.484568">
        <ele>425.1</ele>
        <time>1970-01-01T00:00:00Z</time>
      </trkpt>
      <trkpt lat="39.341309" lon="-5.484568">
        <ele>425.1</ele>
        <time>1970-01-01T00:00:00Z</time>
      </trkpt>
      <trkpt lat="39.341309" lon="-5.484568">
        <ele>425.1</ele>
        <time>1970-01-01T00:00:00Z</time>
      </trkpt>
      <trkpt lat="39.341348" lon="-5.484409">
        <ele>424.9</ele>
        <time>1970-01-01T00:00:00Z</time>
      </trkpt>
      <trkpt lat="39.341348" lon="-5.484409">
        <ele>424.9</ele>
        <time>1970-01-01T00:00:00Z</time>
      </trkpt>
      <trkpt lat="39.341348" lon="-5.484409">
        <ele>424.9</ele>
        <time>1970-01-01T00:00:00Z</time>
      </trkpt>
      <trkpt lat="39.341348" lon="-5.484409">
        <ele>424.9</ele>
        <time>1970-01-01T00:00:00Z</time>
      </trkpt>
      <trkpt lat="39.341384" lon="-5.484226">
        <ele>425.2</ele>
        <time>1970-01-01T00:00:00Z</time>
      </trkpt>
      <trkpt lat="39.341384" lon="-5.484226">
        <ele>425.2</ele>
        <time>1970-01-01T00:00:00Z</time>
      </trkpt>
      <trkpt lat="39.341384" lon="-5.484226">
        <ele>425.2</ele>
        <time>1970-01-01T00:00:00Z</time>
      </trkpt>
      <trkpt lat="39.341384" lon="-5.484226">
        <ele>425.2</ele>
        <time>1970-01-01T00:00:00Z</time>
      </trkpt>
      <trkpt lat="39.341439" lon="-5.484003">
        <ele>425.7</ele>
        <time>1970-01-01T00:00:00Z</time>
      </trkpt>
      <trkpt lat="39.341439" lon="-5.484003">
        <ele>425.7</ele>
        <time>1970-01-01T00:00:00Z</time>
      </trkpt>
      <trkpt lat="39.341439" lon="-5.484003">
        <ele>425.7</ele>
        <time>1970-01-01T00:00:00Z</time>
      </trkpt>
      <trkpt lat="39.341439" lon="-5.484003">
        <ele>425.7</ele>
        <time>1970-01-01T00:00:00Z</time>
      </trkpt>
      <trkpt lat="39.341492" lon="-5.483745">
        <ele>425.6</ele>
        <time>1970-01-01T00:00:00Z</time>
      </trkpt>
      <trkpt lat="39.341492" lon="-5.483745">
        <ele>425.6</ele>
        <time>1970-01-01T00:00:00Z</time>
      </trkpt>
      <trkpt lat="39.341492" lon="-5.483745">
        <ele>425.6</ele>
        <time>1970-01-01T00:00:00Z</time>
      </trkpt>
      <trkpt lat="39.341492" lon="-5.483745">
        <ele>425.6</ele>
        <time>1970-01-01T00:00:00Z</time>
      </trkpt>
      <trkpt lat="39.341554" lon="-5.483493">
        <ele>425.0</ele>
        <time>1970-01-01T00:00:00Z</time>
      </trkpt>
      <trkpt lat="39.341554" lon="-5.483493">
        <ele>425.0</ele>
        <time>1970-01-01T00:00:00Z</time>
      </trkpt>
      <trkpt lat="39.341554" lon="-5.483493">
        <ele>425.0</ele>
        <time>1970-01-01T00:00:00Z</time>
      </trkpt>
      <trkpt lat="39.341554" lon="-5.483493">
        <ele>425.0</ele>
        <time>1970-01-01T00:00:00Z</time>
      </trkpt>
      <trkpt lat="39.341601" lon="-5.483338">
        <ele>424.8</ele>
        <time>1970-01-01T00:00:00Z</time>
      </trkpt>
      <trkpt lat="39.341601" lon="-5.483338">
        <ele>424.8</ele>
        <time>1970-01-01T00:00:00Z</time>
      </trkpt>
      <trkpt lat="39.341601" lon="-5.483338">
        <ele>424.8</ele>
        <time>1970-01-01T00:00:00Z</time>
      </trkpt>
      <trkpt lat="39.341601" lon="-5.483338">
        <ele>424.8</ele>
        <time>1970-01-01T00:00:00Z</time>
      </trkpt>
      <trkpt lat="39.341669" lon="-5.483162">
        <ele>424.5</ele>
        <time>1970-01-01T00:00:00Z</time>
      </trkpt>
      <trkpt lat="39.341669" lon="-5.483162">
        <ele>424.5</ele>
        <time>1970-01-01T00:00:00Z</time>
      </trkpt>
      <trkpt lat="39.341669" lon="-5.483162">
        <ele>424.5</ele>
        <time>1970-01-01T00:00:00Z</time>
      </trkpt>
      <trkpt lat="39.341669" lon="-5.483162">
        <ele>424.5</ele>
        <time>1970-01-01T00:00:00Z</time>
      </trkpt>
      <trkpt lat="39.341749" lon="-5.482959">
        <ele>424.2</ele>
        <time>1970-01-01T00:00:00Z</time>
      </trkpt>
      <trkpt lat="39.341749" lon="-5.482959">
        <ele>424.2</ele>
        <time>1970-01-01T00:00:00Z</time>
      </trkpt>
      <trkpt lat="39.341749" lon="-5.482959">
        <ele>424.2</ele>
        <time>1970-01-01T00:00:00Z</time>
      </trkpt>
      <trkpt lat="39.341749" lon="-5.482959">
        <ele>424.2</ele>
        <time>1970-01-01T00:00:00Z</time>
      </trkpt>
      <trkpt lat="39.341799" lon="-5.482860">
        <ele>424.0</ele>
        <time>1970-01-01T00:00:00Z</time>
      </trkpt>
      <trkpt lat="39.341799" lon="-5.482860">
        <ele>424.0</ele>
        <time>1970-01-01T00:00:00Z</time>
      </trkpt>
      <trkpt lat="39.341799" lon="-5.482860">
        <ele>424.0</ele>
        <time>1970-01-01T00:00:00Z</time>
      </trkpt>
      <trkpt lat="39.341799" lon="-5.482860">
        <ele>424.0</ele>
        <time>1970-01-01T00:00:00Z</time>
      </trkpt>
      <trkpt lat="39.341867" lon="-5.482705">
        <ele>424.0</ele>
        <time>1970-01-01T00:00:00Z</time>
      </trkpt>
      <trkpt lat="39.341867" lon="-5.482705">
        <ele>424.0</ele>
        <time>1970-01-01T00:00:00Z</time>
      </trkpt>
      <trkpt lat="39.341867" lon="-5.482705">
        <ele>424.0</ele>
        <time>1970-01-01T00:00:00Z</time>
      </trkpt>
      <trkpt lat="39.341867" lon="-5.482705">
        <ele>424.0</ele>
        <time>1970-01-01T00:00:00Z</time>
      </trkpt>
      <trkpt lat="39.341934" lon="-5.482557">
        <ele>424.7</ele>
        <time>1970-01-01T00:00:00Z</time>
      </trkpt>
      <trkpt lat="39.341934" lon="-5.482557">
        <ele>424.7</ele>
        <time>1970-01-01T00:00:00Z</time>
      </trkpt>
      <trkpt lat="39.341934" lon="-5.482557">
        <ele>424.7</ele>
        <time>1970-01-01T00:00:00Z</time>
      </trkpt>
      <trkpt lat="39.341934" lon="-5.482557">
        <ele>424.7</ele>
        <time>1970-01-01T00:00:00Z</time>
      </trkpt>
      <trkpt lat="39.341978" lon="-5.482446">
        <ele>425.0</ele>
        <time>1970-01-01T00:00:00Z</time>
      </trkpt>
      <trkpt lat="39.341978" lon="-5.482446">
        <ele>425.0</ele>
        <time>1970-01-01T00:00:00Z</time>
      </trkpt>
      <trkpt lat="39.341978" lon="-5.482446">
        <ele>425.0</ele>
        <time>1970-01-01T00:00:00Z</time>
      </trkpt>
      <trkpt lat="39.341978" lon="-5.482446">
        <ele>425.0</ele>
        <time>1970-01-01T00:00:00Z</time>
      </trkpt>
      <trkpt lat="39.341997" lon="-5.482385">
        <ele>425.0</ele>
        <time>1970-01-01T00:00:00Z</time>
      </trkpt>
      <trkpt lat="39.341997" lon="-5.482385">
        <ele>425.0</ele>
        <time>1970-01-01T00:00:00Z</time>
      </trkpt>
      <trkpt lat="39.341997" lon="-5.482385">
        <ele>425.0</ele>
        <time>1970-01-01T00:00:00Z</time>
      </trkpt>
      <trkpt lat="39.341997" lon="-5.482385">
        <ele>425.0</ele>
        <time>1970-01-01T00:00:00Z</time>
      </trkpt>
      <trkpt lat="39.342014" lon="-5.482300">
        <ele>425.0</ele>
        <time>1970-01-01T00:00:00Z</time>
      </trkpt>
      <trkpt lat="39.342014" lon="-5.482300">
        <ele>425.0</ele>
        <time>1970-01-01T00:00:00Z</time>
      </trkpt>
      <trkpt lat="39.342014" lon="-5.482300">
        <ele>425.0</ele>
        <time>1970-01-01T00:00:00Z</time>
      </trkpt>
      <trkpt lat="39.342014" lon="-5.482300">
        <ele>425.0</ele>
        <time>1970-01-01T00:00:00Z</time>
      </trkpt>
      <trkpt lat="39.342072" lon="-5.482118">
        <ele>425.0</ele>
        <time>1970-01-01T00:00:00Z</time>
      </trkpt>
      <trkpt lat="39.342072" lon="-5.482118">
        <ele>425.0</ele>
        <time>1970-01-01T00:00:00Z</time>
      </trkpt>
      <trkpt lat="39.342072" lon="-5.482118">
        <ele>425.0</ele>
        <time>1970-01-01T00:00:00Z</time>
      </trkpt>
      <trkpt lat="39.342072" lon="-5.482118">
        <ele>425.0</ele>
        <time>1970-01-01T00:00:00Z</time>
      </trkpt>
      <trkpt lat="39.342115" lon="-5.481999">
        <ele>425.1</ele>
        <time>1970-01-01T00:00:00Z</time>
      </trkpt>
      <trkpt lat="39.342115" lon="-5.481999">
        <ele>425.1</ele>
        <time>1970-01-01T00:00:00Z</time>
      </trkpt>
      <trkpt lat="39.342115" lon="-5.481999">
        <ele>425.1</ele>
        <time>1970-01-01T00:00:00Z</time>
      </trkpt>
      <trkpt lat="39.342115" lon="-5.481999">
        <ele>425.1</ele>
        <time>1970-01-01T00:00:00Z</time>
      </trkpt>
      <trkpt lat="39.342177" lon="-5.481874">
        <ele>425.2</ele>
        <time>1970-01-01T00:00:00Z</time>
      </trkpt>
      <trkpt lat="39.342177" lon="-5.481874">
        <ele>425.2</ele>
        <time>1970-01-01T00:00:00Z</time>
      </trkpt>
      <trkpt lat="39.342177" lon="-5.481874">
        <ele>425.2</ele>
        <time>1970-01-01T00:00:00Z</time>
      </trkpt>
      <trkpt lat="39.342177" lon="-5.481874">
        <ele>425.2</ele>
        <time>1970-01-01T00:00:00Z</time>
      </trkpt>
      <trkpt lat="39.342222" lon="-5.481788">
        <ele>425.1</ele>
        <time>1970-01-01T00:00:00Z</time>
      </trkpt>
      <trkpt lat="39.342222" lon="-5.481788">
        <ele>425.1</ele>
        <time>1970-01-01T00:00:00Z</time>
      </trkpt>
      <trkpt lat="39.342222" lon="-5.481788">
        <ele>425.1</ele>
        <time>1970-01-01T00:00:00Z</time>
      </trkpt>
      <trkpt lat="39.342222" lon="-5.481788">
        <ele>425.1</ele>
        <time>1970-01-01T00:00:00Z</time>
      </trkpt>
      <trkpt lat="39.342256" lon="-5.481717">
        <ele>425.3</ele>
        <time>1970-01-01T00:00:00Z</time>
      </trkpt>
      <trkpt lat="39.342256" lon="-5.481717">
        <ele>425.3</ele>
        <time>1970-01-01T00:00:00Z</time>
      </trkpt>
      <trkpt lat="39.342256" lon="-5.481717">
        <ele>425.3</ele>
        <time>1970-01-01T00:00:00Z</time>
      </trkpt>
      <trkpt lat="39.342256" lon="-5.481717">
        <ele>425.3</ele>
        <time>1970-01-01T00:00:00Z</time>
      </trkpt>
      <trkpt lat="39.342280" lon="-5.481646">
        <ele>425.6</ele>
        <time>1970-01-01T00:00:00Z</time>
      </trkpt>
      <trkpt lat="39.342280" lon="-5.481646">
        <ele>425.6</ele>
        <time>1970-01-01T00:00:00Z</time>
      </trkpt>
      <trkpt lat="39.342280" lon="-5.481646">
        <ele>425.6</ele>
        <time>1970-01-01T00:00:00Z</time>
      </trkpt>
      <trkpt lat="39.342280" lon="-5.481646">
        <ele>425.6</ele>
        <time>1970-01-01T00:00:00Z</time>
      </trkpt>
      <trkpt lat="39.342316" lon="-5.481558">
        <ele>426.0</ele>
        <time>1970-01-01T00:00:00Z</time>
      </trkpt>
      <trkpt lat="39.342316" lon="-5.481558">
        <ele>426.0</ele>
        <time>1970-01-01T00:00:00Z</time>
      </trkpt>
      <trkpt lat="39.342316" lon="-5.481558">
        <ele>426.0</ele>
        <time>1970-01-01T00:00:00Z</time>
      </trkpt>
      <trkpt lat="39.342316" lon="-5.481558">
        <ele>426.0</ele>
        <time>1970-01-01T00:00:00Z</time>
      </trkpt>
      <trkpt lat="39.342353" lon="-5.481492">
        <ele>426.2</ele>
        <time>1970-01-01T00:00:00Z</time>
      </trkpt>
      <trkpt lat="39.342353" lon="-5.481492">
        <ele>426.2</ele>
        <time>1970-01-01T00:00:00Z</time>
      </trkpt>
      <trkpt lat="39.342353" lon="-5.481492">
        <ele>426.2</ele>
        <time>1970-01-01T00:00:00Z</time>
      </trkpt>
      <trkpt lat="39.342353" lon="-5.481492">
        <ele>426.2</ele>
        <time>1970-01-01T00:00:00Z</time>
      </trkpt>
      <trkpt lat="39.342404" lon="-5.481354">
        <ele>426.3</ele>
        <time>1970-01-01T00:00:00Z</time>
      </trkpt>
      <trkpt lat="39.342404" lon="-5.481354">
        <ele>426.3</ele>
        <time>1970-01-01T00:00:00Z</time>
      </trkpt>
      <trkpt lat="39.342404" lon="-5.481354">
        <ele>426.3</ele>
        <time>1970-01-01T00:00:00Z</time>
      </trkpt>
      <trkpt lat="39.342404" lon="-5.481354">
        <ele>426.3</ele>
        <time>1970-01-01T00:00:00Z</time>
      </trkpt>
      <trkpt lat="39.342457" lon="-5.481196">
        <ele>426.1</ele>
        <time>1970-01-01T00:00:00Z</time>
      </trkpt>
      <trkpt lat="39.342457" lon="-5.481196">
        <ele>426.1</ele>
        <time>1970-01-01T00:00:00Z</time>
      </trkpt>
      <trkpt lat="39.342457" lon="-5.481196">
        <ele>426.1</ele>
        <time>1970-01-01T00:00:00Z</time>
      </trkpt>
      <trkpt lat="39.342457" lon="-5.481196">
        <ele>426.1</ele>
        <time>1970-01-01T00:00:00Z</time>
      </trkpt>
      <trkpt lat="39.342510" lon="-5.481066">
        <ele>425.9</ele>
        <time>1970-01-01T00:00:00Z</time>
      </trkpt>
      <trkpt lat="39.342510" lon="-5.481066">
        <ele>425.9</ele>
        <time>1970-01-01T00:00:00Z</time>
      </trkpt>
      <trkpt lat="39.342510" lon="-5.481066">
        <ele>425.9</ele>
        <time>1970-01-01T00:00:00Z</time>
      </trkpt>
      <trkpt lat="39.342510" lon="-5.481066">
        <ele>425.9</ele>
        <time>1970-01-01T00:00:00Z</time>
      </trkpt>
      <trkpt lat="39.342557" lon="-5.480967">
        <ele>425.7</ele>
        <time>1970-01-01T00:00:00Z</time>
      </trkpt>
      <trkpt lat="39.342557" lon="-5.480967">
        <ele>425.7</ele>
        <time>1970-01-01T00:00:00Z</time>
      </trkpt>
      <trkpt lat="39.342557" lon="-5.480967">
        <ele>425.7</ele>
        <time>1970-01-01T00:00:00Z</time>
      </trkpt>
      <trkpt lat="39.342557" lon="-5.480967">
        <ele>425.7</ele>
        <time>1970-01-01T00:00:00Z</time>
      </trkpt>
      <trkpt lat="39.342595" lon="-5.480880">
        <ele>425.5</ele>
        <time>1970-01-01T00:00:00Z</time>
      </trkpt>
      <trkpt lat="39.342595" lon="-5.480880">
        <ele>425.5</ele>
        <time>1970-01-01T00:00:00Z</time>
      </trkpt>
      <trkpt lat="39.342595" lon="-5.480880">
        <ele>425.5</ele>
        <time>1970-01-01T00:00:00Z</time>
      </trkpt>
      <trkpt lat="39.342595" lon="-5.480880">
        <ele>425.5</ele>
        <time>1970-01-01T00:00:00Z</time>
      </trkpt>
      <trkpt lat="39.342658" lon="-5.480750">
        <ele>425.3</ele>
        <time>1970-01-01T00:00:00Z</time>
      </trkpt>
      <trkpt lat="39.342658" lon="-5.480750">
        <ele>425.3</ele>
        <time>1970-01-01T00:00:00Z</time>
      </trkpt>
      <trkpt lat="39.342658" lon="-5.480750">
        <ele>425.3</ele>
        <time>1970-01-01T00:00:00Z</time>
      </trkpt>
      <trkpt lat="39.342658" lon="-5.480750">
        <ele>425.3</ele>
        <time>1970-01-01T00:00:00Z</time>
      </trkpt>
      <trkpt lat="39.342764" lon="-5.480542">
        <ele>424.8</ele>
        <time>1970-01-01T00:00:00Z</time>
      </trkpt>
      <trkpt lat="39.342764" lon="-5.480542">
        <ele>424.8</ele>
        <time>1970-01-01T00:00:00Z</time>
      </trkpt>
      <trkpt lat="39.342764" lon="-5.480542">
        <ele>424.8</ele>
        <time>1970-01-01T00:00:00Z</time>
      </trkpt>
      <trkpt lat="39.342764" lon="-5.480542">
        <ele>424.8</ele>
        <time>1970-01-01T00:00:00Z</time>
      </trkpt>
      <trkpt lat="39.342825" lon="-5.480444">
        <ele>424.5</ele>
        <time>1970-01-01T00:00:00Z</time>
      </trkpt>
      <trkpt lat="39.342825" lon="-5.480444">
        <ele>424.5</ele>
        <time>1970-01-01T00:00:00Z</time>
      </trkpt>
      <trkpt lat="39.342825" lon="-5.480444">
        <ele>424.5</ele>
        <time>1970-01-01T00:00:00Z</time>
      </trkpt>
      <trkpt lat="39.342825" lon="-5.480444">
        <ele>424.5</ele>
        <time>1970-01-01T00:00:00Z</time>
      </trkpt>
      <trkpt lat="39.342863" lon="-5.480365">
        <ele>424.4</ele>
        <time>1970-01-01T00:00:00Z</time>
      </trkpt>
      <trkpt lat="39.342863" lon="-5.480365">
        <ele>424.4</ele>
        <time>1970-01-01T00:00:00Z</time>
      </trkpt>
      <trkpt lat="39.342863" lon="-5.480365">
        <ele>424.4</ele>
        <time>1970-01-01T00:00:00Z</time>
      </trkpt>
      <trkpt lat="39.342863" lon="-5.480365">
        <ele>424.4</ele>
        <time>1970-01-01T00:00:00Z</time>
      </trkpt>
      <trkpt lat="39.342896" lon="-5.480283">
        <ele>424.2</ele>
        <time>1970-01-01T00:00:00Z</time>
      </trkpt>
      <trkpt lat="39.342896" lon="-5.480283">
        <ele>424.2</ele>
        <time>1970-01-01T00:00:00Z</time>
      </trkpt>
      <trkpt lat="39.342896" lon="-5.480283">
        <ele>424.2</ele>
        <time>1970-01-01T00:00:00Z</time>
      </trkpt>
      <trkpt lat="39.342896" lon="-5.480283">
        <ele>424.2</ele>
        <time>1970-01-01T00:00:00Z</time>
      </trkpt>
      <trkpt lat="39.342924" lon="-5.480167">
        <ele>424.1</ele>
        <time>1970-01-01T00:00:00Z</time>
      </trkpt>
      <trkpt lat="39.342924" lon="-5.480167">
        <ele>424.1</ele>
        <time>1970-01-01T00:00:00Z</time>
      </trkpt>
      <trkpt lat="39.342924" lon="-5.480167">
        <ele>424.1</ele>
        <time>1970-01-01T00:00:00Z</time>
      </trkpt>
      <trkpt lat="39.342924" lon="-5.480167">
        <ele>424.1</ele>
        <time>1970-01-01T00:00:00Z</time>
      </trkpt>
      <trkpt lat="39.342934" lon="-5.480008">
        <ele>423.4</ele>
        <time>1970-01-01T00:00:00Z</time>
      </trkpt>
      <trkpt lat="39.342934" lon="-5.480008">
        <ele>423.4</ele>
        <time>1970-01-01T00:00:00Z</time>
      </trkpt>
      <trkpt lat="39.342934" lon="-5.480008">
        <ele>423.4</ele>
        <time>1970-01-01T00:00:00Z</time>
      </trkpt>
      <trkpt lat="39.342934" lon="-5.480008">
        <ele>423.4</ele>
        <time>1970-01-01T00:00:00Z</time>
      </trkpt>
      <trkpt lat="39.342960" lon="-5.479810">
        <ele>423.0</ele>
        <time>1970-01-01T00:00:00Z</time>
      </trkpt>
      <trkpt lat="39.342960" lon="-5.479810">
        <ele>423.0</ele>
        <time>1970-01-01T00:00:00Z</time>
      </trkpt>
      <trkpt lat="39.342960" lon="-5.479810">
        <ele>423.0</ele>
        <time>1970-01-01T00:00:00Z</time>
      </trkpt>
      <trkpt lat="39.342960" lon="-5.479810">
        <ele>423.0</ele>
        <time>1970-01-01T00:00:00Z</time>
      </trkpt>
      <trkpt lat="39.342986" lon="-5.479668">
        <ele>423.0</ele>
        <time>1970-01-01T00:00:00Z</time>
      </trkpt>
      <trkpt lat="39.342986" lon="-5.479668">
        <ele>423.0</ele>
        <time>1970-01-01T00:00:00Z</time>
      </trkpt>
      <trkpt lat="39.342986" lon="-5.479668">
        <ele>423.0</ele>
        <time>1970-01-01T00:00:00Z</time>
      </trkpt>
      <trkpt lat="39.342986" lon="-5.479668">
        <ele>423.0</ele>
        <time>1970-01-01T00:00:00Z</time>
      </trkpt>
      <trkpt lat="39.343019" lon="-5.479514">
        <ele>423.0</ele>
        <time>1970-01-01T00:00:00Z</time>
      </trkpt>
      <trkpt lat="39.343019" lon="-5.479514">
        <ele>423.0</ele>
        <time>1970-01-01T00:00:00Z</time>
      </trkpt>
      <trkpt lat="39.343019" lon="-5.479514">
        <ele>423.0</ele>
        <time>1970-01-01T00:00:00Z</time>
      </trkpt>
      <trkpt lat="39.343019" lon="-5.479514">
        <ele>423.0</ele>
        <time>1970-01-01T00:00:00Z</time>
      </trkpt>
      <trkpt lat="39.343056" lon="-5.479344">
        <ele>423.3</ele>
        <time>1970-01-01T00:00:00Z</time>
      </trkpt>
      <trkpt lat="39.343056" lon="-5.479344">
        <ele>423.3</ele>
        <time>1970-01-01T00:00:00Z</time>
      </trkpt>
      <trkpt lat="39.343056" lon="-5.479344">
        <ele>423.3</ele>
        <time>1970-01-01T00:00:00Z</time>
      </trkpt>
      <trkpt lat="39.343056" lon="-5.479344">
        <ele>423.3</ele>
        <time>1970-01-01T00:00:00Z</time>
      </trkpt>
      <trkpt lat="39.343114" lon="-5.479168">
        <ele>423.4</ele>
        <time>1970-01-01T00:00:00Z</time>
      </trkpt>
      <trkpt lat="39.343114" lon="-5.479168">
        <ele>423.4</ele>
        <time>1970-01-01T00:00:00Z</time>
      </trkpt>
      <trkpt lat="39.343114" lon="-5.479168">
        <ele>423.4</ele>
        <time>1970-01-01T00:00:00Z</time>
      </trkpt>
      <trkpt lat="39.343114" lon="-5.479168">
        <ele>423.4</ele>
        <time>1970-01-01T00:00:00Z</time>
      </trkpt>
      <trkpt lat="39.343172" lon="-5.479025">
        <ele>423.1</ele>
        <time>1970-01-01T00:00:00Z</time>
      </trkpt>
      <trkpt lat="39.343172" lon="-5.479025">
        <ele>423.1</ele>
        <time>1970-01-01T00:00:00Z</time>
      </trkpt>
      <trkpt lat="39.343172" lon="-5.479025">
        <ele>423.1</ele>
        <time>1970-01-01T00:00:00Z</time>
      </trkpt>
      <trkpt lat="39.343172" lon="-5.479025">
        <ele>423.1</ele>
        <time>1970-01-01T00:00:00Z</time>
      </trkpt>
      <trkpt lat="39.343229" lon="-5.478929">
        <ele>423.0</ele>
        <time>1970-01-01T00:00:00Z</time>
      </trkpt>
      <trkpt lat="39.343229" lon="-5.478929">
        <ele>423.0</ele>
        <time>1970-01-01T00:00:00Z</time>
      </trkpt>
      <trkpt lat="39.343229" lon="-5.478929">
        <ele>423.0</ele>
        <time>1970-01-01T00:00:00Z</time>
      </trkpt>
      <trkpt lat="39.343229" lon="-5.478929">
        <ele>423.0</ele>
        <time>1970-01-01T00:00:00Z</time>
      </trkpt>
      <trkpt lat="39.343286" lon="-5.478841">
        <ele>423.0</ele>
        <time>1970-01-01T00:00:00Z</time>
      </trkpt>
      <trkpt lat="39.343286" lon="-5.478841">
        <ele>423.0</ele>
        <time>1970-01-01T00:00:00Z</time>
      </trkpt>
      <trkpt lat="39.343286" lon="-5.478841">
        <ele>423.0</ele>
        <time>1970-01-01T00:00:00Z</time>
      </trkpt>
      <trkpt lat="39.343286" lon="-5.478841">
        <ele>423.0</ele>
        <time>1970-01-01T00:00:00Z</time>
      </trkpt>
      <trkpt lat="39.343335" lon="-5.478742">
        <ele>423.2</ele>
        <time>1970-01-01T00:00:00Z</time>
      </trkpt>
      <trkpt lat="39.343335" lon="-5.478742">
        <ele>423.2</ele>
        <time>1970-01-01T00:00:00Z</time>
      </trkpt>
      <trkpt lat="39.343335" lon="-5.478742">
        <ele>423.2</ele>
        <time>1970-01-01T00:00:00Z</time>
      </trkpt>
      <trkpt lat="39.343335" lon="-5.478742">
        <ele>423.2</ele>
        <time>1970-01-01T00:00:00Z</time>
      </trkpt>
      <trkpt lat="39.343364" lon="-5.478673">
        <ele>423.5</ele>
        <time>1970-01-01T00:00:00Z</time>
      </trkpt>
      <trkpt lat="39.343364" lon="-5.478673">
        <ele>423.5</ele>
        <time>1970-01-01T00:00:00Z</time>
      </trkpt>
      <trkpt lat="39.343364" lon="-5.478673">
        <ele>423.5</ele>
        <time>1970-01-01T00:00:00Z</time>
      </trkpt>
      <trkpt lat="39.343364" lon="-5.478673">
        <ele>423.5</ele>
        <time>1970-01-01T00:00:00Z</time>
      </trkpt>
      <trkpt lat="39.343391" lon="-5.478578">
        <ele>423.9</ele>
        <time>1970-01-01T00:00:00Z</time>
      </trkpt>
      <trkpt lat="39.343391" lon="-5.478578">
        <ele>423.9</ele>
        <time>1970-01-01T00:00:00Z</time>
      </trkpt>
      <trkpt lat="39.343391" lon="-5.478578">
        <ele>423.9</ele>
        <time>1970-01-01T00:00:00Z</time>
      </trkpt>
      <trkpt lat="39.343391" lon="-5.478578">
        <ele>423.9</ele>
        <time>1970-01-01T00:00:00Z</time>
      </trkpt>
      <trkpt lat="39.343421" lon="-5.478438">
        <ele>424.0</ele>
        <time>1970-01-01T00:00:00Z</time>
      </trkpt>
      <trkpt lat="39.343421" lon="-5.478438">
        <ele>424.0</ele>
        <time>1970-01-01T00:00:00Z</time>
      </trkpt>
      <trkpt lat="39.343421" lon="-5.478438">
        <ele>424.0</ele>
        <time>1970-01-01T00:00:00Z</time>
      </trkpt>
      <trkpt lat="39.343421" lon="-5.478438">
        <ele>424.0</ele>
        <time>1970-01-01T00:00:00Z</time>
      </trkpt>
      <trkpt lat="39.343441" lon="-5.478345">
        <ele>424.0</ele>
        <time>1970-01-01T00:00:00Z</time>
      </trkpt>
      <trkpt lat="39.343441" lon="-5.478345">
        <ele>424.0</ele>
        <time>1970-01-01T00:00:00Z</time>
      </trkpt>
      <trkpt lat="39.343441" lon="-5.478345">
        <ele>424.0</ele>
        <time>1970-01-01T00:00:00Z</time>
      </trkpt>
      <trkpt lat="39.343441" lon="-5.478345">
        <ele>424.0</ele>
        <time>1970-01-01T00:00:00Z</time>
      </trkpt>
      <trkpt lat="39.343462" lon="-5.478264">
        <ele>424.0</ele>
        <time>1970-01-01T00:00:00Z</time>
      </trkpt>
      <trkpt lat="39.343462" lon="-5.478264">
        <ele>424.0</ele>
        <time>1970-01-01T00:00:00Z</time>
      </trkpt>
      <trkpt lat="39.343462" lon="-5.478264">
        <ele>424.0</ele>
        <time>1970-01-01T00:00:00Z</time>
      </trkpt>
      <trkpt lat="39.343462" lon="-5.478264">
        <ele>424.0</ele>
        <time>1970-01-01T00:00:00Z</time>
      </trkpt>
      <trkpt lat="39.343415" lon="-5.478238">
        <ele>424.0</ele>
        <time>1970-01-01T00:00:00Z</time>
      </trkpt>
      <trkpt lat="39.343415" lon="-5.478238">
        <ele>424.0</ele>
        <time>1970-01-01T00:00:00Z</time>
      </trkpt>
      <trkpt lat="39.343415" lon="-5.478238">
        <ele>424.0</ele>
        <time>1970-01-01T00:00:00Z</time>
      </trkpt>
      <trkpt lat="39.343415" lon="-5.478238">
        <ele>424.0</ele>
        <time>1970-01-01T00:00:00Z</time>
      </trkpt>
      <trkpt lat="39.343374" lon="-5.478214">
        <ele>424.1</ele>
        <time>1970-01-01T00:00:00Z</time>
      </trkpt>
      <trkpt lat="39.343374" lon="-5.478214">
        <ele>424.1</ele>
        <time>1970-01-01T00:00:00Z</time>
      </trkpt>
      <trkpt lat="39.343374" lon="-5.478214">
        <ele>424.1</ele>
        <time>1970-01-01T00:00:00Z</time>
      </trkpt>
      <trkpt lat="39.343374" lon="-5.478214">
        <ele>424.1</ele>
        <time>1970-01-01T00:00:00Z</time>
      </trkpt>
      <trkpt lat="39.343365" lon="-5.478174">
        <ele>424.1</ele>
        <time>1970-01-01T00:00:00Z</time>
      </trkpt>
      <trkpt lat="39.343365" lon="-5.478174">
        <ele>424.1</ele>
        <time>1970-01-01T00:00:00Z</time>
      </trkpt>
      <trkpt lat="39.343365" lon="-5.478174">
        <ele>424.1</ele>
        <time>1970-01-01T00:00:00Z</time>
      </trkpt>
      <trkpt lat="39.343365" lon="-5.478174">
        <ele>424.1</ele>
        <time>1970-01-01T00:00:00Z</time>
      </trkpt>
      <trkpt lat="39.343382" lon="-5.478114">
        <ele>424.1</ele>
        <time>1970-01-01T00:00:00Z</time>
      </trkpt>
      <trkpt lat="39.343382" lon="-5.478114">
        <ele>424.1</ele>
        <time>1970-01-01T00:00:00Z</time>
      </trkpt>
      <trkpt lat="39.343382" lon="-5.478114">
        <ele>424.1</ele>
        <time>1970-01-01T00:00:00Z</time>
      </trkpt>
      <trkpt lat="39.343382" lon="-5.478114">
        <ele>424.1</ele>
        <time>1970-01-01T00:00:00Z</time>
      </trkpt>
      <trkpt lat="39.343402" lon="-5.478070">
        <ele>424.1</ele>
        <time>1970-01-01T00:00:00Z</time>
      </trkpt>
      <trkpt lat="39.343402" lon="-5.478070">
        <ele>424.1</ele>
        <time>1970-01-01T00:00:00Z</time>
      </trkpt>
      <trkpt lat="39.343402" lon="-5.478070">
        <ele>424.1</ele>
        <time>1970-01-01T00:00:00Z</time>
      </trkpt>
      <trkpt lat="39.343402" lon="-5.478070">
        <ele>424.1</ele>
        <time>1970-01-01T00:00:00Z</time>
      </trkpt>
      <trkpt lat="39.343438" lon="-5.477951">
        <ele>424.5</ele>
        <time>1970-01-01T00:00:00Z</time>
      </trkpt>
      <trkpt lat="39.343438" lon="-5.477951">
        <ele>424.5</ele>
        <time>1970-01-01T00:00:00Z</time>
      </trkpt>
      <trkpt lat="39.343438" lon="-5.477951">
        <ele>424.5</ele>
        <time>1970-01-01T00:00:00Z</time>
      </trkpt>
      <trkpt lat="39.343438" lon="-5.477951">
        <ele>424.5</ele>
        <time>1970-01-01T00:00:00Z</time>
      </trkpt>
      <trkpt lat="39.343459" lon="-5.477841">
        <ele>424.8</ele>
        <time>1970-01-01T00:00:00Z</time>
      </trkpt>
      <trkpt lat="39.343459" lon="-5.477841">
        <ele>424.8</ele>
        <time>1970-01-01T00:00:00Z</time>
      </trkpt>
      <trkpt lat="39.343459" lon="-5.477841">
        <ele>424.8</ele>
        <time>1970-01-01T00:00:00Z</time>
      </trkpt>
      <trkpt lat="39.343459" lon="-5.477841">
        <ele>424.8</ele>
        <time>1970-01-01T00:00:00Z</time>
      </trkpt>
      <trkpt lat="39.343474" lon="-5.477709">
        <ele>425.3</ele>
        <time>1970-01-01T00:00:00Z</time>
      </trkpt>
      <trkpt lat="39.343474" lon="-5.477709">
        <ele>425.3</ele>
        <time>1970-01-01T00:00:00Z</time>
      </trkpt>
      <trkpt lat="39.343474" lon="-5.477709">
        <ele>425.3</ele>
        <time>1970-01-01T00:00:00Z</time>
      </trkpt>
      <trkpt lat="39.343474" lon="-5.477709">
        <ele>425.3</ele>
        <time>1970-01-01T00:00:00Z</time>
      </trkpt>
      <trkpt lat="39.343500" lon="-5.477574">
        <ele>425.7</ele>
        <time>1970-01-01T00:00:00Z</time>
      </trkpt>
      <trkpt lat="39.343500" lon="-5.477574">
        <ele>425.7</ele>
        <time>1970-01-01T00:00:00Z</time>
      </trkpt>
      <trkpt lat="39.343500" lon="-5.477574">
        <ele>425.7</ele>
        <time>1970-01-01T00:00:00Z</time>
      </trkpt>
      <trkpt lat="39.343500" lon="-5.477574">
        <ele>425.7</ele>
        <time>1970-01-01T00:00:00Z</time>
      </trkpt>
      <trkpt lat="39.343527" lon="-5.477457">
        <ele>425.8</ele>
        <time>1970-01-01T00:00:00Z</time>
      </trkpt>
      <trkpt lat="39.343527" lon="-5.477457">
        <ele>425.8</ele>
        <time>1970-01-01T00:00:00Z</time>
      </trkpt>
      <trkpt lat="39.343527" lon="-5.477457">
        <ele>425.8</ele>
        <time>1970-01-01T00:00:00Z</time>
      </trkpt>
      <trkpt lat="39.343527" lon="-5.477457">
        <ele>425.8</ele>
        <time>1970-01-01T00:00:00Z</time>
      </trkpt>
      <trkpt lat="39.343548" lon="-5.477312">
        <ele>426.1</ele>
        <time>1970-01-01T00:00:00Z</time>
      </trkpt>
      <trkpt lat="39.343548" lon="-5.477312">
        <ele>426.1</ele>
        <time>1970-01-01T00:00:00Z</time>
      </trkpt>
      <trkpt lat="39.343548" lon="-5.477312">
        <ele>426.1</ele>
        <time>1970-01-01T00:00:00Z</time>
      </trkpt>
      <trkpt lat="39.343548" lon="-5.477312">
        <ele>426.1</ele>
        <time>1970-01-01T00:00:00Z</time>
      </trkpt>
      <trkpt lat="39.343567" lon="-5.477156">
        <ele>426.7</ele>
        <time>1970-01-01T00:00:00Z</time>
      </trkpt>
      <trkpt lat="39.343567" lon="-5.477156">
        <ele>426.7</ele>
        <time>1970-01-01T00:00:00Z</time>
      </trkpt>
      <trkpt lat="39.343567" lon="-5.477156">
        <ele>426.7</ele>
        <time>1970-01-01T00:00:00Z</time>
      </trkpt>
      <trkpt lat="39.343567" lon="-5.477156">
        <ele>426.7</ele>
        <time>1970-01-01T00:00:00Z</time>
      </trkpt>
      <trkpt lat="39.343606" lon="-5.476957">
        <ele>426.3</ele>
        <time>1970-01-01T00:00:00Z</time>
      </trkpt>
      <trkpt lat="39.343606" lon="-5.476957">
        <ele>426.3</ele>
        <time>1970-01-01T00:00:00Z</time>
      </trkpt>
      <trkpt lat="39.343606" lon="-5.476957">
        <ele>426.3</ele>
        <time>1970-01-01T00:00:00Z</time>
      </trkpt>
      <trkpt lat="39.343606" lon="-5.476957">
        <ele>426.3</ele>
        <time>1970-01-01T00:00:00Z</time>
      </trkpt>
      <trkpt lat="39.343665" lon="-5.476715">
        <ele>426.8</ele>
        <time>1970-01-01T00:00:00Z</time>
      </trkpt>
      <trkpt lat="39.343665" lon="-5.476715">
        <ele>426.8</ele>
        <time>1970-01-01T00:00:00Z</time>
      </trkpt>
      <trkpt lat="39.343665" lon="-5.476715">
        <ele>426.8</ele>
        <time>1970-01-01T00:00:00Z</time>
      </trkpt>
      <trkpt lat="39.343665" lon="-5.476715">
        <ele>426.8</ele>
        <time>1970-01-01T00:00:00Z</time>
      </trkpt>
      <trkpt lat="39.343698" lon="-5.476617">
        <ele>427.0</ele>
        <time>1970-01-01T00:00:00Z</time>
      </trkpt>
      <trkpt lat="39.343698" lon="-5.476617">
        <ele>427.0</ele>
        <time>1970-01-01T00:00:00Z</time>
      </trkpt>
      <trkpt lat="39.343698" lon="-5.476617">
        <ele>427.0</ele>
        <time>1970-01-01T00:00:00Z</time>
      </trkpt>
      <trkpt lat="39.343698" lon="-5.476617">
        <ele>427.0</ele>
        <time>1970-01-01T00:00:00Z</time>
      </trkpt>
      <trkpt lat="39.343757" lon="-5.476437">
        <ele>427.1</ele>
        <time>1970-01-01T00:00:00Z</time>
      </trkpt>
      <trkpt lat="39.343757" lon="-5.476437">
        <ele>427.1</ele>
        <time>1970-01-01T00:00:00Z</time>
      </trkpt>
      <trkpt lat="39.343757" lon="-5.476437">
        <ele>427.1</ele>
        <time>1970-01-01T00:00:00Z</time>
      </trkpt>
      <trkpt lat="39.343757" lon="-5.476437">
        <ele>427.1</ele>
        <time>1970-01-01T00:00:00Z</time>
      </trkpt>
      <trkpt lat="39.343815" lon="-5.476247">
        <ele>427.2</ele>
        <time>1970-01-01T00:00:00Z</time>
      </trkpt>
      <trkpt lat="39.343815" lon="-5.476247">
        <ele>427.2</ele>
        <time>1970-01-01T00:00:00Z</time>
      </trkpt>
      <trkpt lat="39.343815" lon="-5.476247">
        <ele>427.2</ele>
        <time>1970-01-01T00:00:00Z</time>
      </trkpt>
      <trkpt lat="39.343815" lon="-5.476247">
        <ele>427.2</ele>
        <time>1970-01-01T00:00:00Z</time>
      </trkpt>
      <trkpt lat="39.343884" lon="-5.476033">
        <ele>427.8</ele>
        <time>1970-01-01T00:00:00Z</time>
      </trkpt>
      <trkpt lat="39.343884" lon="-5.476033">
        <ele>427.8</ele>
        <time>1970-01-01T00:00:00Z</time>
      </trkpt>
      <trkpt lat="39.343884" lon="-5.476033">
        <ele>427.8</ele>
        <time>1970-01-01T00:00:00Z</time>
      </trkpt>
      <trkpt lat="39.343884" lon="-5.476033">
        <ele>427.8</ele>
        <time>1970-01-01T00:00:00Z</time>
      </trkpt>
      <trkpt lat="39.343960" lon="-5.475750">
        <ele>428.0</ele>
        <time>1970-01-01T00:00:00Z</time>
      </trkpt>
      <trkpt lat="39.343960" lon="-5.475750">
        <ele>428.0</ele>
        <time>1970-01-01T00:00:00Z</time>
      </trkpt>
      <trkpt lat="39.343960" lon="-5.475750">
        <ele>428.0</ele>
        <time>1970-01-01T00:00:00Z</time>
      </trkpt>
      <trkpt lat="39.343960" lon="-5.475750">
        <ele>428.0</ele>
        <time>1970-01-01T00:00:00Z</time>
      </trkpt>
      <trkpt lat="39.344001" lon="-5.475561">
        <ele>428.0</ele>
        <time>1970-01-01T00:00:00Z</time>
      </trkpt>
      <trkpt lat="39.344001" lon="-5.475561">
        <ele>428.0</ele>
        <time>1970-01-01T00:00:00Z</time>
      </trkpt>
      <trkpt lat="39.344001" lon="-5.475561">
        <ele>428.0</ele>
        <time>1970-01-01T00:00:00Z</time>
      </trkpt>
      <trkpt lat="39.344001" lon="-5.475561">
        <ele>428.0</ele>
        <time>1970-01-01T00:00:00Z</time>
      </trkpt>
      <trkpt lat="39.344039" lon="-5.475375">
        <ele>428.0</ele>
        <time>1970-01-01T00:00:00Z</time>
      </trkpt>
      <trkpt lat="39.344039" lon="-5.475375">
        <ele>428.0</ele>
        <time>1970-01-01T00:00:00Z</time>
      </trkpt>
      <trkpt lat="39.344039" lon="-5.475375">
        <ele>428.0</ele>
        <time>1970-01-01T00:00:00Z</time>
      </trkpt>
      <trkpt lat="39.344039" lon="-5.475375">
        <ele>428.0</ele>
        <time>1970-01-01T00:00:00Z</time>
      </trkpt>
      <trkpt lat="39.344068" lon="-5.475199">
        <ele>428.0</ele>
        <time>1970-01-01T00:00:00Z</time>
      </trkpt>
      <trkpt lat="39.344068" lon="-5.475199">
        <ele>428.0</ele>
        <time>1970-01-01T00:00:00Z</time>
      </trkpt>
      <trkpt lat="39.344068" lon="-5.475199">
        <ele>428.0</ele>
        <time>1970-01-01T00:00:00Z</time>
      </trkpt>
      <trkpt lat="39.344068" lon="-5.475199">
        <ele>428.0</ele>
        <time>1970-01-01T00:00:00Z</time>
      </trkpt>
      <trkpt lat="39.344104" lon="-5.475049">
        <ele>428.0</ele>
        <time>1970-01-01T00:00:00Z</time>
      </trkpt>
      <trkpt lat="39.344104" lon="-5.475049">
        <ele>428.0</ele>
        <time>1970-01-01T00:00:00Z</time>
      </trkpt>
      <trkpt lat="39.344104" lon="-5.475049">
        <ele>428.0</ele>
        <time>1970-01-01T00:00:00Z</time>
      </trkpt>
      <trkpt lat="39.344104" lon="-5.475049">
        <ele>428.0</ele>
        <time>1970-01-01T00:00:00Z</time>
      </trkpt>
      <trkpt lat="39.344152" lon="-5.474930">
        <ele>428.0</ele>
        <time>1970-01-01T00:00:00Z</time>
      </trkpt>
      <trkpt lat="39.344152" lon="-5.474930">
        <ele>428.0</ele>
        <time>1970-01-01T00:00:00Z</time>
      </trkpt>
      <trkpt lat="39.344152" lon="-5.474930">
        <ele>428.0</ele>
        <time>1970-01-01T00:00:00Z</time>
      </trkpt>
      <trkpt lat="39.344152" lon="-5.474930">
        <ele>428.0</ele>
        <time>1970-01-01T00:00:00Z</time>
      </trkpt>
      <trkpt lat="39.344241" lon="-5.474718">
        <ele>427.5</ele>
        <time>1970-01-01T00:00:00Z</time>
      </trkpt>
      <trkpt lat="39.344241" lon="-5.474718">
        <ele>427.5</ele>
        <time>1970-01-01T00:00:00Z</time>
      </trkpt>
      <trkpt lat="39.344241" lon="-5.474718">
        <ele>427.5</ele>
        <time>1970-01-01T00:00:00Z</time>
      </trkpt>
      <trkpt lat="39.344241" lon="-5.474718">
        <ele>427.5</ele>
        <time>1970-01-01T00:00:00Z</time>
      </trkpt>
      <trkpt lat="39.344318" lon="-5.474502">
        <ele>427.0</ele>
        <time>1970-01-01T00:00:00Z</time>
      </trkpt>
      <trkpt lat="39.344318" lon="-5.474502">
        <ele>427.0</ele>
        <time>1970-01-01T00:00:00Z</time>
      </trkpt>
      <trkpt lat="39.344318" lon="-5.474502">
        <ele>427.0</ele>
        <time>1970-01-01T00:00:00Z</time>
      </trkpt>
      <trkpt lat="39.344318" lon="-5.474502">
        <ele>427.0</ele>
        <time>1970-01-01T00:00:00Z</time>
      </trkpt>
      <trkpt lat="39.344366" lon="-5.474360">
        <ele>427.0</ele>
        <time>1970-01-01T00:00:00Z</time>
      </trkpt>
      <trkpt lat="39.344366" lon="-5.474360">
        <ele>427.0</ele>
        <time>1970-01-01T00:00:00Z</time>
      </trkpt>
      <trkpt lat="39.344366" lon="-5.474360">
        <ele>427.0</ele>
        <time>1970-01-01T00:00:00Z</time>
      </trkpt>
      <trkpt lat="39.344366" lon="-5.474360">
        <ele>427.0</ele>
        <time>1970-01-01T00:00:00Z</time>
      </trkpt>
      <trkpt lat="39.344432" lon="-5.474227">
        <ele>427.3</ele>
        <time>1970-01-01T00:00:00Z</time>
      </trkpt>
      <trkpt lat="39.344432" lon="-5.474227">
        <ele>427.3</ele>
        <time>1970-01-01T00:00:00Z</time>
      </trkpt>
      <trkpt lat="39.344432" lon="-5.474227">
        <ele>427.3</ele>
        <time>1970-01-01T00:00:00Z</time>
      </trkpt>
      <trkpt lat="39.344432" lon="-5.474227">
        <ele>427.3</ele>
        <time>1970-01-01T00:00:00Z</time>
      </trkpt>
      <trkpt lat="39.344534" lon="-5.474048">
        <ele>427.5</ele>
        <time>1970-01-01T00:00:00Z</time>
      </trkpt>
      <trkpt lat="39.344534" lon="-5.474048">
        <ele>427.5</ele>
        <time>1970-01-01T00:00:00Z</time>
      </trkpt>
      <trkpt lat="39.344534" lon="-5.474048">
        <ele>427.5</ele>
        <time>1970-01-01T00:00:00Z</time>
      </trkpt>
      <trkpt lat="39.344534" lon="-5.474048">
        <ele>427.5</ele>
        <time>1970-01-01T00:00:00Z</time>
      </trkpt>
      <trkpt lat="39.344559" lon="-5.473999">
        <ele>427.3</ele>
        <time>1970-01-01T00:00:00Z</time>
      </trkpt>
      <trkpt lat="39.344559" lon="-5.473999">
        <ele>427.3</ele>
        <time>1970-01-01T00:00:00Z</time>
      </trkpt>
      <trkpt lat="39.344559" lon="-5.473999">
        <ele>427.3</ele>
        <time>1970-01-01T00:00:00Z</time>
      </trkpt>
      <trkpt lat="39.344559" lon="-5.473999">
        <ele>427.3</ele>
        <time>1970-01-01T00:00:00Z</time>
      </trkpt>
      <trkpt lat="39.344639" lon="-5.473937">
        <ele>427.4</ele>
        <time>1970-01-01T00:00:00Z</time>
      </trkpt>
      <trkpt lat="39.344639" lon="-5.473937">
        <ele>427.4</ele>
        <time>1970-01-01T00:00:00Z</time>
      </trkpt>
      <trkpt lat="39.344639" lon="-5.473937">
        <ele>427.4</ele>
        <time>1970-01-01T00:00:00Z</time>
      </trkpt>
      <trkpt lat="39.344639" lon="-5.473937">
        <ele>427.4</ele>
        <time>1970-01-01T00:00:00Z</time>
      </trkpt>
      <trkpt lat="39.344695" lon="-5.473892">
        <ele>427.5</ele>
        <time>1970-01-01T00:00:00Z</time>
      </trkpt>
      <trkpt lat="39.344695" lon="-5.473892">
        <ele>427.5</ele>
        <time>1970-01-01T00:00:00Z</time>
      </trkpt>
      <trkpt lat="39.344695" lon="-5.473892">
        <ele>427.5</ele>
        <time>1970-01-01T00:00:00Z</time>
      </trkpt>
      <trkpt lat="39.344695" lon="-5.473892">
        <ele>427.5</ele>
        <time>1970-01-01T00:00:00Z</time>
      </trkpt>
      <trkpt lat="39.344746" lon="-5.473836">
        <ele>427.5</ele>
        <time>1970-01-01T00:00:00Z</time>
      </trkpt>
      <trkpt lat="39.344746" lon="-5.473836">
        <ele>427.5</ele>
        <time>1970-01-01T00:00:00Z</time>
      </trkpt>
      <trkpt lat="39.344746" lon="-5.473836">
        <ele>427.5</ele>
        <time>1970-01-01T00:00:00Z</time>
      </trkpt>
      <trkpt lat="39.344746" lon="-5.473836">
        <ele>427.5</ele>
        <time>1970-01-01T00:00:00Z</time>
      </trkpt>
      <trkpt lat="39.344779" lon="-5.473694">
        <ele>427.0</ele>
        <time>1970-01-01T00:00:00Z</time>
      </trkpt>
      <trkpt lat="39.344779" lon="-5.473694">
        <ele>427.0</ele>
        <time>1970-01-01T00:00:00Z</time>
      </trkpt>
      <trkpt lat="39.344779" lon="-5.473694">
        <ele>427.0</ele>
        <time>1970-01-01T00:00:00Z</time>
      </trkpt>
      <trkpt lat="39.344779" lon="-5.473694">
        <ele>427.0</ele>
        <time>1970-01-01T00:00:00Z</time>
      </trkpt>
      <trkpt lat="39.344806" lon="-5.473550">
        <ele>427.0</ele>
        <time>1970-01-01T00:00:00Z</time>
      </trkpt>
      <trkpt lat="39.344806" lon="-5.473550">
        <ele>427.0</ele>
        <time>1970-01-01T00:00:00Z</time>
      </trkpt>
      <trkpt lat="39.344806" lon="-5.473550">
        <ele>427.0</ele>
        <time>1970-01-01T00:00:00Z</time>
      </trkpt>
      <trkpt lat="39.344806" lon="-5.473550">
        <ele>427.0</ele>
        <time>1970-01-01T00:00:00Z</time>
      </trkpt>
      <trkpt lat="39.344827" lon="-5.473420">
        <ele>427.1</ele>
        <time>1970-01-01T00:00:00Z</time>
      </trkpt>
      <trkpt lat="39.344827" lon="-5.473420">
        <ele>427.1</ele>
        <time>1970-01-01T00:00:00Z</time>
      </trkpt>
      <trkpt lat="39.344827" lon="-5.473420">
        <ele>427.1</ele>
        <time>1970-01-01T00:00:00Z</time>
      </trkpt>
      <trkpt lat="39.344827" lon="-5.473420">
        <ele>427.1</ele>
        <time>1970-01-01T00:00:00Z</time>
      </trkpt>
      <trkpt lat="39.344828" lon="-5.473226">
        <ele>427.1</ele>
        <time>1970-01-01T00:00:00Z</time>
      </trkpt>
      <trkpt lat="39.344828" lon="-5.473226">
        <ele>427.1</ele>
        <time>1970-01-01T00:00:00Z</time>
      </trkpt>
      <trkpt lat="39.344828" lon="-5.473226">
        <ele>427.1</ele>
        <time>1970-01-01T00:00:00Z</time>
      </trkpt>
      <trkpt lat="39.344828" lon="-5.473226">
        <ele>427.1</ele>
        <time>1970-01-01T00:00:00Z</time>
      </trkpt>
      <trkpt lat="39.344822" lon="-5.473079">
        <ele>427.7</ele>
        <time>1970-01-01T00:00:00Z</time>
      </trkpt>
      <trkpt lat="39.344822" lon="-5.473079">
        <ele>427.7</ele>
        <time>1970-01-01T00:00:00Z</time>
      </trkpt>
      <trkpt lat="39.344822" lon="-5.473079">
        <ele>427.7</ele>
        <time>1970-01-01T00:00:00Z</time>
      </trkpt>
      <trkpt lat="39.344822" lon="-5.473079">
        <ele>427.7</ele>
        <time>1970-01-01T00:00:00Z</time>
      </trkpt>
      <trkpt lat="39.344826" lon="-5.472947">
        <ele>428.0</ele>
        <time>1970-01-01T00:00:00Z</time>
      </trkpt>
      <trkpt lat="39.344826" lon="-5.472947">
        <ele>428.0</ele>
        <time>1970-01-01T00:00:00Z</time>
      </trkpt>
      <trkpt lat="39.344826" lon="-5.472947">
        <ele>428.0</ele>
        <time>1970-01-01T00:00:00Z</time>
      </trkpt>
      <trkpt lat="39.344826" lon="-5.472947">
        <ele>428.0</ele>
        <time>1970-01-01T00:00:00Z</time>
      </trkpt>
      <trkpt lat="39.344823" lon="-5.472864">
        <ele>428.1</ele>
        <time>1970-01-01T00:00:00Z</time>
      </trkpt>
      <trkpt lat="39.344823" lon="-5.472864">
        <ele>428.1</ele>
        <time>1970-01-01T00:00:00Z</time>
      </trkpt>
      <trkpt lat="39.344823" lon="-5.472864">
        <ele>428.1</ele>
        <time>1970-01-01T00:00:00Z</time>
      </trkpt>
      <trkpt lat="39.344823" lon="-5.472864">
        <ele>428.1</ele>
        <time>1970-01-01T00:00:00Z</time>
      </trkpt>
      <trkpt lat="39.344807" lon="-5.472762">
        <ele>428.0</ele>
        <time>1970-01-01T00:00:00Z</time>
      </trkpt>
      <trkpt lat="39.344807" lon="-5.472762">
        <ele>428.0</ele>
        <time>1970-01-01T00:00:00Z</time>
      </trkpt>
      <trkpt lat="39.344807" lon="-5.472762">
        <ele>428.0</ele>
        <time>1970-01-01T00:00:00Z</time>
      </trkpt>
      <trkpt lat="39.344807" lon="-5.472762">
        <ele>428.0</ele>
        <time>1970-01-01T00:00:00Z</time>
      </trkpt>
      <trkpt lat="39.344785" lon="-5.472671">
        <ele>428.4</ele>
        <time>1970-01-01T00:00:00Z</time>
      </trkpt>
      <trkpt lat="39.344785" lon="-5.472671">
        <ele>428.4</ele>
        <time>1970-01-01T00:00:00Z</time>
      </trkpt>
      <trkpt lat="39.344785" lon="-5.472671">
        <ele>428.4</ele>
        <time>1970-01-01T00:00:00Z</time>
      </trkpt>
      <trkpt lat="39.344785" lon="-5.472671">
        <ele>428.4</ele>
        <time>1970-01-01T00:00:00Z</time>
      </trkpt>
      <trkpt lat="39.344769" lon="-5.472540">
        <ele>428.8</ele>
        <time>1970-01-01T00:00:00Z</time>
      </trkpt>
      <trkpt lat="39.344769" lon="-5.472540">
        <ele>428.8</ele>
        <time>1970-01-01T00:00:00Z</time>
      </trkpt>
      <trkpt lat="39.344769" lon="-5.472540">
        <ele>428.8</ele>
        <time>1970-01-01T00:00:00Z</time>
      </trkpt>
      <trkpt lat="39.344769" lon="-5.472540">
        <ele>428.8</ele>
        <time>1970-01-01T00:00:00Z</time>
      </trkpt>
      <trkpt lat="39.344755" lon="-5.472414">
        <ele>428.9</ele>
        <time>1970-01-01T00:00:00Z</time>
      </trkpt>
      <trkpt lat="39.344755" lon="-5.472414">
        <ele>428.9</ele>
        <time>1970-01-01T00:00:00Z</time>
      </trkpt>
      <trkpt lat="39.344755" lon="-5.472414">
        <ele>428.9</ele>
        <time>1970-01-01T00:00:00Z</time>
      </trkpt>
      <trkpt lat="39.344755" lon="-5.472414">
        <ele>428.9</ele>
        <time>1970-01-01T00:00:00Z</time>
      </trkpt>
      <trkpt lat="39.344757" lon="-5.472224">
        <ele>429.0</ele>
        <time>1970-01-01T00:00:00Z</time>
      </trkpt>
      <trkpt lat="39.344757" lon="-5.472224">
        <ele>429.0</ele>
        <time>1970-01-01T00:00:00Z</time>
      </trkpt>
      <trkpt lat="39.344757" lon="-5.472224">
        <ele>429.0</ele>
        <time>1970-01-01T00:00:00Z</time>
      </trkpt>
      <trkpt lat="39.344757" lon="-5.472224">
        <ele>429.0</ele>
        <time>1970-01-01T00:00:00Z</time>
      </trkpt>
      <trkpt lat="39.344756" lon="-5.472080">
        <ele>429.0</ele>
        <time>1970-01-01T00:00:00Z</time>
      </trkpt>
      <trkpt lat="39.344756" lon="-5.472080">
        <ele>429.0</ele>
        <time>1970-01-01T00:00:00Z</time>
      </trkpt>
      <trkpt lat="39.344756" lon="-5.472080">
        <ele>429.0</ele>
        <time>1970-01-01T00:00:00Z</time>
      </trkpt>
      <trkpt lat="39.344756" lon="-5.472080">
        <ele>429.0</ele>
        <time>1970-01-01T00:00:00Z</time>
      </trkpt>
      <trkpt lat="39.344736" lon="-5.471879">
        <ele>429.8</ele>
        <time>1970-01-01T00:00:00Z</time>
      </trkpt>
      <trkpt lat="39.344736" lon="-5.471879">
        <ele>429.8</ele>
        <time>1970-01-01T00:00:00Z</time>
      </trkpt>
      <trkpt lat="39.344736" lon="-5.471879">
        <ele>429.8</ele>
        <time>1970-01-01T00:00:00Z</time>
      </trkpt>
      <trkpt lat="39.344736" lon="-5.471879">
        <ele>429.8</ele>
        <time>1970-01-01T00:00:00Z</time>
      </trkpt>
      <trkpt lat="39.344716" lon="-5.471770">
        <ele>430.2</ele>
        <time>1970-01-01T00:00:00Z</time>
      </trkpt>
      <trkpt lat="39.344716" lon="-5.471770">
        <ele>430.2</ele>
        <time>1970-01-01T00:00:00Z</time>
      </trkpt>
      <trkpt lat="39.344716" lon="-5.471770">
        <ele>430.2</ele>
        <time>1970-01-01T00:00:00Z</time>
      </trkpt>
      <trkpt lat="39.344716" lon="-5.471770">
        <ele>430.2</ele>
        <time>1970-01-01T00:00:00Z</time>
      </trkpt>
      <trkpt lat="39.344719" lon="-5.471663">
        <ele>430.5</ele>
        <time>1970-01-01T00:00:00Z</time>
      </trkpt>
      <trkpt lat="39.344719" lon="-5.471663">
        <ele>430.5</ele>
        <time>1970-01-01T00:00:00Z</time>
      </trkpt>
      <trkpt lat="39.344719" lon="-5.471663">
        <ele>430.5</ele>
        <time>1970-01-01T00:00:00Z</time>
      </trkpt>
      <trkpt lat="39.344719" lon="-5.471663">
        <ele>430.5</ele>
        <time>1970-01-01T00:00:00Z</time>
      </trkpt>
      <trkpt lat="39.344728" lon="-5.471533">
        <ele>430.9</ele>
        <time>1970-01-01T00:00:00Z</time>
      </trkpt>
      <trkpt lat="39.344728" lon="-5.471533">
        <ele>430.9</ele>
        <time>1970-01-01T00:00:00Z</time>
      </trkpt>
      <trkpt lat="39.344728" lon="-5.471533">
        <ele>430.9</ele>
        <time>1970-01-01T00:00:00Z</time>
      </trkpt>
      <trkpt lat="39.344728" lon="-5.471533">
        <ele>430.9</ele>
        <time>1970-01-01T00:00:00Z</time>
      </trkpt>
      <trkpt lat="39.344748" lon="-5.471395">
        <ele>431.5</ele>
        <time>1970-01-01T00:00:00Z</time>
      </trkpt>
      <trkpt lat="39.344748" lon="-5.471395">
        <ele>431.5</ele>
        <time>1970-01-01T00:00:00Z</time>
      </trkpt>
      <trkpt lat="39.344748" lon="-5.471395">
        <ele>431.5</ele>
        <time>1970-01-01T00:00:00Z</time>
      </trkpt>
      <trkpt lat="39.344748" lon="-5.471395">
        <ele>431.5</ele>
        <time>1970-01-01T00:00:00Z</time>
      </trkpt>
      <trkpt lat="39.344773" lon="-5.471146">
        <ele>431.9</ele>
        <time>1970-01-01T00:00:00Z</time>
      </trkpt>
      <trkpt lat="39.344773" lon="-5.471146">
        <ele>431.9</ele>
        <time>1970-01-01T00:00:00Z</time>
      </trkpt>
      <trkpt lat="39.344773" lon="-5.471146">
        <ele>431.9</ele>
        <time>1970-01-01T00:00:00Z</time>
      </trkpt>
      <trkpt lat="39.344773" lon="-5.471146">
        <ele>431.9</ele>
        <time>1970-01-01T00:00:00Z</time>
      </trkpt>
      <trkpt lat="39.344795" lon="-5.470929">
        <ele>432.9</ele>
        <time>1970-01-01T00:00:00Z</time>
      </trkpt>
      <trkpt lat="39.344795" lon="-5.470929">
        <ele>432.9</ele>
        <time>1970-01-01T00:00:00Z</time>
      </trkpt>
      <trkpt lat="39.344795" lon="-5.470929">
        <ele>432.9</ele>
        <time>1970-01-01T00:00:00Z</time>
      </trkpt>
      <trkpt lat="39.344795" lon="-5.470929">
        <ele>432.9</ele>
        <time>1970-01-01T00:00:00Z</time>
      </trkpt>
      <trkpt lat="39.344818" lon="-5.470750">
        <ele>433.1</ele>
        <time>1970-01-01T00:00:00Z</time>
      </trkpt>
      <trkpt lat="39.344818" lon="-5.470750">
        <ele>433.1</ele>
        <time>1970-01-01T00:00:00Z</time>
      </trkpt>
      <trkpt lat="39.344818" lon="-5.470750">
        <ele>433.1</ele>
        <time>1970-01-01T00:00:00Z</time>
      </trkpt>
      <trkpt lat="39.344818" lon="-5.470750">
        <ele>433.1</ele>
        <time>1970-01-01T00:00:00Z</time>
      </trkpt>
      <trkpt lat="39.344857" lon="-5.470490">
        <ele>433.2</ele>
        <time>1970-01-01T00:00:00Z</time>
      </trkpt>
      <trkpt lat="39.344857" lon="-5.470490">
        <ele>433.2</ele>
        <time>1970-01-01T00:00:00Z</time>
      </trkpt>
      <trkpt lat="39.344857" lon="-5.470490">
        <ele>433.2</ele>
        <time>1970-01-01T00:00:00Z</time>
      </trkpt>
      <trkpt lat="39.344857" lon="-5.470490">
        <ele>433.2</ele>
        <time>1970-01-01T00:00:00Z</time>
      </trkpt>
      <trkpt lat="39.344893" lon="-5.470336">
        <ele>433.7</ele>
        <time>1970-01-01T00:00:00Z</time>
      </trkpt>
      <trkpt lat="39.344893" lon="-5.470336">
        <ele>433.7</ele>
        <time>1970-01-01T00:00:00Z</time>
      </trkpt>
      <trkpt lat="39.344893" lon="-5.470336">
        <ele>433.7</ele>
        <time>1970-01-01T00:00:00Z</time>
      </trkpt>
      <trkpt lat="39.344893" lon="-5.470336">
        <ele>433.7</ele>
        <time>1970-01-01T00:00:00Z</time>
      </trkpt>
      <trkpt lat="39.344927" lon="-5.470226">
        <ele>434.0</ele>
        <time>1970-01-01T00:00:00Z</time>
      </trkpt>
      <trkpt lat="39.344927" lon="-5.470226">
        <ele>434.0</ele>
        <time>1970-01-01T00:00:00Z</time>
      </trkpt>
      <trkpt lat="39.344927" lon="-5.470226">
        <ele>434.0</ele>
        <time>1970-01-01T00:00:00Z</time>
      </trkpt>
      <trkpt lat="39.344927" lon="-5.470226">
        <ele>434.0</ele>
        <time>1970-01-01T00:00:00Z</time>
      </trkpt>
      <trkpt lat="39.344996" lon="-5.469944">
        <ele>434.0</ele>
        <time>1970-01-01T00:00:00Z</time>
      </trkpt>
      <trkpt lat="39.344996" lon="-5.469944">
        <ele>434.0</ele>
        <time>1970-01-01T00:00:00Z</time>
      </trkpt>
      <trkpt lat="39.344996" lon="-5.469944">
        <ele>434.0</ele>
        <time>1970-01-01T00:00:00Z</time>
      </trkpt>
      <trkpt lat="39.344996" lon="-5.469944">
        <ele>434.0</ele>
        <time>1970-01-01T00:00:00Z</time>
      </trkpt>
      <trkpt lat="39.345096" lon="-5.469709">
        <ele>434.0</ele>
        <time>1970-01-01T00:00:00Z</time>
      </trkpt>
      <trkpt lat="39.345096" lon="-5.469709">
        <ele>434.0</ele>
        <time>1970-01-01T00:00:00Z</time>
      </trkpt>
      <trkpt lat="39.345096" lon="-5.469709">
        <ele>434.0</ele>
        <time>1970-01-01T00:00:00Z</time>
      </trkpt>
      <trkpt lat="39.345096" lon="-5.469709">
        <ele>434.0</ele>
        <time>1970-01-01T00:00:00Z</time>
      </trkpt>
      <trkpt lat="39.345142" lon="-5.469591">
        <ele>434.0</ele>
        <time>1970-01-01T00:00:00Z</time>
      </trkpt>
      <trkpt lat="39.345142" lon="-5.469591">
        <ele>434.0</ele>
        <time>1970-01-01T00:00:00Z</time>
      </trkpt>
      <trkpt lat="39.345142" lon="-5.469591">
        <ele>434.0</ele>
        <time>1970-01-01T00:00:00Z</time>
      </trkpt>
      <trkpt lat="39.345142" lon="-5.469591">
        <ele>434.0</ele>
        <time>1970-01-01T00:00:00Z</time>
      </trkpt>
      <trkpt lat="39.345186" lon="-5.469418">
        <ele>434.0</ele>
        <time>1970-01-01T00:00:00Z</time>
      </trkpt>
      <trkpt lat="39.345186" lon="-5.469418">
        <ele>434.0</ele>
        <time>1970-01-01T00:00:00Z</time>
      </trkpt>
      <trkpt lat="39.345186" lon="-5.469418">
        <ele>434.0</ele>
        <time>1970-01-01T00:00:00Z</time>
      </trkpt>
      <trkpt lat="39.345186" lon="-5.469418">
        <ele>434.0</ele>
        <time>1970-01-01T00:00:00Z</time>
      </trkpt>
      <trkpt lat="39.345206" lon="-5.469286">
        <ele>434.0</ele>
        <time>1970-01-01T00:00:00Z</time>
      </trkpt>
      <trkpt lat="39.345206" lon="-5.469286">
        <ele>434.0</ele>
        <time>1970-01-01T00:00:00Z</time>
      </trkpt>
      <trkpt lat="39.345206" lon="-5.469286">
        <ele>434.0</ele>
        <time>1970-01-01T00:00:00Z</time>
      </trkpt>
      <trkpt lat="39.345206" lon="-5.469286">
        <ele>434.0</ele>
        <time>1970-01-01T00:00:00Z</time>
      </trkpt>
      <trkpt lat="39.345250" lon="-5.469024">
        <ele>434.1</ele>
        <time>1970-01-01T00:00:00Z</time>
      </trkpt>
      <trkpt lat="39.345250" lon="-5.469024">
        <ele>434.1</ele>
        <time>1970-01-01T00:00:00Z</time>
      </trkpt>
      <trkpt lat="39.345250" lon="-5.469024">
        <ele>434.1</ele>
        <time>1970-01-01T00:00:00Z</time>
      </trkpt>
      <trkpt lat="39.345250" lon="-5.469024">
        <ele>434.1</ele>
        <time>1970-01-01T00:00:00Z</time>
      </trkpt>
      <trkpt lat="39.345283" lon="-5.468831">
        <ele>434.0</ele>
        <time>1970-01-01T00:00:00Z</time>
      </trkpt>
      <trkpt lat="39.345283" lon="-5.468831">
        <ele>434.0</ele>
        <time>1970-01-01T00:00:00Z</time>
      </trkpt>
      <trkpt lat="39.345283" lon="-5.468831">
        <ele>434.0</ele>
        <time>1970-01-01T00:00:00Z</time>
      </trkpt>
      <trkpt lat="39.345283" lon="-5.468831">
        <ele>434.0</ele>
        <time>1970-01-01T00:00:00Z</time>
      </trkpt>
      <trkpt lat="39.345288" lon="-5.468680">
        <ele>434.0</ele>
        <time>1970-01-01T00:00:00Z</time>
      </trkpt>
      <trkpt lat="39.345288" lon="-5.468680">
        <ele>434.0</ele>
        <time>1970-01-01T00:00:00Z</time>
      </trkpt>
      <trkpt lat="39.345288" lon="-5.468680">
        <ele>434.0</ele>
        <time>1970-01-01T00:00:00Z</time>
      </trkpt>
      <trkpt lat="39.345288" lon="-5.468680">
        <ele>434.0</ele>
        <time>1970-01-01T00:00:00Z</time>
      </trkpt>
      <trkpt lat="39.345288" lon="-5.468540">
        <ele>434.0</ele>
        <time>1970-01-01T00:00:00Z</time>
      </trkpt>
      <trkpt lat="39.345288" lon="-5.468540">
        <ele>434.0</ele>
        <time>1970-01-01T00:00:00Z</time>
      </trkpt>
      <trkpt lat="39.345288" lon="-5.468540">
        <ele>434.0</ele>
        <time>1970-01-01T00:00:00Z</time>
      </trkpt>
      <trkpt lat="39.345288" lon="-5.468540">
        <ele>434.0</ele>
        <time>1970-01-01T00:00:00Z</time>
      </trkpt>
      <trkpt lat="39.345285" lon="-5.468431">
        <ele>434.0</ele>
        <time>1970-01-01T00:00:00Z</time>
      </trkpt>
      <trkpt lat="39.345285" lon="-5.468431">
        <ele>434.0</ele>
        <time>1970-01-01T00:00:00Z</time>
      </trkpt>
      <trkpt lat="39.345285" lon="-5.468431">
        <ele>434.0</ele>
        <time>1970-01-01T00:00:00Z</time>
      </trkpt>
      <trkpt lat="39.345285" lon="-5.468431">
        <ele>434.0</ele>
        <time>1970-01-01T00:00:00Z</time>
      </trkpt>
      <trkpt lat="39.345311" lon="-5.468305">
        <ele>434.2</ele>
        <time>1970-01-01T00:00:00Z</time>
      </trkpt>
      <trkpt lat="39.345311" lon="-5.468305">
        <ele>434.2</ele>
        <time>1970-01-01T00:00:00Z</time>
      </trkpt>
      <trkpt lat="39.345311" lon="-5.468305">
        <ele>434.2</ele>
        <time>1970-01-01T00:00:00Z</time>
      </trkpt>
      <trkpt lat="39.345311" lon="-5.468305">
        <ele>434.2</ele>
        <time>1970-01-01T00:00:00Z</time>
      </trkpt>
      <trkpt lat="39.345348" lon="-5.468207">
        <ele>434.4</ele>
        <time>1970-01-01T00:00:00Z</time>
      </trkpt>
      <trkpt lat="39.345348" lon="-5.468207">
        <ele>434.4</ele>
        <time>1970-01-01T00:00:00Z</time>
      </trkpt>
      <trkpt lat="39.345348" lon="-5.468207">
        <ele>434.4</ele>
        <time>1970-01-01T00:00:00Z</time>
      </trkpt>
      <trkpt lat="39.345348" lon="-5.468207">
        <ele>434.4</ele>
        <time>1970-01-01T00:00:00Z</time>
      </trkpt>
      <trkpt lat="39.345407" lon="-5.468055">
        <ele>434.7</ele>
        <time>1970-01-01T00:00:00Z</time>
      </trkpt>
      <trkpt lat="39.345407" lon="-5.468055">
        <ele>434.7</ele>
        <time>1970-01-01T00:00:00Z</time>
      </trkpt>
      <trkpt lat="39.345407" lon="-5.468055">
        <ele>434.7</ele>
        <time>1970-01-01T00:00:00Z</time>
      </trkpt>
      <trkpt lat="39.345407" lon="-5.468055">
        <ele>434.7</ele>
        <time>1970-01-01T00:00:00Z</time>
      </trkpt>
      <trkpt lat="39.345483" lon="-5.467924">
        <ele>434.9</ele>
        <time>1970-01-01T00:00:00Z</time>
      </trkpt>
      <trkpt lat="39.345483" lon="-5.467924">
        <ele>434.9</ele>
        <time>1970-01-01T00:00:00Z</time>
      </trkpt>
      <trkpt lat="39.345483" lon="-5.467924">
        <ele>434.9</ele>
        <time>1970-01-01T00:00:00Z</time>
      </trkpt>
      <trkpt lat="39.345483" lon="-5.467924">
        <ele>434.9</ele>
        <time>1970-01-01T00:00:00Z</time>
      </trkpt>
      <trkpt lat="39.345576" lon="-5.467777">
        <ele>435.2</ele>
        <time>1970-01-01T00:00:00Z</time>
      </trkpt>
      <trkpt lat="39.345576" lon="-5.467777">
        <ele>435.2</ele>
        <time>1970-01-01T00:00:00Z</time>
      </trkpt>
      <trkpt lat="39.345576" lon="-5.467777">
        <ele>435.2</ele>
        <time>1970-01-01T00:00:00Z</time>
      </trkpt>
      <trkpt lat="39.345576" lon="-5.467777">
        <ele>435.2</ele>
        <time>1970-01-01T00:00:00Z</time>
      </trkpt>
      <trkpt lat="39.345656" lon="-5.467628">
        <ele>435.5</ele>
        <time>1970-01-01T00:00:00Z</time>
      </trkpt>
      <trkpt lat="39.345656" lon="-5.467628">
        <ele>435.5</ele>
        <time>1970-01-01T00:00:00Z</time>
      </trkpt>
      <trkpt lat="39.345656" lon="-5.467628">
        <ele>435.5</ele>
        <time>1970-01-01T00:00:00Z</time>
      </trkpt>
      <trkpt lat="39.345656" lon="-5.467628">
        <ele>435.5</ele>
        <time>1970-01-01T00:00:00Z</time>
      </trkpt>
      <trkpt lat="39.345723" lon="-5.467490">
        <ele>435.8</ele>
        <time>1970-01-01T00:00:00Z</time>
      </trkpt>
      <trkpt lat="39.345723" lon="-5.467490">
        <ele>435.8</ele>
        <time>1970-01-01T00:00:00Z</time>
      </trkpt>
      <trkpt lat="39.345723" lon="-5.467490">
        <ele>435.8</ele>
        <time>1970-01-01T00:00:00Z</time>
      </trkpt>
      <trkpt lat="39.345723" lon="-5.467490">
        <ele>435.8</ele>
        <time>1970-01-01T00:00:00Z</time>
      </trkpt>
      <trkpt lat="39.345792" lon="-5.467335">
        <ele>436.4</ele>
        <time>1970-01-01T00:00:00Z</time>
      </trkpt>
      <trkpt lat="39.345792" lon="-5.467335">
        <ele>436.4</ele>
        <time>1970-01-01T00:00:00Z</time>
      </trkpt>
      <trkpt lat="39.345792" lon="-5.467335">
        <ele>436.4</ele>
        <time>1970-01-01T00:00:00Z</time>
      </trkpt>
      <trkpt lat="39.345792" lon="-5.467335">
        <ele>436.4</ele>
        <time>1970-01-01T00:00:00Z</time>
      </trkpt>
      <trkpt lat="39.345842" lon="-5.467195">
        <ele>437.0</ele>
        <time>1970-01-01T00:00:00Z</time>
      </trkpt>
      <trkpt lat="39.345842" lon="-5.467195">
        <ele>437.0</ele>
        <time>1970-01-01T00:00:00Z</time>
      </trkpt>
      <trkpt lat="39.345842" lon="-5.467195">
        <ele>437.0</ele>
        <time>1970-01-01T00:00:00Z</time>
      </trkpt>
      <trkpt lat="39.345842" lon="-5.467195">
        <ele>437.0</ele>
        <time>1970-01-01T00:00:00Z</time>
      </trkpt>
      <trkpt lat="39.345885" lon="-5.467007">
        <ele>437.3</ele>
        <time>1970-01-01T00:00:00Z</time>
      </trkpt>
      <trkpt lat="39.345885" lon="-5.467007">
        <ele>437.3</ele>
        <time>1970-01-01T00:00:00Z</time>
      </trkpt>
      <trkpt lat="39.345885" lon="-5.467007">
        <ele>437.3</ele>
        <time>1970-01-01T00:00:00Z</time>
      </trkpt>
      <trkpt lat="39.345885" lon="-5.467007">
        <ele>437.3</ele>
        <time>1970-01-01T00:00:00Z</time>
      </trkpt>
      <trkpt lat="39.345920" lon="-5.466866">
        <ele>437.5</ele>
        <time>1970-01-01T00:00:00Z</time>
      </trkpt>
      <trkpt lat="39.345920" lon="-5.466866">
        <ele>437.5</ele>
        <time>1970-01-01T00:00:00Z</time>
      </trkpt>
      <trkpt lat="39.345920" lon="-5.466866">
        <ele>437.5</ele>
        <time>1970-01-01T00:00:00Z</time>
      </trkpt>
      <trkpt lat="39.345920" lon="-5.466866">
        <ele>437.5</ele>
        <time>1970-01-01T00:00:00Z</time>
      </trkpt>
      <trkpt lat="39.345947" lon="-5.466709">
        <ele>438.3</ele>
        <time>1970-01-01T00:00:00Z</time>
      </trkpt>
      <trkpt lat="39.345947" lon="-5.466709">
        <ele>438.3</ele>
        <time>1970-01-01T00:00:00Z</time>
      </trkpt>
      <trkpt lat="39.345947" lon="-5.466709">
        <ele>438.3</ele>
        <time>1970-01-01T00:00:00Z</time>
      </trkpt>
      <trkpt lat="39.345947" lon="-5.466709">
        <ele>438.3</ele>
        <time>1970-01-01T00:00:00Z</time>
      </trkpt>
      <trkpt lat="39.345970" lon="-5.466577">
        <ele>439.5</ele>
        <time>1970-01-01T00:00:00Z</time>
      </trkpt>
      <trkpt lat="39.345970" lon="-5.466577">
        <ele>439.5</ele>
        <time>1970-01-01T00:00:00Z</time>
      </trkpt>
      <trkpt lat="39.345970" lon="-5.466577">
        <ele>439.5</ele>
        <time>1970-01-01T00:00:00Z</time>
      </trkpt>
      <trkpt lat="39.345970" lon="-5.466577">
        <ele>439.5</ele>
        <time>1970-01-01T00:00:00Z</time>
      </trkpt>
      <trkpt lat="39.345982" lon="-5.466439">
        <ele>440.4</ele>
        <time>1970-01-01T00:00:00Z</time>
      </trkpt>
      <trkpt lat="39.345982" lon="-5.466439">
        <ele>440.4</ele>
        <time>1970-01-01T00:00:00Z</time>
      </trkpt>
      <trkpt lat="39.345982" lon="-5.466439">
        <ele>440.4</ele>
        <time>1970-01-01T00:00:00Z</time>
      </trkpt>
      <trkpt lat="39.345982" lon="-5.466439">
        <ele>440.4</ele>
        <time>1970-01-01T00:00:00Z</time>
      </trkpt>
      <trkpt lat="39.346001" lon="-5.466227">
        <ele>441.1</ele>
        <time>1970-01-01T00:00:00Z</time>
      </trkpt>
      <trkpt lat="39.346001" lon="-5.466227">
        <ele>441.1</ele>
        <time>1970-01-01T00:00:00Z</time>
      </trkpt>
      <trkpt lat="39.346001" lon="-5.466227">
        <ele>441.1</ele>
        <time>1970-01-01T00:00:00Z</time>
      </trkpt>
      <trkpt lat="39.346001" lon="-5.466227">
        <ele>441.1</ele>
        <time>1970-01-01T00:00:00Z</time>
      </trkpt>
      <trkpt lat="39.345999" lon="-5.465999">
        <ele>441.6</ele>
        <time>1970-01-01T00:00:00Z</time>
      </trkpt>
      <trkpt lat="39.345999" lon="-5.465999">
        <ele>441.6</ele>
        <time>1970-01-01T00:00:00Z</time>
      </trkpt>
      <trkpt lat="39.345999" lon="-5.465999">
        <ele>441.6</ele>
        <time>1970-01-01T00:00:00Z</time>
      </trkpt>
      <trkpt lat="39.345999" lon="-5.465999">
        <ele>441.6</ele>
        <time>1970-01-01T00:00:00Z</time>
      </trkpt>
      <trkpt lat="39.345993" lon="-5.465897">
        <ele>442.0</ele>
        <time>1970-01-01T00:00:00Z</time>
      </trkpt>
      <trkpt lat="39.345993" lon="-5.465897">
        <ele>442.0</ele>
        <time>1970-01-01T00:00:00Z</time>
      </trkpt>
      <trkpt lat="39.345993" lon="-5.465897">
        <ele>442.0</ele>
        <time>1970-01-01T00:00:00Z</time>
      </trkpt>
      <trkpt lat="39.345993" lon="-5.465897">
        <ele>442.0</ele>
        <time>1970-01-01T00:00:00Z</time>
      </trkpt>
      <trkpt lat="39.345980" lon="-5.465835">
        <ele>442.1</ele>
        <time>1970-01-01T00:00:00Z</time>
      </trkpt>
      <trkpt lat="39.345980" lon="-5.465835">
        <ele>442.1</ele>
        <time>1970-01-01T00:00:00Z</time>
      </trkpt>
      <trkpt lat="39.345980" lon="-5.465835">
        <ele>442.1</ele>
        <time>1970-01-01T00:00:00Z</time>
      </trkpt>
      <trkpt lat="39.345980" lon="-5.465835">
        <ele>442.1</ele>
        <time>1970-01-01T00:00:00Z</time>
      </trkpt>
      <trkpt lat="39.345947" lon="-5.465763">
        <ele>441.9</ele>
        <time>1970-01-01T00:00:00Z</time>
      </trkpt>
      <trkpt lat="39.345947" lon="-5.465763">
        <ele>441.9</ele>
        <time>1970-01-01T00:00:00Z</time>
      </trkpt>
      <trkpt lat="39.345947" lon="-5.465763">
        <ele>441.9</ele>
        <time>1970-01-01T00:00:00Z</time>
      </trkpt>
      <trkpt lat="39.345947" lon="-5.465763">
        <ele>441.9</ele>
        <time>1970-01-01T00:00:00Z</time>
      </trkpt>
      <trkpt lat="39.345935" lon="-5.465692">
        <ele>441.9</ele>
        <time>1970-01-01T00:00:00Z</time>
      </trkpt>
      <trkpt lat="39.345935" lon="-5.465692">
        <ele>441.9</ele>
        <time>1970-01-01T00:00:00Z</time>
      </trkpt>
      <trkpt lat="39.345935" lon="-5.465692">
        <ele>441.9</ele>
        <time>1970-01-01T00:00:00Z</time>
      </trkpt>
      <trkpt lat="39.345935" lon="-5.465692">
        <ele>441.9</ele>
        <time>1970-01-01T00:00:00Z</time>
      </trkpt>
      <trkpt lat="39.345932" lon="-5.465599">
        <ele>441.9</ele>
        <time>1970-01-01T00:00:00Z</time>
      </trkpt>
      <trkpt lat="39.345932" lon="-5.465599">
        <ele>441.9</ele>
        <time>1970-01-01T00:00:00Z</time>
      </trkpt>
      <trkpt lat="39.345932" lon="-5.465599">
        <ele>441.9</ele>
        <time>1970-01-01T00:00:00Z</time>
      </trkpt>
      <trkpt lat="39.345932" lon="-5.465599">
        <ele>441.9</ele>
        <time>1970-01-01T00:00:00Z</time>
      </trkpt>
      <trkpt lat="39.345951" lon="-5.465516">
        <ele>442.0</ele>
        <time>1970-01-01T00:00:00Z</time>
      </trkpt>
      <trkpt lat="39.345951" lon="-5.465516">
        <ele>442.0</ele>
        <time>1970-01-01T00:00:00Z</time>
      </trkpt>
      <trkpt lat="39.345951" lon="-5.465516">
        <ele>442.0</ele>
        <time>1970-01-01T00:00:00Z</time>
      </trkpt>
      <trkpt lat="39.345951" lon="-5.465516">
        <ele>442.0</ele>
        <time>1970-01-01T00:00:00Z</time>
      </trkpt>
      <trkpt lat="39.345994" lon="-5.465377">
        <ele>442.5</ele>
        <time>1970-01-01T00:00:00Z</time>
      </trkpt>
      <trkpt lat="39.345994" lon="-5.465377">
        <ele>442.5</ele>
        <time>1970-01-01T00:00:00Z</time>
      </trkpt>
      <trkpt lat="39.345994" lon="-5.465377">
        <ele>442.5</ele>
        <time>1970-01-01T00:00:00Z</time>
      </trkpt>
      <trkpt lat="39.345994" lon="-5.465377">
        <ele>442.5</ele>
        <time>1970-01-01T00:00:00Z</time>
      </trkpt>
      <trkpt lat="39.346020" lon="-5.465266">
        <ele>443.2</ele>
        <time>1970-01-01T00:00:00Z</time>
      </trkpt>
      <trkpt lat="39.346020" lon="-5.465266">
        <ele>443.2</ele>
        <time>1970-01-01T00:00:00Z</time>
      </trkpt>
      <trkpt lat="39.346020" lon="-5.465266">
        <ele>443.2</ele>
        <time>1970-01-01T00:00:00Z</time>
      </trkpt>
      <trkpt lat="39.346020" lon="-5.465266">
        <ele>443.2</ele>
        <time>1970-01-01T00:00:00Z</time>
      </trkpt>
      <trkpt lat="39.346097" lon="-5.465027">
        <ele>444.6</ele>
        <time>1970-01-01T00:00:00Z</time>
      </trkpt>
      <trkpt lat="39.346097" lon="-5.465027">
        <ele>444.6</ele>
        <time>1970-01-01T00:00:00Z</time>
      </trkpt>
      <trkpt lat="39.346097" lon="-5.465027">
        <ele>444.6</ele>
        <time>1970-01-01T00:00:00Z</time>
      </trkpt>
      <trkpt lat="39.346097" lon="-5.465027">
        <ele>444.6</ele>
        <time>1970-01-01T00:00:00Z</time>
      </trkpt>
      <trkpt lat="39.346144" lon="-5.464884">
        <ele>444.6</ele>
        <time>1970-01-01T00:00:00Z</time>
      </trkpt>
      <trkpt lat="39.346144" lon="-5.464884">
        <ele>444.6</ele>
        <time>1970-01-01T00:00:00Z</time>
      </trkpt>
      <trkpt lat="39.346144" lon="-5.464884">
        <ele>444.6</ele>
        <time>1970-01-01T00:00:00Z</time>
      </trkpt>
      <trkpt lat="39.346144" lon="-5.464884">
        <ele>444.6</ele>
        <time>1970-01-01T00:00:00Z</time>
      </trkpt>
      <trkpt lat="39.346213" lon="-5.464665">
        <ele>444.5</ele>
        <time>1970-01-01T00:00:00Z</time>
      </trkpt>
      <trkpt lat="39.346213" lon="-5.464665">
        <ele>444.5</ele>
        <time>1970-01-01T00:00:00Z</time>
      </trkpt>
      <trkpt lat="39.346213" lon="-5.464665">
        <ele>444.5</ele>
        <time>1970-01-01T00:00:00Z</time>
      </trkpt>
      <trkpt lat="39.346213" lon="-5.464665">
        <ele>444.5</ele>
        <time>1970-01-01T00:00:00Z</time>
      </trkpt>
      <trkpt lat="39.346267" lon="-5.464468">
        <ele>445.1</ele>
        <time>1970-01-01T00:00:00Z</time>
      </trkpt>
      <trkpt lat="39.346267" lon="-5.464468">
        <ele>445.1</ele>
        <time>1970-01-01T00:00:00Z</time>
      </trkpt>
      <trkpt lat="39.346267" lon="-5.464468">
        <ele>445.1</ele>
        <time>1970-01-01T00:00:00Z</time>
      </trkpt>
      <trkpt lat="39.346267" lon="-5.464468">
        <ele>445.1</ele>
        <time>1970-01-01T00:00:00Z</time>
      </trkpt>
      <trkpt lat="39.346299" lon="-5.464349">
        <ele>445.4</ele>
        <time>1970-01-01T00:00:00Z</time>
      </trkpt>
      <trkpt lat="39.346299" lon="-5.464349">
        <ele>445.4</ele>
        <time>1970-01-01T00:00:00Z</time>
      </trkpt>
      <trkpt lat="39.346299" lon="-5.464349">
        <ele>445.4</ele>
        <time>1970-01-01T00:00:00Z</time>
      </trkpt>
      <trkpt lat="39.346299" lon="-5.464349">
        <ele>445.4</ele>
        <time>1970-01-01T00:00:00Z</time>
      </trkpt>
      <trkpt lat="39.346323" lon="-5.464242">
        <ele>445.7</ele>
        <time>1970-01-01T00:00:00Z</time>
      </trkpt>
      <trkpt lat="39.346323" lon="-5.464242">
        <ele>445.7</ele>
        <time>1970-01-01T00:00:00Z</time>
      </trkpt>
      <trkpt lat="39.346323" lon="-5.464242">
        <ele>445.7</ele>
        <time>1970-01-01T00:00:00Z</time>
      </trkpt>
      <trkpt lat="39.346323" lon="-5.464242">
        <ele>445.7</ele>
        <time>1970-01-01T00:00:00Z</time>
      </trkpt>
      <trkpt lat="39.346329" lon="-5.464156">
        <ele>445.7</ele>
        <time>1970-01-01T00:00:00Z</time>
      </trkpt>
      <trkpt lat="39.346329" lon="-5.464156">
        <ele>445.7</ele>
        <time>1970-01-01T00:00:00Z</time>
      </trkpt>
      <trkpt lat="39.346329" lon="-5.464156">
        <ele>445.7</ele>
        <time>1970-01-01T00:00:00Z</time>
      </trkpt>
      <trkpt lat="39.346329" lon="-5.464156">
        <ele>445.7</ele>
        <time>1970-01-01T00:00:00Z</time>
      </trkpt>
      <trkpt lat="39.346318" lon="-5.464014">
        <ele>444.9</ele>
        <time>1970-01-01T00:00:00Z</time>
      </trkpt>
      <trkpt lat="39.346318" lon="-5.464014">
        <ele>444.9</ele>
        <time>1970-01-01T00:00:00Z</time>
      </trkpt>
      <trkpt lat="39.346318" lon="-5.464014">
        <ele>444.9</ele>
        <time>1970-01-01T00:00:00Z</time>
      </trkpt>
      <trkpt lat="39.346318" lon="-5.464014">
        <ele>444.9</ele>
        <time>1970-01-01T00:00:00Z</time>
      </trkpt>
      <trkpt lat="39.346348" lon="-5.463831">
        <ele>445.1</ele>
        <time>1970-01-01T00:00:00Z</time>
      </trkpt>
      <trkpt lat="39.346348" lon="-5.463831">
        <ele>445.1</ele>
        <time>1970-01-01T00:00:00Z</time>
      </trkpt>
      <trkpt lat="39.346348" lon="-5.463831">
        <ele>445.1</ele>
        <time>1970-01-01T00:00:00Z</time>
      </trkpt>
      <trkpt lat="39.346348" lon="-5.463831">
        <ele>445.1</ele>
        <time>1970-01-01T00:00:00Z</time>
      </trkpt>
      <trkpt lat="39.346402" lon="-5.463489">
        <ele>444.8</ele>
        <time>1970-01-01T00:00:00Z</time>
      </trkpt>
      <trkpt lat="39.346402" lon="-5.463489">
        <ele>444.8</ele>
        <time>1970-01-01T00:00:00Z</time>
      </trkpt>
      <trkpt lat="39.346402" lon="-5.463489">
        <ele>444.8</ele>
        <time>1970-01-01T00:00:00Z</time>
      </trkpt>
      <trkpt lat="39.346402" lon="-5.463489">
        <ele>444.8</ele>
        <time>1970-01-01T00:00:00Z</time>
      </trkpt>
      <trkpt lat="39.346449" lon="-5.463241">
        <ele>445.4</ele>
        <time>1970-01-01T00:00:00Z</time>
      </trkpt>
      <trkpt lat="39.346449" lon="-5.463241">
        <ele>445.4</ele>
        <time>1970-01-01T00:00:00Z</time>
      </trkpt>
      <trkpt lat="39.346449" lon="-5.463241">
        <ele>445.4</ele>
        <time>1970-01-01T00:00:00Z</time>
      </trkpt>
      <trkpt lat="39.346449" lon="-5.463241">
        <ele>445.4</ele>
        <time>1970-01-01T00:00:00Z</time>
      </trkpt>
      <trkpt lat="39.346482" lon="-5.463042">
        <ele>445.8</ele>
        <time>1970-01-01T00:00:00Z</time>
      </trkpt>
      <trkpt lat="39.346482" lon="-5.463042">
        <ele>445.8</ele>
        <time>1970-01-01T00:00:00Z</time>
      </trkpt>
      <trkpt lat="39.346482" lon="-5.463042">
        <ele>445.8</ele>
        <time>1970-01-01T00:00:00Z</time>
      </trkpt>
      <trkpt lat="39.346482" lon="-5.463042">
        <ele>445.8</ele>
        <time>1970-01-01T00:00:00Z</time>
      </trkpt>
      <trkpt lat="39.346509" lon="-5.462849">
        <ele>445.7</ele>
        <time>1970-01-01T00:00:00Z</time>
      </trkpt>
      <trkpt lat="39.346509" lon="-5.462849">
        <ele>445.7</ele>
        <time>1970-01-01T00:00:00Z</time>
      </trkpt>
      <trkpt lat="39.346509" lon="-5.462849">
        <ele>445.7</ele>
        <time>1970-01-01T00:00:00Z</time>
      </trkpt>
      <trkpt lat="39.346509" lon="-5.462849">
        <ele>445.7</ele>
        <time>1970-01-01T00:00:00Z</time>
      </trkpt>
      <trkpt lat="39.346536" lon="-5.462623">
        <ele>446.0</ele>
        <time>1970-01-01T00:00:00Z</time>
      </trkpt>
      <trkpt lat="39.346536" lon="-5.462623">
        <ele>446.0</ele>
        <time>1970-01-01T00:00:00Z</time>
      </trkpt>
      <trkpt lat="39.346536" lon="-5.462623">
        <ele>446.0</ele>
        <time>1970-01-01T00:00:00Z</time>
      </trkpt>
      <trkpt lat="39.346536" lon="-5.462623">
        <ele>446.0</ele>
        <time>1970-01-01T00:00:00Z</time>
      </trkpt>
      <trkpt lat="39.346564" lon="-5.462285">
        <ele>446.9</ele>
        <time>1970-01-01T00:00:00Z</time>
      </trkpt>
      <trkpt lat="39.346564" lon="-5.462285">
        <ele>446.9</ele>
        <time>1970-01-01T00:00:00Z</time>
      </trkpt>
      <trkpt lat="39.346564" lon="-5.462285">
        <ele>446.9</ele>
        <time>1970-01-01T00:00:00Z</time>
      </trkpt>
      <trkpt lat="39.346564" lon="-5.462285">
        <ele>446.9</ele>
        <time>1970-01-01T00:00:00Z</time>
      </trkpt>
      <trkpt lat="39.346571" lon="-5.462045">
        <ele>447.2</ele>
        <time>1970-01-01T00:00:00Z</time>
      </trkpt>
      <trkpt lat="39.346571" lon="-5.462045">
        <ele>447.2</ele>
        <time>1970-01-01T00:00:00Z</time>
      </trkpt>
      <trkpt lat="39.346571" lon="-5.462045">
        <ele>447.2</ele>
        <time>1970-01-01T00:00:00Z</time>
      </trkpt>
      <trkpt lat="39.346571" lon="-5.462045">
        <ele>447.2</ele>
        <time>1970-01-01T00:00:00Z</time>
      </trkpt>
      <trkpt lat="39.346572" lon="-5.461868">
        <ele>447.7</ele>
        <time>1970-01-01T00:00:00Z</time>
      </trkpt>
      <trkpt lat="39.346572" lon="-5.461868">
        <ele>447.7</ele>
        <time>1970-01-01T00:00:00Z</time>
      </trkpt>
      <trkpt lat="39.346572" lon="-5.461868">
        <ele>447.7</ele>
        <time>1970-01-01T00:00:00Z</time>
      </trkpt>
      <trkpt lat="39.346572" lon="-5.461868">
        <ele>447.7</ele>
        <time>1970-01-01T00:00:00Z</time>
      </trkpt>
      <trkpt lat="39.346576" lon="-5.461678">
        <ele>449.2</ele>
        <time>1970-01-01T00:00:00Z</time>
      </trkpt>
      <trkpt lat="39.346576" lon="-5.461678">
        <ele>449.2</ele>
        <time>1970-01-01T00:00:00Z</time>
      </trkpt>
      <trkpt lat="39.346576" lon="-5.461678">
        <ele>449.2</ele>
        <time>1970-01-01T00:00:00Z</time>
      </trkpt>
      <trkpt lat="39.346576" lon="-5.461678">
        <ele>449.2</ele>
        <time>1970-01-01T00:00:00Z</time>
      </trkpt>
      <trkpt lat="39.346577" lon="-5.461554">
        <ele>449.5</ele>
        <time>1970-01-01T00:00:00Z</time>
      </trkpt>
      <trkpt lat="39.346577" lon="-5.461554">
        <ele>449.5</ele>
        <time>1970-01-01T00:00:00Z</time>
      </trkpt>
      <trkpt lat="39.346577" lon="-5.461554">
        <ele>449.5</ele>
        <time>1970-01-01T00:00:00Z</time>
      </trkpt>
      <trkpt lat="39.346577" lon="-5.461554">
        <ele>449.5</ele>
        <time>1970-01-01T00:00:00Z</time>
      </trkpt>
      <trkpt lat="39.346561" lon="-5.461375">
        <ele>449.6</ele>
        <time>1970-01-01T00:00:00Z</time>
      </trkpt>
      <trkpt lat="39.346561" lon="-5.461375">
        <ele>449.6</ele>
        <time>1970-01-01T00:00:00Z</time>
      </trkpt>
      <trkpt lat="39.346561" lon="-5.461375">
        <ele>449.6</ele>
        <time>1970-01-01T00:00:00Z</time>
      </trkpt>
      <trkpt lat="39.346561" lon="-5.461375">
        <ele>449.6</ele>
        <time>1970-01-01T00:00:00Z</time>
      </trkpt>
      <trkpt lat="39.346560" lon="-5.461158">
        <ele>450.4</ele>
        <time>1970-01-01T00:00:00Z</time>
      </trkpt>
      <trkpt lat="39.346560" lon="-5.461158">
        <ele>450.4</ele>
        <time>1970-01-01T00:00:00Z</time>
      </trkpt>
      <trkpt lat="39.346560" lon="-5.461158">
        <ele>450.4</ele>
        <time>1970-01-01T00:00:00Z</time>
      </trkpt>
      <trkpt lat="39.346560" lon="-5.461158">
        <ele>450.4</ele>
        <time>1970-01-01T00:00:00Z</time>
      </trkpt>
      <trkpt lat="39.346543" lon="-5.460962">
        <ele>450.1</ele>
        <time>1970-01-01T00:00:00Z</time>
      </trkpt>
      <trkpt lat="39.346543" lon="-5.460962">
        <ele>450.1</ele>
        <time>1970-01-01T00:00:00Z</time>
      </trkpt>
      <trkpt lat="39.346543" lon="-5.460962">
        <ele>450.1</ele>
        <time>1970-01-01T00:00:00Z</time>
      </trkpt>
      <trkpt lat="39.346543" lon="-5.460962">
        <ele>450.1</ele>
        <time>1970-01-01T00:00:00Z</time>
      </trkpt>
      <trkpt lat="39.346541" lon="-5.460830">
        <ele>450.1</ele>
        <time>1970-01-01T00:00:00Z</time>
      </trkpt>
      <trkpt lat="39.346541" lon="-5.460830">
        <ele>450.1</ele>
        <time>1970-01-01T00:00:00Z</time>
      </trkpt>
      <trkpt lat="39.346541" lon="-5.460830">
        <ele>450.1</ele>
        <time>1970-01-01T00:00:00Z</time>
      </trkpt>
      <trkpt lat="39.346541" lon="-5.460830">
        <ele>450.1</ele>
        <time>1970-01-01T00:00:00Z</time>
      </trkpt>
      <trkpt lat="39.346526" lon="-5.460729">
        <ele>449.8</ele>
        <time>1970-01-01T00:00:00Z</time>
      </trkpt>
      <trkpt lat="39.346526" lon="-5.460729">
        <ele>449.8</ele>
        <time>1970-01-01T00:00:00Z</time>
      </trkpt>
      <trkpt lat="39.346526" lon="-5.460729">
        <ele>449.8</ele>
        <time>1970-01-01T00:00:00Z</time>
      </trkpt>
      <trkpt lat="39.346526" lon="-5.460729">
        <ele>449.8</ele>
        <time>1970-01-01T00:00:00Z</time>
      </trkpt>
      <trkpt lat="39.346517" lon="-5.460629">
        <ele>449.5</ele>
        <time>1970-01-01T00:00:00Z</time>
      </trkpt>
      <trkpt lat="39.346517" lon="-5.460629">
        <ele>449.5</ele>
        <time>1970-01-01T00:00:00Z</time>
      </trkpt>
      <trkpt lat="39.346517" lon="-5.460629">
        <ele>449.5</ele>
        <time>1970-01-01T00:00:00Z</time>
      </trkpt>
      <trkpt lat="39.346517" lon="-5.460629">
        <ele>449.5</ele>
        <time>1970-01-01T00:00:00Z</time>
      </trkpt>
      <trkpt lat="39.346499" lon="-5.460535">
        <ele>449.1</ele>
        <time>1970-01-01T00:00:00Z</time>
      </trkpt>
      <trkpt lat="39.346499" lon="-5.460535">
        <ele>449.1</ele>
        <time>1970-01-01T00:00:00Z</time>
      </trkpt>
      <trkpt lat="39.346499" lon="-5.460535">
        <ele>449.1</ele>
        <time>1970-01-01T00:00:00Z</time>
      </trkpt>
      <trkpt lat="39.346499" lon="-5.460535">
        <ele>449.1</ele>
        <time>1970-01-01T00:00:00Z</time>
      </trkpt>
      <trkpt lat="39.346480" lon="-5.460426">
        <ele>448.8</ele>
        <time>1970-01-01T00:00:00Z</time>
      </trkpt>
      <trkpt lat="39.346480" lon="-5.460426">
        <ele>448.8</ele>
        <time>1970-01-01T00:00:00Z</time>
      </trkpt>
      <trkpt lat="39.346480" lon="-5.460426">
        <ele>448.8</ele>
        <time>1970-01-01T00:00:00Z</time>
      </trkpt>
      <trkpt lat="39.346480" lon="-5.460426">
        <ele>448.8</ele>
        <time>1970-01-01T00:00:00Z</time>
      </trkpt>
      <trkpt lat="39.346465" lon="-5.460318">
        <ele>448.6</ele>
        <time>1970-01-01T00:00:00Z</time>
      </trkpt>
      <trkpt lat="39.346465" lon="-5.460318">
        <ele>448.6</ele>
        <time>1970-01-01T00:00:00Z</time>
      </trkpt>
      <trkpt lat="39.346465" lon="-5.460318">
        <ele>448.6</ele>
        <time>1970-01-01T00:00:00Z</time>
      </trkpt>
      <trkpt lat="39.346465" lon="-5.460318">
        <ele>448.6</ele>
        <time>1970-01-01T00:00:00Z</time>
      </trkpt>
      <trkpt lat="39.346472" lon="-5.460233">
        <ele>448.7</ele>
        <time>1970-01-01T00:00:00Z</time>
      </trkpt>
      <trkpt lat="39.346472" lon="-5.460233">
        <ele>448.7</ele>
        <time>1970-01-01T00:00:00Z</time>
      </trkpt>
      <trkpt lat="39.346472" lon="-5.460233">
        <ele>448.7</ele>
        <time>1970-01-01T00:00:00Z</time>
      </trkpt>
      <trkpt lat="39.346472" lon="-5.460233">
        <ele>448.7</ele>
        <time>1970-01-01T00:00:00Z</time>
      </trkpt>
      <trkpt lat="39.346501" lon="-5.460127">
        <ele>448.9</ele>
        <time>1970-01-01T00:00:00Z</time>
      </trkpt>
      <trkpt lat="39.346501" lon="-5.460127">
        <ele>448.9</ele>
        <time>1970-01-01T00:00:00Z</time>
      </trkpt>
      <trkpt lat="39.346501" lon="-5.460127">
        <ele>448.9</ele>
        <time>1970-01-01T00:00:00Z</time>
      </trkpt>
      <trkpt lat="39.346501" lon="-5.460127">
        <ele>448.9</ele>
        <time>1970-01-01T00:00:00Z</time>
      </trkpt>
      <trkpt lat="39.346515" lon="-5.460062">
        <ele>448.9</ele>
        <time>1970-01-01T00:00:00Z</time>
      </trkpt>
      <trkpt lat="39.346515" lon="-5.460062">
        <ele>448.9</ele>
        <time>1970-01-01T00:00:00Z</time>
      </trkpt>
      <trkpt lat="39.346515" lon="-5.460062">
        <ele>448.9</ele>
        <time>1970-01-01T00:00:00Z</time>
      </trkpt>
      <trkpt lat="39.346515" lon="-5.460062">
        <ele>448.9</ele>
        <time>1970-01-01T00:00:00Z</time>
      </trkpt>
      <trkpt lat="39.346491" lon="-5.459958">
        <ele>448.4</ele>
        <time>1970-01-01T00:00:00Z</time>
      </trkpt>
      <trkpt lat="39.346491" lon="-5.459958">
        <ele>448.4</ele>
        <time>1970-01-01T00:00:00Z</time>
      </trkpt>
      <trkpt lat="39.346491" lon="-5.459958">
        <ele>448.4</ele>
        <time>1970-01-01T00:00:00Z</time>
      </trkpt>
      <trkpt lat="39.346491" lon="-5.459958">
        <ele>448.4</ele>
        <time>1970-01-01T00:00:00Z</time>
      </trkpt>
      <trkpt lat="39.346453" lon="-5.459824">
        <ele>447.5</ele>
        <time>1970-01-01T00:00:00Z</time>
      </trkpt>
      <trkpt lat="39.346453" lon="-5.459824">
        <ele>447.5</ele>
        <time>1970-01-01T00:00:00Z</time>
      </trkpt>
      <trkpt lat="39.346453" lon="-5.459824">
        <ele>447.5</ele>
        <time>1970-01-01T00:00:00Z</time>
      </trkpt>
      <trkpt lat="39.346453" lon="-5.459824">
        <ele>447.5</ele>
        <time>1970-01-01T00:00:00Z</time>
      </trkpt>
      <trkpt lat="39.346427" lon="-5.459698">
        <ele>447.5</ele>
        <time>1970-01-01T00:00:00Z</time>
      </trkpt>
      <trkpt lat="39.346427" lon="-5.459698">
        <ele>447.5</ele>
        <time>1970-01-01T00:00:00Z</time>
      </trkpt>
      <trkpt lat="39.346427" lon="-5.459698">
        <ele>447.5</ele>
        <time>1970-01-01T00:00:00Z</time>
      </trkpt>
      <trkpt lat="39.346427" lon="-5.459698">
        <ele>447.5</ele>
        <time>1970-01-01T00:00:00Z</time>
      </trkpt>
      <trkpt lat="39.346403" lon="-5.459584">
        <ele>447.8</ele>
        <time>1970-01-01T00:00:00Z</time>
      </trkpt>
      <trkpt lat="39.346403" lon="-5.459584">
        <ele>447.8</ele>
        <time>1970-01-01T00:00:00Z</time>
      </trkpt>
      <trkpt lat="39.346403" lon="-5.459584">
        <ele>447.8</ele>
        <time>1970-01-01T00:00:00Z</time>
      </trkpt>
      <trkpt lat="39.346403" lon="-5.459584">
        <ele>447.8</ele>
        <time>1970-01-01T00:00:00Z</time>
      </trkpt>
      <trkpt lat="39.346370" lon="-5.459446">
        <ele>447.6</ele>
        <time>1970-01-01T00:00:00Z</time>
      </trkpt>
      <trkpt lat="39.346370" lon="-5.459446">
        <ele>447.6</ele>
        <time>1970-01-01T00:00:00Z</time>
      </trkpt>
      <trkpt lat="39.346370" lon="-5.459446">
        <ele>447.6</ele>
        <time>1970-01-01T00:00:00Z</time>
      </trkpt>
      <trkpt lat="39.346370" lon="-5.459446">
        <ele>447.6</ele>
        <time>1970-01-01T00:00:00Z</time>
      </trkpt>
      <trkpt lat="39.346323" lon="-5.459257">
        <ele>447.3</ele>
        <time>1970-01-01T00:00:00Z</time>
      </trkpt>
      <trkpt lat="39.346323" lon="-5.459257">
        <ele>447.3</ele>
        <time>1970-01-01T00:00:00Z</time>
      </trkpt>
      <trkpt lat="39.346323" lon="-5.459257">
        <ele>447.3</ele>
        <time>1970-01-01T00:00:00Z</time>
      </trkpt>
      <trkpt lat="39.346323" lon="-5.459257">
        <ele>447.3</ele>
        <time>1970-01-01T00:00:00Z</time>
      </trkpt>
      <trkpt lat="39.346270" lon="-5.459019">
        <ele>447.7</ele>
        <time>1970-01-01T00:00:00Z</time>
      </trkpt>
      <trkpt lat="39.346270" lon="-5.459019">
        <ele>447.7</ele>
        <time>1970-01-01T00:00:00Z</time>
      </trkpt>
      <trkpt lat="39.346270" lon="-5.459019">
        <ele>447.7</ele>
        <time>1970-01-01T00:00:00Z</time>
      </trkpt>
      <trkpt lat="39.346270" lon="-5.459019">
        <ele>447.7</ele>
        <time>1970-01-01T00:00:00Z</time>
      </trkpt>
      <trkpt lat="39.346216" lon="-5.458827">
        <ele>448.3</ele>
        <time>1970-01-01T00:00:00Z</time>
      </trkpt>
      <trkpt lat="39.346216" lon="-5.458827">
        <ele>448.3</ele>
        <time>1970-01-01T00:00:00Z</time>
      </trkpt>
      <trkpt lat="39.346216" lon="-5.458827">
        <ele>448.3</ele>
        <time>1970-01-01T00:00:00Z</time>
      </trkpt>
      <trkpt lat="39.346216" lon="-5.458827">
        <ele>448.3</ele>
        <time>1970-01-01T00:00:00Z</time>
      </trkpt>
      <trkpt lat="39.346176" lon="-5.458681">
        <ele>448.8</ele>
        <time>1970-01-01T00:00:00Z</time>
      </trkpt>
      <trkpt lat="39.346176" lon="-5.458681">
        <ele>448.8</ele>
        <time>1970-01-01T00:00:00Z</time>
      </trkpt>
      <trkpt lat="39.346176" lon="-5.458681">
        <ele>448.8</ele>
        <time>1970-01-01T00:00:00Z</time>
      </trkpt>
      <trkpt lat="39.346176" lon="-5.458681">
        <ele>448.8</ele>
        <time>1970-01-01T00:00:00Z</time>
      </trkpt>
      <trkpt lat="39.346159" lon="-5.458606">
        <ele>449.0</ele>
        <time>1970-01-01T00:00:00Z</time>
      </trkpt>
      <trkpt lat="39.346159" lon="-5.458606">
        <ele>449.0</ele>
        <time>1970-01-01T00:00:00Z</time>
      </trkpt>
      <trkpt lat="39.346159" lon="-5.458606">
        <ele>449.0</ele>
        <time>1970-01-01T00:00:00Z</time>
      </trkpt>
      <trkpt lat="39.346159" lon="-5.458606">
        <ele>449.0</ele>
        <time>1970-01-01T00:00:00Z</time>
      </trkpt>
      <trkpt lat="39.346143" lon="-5.458523">
        <ele>449.3</ele>
        <time>1970-01-01T00:00:00Z</time>
      </trkpt>
      <trkpt lat="39.346143" lon="-5.458523">
        <ele>449.3</ele>
        <time>1970-01-01T00:00:00Z</time>
      </trkpt>
      <trkpt lat="39.346143" lon="-5.458523">
        <ele>449.3</ele>
        <time>1970-01-01T00:00:00Z</time>
      </trkpt>
      <trkpt lat="39.346143" lon="-5.458523">
        <ele>449.3</ele>
        <time>1970-01-01T00:00:00Z</time>
      </trkpt>
      <trkpt lat="39.346115" lon="-5.458393">
        <ele>449.7</ele>
        <time>1970-01-01T00:00:00Z</time>
      </trkpt>
      <trkpt lat="39.346115" lon="-5.458393">
        <ele>449.7</ele>
        <time>1970-01-01T00:00:00Z</time>
      </trkpt>
      <trkpt lat="39.346115" lon="-5.458393">
        <ele>449.7</ele>
        <time>1970-01-01T00:00:00Z</time>
      </trkpt>
      <trkpt lat="39.346115" lon="-5.458393">
        <ele>449.7</ele>
        <time>1970-01-01T00:00:00Z</time>
      </trkpt>
      <trkpt lat="39.346070" lon="-5.458234">
        <ele>449.9</ele>
        <time>1970-01-01T00:00:00Z</time>
      </trkpt>
      <trkpt lat="39.346070" lon="-5.458234">
        <ele>449.9</ele>
        <time>1970-01-01T00:00:00Z</time>
      </trkpt>
      <trkpt lat="39.346070" lon="-5.458234">
        <ele>449.9</ele>
        <time>1970-01-01T00:00:00Z</time>
      </trkpt>
      <trkpt lat="39.346070" lon="-5.458234">
        <ele>449.9</ele>
        <time>1970-01-01T00:00:00Z</time>
      </trkpt>
      <trkpt lat="39.346027" lon="-5.458055">
        <ele>450.2</ele>
        <time>1970-01-01T00:00:00Z</time>
      </trkpt>
      <trkpt lat="39.346027" lon="-5.458055">
        <ele>450.2</ele>
        <time>1970-01-01T00:00:00Z</time>
      </trkpt>
      <trkpt lat="39.346027" lon="-5.458055">
        <ele>450.2</ele>
        <time>1970-01-01T00:00:00Z</time>
      </trkpt>
      <trkpt lat="39.346027" lon="-5.458055">
        <ele>450.2</ele>
        <time>1970-01-01T00:00:00Z</time>
      </trkpt>
      <trkpt lat="39.345989" lon="-5.457856">
        <ele>450.1</ele>
        <time>1970-01-01T00:00:00Z</time>
      </trkpt>
      <trkpt lat="39.345989" lon="-5.457856">
        <ele>450.1</ele>
        <time>1970-01-01T00:00:00Z</time>
      </trkpt>
      <trkpt lat="39.345989" lon="-5.457856">
        <ele>450.1</ele>
        <time>1970-01-01T00:00:00Z</time>
      </trkpt>
      <trkpt lat="39.345989" lon="-5.457856">
        <ele>450.1</ele>
        <time>1970-01-01T00:00:00Z</time>
      </trkpt>
      <trkpt lat="39.345980" lon="-5.457783">
        <ele>450.1</ele>
        <time>1970-01-01T00:00:00Z</time>
      </trkpt>
      <trkpt lat="39.345980" lon="-5.457783">
        <ele>450.1</ele>
        <time>1970-01-01T00:00:00Z</time>
      </trkpt>
      <trkpt lat="39.345980" lon="-5.457783">
        <ele>450.1</ele>
        <time>1970-01-01T00:00:00Z</time>
      </trkpt>
      <trkpt lat="39.345980" lon="-5.457783">
        <ele>450.1</ele>
        <time>1970-01-01T00:00:00Z</time>
      </trkpt>
      <trkpt lat="39.345999" lon="-5.457666">
        <ele>450.4</ele>
        <time>1970-01-01T00:00:00Z</time>
      </trkpt>
      <trkpt lat="39.345999" lon="-5.457666">
        <ele>450.4</ele>
        <time>1970-01-01T00:00:00Z</time>
      </trkpt>
      <trkpt lat="39.345999" lon="-5.457666">
        <ele>450.4</ele>
        <time>1970-01-01T00:00:00Z</time>
      </trkpt>
      <trkpt lat="39.345999" lon="-5.457666">
        <ele>450.4</ele>
        <time>1970-01-01T00:00:00Z</time>
      </trkpt>
      <trkpt lat="39.346020" lon="-5.457533">
        <ele>451.1</ele>
        <time>1970-01-01T00:00:00Z</time>
      </trkpt>
      <trkpt lat="39.346020" lon="-5.457533">
        <ele>451.1</ele>
        <time>1970-01-01T00:00:00Z</time>
      </trkpt>
      <trkpt lat="39.346020" lon="-5.457533">
        <ele>451.1</ele>
        <time>1970-01-01T00:00:00Z</time>
      </trkpt>
      <trkpt lat="39.346020" lon="-5.457533">
        <ele>451.1</ele>
        <time>1970-01-01T00:00:00Z</time>
      </trkpt>
      <trkpt lat="39.346042" lon="-5.457433">
        <ele>451.5</ele>
        <time>1970-01-01T00:00:00Z</time>
      </trkpt>
      <trkpt lat="39.346042" lon="-5.457433">
        <ele>451.5</ele>
        <time>1970-01-01T00:00:00Z</time>
      </trkpt>
      <trkpt lat="39.346042" lon="-5.457433">
        <ele>451.5</ele>
        <time>1970-01-01T00:00:00Z</time>
      </trkpt>
      <trkpt lat="39.346042" lon="-5.457433">
        <ele>451.5</ele>
        <time>1970-01-01T00:00:00Z</time>
      </trkpt>
      <trkpt lat="39.346105" lon="-5.457233">
        <ele>452.1</ele>
        <time>1970-01-01T00:00:00Z</time>
      </trkpt>
      <trkpt lat="39.346105" lon="-5.457233">
        <ele>452.1</ele>
        <time>1970-01-01T00:00:00Z</time>
      </trkpt>
      <trkpt lat="39.346105" lon="-5.457233">
        <ele>452.1</ele>
        <time>1970-01-01T00:00:00Z</time>
      </trkpt>
      <trkpt lat="39.346105" lon="-5.457233">
        <ele>452.1</ele>
        <time>1970-01-01T00:00:00Z</time>
      </trkpt>
      <trkpt lat="39.346126" lon="-5.457083">
        <ele>452.5</ele>
        <time>1970-01-01T00:00:00Z</time>
      </trkpt>
      <trkpt lat="39.346126" lon="-5.457083">
        <ele>452.5</ele>
        <time>1970-01-01T00:00:00Z</time>
      </trkpt>
      <trkpt lat="39.346126" lon="-5.457083">
        <ele>452.5</ele>
        <time>1970-01-01T00:00:00Z</time>
      </trkpt>
      <trkpt lat="39.346126" lon="-5.457083">
        <ele>452.5</ele>
        <time>1970-01-01T00:00:00Z</time>
      </trkpt>
      <trkpt lat="39.346200" lon="-5.456840">
        <ele>453.8</ele>
        <time>1970-01-01T00:00:00Z</time>
      </trkpt>
      <trkpt lat="39.346200" lon="-5.456840">
        <ele>453.8</ele>
        <time>1970-01-01T00:00:00Z</time>
      </trkpt>
      <trkpt lat="39.346200" lon="-5.456840">
        <ele>453.8</ele>
        <time>1970-01-01T00:00:00Z</time>
      </trkpt>
      <trkpt lat="39.346200" lon="-5.456840">
        <ele>453.8</ele>
        <time>1970-01-01T00:00:00Z</time>
      </trkpt>
      <trkpt lat="39.346313" lon="-5.456527">
        <ele>453.6</ele>
        <time>1970-01-01T00:00:00Z</time>
      </trkpt>
      <trkpt lat="39.346313" lon="-5.456527">
        <ele>453.6</ele>
        <time>1970-01-01T00:00:00Z</time>
      </trkpt>
      <trkpt lat="39.346313" lon="-5.456527">
        <ele>453.6</ele>
        <time>1970-01-01T00:00:00Z</time>
      </trkpt>
      <trkpt lat="39.346313" lon="-5.456527">
        <ele>453.6</ele>
        <time>1970-01-01T00:00:00Z</time>
      </trkpt>
      <trkpt lat="39.346395" lon="-5.456264">
        <ele>454.8</ele>
        <time>1970-01-01T00:00:00Z</time>
      </trkpt>
      <trkpt lat="39.346395" lon="-5.456264">
        <ele>454.8</ele>
        <time>1970-01-01T00:00:00Z</time>
      </trkpt>
      <trkpt lat="39.346395" lon="-5.456264">
        <ele>454.8</ele>
        <time>1970-01-01T00:00:00Z</time>
      </trkpt>
      <trkpt lat="39.346395" lon="-5.456264">
        <ele>454.8</ele>
        <time>1970-01-01T00:00:00Z</time>
      </trkpt>
      <trkpt lat="39.346500" lon="-5.455990">
        <ele>455.3</ele>
        <time>1970-01-01T00:00:00Z</time>
      </trkpt>
      <trkpt lat="39.346500" lon="-5.455990">
        <ele>455.3</ele>
        <time>1970-01-01T00:00:00Z</time>
      </trkpt>
      <trkpt lat="39.346500" lon="-5.455990">
        <ele>455.3</ele>
        <time>1970-01-01T00:00:00Z</time>
      </trkpt>
      <trkpt lat="39.346500" lon="-5.455990">
        <ele>455.3</ele>
        <time>1970-01-01T00:00:00Z</time>
      </trkpt>
      <trkpt lat="39.346546" lon="-5.455896">
        <ele>455.5</ele>
        <time>1970-01-01T00:00:00Z</time>
      </trkpt>
      <trkpt lat="39.346546" lon="-5.455896">
        <ele>455.5</ele>
        <time>1970-01-01T00:00:00Z</time>
      </trkpt>
      <trkpt lat="39.346546" lon="-5.455896">
        <ele>455.5</ele>
        <time>1970-01-01T00:00:00Z</time>
      </trkpt>
      <trkpt lat="39.346546" lon="-5.455896">
        <ele>455.5</ele>
        <time>1970-01-01T00:00:00Z</time>
      </trkpt>
      <trkpt lat="39.346575" lon="-5.455841">
        <ele>455.7</ele>
        <time>1970-01-01T00:00:00Z</time>
      </trkpt>
      <trkpt lat="39.346575" lon="-5.455841">
        <ele>455.7</ele>
        <time>1970-01-01T00:00:00Z</time>
      </trkpt>
      <trkpt lat="39.346575" lon="-5.455841">
        <ele>455.7</ele>
        <time>1970-01-01T00:00:00Z</time>
      </trkpt>
      <trkpt lat="39.346575" lon="-5.455841">
        <ele>455.7</ele>
        <time>1970-01-01T00:00:00Z</time>
      </trkpt>
      <trkpt lat="39.346624" lon="-5.455744">
        <ele>456.3</ele>
        <time>1970-01-01T00:00:00Z</time>
      </trkpt>
      <trkpt lat="39.346624" lon="-5.455744">
        <ele>456.3</ele>
        <time>1970-01-01T00:00:00Z</time>
      </trkpt>
      <trkpt lat="39.346624" lon="-5.455744">
        <ele>456.3</ele>
        <time>1970-01-01T00:00:00Z</time>
      </trkpt>
      <trkpt lat="39.346624" lon="-5.455744">
        <ele>456.3</ele>
        <time>1970-01-01T00:00:00Z</time>
      </trkpt>
      <trkpt lat="39.346743" lon="-5.455528">
        <ele>457.1</ele>
        <time>1970-01-01T00:00:00Z</time>
      </trkpt>
      <trkpt lat="39.346743" lon="-5.455528">
        <ele>457.1</ele>
        <time>1970-01-01T00:00:00Z</time>
      </trkpt>
      <trkpt lat="39.346743" lon="-5.455528">
        <ele>457.1</ele>
        <time>1970-01-01T00:00:00Z</time>
      </trkpt>
      <trkpt lat="39.346743" lon="-5.455528">
        <ele>457.1</ele>
        <time>1970-01-01T00:00:00Z</time>
      </trkpt>
      <trkpt lat="39.346817" lon="-5.455390">
        <ele>457.4</ele>
        <time>1970-01-01T00:00:00Z</time>
      </trkpt>
      <trkpt lat="39.346817" lon="-5.455390">
        <ele>457.4</ele>
        <time>1970-01-01T00:00:00Z</time>
      </trkpt>
      <trkpt lat="39.346817" lon="-5.455390">
        <ele>457.4</ele>
        <time>1970-01-01T00:00:00Z</time>
      </trkpt>
      <trkpt lat="39.346817" lon="-5.455390">
        <ele>457.4</ele>
        <time>1970-01-01T00:00:00Z</time>
      </trkpt>
      <trkpt lat="39.346880" lon="-5.455251">
        <ele>457.3</ele>
        <time>1970-01-01T00:00:00Z</time>
      </trkpt>
      <trkpt lat="39.346880" lon="-5.455251">
        <ele>457.3</ele>
        <time>1970-01-01T00:00:00Z</time>
      </trkpt>
      <trkpt lat="39.346880" lon="-5.455251">
        <ele>457.3</ele>
        <time>1970-01-01T00:00:00Z</time>
      </trkpt>
      <trkpt lat="39.346880" lon="-5.455251">
        <ele>457.3</ele>
        <time>1970-01-01T00:00:00Z</time>
      </trkpt>
      <trkpt lat="39.346909" lon="-5.455131">
        <ele>457.2</ele>
        <time>1970-01-01T00:00:00Z</time>
      </trkpt>
      <trkpt lat="39.346909" lon="-5.455131">
        <ele>457.2</ele>
        <time>1970-01-01T00:00:00Z</time>
      </trkpt>
      <trkpt lat="39.346909" lon="-5.455131">
        <ele>457.2</ele>
        <time>1970-01-01T00:00:00Z</time>
      </trkpt>
      <trkpt lat="39.346909" lon="-5.455131">
        <ele>457.2</ele>
        <time>1970-01-01T00:00:00Z</time>
      </trkpt>
      <trkpt lat="39.346901" lon="-5.455076">
        <ele>457.1</ele>
        <time>1970-01-01T00:00:00Z</time>
      </trkpt>
      <trkpt lat="39.346901" lon="-5.455076">
        <ele>457.1</ele>
        <time>1970-01-01T00:00:00Z</time>
      </trkpt>
      <trkpt lat="39.346901" lon="-5.455076">
        <ele>457.1</ele>
        <time>1970-01-01T00:00:00Z</time>
      </trkpt>
      <trkpt lat="39.346901" lon="-5.455076">
        <ele>457.1</ele>
        <time>1970-01-01T00:00:00Z</time>
      </trkpt>
      <trkpt lat="39.346859" lon="-5.454998">
        <ele>456.8</ele>
        <time>1970-01-01T00:00:00Z</time>
      </trkpt>
      <trkpt lat="39.346859" lon="-5.454998">
        <ele>456.8</ele>
        <time>1970-01-01T00:00:00Z</time>
      </trkpt>
      <trkpt lat="39.346859" lon="-5.454998">
        <ele>456.8</ele>
        <time>1970-01-01T00:00:00Z</time>
      </trkpt>
      <trkpt lat="39.346859" lon="-5.454998">
        <ele>456.8</ele>
        <time>1970-01-01T00:00:00Z</time>
      </trkpt>
      <trkpt lat="39.346801" lon="-5.454912">
        <ele>456.3</ele>
        <time>1970-01-01T00:00:00Z</time>
      </trkpt>
      <trkpt lat="39.346801" lon="-5.454912">
        <ele>456.3</ele>
        <time>1970-01-01T00:00:00Z</time>
      </trkpt>
      <trkpt lat="39.346801" lon="-5.454912">
        <ele>456.3</ele>
        <time>1970-01-01T00:00:00Z</time>
      </trkpt>
      <trkpt lat="39.346801" lon="-5.454912">
        <ele>456.3</ele>
        <time>1970-01-01T00:00:00Z</time>
      </trkpt>
      <trkpt lat="39.346760" lon="-5.454858">
        <ele>455.9</ele>
        <time>1970-01-01T00:00:00Z</time>
      </trkpt>
      <trkpt lat="39.346760" lon="-5.454858">
        <ele>455.9</ele>
        <time>1970-01-01T00:00:00Z</time>
      </trkpt>
      <trkpt lat="39.346760" lon="-5.454858">
        <ele>455.9</ele>
        <time>1970-01-01T00:00:00Z</time>
      </trkpt>
      <trkpt lat="39.346760" lon="-5.454858">
        <ele>455.9</ele>
        <time>1970-01-01T00:00:00Z</time>
      </trkpt>
      <trkpt lat="39.346662" lon="-5.454743">
        <ele>455.1</ele>
        <time>1970-01-01T00:00:00Z</time>
      </trkpt>
      <trkpt lat="39.346662" lon="-5.454743">
        <ele>455.1</ele>
        <time>1970-01-01T00:00:00Z</time>
      </trkpt>
      <trkpt lat="39.346662" lon="-5.454743">
        <ele>455.1</ele>
        <time>1970-01-01T00:00:00Z</time>
      </trkpt>
      <trkpt lat="39.346662" lon="-5.454743">
        <ele>455.1</ele>
        <time>1970-01-01T00:00:00Z</time>
      </trkpt>
      <trkpt lat="39.346522" lon="-5.454597">
        <ele>454.4</ele>
        <time>1970-01-01T00:00:00Z</time>
      </trkpt>
      <trkpt lat="39.346522" lon="-5.454597">
        <ele>454.4</ele>
        <time>1970-01-01T00:00:00Z</time>
      </trkpt>
      <trkpt lat="39.346522" lon="-5.454597">
        <ele>454.4</ele>
        <time>1970-01-01T00:00:00Z</time>
      </trkpt>
      <trkpt lat="39.346522" lon="-5.454597">
        <ele>454.4</ele>
        <time>1970-01-01T00:00:00Z</time>
      </trkpt>
      <trkpt lat="39.346417" lon="-5.454501">
        <ele>454.0</ele>
        <time>1970-01-01T00:00:00Z</time>
      </trkpt>
      <trkpt lat="39.346417" lon="-5.454501">
        <ele>454.0</ele>
        <time>1970-01-01T00:00:00Z</time>
      </trkpt>
      <trkpt lat="39.346417" lon="-5.454501">
        <ele>454.0</ele>
        <time>1970-01-01T00:00:00Z</time>
      </trkpt>
      <trkpt lat="39.346417" lon="-5.454501">
        <ele>454.0</ele>
        <time>1970-01-01T00:00:00Z</time>
      </trkpt>
      <trkpt lat="39.346309" lon="-5.454409">
        <ele>453.9</ele>
        <time>1970-01-01T00:00:00Z</time>
      </trkpt>
      <trkpt lat="39.346309" lon="-5.454409">
        <ele>453.9</ele>
        <time>1970-01-01T00:00:00Z</time>
      </trkpt>
      <trkpt lat="39.346309" lon="-5.454409">
        <ele>453.9</ele>
        <time>1970-01-01T00:00:00Z</time>
      </trkpt>
      <trkpt lat="39.346309" lon="-5.454409">
        <ele>453.9</ele>
        <time>1970-01-01T00:00:00Z</time>
      </trkpt>
      <trkpt lat="39.346177" lon="-5.454289">
        <ele>453.2</ele>
        <time>1970-01-01T00:00:00Z</time>
      </trkpt>
      <trkpt lat="39.346177" lon="-5.454289">
        <ele>453.2</ele>
        <time>1970-01-01T00:00:00Z</time>
      </trkpt>
      <trkpt lat="39.346177" lon="-5.454289">
        <ele>453.2</ele>
        <time>1970-01-01T00:00:00Z</time>
      </trkpt>
      <trkpt lat="39.346177" lon="-5.454289">
        <ele>453.2</ele>
        <time>1970-01-01T00:00:00Z</time>
      </trkpt>
      <trkpt lat="39.346032" lon="-5.454139">
        <ele>453.4</ele>
        <time>1970-01-01T00:00:00Z</time>
      </trkpt>
      <trkpt lat="39.346032" lon="-5.454139">
        <ele>453.4</ele>
        <time>1970-01-01T00:00:00Z</time>
      </trkpt>
      <trkpt lat="39.346032" lon="-5.454139">
        <ele>453.4</ele>
        <time>1970-01-01T00:00:00Z</time>
      </trkpt>
      <trkpt lat="39.346032" lon="-5.454139">
        <ele>453.4</ele>
        <time>1970-01-01T00:00:00Z</time>
      </trkpt>
      <trkpt lat="39.345823" lon="-5.453936">
        <ele>454.3</ele>
        <time>1970-01-01T00:00:00Z</time>
      </trkpt>
      <trkpt lat="39.345823" lon="-5.453936">
        <ele>454.3</ele>
        <time>1970-01-01T00:00:00Z</time>
      </trkpt>
      <trkpt lat="39.345823" lon="-5.453936">
        <ele>454.3</ele>
        <time>1970-01-01T00:00:00Z</time>
      </trkpt>
      <trkpt lat="39.345823" lon="-5.453936">
        <ele>454.3</ele>
        <time>1970-01-01T00:00:00Z</time>
      </trkpt>
      <trkpt lat="39.345697" lon="-5.453784">
        <ele>454.9</ele>
        <time>1970-01-01T00:00:00Z</time>
      </trkpt>
      <trkpt lat="39.345697" lon="-5.453784">
        <ele>454.9</ele>
        <time>1970-01-01T00:00:00Z</time>
      </trkpt>
      <trkpt lat="39.345697" lon="-5.453784">
        <ele>454.9</ele>
        <time>1970-01-01T00:00:00Z</time>
      </trkpt>
      <trkpt lat="39.345697" lon="-5.453784">
        <ele>454.9</ele>
        <time>1970-01-01T00:00:00Z</time>
      </trkpt>
      <trkpt lat="39.345658" lon="-5.453739">
        <ele>454.8</ele>
        <time>1970-01-01T00:00:00Z</time>
      </trkpt>
      <trkpt lat="39.345658" lon="-5.453739">
        <ele>454.8</ele>
        <time>1970-01-01T00:00:00Z</time>
      </trkpt>
      <trkpt lat="39.345658" lon="-5.453739">
        <ele>454.8</ele>
        <time>1970-01-01T00:00:00Z</time>
      </trkpt>
      <trkpt lat="39.345658" lon="-5.453739">
        <ele>454.8</ele>
        <time>1970-01-01T00:00:00Z</time>
      </trkpt>
      <trkpt lat="39.345586" lon="-5.453720">
        <ele>454.6</ele>
        <time>1970-01-01T00:00:00Z</time>
      </trkpt>
      <trkpt lat="39.345586" lon="-5.453720">
        <ele>454.6</ele>
        <time>1970-01-01T00:00:00Z</time>
      </trkpt>
      <trkpt lat="39.345586" lon="-5.453720">
        <ele>454.6</ele>
        <time>1970-01-01T00:00:00Z</time>
      </trkpt>
      <trkpt lat="39.345586" lon="-5.453720">
        <ele>454.6</ele>
        <time>1970-01-01T00:00:00Z</time>
      </trkpt>
      <trkpt lat="39.345391" lon="-5.453700">
        <ele>454.3</ele>
        <time>1970-01-01T00:00:00Z</time>
      </trkpt>
      <trkpt lat="39.345391" lon="-5.453700">
        <ele>454.3</ele>
        <time>1970-01-01T00:00:00Z</time>
      </trkpt>
      <trkpt lat="39.345391" lon="-5.453700">
        <ele>454.3</ele>
        <time>1970-01-01T00:00:00Z</time>
      </trkpt>
      <trkpt lat="39.345391" lon="-5.453700">
        <ele>454.3</ele>
        <time>1970-01-01T00:00:00Z</time>
      </trkpt>
      <trkpt lat="39.345064" lon="-5.453692">
        <ele>455.2</ele>
        <time>1970-01-01T00:00:00Z</time>
      </trkpt>
      <trkpt lat="39.345064" lon="-5.453692">
        <ele>455.2</ele>
        <time>1970-01-01T00:00:00Z</time>
      </trkpt>
      <trkpt lat="39.345064" lon="-5.453692">
        <ele>455.2</ele>
        <time>1970-01-01T00:00:00Z</time>
      </trkpt>
      <trkpt lat="39.345064" lon="-5.453692">
        <ele>455.2</ele>
        <time>1970-01-01T00:00:00Z</time>
      </trkpt>
      <trkpt lat="39.344913" lon="-5.453697">
        <ele>455.4</ele>
        <time>1970-01-01T00:00:00Z</time>
      </trkpt>
      <trkpt lat="39.344913" lon="-5.453697">
        <ele>455.4</ele>
        <time>1970-01-01T00:00:00Z</time>
      </trkpt>
      <trkpt lat="39.344913" lon="-5.453697">
        <ele>455.4</ele>
        <time>1970-01-01T00:00:00Z</time>
      </trkpt>
      <trkpt lat="39.344913" lon="-5.453697">
        <ele>455.4</ele>
        <time>1970-01-01T00:00:00Z</time>
      </trkpt>
      <trkpt lat="39.344842" lon="-5.453680">
        <ele>455.4</ele>
        <time>1970-01-01T00:00:00Z</time>
      </trkpt>
      <trkpt lat="39.344842" lon="-5.453680">
        <ele>455.4</ele>
        <time>1970-01-01T00:00:00Z</time>
      </trkpt>
      <trkpt lat="39.344842" lon="-5.453680">
        <ele>455.4</ele>
        <time>1970-01-01T00:00:00Z</time>
      </trkpt>
      <trkpt lat="39.344842" lon="-5.453680">
        <ele>455.4</ele>
        <time>1970-01-01T00:00:00Z</time>
      </trkpt>
      <trkpt lat="39.344824" lon="-5.453645">
        <ele>455.6</ele>
        <time>1970-01-01T00:00:00Z</time>
      </trkpt>
      <trkpt lat="39.344824" lon="-5.453645">
        <ele>455.6</ele>
        <time>1970-01-01T00:00:00Z</time>
      </trkpt>
      <trkpt lat="39.344824" lon="-5.453645">
        <ele>455.6</ele>
        <time>1970-01-01T00:00:00Z</time>
      </trkpt>
      <trkpt lat="39.344824" lon="-5.453645">
        <ele>455.6</ele>
        <time>1970-01-01T00:00:00Z</time>
      </trkpt>
      <trkpt lat="39.344787" lon="-5.453483">
        <ele>456.0</ele>
        <time>1970-01-01T00:00:00Z</time>
      </trkpt>
      <trkpt lat="39.344787" lon="-5.453483">
        <ele>456.0</ele>
        <time>1970-01-01T00:00:00Z</time>
      </trkpt>
      <trkpt lat="39.344787" lon="-5.453483">
        <ele>456.0</ele>
        <time>1970-01-01T00:00:00Z</time>
      </trkpt>
      <trkpt lat="39.344787" lon="-5.453483">
        <ele>456.0</ele>
        <time>1970-01-01T00:00:00Z</time>
      </trkpt>
      <trkpt lat="39.344750" lon="-5.453290">
        <ele>456.0</ele>
        <time>1970-01-01T00:00:00Z</time>
      </trkpt>
      <trkpt lat="39.344750" lon="-5.453290">
        <ele>456.0</ele>
        <time>1970-01-01T00:00:00Z</time>
      </trkpt>
      <trkpt lat="39.344750" lon="-5.453290">
        <ele>456.0</ele>
        <time>1970-01-01T00:00:00Z</time>
      </trkpt>
      <trkpt lat="39.344750" lon="-5.453290">
        <ele>456.0</ele>
        <time>1970-01-01T00:00:00Z</time>
      </trkpt>
      <trkpt lat="39.344706" lon="-5.453019">
        <ele>456.6</ele>
        <time>1970-01-01T00:00:00Z</time>
      </trkpt>
      <trkpt lat="39.344706" lon="-5.453019">
        <ele>456.6</ele>
        <time>1970-01-01T00:00:00Z</time>
      </trkpt>
      <trkpt lat="39.344706" lon="-5.453019">
        <ele>456.6</ele>
        <time>1970-01-01T00:00:00Z</time>
      </trkpt>
      <trkpt lat="39.344706" lon="-5.453019">
        <ele>456.6</ele>
        <time>1970-01-01T00:00:00Z</time>
      </trkpt>
      <trkpt lat="39.344668" lon="-5.452811">
        <ele>457.0</ele>
        <time>1970-01-01T00:00:00Z</time>
      </trkpt>
      <trkpt lat="39.344668" lon="-5.452811">
        <ele>457.0</ele>
        <time>1970-01-01T00:00:00Z</time>
      </trkpt>
      <trkpt lat="39.344668" lon="-5.452811">
        <ele>457.0</ele>
        <time>1970-01-01T00:00:00Z</time>
      </trkpt>
      <trkpt lat="39.344668" lon="-5.452811">
        <ele>457.0</ele>
        <time>1970-01-01T00:00:00Z</time>
      </trkpt>
      <trkpt lat="39.344658" lon="-5.452689">
        <ele>457.0</ele>
        <time>1970-01-01T00:00:00Z</time>
      </trkpt>
      <trkpt lat="39.344658" lon="-5.452689">
        <ele>457.0</ele>
        <time>1970-01-01T00:00:00Z</time>
      </trkpt>
      <trkpt lat="39.344658" lon="-5.452689">
        <ele>457.0</ele>
        <time>1970-01-01T00:00:00Z</time>
      </trkpt>
      <trkpt lat="39.344658" lon="-5.452689">
        <ele>457.0</ele>
        <time>1970-01-01T00:00:00Z</time>
      </trkpt>
      <trkpt lat="39.344642" lon="-5.452578">
        <ele>457.2</ele>
        <time>1970-01-01T00:00:00Z</time>
      </trkpt>
      <trkpt lat="39.344642" lon="-5.452578">
        <ele>457.2</ele>
        <time>1970-01-01T00:00:00Z</time>
      </trkpt>
      <trkpt lat="39.344642" lon="-5.452578">
        <ele>457.2</ele>
        <time>1970-01-01T00:00:00Z</time>
      </trkpt>
      <trkpt lat="39.344642" lon="-5.452578">
        <ele>457.2</ele>
        <time>1970-01-01T00:00:00Z</time>
      </trkpt>
      <trkpt lat="39.344652" lon="-5.452542">
        <ele>457.3</ele>
        <time>1970-01-01T00:00:00Z</time>
      </trkpt>
      <trkpt lat="39.344652" lon="-5.452542">
        <ele>457.3</ele>
        <time>1970-01-01T00:00:00Z</time>
      </trkpt>
      <trkpt lat="39.344652" lon="-5.452542">
        <ele>457.3</ele>
        <time>1970-01-01T00:00:00Z</time>
      </trkpt>
      <trkpt lat="39.344652" lon="-5.452542">
        <ele>457.3</ele>
        <time>1970-01-01T00:00:00Z</time>
      </trkpt>
      <trkpt lat="39.344680" lon="-5.452543">
        <ele>457.3</ele>
        <time>1970-01-01T00:00:00Z</time>
      </trkpt>
      <trkpt lat="39.344680" lon="-5.452543">
        <ele>457.3</ele>
        <time>1970-01-01T00:00:00Z</time>
      </trkpt>
      <trkpt lat="39.344680" lon="-5.452543">
        <ele>457.3</ele>
        <time>1970-01-01T00:00:00Z</time>
      </trkpt>
      <trkpt lat="39.344680" lon="-5.452543">
        <ele>457.3</ele>
        <time>1970-01-01T00:00:00Z</time>
      </trkpt>
      <trkpt lat="39.344776" lon="-5.452587">
        <ele>457.2</ele>
        <time>1970-01-01T00:00:00Z</time>
      </trkpt>
      <trkpt lat="39.344776" lon="-5.452587">
        <ele>457.2</ele>
        <time>1970-01-01T00:00:00Z</time>
      </trkpt>
      <trkpt lat="39.344776" lon="-5.452587">
        <ele>457.2</ele>
        <time>1970-01-01T00:00:00Z</time>
      </trkpt>
      <trkpt lat="39.344776" lon="-5.452587">
        <ele>457.2</ele>
        <time>1970-01-01T00:00:00Z</time>
      </trkpt>
      <trkpt lat="39.344874" lon="-5.452623">
        <ele>457.0</ele>
        <time>1970-01-01T00:00:00Z</time>
      </trkpt>
      <trkpt lat="39.344874" lon="-5.452623">
        <ele>457.0</ele>
        <time>1970-01-01T00:00:00Z</time>
      </trkpt>
      <trkpt lat="39.344874" lon="-5.452623">
        <ele>457.0</ele>
        <time>1970-01-01T00:00:00Z</time>
      </trkpt>
      <trkpt lat="39.344874" lon="-5.452623">
        <ele>457.0</ele>
        <time>1970-01-01T00:00:00Z</time>
      </trkpt>
      <trkpt lat="39.344931" lon="-5.452631">
        <ele>457.0</ele>
        <time>1970-01-01T00:00:00Z</time>
      </trkpt>
      <trkpt lat="39.344931" lon="-5.452631">
        <ele>457.0</ele>
        <time>1970-01-01T00:00:00Z</time>
      </trkpt>
      <trkpt lat="39.344931" lon="-5.452631">
        <ele>457.0</ele>
        <time>1970-01-01T00:00:00Z</time>
      </trkpt>
      <trkpt lat="39.344931" lon="-5.452631">
        <ele>457.0</ele>
        <time>1970-01-01T00:00:00Z</time>
      </trkpt>
      <trkpt lat="39.344986" lon="-5.452633">
        <ele>457.0</ele>
        <time>1970-01-01T00:00:00Z</time>
      </trkpt>
      <trkpt lat="39.344986" lon="-5.452633">
        <ele>457.0</ele>
        <time>1970-01-01T00:00:00Z</time>
      </trkpt>
      <trkpt lat="39.344986" lon="-5.452633">
        <ele>457.0</ele>
        <time>1970-01-01T00:00:00Z</time>
      </trkpt>
      <trkpt lat="39.344986" lon="-5.452633">
        <ele>457.0</ele>
        <time>1970-01-01T00:00:00Z</time>
      </trkpt>
      <trkpt lat="39.345030" lon="-5.452615">
        <ele>457.0</ele>
        <time>1970-01-01T00:00:00Z</time>
      </trkpt>
      <trkpt lat="39.345030" lon="-5.452615">
        <ele>457.0</ele>
        <time>1970-01-01T00:00:00Z</time>
      </trkpt>
      <trkpt lat="39.345030" lon="-5.452615">
        <ele>457.0</ele>
        <time>1970-01-01T00:00:00Z</time>
      </trkpt>
      <trkpt lat="39.345030" lon="-5.452615">
        <ele>457.0</ele>
        <time>1970-01-01T00:00:00Z</time>
      </trkpt>
      <trkpt lat="39.345108" lon="-5.452561">
        <ele>457.3</ele>
        <time>1970-01-01T00:00:00Z</time>
      </trkpt>
      <trkpt lat="39.345108" lon="-5.452561">
        <ele>457.3</ele>
        <time>1970-01-01T00:00:00Z</time>
      </trkpt>
      <trkpt lat="39.345108" lon="-5.452561">
        <ele>457.3</ele>
        <time>1970-01-01T00:00:00Z</time>
      </trkpt>
      <trkpt lat="39.345108" lon="-5.452561">
        <ele>457.3</ele>
        <time>1970-01-01T00:00:00Z</time>
      </trkpt>
      <trkpt lat="39.345186" lon="-5.452467">
        <ele>457.7</ele>
        <time>1970-01-01T00:00:00Z</time>
      </trkpt>
      <trkpt lat="39.345186" lon="-5.452467">
        <ele>457.7</ele>
        <time>1970-01-01T00:00:00Z</time>
      </trkpt>
      <trkpt lat="39.345186" lon="-5.452467">
        <ele>457.7</ele>
        <time>1970-01-01T00:00:00Z</time>
      </trkpt>
      <trkpt lat="39.345186" lon="-5.452467">
        <ele>457.7</ele>
        <time>1970-01-01T00:00:00Z</time>
      </trkpt>
      <trkpt lat="39.345254" lon="-5.452374">
        <ele>458.0</ele>
        <time>1970-01-01T00:00:00Z</time>
      </trkpt>
      <trkpt lat="39.345254" lon="-5.452374">
        <ele>458.0</ele>
        <time>1970-01-01T00:00:00Z</time>
      </trkpt>
      <trkpt lat="39.345254" lon="-5.452374">
        <ele>458.0</ele>
        <time>1970-01-01T00:00:00Z</time>
      </trkpt>
      <trkpt lat="39.345254" lon="-5.452374">
        <ele>458.0</ele>
        <time>1970-01-01T00:00:00Z</time>
      </trkpt>
      <trkpt lat="39.345328" lon="-5.452226">
        <ele>457.9</ele>
        <time>1970-01-01T00:00:00Z</time>
      </trkpt>
      <trkpt lat="39.345328" lon="-5.452226">
        <ele>457.9</ele>
        <time>1970-01-01T00:00:00Z</time>
      </trkpt>
      <trkpt lat="39.345328" lon="-5.452226">
        <ele>457.9</ele>
        <time>1970-01-01T00:00:00Z</time>
      </trkpt>
      <trkpt lat="39.345328" lon="-5.452226">
        <ele>457.9</ele>
        <time>1970-01-01T00:00:00Z</time>
      </trkpt>
      <trkpt lat="39.345390" lon="-5.452148">
        <ele>458.1</ele>
        <time>1970-01-01T00:00:00Z</time>
      </trkpt>
      <trkpt lat="39.345390" lon="-5.452148">
        <ele>458.1</ele>
        <time>1970-01-01T00:00:00Z</time>
      </trkpt>
      <trkpt lat="39.345390" lon="-5.452148">
        <ele>458.1</ele>
        <time>1970-01-01T00:00:00Z</time>
      </trkpt>
      <trkpt lat="39.345390" lon="-5.452148">
        <ele>458.1</ele>
        <time>1970-01-01T00:00:00Z</time>
      </trkpt>
      <trkpt lat="39.345437" lon="-5.452082">
        <ele>458.4</ele>
        <time>1970-01-01T00:00:00Z</time>
      </trkpt>
      <trkpt lat="39.345437" lon="-5.452082">
        <ele>458.4</ele>
        <time>1970-01-01T00:00:00Z</time>
      </trkpt>
      <trkpt lat="39.345437" lon="-5.452082">
        <ele>458.4</ele>
        <time>1970-01-01T00:00:00Z</time>
      </trkpt>
      <trkpt lat="39.345437" lon="-5.452082">
        <ele>458.4</ele>
        <time>1970-01-01T00:00:00Z</time>
      </trkpt>
      <trkpt lat="39.345492" lon="-5.452010">
        <ele>458.6</ele>
        <time>1970-01-01T00:00:00Z</time>
      </trkpt>
      <trkpt lat="39.345492" lon="-5.452010">
        <ele>458.6</ele>
        <time>1970-01-01T00:00:00Z</time>
      </trkpt>
      <trkpt lat="39.345492" lon="-5.452010">
        <ele>458.6</ele>
        <time>1970-01-01T00:00:00Z</time>
      </trkpt>
      <trkpt lat="39.345492" lon="-5.452010">
        <ele>458.6</ele>
        <time>1970-01-01T00:00:00Z</time>
      </trkpt>
      <trkpt lat="39.345544" lon="-5.451936">
        <ele>458.7</ele>
        <time>1970-01-01T00:00:00Z</time>
      </trkpt>
      <trkpt lat="39.345544" lon="-5.451936">
        <ele>458.7</ele>
        <time>1970-01-01T00:00:00Z</time>
      </trkpt>
      <trkpt lat="39.345544" lon="-5.451936">
        <ele>458.7</ele>
        <time>1970-01-01T00:00:00Z</time>
      </trkpt>
      <trkpt lat="39.345544" lon="-5.451936">
        <ele>458.7</ele>
        <time>1970-01-01T00:00:00Z</time>
      </trkpt>
      <trkpt lat="39.345634" lon="-5.451816">
        <ele>459.1</ele>
        <time>1970-01-01T00:00:00Z</time>
      </trkpt>
      <trkpt lat="39.345634" lon="-5.451816">
        <ele>459.1</ele>
        <time>1970-01-01T00:00:00Z</time>
      </trkpt>
      <trkpt lat="39.345634" lon="-5.451816">
        <ele>459.1</ele>
        <time>1970-01-01T00:00:00Z</time>
      </trkpt>
      <trkpt lat="39.345634" lon="-5.451816">
        <ele>459.1</ele>
        <time>1970-01-01T00:00:00Z</time>
      </trkpt>
      <trkpt lat="39.345738" lon="-5.451672">
        <ele>459.1</ele>
        <time>1970-01-01T00:00:00Z</time>
      </trkpt>
      <trkpt lat="39.345738" lon="-5.451672">
        <ele>459.1</ele>
        <time>1970-01-01T00:00:00Z</time>
      </trkpt>
      <trkpt lat="39.345738" lon="-5.451672">
        <ele>459.1</ele>
        <time>1970-01-01T00:00:00Z</time>
      </trkpt>
      <trkpt lat="39.345738" lon="-5.451672">
        <ele>459.1</ele>
        <time>1970-01-01T00:00:00Z</time>
      </trkpt>
      <trkpt lat="39.345803" lon="-5.451566">
        <ele>459.3</ele>
        <time>1970-01-01T00:00:00Z</time>
      </trkpt>
      <trkpt lat="39.345803" lon="-5.451566">
        <ele>459.3</ele>
        <time>1970-01-01T00:00:00Z</time>
      </trkpt>
      <trkpt lat="39.345803" lon="-5.451566">
        <ele>459.3</ele>
        <time>1970-01-01T00:00:00Z</time>
      </trkpt>
      <trkpt lat="39.345803" lon="-5.451566">
        <ele>459.3</ele>
        <time>1970-01-01T00:00:00Z</time>
      </trkpt>
      <trkpt lat="39.345879" lon="-5.451469">
        <ele>459.0</ele>
        <time>1970-01-01T00:00:00Z</time>
      </trkpt>
      <trkpt lat="39.345879" lon="-5.451469">
        <ele>459.0</ele>
        <time>1970-01-01T00:00:00Z</time>
      </trkpt>
      <trkpt lat="39.345879" lon="-5.451469">
        <ele>459.0</ele>
        <time>1970-01-01T00:00:00Z</time>
      </trkpt>
      <trkpt lat="39.345879" lon="-5.451469">
        <ele>459.0</ele>
        <time>1970-01-01T00:00:00Z</time>
      </trkpt>
      <trkpt lat="39.346054" lon="-5.451280">
        <ele>458.0</ele>
        <time>1970-01-01T00:00:00Z</time>
      </trkpt>
      <trkpt lat="39.346054" lon="-5.451280">
        <ele>458.0</ele>
        <time>1970-01-01T00:00:00Z</time>
      </trkpt>
      <trkpt lat="39.346054" lon="-5.451280">
        <ele>458.0</ele>
        <time>1970-01-01T00:00:00Z</time>
      </trkpt>
      <trkpt lat="39.346054" lon="-5.451280">
        <ele>458.0</ele>
        <time>1970-01-01T00:00:00Z</time>
      </trkpt>
      <trkpt lat="39.346211" lon="-5.451094">
        <ele>457.6</ele>
        <time>1970-01-01T00:00:00Z</time>
      </trkpt>
      <trkpt lat="39.346211" lon="-5.451094">
        <ele>457.6</ele>
        <time>1970-01-01T00:00:00Z</time>
      </trkpt>
      <trkpt lat="39.346211" lon="-5.451094">
        <ele>457.6</ele>
        <time>1970-01-01T00:00:00Z</time>
      </trkpt>
      <trkpt lat="39.346211" lon="-5.451094">
        <ele>457.6</ele>
        <time>1970-01-01T00:00:00Z</time>
      </trkpt>
      <trkpt lat="39.346431" lon="-5.450845">
        <ele>458.0</ele>
        <time>1970-01-01T00:00:00Z</time>
      </trkpt>
      <trkpt lat="39.346431" lon="-5.450845">
        <ele>458.0</ele>
        <time>1970-01-01T00:00:00Z</time>
      </trkpt>
      <trkpt lat="39.346431" lon="-5.450845">
        <ele>458.0</ele>
        <time>1970-01-01T00:00:00Z</time>
      </trkpt>
      <trkpt lat="39.346431" lon="-5.450845">
        <ele>458.0</ele>
        <time>1970-01-01T00:00:00Z</time>
      </trkpt>
      <trkpt lat="39.346594" lon="-5.450668">
        <ele>458.5</ele>
        <time>1970-01-01T00:00:00Z</time>
      </trkpt>
      <trkpt lat="39.346594" lon="-5.450668">
        <ele>458.5</ele>
        <time>1970-01-01T00:00:00Z</time>
      </trkpt>
      <trkpt lat="39.346594" lon="-5.450668">
        <ele>458.5</ele>
        <time>1970-01-01T00:00:00Z</time>
      </trkpt>
      <trkpt lat="39.346594" lon="-5.450668">
        <ele>458.5</ele>
        <time>1970-01-01T00:00:00Z</time>
      </trkpt>
      <trkpt lat="39.346808" lon="-5.450439">
        <ele>459.4</ele>
        <time>1970-01-01T00:00:00Z</time>
      </trkpt>
      <trkpt lat="39.346808" lon="-5.450439">
        <ele>459.4</ele>
        <time>1970-01-01T00:00:00Z</time>
      </trkpt>
      <trkpt lat="39.346808" lon="-5.450439">
        <ele>459.4</ele>
        <time>1970-01-01T00:00:00Z</time>
      </trkpt>
      <trkpt lat="39.346808" lon="-5.450439">
        <ele>459.4</ele>
        <time>1970-01-01T00:00:00Z</time>
      </trkpt>
      <trkpt lat="39.346881" lon="-5.450339">
        <ele>459.9</ele>
        <time>1970-01-01T00:00:00Z</time>
      </trkpt>
      <trkpt lat="39.346881" lon="-5.450339">
        <ele>459.9</ele>
        <time>1970-01-01T00:00:00Z</time>
      </trkpt>
      <trkpt lat="39.346881" lon="-5.450339">
        <ele>459.9</ele>
        <time>1970-01-01T00:00:00Z</time>
      </trkpt>
      <trkpt lat="39.346881" lon="-5.450339">
        <ele>459.9</ele>
        <time>1970-01-01T00:00:00Z</time>
      </trkpt>
      <trkpt lat="39.346978" lon="-5.450131">
        <ele>460.0</ele>
        <time>1970-01-01T00:00:00Z</time>
      </trkpt>
      <trkpt lat="39.346978" lon="-5.450131">
        <ele>460.0</ele>
        <time>1970-01-01T00:00:00Z</time>
      </trkpt>
      <trkpt lat="39.346978" lon="-5.450131">
        <ele>460.0</ele>
        <time>1970-01-01T00:00:00Z</time>
      </trkpt>
      <trkpt lat="39.346978" lon="-5.450131">
        <ele>460.0</ele>
        <time>1970-01-01T00:00:00Z</time>
      </trkpt>
      <trkpt lat="39.347087" lon="-5.449872">
        <ele>460.1</ele>
        <time>1970-01-01T00:00:00Z</time>
      </trkpt>
      <trkpt lat="39.347087" lon="-5.449872">
        <ele>460.1</ele>
        <time>1970-01-01T00:00:00Z</time>
      </trkpt>
      <trkpt lat="39.347087" lon="-5.449872">
        <ele>460.1</ele>
        <time>1970-01-01T00:00:00Z</time>
      </trkpt>
      <trkpt lat="39.347087" lon="-5.449872">
        <ele>460.1</ele>
        <time>1970-01-01T00:00:00Z</time>
      </trkpt>
      <trkpt lat="39.347204" lon="-5.449624">
        <ele>461.0</ele>
        <time>1970-01-01T00:00:00Z</time>
      </trkpt>
      <trkpt lat="39.347204" lon="-5.449624">
        <ele>461.0</ele>
        <time>1970-01-01T00:00:00Z</time>
      </trkpt>
      <trkpt lat="39.347204" lon="-5.449624">
        <ele>461.0</ele>
        <time>1970-01-01T00:00:00Z</time>
      </trkpt>
      <trkpt lat="39.347204" lon="-5.449624">
        <ele>461.0</ele>
        <time>1970-01-01T00:00:00Z</time>
      </trkpt>
      <trkpt lat="39.347270" lon="-5.449461">
        <ele>461.2</ele>
        <time>1970-01-01T00:00:00Z</time>
      </trkpt>
      <trkpt lat="39.347270" lon="-5.449461">
        <ele>461.2</ele>
        <time>1970-01-01T00:00:00Z</time>
      </trkpt>
      <trkpt lat="39.347270" lon="-5.449461">
        <ele>461.2</ele>
        <time>1970-01-01T00:00:00Z</time>
      </trkpt>
      <trkpt lat="39.347270" lon="-5.449461">
        <ele>461.2</ele>
        <time>1970-01-01T00:00:00Z</time>
      </trkpt>
      <trkpt lat="39.347309" lon="-5.449261">
        <ele>461.6</ele>
        <time>1970-01-01T00:00:00Z</time>
      </trkpt>
      <trkpt lat="39.347309" lon="-5.449261">
        <ele>461.6</ele>
        <time>1970-01-01T00:00:00Z</time>
      </trkpt>
      <trkpt lat="39.347309" lon="-5.449261">
        <ele>461.6</ele>
        <time>1970-01-01T00:00:00Z</time>
      </trkpt>
      <trkpt lat="39.347309" lon="-5.449261">
        <ele>461.6</ele>
        <time>1970-01-01T00:00:00Z</time>
      </trkpt>
      <trkpt lat="39.347317" lon="-5.449150">
        <ele>462.0</ele>
        <time>1970-01-01T00:00:00Z</time>
      </trkpt>
      <trkpt lat="39.347317" lon="-5.449150">
        <ele>462.0</ele>
        <time>1970-01-01T00:00:00Z</time>
      </trkpt>
      <trkpt lat="39.347317" lon="-5.449150">
        <ele>462.0</ele>
        <time>1970-01-01T00:00:00Z</time>
      </trkpt>
      <trkpt lat="39.347317" lon="-5.449150">
        <ele>462.0</ele>
        <time>1970-01-01T00:00:00Z</time>
      </trkpt>
      <trkpt lat="39.347334" lon="-5.449031">
        <ele>462.0</ele>
        <time>1970-01-01T00:00:00Z</time>
      </trkpt>
      <trkpt lat="39.347334" lon="-5.449031">
        <ele>462.0</ele>
        <time>1970-01-01T00:00:00Z</time>
      </trkpt>
      <trkpt lat="39.347334" lon="-5.449031">
        <ele>462.0</ele>
        <time>1970-01-01T00:00:00Z</time>
      </trkpt>
      <trkpt lat="39.347334" lon="-5.449031">
        <ele>462.0</ele>
        <time>1970-01-01T00:00:00Z</time>
      </trkpt>
      <trkpt lat="39.347385" lon="-5.448861">
        <ele>462.0</ele>
        <time>1970-01-01T00:00:00Z</time>
      </trkpt>
      <trkpt lat="39.347385" lon="-5.448861">
        <ele>462.0</ele>
        <time>1970-01-01T00:00:00Z</time>
      </trkpt>
      <trkpt lat="39.347385" lon="-5.448861">
        <ele>462.0</ele>
        <time>1970-01-01T00:00:00Z</time>
      </trkpt>
      <trkpt lat="39.347385" lon="-5.448861">
        <ele>462.0</ele>
        <time>1970-01-01T00:00:00Z</time>
      </trkpt>
      <trkpt lat="39.347460" lon="-5.448754">
        <ele>462.0</ele>
        <time>1970-01-01T00:00:00Z</time>
      </trkpt>
      <trkpt lat="39.347460" lon="-5.448754">
        <ele>462.0</ele>
        <time>1970-01-01T00:00:00Z</time>
      </trkpt>
      <trkpt lat="39.347460" lon="-5.448754">
        <ele>462.0</ele>
        <time>1970-01-01T00:00:00Z</time>
      </trkpt>
      <trkpt lat="39.347460" lon="-5.448754">
        <ele>462.0</ele>
        <time>1970-01-01T00:00:00Z</time>
      </trkpt>
      <trkpt lat="39.347555" lon="-5.448667">
        <ele>462.0</ele>
        <time>1970-01-01T00:00:00Z</time>
      </trkpt>
      <trkpt lat="39.347555" lon="-5.448667">
        <ele>462.0</ele>
        <time>1970-01-01T00:00:00Z</time>
      </trkpt>
      <trkpt lat="39.347555" lon="-5.448667">
        <ele>462.0</ele>
        <time>1970-01-01T00:00:00Z</time>
      </trkpt>
      <trkpt lat="39.347555" lon="-5.448667">
        <ele>462.0</ele>
        <time>1970-01-01T00:00:00Z</time>
      </trkpt>
      <trkpt lat="39.347736" lon="-5.448522">
        <ele>462.0</ele>
        <time>1970-01-01T00:00:00Z</time>
      </trkpt>
      <trkpt lat="39.347736" lon="-5.448522">
        <ele>462.0</ele>
        <time>1970-01-01T00:00:00Z</time>
      </trkpt>
      <trkpt lat="39.347736" lon="-5.448522">
        <ele>462.0</ele>
        <time>1970-01-01T00:00:00Z</time>
      </trkpt>
      <trkpt lat="39.347736" lon="-5.448522">
        <ele>462.0</ele>
        <time>1970-01-01T00:00:00Z</time>
      </trkpt>
      <trkpt lat="39.347777" lon="-5.448468">
        <ele>462.0</ele>
        <time>1970-01-01T00:00:00Z</time>
      </trkpt>
      <trkpt lat="39.347777" lon="-5.448468">
        <ele>462.0</ele>
        <time>1970-01-01T00:00:00Z</time>
      </trkpt>
      <trkpt lat="39.347777" lon="-5.448468">
        <ele>462.0</ele>
        <time>1970-01-01T00:00:00Z</time>
      </trkpt>
      <trkpt lat="39.347777" lon="-5.448468">
        <ele>462.0</ele>
        <time>1970-01-01T00:00:00Z</time>
      </trkpt>
      <trkpt lat="39.347827" lon="-5.448400">
        <ele>462.3</ele>
        <time>1970-01-01T00:00:00Z</time>
      </trkpt>
      <trkpt lat="39.347827" lon="-5.448400">
        <ele>462.3</ele>
        <time>1970-01-01T00:00:00Z</time>
      </trkpt>
      <trkpt lat="39.347827" lon="-5.448400">
        <ele>462.3</ele>
        <time>1970-01-01T00:00:00Z</time>
      </trkpt>
      <trkpt lat="39.347827" lon="-5.448400">
        <ele>462.3</ele>
        <time>1970-01-01T00:00:00Z</time>
      </trkpt>
      <trkpt lat="39.347885" lon="-5.448276">
        <ele>462.9</ele>
        <time>1970-01-01T00:00:00Z</time>
      </trkpt>
      <trkpt lat="39.347885" lon="-5.448276">
        <ele>462.9</ele>
        <time>1970-01-01T00:00:00Z</time>
      </trkpt>
      <trkpt lat="39.347885" lon="-5.448276">
        <ele>462.9</ele>
        <time>1970-01-01T00:00:00Z</time>
      </trkpt>
      <trkpt lat="39.347885" lon="-5.448276">
        <ele>462.9</ele>
        <time>1970-01-01T00:00:00Z</time>
      </trkpt>
      <trkpt lat="39.347957" lon="-5.448084">
        <ele>463.6</ele>
        <time>1970-01-01T00:00:00Z</time>
      </trkpt>
      <trkpt lat="39.347957" lon="-5.448084">
        <ele>463.6</ele>
        <time>1970-01-01T00:00:00Z</time>
      </trkpt>
      <trkpt lat="39.347957" lon="-5.448084">
        <ele>463.6</ele>
        <time>1970-01-01T00:00:00Z</time>
      </trkpt>
      <trkpt lat="39.347957" lon="-5.448084">
        <ele>463.6</ele>
        <time>1970-01-01T00:00:00Z</time>
      </trkpt>
      <trkpt lat="39.348014" lon="-5.447965">
        <ele>464.0</ele>
        <time>1970-01-01T00:00:00Z</time>
      </trkpt>
      <trkpt lat="39.348014" lon="-5.447965">
        <ele>464.0</ele>
        <time>1970-01-01T00:00:00Z</time>
      </trkpt>
      <trkpt lat="39.348014" lon="-5.447965">
        <ele>464.0</ele>
        <time>1970-01-01T00:00:00Z</time>
      </trkpt>
      <trkpt lat="39.348014" lon="-5.447965">
        <ele>464.0</ele>
        <time>1970-01-01T00:00:00Z</time>
      </trkpt>
      <trkpt lat="39.348083" lon="-5.447839">
        <ele>464.0</ele>
        <time>1970-01-01T00:00:00Z</time>
      </trkpt>
      <trkpt lat="39.348083" lon="-5.447839">
        <ele>464.0</ele>
        <time>1970-01-01T00:00:00Z</time>
      </trkpt>
      <trkpt lat="39.348083" lon="-5.447839">
        <ele>464.0</ele>
        <time>1970-01-01T00:00:00Z</time>
      </trkpt>
      <trkpt lat="39.348083" lon="-5.447839">
        <ele>464.0</ele>
        <time>1970-01-01T00:00:00Z</time>
      </trkpt>
      <trkpt lat="39.348206" lon="-5.447612">
        <ele>465.3</ele>
        <time>1970-01-01T00:00:00Z</time>
      </trkpt>
      <trkpt lat="39.348206" lon="-5.447612">
        <ele>465.3</ele>
        <time>1970-01-01T00:00:00Z</time>
      </trkpt>
      <trkpt lat="39.348206" lon="-5.447612">
        <ele>465.3</ele>
        <time>1970-01-01T00:00:00Z</time>
      </trkpt>
      <trkpt lat="39.348206" lon="-5.447612">
        <ele>465.3</ele>
        <time>1970-01-01T00:00:00Z</time>
      </trkpt>
      <trkpt lat="39.348526" lon="-5.447066">
        <ele>470.0</ele>
        <time>1970-01-01T00:00:00Z</time>
      </trkpt>
      <trkpt lat="39.348526" lon="-5.447066">
        <ele>470.0</ele>
        <time>1970-01-01T00:00:00Z</time>
      </trkpt>
      <trkpt lat="39.348526" lon="-5.447066">
        <ele>470.0</ele>
        <time>1970-01-01T00:00:00Z</time>
      </trkpt>
      <trkpt lat="39.348526" lon="-5.447066">
        <ele>470.0</ele>
        <time>1970-01-01T00:00:00Z</time>
      </trkpt>
      <trkpt lat="39.348940" lon="-5.446336">
        <ele>475.3</ele>
        <time>1970-01-01T00:00:00Z</time>
      </trkpt>
      <trkpt lat="39.348940" lon="-5.446336">
        <ele>475.3</ele>
        <time>1970-01-01T00:00:00Z</time>
      </trkpt>
      <trkpt lat="39.348940" lon="-5.446336">
        <ele>475.3</ele>
        <time>1970-01-01T00:00:00Z</time>
      </trkpt>
      <trkpt lat="39.348940" lon="-5.446336">
        <ele>475.3</ele>
        <time>1970-01-01T00:00:00Z</time>
      </trkpt>
      <trkpt lat="39.349116" lon="-5.446013">
        <ele>478.1</ele>
        <time>1970-01-01T00:00:00Z</time>
      </trkpt>
      <trkpt lat="39.349116" lon="-5.446013">
        <ele>478.1</ele>
        <time>1970-01-01T00:00:00Z</time>
      </trkpt>
      <trkpt lat="39.349116" lon="-5.446013">
        <ele>478.1</ele>
        <time>1970-01-01T00:00:00Z</time>
      </trkpt>
      <trkpt lat="39.349116" lon="-5.446013">
        <ele>478.1</ele>
        <time>1970-01-01T00:00:00Z</time>
      </trkpt>
      <trkpt lat="39.349164" lon="-5.445915">
        <ele>479.0</ele>
        <time>1970-01-01T00:00:00Z</time>
      </trkpt>
      <trkpt lat="39.349164" lon="-5.445915">
        <ele>479.0</ele>
        <time>1970-01-01T00:00:00Z</time>
      </trkpt>
      <trkpt lat="39.349164" lon="-5.445915">
        <ele>479.0</ele>
        <time>1970-01-01T00:00:00Z</time>
      </trkpt>
      <trkpt lat="39.349164" lon="-5.445915">
        <ele>479.0</ele>
        <time>1970-01-01T00:00:00Z</time>
      </trkpt>
      <trkpt lat="39.349192" lon="-5.445855">
        <ele>479.5</ele>
        <time>1970-01-01T00:00:00Z</time>
      </trkpt>
      <trkpt lat="39.349192" lon="-5.445855">
        <ele>479.5</ele>
        <time>1970-01-01T00:00:00Z</time>
      </trkpt>
      <trkpt lat="39.349192" lon="-5.445855">
        <ele>479.5</ele>
        <time>1970-01-01T00:00:00Z</time>
      </trkpt>
      <trkpt lat="39.349192" lon="-5.445855">
        <ele>479.5</ele>
        <time>1970-01-01T00:00:00Z</time>
      </trkpt>
      <trkpt lat="39.349281" lon="-5.445739">
        <ele>480.8</ele>
        <time>1970-01-01T00:00:00Z</time>
      </trkpt>
      <trkpt lat="39.349281" lon="-5.445739">
        <ele>480.8</ele>
        <time>1970-01-01T00:00:00Z</time>
      </trkpt>
      <trkpt lat="39.349281" lon="-5.445739">
        <ele>480.8</ele>
        <time>1970-01-01T00:00:00Z</time>
      </trkpt>
      <trkpt lat="39.349281" lon="-5.445739">
        <ele>480.8</ele>
        <time>1970-01-01T00:00:00Z</time>
      </trkpt>
      <trkpt lat="39.349842" lon="-5.445019">
        <ele>487.6</ele>
        <time>1970-01-01T00:00:00Z</time>
      </trkpt>
      <trkpt lat="39.349842" lon="-5.445019">
        <ele>487.6</ele>
        <time>1970-01-01T00:00:00Z</time>
      </trkpt>
      <trkpt lat="39.349842" lon="-5.445019">
        <ele>487.6</ele>
        <time>1970-01-01T00:00:00Z</time>
      </trkpt>
      <trkpt lat="39.349842" lon="-5.445019">
        <ele>487.6</ele>
        <time>1970-01-01T00:00:00Z</time>
      </trkpt>
      <trkpt lat="39.350027" lon="-5.444793">
        <ele>488.6</ele>
        <time>1970-01-01T00:00:00Z</time>
      </trkpt>
      <trkpt lat="39.350027" lon="-5.444793">
        <ele>488.6</ele>
        <time>1970-01-01T00:00:00Z</time>
      </trkpt>
      <trkpt lat="39.350027" lon="-5.444793">
        <ele>488.6</ele>
        <time>1970-01-01T00:00:00Z</time>
      </trkpt>
      <trkpt lat="39.350027" lon="-5.444793">
        <ele>488.6</ele>
        <time>1970-01-01T00:00:00Z</time>
      </trkpt>
      <trkpt lat="39.350206" lon="-5.444542">
        <ele>489.0</ele>
        <time>1970-01-01T00:00:00Z</time>
      </trkpt>
      <trkpt lat="39.350206" lon="-5.444542">
        <ele>489.0</ele>
        <time>1970-01-01T00:00:00Z</time>
      </trkpt>
      <trkpt lat="39.350206" lon="-5.444542">
        <ele>489.0</ele>
        <time>1970-01-01T00:00:00Z</time>
      </trkpt>
      <trkpt lat="39.350206" lon="-5.444542">
        <ele>489.0</ele>
        <time>1970-01-01T00:00:00Z</time>
      </trkpt>
      <trkpt lat="39.350228" lon="-5.444468">
        <ele>489.0</ele>
        <time>1970-01-01T00:00:00Z</time>
      </trkpt>
      <trkpt lat="39.350228" lon="-5.444468">
        <ele>489.0</ele>
        <time>1970-01-01T00:00:00Z</time>
      </trkpt>
      <trkpt lat="39.350228" lon="-5.444468">
        <ele>489.0</ele>
        <time>1970-01-01T00:00:00Z</time>
      </trkpt>
      <trkpt lat="39.350228" lon="-5.444468">
        <ele>489.0</ele>
        <time>1970-01-01T00:00:00Z</time>
      </trkpt>
      <trkpt lat="39.350241" lon="-5.444416">
        <ele>489.0</ele>
        <time>1970-01-01T00:00:00Z</time>
      </trkpt>
      <trkpt lat="39.350241" lon="-5.444416">
        <ele>489.0</ele>
        <time>1970-01-01T00:00:00Z</time>
      </trkpt>
      <trkpt lat="39.350241" lon="-5.444416">
        <ele>489.0</ele>
        <time>1970-01-01T00:00:00Z</time>
      </trkpt>
      <trkpt lat="39.350241" lon="-5.444416">
        <ele>489.0</ele>
        <time>1970-01-01T00:00:00Z</time>
      </trkpt>
      <trkpt lat="39.350261" lon="-5.444178">
        <ele>488.5</ele>
        <time>1970-01-01T00:00:00Z</time>
      </trkpt>
      <trkpt lat="39.350261" lon="-5.444178">
        <ele>488.5</ele>
        <time>1970-01-01T00:00:00Z</time>
      </trkpt>
      <trkpt lat="39.350261" lon="-5.444178">
        <ele>488.5</ele>
        <time>1970-01-01T00:00:00Z</time>
      </trkpt>
      <trkpt lat="39.350261" lon="-5.444178">
        <ele>488.5</ele>
        <time>1970-01-01T00:00:00Z</time>
      </trkpt>
      <trkpt lat="39.350275" lon="-5.443952">
        <ele>487.8</ele>
        <time>1970-01-01T00:00:00Z</time>
      </trkpt>
      <trkpt lat="39.350275" lon="-5.443952">
        <ele>487.8</ele>
        <time>1970-01-01T00:00:00Z</time>
      </trkpt>
      <trkpt lat="39.350275" lon="-5.443952">
        <ele>487.8</ele>
        <time>1970-01-01T00:00:00Z</time>
      </trkpt>
      <trkpt lat="39.350275" lon="-5.443952">
        <ele>487.8</ele>
        <time>1970-01-01T00:00:00Z</time>
      </trkpt>
      <trkpt lat="39.350286" lon="-5.443764">
        <ele>487.4</ele>
        <time>1970-01-01T00:00:00Z</time>
      </trkpt>
      <trkpt lat="39.350286" lon="-5.443764">
        <ele>487.4</ele>
        <time>1970-01-01T00:00:00Z</time>
      </trkpt>
      <trkpt lat="39.350286" lon="-5.443764">
        <ele>487.4</ele>
        <time>1970-01-01T00:00:00Z</time>
      </trkpt>
      <trkpt lat="39.350286" lon="-5.443764">
        <ele>487.4</ele>
        <time>1970-01-01T00:00:00Z</time>
      </trkpt>
      <trkpt lat="39.350315" lon="-5.443476">
        <ele>485.9</ele>
        <time>1970-01-01T00:00:00Z</time>
      </trkpt>
      <trkpt lat="39.350315" lon="-5.443476">
        <ele>485.9</ele>
        <time>1970-01-01T00:00:00Z</time>
      </trkpt>
      <trkpt lat="39.350315" lon="-5.443476">
        <ele>485.9</ele>
        <time>1970-01-01T00:00:00Z</time>
      </trkpt>
      <trkpt lat="39.350315" lon="-5.443476">
        <ele>485.9</ele>
        <time>1970-01-01T00:00:00Z</time>
      </trkpt>
      <trkpt lat="39.350358" lon="-5.443095">
        <ele>483.7</ele>
        <time>1970-01-01T00:00:00Z</time>
      </trkpt>
      <trkpt lat="39.350358" lon="-5.443095">
        <ele>483.7</ele>
        <time>1970-01-01T00:00:00Z</time>
      </trkpt>
      <trkpt lat="39.350358" lon="-5.443095">
        <ele>483.7</ele>
        <time>1970-01-01T00:00:00Z</time>
      </trkpt>
      <trkpt lat="39.350358" lon="-5.443095">
        <ele>483.7</ele>
        <time>1970-01-01T00:00:00Z</time>
      </trkpt>
      <trkpt lat="39.350437" lon="-5.442545">
        <ele>480.6</ele>
        <time>1970-01-01T00:00:00Z</time>
      </trkpt>
      <trkpt lat="39.350437" lon="-5.442545">
        <ele>480.6</ele>
        <time>1970-01-01T00:00:00Z</time>
      </trkpt>
      <trkpt lat="39.350437" lon="-5.442545">
        <ele>480.6</ele>
        <time>1970-01-01T00:00:00Z</time>
      </trkpt>
      <trkpt lat="39.350437" lon="-5.442545">
        <ele>480.6</ele>
        <time>1970-01-01T00:00:00Z</time>
      </trkpt>
      <trkpt lat="39.350456" lon="-5.442399">
        <ele>479.6</ele>
        <time>1970-01-01T00:00:00Z</time>
      </trkpt>
      <trkpt lat="39.350456" lon="-5.442399">
        <ele>479.6</ele>
        <time>1970-01-01T00:00:00Z</time>
      </trkpt>
      <trkpt lat="39.350456" lon="-5.442399">
        <ele>479.6</ele>
        <time>1970-01-01T00:00:00Z</time>
      </trkpt>
      <trkpt lat="39.350456" lon="-5.442399">
        <ele>479.6</ele>
        <time>1970-01-01T00:00:00Z</time>
      </trkpt>
      <trkpt lat="39.350493" lon="-5.442117">
        <ele>477.9</ele>
        <time>1970-01-01T00:00:00Z</time>
      </trkpt>
      <trkpt lat="39.350493" lon="-5.442117">
        <ele>477.9</ele>
        <time>1970-01-01T00:00:00Z</time>
      </trkpt>
      <trkpt lat="39.350493" lon="-5.442117">
        <ele>477.9</ele>
        <time>1970-01-01T00:00:00Z</time>
      </trkpt>
      <trkpt lat="39.350493" lon="-5.442117">
        <ele>477.9</ele>
        <time>1970-01-01T00:00:00Z</time>
      </trkpt>
      <trkpt lat="39.350520" lon="-5.441908">
        <ele>476.6</ele>
        <time>1970-01-01T00:00:00Z</time>
      </trkpt>
      <trkpt lat="39.350520" lon="-5.441908">
        <ele>476.6</ele>
        <time>1970-01-01T00:00:00Z</time>
      </trkpt>
      <trkpt lat="39.350520" lon="-5.441908">
        <ele>476.6</ele>
        <time>1970-01-01T00:00:00Z</time>
      </trkpt>
      <trkpt lat="39.350520" lon="-5.441908">
        <ele>476.6</ele>
        <time>1970-01-01T00:00:00Z</time>
      </trkpt>
      <trkpt lat="39.350578" lon="-5.441491">
        <ele>474.8</ele>
        <time>1970-01-01T00:00:00Z</time>
      </trkpt>
      <trkpt lat="39.350578" lon="-5.441491">
        <ele>474.8</ele>
        <time>1970-01-01T00:00:00Z</time>
      </trkpt>
      <trkpt lat="39.350578" lon="-5.441491">
        <ele>474.8</ele>
        <time>1970-01-01T00:00:00Z</time>
      </trkpt>
      <trkpt lat="39.350578" lon="-5.441491">
        <ele>474.8</ele>
        <time>1970-01-01T00:00:00Z</time>
      </trkpt>
      <trkpt lat="39.350610" lon="-5.441279">
        <ele>474.3</ele>
        <time>1970-01-01T00:00:00Z</time>
      </trkpt>
      <trkpt lat="39.350610" lon="-5.441279">
        <ele>474.3</ele>
        <time>1970-01-01T00:00:00Z</time>
      </trkpt>
      <trkpt lat="39.350610" lon="-5.441279">
        <ele>474.3</ele>
        <time>1970-01-01T00:00:00Z</time>
      </trkpt>
      <trkpt lat="39.350610" lon="-5.441279">
        <ele>474.3</ele>
        <time>1970-01-01T00:00:00Z</time>
      </trkpt>
      <trkpt lat="39.350633" lon="-5.441076">
        <ele>474.4</ele>
        <time>1970-01-01T00:00:00Z</time>
      </trkpt>
      <trkpt lat="39.350633" lon="-5.441076">
        <ele>474.4</ele>
        <time>1970-01-01T00:00:00Z</time>
      </trkpt>
      <trkpt lat="39.350633" lon="-5.441076">
        <ele>474.4</ele>
        <time>1970-01-01T00:00:00Z</time>
      </trkpt>
      <trkpt lat="39.350633" lon="-5.441076">
        <ele>474.4</ele>
        <time>1970-01-01T00:00:00Z</time>
      </trkpt>
      <trkpt lat="39.350672" lon="-5.440896">
        <ele>474.3</ele>
        <time>1970-01-01T00:00:00Z</time>
      </trkpt>
      <trkpt lat="39.350672" lon="-5.440896">
        <ele>474.3</ele>
        <time>1970-01-01T00:00:00Z</time>
      </trkpt>
      <trkpt lat="39.350672" lon="-5.440896">
        <ele>474.3</ele>
        <time>1970-01-01T00:00:00Z</time>
      </trkpt>
      <trkpt lat="39.350672" lon="-5.440896">
        <ele>474.3</ele>
        <time>1970-01-01T00:00:00Z</time>
      </trkpt>
      <trkpt lat="39.350691" lon="-5.440772">
        <ele>474.3</ele>
        <time>1970-01-01T00:00:00Z</time>
      </trkpt>
      <trkpt lat="39.350691" lon="-5.440772">
        <ele>474.3</ele>
        <time>1970-01-01T00:00:00Z</time>
      </trkpt>
      <trkpt lat="39.350691" lon="-5.440772">
        <ele>474.3</ele>
        <time>1970-01-01T00:00:00Z</time>
      </trkpt>
      <trkpt lat="39.350691" lon="-5.440772">
        <ele>474.3</ele>
        <time>1970-01-01T00:00:00Z</time>
      </trkpt>
      <trkpt lat="39.350753" lon="-5.440501">
        <ele>474.2</ele>
        <time>1970-01-01T00:00:00Z</time>
      </trkpt>
      <trkpt lat="39.350753" lon="-5.440501">
        <ele>474.2</ele>
        <time>1970-01-01T00:00:00Z</time>
      </trkpt>
      <trkpt lat="39.350753" lon="-5.440501">
        <ele>474.2</ele>
        <time>1970-01-01T00:00:00Z</time>
      </trkpt>
      <trkpt lat="39.350753" lon="-5.440501">
        <ele>474.2</ele>
        <time>1970-01-01T00:00:00Z</time>
      </trkpt>
      <trkpt lat="39.350860" lon="-5.440060">
        <ele>473.1</ele>
        <time>1970-01-01T00:00:00Z</time>
      </trkpt>
      <trkpt lat="39.350860" lon="-5.440060">
        <ele>473.1</ele>
        <time>1970-01-01T00:00:00Z</time>
      </trkpt>
      <trkpt lat="39.350860" lon="-5.440060">
        <ele>473.1</ele>
        <time>1970-01-01T00:00:00Z</time>
      </trkpt>
      <trkpt lat="39.350860" lon="-5.440060">
        <ele>473.1</ele>
        <time>1970-01-01T00:00:00Z</time>
      </trkpt>
      <trkpt lat="39.350950" lon="-5.439718">
        <ele>472.7</ele>
        <time>1970-01-01T00:00:00Z</time>
      </trkpt>
      <trkpt lat="39.350950" lon="-5.439718">
        <ele>472.7</ele>
        <time>1970-01-01T00:00:00Z</time>
      </trkpt>
      <trkpt lat="39.350950" lon="-5.439718">
        <ele>472.7</ele>
        <time>1970-01-01T00:00:00Z</time>
      </trkpt>
      <trkpt lat="39.350950" lon="-5.439718">
        <ele>472.7</ele>
        <time>1970-01-01T00:00:00Z</time>
      </trkpt>
      <trkpt lat="39.350993" lon="-5.439547">
        <ele>472.3</ele>
        <time>1970-01-01T00:00:00Z</time>
      </trkpt>
      <trkpt lat="39.350993" lon="-5.439547">
        <ele>472.3</ele>
        <time>1970-01-01T00:00:00Z</time>
      </trkpt>
      <trkpt lat="39.350993" lon="-5.439547">
        <ele>472.3</ele>
        <time>1970-01-01T00:00:00Z</time>
      </trkpt>
      <trkpt lat="39.350993" lon="-5.439547">
        <ele>472.3</ele>
        <time>1970-01-01T00:00:00Z</time>
      </trkpt>
      <trkpt lat="39.351191" lon="-5.438748">
        <ele>472.0</ele>
        <time>1970-01-01T00:00:00Z</time>
      </trkpt>
      <trkpt lat="39.351191" lon="-5.438748">
        <ele>472.0</ele>
        <time>1970-01-01T00:00:00Z</time>
      </trkpt>
      <trkpt lat="39.351191" lon="-5.438748">
        <ele>472.0</ele>
        <time>1970-01-01T00:00:00Z</time>
      </trkpt>
      <trkpt lat="39.351191" lon="-5.438748">
        <ele>472.0</ele>
        <time>1970-01-01T00:00:00Z</time>
      </trkpt>
      <trkpt lat="39.351279" lon="-5.438429">
        <ele>473.0</ele>
        <time>1970-01-01T00:00:00Z</time>
      </trkpt>
      <trkpt lat="39.351279" lon="-5.438429">
        <ele>473.0</ele>
        <time>1970-01-01T00:00:00Z</time>
      </trkpt>
      <trkpt lat="39.351279" lon="-5.438429">
        <ele>473.0</ele>
        <time>1970-01-01T00:00:00Z</time>
      </trkpt>
      <trkpt lat="39.351279" lon="-5.438429">
        <ele>473.0</ele>
        <time>1970-01-01T00:00:00Z</time>
      </trkpt>
      <trkpt lat="39.351428" lon="-5.437803">
        <ele>474.6</ele>
        <time>1970-01-01T00:00:00Z</time>
      </trkpt>
      <trkpt lat="39.351428" lon="-5.437803">
        <ele>474.6</ele>
        <time>1970-01-01T00:00:00Z</time>
      </trkpt>
      <trkpt lat="39.351428" lon="-5.437803">
        <ele>474.6</ele>
        <time>1970-01-01T00:00:00Z</time>
      </trkpt>
      <trkpt lat="39.351428" lon="-5.437803">
        <ele>474.6</ele>
        <time>1970-01-01T00:00:00Z</time>
      </trkpt>
      <trkpt lat="39.351478" lon="-5.437603">
        <ele>475.0</ele>
        <time>1970-01-01T00:00:00Z</time>
      </trkpt>
      <trkpt lat="39.351478" lon="-5.437603">
        <ele>475.0</ele>
        <time>1970-01-01T00:00:00Z</time>
      </trkpt>
      <trkpt lat="39.351478" lon="-5.437603">
        <ele>475.0</ele>
        <time>1970-01-01T00:00:00Z</time>
      </trkpt>
      <trkpt lat="39.351478" lon="-5.437603">
        <ele>475.0</ele>
        <time>1970-01-01T00:00:00Z</time>
      </trkpt>
      <trkpt lat="39.351521" lon="-5.437467">
        <ele>475.0</ele>
        <time>1970-01-01T00:00:00Z</time>
      </trkpt>
      <trkpt lat="39.351521" lon="-5.437467">
        <ele>475.0</ele>
        <time>1970-01-01T00:00:00Z</time>
      </trkpt>
      <trkpt lat="39.351521" lon="-5.437467">
        <ele>475.0</ele>
        <time>1970-01-01T00:00:00Z</time>
      </trkpt>
      <trkpt lat="39.351521" lon="-5.437467">
        <ele>475.0</ele>
        <time>1970-01-01T00:00:00Z</time>
      </trkpt>
      <trkpt lat="39.351556" lon="-5.437375">
        <ele>475.0</ele>
        <time>1970-01-01T00:00:00Z</time>
      </trkpt>
      <trkpt lat="39.351556" lon="-5.437375">
        <ele>475.0</ele>
        <time>1970-01-01T00:00:00Z</time>
      </trkpt>
      <trkpt lat="39.351556" lon="-5.437375">
        <ele>475.0</ele>
        <time>1970-01-01T00:00:00Z</time>
      </trkpt>
      <trkpt lat="39.351556" lon="-5.437375">
        <ele>475.0</ele>
        <time>1970-01-01T00:00:00Z</time>
      </trkpt>
      <trkpt lat="39.351597" lon="-5.437293">
        <ele>474.8</ele>
        <time>1970-01-01T00:00:00Z</time>
      </trkpt>
      <trkpt lat="39.351597" lon="-5.437293">
        <ele>474.8</ele>
        <time>1970-01-01T00:00:00Z</time>
      </trkpt>
      <trkpt lat="39.351597" lon="-5.437293">
        <ele>474.8</ele>
        <time>1970-01-01T00:00:00Z</time>
      </trkpt>
      <trkpt lat="39.351597" lon="-5.437293">
        <ele>474.8</ele>
        <time>1970-01-01T00:00:00Z</time>
      </trkpt>
      <trkpt lat="39.351673" lon="-5.437168">
        <ele>474.2</ele>
        <time>1970-01-01T00:00:00Z</time>
      </trkpt>
      <trkpt lat="39.351673" lon="-5.437168">
        <ele>474.2</ele>
        <time>1970-01-01T00:00:00Z</time>
      </trkpt>
      <trkpt lat="39.351673" lon="-5.437168">
        <ele>474.2</ele>
        <time>1970-01-01T00:00:00Z</time>
      </trkpt>
      <trkpt lat="39.351673" lon="-5.437168">
        <ele>474.2</ele>
        <time>1970-01-01T00:00:00Z</time>
      </trkpt>
      <trkpt lat="39.351792" lon="-5.436959">
        <ele>473.3</ele>
        <time>1970-01-01T00:00:00Z</time>
      </trkpt>
      <trkpt lat="39.351792" lon="-5.436959">
        <ele>473.3</ele>
        <time>1970-01-01T00:00:00Z</time>
      </trkpt>
      <trkpt lat="39.351792" lon="-5.436959">
        <ele>473.3</ele>
        <time>1970-01-01T00:00:00Z</time>
      </trkpt>
      <trkpt lat="39.351792" lon="-5.436959">
        <ele>473.3</ele>
        <time>1970-01-01T00:00:00Z</time>
      </trkpt>
      <trkpt lat="39.352096" lon="-5.436457">
        <ele>469.7</ele>
        <time>1970-01-01T00:00:00Z</time>
      </trkpt>
      <trkpt lat="39.352096" lon="-5.436457">
        <ele>469.7</ele>
        <time>1970-01-01T00:00:00Z</time>
      </trkpt>
      <trkpt lat="39.352096" lon="-5.436457">
        <ele>469.7</ele>
        <time>1970-01-01T00:00:00Z</time>
      </trkpt>
      <trkpt lat="39.352096" lon="-5.436457">
        <ele>469.7</ele>
        <time>1970-01-01T00:00:00Z</time>
      </trkpt>
      <trkpt lat="39.352203" lon="-5.436277">
        <ele>467.8</ele>
        <time>1970-01-01T00:00:00Z</time>
      </trkpt>
      <trkpt lat="39.352203" lon="-5.436277">
        <ele>467.8</ele>
        <time>1970-01-01T00:00:00Z</time>
      </trkpt>
      <trkpt lat="39.352203" lon="-5.436277">
        <ele>467.8</ele>
        <time>1970-01-01T00:00:00Z</time>
      </trkpt>
      <trkpt lat="39.352203" lon="-5.436277">
        <ele>467.8</ele>
        <time>1970-01-01T00:00:00Z</time>
      </trkpt>
      <trkpt lat="39.352264" lon="-5.436143">
        <ele>466.2</ele>
        <time>1970-01-01T00:00:00Z</time>
      </trkpt>
      <trkpt lat="39.352264" lon="-5.436143">
        <ele>466.2</ele>
        <time>1970-01-01T00:00:00Z</time>
      </trkpt>
      <trkpt lat="39.352264" lon="-5.436143">
        <ele>466.2</ele>
        <time>1970-01-01T00:00:00Z</time>
      </trkpt>
      <trkpt lat="39.352264" lon="-5.436143">
        <ele>466.2</ele>
        <time>1970-01-01T00:00:00Z</time>
      </trkpt>
      <trkpt lat="39.352340" lon="-5.435928">
        <ele>464.2</ele>
        <time>1970-01-01T00:00:00Z</time>
      </trkpt>
      <trkpt lat="39.352340" lon="-5.435928">
        <ele>464.2</ele>
        <time>1970-01-01T00:00:00Z</time>
      </trkpt>
      <trkpt lat="39.352340" lon="-5.435928">
        <ele>464.2</ele>
        <time>1970-01-01T00:00:00Z</time>
      </trkpt>
      <trkpt lat="39.352340" lon="-5.435928">
        <ele>464.2</ele>
        <time>1970-01-01T00:00:00Z</time>
      </trkpt>
      <trkpt lat="39.352464" lon="-5.435595">
        <ele>460.6</ele>
        <time>1970-01-01T00:00:00Z</time>
      </trkpt>
      <trkpt lat="39.352464" lon="-5.435595">
        <ele>460.6</ele>
        <time>1970-01-01T00:00:00Z</time>
      </trkpt>
      <trkpt lat="39.352464" lon="-5.435595">
        <ele>460.6</ele>
        <time>1970-01-01T00:00:00Z</time>
      </trkpt>
      <trkpt lat="39.352464" lon="-5.435595">
        <ele>460.6</ele>
        <time>1970-01-01T00:00:00Z</time>
      </trkpt>
      <trkpt lat="39.352543" lon="-5.435408">
        <ele>458.4</ele>
        <time>1970-01-01T00:00:00Z</time>
      </trkpt>
      <trkpt lat="39.352543" lon="-5.435408">
        <ele>458.4</ele>
        <time>1970-01-01T00:00:00Z</time>
      </trkpt>
      <trkpt lat="39.352543" lon="-5.435408">
        <ele>458.4</ele>
        <time>1970-01-01T00:00:00Z</time>
      </trkpt>
      <trkpt lat="39.352543" lon="-5.435408">
        <ele>458.4</ele>
        <time>1970-01-01T00:00:00Z</time>
      </trkpt>
      <trkpt lat="39.352560" lon="-5.435341">
        <ele>457.6</ele>
        <time>1970-01-01T00:00:00Z</time>
      </trkpt>
      <trkpt lat="39.352560" lon="-5.435341">
        <ele>457.6</ele>
        <time>1970-01-01T00:00:00Z</time>
      </trkpt>
      <trkpt lat="39.352560" lon="-5.435341">
        <ele>457.6</ele>
        <time>1970-01-01T00:00:00Z</time>
      </trkpt>
      <trkpt lat="39.352560" lon="-5.435341">
        <ele>457.6</ele>
        <time>1970-01-01T00:00:00Z</time>
      </trkpt>
      <trkpt lat="39.352588" lon="-5.435143">
        <ele>455.7</ele>
        <time>1970-01-01T00:00:00Z</time>
      </trkpt>
      <trkpt lat="39.352588" lon="-5.435143">
        <ele>455.7</ele>
        <time>1970-01-01T00:00:00Z</time>
      </trkpt>
      <trkpt lat="39.352588" lon="-5.435143">
        <ele>455.7</ele>
        <time>1970-01-01T00:00:00Z</time>
      </trkpt>
      <trkpt lat="39.352588" lon="-5.435143">
        <ele>455.7</ele>
        <time>1970-01-01T00:00:00Z</time>
      </trkpt>
      <trkpt lat="39.352590" lon="-5.434911">
        <ele>454.0</ele>
        <time>1970-01-01T00:00:00Z</time>
      </trkpt>
      <trkpt lat="39.352590" lon="-5.434911">
        <ele>454.0</ele>
        <time>1970-01-01T00:00:00Z</time>
      </trkpt>
      <trkpt lat="39.352590" lon="-5.434911">
        <ele>454.0</ele>
        <time>1970-01-01T00:00:00Z</time>
      </trkpt>
      <trkpt lat="39.352590" lon="-5.434911">
        <ele>454.0</ele>
        <time>1970-01-01T00:00:00Z</time>
      </trkpt>
      <trkpt lat="39.352581" lon="-5.434527">
        <ele>451.1</ele>
        <time>1970-01-01T00:00:00Z</time>
      </trkpt>
      <trkpt lat="39.352581" lon="-5.434527">
        <ele>451.1</ele>
        <time>1970-01-01T00:00:00Z</time>
      </trkpt>
      <trkpt lat="39.352581" lon="-5.434527">
        <ele>451.1</ele>
        <time>1970-01-01T00:00:00Z</time>
      </trkpt>
      <trkpt lat="39.352581" lon="-5.434527">
        <ele>451.1</ele>
        <time>1970-01-01T00:00:00Z</time>
      </trkpt>
      <trkpt lat="39.352581" lon="-5.434325">
        <ele>449.7</ele>
        <time>1970-01-01T00:00:00Z</time>
      </trkpt>
      <trkpt lat="39.352581" lon="-5.434325">
        <ele>449.7</ele>
        <time>1970-01-01T00:00:00Z</time>
      </trkpt>
      <trkpt lat="39.352581" lon="-5.434325">
        <ele>449.7</ele>
        <time>1970-01-01T00:00:00Z</time>
      </trkpt>
      <trkpt lat="39.352581" lon="-5.434325">
        <ele>449.7</ele>
        <time>1970-01-01T00:00:00Z</time>
      </trkpt>
      <trkpt lat="39.352599" lon="-5.434132">
        <ele>448.7</ele>
        <time>1970-01-01T00:00:00Z</time>
      </trkpt>
      <trkpt lat="39.352599" lon="-5.434132">
        <ele>448.7</ele>
        <time>1970-01-01T00:00:00Z</time>
      </trkpt>
      <trkpt lat="39.352599" lon="-5.434132">
        <ele>448.7</ele>
        <time>1970-01-01T00:00:00Z</time>
      </trkpt>
      <trkpt lat="39.352599" lon="-5.434132">
        <ele>448.7</ele>
        <time>1970-01-01T00:00:00Z</time>
      </trkpt>
      <trkpt lat="39.352630" lon="-5.433921">
        <ele>448.2</ele>
        <time>1970-01-01T00:00:00Z</time>
      </trkpt>
      <trkpt lat="39.352630" lon="-5.433921">
        <ele>448.2</ele>
        <time>1970-01-01T00:00:00Z</time>
      </trkpt>
      <trkpt lat="39.352630" lon="-5.433921">
        <ele>448.2</ele>
        <time>1970-01-01T00:00:00Z</time>
      </trkpt>
      <trkpt lat="39.352630" lon="-5.433921">
        <ele>448.2</ele>
        <time>1970-01-01T00:00:00Z</time>
      </trkpt>
      <trkpt lat="39.352677" lon="-5.433724">
        <ele>448.0</ele>
        <time>1970-01-01T00:00:00Z</time>
      </trkpt>
      <trkpt lat="39.352677" lon="-5.433724">
        <ele>448.0</ele>
        <time>1970-01-01T00:00:00Z</time>
      </trkpt>
      <trkpt lat="39.352677" lon="-5.433724">
        <ele>448.0</ele>
        <time>1970-01-01T00:00:00Z</time>
      </trkpt>
      <trkpt lat="39.352677" lon="-5.433724">
        <ele>448.0</ele>
        <time>1970-01-01T00:00:00Z</time>
      </trkpt>
      <trkpt lat="39.352694" lon="-5.433684">
        <ele>447.9</ele>
        <time>1970-01-01T00:00:00Z</time>
      </trkpt>
      <trkpt lat="39.352694" lon="-5.433684">
        <ele>447.9</ele>
        <time>1970-01-01T00:00:00Z</time>
      </trkpt>
      <trkpt lat="39.352694" lon="-5.433684">
        <ele>447.9</ele>
        <time>1970-01-01T00:00:00Z</time>
      </trkpt>
      <trkpt lat="39.352694" lon="-5.433684">
        <ele>447.9</ele>
        <time>1970-01-01T00:00:00Z</time>
      </trkpt>
      <trkpt lat="39.352694" lon="-5.433684">
        <ele>447.9</ele>
        <time>1970-01-01T00:00:00Z</time>
      </trkpt>
      <trkpt lat="39.352694" lon="-5.433684">
        <ele>447.9</ele>
        <time>1970-01-01T00:00:00Z</time>
      </trkpt>
      <trkpt lat="39.352694" lon="-5.433684">
        <ele>447.9</ele>
        <time>1970-01-01T00:00:00Z</time>
      </trkpt>
      <trkpt lat="39.352694" lon="-5.433684">
        <ele>447.9</ele>
        <time>1970-01-01T00:00:00Z</time>
      </trkpt>
      <trkpt lat="39.352714" lon="-5.433638">
        <ele>447.8</ele>
        <time>1970-01-01T00:00:00Z</time>
      </trkpt>
      <trkpt lat="39.352714" lon="-5.433638">
        <ele>447.8</ele>
        <time>1970-01-01T00:00:00Z</time>
      </trkpt>
      <trkpt lat="39.352714" lon="-5.433638">
        <ele>447.8</ele>
        <time>1970-01-01T00:00:00Z</time>
      </trkpt>
      <trkpt lat="39.352714" lon="-5.433638">
        <ele>447.8</ele>
        <time>1970-01-01T00:00:00Z</time>
      </trkpt>
      <trkpt lat="39.352726" lon="-5.433567">
        <ele>447.5</ele>
        <time>1970-01-01T00:00:00Z</time>
      </trkpt>
      <trkpt lat="39.352726" lon="-5.433567">
        <ele>447.5</ele>
        <time>1970-01-01T00:00:00Z</time>
      </trkpt>
      <trkpt lat="39.352726" lon="-5.433567">
        <ele>447.5</ele>
        <time>1970-01-01T00:00:00Z</time>
      </trkpt>
      <trkpt lat="39.352726" lon="-5.433567">
        <ele>447.5</ele>
        <time>1970-01-01T00:00:00Z</time>
      </trkpt>
      <trkpt lat="39.352730" lon="-5.433458">
        <ele>447.1</ele>
        <time>1970-01-01T00:00:00Z</time>
      </trkpt>
      <trkpt lat="39.352730" lon="-5.433458">
        <ele>447.1</ele>
        <time>1970-01-01T00:00:00Z</time>
      </trkpt>
      <trkpt lat="39.352730" lon="-5.433458">
        <ele>447.1</ele>
        <time>1970-01-01T00:00:00Z</time>
      </trkpt>
      <trkpt lat="39.352730" lon="-5.433458">
        <ele>447.1</ele>
        <time>1970-01-01T00:00:00Z</time>
      </trkpt>
      <trkpt lat="39.352753" lon="-5.433293">
        <ele>446.5</ele>
        <time>1970-01-01T00:00:00Z</time>
      </trkpt>
      <trkpt lat="39.352753" lon="-5.433293">
        <ele>446.5</ele>
        <time>1970-01-01T00:00:00Z</time>
      </trkpt>
      <trkpt lat="39.352753" lon="-5.433293">
        <ele>446.5</ele>
        <time>1970-01-01T00:00:00Z</time>
      </trkpt>
      <trkpt lat="39.352753" lon="-5.433293">
        <ele>446.5</ele>
        <time>1970-01-01T00:00:00Z</time>
      </trkpt>
      <trkpt lat="39.352778" lon="-5.433155">
        <ele>446.0</ele>
        <time>1970-01-01T00:00:00Z</time>
      </trkpt>
      <trkpt lat="39.352778" lon="-5.433155">
        <ele>446.0</ele>
        <time>1970-01-01T00:00:00Z</time>
      </trkpt>
      <trkpt lat="39.352778" lon="-5.433155">
        <ele>446.0</ele>
        <time>1970-01-01T00:00:00Z</time>
      </trkpt>
      <trkpt lat="39.352778" lon="-5.433155">
        <ele>446.0</ele>
        <time>1970-01-01T00:00:00Z</time>
      </trkpt>
      <trkpt lat="39.352840" lon="-5.432860">
        <ele>445.6</ele>
        <time>1970-01-01T00:00:00Z</time>
      </trkpt>
      <trkpt lat="39.352840" lon="-5.432860">
        <ele>445.6</ele>
        <time>1970-01-01T00:00:00Z</time>
      </trkpt>
      <trkpt lat="39.352840" lon="-5.432860">
        <ele>445.6</ele>
        <time>1970-01-01T00:00:00Z</time>
      </trkpt>
      <trkpt lat="39.352840" lon="-5.432860">
        <ele>445.6</ele>
        <time>1970-01-01T00:00:00Z</time>
      </trkpt>
      <trkpt lat="39.352946" lon="-5.432356">
        <ele>444.6</ele>
        <time>1970-01-01T00:00:00Z</time>
      </trkpt>
      <trkpt lat="39.352946" lon="-5.432356">
        <ele>444.6</ele>
        <time>1970-01-01T00:00:00Z</time>
      </trkpt>
      <trkpt lat="39.352946" lon="-5.432356">
        <ele>444.6</ele>
        <time>1970-01-01T00:00:00Z</time>
      </trkpt>
      <trkpt lat="39.352946" lon="-5.432356">
        <ele>444.6</ele>
        <time>1970-01-01T00:00:00Z</time>
      </trkpt>
      <trkpt lat="39.353008" lon="-5.432019">
        <ele>443.5</ele>
        <time>1970-01-01T00:00:00Z</time>
      </trkpt>
      <trkpt lat="39.353008" lon="-5.432019">
        <ele>443.5</ele>
        <time>1970-01-01T00:00:00Z</time>
      </trkpt>
      <trkpt lat="39.353008" lon="-5.432019">
        <ele>443.5</ele>
        <time>1970-01-01T00:00:00Z</time>
      </trkpt>
      <trkpt lat="39.353008" lon="-5.432019">
        <ele>443.5</ele>
        <time>1970-01-01T00:00:00Z</time>
      </trkpt>
      <trkpt lat="39.353152" lon="-5.431316">
        <ele>442.1</ele>
        <time>1970-01-01T00:00:00Z</time>
      </trkpt>
      <trkpt lat="39.353152" lon="-5.431316">
        <ele>442.1</ele>
        <time>1970-01-01T00:00:00Z</time>
      </trkpt>
      <trkpt lat="39.353152" lon="-5.431316">
        <ele>442.1</ele>
        <time>1970-01-01T00:00:00Z</time>
      </trkpt>
      <trkpt lat="39.353152" lon="-5.431316">
        <ele>442.1</ele>
        <time>1970-01-01T00:00:00Z</time>
      </trkpt>
      <trkpt lat="39.353218" lon="-5.430973">
        <ele>442.7</ele>
        <time>1970-01-01T00:00:00Z</time>
      </trkpt>
      <trkpt lat="39.353218" lon="-5.430973">
        <ele>442.7</ele>
        <time>1970-01-01T00:00:00Z</time>
      </trkpt>
      <trkpt lat="39.353218" lon="-5.430973">
        <ele>442.7</ele>
        <time>1970-01-01T00:00:00Z</time>
      </trkpt>
      <trkpt lat="39.353218" lon="-5.430973">
        <ele>442.7</ele>
        <time>1970-01-01T00:00:00Z</time>
      </trkpt>
      <trkpt lat="39.353282" lon="-5.430662">
        <ele>443.3</ele>
        <time>1970-01-01T00:00:00Z</time>
      </trkpt>
      <trkpt lat="39.353282" lon="-5.430662">
        <ele>443.3</ele>
        <time>1970-01-01T00:00:00Z</time>
      </trkpt>
      <trkpt lat="39.353282" lon="-5.430662">
        <ele>443.3</ele>
        <time>1970-01-01T00:00:00Z</time>
      </trkpt>
      <trkpt lat="39.353282" lon="-5.430662">
        <ele>443.3</ele>
        <time>1970-01-01T00:00:00Z</time>
      </trkpt>
      <trkpt lat="39.353321" lon="-5.430521">
        <ele>443.6</ele>
        <time>1970-01-01T00:00:00Z</time>
      </trkpt>
      <trkpt lat="39.353321" lon="-5.430521">
        <ele>443.6</ele>
        <time>1970-01-01T00:00:00Z</time>
      </trkpt>
      <trkpt lat="39.353321" lon="-5.430521">
        <ele>443.6</ele>
        <time>1970-01-01T00:00:00Z</time>
      </trkpt>
      <trkpt lat="39.353321" lon="-5.430521">
        <ele>443.6</ele>
        <time>1970-01-01T00:00:00Z</time>
      </trkpt>
      <trkpt lat="39.353356" lon="-5.430445">
        <ele>443.9</ele>
        <time>1970-01-01T00:00:00Z</time>
      </trkpt>
      <trkpt lat="39.353356" lon="-5.430445">
        <ele>443.9</ele>
        <time>1970-01-01T00:00:00Z</time>
      </trkpt>
      <trkpt lat="39.353356" lon="-5.430445">
        <ele>443.9</ele>
        <time>1970-01-01T00:00:00Z</time>
      </trkpt>
      <trkpt lat="39.353356" lon="-5.430445">
        <ele>443.9</ele>
        <time>1970-01-01T00:00:00Z</time>
      </trkpt>
      <trkpt lat="39.353416" lon="-5.430345">
        <ele>444.2</ele>
        <time>1970-01-01T00:00:00Z</time>
      </trkpt>
      <trkpt lat="39.353416" lon="-5.430345">
        <ele>444.2</ele>
        <time>1970-01-01T00:00:00Z</time>
      </trkpt>
      <trkpt lat="39.353416" lon="-5.430345">
        <ele>444.2</ele>
        <time>1970-01-01T00:00:00Z</time>
      </trkpt>
      <trkpt lat="39.353416" lon="-5.430345">
        <ele>444.2</ele>
        <time>1970-01-01T00:00:00Z</time>
      </trkpt>
      <trkpt lat="39.353516" lon="-5.430213">
        <ele>444.7</ele>
        <time>1970-01-01T00:00:00Z</time>
      </trkpt>
      <trkpt lat="39.353516" lon="-5.430213">
        <ele>444.7</ele>
        <time>1970-01-01T00:00:00Z</time>
      </trkpt>
      <trkpt lat="39.353516" lon="-5.430213">
        <ele>444.7</ele>
        <time>1970-01-01T00:00:00Z</time>
      </trkpt>
      <trkpt lat="39.353516" lon="-5.430213">
        <ele>444.7</ele>
        <time>1970-01-01T00:00:00Z</time>
      </trkpt>
      <trkpt lat="39.353761" lon="-5.429917">
        <ele>446.8</ele>
        <time>1970-01-01T00:00:00Z</time>
      </trkpt>
      <trkpt lat="39.353761" lon="-5.429917">
        <ele>446.8</ele>
        <time>1970-01-01T00:00:00Z</time>
      </trkpt>
      <trkpt lat="39.353761" lon="-5.429917">
        <ele>446.8</ele>
        <time>1970-01-01T00:00:00Z</time>
      </trkpt>
      <trkpt lat="39.353761" lon="-5.429917">
        <ele>446.8</ele>
        <time>1970-01-01T00:00:00Z</time>
      </trkpt>
      <trkpt lat="39.353973" lon="-5.429655">
        <ele>448.0</ele>
        <time>1970-01-01T00:00:00Z</time>
      </trkpt>
      <trkpt lat="39.353973" lon="-5.429655">
        <ele>448.0</ele>
        <time>1970-01-01T00:00:00Z</time>
      </trkpt>
      <trkpt lat="39.353973" lon="-5.429655">
        <ele>448.0</ele>
        <time>1970-01-01T00:00:00Z</time>
      </trkpt>
      <trkpt lat="39.353973" lon="-5.429655">
        <ele>448.0</ele>
        <time>1970-01-01T00:00:00Z</time>
      </trkpt>
      <trkpt lat="39.354047" lon="-5.429563">
        <ele>448.0</ele>
        <time>1970-01-01T00:00:00Z</time>
      </trkpt>
      <trkpt lat="39.354047" lon="-5.429563">
        <ele>448.0</ele>
        <time>1970-01-01T00:00:00Z</time>
      </trkpt>
      <trkpt lat="39.354047" lon="-5.429563">
        <ele>448.0</ele>
        <time>1970-01-01T00:00:00Z</time>
      </trkpt>
      <trkpt lat="39.354047" lon="-5.429563">
        <ele>448.0</ele>
        <time>1970-01-01T00:00:00Z</time>
      </trkpt>
      <trkpt lat="39.354108" lon="-5.429444">
        <ele>448.0</ele>
        <time>1970-01-01T00:00:00Z</time>
      </trkpt>
      <trkpt lat="39.354108" lon="-5.429444">
        <ele>448.0</ele>
        <time>1970-01-01T00:00:00Z</time>
      </trkpt>
      <trkpt lat="39.354108" lon="-5.429444">
        <ele>448.0</ele>
        <time>1970-01-01T00:00:00Z</time>
      </trkpt>
      <trkpt lat="39.354108" lon="-5.429444">
        <ele>448.0</ele>
        <time>1970-01-01T00:00:00Z</time>
      </trkpt>
      <trkpt lat="39.354130" lon="-5.429386">
        <ele>448.0</ele>
        <time>1970-01-01T00:00:00Z</time>
      </trkpt>
      <trkpt lat="39.354130" lon="-5.429386">
        <ele>448.0</ele>
        <time>1970-01-01T00:00:00Z</time>
      </trkpt>
      <trkpt lat="39.354130" lon="-5.429386">
        <ele>448.0</ele>
        <time>1970-01-01T00:00:00Z</time>
      </trkpt>
      <trkpt lat="39.354130" lon="-5.429386">
        <ele>448.0</ele>
        <time>1970-01-01T00:00:00Z</time>
      </trkpt>
      <trkpt lat="39.354146" lon="-5.429315">
        <ele>448.0</ele>
        <time>1970-01-01T00:00:00Z</time>
      </trkpt>
      <trkpt lat="39.354146" lon="-5.429315">
        <ele>448.0</ele>
        <time>1970-01-01T00:00:00Z</time>
      </trkpt>
      <trkpt lat="39.354146" lon="-5.429315">
        <ele>448.0</ele>
        <time>1970-01-01T00:00:00Z</time>
      </trkpt>
      <trkpt lat="39.354146" lon="-5.429315">
        <ele>448.0</ele>
        <time>1970-01-01T00:00:00Z</time>
      </trkpt>
      <trkpt lat="39.354132" lon="-5.429194">
        <ele>447.9</ele>
        <time>1970-01-01T00:00:00Z</time>
      </trkpt>
      <trkpt lat="39.354132" lon="-5.429194">
        <ele>447.9</ele>
        <time>1970-01-01T00:00:00Z</time>
      </trkpt>
      <trkpt lat="39.354132" lon="-5.429194">
        <ele>447.9</ele>
        <time>1970-01-01T00:00:00Z</time>
      </trkpt>
      <trkpt lat="39.354132" lon="-5.429194">
        <ele>447.9</ele>
        <time>1970-01-01T00:00:00Z</time>
      </trkpt>
      <trkpt lat="39.354123" lon="-5.429042">
        <ele>447.8</ele>
        <time>1970-01-01T00:00:00Z</time>
      </trkpt>
      <trkpt lat="39.354123" lon="-5.429042">
        <ele>447.8</ele>
        <time>1970-01-01T00:00:00Z</time>
      </trkpt>
      <trkpt lat="39.354123" lon="-5.429042">
        <ele>447.8</ele>
        <time>1970-01-01T00:00:00Z</time>
      </trkpt>
      <trkpt lat="39.354123" lon="-5.429042">
        <ele>447.8</ele>
        <time>1970-01-01T00:00:00Z</time>
      </trkpt>
      <trkpt lat="39.354112" lon="-5.428756">
        <ele>447.0</ele>
        <time>1970-01-01T00:00:00Z</time>
      </trkpt>
      <trkpt lat="39.354112" lon="-5.428756">
        <ele>447.0</ele>
        <time>1970-01-01T00:00:00Z</time>
      </trkpt>
      <trkpt lat="39.354112" lon="-5.428756">
        <ele>447.0</ele>
        <time>1970-01-01T00:00:00Z</time>
      </trkpt>
      <trkpt lat="39.354112" lon="-5.428756">
        <ele>447.0</ele>
        <time>1970-01-01T00:00:00Z</time>
      </trkpt>
      <trkpt lat="39.354117" lon="-5.428586">
        <ele>447.0</ele>
        <time>1970-01-01T00:00:00Z</time>
      </trkpt>
      <trkpt lat="39.354117" lon="-5.428586">
        <ele>447.0</ele>
        <time>1970-01-01T00:00:00Z</time>
      </trkpt>
      <trkpt lat="39.354117" lon="-5.428586">
        <ele>447.0</ele>
        <time>1970-01-01T00:00:00Z</time>
      </trkpt>
      <trkpt lat="39.354117" lon="-5.428586">
        <ele>447.0</ele>
        <time>1970-01-01T00:00:00Z</time>
      </trkpt>
      <trkpt lat="39.354129" lon="-5.428453">
        <ele>446.6</ele>
        <time>1970-01-01T00:00:00Z</time>
      </trkpt>
      <trkpt lat="39.354129" lon="-5.428453">
        <ele>446.6</ele>
        <time>1970-01-01T00:00:00Z</time>
      </trkpt>
      <trkpt lat="39.354129" lon="-5.428453">
        <ele>446.6</ele>
        <time>1970-01-01T00:00:00Z</time>
      </trkpt>
      <trkpt lat="39.354129" lon="-5.428453">
        <ele>446.6</ele>
        <time>1970-01-01T00:00:00Z</time>
      </trkpt>
      <trkpt lat="39.354149" lon="-5.428376">
        <ele>446.2</ele>
        <time>1970-01-01T00:00:00Z</time>
      </trkpt>
      <trkpt lat="39.354149" lon="-5.428376">
        <ele>446.2</ele>
        <time>1970-01-01T00:00:00Z</time>
      </trkpt>
      <trkpt lat="39.354149" lon="-5.428376">
        <ele>446.2</ele>
        <time>1970-01-01T00:00:00Z</time>
      </trkpt>
      <trkpt lat="39.354149" lon="-5.428376">
        <ele>446.2</ele>
        <time>1970-01-01T00:00:00Z</time>
      </trkpt>
      <trkpt lat="39.354199" lon="-5.428288">
        <ele>445.7</ele>
        <time>1970-01-01T00:00:00Z</time>
      </trkpt>
      <trkpt lat="39.354199" lon="-5.428288">
        <ele>445.7</ele>
        <time>1970-01-01T00:00:00Z</time>
      </trkpt>
      <trkpt lat="39.354199" lon="-5.428288">
        <ele>445.7</ele>
        <time>1970-01-01T00:00:00Z</time>
      </trkpt>
      <trkpt lat="39.354199" lon="-5.428288">
        <ele>445.7</ele>
        <time>1970-01-01T00:00:00Z</time>
      </trkpt>
      <trkpt lat="39.354268" lon="-5.428184">
        <ele>444.8</ele>
        <time>1970-01-01T00:00:00Z</time>
      </trkpt>
      <trkpt lat="39.354268" lon="-5.428184">
        <ele>444.8</ele>
        <time>1970-01-01T00:00:00Z</time>
      </trkpt>
      <trkpt lat="39.354268" lon="-5.428184">
        <ele>444.8</ele>
        <time>1970-01-01T00:00:00Z</time>
      </trkpt>
      <trkpt lat="39.354268" lon="-5.428184">
        <ele>444.8</ele>
        <time>1970-01-01T00:00:00Z</time>
      </trkpt>
      <trkpt lat="39.354384" lon="-5.428022">
        <ele>443.4</ele>
        <time>1970-01-01T00:00:00Z</time>
      </trkpt>
      <trkpt lat="39.354384" lon="-5.428022">
        <ele>443.4</ele>
        <time>1970-01-01T00:00:00Z</time>
      </trkpt>
      <trkpt lat="39.354384" lon="-5.428022">
        <ele>443.4</ele>
        <time>1970-01-01T00:00:00Z</time>
      </trkpt>
      <trkpt lat="39.354384" lon="-5.428022">
        <ele>443.4</ele>
        <time>1970-01-01T00:00:00Z</time>
      </trkpt>
      <trkpt lat="39.354452" lon="-5.427907">
        <ele>442.4</ele>
        <time>1970-01-01T00:00:00Z</time>
      </trkpt>
      <trkpt lat="39.354452" lon="-5.427907">
        <ele>442.4</ele>
        <time>1970-01-01T00:00:00Z</time>
      </trkpt>
      <trkpt lat="39.354452" lon="-5.427907">
        <ele>442.4</ele>
        <time>1970-01-01T00:00:00Z</time>
      </trkpt>
      <trkpt lat="39.354452" lon="-5.427907">
        <ele>442.4</ele>
        <time>1970-01-01T00:00:00Z</time>
      </trkpt>
      <trkpt lat="39.354541" lon="-5.427765">
        <ele>441.7</ele>
        <time>1970-01-01T00:00:00Z</time>
      </trkpt>
      <trkpt lat="39.354541" lon="-5.427765">
        <ele>441.7</ele>
        <time>1970-01-01T00:00:00Z</time>
      </trkpt>
      <trkpt lat="39.354541" lon="-5.427765">
        <ele>441.7</ele>
        <time>1970-01-01T00:00:00Z</time>
      </trkpt>
      <trkpt lat="39.354541" lon="-5.427765">
        <ele>441.7</ele>
        <time>1970-01-01T00:00:00Z</time>
      </trkpt>
      <trkpt lat="39.354641" lon="-5.427584">
        <ele>441.3</ele>
        <time>1970-01-01T00:00:00Z</time>
      </trkpt>
      <trkpt lat="39.354641" lon="-5.427584">
        <ele>441.3</ele>
        <time>1970-01-01T00:00:00Z</time>
      </trkpt>
      <trkpt lat="39.354641" lon="-5.427584">
        <ele>441.3</ele>
        <time>1970-01-01T00:00:00Z</time>
      </trkpt>
      <trkpt lat="39.354641" lon="-5.427584">
        <ele>441.3</ele>
        <time>1970-01-01T00:00:00Z</time>
      </trkpt>
      <trkpt lat="39.354696" lon="-5.427460">
        <ele>440.5</ele>
        <time>1970-01-01T00:00:00Z</time>
      </trkpt>
      <trkpt lat="39.354696" lon="-5.427460">
        <ele>440.5</ele>
        <time>1970-01-01T00:00:00Z</time>
      </trkpt>
      <trkpt lat="39.354696" lon="-5.427460">
        <ele>440.5</ele>
        <time>1970-01-01T00:00:00Z</time>
      </trkpt>
      <trkpt lat="39.354696" lon="-5.427460">
        <ele>440.5</ele>
        <time>1970-01-01T00:00:00Z</time>
      </trkpt>
      <trkpt lat="39.354739" lon="-5.427358">
        <ele>439.8</ele>
        <time>1970-01-01T00:00:00Z</time>
      </trkpt>
      <trkpt lat="39.354739" lon="-5.427358">
        <ele>439.8</ele>
        <time>1970-01-01T00:00:00Z</time>
      </trkpt>
      <trkpt lat="39.354739" lon="-5.427358">
        <ele>439.8</ele>
        <time>1970-01-01T00:00:00Z</time>
      </trkpt>
      <trkpt lat="39.354739" lon="-5.427358">
        <ele>439.8</ele>
        <time>1970-01-01T00:00:00Z</time>
      </trkpt>
      <trkpt lat="39.354778" lon="-5.427232">
        <ele>439.3</ele>
        <time>1970-01-01T00:00:00Z</time>
      </trkpt>
      <trkpt lat="39.354778" lon="-5.427232">
        <ele>439.3</ele>
        <time>1970-01-01T00:00:00Z</time>
      </trkpt>
      <trkpt lat="39.354778" lon="-5.427232">
        <ele>439.3</ele>
        <time>1970-01-01T00:00:00Z</time>
      </trkpt>
      <trkpt lat="39.354778" lon="-5.427232">
        <ele>439.3</ele>
        <time>1970-01-01T00:00:00Z</time>
      </trkpt>
      <trkpt lat="39.354814" lon="-5.427115">
        <ele>438.7</ele>
        <time>1970-01-01T00:00:00Z</time>
      </trkpt>
      <trkpt lat="39.354814" lon="-5.427115">
        <ele>438.7</ele>
        <time>1970-01-01T00:00:00Z</time>
      </trkpt>
      <trkpt lat="39.354814" lon="-5.427115">
        <ele>438.7</ele>
        <time>1970-01-01T00:00:00Z</time>
      </trkpt>
      <trkpt lat="39.354814" lon="-5.427115">
        <ele>438.7</ele>
        <time>1970-01-01T00:00:00Z</time>
      </trkpt>
      <trkpt lat="39.354910" lon="-5.426627">
        <ele>436.4</ele>
        <time>1970-01-01T00:00:00Z</time>
      </trkpt>
      <trkpt lat="39.354910" lon="-5.426627">
        <ele>436.4</ele>
        <time>1970-01-01T00:00:00Z</time>
      </trkpt>
      <trkpt lat="39.354910" lon="-5.426627">
        <ele>436.4</ele>
        <time>1970-01-01T00:00:00Z</time>
      </trkpt>
      <trkpt lat="39.354910" lon="-5.426627">
        <ele>436.4</ele>
        <time>1970-01-01T00:00:00Z</time>
      </trkpt>
      <trkpt lat="39.354939" lon="-5.426514">
        <ele>436.0</ele>
        <time>1970-01-01T00:00:00Z</time>
      </trkpt>
      <trkpt lat="39.354939" lon="-5.426514">
        <ele>436.0</ele>
        <time>1970-01-01T00:00:00Z</time>
      </trkpt>
      <trkpt lat="39.354939" lon="-5.426514">
        <ele>436.0</ele>
        <time>1970-01-01T00:00:00Z</time>
      </trkpt>
      <trkpt lat="39.354939" lon="-5.426514">
        <ele>436.0</ele>
        <time>1970-01-01T00:00:00Z</time>
      </trkpt>
      <trkpt lat="39.354977" lon="-5.426393">
        <ele>436.0</ele>
        <time>1970-01-01T00:00:00Z</time>
      </trkpt>
      <trkpt lat="39.354977" lon="-5.426393">
        <ele>436.0</ele>
        <time>1970-01-01T00:00:00Z</time>
      </trkpt>
      <trkpt lat="39.354977" lon="-5.426393">
        <ele>436.0</ele>
        <time>1970-01-01T00:00:00Z</time>
      </trkpt>
      <trkpt lat="39.354977" lon="-5.426393">
        <ele>436.0</ele>
        <time>1970-01-01T00:00:00Z</time>
      </trkpt>
      <trkpt lat="39.355029" lon="-5.426065">
        <ele>436.1</ele>
        <time>1970-01-01T00:00:00Z</time>
      </trkpt>
      <trkpt lat="39.355029" lon="-5.426065">
        <ele>436.1</ele>
        <time>1970-01-01T00:00:00Z</time>
      </trkpt>
      <trkpt lat="39.355029" lon="-5.426065">
        <ele>436.1</ele>
        <time>1970-01-01T00:00:00Z</time>
      </trkpt>
      <trkpt lat="39.355029" lon="-5.426065">
        <ele>436.1</ele>
        <time>1970-01-01T00:00:00Z</time>
      </trkpt>
      <trkpt lat="39.355081" lon="-5.425685">
        <ele>436.8</ele>
        <time>1970-01-01T00:00:00Z</time>
      </trkpt>
      <trkpt lat="39.355081" lon="-5.425685">
        <ele>436.8</ele>
        <time>1970-01-01T00:00:00Z</time>
      </trkpt>
      <trkpt lat="39.355081" lon="-5.425685">
        <ele>436.8</ele>
        <time>1970-01-01T00:00:00Z</time>
      </trkpt>
      <trkpt lat="39.355081" lon="-5.425685">
        <ele>436.8</ele>
        <time>1970-01-01T00:00:00Z</time>
      </trkpt>
      <trkpt lat="39.355154" lon="-5.425228">
        <ele>438.7</ele>
        <time>1970-01-01T00:00:00Z</time>
      </trkpt>
      <trkpt lat="39.355154" lon="-5.425228">
        <ele>438.7</ele>
        <time>1970-01-01T00:00:00Z</time>
      </trkpt>
      <trkpt lat="39.355154" lon="-5.425228">
        <ele>438.7</ele>
        <time>1970-01-01T00:00:00Z</time>
      </trkpt>
      <trkpt lat="39.355154" lon="-5.425228">
        <ele>438.7</ele>
        <time>1970-01-01T00:00:00Z</time>
      </trkpt>
      <trkpt lat="39.355211" lon="-5.424835">
        <ele>442.0</ele>
        <time>1970-01-01T00:00:00Z</time>
      </trkpt>
      <trkpt lat="39.355211" lon="-5.424835">
        <ele>442.0</ele>
        <time>1970-01-01T00:00:00Z</time>
      </trkpt>
      <trkpt lat="39.355211" lon="-5.424835">
        <ele>442.0</ele>
        <time>1970-01-01T00:00:00Z</time>
      </trkpt>
      <trkpt lat="39.355211" lon="-5.424835">
        <ele>442.0</ele>
        <time>1970-01-01T00:00:00Z</time>
      </trkpt>
      <trkpt lat="39.355294" lon="-5.424332">
        <ele>445.2</ele>
        <time>1970-01-01T00:00:00Z</time>
      </trkpt>
      <trkpt lat="39.355294" lon="-5.424332">
        <ele>445.2</ele>
        <time>1970-01-01T00:00:00Z</time>
      </trkpt>
      <trkpt lat="39.355294" lon="-5.424332">
        <ele>445.2</ele>
        <time>1970-01-01T00:00:00Z</time>
      </trkpt>
      <trkpt lat="39.355294" lon="-5.424332">
        <ele>445.2</ele>
        <time>1970-01-01T00:00:00Z</time>
      </trkpt>
      <trkpt lat="39.355348" lon="-5.424023">
        <ele>447.1</ele>
        <time>1970-01-01T00:00:00Z</time>
      </trkpt>
      <trkpt lat="39.355348" lon="-5.424023">
        <ele>447.1</ele>
        <time>1970-01-01T00:00:00Z</time>
      </trkpt>
      <trkpt lat="39.355348" lon="-5.424023">
        <ele>447.1</ele>
        <time>1970-01-01T00:00:00Z</time>
      </trkpt>
      <trkpt lat="39.355348" lon="-5.424023">
        <ele>447.1</ele>
        <time>1970-01-01T00:00:00Z</time>
      </trkpt>
      <trkpt lat="39.355391" lon="-5.423753">
        <ele>448.5</ele>
        <time>1970-01-01T00:00:00Z</time>
      </trkpt>
      <trkpt lat="39.355391" lon="-5.423753">
        <ele>448.5</ele>
        <time>1970-01-01T00:00:00Z</time>
      </trkpt>
      <trkpt lat="39.355391" lon="-5.423753">
        <ele>448.5</ele>
        <time>1970-01-01T00:00:00Z</time>
      </trkpt>
      <trkpt lat="39.355391" lon="-5.423753">
        <ele>448.5</ele>
        <time>1970-01-01T00:00:00Z</time>
      </trkpt>
      <trkpt lat="39.355410" lon="-5.423633">
        <ele>449.1</ele>
        <time>1970-01-01T00:00:00Z</time>
      </trkpt>
      <trkpt lat="39.355410" lon="-5.423633">
        <ele>449.1</ele>
        <time>1970-01-01T00:00:00Z</time>
      </trkpt>
      <trkpt lat="39.355410" lon="-5.423633">
        <ele>449.1</ele>
        <time>1970-01-01T00:00:00Z</time>
      </trkpt>
      <trkpt lat="39.355410" lon="-5.423633">
        <ele>449.1</ele>
        <time>1970-01-01T00:00:00Z</time>
      </trkpt>
      <trkpt lat="39.355431" lon="-5.423441">
        <ele>450.0</ele>
        <time>1970-01-01T00:00:00Z</time>
      </trkpt>
      <trkpt lat="39.355431" lon="-5.423441">
        <ele>450.0</ele>
        <time>1970-01-01T00:00:00Z</time>
      </trkpt>
      <trkpt lat="39.355431" lon="-5.423441">
        <ele>450.0</ele>
        <time>1970-01-01T00:00:00Z</time>
      </trkpt>
      <trkpt lat="39.355431" lon="-5.423441">
        <ele>450.0</ele>
        <time>1970-01-01T00:00:00Z</time>
      </trkpt>
      <trkpt lat="39.355442" lon="-5.423252">
        <ele>450.8</ele>
        <time>1970-01-01T00:00:00Z</time>
      </trkpt>
      <trkpt lat="39.355442" lon="-5.423252">
        <ele>450.8</ele>
        <time>1970-01-01T00:00:00Z</time>
      </trkpt>
      <trkpt lat="39.355442" lon="-5.423252">
        <ele>450.8</ele>
        <time>1970-01-01T00:00:00Z</time>
      </trkpt>
      <trkpt lat="39.355442" lon="-5.423252">
        <ele>450.8</ele>
        <time>1970-01-01T00:00:00Z</time>
      </trkpt>
      <trkpt lat="39.355467" lon="-5.423029">
        <ele>451.1</ele>
        <time>1970-01-01T00:00:00Z</time>
      </trkpt>
      <trkpt lat="39.355467" lon="-5.423029">
        <ele>451.1</ele>
        <time>1970-01-01T00:00:00Z</time>
      </trkpt>
      <trkpt lat="39.355467" lon="-5.423029">
        <ele>451.1</ele>
        <time>1970-01-01T00:00:00Z</time>
      </trkpt>
      <trkpt lat="39.355467" lon="-5.423029">
        <ele>451.1</ele>
        <time>1970-01-01T00:00:00Z</time>
      </trkpt>
      <trkpt lat="39.355521" lon="-5.422759">
        <ele>451.3</ele>
        <time>1970-01-01T00:00:00Z</time>
      </trkpt>
      <trkpt lat="39.355521" lon="-5.422759">
        <ele>451.3</ele>
        <time>1970-01-01T00:00:00Z</time>
      </trkpt>
      <trkpt lat="39.355521" lon="-5.422759">
        <ele>451.3</ele>
        <time>1970-01-01T00:00:00Z</time>
      </trkpt>
      <trkpt lat="39.355521" lon="-5.422759">
        <ele>451.3</ele>
        <time>1970-01-01T00:00:00Z</time>
      </trkpt>
      <trkpt lat="39.355598" lon="-5.422477">
        <ele>451.0</ele>
        <time>1970-01-01T00:00:00Z</time>
      </trkpt>
      <trkpt lat="39.355598" lon="-5.422477">
        <ele>451.0</ele>
        <time>1970-01-01T00:00:00Z</time>
      </trkpt>
      <trkpt lat="39.355598" lon="-5.422477">
        <ele>451.0</ele>
        <time>1970-01-01T00:00:00Z</time>
      </trkpt>
      <trkpt lat="39.355598" lon="-5.422477">
        <ele>451.0</ele>
        <time>1970-01-01T00:00:00Z</time>
      </trkpt>
      <trkpt lat="39.355698" lon="-5.422121">
        <ele>449.5</ele>
        <time>1970-01-01T00:00:00Z</time>
      </trkpt>
      <trkpt lat="39.355698" lon="-5.422121">
        <ele>449.5</ele>
        <time>1970-01-01T00:00:00Z</time>
      </trkpt>
      <trkpt lat="39.355698" lon="-5.422121">
        <ele>449.5</ele>
        <time>1970-01-01T00:00:00Z</time>
      </trkpt>
      <trkpt lat="39.355698" lon="-5.422121">
        <ele>449.5</ele>
        <time>1970-01-01T00:00:00Z</time>
      </trkpt>
      <trkpt lat="39.355750" lon="-5.422005">
        <ele>449.0</ele>
        <time>1970-01-01T00:00:00Z</time>
      </trkpt>
      <trkpt lat="39.355750" lon="-5.422005">
        <ele>449.0</ele>
        <time>1970-01-01T00:00:00Z</time>
      </trkpt>
      <trkpt lat="39.355750" lon="-5.422005">
        <ele>449.0</ele>
        <time>1970-01-01T00:00:00Z</time>
      </trkpt>
      <trkpt lat="39.355750" lon="-5.422005">
        <ele>449.0</ele>
        <time>1970-01-01T00:00:00Z</time>
      </trkpt>
      <trkpt lat="39.355805" lon="-5.421924">
        <ele>448.6</ele>
        <time>1970-01-01T00:00:00Z</time>
      </trkpt>
      <trkpt lat="39.355805" lon="-5.421924">
        <ele>448.6</ele>
        <time>1970-01-01T00:00:00Z</time>
      </trkpt>
      <trkpt lat="39.355805" lon="-5.421924">
        <ele>448.6</ele>
        <time>1970-01-01T00:00:00Z</time>
      </trkpt>
      <trkpt lat="39.355805" lon="-5.421924">
        <ele>448.6</ele>
        <time>1970-01-01T00:00:00Z</time>
      </trkpt>
      <trkpt lat="39.355858" lon="-5.421865">
        <ele>448.2</ele>
        <time>1970-01-01T00:00:00Z</time>
      </trkpt>
      <trkpt lat="39.355858" lon="-5.421865">
        <ele>448.2</ele>
        <time>1970-01-01T00:00:00Z</time>
      </trkpt>
      <trkpt lat="39.355858" lon="-5.421865">
        <ele>448.2</ele>
        <time>1970-01-01T00:00:00Z</time>
      </trkpt>
      <trkpt lat="39.355858" lon="-5.421865">
        <ele>448.2</ele>
        <time>1970-01-01T00:00:00Z</time>
      </trkpt>
      <trkpt lat="39.355949" lon="-5.421778">
        <ele>447.9</ele>
        <time>1970-01-01T00:00:00Z</time>
      </trkpt>
      <trkpt lat="39.355949" lon="-5.421778">
        <ele>447.9</ele>
        <time>1970-01-01T00:00:00Z</time>
      </trkpt>
      <trkpt lat="39.355949" lon="-5.421778">
        <ele>447.9</ele>
        <time>1970-01-01T00:00:00Z</time>
      </trkpt>
      <trkpt lat="39.355949" lon="-5.421778">
        <ele>447.9</ele>
        <time>1970-01-01T00:00:00Z</time>
      </trkpt>
      <trkpt lat="39.356102" lon="-5.421653">
        <ele>448.0</ele>
        <time>1970-01-01T00:00:00Z</time>
      </trkpt>
      <trkpt lat="39.356102" lon="-5.421653">
        <ele>448.0</ele>
        <time>1970-01-01T00:00:00Z</time>
      </trkpt>
      <trkpt lat="39.356102" lon="-5.421653">
        <ele>448.0</ele>
        <time>1970-01-01T00:00:00Z</time>
      </trkpt>
      <trkpt lat="39.356102" lon="-5.421653">
        <ele>448.0</ele>
        <time>1970-01-01T00:00:00Z</time>
      </trkpt>
      <trkpt lat="39.356237" lon="-5.421522">
        <ele>448.1</ele>
        <time>1970-01-01T00:00:00Z</time>
      </trkpt>
      <trkpt lat="39.356237" lon="-5.421522">
        <ele>448.1</ele>
        <time>1970-01-01T00:00:00Z</time>
      </trkpt>
      <trkpt lat="39.356237" lon="-5.421522">
        <ele>448.1</ele>
        <time>1970-01-01T00:00:00Z</time>
      </trkpt>
      <trkpt lat="39.356237" lon="-5.421522">
        <ele>448.1</ele>
        <time>1970-01-01T00:00:00Z</time>
      </trkpt>
      <trkpt lat="39.356516" lon="-5.421232">
        <ele>447.8</ele>
        <time>1970-01-01T00:00:00Z</time>
      </trkpt>
      <trkpt lat="39.356516" lon="-5.421232">
        <ele>447.8</ele>
        <time>1970-01-01T00:00:00Z</time>
      </trkpt>
      <trkpt lat="39.356516" lon="-5.421232">
        <ele>447.8</ele>
        <time>1970-01-01T00:00:00Z</time>
      </trkpt>
      <trkpt lat="39.356516" lon="-5.421232">
        <ele>447.8</ele>
        <time>1970-01-01T00:00:00Z</time>
      </trkpt>
      <trkpt lat="39.356655" lon="-5.421099">
        <ele>448.1</ele>
        <time>1970-01-01T00:00:00Z</time>
      </trkpt>
      <trkpt lat="39.356655" lon="-5.421099">
        <ele>448.1</ele>
        <time>1970-01-01T00:00:00Z</time>
      </trkpt>
      <trkpt lat="39.356655" lon="-5.421099">
        <ele>448.1</ele>
        <time>1970-01-01T00:00:00Z</time>
      </trkpt>
      <trkpt lat="39.356655" lon="-5.421099">
        <ele>448.1</ele>
        <time>1970-01-01T00:00:00Z</time>
      </trkpt>
      <trkpt lat="39.356798" lon="-5.420961">
        <ele>448.1</ele>
        <time>1970-01-01T00:00:00Z</time>
      </trkpt>
      <trkpt lat="39.356798" lon="-5.420961">
        <ele>448.1</ele>
        <time>1970-01-01T00:00:00Z</time>
      </trkpt>
      <trkpt lat="39.356798" lon="-5.420961">
        <ele>448.1</ele>
        <time>1970-01-01T00:00:00Z</time>
      </trkpt>
      <trkpt lat="39.356798" lon="-5.420961">
        <ele>448.1</ele>
        <time>1970-01-01T00:00:00Z</time>
      </trkpt>
      <trkpt lat="39.356917" lon="-5.420840">
        <ele>448.6</ele>
        <time>1970-01-01T00:00:00Z</time>
      </trkpt>
      <trkpt lat="39.356917" lon="-5.420840">
        <ele>448.6</ele>
        <time>1970-01-01T00:00:00Z</time>
      </trkpt>
      <trkpt lat="39.356917" lon="-5.420840">
        <ele>448.6</ele>
        <time>1970-01-01T00:00:00Z</time>
      </trkpt>
      <trkpt lat="39.356917" lon="-5.420840">
        <ele>448.6</ele>
        <time>1970-01-01T00:00:00Z</time>
      </trkpt>
      <trkpt lat="39.357009" lon="-5.420725">
        <ele>448.8</ele>
        <time>1970-01-01T00:00:00Z</time>
      </trkpt>
      <trkpt lat="39.357009" lon="-5.420725">
        <ele>448.8</ele>
        <time>1970-01-01T00:00:00Z</time>
      </trkpt>
      <trkpt lat="39.357009" lon="-5.420725">
        <ele>448.8</ele>
        <time>1970-01-01T00:00:00Z</time>
      </trkpt>
      <trkpt lat="39.357009" lon="-5.420725">
        <ele>448.8</ele>
        <time>1970-01-01T00:00:00Z</time>
      </trkpt>
      <trkpt lat="39.357107" lon="-5.420606">
        <ele>449.2</ele>
        <time>1970-01-01T00:00:00Z</time>
      </trkpt>
      <trkpt lat="39.357107" lon="-5.420606">
        <ele>449.2</ele>
        <time>1970-01-01T00:00:00Z</time>
      </trkpt>
      <trkpt lat="39.357107" lon="-5.420606">
        <ele>449.2</ele>
        <time>1970-01-01T00:00:00Z</time>
      </trkpt>
      <trkpt lat="39.357107" lon="-5.420606">
        <ele>449.2</ele>
        <time>1970-01-01T00:00:00Z</time>
      </trkpt>
      <trkpt lat="39.357197" lon="-5.420482">
        <ele>449.8</ele>
        <time>1970-01-01T00:00:00Z</time>
      </trkpt>
      <trkpt lat="39.357197" lon="-5.420482">
        <ele>449.8</ele>
        <time>1970-01-01T00:00:00Z</time>
      </trkpt>
      <trkpt lat="39.357197" lon="-5.420482">
        <ele>449.8</ele>
        <time>1970-01-01T00:00:00Z</time>
      </trkpt>
      <trkpt lat="39.357197" lon="-5.420482">
        <ele>449.8</ele>
        <time>1970-01-01T00:00:00Z</time>
      </trkpt>
      <trkpt lat="39.357261" lon="-5.420382">
        <ele>449.9</ele>
        <time>1970-01-01T00:00:00Z</time>
      </trkpt>
      <trkpt lat="39.357261" lon="-5.420382">
        <ele>449.9</ele>
        <time>1970-01-01T00:00:00Z</time>
      </trkpt>
      <trkpt lat="39.357261" lon="-5.420382">
        <ele>449.9</ele>
        <time>1970-01-01T00:00:00Z</time>
      </trkpt>
      <trkpt lat="39.357261" lon="-5.420382">
        <ele>449.9</ele>
        <time>1970-01-01T00:00:00Z</time>
      </trkpt>
      <trkpt lat="39.357313" lon="-5.420309">
        <ele>449.9</ele>
        <time>1970-01-01T00:00:00Z</time>
      </trkpt>
      <trkpt lat="39.357313" lon="-5.420309">
        <ele>449.9</ele>
        <time>1970-01-01T00:00:00Z</time>
      </trkpt>
      <trkpt lat="39.357313" lon="-5.420309">
        <ele>449.9</ele>
        <time>1970-01-01T00:00:00Z</time>
      </trkpt>
      <trkpt lat="39.357313" lon="-5.420309">
        <ele>449.9</ele>
        <time>1970-01-01T00:00:00Z</time>
      </trkpt>
      <trkpt lat="39.357362" lon="-5.420227">
        <ele>449.6</ele>
        <time>1970-01-01T00:00:00Z</time>
      </trkpt>
      <trkpt lat="39.357362" lon="-5.420227">
        <ele>449.6</ele>
        <time>1970-01-01T00:00:00Z</time>
      </trkpt>
      <trkpt lat="39.357362" lon="-5.420227">
        <ele>449.6</ele>
        <time>1970-01-01T00:00:00Z</time>
      </trkpt>
      <trkpt lat="39.357362" lon="-5.420227">
        <ele>449.6</ele>
        <time>1970-01-01T00:00:00Z</time>
      </trkpt>
      <trkpt lat="39.357392" lon="-5.420162">
        <ele>449.4</ele>
        <time>1970-01-01T00:00:00Z</time>
      </trkpt>
      <trkpt lat="39.357392" lon="-5.420162">
        <ele>449.4</ele>
        <time>1970-01-01T00:00:00Z</time>
      </trkpt>
      <trkpt lat="39.357392" lon="-5.420162">
        <ele>449.4</ele>
        <time>1970-01-01T00:00:00Z</time>
      </trkpt>
      <trkpt lat="39.357392" lon="-5.420162">
        <ele>449.4</ele>
        <time>1970-01-01T00:00:00Z</time>
      </trkpt>
      <trkpt lat="39.357399" lon="-5.420103">
        <ele>449.1</ele>
        <time>1970-01-01T00:00:00Z</time>
      </trkpt>
      <trkpt lat="39.357399" lon="-5.420103">
        <ele>449.1</ele>
        <time>1970-01-01T00:00:00Z</time>
      </trkpt>
      <trkpt lat="39.357399" lon="-5.420103">
        <ele>449.1</ele>
        <time>1970-01-01T00:00:00Z</time>
      </trkpt>
      <trkpt lat="39.357399" lon="-5.420103">
        <ele>449.1</ele>
        <time>1970-01-01T00:00:00Z</time>
      </trkpt>
      <trkpt lat="39.357396" lon="-5.420044">
        <ele>448.7</ele>
        <time>1970-01-01T00:00:00Z</time>
      </trkpt>
      <trkpt lat="39.357396" lon="-5.420044">
        <ele>448.7</ele>
        <time>1970-01-01T00:00:00Z</time>
      </trkpt>
      <trkpt lat="39.357396" lon="-5.420044">
        <ele>448.7</ele>
        <time>1970-01-01T00:00:00Z</time>
      </trkpt>
      <trkpt lat="39.357396" lon="-5.420044">
        <ele>448.7</ele>
        <time>1970-01-01T00:00:00Z</time>
      </trkpt>
      <trkpt lat="39.357399" lon="-5.419985">
        <ele>448.3</ele>
        <time>1970-01-01T00:00:00Z</time>
      </trkpt>
      <trkpt lat="39.357399" lon="-5.419985">
        <ele>448.3</ele>
        <time>1970-01-01T00:00:00Z</time>
      </trkpt>
      <trkpt lat="39.357399" lon="-5.419985">
        <ele>448.3</ele>
        <time>1970-01-01T00:00:00Z</time>
      </trkpt>
      <trkpt lat="39.357399" lon="-5.419985">
        <ele>448.3</ele>
        <time>1970-01-01T00:00:00Z</time>
      </trkpt>
      <trkpt lat="39.357415" lon="-5.419917">
        <ele>448.1</ele>
        <time>1970-01-01T00:00:00Z</time>
      </trkpt>
      <trkpt lat="39.357415" lon="-5.419917">
        <ele>448.1</ele>
        <time>1970-01-01T00:00:00Z</time>
      </trkpt>
      <trkpt lat="39.357415" lon="-5.419917">
        <ele>448.1</ele>
        <time>1970-01-01T00:00:00Z</time>
      </trkpt>
      <trkpt lat="39.357415" lon="-5.419917">
        <ele>448.1</ele>
        <time>1970-01-01T00:00:00Z</time>
      </trkpt>
      <trkpt lat="39.357492" lon="-5.419701">
        <ele>447.4</ele>
        <time>1970-01-01T00:00:00Z</time>
      </trkpt>
      <trkpt lat="39.357492" lon="-5.419701">
        <ele>447.4</ele>
        <time>1970-01-01T00:00:00Z</time>
      </trkpt>
      <trkpt lat="39.357492" lon="-5.419701">
        <ele>447.4</ele>
        <time>1970-01-01T00:00:00Z</time>
      </trkpt>
      <trkpt lat="39.357492" lon="-5.419701">
        <ele>447.4</ele>
        <time>1970-01-01T00:00:00Z</time>
      </trkpt>
      <trkpt lat="39.357534" lon="-5.419601">
        <ele>447.4</ele>
        <time>1970-01-01T00:00:00Z</time>
      </trkpt>
      <trkpt lat="39.357534" lon="-5.419601">
        <ele>447.4</ele>
        <time>1970-01-01T00:00:00Z</time>
      </trkpt>
      <trkpt lat="39.357534" lon="-5.419601">
        <ele>447.4</ele>
        <time>1970-01-01T00:00:00Z</time>
      </trkpt>
      <trkpt lat="39.357534" lon="-5.419601">
        <ele>447.4</ele>
        <time>1970-01-01T00:00:00Z</time>
      </trkpt>
      <trkpt lat="39.357593" lon="-5.419441">
        <ele>447.4</ele>
        <time>1970-01-01T00:00:00Z</time>
      </trkpt>
      <trkpt lat="39.357593" lon="-5.419441">
        <ele>447.4</ele>
        <time>1970-01-01T00:00:00Z</time>
      </trkpt>
      <trkpt lat="39.357593" lon="-5.419441">
        <ele>447.4</ele>
        <time>1970-01-01T00:00:00Z</time>
      </trkpt>
      <trkpt lat="39.357593" lon="-5.419441">
        <ele>447.4</ele>
        <time>1970-01-01T00:00:00Z</time>
      </trkpt>
      <trkpt lat="39.357645" lon="-5.419297">
        <ele>447.5</ele>
        <time>1970-01-01T00:00:00Z</time>
      </trkpt>
      <trkpt lat="39.357645" lon="-5.419297">
        <ele>447.5</ele>
        <time>1970-01-01T00:00:00Z</time>
      </trkpt>
      <trkpt lat="39.357645" lon="-5.419297">
        <ele>447.5</ele>
        <time>1970-01-01T00:00:00Z</time>
      </trkpt>
      <trkpt lat="39.357645" lon="-5.419297">
        <ele>447.5</ele>
        <time>1970-01-01T00:00:00Z</time>
      </trkpt>
      <trkpt lat="39.357705" lon="-5.419099">
        <ele>447.8</ele>
        <time>1970-01-01T00:00:00Z</time>
      </trkpt>
      <trkpt lat="39.357705" lon="-5.419099">
        <ele>447.8</ele>
        <time>1970-01-01T00:00:00Z</time>
      </trkpt>
      <trkpt lat="39.357705" lon="-5.419099">
        <ele>447.8</ele>
        <time>1970-01-01T00:00:00Z</time>
      </trkpt>
      <trkpt lat="39.357705" lon="-5.419099">
        <ele>447.8</ele>
        <time>1970-01-01T00:00:00Z</time>
      </trkpt>
      <trkpt lat="39.357744" lon="-5.418928">
        <ele>447.9</ele>
        <time>1970-01-01T00:00:00Z</time>
      </trkpt>
      <trkpt lat="39.357744" lon="-5.418928">
        <ele>447.9</ele>
        <time>1970-01-01T00:00:00Z</time>
      </trkpt>
      <trkpt lat="39.357744" lon="-5.418928">
        <ele>447.9</ele>
        <time>1970-01-01T00:00:00Z</time>
      </trkpt>
      <trkpt lat="39.357744" lon="-5.418928">
        <ele>447.9</ele>
        <time>1970-01-01T00:00:00Z</time>
      </trkpt>
      <trkpt lat="39.357769" lon="-5.418849">
        <ele>448.0</ele>
        <time>1970-01-01T00:00:00Z</time>
      </trkpt>
      <trkpt lat="39.357769" lon="-5.418849">
        <ele>448.0</ele>
        <time>1970-01-01T00:00:00Z</time>
      </trkpt>
      <trkpt lat="39.357769" lon="-5.418849">
        <ele>448.0</ele>
        <time>1970-01-01T00:00:00Z</time>
      </trkpt>
      <trkpt lat="39.357769" lon="-5.418849">
        <ele>448.0</ele>
        <time>1970-01-01T00:00:00Z</time>
      </trkpt>
      <trkpt lat="39.357794" lon="-5.418756">
        <ele>448.1</ele>
        <time>1970-01-01T00:00:00Z</time>
      </trkpt>
      <trkpt lat="39.357794" lon="-5.418756">
        <ele>448.1</ele>
        <time>1970-01-01T00:00:00Z</time>
      </trkpt>
      <trkpt lat="39.357794" lon="-5.418756">
        <ele>448.1</ele>
        <time>1970-01-01T00:00:00Z</time>
      </trkpt>
      <trkpt lat="39.357794" lon="-5.418756">
        <ele>448.1</ele>
        <time>1970-01-01T00:00:00Z</time>
      </trkpt>
      <trkpt lat="39.357809" lon="-5.418679">
        <ele>448.2</ele>
        <time>1970-01-01T00:00:00Z</time>
      </trkpt>
      <trkpt lat="39.357809" lon="-5.418679">
        <ele>448.2</ele>
        <time>1970-01-01T00:00:00Z</time>
      </trkpt>
      <trkpt lat="39.357809" lon="-5.418679">
        <ele>448.2</ele>
        <time>1970-01-01T00:00:00Z</time>
      </trkpt>
      <trkpt lat="39.357809" lon="-5.418679">
        <ele>448.2</ele>
        <time>1970-01-01T00:00:00Z</time>
      </trkpt>
      <trkpt lat="39.357839" lon="-5.418525">
        <ele>448.3</ele>
        <time>1970-01-01T00:00:00Z</time>
      </trkpt>
      <trkpt lat="39.357839" lon="-5.418525">
        <ele>448.3</ele>
        <time>1970-01-01T00:00:00Z</time>
      </trkpt>
      <trkpt lat="39.357839" lon="-5.418525">
        <ele>448.3</ele>
        <time>1970-01-01T00:00:00Z</time>
      </trkpt>
      <trkpt lat="39.357839" lon="-5.418525">
        <ele>448.3</ele>
        <time>1970-01-01T00:00:00Z</time>
      </trkpt>
      <trkpt lat="39.357867" lon="-5.418359">
        <ele>448.4</ele>
        <time>1970-01-01T00:00:00Z</time>
      </trkpt>
      <trkpt lat="39.357867" lon="-5.418359">
        <ele>448.4</ele>
        <time>1970-01-01T00:00:00Z</time>
      </trkpt>
      <trkpt lat="39.357867" lon="-5.418359">
        <ele>448.4</ele>
        <time>1970-01-01T00:00:00Z</time>
      </trkpt>
      <trkpt lat="39.357867" lon="-5.418359">
        <ele>448.4</ele>
        <time>1970-01-01T00:00:00Z</time>
      </trkpt>
      <trkpt lat="39.357889" lon="-5.418281">
        <ele>448.4</ele>
        <time>1970-01-01T00:00:00Z</time>
      </trkpt>
      <trkpt lat="39.357889" lon="-5.418281">
        <ele>448.4</ele>
        <time>1970-01-01T00:00:00Z</time>
      </trkpt>
      <trkpt lat="39.357889" lon="-5.418281">
        <ele>448.4</ele>
        <time>1970-01-01T00:00:00Z</time>
      </trkpt>
      <trkpt lat="39.357889" lon="-5.418281">
        <ele>448.4</ele>
        <time>1970-01-01T00:00:00Z</time>
      </trkpt>
      <trkpt lat="39.357939" lon="-5.418165">
        <ele>448.6</ele>
        <time>1970-01-01T00:00:00Z</time>
      </trkpt>
      <trkpt lat="39.357939" lon="-5.418165">
        <ele>448.6</ele>
        <time>1970-01-01T00:00:00Z</time>
      </trkpt>
      <trkpt lat="39.357939" lon="-5.418165">
        <ele>448.6</ele>
        <time>1970-01-01T00:00:00Z</time>
      </trkpt>
      <trkpt lat="39.357939" lon="-5.418165">
        <ele>448.6</ele>
        <time>1970-01-01T00:00:00Z</time>
      </trkpt>
      <trkpt lat="39.358011" lon="-5.418030">
        <ele>449.0</ele>
        <time>1970-01-01T00:00:00Z</time>
      </trkpt>
      <trkpt lat="39.358011" lon="-5.418030">
        <ele>449.0</ele>
        <time>1970-01-01T00:00:00Z</time>
      </trkpt>
      <trkpt lat="39.358011" lon="-5.418030">
        <ele>449.0</ele>
        <time>1970-01-01T00:00:00Z</time>
      </trkpt>
      <trkpt lat="39.358011" lon="-5.418030">
        <ele>449.0</ele>
        <time>1970-01-01T00:00:00Z</time>
      </trkpt>
      <trkpt lat="39.358055" lon="-5.417950">
        <ele>449.1</ele>
        <time>1970-01-01T00:00:00Z</time>
      </trkpt>
      <trkpt lat="39.358055" lon="-5.417950">
        <ele>449.1</ele>
        <time>1970-01-01T00:00:00Z</time>
      </trkpt>
      <trkpt lat="39.358055" lon="-5.417950">
        <ele>449.1</ele>
        <time>1970-01-01T00:00:00Z</time>
      </trkpt>
      <trkpt lat="39.358055" lon="-5.417950">
        <ele>449.1</ele>
        <time>1970-01-01T00:00:00Z</time>
      </trkpt>
      <trkpt lat="39.358086" lon="-5.417876">
        <ele>448.9</ele>
        <time>1970-01-01T00:00:00Z</time>
      </trkpt>
      <trkpt lat="39.358086" lon="-5.417876">
        <ele>448.9</ele>
        <time>1970-01-01T00:00:00Z</time>
      </trkpt>
      <trkpt lat="39.358086" lon="-5.417876">
        <ele>448.9</ele>
        <time>1970-01-01T00:00:00Z</time>
      </trkpt>
      <trkpt lat="39.358086" lon="-5.417876">
        <ele>448.9</ele>
        <time>1970-01-01T00:00:00Z</time>
      </trkpt>
      <trkpt lat="39.358117" lon="-5.417800">
        <ele>448.8</ele>
        <time>1970-01-01T00:00:00Z</time>
      </trkpt>
      <trkpt lat="39.358117" lon="-5.417800">
        <ele>448.8</ele>
        <time>1970-01-01T00:00:00Z</time>
      </trkpt>
      <trkpt lat="39.358117" lon="-5.417800">
        <ele>448.8</ele>
        <time>1970-01-01T00:00:00Z</time>
      </trkpt>
      <trkpt lat="39.358117" lon="-5.417800">
        <ele>448.8</ele>
        <time>1970-01-01T00:00:00Z</time>
      </trkpt>
      <trkpt lat="39.358151" lon="-5.417705">
        <ele>448.7</ele>
        <time>1970-01-01T00:00:00Z</time>
      </trkpt>
      <trkpt lat="39.358151" lon="-5.417705">
        <ele>448.7</ele>
        <time>1970-01-01T00:00:00Z</time>
      </trkpt>
      <trkpt lat="39.358151" lon="-5.417705">
        <ele>448.7</ele>
        <time>1970-01-01T00:00:00Z</time>
      </trkpt>
      <trkpt lat="39.358151" lon="-5.417705">
        <ele>448.7</ele>
        <time>1970-01-01T00:00:00Z</time>
      </trkpt>
      <trkpt lat="39.358184" lon="-5.417605">
        <ele>448.3</ele>
        <time>1970-01-01T00:00:00Z</time>
      </trkpt>
      <trkpt lat="39.358184" lon="-5.417605">
        <ele>448.3</ele>
        <time>1970-01-01T00:00:00Z</time>
      </trkpt>
      <trkpt lat="39.358184" lon="-5.417605">
        <ele>448.3</ele>
        <time>1970-01-01T00:00:00Z</time>
      </trkpt>
      <trkpt lat="39.358184" lon="-5.417605">
        <ele>448.3</ele>
        <time>1970-01-01T00:00:00Z</time>
      </trkpt>
      <trkpt lat="39.358229" lon="-5.417518">
        <ele>447.7</ele>
        <time>1970-01-01T00:00:00Z</time>
      </trkpt>
      <trkpt lat="39.358229" lon="-5.417518">
        <ele>447.7</ele>
        <time>1970-01-01T00:00:00Z</time>
      </trkpt>
      <trkpt lat="39.358229" lon="-5.417518">
        <ele>447.7</ele>
        <time>1970-01-01T00:00:00Z</time>
      </trkpt>
      <trkpt lat="39.358229" lon="-5.417518">
        <ele>447.7</ele>
        <time>1970-01-01T00:00:00Z</time>
      </trkpt>
      <trkpt lat="39.358294" lon="-5.417422">
        <ele>447.2</ele>
        <time>1970-01-01T00:00:00Z</time>
      </trkpt>
      <trkpt lat="39.358294" lon="-5.417422">
        <ele>447.2</ele>
        <time>1970-01-01T00:00:00Z</time>
      </trkpt>
      <trkpt lat="39.358294" lon="-5.417422">
        <ele>447.2</ele>
        <time>1970-01-01T00:00:00Z</time>
      </trkpt>
      <trkpt lat="39.358294" lon="-5.417422">
        <ele>447.2</ele>
        <time>1970-01-01T00:00:00Z</time>
      </trkpt>
      <trkpt lat="39.358343" lon="-5.417284">
        <ele>446.8</ele>
        <time>1970-01-01T00:00:00Z</time>
      </trkpt>
      <trkpt lat="39.358343" lon="-5.417284">
        <ele>446.8</ele>
        <time>1970-01-01T00:00:00Z</time>
      </trkpt>
      <trkpt lat="39.358343" lon="-5.417284">
        <ele>446.8</ele>
        <time>1970-01-01T00:00:00Z</time>
      </trkpt>
      <trkpt lat="39.358343" lon="-5.417284">
        <ele>446.8</ele>
        <time>1970-01-01T00:00:00Z</time>
      </trkpt>
      <trkpt lat="39.358429" lon="-5.416999">
        <ele>446.1</ele>
        <time>1970-01-01T00:00:00Z</time>
      </trkpt>
      <trkpt lat="39.358429" lon="-5.416999">
        <ele>446.1</ele>
        <time>1970-01-01T00:00:00Z</time>
      </trkpt>
      <trkpt lat="39.358429" lon="-5.416999">
        <ele>446.1</ele>
        <time>1970-01-01T00:00:00Z</time>
      </trkpt>
      <trkpt lat="39.358429" lon="-5.416999">
        <ele>446.1</ele>
        <time>1970-01-01T00:00:00Z</time>
      </trkpt>
      <trkpt lat="39.358501" lon="-5.416764">
        <ele>446.0</ele>
        <time>1970-01-01T00:00:00Z</time>
      </trkpt>
      <trkpt lat="39.358501" lon="-5.416764">
        <ele>446.0</ele>
        <time>1970-01-01T00:00:00Z</time>
      </trkpt>
      <trkpt lat="39.358501" lon="-5.416764">
        <ele>446.0</ele>
        <time>1970-01-01T00:00:00Z</time>
      </trkpt>
      <trkpt lat="39.358501" lon="-5.416764">
        <ele>446.0</ele>
        <time>1970-01-01T00:00:00Z</time>
      </trkpt>
      <trkpt lat="39.358547" lon="-5.416623">
        <ele>446.0</ele>
        <time>1970-01-01T00:00:00Z</time>
      </trkpt>
      <trkpt lat="39.358547" lon="-5.416623">
        <ele>446.0</ele>
        <time>1970-01-01T00:00:00Z</time>
      </trkpt>
      <trkpt lat="39.358547" lon="-5.416623">
        <ele>446.0</ele>
        <time>1970-01-01T00:00:00Z</time>
      </trkpt>
      <trkpt lat="39.358547" lon="-5.416623">
        <ele>446.0</ele>
        <time>1970-01-01T00:00:00Z</time>
      </trkpt>
      <trkpt lat="39.358629" lon="-5.416375">
        <ele>446.0</ele>
        <time>1970-01-01T00:00:00Z</time>
      </trkpt>
      <trkpt lat="39.358629" lon="-5.416375">
        <ele>446.0</ele>
        <time>1970-01-01T00:00:00Z</time>
      </trkpt>
      <trkpt lat="39.358629" lon="-5.416375">
        <ele>446.0</ele>
        <time>1970-01-01T00:00:00Z</time>
      </trkpt>
      <trkpt lat="39.358629" lon="-5.416375">
        <ele>446.0</ele>
        <time>1970-01-01T00:00:00Z</time>
      </trkpt>
      <trkpt lat="39.358694" lon="-5.416161">
        <ele>445.5</ele>
        <time>1970-01-01T00:00:00Z</time>
      </trkpt>
      <trkpt lat="39.358694" lon="-5.416161">
        <ele>445.5</ele>
        <time>1970-01-01T00:00:00Z</time>
      </trkpt>
      <trkpt lat="39.358694" lon="-5.416161">
        <ele>445.5</ele>
        <time>1970-01-01T00:00:00Z</time>
      </trkpt>
      <trkpt lat="39.358694" lon="-5.416161">
        <ele>445.5</ele>
        <time>1970-01-01T00:00:00Z</time>
      </trkpt>
      <trkpt lat="39.358762" lon="-5.415930">
        <ele>445.4</ele>
        <time>1970-01-01T00:00:00Z</time>
      </trkpt>
      <trkpt lat="39.358762" lon="-5.415930">
        <ele>445.4</ele>
        <time>1970-01-01T00:00:00Z</time>
      </trkpt>
      <trkpt lat="39.358762" lon="-5.415930">
        <ele>445.4</ele>
        <time>1970-01-01T00:00:00Z</time>
      </trkpt>
      <trkpt lat="39.358762" lon="-5.415930">
        <ele>445.4</ele>
        <time>1970-01-01T00:00:00Z</time>
      </trkpt>
      <trkpt lat="39.358791" lon="-5.415825">
        <ele>445.5</ele>
        <time>1970-01-01T00:00:00Z</time>
      </trkpt>
      <trkpt lat="39.358791" lon="-5.415825">
        <ele>445.5</ele>
        <time>1970-01-01T00:00:00Z</time>
      </trkpt>
      <trkpt lat="39.358791" lon="-5.415825">
        <ele>445.5</ele>
        <time>1970-01-01T00:00:00Z</time>
      </trkpt>
      <trkpt lat="39.358791" lon="-5.415825">
        <ele>445.5</ele>
        <time>1970-01-01T00:00:00Z</time>
      </trkpt>
      <trkpt lat="39.358817" lon="-5.415686">
        <ele>445.8</ele>
        <time>1970-01-01T00:00:00Z</time>
      </trkpt>
      <trkpt lat="39.358817" lon="-5.415686">
        <ele>445.8</ele>
        <time>1970-01-01T00:00:00Z</time>
      </trkpt>
      <trkpt lat="39.358817" lon="-5.415686">
        <ele>445.8</ele>
        <time>1970-01-01T00:00:00Z</time>
      </trkpt>
      <trkpt lat="39.358817" lon="-5.415686">
        <ele>445.8</ele>
        <time>1970-01-01T00:00:00Z</time>
      </trkpt>
      <trkpt lat="39.358863" lon="-5.415392">
        <ele>446.2</ele>
        <time>1970-01-01T00:00:00Z</time>
      </trkpt>
      <trkpt lat="39.358863" lon="-5.415392">
        <ele>446.2</ele>
        <time>1970-01-01T00:00:00Z</time>
      </trkpt>
      <trkpt lat="39.358863" lon="-5.415392">
        <ele>446.2</ele>
        <time>1970-01-01T00:00:00Z</time>
      </trkpt>
      <trkpt lat="39.358863" lon="-5.415392">
        <ele>446.2</ele>
        <time>1970-01-01T00:00:00Z</time>
      </trkpt>
      <trkpt lat="39.358886" lon="-5.415271">
        <ele>446.5</ele>
        <time>1970-01-01T00:00:00Z</time>
      </trkpt>
      <trkpt lat="39.358886" lon="-5.415271">
        <ele>446.5</ele>
        <time>1970-01-01T00:00:00Z</time>
      </trkpt>
      <trkpt lat="39.358886" lon="-5.415271">
        <ele>446.5</ele>
        <time>1970-01-01T00:00:00Z</time>
      </trkpt>
      <trkpt lat="39.358886" lon="-5.415271">
        <ele>446.5</ele>
        <time>1970-01-01T00:00:00Z</time>
      </trkpt>
      <trkpt lat="39.358919" lon="-5.415088">
        <ele>446.8</ele>
        <time>1970-01-01T00:00:00Z</time>
      </trkpt>
      <trkpt lat="39.358919" lon="-5.415088">
        <ele>446.8</ele>
        <time>1970-01-01T00:00:00Z</time>
      </trkpt>
      <trkpt lat="39.358919" lon="-5.415088">
        <ele>446.8</ele>
        <time>1970-01-01T00:00:00Z</time>
      </trkpt>
      <trkpt lat="39.358919" lon="-5.415088">
        <ele>446.8</ele>
        <time>1970-01-01T00:00:00Z</time>
      </trkpt>
      <trkpt lat="39.358965" lon="-5.414782">
        <ele>446.5</ele>
        <time>1970-01-01T00:00:00Z</time>
      </trkpt>
      <trkpt lat="39.358965" lon="-5.414782">
        <ele>446.5</ele>
        <time>1970-01-01T00:00:00Z</time>
      </trkpt>
      <trkpt lat="39.358965" lon="-5.414782">
        <ele>446.5</ele>
        <time>1970-01-01T00:00:00Z</time>
      </trkpt>
      <trkpt lat="39.358965" lon="-5.414782">
        <ele>446.5</ele>
        <time>1970-01-01T00:00:00Z</time>
      </trkpt>
      <trkpt lat="39.359002" lon="-5.414564">
        <ele>447.4</ele>
        <time>1970-01-01T00:00:00Z</time>
      </trkpt>
      <trkpt lat="39.359002" lon="-5.414564">
        <ele>447.4</ele>
        <time>1970-01-01T00:00:00Z</time>
      </trkpt>
      <trkpt lat="39.359002" lon="-5.414564">
        <ele>447.4</ele>
        <time>1970-01-01T00:00:00Z</time>
      </trkpt>
      <trkpt lat="39.359002" lon="-5.414564">
        <ele>447.4</ele>
        <time>1970-01-01T00:00:00Z</time>
      </trkpt>
      <trkpt lat="39.359045" lon="-5.414337">
        <ele>448.0</ele>
        <time>1970-01-01T00:00:00Z</time>
      </trkpt>
      <trkpt lat="39.359045" lon="-5.414337">
        <ele>448.0</ele>
        <time>1970-01-01T00:00:00Z</time>
      </trkpt>
      <trkpt lat="39.359045" lon="-5.414337">
        <ele>448.0</ele>
        <time>1970-01-01T00:00:00Z</time>
      </trkpt>
      <trkpt lat="39.359045" lon="-5.414337">
        <ele>448.0</ele>
        <time>1970-01-01T00:00:00Z</time>
      </trkpt>
      <trkpt lat="39.359088" lon="-5.414086">
        <ele>448.1</ele>
        <time>1970-01-01T00:00:00Z</time>
      </trkpt>
      <trkpt lat="39.359088" lon="-5.414086">
        <ele>448.1</ele>
        <time>1970-01-01T00:00:00Z</time>
      </trkpt>
      <trkpt lat="39.359088" lon="-5.414086">
        <ele>448.1</ele>
        <time>1970-01-01T00:00:00Z</time>
      </trkpt>
      <trkpt lat="39.359088" lon="-5.414086">
        <ele>448.1</ele>
        <time>1970-01-01T00:00:00Z</time>
      </trkpt>
      <trkpt lat="39.359117" lon="-5.413936">
        <ele>448.3</ele>
        <time>1970-01-01T00:00:00Z</time>
      </trkpt>
      <trkpt lat="39.359117" lon="-5.413936">
        <ele>448.3</ele>
        <time>1970-01-01T00:00:00Z</time>
      </trkpt>
      <trkpt lat="39.359117" lon="-5.413936">
        <ele>448.3</ele>
        <time>1970-01-01T00:00:00Z</time>
      </trkpt>
      <trkpt lat="39.359117" lon="-5.413936">
        <ele>448.3</ele>
        <time>1970-01-01T00:00:00Z</time>
      </trkpt>
      <trkpt lat="39.359183" lon="-5.413639">
        <ele>449.4</ele>
        <time>1970-01-01T00:00:00Z</time>
      </trkpt>
      <trkpt lat="39.359183" lon="-5.413639">
        <ele>449.4</ele>
        <time>1970-01-01T00:00:00Z</time>
      </trkpt>
      <trkpt lat="39.359183" lon="-5.413639">
        <ele>449.4</ele>
        <time>1970-01-01T00:00:00Z</time>
      </trkpt>
      <trkpt lat="39.359183" lon="-5.413639">
        <ele>449.4</ele>
        <time>1970-01-01T00:00:00Z</time>
      </trkpt>
      <trkpt lat="39.359270" lon="-5.413311">
        <ele>449.5</ele>
        <time>1970-01-01T00:00:00Z</time>
      </trkpt>
      <trkpt lat="39.359270" lon="-5.413311">
        <ele>449.5</ele>
        <time>1970-01-01T00:00:00Z</time>
      </trkpt>
      <trkpt lat="39.359270" lon="-5.413311">
        <ele>449.5</ele>
        <time>1970-01-01T00:00:00Z</time>
      </trkpt>
      <trkpt lat="39.359270" lon="-5.413311">
        <ele>449.5</ele>
        <time>1970-01-01T00:00:00Z</time>
      </trkpt>
      <trkpt lat="39.359338" lon="-5.413095">
        <ele>449.8</ele>
        <time>1970-01-01T00:00:00Z</time>
      </trkpt>
      <trkpt lat="39.359338" lon="-5.413095">
        <ele>449.8</ele>
        <time>1970-01-01T00:00:00Z</time>
      </trkpt>
      <trkpt lat="39.359338" lon="-5.413095">
        <ele>449.8</ele>
        <time>1970-01-01T00:00:00Z</time>
      </trkpt>
      <trkpt lat="39.359338" lon="-5.413095">
        <ele>449.8</ele>
        <time>1970-01-01T00:00:00Z</time>
      </trkpt>
      <trkpt lat="39.359389" lon="-5.412900">
        <ele>450.6</ele>
        <time>1970-01-01T00:00:00Z</time>
      </trkpt>
      <trkpt lat="39.359389" lon="-5.412900">
        <ele>450.6</ele>
        <time>1970-01-01T00:00:00Z</time>
      </trkpt>
      <trkpt lat="39.359389" lon="-5.412900">
        <ele>450.6</ele>
        <time>1970-01-01T00:00:00Z</time>
      </trkpt>
      <trkpt lat="39.359389" lon="-5.412900">
        <ele>450.6</ele>
        <time>1970-01-01T00:00:00Z</time>
      </trkpt>
      <trkpt lat="39.359445" lon="-5.412706">
        <ele>450.8</ele>
        <time>1970-01-01T00:00:00Z</time>
      </trkpt>
      <trkpt lat="39.359445" lon="-5.412706">
        <ele>450.8</ele>
        <time>1970-01-01T00:00:00Z</time>
      </trkpt>
      <trkpt lat="39.359445" lon="-5.412706">
        <ele>450.8</ele>
        <time>1970-01-01T00:00:00Z</time>
      </trkpt>
      <trkpt lat="39.359445" lon="-5.412706">
        <ele>450.8</ele>
        <time>1970-01-01T00:00:00Z</time>
      </trkpt>
      <trkpt lat="39.359478" lon="-5.412586">
        <ele>451.0</ele>
        <time>1970-01-01T00:00:00Z</time>
      </trkpt>
      <trkpt lat="39.359478" lon="-5.412586">
        <ele>451.0</ele>
        <time>1970-01-01T00:00:00Z</time>
      </trkpt>
      <trkpt lat="39.359478" lon="-5.412586">
        <ele>451.0</ele>
        <time>1970-01-01T00:00:00Z</time>
      </trkpt>
      <trkpt lat="39.359478" lon="-5.412586">
        <ele>451.0</ele>
        <time>1970-01-01T00:00:00Z</time>
      </trkpt>
      <trkpt lat="39.359521" lon="-5.412440">
        <ele>451.8</ele>
        <time>1970-01-01T00:00:00Z</time>
      </trkpt>
      <trkpt lat="39.359521" lon="-5.412440">
        <ele>451.8</ele>
        <time>1970-01-01T00:00:00Z</time>
      </trkpt>
      <trkpt lat="39.359521" lon="-5.412440">
        <ele>451.8</ele>
        <time>1970-01-01T00:00:00Z</time>
      </trkpt>
      <trkpt lat="39.359521" lon="-5.412440">
        <ele>451.8</ele>
        <time>1970-01-01T00:00:00Z</time>
      </trkpt>
      <trkpt lat="39.359562" lon="-5.412319">
        <ele>452.3</ele>
        <time>1970-01-01T00:00:00Z</time>
      </trkpt>
      <trkpt lat="39.359562" lon="-5.412319">
        <ele>452.3</ele>
        <time>1970-01-01T00:00:00Z</time>
      </trkpt>
      <trkpt lat="39.359562" lon="-5.412319">
        <ele>452.3</ele>
        <time>1970-01-01T00:00:00Z</time>
      </trkpt>
      <trkpt lat="39.359562" lon="-5.412319">
        <ele>452.3</ele>
        <time>1970-01-01T00:00:00Z</time>
      </trkpt>
      <trkpt lat="39.359618" lon="-5.412200">
        <ele>452.6</ele>
        <time>1970-01-01T00:00:00Z</time>
      </trkpt>
      <trkpt lat="39.359618" lon="-5.412200">
        <ele>452.6</ele>
        <time>1970-01-01T00:00:00Z</time>
      </trkpt>
      <trkpt lat="39.359618" lon="-5.412200">
        <ele>452.6</ele>
        <time>1970-01-01T00:00:00Z</time>
      </trkpt>
      <trkpt lat="39.359618" lon="-5.412200">
        <ele>452.6</ele>
        <time>1970-01-01T00:00:00Z</time>
      </trkpt>
      <trkpt lat="39.359677" lon="-5.412104">
        <ele>452.8</ele>
        <time>1970-01-01T00:00:00Z</time>
      </trkpt>
      <trkpt lat="39.359677" lon="-5.412104">
        <ele>452.8</ele>
        <time>1970-01-01T00:00:00Z</time>
      </trkpt>
      <trkpt lat="39.359677" lon="-5.412104">
        <ele>452.8</ele>
        <time>1970-01-01T00:00:00Z</time>
      </trkpt>
      <trkpt lat="39.359677" lon="-5.412104">
        <ele>452.8</ele>
        <time>1970-01-01T00:00:00Z</time>
      </trkpt>
      <trkpt lat="39.359733" lon="-5.411980">
        <ele>453.1</ele>
        <time>1970-01-01T00:00:00Z</time>
      </trkpt>
      <trkpt lat="39.359733" lon="-5.411980">
        <ele>453.1</ele>
        <time>1970-01-01T00:00:00Z</time>
      </trkpt>
      <trkpt lat="39.359733" lon="-5.411980">
        <ele>453.1</ele>
        <time>1970-01-01T00:00:00Z</time>
      </trkpt>
      <trkpt lat="39.359733" lon="-5.411980">
        <ele>453.1</ele>
        <time>1970-01-01T00:00:00Z</time>
      </trkpt>
      <trkpt lat="39.359787" lon="-5.411853">
        <ele>453.4</ele>
        <time>1970-01-01T00:00:00Z</time>
      </trkpt>
      <trkpt lat="39.359787" lon="-5.411853">
        <ele>453.4</ele>
        <time>1970-01-01T00:00:00Z</time>
      </trkpt>
      <trkpt lat="39.359787" lon="-5.411853">
        <ele>453.4</ele>
        <time>1970-01-01T00:00:00Z</time>
      </trkpt>
      <trkpt lat="39.359787" lon="-5.411853">
        <ele>453.4</ele>
        <time>1970-01-01T00:00:00Z</time>
      </trkpt>
      <trkpt lat="39.359821" lon="-5.411737">
        <ele>453.7</ele>
        <time>1970-01-01T00:00:00Z</time>
      </trkpt>
      <trkpt lat="39.359821" lon="-5.411737">
        <ele>453.7</ele>
        <time>1970-01-01T00:00:00Z</time>
      </trkpt>
      <trkpt lat="39.359821" lon="-5.411737">
        <ele>453.7</ele>
        <time>1970-01-01T00:00:00Z</time>
      </trkpt>
      <trkpt lat="39.359821" lon="-5.411737">
        <ele>453.7</ele>
        <time>1970-01-01T00:00:00Z</time>
      </trkpt>
      <trkpt lat="39.359869" lon="-5.411590">
        <ele>454.5</ele>
        <time>1970-01-01T00:00:00Z</time>
      </trkpt>
      <trkpt lat="39.359869" lon="-5.411590">
        <ele>454.5</ele>
        <time>1970-01-01T00:00:00Z</time>
      </trkpt>
      <trkpt lat="39.359869" lon="-5.411590">
        <ele>454.5</ele>
        <time>1970-01-01T00:00:00Z</time>
      </trkpt>
      <trkpt lat="39.359869" lon="-5.411590">
        <ele>454.5</ele>
        <time>1970-01-01T00:00:00Z</time>
      </trkpt>
      <trkpt lat="39.359925" lon="-5.411435">
        <ele>455.5</ele>
        <time>1970-01-01T00:00:00Z</time>
      </trkpt>
      <trkpt lat="39.359925" lon="-5.411435">
        <ele>455.5</ele>
        <time>1970-01-01T00:00:00Z</time>
      </trkpt>
      <trkpt lat="39.359925" lon="-5.411435">
        <ele>455.5</ele>
        <time>1970-01-01T00:00:00Z</time>
      </trkpt>
      <trkpt lat="39.359925" lon="-5.411435">
        <ele>455.5</ele>
        <time>1970-01-01T00:00:00Z</time>
      </trkpt>
      <trkpt lat="39.359961" lon="-5.411335">
        <ele>456.1</ele>
        <time>1970-01-01T00:00:00Z</time>
      </trkpt>
      <trkpt lat="39.359961" lon="-5.411335">
        <ele>456.1</ele>
        <time>1970-01-01T00:00:00Z</time>
      </trkpt>
      <trkpt lat="39.359961" lon="-5.411335">
        <ele>456.1</ele>
        <time>1970-01-01T00:00:00Z</time>
      </trkpt>
      <trkpt lat="39.359961" lon="-5.411335">
        <ele>456.1</ele>
        <time>1970-01-01T00:00:00Z</time>
      </trkpt>
      <trkpt lat="39.360025" lon="-5.411210">
        <ele>456.3</ele>
        <time>1970-01-01T00:00:00Z</time>
      </trkpt>
      <trkpt lat="39.360025" lon="-5.411210">
        <ele>456.3</ele>
        <time>1970-01-01T00:00:00Z</time>
      </trkpt>
      <trkpt lat="39.360025" lon="-5.411210">
        <ele>456.3</ele>
        <time>1970-01-01T00:00:00Z</time>
      </trkpt>
      <trkpt lat="39.360025" lon="-5.411210">
        <ele>456.3</ele>
        <time>1970-01-01T00:00:00Z</time>
      </trkpt>
      <trkpt lat="39.360066" lon="-5.411154">
        <ele>456.4</ele>
        <time>1970-01-01T00:00:00Z</time>
      </trkpt>
      <trkpt lat="39.360066" lon="-5.411154">
        <ele>456.4</ele>
        <time>1970-01-01T00:00:00Z</time>
      </trkpt>
      <trkpt lat="39.360066" lon="-5.411154">
        <ele>456.4</ele>
        <time>1970-01-01T00:00:00Z</time>
      </trkpt>
      <trkpt lat="39.360066" lon="-5.411154">
        <ele>456.4</ele>
        <time>1970-01-01T00:00:00Z</time>
      </trkpt>
      <trkpt lat="39.360078" lon="-5.411145">
        <ele>456.4</ele>
        <time>1970-01-01T00:00:00Z</time>
      </trkpt>
      <trkpt lat="39.360078" lon="-5.411145">
        <ele>456.4</ele>
        <time>1970-01-01T00:00:00Z</time>
      </trkpt>
      <trkpt lat="39.360078" lon="-5.411145">
        <ele>456.4</ele>
        <time>1970-01-01T00:00:00Z</time>
      </trkpt>
      <trkpt lat="39.360078" lon="-5.411145">
        <ele>456.4</ele>
        <time>1970-01-01T00:00:00Z</time>
      </trkpt>
      <trkpt lat="39.360080" lon="-5.411144">
        <ele>456.4</ele>
        <time>1970-01-01T00:00:00Z</time>
      </trkpt>
      <trkpt lat="39.360080" lon="-5.411144">
        <ele>456.4</ele>
        <time>1970-01-01T00:00:00Z</time>
      </trkpt>
      <trkpt lat="39.360080" lon="-5.411144">
        <ele>456.4</ele>
        <time>1970-01-01T00:00:00Z</time>
      </trkpt>
      <trkpt lat="39.360080" lon="-5.411144">
        <ele>456.4</ele>
        <time>1970-01-01T00:00:00Z</time>
      </trkpt>
      <trkpt lat="39.360080" lon="-5.411143">
        <ele>456.4</ele>
        <time>1970-01-01T00:00:00Z</time>
      </trkpt>
      <trkpt lat="39.360080" lon="-5.411143">
        <ele>456.4</ele>
        <time>1970-01-01T00:00:00Z</time>
      </trkpt>
      <trkpt lat="39.360080" lon="-5.411143">
        <ele>456.4</ele>
        <time>1970-01-01T00:00:00Z</time>
      </trkpt>
      <trkpt lat="39.360080" lon="-5.411143">
        <ele>456.4</ele>
        <time>1970-01-01T00:00:00Z</time>
      </trkpt>
      <trkpt lat="39.360080" lon="-5.411143">
        <ele>456.4</ele>
        <time>1970-01-01T00:00:00Z</time>
      </trkpt>
      <trkpt lat="39.360080" lon="-5.411143">
        <ele>456.4</ele>
        <time>1970-01-01T00:00:00Z</time>
      </trkpt>
      <trkpt lat="39.360080" lon="-5.411143">
        <ele>456.4</ele>
        <time>1970-01-01T00:00:00Z</time>
      </trkpt>
      <trkpt lat="39.360080" lon="-5.411143">
        <ele>456.4</ele>
        <time>1970-01-01T00:00:00Z</time>
      </trkpt>
      <trkpt lat="39.360093" lon="-5.411133">
        <ele>456.4</ele>
        <time>1970-01-01T00:00:00Z</time>
      </trkpt>
      <trkpt lat="39.360093" lon="-5.411133">
        <ele>456.4</ele>
        <time>1970-01-01T00:00:00Z</time>
      </trkpt>
      <trkpt lat="39.360093" lon="-5.411133">
        <ele>456.4</ele>
        <time>1970-01-01T00:00:00Z</time>
      </trkpt>
      <trkpt lat="39.360093" lon="-5.411133">
        <ele>456.4</ele>
        <time>1970-01-01T00:00:00Z</time>
      </trkpt>
      <trkpt lat="39.360093" lon="-5.411133">
        <ele>456.4</ele>
        <time>1970-01-01T00:00:00Z</time>
      </trkpt>
      <trkpt lat="39.360093" lon="-5.411133">
        <ele>456.4</ele>
        <time>1970-01-01T00:00:00Z</time>
      </trkpt>
      <trkpt lat="39.360093" lon="-5.411133">
        <ele>456.4</ele>
        <time>1970-01-01T00:00:00Z</time>
      </trkpt>
      <trkpt lat="39.360093" lon="-5.411133">
        <ele>456.4</ele>
        <time>1970-01-01T00:00:00Z</time>
      </trkpt>
      <trkpt lat="39.360115" lon="-5.411084">
        <ele>456.7</ele>
        <time>1970-01-01T00:00:00Z</time>
      </trkpt>
      <trkpt lat="39.360115" lon="-5.411084">
        <ele>456.7</ele>
        <time>1970-01-01T00:00:00Z</time>
      </trkpt>
      <trkpt lat="39.360115" lon="-5.411084">
        <ele>456.7</ele>
        <time>1970-01-01T00:00:00Z</time>
      </trkpt>
      <trkpt lat="39.360115" lon="-5.411084">
        <ele>456.7</ele>
        <time>1970-01-01T00:00:00Z</time>
      </trkpt>
      <trkpt lat="39.360120" lon="-5.411033">
        <ele>457.2</ele>
        <time>1970-01-01T00:00:00Z</time>
      </trkpt>
      <trkpt lat="39.360120" lon="-5.411033">
        <ele>457.2</ele>
        <time>1970-01-01T00:00:00Z</time>
      </trkpt>
      <trkpt lat="39.360120" lon="-5.411033">
        <ele>457.2</ele>
        <time>1970-01-01T00:00:00Z</time>
      </trkpt>
      <trkpt lat="39.360120" lon="-5.411033">
        <ele>457.2</ele>
        <time>1970-01-01T00:00:00Z</time>
      </trkpt>
      <trkpt lat="39.360139" lon="-5.410925">
        <ele>458.1</ele>
        <time>1970-01-01T00:00:00Z</time>
      </trkpt>
      <trkpt lat="39.360139" lon="-5.410925">
        <ele>458.1</ele>
        <time>1970-01-01T00:00:00Z</time>
      </trkpt>
      <trkpt lat="39.360139" lon="-5.410925">
        <ele>458.1</ele>
        <time>1970-01-01T00:00:00Z</time>
      </trkpt>
      <trkpt lat="39.360139" lon="-5.410925">
        <ele>458.1</ele>
        <time>1970-01-01T00:00:00Z</time>
      </trkpt>
      <trkpt lat="39.360152" lon="-5.410811">
        <ele>459.1</ele>
        <time>1970-01-01T00:00:00Z</time>
      </trkpt>
      <trkpt lat="39.360152" lon="-5.410811">
        <ele>459.1</ele>
        <time>1970-01-01T00:00:00Z</time>
      </trkpt>
      <trkpt lat="39.360152" lon="-5.410811">
        <ele>459.1</ele>
        <time>1970-01-01T00:00:00Z</time>
      </trkpt>
      <trkpt lat="39.360152" lon="-5.410811">
        <ele>459.1</ele>
        <time>1970-01-01T00:00:00Z</time>
      </trkpt>
      <trkpt lat="39.360165" lon="-5.410747">
        <ele>459.8</ele>
        <time>1970-01-01T00:00:00Z</time>
      </trkpt>
      <trkpt lat="39.360165" lon="-5.410747">
        <ele>459.8</ele>
        <time>1970-01-01T00:00:00Z</time>
      </trkpt>
      <trkpt lat="39.360165" lon="-5.410747">
        <ele>459.8</ele>
        <time>1970-01-01T00:00:00Z</time>
      </trkpt>
      <trkpt lat="39.360165" lon="-5.410747">
        <ele>459.8</ele>
        <time>1970-01-01T00:00:00Z</time>
      </trkpt>
      <trkpt lat="39.360174" lon="-5.410723">
        <ele>460.0</ele>
        <time>1970-01-01T00:00:00Z</time>
      </trkpt>
      <trkpt lat="39.360174" lon="-5.410723">
        <ele>460.0</ele>
        <time>1970-01-01T00:00:00Z</time>
      </trkpt>
      <trkpt lat="39.360174" lon="-5.410723">
        <ele>460.0</ele>
        <time>1970-01-01T00:00:00Z</time>
      </trkpt>
      <trkpt lat="39.360174" lon="-5.410723">
        <ele>460.0</ele>
        <time>1970-01-01T00:00:00Z</time>
      </trkpt>
      <trkpt lat="39.360199" lon="-5.410666">
        <ele>460.5</ele>
        <time>1970-01-01T00:00:00Z</time>
      </trkpt>
      <trkpt lat="39.360199" lon="-5.410666">
        <ele>460.5</ele>
        <time>1970-01-01T00:00:00Z</time>
      </trkpt>
      <trkpt lat="39.360199" lon="-5.410666">
        <ele>460.5</ele>
        <time>1970-01-01T00:00:00Z</time>
      </trkpt>
      <trkpt lat="39.360199" lon="-5.410666">
        <ele>460.5</ele>
        <time>1970-01-01T00:00:00Z</time>
      </trkpt>
      <trkpt lat="39.360231" lon="-5.410615">
        <ele>461.0</ele>
        <time>1970-01-01T00:00:00Z</time>
      </trkpt>
      <trkpt lat="39.360231" lon="-5.410615">
        <ele>461.0</ele>
        <time>1970-01-01T00:00:00Z</time>
      </trkpt>
      <trkpt lat="39.360231" lon="-5.410615">
        <ele>461.0</ele>
        <time>1970-01-01T00:00:00Z</time>
      </trkpt>
      <trkpt lat="39.360231" lon="-5.410615">
        <ele>461.0</ele>
        <time>1970-01-01T00:00:00Z</time>
      </trkpt>
      <trkpt lat="39.360267" lon="-5.410567">
        <ele>461.4</ele>
        <time>1970-01-01T00:00:00Z</time>
      </trkpt>
      <trkpt lat="39.360267" lon="-5.410567">
        <ele>461.4</ele>
        <time>1970-01-01T00:00:00Z</time>
      </trkpt>
      <trkpt lat="39.360267" lon="-5.410567">
        <ele>461.4</ele>
        <time>1970-01-01T00:00:00Z</time>
      </trkpt>
      <trkpt lat="39.360267" lon="-5.410567">
        <ele>461.4</ele>
        <time>1970-01-01T00:00:00Z</time>
      </trkpt>
      <trkpt lat="39.360322" lon="-5.410518">
        <ele>461.8</ele>
        <time>1970-01-01T00:00:00Z</time>
      </trkpt>
      <trkpt lat="39.360322" lon="-5.410518">
        <ele>461.8</ele>
        <time>1970-01-01T00:00:00Z</time>
      </trkpt>
      <trkpt lat="39.360322" lon="-5.410518">
        <ele>461.8</ele>
        <time>1970-01-01T00:00:00Z</time>
      </trkpt>
      <trkpt lat="39.360322" lon="-5.410518">
        <ele>461.8</ele>
        <time>1970-01-01T00:00:00Z</time>
      </trkpt>
      <trkpt lat="39.360399" lon="-5.410471">
        <ele>462.4</ele>
        <time>1970-01-01T00:00:00Z</time>
      </trkpt>
      <trkpt lat="39.360399" lon="-5.410471">
        <ele>462.4</ele>
        <time>1970-01-01T00:00:00Z</time>
      </trkpt>
      <trkpt lat="39.360399" lon="-5.410471">
        <ele>462.4</ele>
        <time>1970-01-01T00:00:00Z</time>
      </trkpt>
      <trkpt lat="39.360399" lon="-5.410471">
        <ele>462.4</ele>
        <time>1970-01-01T00:00:00Z</time>
      </trkpt>
      <trkpt lat="39.360474" lon="-5.410441">
        <ele>462.9</ele>
        <time>1970-01-01T00:00:00Z</time>
      </trkpt>
      <trkpt lat="39.360474" lon="-5.410441">
        <ele>462.9</ele>
        <time>1970-01-01T00:00:00Z</time>
      </trkpt>
      <trkpt lat="39.360474" lon="-5.410441">
        <ele>462.9</ele>
        <time>1970-01-01T00:00:00Z</time>
      </trkpt>
      <trkpt lat="39.360474" lon="-5.410441">
        <ele>462.9</ele>
        <time>1970-01-01T00:00:00Z</time>
      </trkpt>
      <trkpt lat="39.360512" lon="-5.410422">
        <ele>463.2</ele>
        <time>1970-01-01T00:00:00Z</time>
      </trkpt>
      <trkpt lat="39.360512" lon="-5.410422">
        <ele>463.2</ele>
        <time>1970-01-01T00:00:00Z</time>
      </trkpt>
      <trkpt lat="39.360512" lon="-5.410422">
        <ele>463.2</ele>
        <time>1970-01-01T00:00:00Z</time>
      </trkpt>
      <trkpt lat="39.360512" lon="-5.410422">
        <ele>463.2</ele>
        <time>1970-01-01T00:00:00Z</time>
      </trkpt>
      <trkpt lat="39.360720" lon="-5.410293">
        <ele>465.6</ele>
        <time>1970-01-01T00:00:00Z</time>
      </trkpt>
      <trkpt lat="39.360720" lon="-5.410293">
        <ele>465.6</ele>
        <time>1970-01-01T00:00:00Z</time>
      </trkpt>
      <trkpt lat="39.360720" lon="-5.410293">
        <ele>465.6</ele>
        <time>1970-01-01T00:00:00Z</time>
      </trkpt>
      <trkpt lat="39.360720" lon="-5.410293">
        <ele>465.6</ele>
        <time>1970-01-01T00:00:00Z</time>
      </trkpt>
      <trkpt lat="39.360997" lon="-5.410140">
        <ele>468.6</ele>
        <time>1970-01-01T00:00:00Z</time>
      </trkpt>
      <trkpt lat="39.360997" lon="-5.410140">
        <ele>468.6</ele>
        <time>1970-01-01T00:00:00Z</time>
      </trkpt>
      <trkpt lat="39.360997" lon="-5.410140">
        <ele>468.6</ele>
        <time>1970-01-01T00:00:00Z</time>
      </trkpt>
      <trkpt lat="39.360997" lon="-5.410140">
        <ele>468.6</ele>
        <time>1970-01-01T00:00:00Z</time>
      </trkpt>
      <trkpt lat="39.361086" lon="-5.410093">
        <ele>468.8</ele>
        <time>1970-01-01T00:00:00Z</time>
      </trkpt>
      <trkpt lat="39.361086" lon="-5.410093">
        <ele>468.8</ele>
        <time>1970-01-01T00:00:00Z</time>
      </trkpt>
      <trkpt lat="39.361086" lon="-5.410093">
        <ele>468.8</ele>
        <time>1970-01-01T00:00:00Z</time>
      </trkpt>
      <trkpt lat="39.361086" lon="-5.410093">
        <ele>468.8</ele>
        <time>1970-01-01T00:00:00Z</time>
      </trkpt>
      <trkpt lat="39.361182" lon="-5.410036">
        <ele>469.2</ele>
        <time>1970-01-01T00:00:00Z</time>
      </trkpt>
      <trkpt lat="39.361182" lon="-5.410036">
        <ele>469.2</ele>
        <time>1970-01-01T00:00:00Z</time>
      </trkpt>
      <trkpt lat="39.361182" lon="-5.410036">
        <ele>469.2</ele>
        <time>1970-01-01T00:00:00Z</time>
      </trkpt>
      <trkpt lat="39.361182" lon="-5.410036">
        <ele>469.2</ele>
        <time>1970-01-01T00:00:00Z</time>
      </trkpt>
      <trkpt lat="39.361277" lon="-5.409980">
        <ele>469.4</ele>
        <time>1970-01-01T00:00:00Z</time>
      </trkpt>
      <trkpt lat="39.361277" lon="-5.409980">
        <ele>469.4</ele>
        <time>1970-01-01T00:00:00Z</time>
      </trkpt>
      <trkpt lat="39.361277" lon="-5.409980">
        <ele>469.4</ele>
        <time>1970-01-01T00:00:00Z</time>
      </trkpt>
      <trkpt lat="39.361277" lon="-5.409980">
        <ele>469.4</ele>
        <time>1970-01-01T00:00:00Z</time>
      </trkpt>
      <trkpt lat="39.361343" lon="-5.409921">
        <ele>469.5</ele>
        <time>1970-01-01T00:00:00Z</time>
      </trkpt>
      <trkpt lat="39.361343" lon="-5.409921">
        <ele>469.5</ele>
        <time>1970-01-01T00:00:00Z</time>
      </trkpt>
      <trkpt lat="39.361343" lon="-5.409921">
        <ele>469.5</ele>
        <time>1970-01-01T00:00:00Z</time>
      </trkpt>
      <trkpt lat="39.361343" lon="-5.409921">
        <ele>469.5</ele>
        <time>1970-01-01T00:00:00Z</time>
      </trkpt>
      <trkpt lat="39.361458" lon="-5.409827">
        <ele>469.0</ele>
        <time>1970-01-01T00:00:00Z</time>
      </trkpt>
      <trkpt lat="39.361458" lon="-5.409827">
        <ele>469.0</ele>
        <time>1970-01-01T00:00:00Z</time>
      </trkpt>
      <trkpt lat="39.361458" lon="-5.409827">
        <ele>469.0</ele>
        <time>1970-01-01T00:00:00Z</time>
      </trkpt>
      <trkpt lat="39.361458" lon="-5.409827">
        <ele>469.0</ele>
        <time>1970-01-01T00:00:00Z</time>
      </trkpt>
      <trkpt lat="39.361624" lon="-5.409707">
        <ele>467.5</ele>
        <time>1970-01-01T00:00:00Z</time>
      </trkpt>
      <trkpt lat="39.361624" lon="-5.409707">
        <ele>467.5</ele>
        <time>1970-01-01T00:00:00Z</time>
      </trkpt>
      <trkpt lat="39.361624" lon="-5.409707">
        <ele>467.5</ele>
        <time>1970-01-01T00:00:00Z</time>
      </trkpt>
      <trkpt lat="39.361624" lon="-5.409707">
        <ele>467.5</ele>
        <time>1970-01-01T00:00:00Z</time>
      </trkpt>
      <trkpt lat="39.361675" lon="-5.409674">
        <ele>466.9</ele>
        <time>1970-01-01T00:00:00Z</time>
      </trkpt>
      <trkpt lat="39.361675" lon="-5.409674">
        <ele>466.9</ele>
        <time>1970-01-01T00:00:00Z</time>
      </trkpt>
      <trkpt lat="39.361675" lon="-5.409674">
        <ele>466.9</ele>
        <time>1970-01-01T00:00:00Z</time>
      </trkpt>
      <trkpt lat="39.361675" lon="-5.409674">
        <ele>466.9</ele>
        <time>1970-01-01T00:00:00Z</time>
      </trkpt>
      <trkpt lat="39.361727" lon="-5.409649">
        <ele>466.4</ele>
        <time>1970-01-01T00:00:00Z</time>
      </trkpt>
      <trkpt lat="39.361727" lon="-5.409649">
        <ele>466.4</ele>
        <time>1970-01-01T00:00:00Z</time>
      </trkpt>
      <trkpt lat="39.361727" lon="-5.409649">
        <ele>466.4</ele>
        <time>1970-01-01T00:00:00Z</time>
      </trkpt>
      <trkpt lat="39.361727" lon="-5.409649">
        <ele>466.4</ele>
        <time>1970-01-01T00:00:00Z</time>
      </trkpt>
      <trkpt lat="39.361777" lon="-5.409604">
        <ele>466.2</ele>
        <time>1970-01-01T00:00:00Z</time>
      </trkpt>
      <trkpt lat="39.361777" lon="-5.409604">
        <ele>466.2</ele>
        <time>1970-01-01T00:00:00Z</time>
      </trkpt>
      <trkpt lat="39.361777" lon="-5.409604">
        <ele>466.2</ele>
        <time>1970-01-01T00:00:00Z</time>
      </trkpt>
      <trkpt lat="39.361777" lon="-5.409604">
        <ele>466.2</ele>
        <time>1970-01-01T00:00:00Z</time>
      </trkpt>
      <trkpt lat="39.361808" lon="-5.409551">
        <ele>466.2</ele>
        <time>1970-01-01T00:00:00Z</time>
      </trkpt>
      <trkpt lat="39.361808" lon="-5.409551">
        <ele>466.2</ele>
        <time>1970-01-01T00:00:00Z</time>
      </trkpt>
      <trkpt lat="39.361808" lon="-5.409551">
        <ele>466.2</ele>
        <time>1970-01-01T00:00:00Z</time>
      </trkpt>
      <trkpt lat="39.361808" lon="-5.409551">
        <ele>466.2</ele>
        <time>1970-01-01T00:00:00Z</time>
      </trkpt>
      <trkpt lat="39.361853" lon="-5.409453">
        <ele>466.3</ele>
        <time>1970-01-01T00:00:00Z</time>
      </trkpt>
      <trkpt lat="39.361853" lon="-5.409453">
        <ele>466.3</ele>
        <time>1970-01-01T00:00:00Z</time>
      </trkpt>
      <trkpt lat="39.361853" lon="-5.409453">
        <ele>466.3</ele>
        <time>1970-01-01T00:00:00Z</time>
      </trkpt>
      <trkpt lat="39.361853" lon="-5.409453">
        <ele>466.3</ele>
        <time>1970-01-01T00:00:00Z</time>
      </trkpt>
      <trkpt lat="39.361905" lon="-5.409380">
        <ele>466.1</ele>
        <time>1970-01-01T00:00:00Z</time>
      </trkpt>
      <trkpt lat="39.361905" lon="-5.409380">
        <ele>466.1</ele>
        <time>1970-01-01T00:00:00Z</time>
      </trkpt>
      <trkpt lat="39.361905" lon="-5.409380">
        <ele>466.1</ele>
        <time>1970-01-01T00:00:00Z</time>
      </trkpt>
      <trkpt lat="39.361905" lon="-5.409380">
        <ele>466.1</ele>
        <time>1970-01-01T00:00:00Z</time>
      </trkpt>
      <trkpt lat="39.362001" lon="-5.409256">
        <ele>465.8</ele>
        <time>1970-01-01T00:00:00Z</time>
      </trkpt>
      <trkpt lat="39.362001" lon="-5.409256">
        <ele>465.8</ele>
        <time>1970-01-01T00:00:00Z</time>
      </trkpt>
      <trkpt lat="39.362001" lon="-5.409256">
        <ele>465.8</ele>
        <time>1970-01-01T00:00:00Z</time>
      </trkpt>
      <trkpt lat="39.362001" lon="-5.409256">
        <ele>465.8</ele>
        <time>1970-01-01T00:00:00Z</time>
      </trkpt>
      <trkpt lat="39.362150" lon="-5.409062">
        <ele>466.2</ele>
        <time>1970-01-01T00:00:00Z</time>
      </trkpt>
      <trkpt lat="39.362150" lon="-5.409062">
        <ele>466.2</ele>
        <time>1970-01-01T00:00:00Z</time>
      </trkpt>
      <trkpt lat="39.362150" lon="-5.409062">
        <ele>466.2</ele>
        <time>1970-01-01T00:00:00Z</time>
      </trkpt>
      <trkpt lat="39.362150" lon="-5.409062">
        <ele>466.2</ele>
        <time>1970-01-01T00:00:00Z</time>
      </trkpt>
      <trkpt lat="39.362250" lon="-5.408924">
        <ele>466.3</ele>
        <time>1970-01-01T00:00:00Z</time>
      </trkpt>
      <trkpt lat="39.362250" lon="-5.408924">
        <ele>466.3</ele>
        <time>1970-01-01T00:00:00Z</time>
      </trkpt>
      <trkpt lat="39.362250" lon="-5.408924">
        <ele>466.3</ele>
        <time>1970-01-01T00:00:00Z</time>
      </trkpt>
      <trkpt lat="39.362250" lon="-5.408924">
        <ele>466.3</ele>
        <time>1970-01-01T00:00:00Z</time>
      </trkpt>
      <trkpt lat="39.362281" lon="-5.408867">
        <ele>466.5</ele>
        <time>1970-01-01T00:00:00Z</time>
      </trkpt>
      <trkpt lat="39.362281" lon="-5.408867">
        <ele>466.5</ele>
        <time>1970-01-01T00:00:00Z</time>
      </trkpt>
      <trkpt lat="39.362281" lon="-5.408867">
        <ele>466.5</ele>
        <time>1970-01-01T00:00:00Z</time>
      </trkpt>
      <trkpt lat="39.362281" lon="-5.408867">
        <ele>466.5</ele>
        <time>1970-01-01T00:00:00Z</time>
      </trkpt>
      <trkpt lat="39.362298" lon="-5.408838">
        <ele>466.5</ele>
        <time>1970-01-01T00:00:00Z</time>
      </trkpt>
      <trkpt lat="39.362298" lon="-5.408838">
        <ele>466.5</ele>
        <time>1970-01-01T00:00:00Z</time>
      </trkpt>
      <trkpt lat="39.362298" lon="-5.408838">
        <ele>466.5</ele>
        <time>1970-01-01T00:00:00Z</time>
      </trkpt>
      <trkpt lat="39.362298" lon="-5.408838">
        <ele>466.5</ele>
        <time>1970-01-01T00:00:00Z</time>
      </trkpt>
      <trkpt lat="39.362325" lon="-5.408782">
        <ele>466.6</ele>
        <time>1970-01-01T00:00:00Z</time>
      </trkpt>
      <trkpt lat="39.362325" lon="-5.408782">
        <ele>466.6</ele>
        <time>1970-01-01T00:00:00Z</time>
      </trkpt>
      <trkpt lat="39.362325" lon="-5.408782">
        <ele>466.6</ele>
        <time>1970-01-01T00:00:00Z</time>
      </trkpt>
      <trkpt lat="39.362325" lon="-5.408782">
        <ele>466.6</ele>
        <time>1970-01-01T00:00:00Z</time>
      </trkpt>
      <trkpt lat="39.362391" lon="-5.408564">
        <ele>467.3</ele>
        <time>1970-01-01T00:00:00Z</time>
      </trkpt>
      <trkpt lat="39.362391" lon="-5.408564">
        <ele>467.3</ele>
        <time>1970-01-01T00:00:00Z</time>
      </trkpt>
      <trkpt lat="39.362391" lon="-5.408564">
        <ele>467.3</ele>
        <time>1970-01-01T00:00:00Z</time>
      </trkpt>
      <trkpt lat="39.362391" lon="-5.408564">
        <ele>467.3</ele>
        <time>1970-01-01T00:00:00Z</time>
      </trkpt>
      <trkpt lat="39.362481" lon="-5.408259">
        <ele>469.1</ele>
        <time>1970-01-01T00:00:00Z</time>
      </trkpt>
      <trkpt lat="39.362481" lon="-5.408259">
        <ele>469.1</ele>
        <time>1970-01-01T00:00:00Z</time>
      </trkpt>
      <trkpt lat="39.362481" lon="-5.408259">
        <ele>469.1</ele>
        <time>1970-01-01T00:00:00Z</time>
      </trkpt>
      <trkpt lat="39.362481" lon="-5.408259">
        <ele>469.1</ele>
        <time>1970-01-01T00:00:00Z</time>
      </trkpt>
      <trkpt lat="39.362553" lon="-5.408033">
        <ele>469.9</ele>
        <time>1970-01-01T00:00:00Z</time>
      </trkpt>
      <trkpt lat="39.362553" lon="-5.408033">
        <ele>469.9</ele>
        <time>1970-01-01T00:00:00Z</time>
      </trkpt>
      <trkpt lat="39.362553" lon="-5.408033">
        <ele>469.9</ele>
        <time>1970-01-01T00:00:00Z</time>
      </trkpt>
      <trkpt lat="39.362553" lon="-5.408033">
        <ele>469.9</ele>
        <time>1970-01-01T00:00:00Z</time>
      </trkpt>
      <trkpt lat="39.362593" lon="-5.407940">
        <ele>470.2</ele>
        <time>1970-01-01T00:00:00Z</time>
      </trkpt>
      <trkpt lat="39.362593" lon="-5.407940">
        <ele>470.2</ele>
        <time>1970-01-01T00:00:00Z</time>
      </trkpt>
      <trkpt lat="39.362593" lon="-5.407940">
        <ele>470.2</ele>
        <time>1970-01-01T00:00:00Z</time>
      </trkpt>
      <trkpt lat="39.362593" lon="-5.407940">
        <ele>470.2</ele>
        <time>1970-01-01T00:00:00Z</time>
      </trkpt>
      <trkpt lat="39.362646" lon="-5.407846">
        <ele>470.8</ele>
        <time>1970-01-01T00:00:00Z</time>
      </trkpt>
      <trkpt lat="39.362646" lon="-5.407846">
        <ele>470.8</ele>
        <time>1970-01-01T00:00:00Z</time>
      </trkpt>
      <trkpt lat="39.362646" lon="-5.407846">
        <ele>470.8</ele>
        <time>1970-01-01T00:00:00Z</time>
      </trkpt>
      <trkpt lat="39.362646" lon="-5.407846">
        <ele>470.8</ele>
        <time>1970-01-01T00:00:00Z</time>
      </trkpt>
      <trkpt lat="39.362684" lon="-5.407777">
        <ele>471.3</ele>
        <time>1970-01-01T00:00:00Z</time>
      </trkpt>
      <trkpt lat="39.362684" lon="-5.407777">
        <ele>471.3</ele>
        <time>1970-01-01T00:00:00Z</time>
      </trkpt>
      <trkpt lat="39.362684" lon="-5.407777">
        <ele>471.3</ele>
        <time>1970-01-01T00:00:00Z</time>
      </trkpt>
      <trkpt lat="39.362684" lon="-5.407777">
        <ele>471.3</ele>
        <time>1970-01-01T00:00:00Z</time>
      </trkpt>
      <trkpt lat="39.362805" lon="-5.407588">
        <ele>472.2</ele>
        <time>1970-01-01T00:00:00Z</time>
      </trkpt>
      <trkpt lat="39.362805" lon="-5.407588">
        <ele>472.2</ele>
        <time>1970-01-01T00:00:00Z</time>
      </trkpt>
      <trkpt lat="39.362805" lon="-5.407588">
        <ele>472.2</ele>
        <time>1970-01-01T00:00:00Z</time>
      </trkpt>
      <trkpt lat="39.362805" lon="-5.407588">
        <ele>472.2</ele>
        <time>1970-01-01T00:00:00Z</time>
      </trkpt>
      <trkpt lat="39.362884" lon="-5.407486">
        <ele>473.0</ele>
        <time>1970-01-01T00:00:00Z</time>
      </trkpt>
      <trkpt lat="39.362884" lon="-5.407486">
        <ele>473.0</ele>
        <time>1970-01-01T00:00:00Z</time>
      </trkpt>
      <trkpt lat="39.362884" lon="-5.407486">
        <ele>473.0</ele>
        <time>1970-01-01T00:00:00Z</time>
      </trkpt>
      <trkpt lat="39.362884" lon="-5.407486">
        <ele>473.0</ele>
        <time>1970-01-01T00:00:00Z</time>
      </trkpt>
      <trkpt lat="39.362931" lon="-5.407391">
        <ele>473.4</ele>
        <time>1970-01-01T00:00:00Z</time>
      </trkpt>
      <trkpt lat="39.362931" lon="-5.407391">
        <ele>473.4</ele>
        <time>1970-01-01T00:00:00Z</time>
      </trkpt>
      <trkpt lat="39.362931" lon="-5.407391">
        <ele>473.4</ele>
        <time>1970-01-01T00:00:00Z</time>
      </trkpt>
      <trkpt lat="39.362931" lon="-5.407391">
        <ele>473.4</ele>
        <time>1970-01-01T00:00:00Z</time>
      </trkpt>
      <trkpt lat="39.363041" lon="-5.407321">
        <ele>473.7</ele>
        <time>1970-01-01T00:00:00Z</time>
      </trkpt>
      <trkpt lat="39.363041" lon="-5.407321">
        <ele>473.7</ele>
        <time>1970-01-01T00:00:00Z</time>
      </trkpt>
      <trkpt lat="39.363041" lon="-5.407321">
        <ele>473.7</ele>
        <time>1970-01-01T00:00:00Z</time>
      </trkpt>
      <trkpt lat="39.363041" lon="-5.407321">
        <ele>473.7</ele>
        <time>1970-01-01T00:00:00Z</time>
      </trkpt>
      <trkpt lat="39.363103" lon="-5.407250">
        <ele>474.1</ele>
        <time>1970-01-01T00:00:00Z</time>
      </trkpt>
      <trkpt lat="39.363103" lon="-5.407250">
        <ele>474.1</ele>
        <time>1970-01-01T00:00:00Z</time>
      </trkpt>
      <trkpt lat="39.363103" lon="-5.407250">
        <ele>474.1</ele>
        <time>1970-01-01T00:00:00Z</time>
      </trkpt>
      <trkpt lat="39.363103" lon="-5.407250">
        <ele>474.1</ele>
        <time>1970-01-01T00:00:00Z</time>
      </trkpt>
      <trkpt lat="39.363179" lon="-5.407124">
        <ele>475.3</ele>
        <time>1970-01-01T00:00:00Z</time>
      </trkpt>
      <trkpt lat="39.363179" lon="-5.407124">
        <ele>475.3</ele>
        <time>1970-01-01T00:00:00Z</time>
      </trkpt>
      <trkpt lat="39.363179" lon="-5.407124">
        <ele>475.3</ele>
        <time>1970-01-01T00:00:00Z</time>
      </trkpt>
      <trkpt lat="39.363179" lon="-5.407124">
        <ele>475.3</ele>
        <time>1970-01-01T00:00:00Z</time>
      </trkpt>
      <trkpt lat="39.363321" lon="-5.406898">
        <ele>476.5</ele>
        <time>1970-01-01T00:00:00Z</time>
      </trkpt>
      <trkpt lat="39.363321" lon="-5.406898">
        <ele>476.5</ele>
        <time>1970-01-01T00:00:00Z</time>
      </trkpt>
      <trkpt lat="39.363321" lon="-5.406898">
        <ele>476.5</ele>
        <time>1970-01-01T00:00:00Z</time>
      </trkpt>
      <trkpt lat="39.363321" lon="-5.406898">
        <ele>476.5</ele>
        <time>1970-01-01T00:00:00Z</time>
      </trkpt>
      <trkpt lat="39.363486" lon="-5.406584">
        <ele>478.1</ele>
        <time>1970-01-01T00:00:00Z</time>
      </trkpt>
      <trkpt lat="39.363486" lon="-5.406584">
        <ele>478.1</ele>
        <time>1970-01-01T00:00:00Z</time>
      </trkpt>
      <trkpt lat="39.363486" lon="-5.406584">
        <ele>478.1</ele>
        <time>1970-01-01T00:00:00Z</time>
      </trkpt>
      <trkpt lat="39.363486" lon="-5.406584">
        <ele>478.1</ele>
        <time>1970-01-01T00:00:00Z</time>
      </trkpt>
      <trkpt lat="39.363533" lon="-5.406491">
        <ele>478.4</ele>
        <time>1970-01-01T00:00:00Z</time>
      </trkpt>
      <trkpt lat="39.363533" lon="-5.406491">
        <ele>478.4</ele>
        <time>1970-01-01T00:00:00Z</time>
      </trkpt>
      <trkpt lat="39.363533" lon="-5.406491">
        <ele>478.4</ele>
        <time>1970-01-01T00:00:00Z</time>
      </trkpt>
      <trkpt lat="39.363533" lon="-5.406491">
        <ele>478.4</ele>
        <time>1970-01-01T00:00:00Z</time>
      </trkpt>
      <trkpt lat="39.363588" lon="-5.406396">
        <ele>478.7</ele>
        <time>1970-01-01T00:00:00Z</time>
      </trkpt>
      <trkpt lat="39.363588" lon="-5.406396">
        <ele>478.7</ele>
        <time>1970-01-01T00:00:00Z</time>
      </trkpt>
      <trkpt lat="39.363588" lon="-5.406396">
        <ele>478.7</ele>
        <time>1970-01-01T00:00:00Z</time>
      </trkpt>
      <trkpt lat="39.363588" lon="-5.406396">
        <ele>478.7</ele>
        <time>1970-01-01T00:00:00Z</time>
      </trkpt>
      <trkpt lat="39.363624" lon="-5.406341">
        <ele>478.9</ele>
        <time>1970-01-01T00:00:00Z</time>
      </trkpt>
      <trkpt lat="39.363624" lon="-5.406341">
        <ele>478.9</ele>
        <time>1970-01-01T00:00:00Z</time>
      </trkpt>
      <trkpt lat="39.363624" lon="-5.406341">
        <ele>478.9</ele>
        <time>1970-01-01T00:00:00Z</time>
      </trkpt>
      <trkpt lat="39.363624" lon="-5.406341">
        <ele>478.9</ele>
        <time>1970-01-01T00:00:00Z</time>
      </trkpt>
      <trkpt lat="39.363745" lon="-5.406156">
        <ele>480.6</ele>
        <time>1970-01-01T00:00:00Z</time>
      </trkpt>
      <trkpt lat="39.363745" lon="-5.406156">
        <ele>480.6</ele>
        <time>1970-01-01T00:00:00Z</time>
      </trkpt>
      <trkpt lat="39.363745" lon="-5.406156">
        <ele>480.6</ele>
        <time>1970-01-01T00:00:00Z</time>
      </trkpt>
      <trkpt lat="39.363745" lon="-5.406156">
        <ele>480.6</ele>
        <time>1970-01-01T00:00:00Z</time>
      </trkpt>
      <trkpt lat="39.363812" lon="-5.406044">
        <ele>481.6</ele>
        <time>1970-01-01T00:00:00Z</time>
      </trkpt>
      <trkpt lat="39.363812" lon="-5.406044">
        <ele>481.6</ele>
        <time>1970-01-01T00:00:00Z</time>
      </trkpt>
      <trkpt lat="39.363812" lon="-5.406044">
        <ele>481.6</ele>
        <time>1970-01-01T00:00:00Z</time>
      </trkpt>
      <trkpt lat="39.363812" lon="-5.406044">
        <ele>481.6</ele>
        <time>1970-01-01T00:00:00Z</time>
      </trkpt>
      <trkpt lat="39.363890" lon="-5.405882">
        <ele>483.3</ele>
        <time>1970-01-01T00:00:00Z</time>
      </trkpt>
      <trkpt lat="39.363890" lon="-5.405882">
        <ele>483.3</ele>
        <time>1970-01-01T00:00:00Z</time>
      </trkpt>
      <trkpt lat="39.363890" lon="-5.405882">
        <ele>483.3</ele>
        <time>1970-01-01T00:00:00Z</time>
      </trkpt>
      <trkpt lat="39.363890" lon="-5.405882">
        <ele>483.3</ele>
        <time>1970-01-01T00:00:00Z</time>
      </trkpt>
      <trkpt lat="39.364024" lon="-5.405651">
        <ele>485.7</ele>
        <time>1970-01-01T00:00:00Z</time>
      </trkpt>
      <trkpt lat="39.364024" lon="-5.405651">
        <ele>485.7</ele>
        <time>1970-01-01T00:00:00Z</time>
      </trkpt>
      <trkpt lat="39.364024" lon="-5.405651">
        <ele>485.7</ele>
        <time>1970-01-01T00:00:00Z</time>
      </trkpt>
      <trkpt lat="39.364024" lon="-5.405651">
        <ele>485.7</ele>
        <time>1970-01-01T00:00:00Z</time>
      </trkpt>
      <trkpt lat="39.364099" lon="-5.405523">
        <ele>486.6</ele>
        <time>1970-01-01T00:00:00Z</time>
      </trkpt>
      <trkpt lat="39.364099" lon="-5.405523">
        <ele>486.6</ele>
        <time>1970-01-01T00:00:00Z</time>
      </trkpt>
      <trkpt lat="39.364099" lon="-5.405523">
        <ele>486.6</ele>
        <time>1970-01-01T00:00:00Z</time>
      </trkpt>
      <trkpt lat="39.364099" lon="-5.405523">
        <ele>486.6</ele>
        <time>1970-01-01T00:00:00Z</time>
      </trkpt>
      <trkpt lat="39.364195" lon="-5.405368">
        <ele>487.6</ele>
        <time>1970-01-01T00:00:00Z</time>
      </trkpt>
      <trkpt lat="39.364195" lon="-5.405368">
        <ele>487.6</ele>
        <time>1970-01-01T00:00:00Z</time>
      </trkpt>
      <trkpt lat="39.364195" lon="-5.405368">
        <ele>487.6</ele>
        <time>1970-01-01T00:00:00Z</time>
      </trkpt>
      <trkpt lat="39.364195" lon="-5.405368">
        <ele>487.6</ele>
        <time>1970-01-01T00:00:00Z</time>
      </trkpt>
      <trkpt lat="39.364302" lon="-5.405188">
        <ele>489.3</ele>
        <time>1970-01-01T00:00:00Z</time>
      </trkpt>
      <trkpt lat="39.364302" lon="-5.405188">
        <ele>489.3</ele>
        <time>1970-01-01T00:00:00Z</time>
      </trkpt>
      <trkpt lat="39.364302" lon="-5.405188">
        <ele>489.3</ele>
        <time>1970-01-01T00:00:00Z</time>
      </trkpt>
      <trkpt lat="39.364302" lon="-5.405188">
        <ele>489.3</ele>
        <time>1970-01-01T00:00:00Z</time>
      </trkpt>
      <trkpt lat="39.364385" lon="-5.405040">
        <ele>489.9</ele>
        <time>1970-01-01T00:00:00Z</time>
      </trkpt>
      <trkpt lat="39.364385" lon="-5.405040">
        <ele>489.9</ele>
        <time>1970-01-01T00:00:00Z</time>
      </trkpt>
      <trkpt lat="39.364385" lon="-5.405040">
        <ele>489.9</ele>
        <time>1970-01-01T00:00:00Z</time>
      </trkpt>
      <trkpt lat="39.364385" lon="-5.405040">
        <ele>489.9</ele>
        <time>1970-01-01T00:00:00Z</time>
      </trkpt>
      <trkpt lat="39.364456" lon="-5.404906">
        <ele>490.4</ele>
        <time>1970-01-01T00:00:00Z</time>
      </trkpt>
      <trkpt lat="39.364456" lon="-5.404906">
        <ele>490.4</ele>
        <time>1970-01-01T00:00:00Z</time>
      </trkpt>
      <trkpt lat="39.364456" lon="-5.404906">
        <ele>490.4</ele>
        <time>1970-01-01T00:00:00Z</time>
      </trkpt>
      <trkpt lat="39.364456" lon="-5.404906">
        <ele>490.4</ele>
        <time>1970-01-01T00:00:00Z</time>
      </trkpt>
      <trkpt lat="39.364499" lon="-5.404848">
        <ele>490.7</ele>
        <time>1970-01-01T00:00:00Z</time>
      </trkpt>
      <trkpt lat="39.364499" lon="-5.404848">
        <ele>490.7</ele>
        <time>1970-01-01T00:00:00Z</time>
      </trkpt>
      <trkpt lat="39.364499" lon="-5.404848">
        <ele>490.7</ele>
        <time>1970-01-01T00:00:00Z</time>
      </trkpt>
      <trkpt lat="39.364499" lon="-5.404848">
        <ele>490.7</ele>
        <time>1970-01-01T00:00:00Z</time>
      </trkpt>
      <trkpt lat="39.364531" lon="-5.404768">
        <ele>491.3</ele>
        <time>1970-01-01T00:00:00Z</time>
      </trkpt>
      <trkpt lat="39.364531" lon="-5.404768">
        <ele>491.3</ele>
        <time>1970-01-01T00:00:00Z</time>
      </trkpt>
      <trkpt lat="39.364531" lon="-5.404768">
        <ele>491.3</ele>
        <time>1970-01-01T00:00:00Z</time>
      </trkpt>
      <trkpt lat="39.364531" lon="-5.404768">
        <ele>491.3</ele>
        <time>1970-01-01T00:00:00Z</time>
      </trkpt>
      <trkpt lat="39.364557" lon="-5.404689">
        <ele>491.8</ele>
        <time>1970-01-01T00:00:00Z</time>
      </trkpt>
      <trkpt lat="39.364557" lon="-5.404689">
        <ele>491.8</ele>
        <time>1970-01-01T00:00:00Z</time>
      </trkpt>
      <trkpt lat="39.364557" lon="-5.404689">
        <ele>491.8</ele>
        <time>1970-01-01T00:00:00Z</time>
      </trkpt>
      <trkpt lat="39.364557" lon="-5.404689">
        <ele>491.8</ele>
        <time>1970-01-01T00:00:00Z</time>
      </trkpt>
      <trkpt lat="39.364595" lon="-5.404538">
        <ele>492.6</ele>
        <time>1970-01-01T00:00:00Z</time>
      </trkpt>
      <trkpt lat="39.364595" lon="-5.404538">
        <ele>492.6</ele>
        <time>1970-01-01T00:00:00Z</time>
      </trkpt>
      <trkpt lat="39.364595" lon="-5.404538">
        <ele>492.6</ele>
        <time>1970-01-01T00:00:00Z</time>
      </trkpt>
      <trkpt lat="39.364595" lon="-5.404538">
        <ele>492.6</ele>
        <time>1970-01-01T00:00:00Z</time>
      </trkpt>
      <trkpt lat="39.364656" lon="-5.404269">
        <ele>494.8</ele>
        <time>1970-01-01T00:00:00Z</time>
      </trkpt>
      <trkpt lat="39.364656" lon="-5.404269">
        <ele>494.8</ele>
        <time>1970-01-01T00:00:00Z</time>
      </trkpt>
      <trkpt lat="39.364656" lon="-5.404269">
        <ele>494.8</ele>
        <time>1970-01-01T00:00:00Z</time>
      </trkpt>
      <trkpt lat="39.364656" lon="-5.404269">
        <ele>494.8</ele>
        <time>1970-01-01T00:00:00Z</time>
      </trkpt>
      <trkpt lat="39.364745" lon="-5.403906">
        <ele>496.8</ele>
        <time>1970-01-01T00:00:00Z</time>
      </trkpt>
      <trkpt lat="39.364745" lon="-5.403906">
        <ele>496.8</ele>
        <time>1970-01-01T00:00:00Z</time>
      </trkpt>
      <trkpt lat="39.364745" lon="-5.403906">
        <ele>496.8</ele>
        <time>1970-01-01T00:00:00Z</time>
      </trkpt>
      <trkpt lat="39.364745" lon="-5.403906">
        <ele>496.8</ele>
        <time>1970-01-01T00:00:00Z</time>
      </trkpt>
      <trkpt lat="39.364782" lon="-5.403741">
        <ele>497.9</ele>
        <time>1970-01-01T00:00:00Z</time>
      </trkpt>
      <trkpt lat="39.364782" lon="-5.403741">
        <ele>497.9</ele>
        <time>1970-01-01T00:00:00Z</time>
      </trkpt>
      <trkpt lat="39.364782" lon="-5.403741">
        <ele>497.9</ele>
        <time>1970-01-01T00:00:00Z</time>
      </trkpt>
      <trkpt lat="39.364782" lon="-5.403741">
        <ele>497.9</ele>
        <time>1970-01-01T00:00:00Z</time>
      </trkpt>
      <trkpt lat="39.364852" lon="-5.403477">
        <ele>499.4</ele>
        <time>1970-01-01T00:00:00Z</time>
      </trkpt>
      <trkpt lat="39.364852" lon="-5.403477">
        <ele>499.4</ele>
        <time>1970-01-01T00:00:00Z</time>
      </trkpt>
      <trkpt lat="39.364852" lon="-5.403477">
        <ele>499.4</ele>
        <time>1970-01-01T00:00:00Z</time>
      </trkpt>
      <trkpt lat="39.364852" lon="-5.403477">
        <ele>499.4</ele>
        <time>1970-01-01T00:00:00Z</time>
      </trkpt>
      <trkpt lat="39.364904" lon="-5.403290">
        <ele>500.4</ele>
        <time>1970-01-01T00:00:00Z</time>
      </trkpt>
      <trkpt lat="39.364904" lon="-5.403290">
        <ele>500.4</ele>
        <time>1970-01-01T00:00:00Z</time>
      </trkpt>
      <trkpt lat="39.364904" lon="-5.403290">
        <ele>500.4</ele>
        <time>1970-01-01T00:00:00Z</time>
      </trkpt>
      <trkpt lat="39.364904" lon="-5.403290">
        <ele>500.4</ele>
        <time>1970-01-01T00:00:00Z</time>
      </trkpt>
      <trkpt lat="39.364961" lon="-5.403090">
        <ele>502.1</ele>
        <time>1970-01-01T00:00:00Z</time>
      </trkpt>
      <trkpt lat="39.364961" lon="-5.403090">
        <ele>502.1</ele>
        <time>1970-01-01T00:00:00Z</time>
      </trkpt>
      <trkpt lat="39.364961" lon="-5.403090">
        <ele>502.1</ele>
        <time>1970-01-01T00:00:00Z</time>
      </trkpt>
      <trkpt lat="39.364961" lon="-5.403090">
        <ele>502.1</ele>
        <time>1970-01-01T00:00:00Z</time>
      </trkpt>
      <trkpt lat="39.365020" lon="-5.402885">
        <ele>504.7</ele>
        <time>1970-01-01T00:00:00Z</time>
      </trkpt>
      <trkpt lat="39.365020" lon="-5.402885">
        <ele>504.7</ele>
        <time>1970-01-01T00:00:00Z</time>
      </trkpt>
      <trkpt lat="39.365020" lon="-5.402885">
        <ele>504.7</ele>
        <time>1970-01-01T00:00:00Z</time>
      </trkpt>
      <trkpt lat="39.365020" lon="-5.402885">
        <ele>504.7</ele>
        <time>1970-01-01T00:00:00Z</time>
      </trkpt>
      <trkpt lat="39.365089" lon="-5.402665">
        <ele>507.5</ele>
        <time>1970-01-01T00:00:00Z</time>
      </trkpt>
      <trkpt lat="39.365089" lon="-5.402665">
        <ele>507.5</ele>
        <time>1970-01-01T00:00:00Z</time>
      </trkpt>
      <trkpt lat="39.365089" lon="-5.402665">
        <ele>507.5</ele>
        <time>1970-01-01T00:00:00Z</time>
      </trkpt>
      <trkpt lat="39.365089" lon="-5.402665">
        <ele>507.5</ele>
        <time>1970-01-01T00:00:00Z</time>
      </trkpt>
      <trkpt lat="39.365118" lon="-5.402591">
        <ele>508.2</ele>
        <time>1970-01-01T00:00:00Z</time>
      </trkpt>
      <trkpt lat="39.365118" lon="-5.402591">
        <ele>508.2</ele>
        <time>1970-01-01T00:00:00Z</time>
      </trkpt>
      <trkpt lat="39.365118" lon="-5.402591">
        <ele>508.2</ele>
        <time>1970-01-01T00:00:00Z</time>
      </trkpt>
      <trkpt lat="39.365118" lon="-5.402591">
        <ele>508.2</ele>
        <time>1970-01-01T00:00:00Z</time>
      </trkpt>
      <trkpt lat="39.365155" lon="-5.402457">
        <ele>508.8</ele>
        <time>1970-01-01T00:00:00Z</time>
      </trkpt>
      <trkpt lat="39.365155" lon="-5.402457">
        <ele>508.8</ele>
        <time>1970-01-01T00:00:00Z</time>
      </trkpt>
      <trkpt lat="39.365155" lon="-5.402457">
        <ele>508.8</ele>
        <time>1970-01-01T00:00:00Z</time>
      </trkpt>
      <trkpt lat="39.365155" lon="-5.402457">
        <ele>508.8</ele>
        <time>1970-01-01T00:00:00Z</time>
      </trkpt>
      <trkpt lat="39.365207" lon="-5.402317">
        <ele>509.6</ele>
        <time>1970-01-01T00:00:00Z</time>
      </trkpt>
      <trkpt lat="39.365207" lon="-5.402317">
        <ele>509.6</ele>
        <time>1970-01-01T00:00:00Z</time>
      </trkpt>
      <trkpt lat="39.365207" lon="-5.402317">
        <ele>509.6</ele>
        <time>1970-01-01T00:00:00Z</time>
      </trkpt>
      <trkpt lat="39.365207" lon="-5.402317">
        <ele>509.6</ele>
        <time>1970-01-01T00:00:00Z</time>
      </trkpt>
      <trkpt lat="39.365287" lon="-5.402158">
        <ele>510.5</ele>
        <time>1970-01-01T00:00:00Z</time>
      </trkpt>
      <trkpt lat="39.365287" lon="-5.402158">
        <ele>510.5</ele>
        <time>1970-01-01T00:00:00Z</time>
      </trkpt>
      <trkpt lat="39.365287" lon="-5.402158">
        <ele>510.5</ele>
        <time>1970-01-01T00:00:00Z</time>
      </trkpt>
      <trkpt lat="39.365287" lon="-5.402158">
        <ele>510.5</ele>
        <time>1970-01-01T00:00:00Z</time>
      </trkpt>
      <trkpt lat="39.365415" lon="-5.401894">
        <ele>512.4</ele>
        <time>1970-01-01T00:00:00Z</time>
      </trkpt>
      <trkpt lat="39.365415" lon="-5.401894">
        <ele>512.4</ele>
        <time>1970-01-01T00:00:00Z</time>
      </trkpt>
      <trkpt lat="39.365415" lon="-5.401894">
        <ele>512.4</ele>
        <time>1970-01-01T00:00:00Z</time>
      </trkpt>
      <trkpt lat="39.365415" lon="-5.401894">
        <ele>512.4</ele>
        <time>1970-01-01T00:00:00Z</time>
      </trkpt>
      <trkpt lat="39.365554" lon="-5.401610">
        <ele>514.4</ele>
        <time>1970-01-01T00:00:00Z</time>
      </trkpt>
      <trkpt lat="39.365554" lon="-5.401610">
        <ele>514.4</ele>
        <time>1970-01-01T00:00:00Z</time>
      </trkpt>
      <trkpt lat="39.365554" lon="-5.401610">
        <ele>514.4</ele>
        <time>1970-01-01T00:00:00Z</time>
      </trkpt>
      <trkpt lat="39.365554" lon="-5.401610">
        <ele>514.4</ele>
        <time>1970-01-01T00:00:00Z</time>
      </trkpt>
      <trkpt lat="39.365671" lon="-5.401368">
        <ele>515.5</ele>
        <time>1970-01-01T00:00:00Z</time>
      </trkpt>
      <trkpt lat="39.365671" lon="-5.401368">
        <ele>515.5</ele>
        <time>1970-01-01T00:00:00Z</time>
      </trkpt>
      <trkpt lat="39.365671" lon="-5.401368">
        <ele>515.5</ele>
        <time>1970-01-01T00:00:00Z</time>
      </trkpt>
      <trkpt lat="39.365671" lon="-5.401368">
        <ele>515.5</ele>
        <time>1970-01-01T00:00:00Z</time>
      </trkpt>
      <trkpt lat="39.365802" lon="-5.401111">
        <ele>516.5</ele>
        <time>1970-01-01T00:00:00Z</time>
      </trkpt>
      <trkpt lat="39.365802" lon="-5.401111">
        <ele>516.5</ele>
        <time>1970-01-01T00:00:00Z</time>
      </trkpt>
      <trkpt lat="39.365802" lon="-5.401111">
        <ele>516.5</ele>
        <time>1970-01-01T00:00:00Z</time>
      </trkpt>
      <trkpt lat="39.365802" lon="-5.401111">
        <ele>516.5</ele>
        <time>1970-01-01T00:00:00Z</time>
      </trkpt>
      <trkpt lat="39.365980" lon="-5.400741">
        <ele>517.7</ele>
        <time>1970-01-01T00:00:00Z</time>
      </trkpt>
      <trkpt lat="39.365980" lon="-5.400741">
        <ele>517.7</ele>
        <time>1970-01-01T00:00:00Z</time>
      </trkpt>
      <trkpt lat="39.365980" lon="-5.400741">
        <ele>517.7</ele>
        <time>1970-01-01T00:00:00Z</time>
      </trkpt>
      <trkpt lat="39.365980" lon="-5.400741">
        <ele>517.7</ele>
        <time>1970-01-01T00:00:00Z</time>
      </trkpt>
      <trkpt lat="39.366117" lon="-5.400448">
        <ele>519.9</ele>
        <time>1970-01-01T00:00:00Z</time>
      </trkpt>
      <trkpt lat="39.366117" lon="-5.400448">
        <ele>519.9</ele>
        <time>1970-01-01T00:00:00Z</time>
      </trkpt>
      <trkpt lat="39.366117" lon="-5.400448">
        <ele>519.9</ele>
        <time>1970-01-01T00:00:00Z</time>
      </trkpt>
      <trkpt lat="39.366117" lon="-5.400448">
        <ele>519.9</ele>
        <time>1970-01-01T00:00:00Z</time>
      </trkpt>
      <trkpt lat="39.366394" lon="-5.399903">
        <ele>525.8</ele>
        <time>1970-01-01T00:00:00Z</time>
      </trkpt>
      <trkpt lat="39.366394" lon="-5.399903">
        <ele>525.8</ele>
        <time>1970-01-01T00:00:00Z</time>
      </trkpt>
      <trkpt lat="39.366394" lon="-5.399903">
        <ele>525.8</ele>
        <time>1970-01-01T00:00:00Z</time>
      </trkpt>
      <trkpt lat="39.366394" lon="-5.399903">
        <ele>525.8</ele>
        <time>1970-01-01T00:00:00Z</time>
      </trkpt>
      <trkpt lat="39.366579" lon="-5.399534">
        <ele>529.8</ele>
        <time>1970-01-01T00:00:00Z</time>
      </trkpt>
      <trkpt lat="39.366579" lon="-5.399534">
        <ele>529.8</ele>
        <time>1970-01-01T00:00:00Z</time>
      </trkpt>
      <trkpt lat="39.366579" lon="-5.399534">
        <ele>529.8</ele>
        <time>1970-01-01T00:00:00Z</time>
      </trkpt>
      <trkpt lat="39.366579" lon="-5.399534">
        <ele>529.8</ele>
        <time>1970-01-01T00:00:00Z</time>
      </trkpt>
      <trkpt lat="39.366687" lon="-5.399314">
        <ele>532.2</ele>
        <time>1970-01-01T00:00:00Z</time>
      </trkpt>
      <trkpt lat="39.366687" lon="-5.399314">
        <ele>532.2</ele>
        <time>1970-01-01T00:00:00Z</time>
      </trkpt>
      <trkpt lat="39.366687" lon="-5.399314">
        <ele>532.2</ele>
        <time>1970-01-01T00:00:00Z</time>
      </trkpt>
      <trkpt lat="39.366687" lon="-5.399314">
        <ele>532.2</ele>
        <time>1970-01-01T00:00:00Z</time>
      </trkpt>
      <trkpt lat="39.366854" lon="-5.399044">
        <ele>534.8</ele>
        <time>1970-01-01T00:00:00Z</time>
      </trkpt>
      <trkpt lat="39.366854" lon="-5.399044">
        <ele>534.8</ele>
        <time>1970-01-01T00:00:00Z</time>
      </trkpt>
      <trkpt lat="39.366854" lon="-5.399044">
        <ele>534.8</ele>
        <time>1970-01-01T00:00:00Z</time>
      </trkpt>
      <trkpt lat="39.366854" lon="-5.399044">
        <ele>534.8</ele>
        <time>1970-01-01T00:00:00Z</time>
      </trkpt>
      <trkpt lat="39.366911" lon="-5.398959">
        <ele>535.4</ele>
        <time>1970-01-01T00:00:00Z</time>
      </trkpt>
      <trkpt lat="39.366911" lon="-5.398959">
        <ele>535.4</ele>
        <time>1970-01-01T00:00:00Z</time>
      </trkpt>
      <trkpt lat="39.366911" lon="-5.398959">
        <ele>535.4</ele>
        <time>1970-01-01T00:00:00Z</time>
      </trkpt>
      <trkpt lat="39.366911" lon="-5.398959">
        <ele>535.4</ele>
        <time>1970-01-01T00:00:00Z</time>
      </trkpt>
      <trkpt lat="39.366980" lon="-5.398870">
        <ele>536.3</ele>
        <time>1970-01-01T00:00:00Z</time>
      </trkpt>
      <trkpt lat="39.366980" lon="-5.398870">
        <ele>536.3</ele>
        <time>1970-01-01T00:00:00Z</time>
      </trkpt>
      <trkpt lat="39.366980" lon="-5.398870">
        <ele>536.3</ele>
        <time>1970-01-01T00:00:00Z</time>
      </trkpt>
      <trkpt lat="39.366980" lon="-5.398870">
        <ele>536.3</ele>
        <time>1970-01-01T00:00:00Z</time>
      </trkpt>
      <trkpt lat="39.367068" lon="-5.398814">
        <ele>537.1</ele>
        <time>1970-01-01T00:00:00Z</time>
      </trkpt>
      <trkpt lat="39.367068" lon="-5.398814">
        <ele>537.1</ele>
        <time>1970-01-01T00:00:00Z</time>
      </trkpt>
      <trkpt lat="39.367068" lon="-5.398814">
        <ele>537.1</ele>
        <time>1970-01-01T00:00:00Z</time>
      </trkpt>
      <trkpt lat="39.367068" lon="-5.398814">
        <ele>537.1</ele>
        <time>1970-01-01T00:00:00Z</time>
      </trkpt>
      <trkpt lat="39.367175" lon="-5.398765">
        <ele>538.0</ele>
        <time>1970-01-01T00:00:00Z</time>
      </trkpt>
      <trkpt lat="39.367175" lon="-5.398765">
        <ele>538.0</ele>
        <time>1970-01-01T00:00:00Z</time>
      </trkpt>
      <trkpt lat="39.367175" lon="-5.398765">
        <ele>538.0</ele>
        <time>1970-01-01T00:00:00Z</time>
      </trkpt>
      <trkpt lat="39.367175" lon="-5.398765">
        <ele>538.0</ele>
        <time>1970-01-01T00:00:00Z</time>
      </trkpt>
      <trkpt lat="39.367240" lon="-5.398737">
        <ele>538.5</ele>
        <time>1970-01-01T00:00:00Z</time>
      </trkpt>
      <trkpt lat="39.367240" lon="-5.398737">
        <ele>538.5</ele>
        <time>1970-01-01T00:00:00Z</time>
      </trkpt>
      <trkpt lat="39.367240" lon="-5.398737">
        <ele>538.5</ele>
        <time>1970-01-01T00:00:00Z</time>
      </trkpt>
      <trkpt lat="39.367240" lon="-5.398737">
        <ele>538.5</ele>
        <time>1970-01-01T00:00:00Z</time>
      </trkpt>
      <trkpt lat="39.367324" lon="-5.398710">
        <ele>539.2</ele>
        <time>1970-01-01T00:00:00Z</time>
      </trkpt>
      <trkpt lat="39.367324" lon="-5.398710">
        <ele>539.2</ele>
        <time>1970-01-01T00:00:00Z</time>
      </trkpt>
      <trkpt lat="39.367324" lon="-5.398710">
        <ele>539.2</ele>
        <time>1970-01-01T00:00:00Z</time>
      </trkpt>
      <trkpt lat="39.367324" lon="-5.398710">
        <ele>539.2</ele>
        <time>1970-01-01T00:00:00Z</time>
      </trkpt>
      <trkpt lat="39.367348" lon="-5.398696">
        <ele>539.4</ele>
        <time>1970-01-01T00:00:00Z</time>
      </trkpt>
      <trkpt lat="39.367348" lon="-5.398696">
        <ele>539.4</ele>
        <time>1970-01-01T00:00:00Z</time>
      </trkpt>
      <trkpt lat="39.367348" lon="-5.398696">
        <ele>539.4</ele>
        <time>1970-01-01T00:00:00Z</time>
      </trkpt>
      <trkpt lat="39.367348" lon="-5.398696">
        <ele>539.4</ele>
        <time>1970-01-01T00:00:00Z</time>
      </trkpt>
      <trkpt lat="39.367367" lon="-5.398667">
        <ele>539.6</ele>
        <time>1970-01-01T00:00:00Z</time>
      </trkpt>
      <trkpt lat="39.367367" lon="-5.398667">
        <ele>539.6</ele>
        <time>1970-01-01T00:00:00Z</time>
      </trkpt>
      <trkpt lat="39.367367" lon="-5.398667">
        <ele>539.6</ele>
        <time>1970-01-01T00:00:00Z</time>
      </trkpt>
      <trkpt lat="39.367367" lon="-5.398667">
        <ele>539.6</ele>
        <time>1970-01-01T00:00:00Z</time>
      </trkpt>
      <trkpt lat="39.367414" lon="-5.398588">
        <ele>540.3</ele>
        <time>1970-01-01T00:00:00Z</time>
      </trkpt>
      <trkpt lat="39.367414" lon="-5.398588">
        <ele>540.3</ele>
        <time>1970-01-01T00:00:00Z</time>
      </trkpt>
      <trkpt lat="39.367414" lon="-5.398588">
        <ele>540.3</ele>
        <time>1970-01-01T00:00:00Z</time>
      </trkpt>
      <trkpt lat="39.367414" lon="-5.398588">
        <ele>540.3</ele>
        <time>1970-01-01T00:00:00Z</time>
      </trkpt>
      <trkpt lat="39.367566" lon="-5.398270">
        <ele>542.1</ele>
        <time>1970-01-01T00:00:00Z</time>
      </trkpt>
      <trkpt lat="39.367566" lon="-5.398270">
        <ele>542.1</ele>
        <time>1970-01-01T00:00:00Z</time>
      </trkpt>
      <trkpt lat="39.367566" lon="-5.398270">
        <ele>542.1</ele>
        <time>1970-01-01T00:00:00Z</time>
      </trkpt>
      <trkpt lat="39.367566" lon="-5.398270">
        <ele>542.1</ele>
        <time>1970-01-01T00:00:00Z</time>
      </trkpt>
      <trkpt lat="39.367653" lon="-5.398075">
        <ele>544.0</ele>
        <time>1970-01-01T00:00:00Z</time>
      </trkpt>
      <trkpt lat="39.367653" lon="-5.398075">
        <ele>544.0</ele>
        <time>1970-01-01T00:00:00Z</time>
      </trkpt>
      <trkpt lat="39.367653" lon="-5.398075">
        <ele>544.0</ele>
        <time>1970-01-01T00:00:00Z</time>
      </trkpt>
      <trkpt lat="39.367653" lon="-5.398075">
        <ele>544.0</ele>
        <time>1970-01-01T00:00:00Z</time>
      </trkpt>
      <trkpt lat="39.367688" lon="-5.398000">
        <ele>544.8</ele>
        <time>1970-01-01T00:00:00Z</time>
      </trkpt>
      <trkpt lat="39.367688" lon="-5.398000">
        <ele>544.8</ele>
        <time>1970-01-01T00:00:00Z</time>
      </trkpt>
      <trkpt lat="39.367688" lon="-5.398000">
        <ele>544.8</ele>
        <time>1970-01-01T00:00:00Z</time>
      </trkpt>
      <trkpt lat="39.367688" lon="-5.398000">
        <ele>544.8</ele>
        <time>1970-01-01T00:00:00Z</time>
      </trkpt>
      <trkpt lat="39.367736" lon="-5.397960">
        <ele>545.0</ele>
        <time>1970-01-01T00:00:00Z</time>
      </trkpt>
      <trkpt lat="39.367736" lon="-5.397960">
        <ele>545.0</ele>
        <time>1970-01-01T00:00:00Z</time>
      </trkpt>
      <trkpt lat="39.367736" lon="-5.397960">
        <ele>545.0</ele>
        <time>1970-01-01T00:00:00Z</time>
      </trkpt>
      <trkpt lat="39.367736" lon="-5.397960">
        <ele>545.0</ele>
        <time>1970-01-01T00:00:00Z</time>
      </trkpt>
      <trkpt lat="39.367741" lon="-5.397828">
        <ele>545.6</ele>
        <time>1970-01-01T00:00:00Z</time>
      </trkpt>
      <trkpt lat="39.367741" lon="-5.397828">
        <ele>545.6</ele>
        <time>1970-01-01T00:00:00Z</time>
      </trkpt>
      <trkpt lat="39.367741" lon="-5.397828">
        <ele>545.6</ele>
        <time>1970-01-01T00:00:00Z</time>
      </trkpt>
      <trkpt lat="39.367741" lon="-5.397828">
        <ele>545.6</ele>
        <time>1970-01-01T00:00:00Z</time>
      </trkpt>
      <trkpt lat="39.367758" lon="-5.397744">
        <ele>546.0</ele>
        <time>1970-01-01T00:00:00Z</time>
      </trkpt>
      <trkpt lat="39.367758" lon="-5.397744">
        <ele>546.0</ele>
        <time>1970-01-01T00:00:00Z</time>
      </trkpt>
      <trkpt lat="39.367758" lon="-5.397744">
        <ele>546.0</ele>
        <time>1970-01-01T00:00:00Z</time>
      </trkpt>
      <trkpt lat="39.367758" lon="-5.397744">
        <ele>546.0</ele>
        <time>1970-01-01T00:00:00Z</time>
      </trkpt>
      <trkpt lat="39.367792" lon="-5.397680">
        <ele>546.3</ele>
        <time>1970-01-01T00:00:00Z</time>
      </trkpt>
      <trkpt lat="39.367792" lon="-5.397680">
        <ele>546.3</ele>
        <time>1970-01-01T00:00:00Z</time>
      </trkpt>
      <trkpt lat="39.367792" lon="-5.397680">
        <ele>546.3</ele>
        <time>1970-01-01T00:00:00Z</time>
      </trkpt>
      <trkpt lat="39.367792" lon="-5.397680">
        <ele>546.3</ele>
        <time>1970-01-01T00:00:00Z</time>
      </trkpt>
      <trkpt lat="39.367830" lon="-5.397651">
        <ele>546.2</ele>
        <time>1970-01-01T00:00:00Z</time>
      </trkpt>
      <trkpt lat="39.367830" lon="-5.397651">
        <ele>546.2</ele>
        <time>1970-01-01T00:00:00Z</time>
      </trkpt>
      <trkpt lat="39.367830" lon="-5.397651">
        <ele>546.2</ele>
        <time>1970-01-01T00:00:00Z</time>
      </trkpt>
      <trkpt lat="39.367830" lon="-5.397651">
        <ele>546.2</ele>
        <time>1970-01-01T00:00:00Z</time>
      </trkpt>
      <trkpt lat="39.367882" lon="-5.397560">
        <ele>546.4</ele>
        <time>1970-01-01T00:00:00Z</time>
      </trkpt>
      <trkpt lat="39.367882" lon="-5.397560">
        <ele>546.4</ele>
        <time>1970-01-01T00:00:00Z</time>
      </trkpt>
      <trkpt lat="39.367882" lon="-5.397560">
        <ele>546.4</ele>
        <time>1970-01-01T00:00:00Z</time>
      </trkpt>
      <trkpt lat="39.367882" lon="-5.397560">
        <ele>546.4</ele>
        <time>1970-01-01T00:00:00Z</time>
      </trkpt>
      <trkpt lat="39.367937" lon="-5.397476">
        <ele>546.3</ele>
        <time>1970-01-01T00:00:00Z</time>
      </trkpt>
      <trkpt lat="39.367937" lon="-5.397476">
        <ele>546.3</ele>
        <time>1970-01-01T00:00:00Z</time>
      </trkpt>
      <trkpt lat="39.367937" lon="-5.397476">
        <ele>546.3</ele>
        <time>1970-01-01T00:00:00Z</time>
      </trkpt>
      <trkpt lat="39.367937" lon="-5.397476">
        <ele>546.3</ele>
        <time>1970-01-01T00:00:00Z</time>
      </trkpt>
      <trkpt lat="39.367980" lon="-5.397414">
        <ele>546.3</ele>
        <time>1970-01-01T00:00:00Z</time>
      </trkpt>
      <trkpt lat="39.367980" lon="-5.397414">
        <ele>546.3</ele>
        <time>1970-01-01T00:00:00Z</time>
      </trkpt>
      <trkpt lat="39.367980" lon="-5.397414">
        <ele>546.3</ele>
        <time>1970-01-01T00:00:00Z</time>
      </trkpt>
      <trkpt lat="39.367980" lon="-5.397414">
        <ele>546.3</ele>
        <time>1970-01-01T00:00:00Z</time>
      </trkpt>
      <trkpt lat="39.368002" lon="-5.397363">
        <ele>546.4</ele>
        <time>1970-01-01T00:00:00Z</time>
      </trkpt>
      <trkpt lat="39.368002" lon="-5.397363">
        <ele>546.4</ele>
        <time>1970-01-01T00:00:00Z</time>
      </trkpt>
      <trkpt lat="39.368002" lon="-5.397363">
        <ele>546.4</ele>
        <time>1970-01-01T00:00:00Z</time>
      </trkpt>
      <trkpt lat="39.368002" lon="-5.397363">
        <ele>546.4</ele>
        <time>1970-01-01T00:00:00Z</time>
      </trkpt>
      <trkpt lat="39.368016" lon="-5.397318">
        <ele>546.6</ele>
        <time>1970-01-01T00:00:00Z</time>
      </trkpt>
      <trkpt lat="39.368016" lon="-5.397318">
        <ele>546.6</ele>
        <time>1970-01-01T00:00:00Z</time>
      </trkpt>
      <trkpt lat="39.368016" lon="-5.397318">
        <ele>546.6</ele>
        <time>1970-01-01T00:00:00Z</time>
      </trkpt>
      <trkpt lat="39.368016" lon="-5.397318">
        <ele>546.6</ele>
        <time>1970-01-01T00:00:00Z</time>
      </trkpt>
      <trkpt lat="39.368031" lon="-5.397245">
        <ele>547.0</ele>
        <time>1970-01-01T00:00:00Z</time>
      </trkpt>
      <trkpt lat="39.368031" lon="-5.397245">
        <ele>547.0</ele>
        <time>1970-01-01T00:00:00Z</time>
      </trkpt>
      <trkpt lat="39.368031" lon="-5.397245">
        <ele>547.0</ele>
        <time>1970-01-01T00:00:00Z</time>
      </trkpt>
      <trkpt lat="39.368031" lon="-5.397245">
        <ele>547.0</ele>
        <time>1970-01-01T00:00:00Z</time>
      </trkpt>
      <trkpt lat="39.368042" lon="-5.397180">
        <ele>547.4</ele>
        <time>1970-01-01T00:00:00Z</time>
      </trkpt>
      <trkpt lat="39.368042" lon="-5.397180">
        <ele>547.4</ele>
        <time>1970-01-01T00:00:00Z</time>
      </trkpt>
      <trkpt lat="39.368042" lon="-5.397180">
        <ele>547.4</ele>
        <time>1970-01-01T00:00:00Z</time>
      </trkpt>
      <trkpt lat="39.368042" lon="-5.397180">
        <ele>547.4</ele>
        <time>1970-01-01T00:00:00Z</time>
      </trkpt>
      <trkpt lat="39.368071" lon="-5.397065">
        <ele>548.0</ele>
        <time>1970-01-01T00:00:00Z</time>
      </trkpt>
      <trkpt lat="39.368071" lon="-5.397065">
        <ele>548.0</ele>
        <time>1970-01-01T00:00:00Z</time>
      </trkpt>
      <trkpt lat="39.368071" lon="-5.397065">
        <ele>548.0</ele>
        <time>1970-01-01T00:00:00Z</time>
      </trkpt>
      <trkpt lat="39.368071" lon="-5.397065">
        <ele>548.0</ele>
        <time>1970-01-01T00:00:00Z</time>
      </trkpt>
      <trkpt lat="39.368111" lon="-5.396894">
        <ele>549.1</ele>
        <time>1970-01-01T00:00:00Z</time>
      </trkpt>
      <trkpt lat="39.368111" lon="-5.396894">
        <ele>549.1</ele>
        <time>1970-01-01T00:00:00Z</time>
      </trkpt>
      <trkpt lat="39.368111" lon="-5.396894">
        <ele>549.1</ele>
        <time>1970-01-01T00:00:00Z</time>
      </trkpt>
      <trkpt lat="39.368111" lon="-5.396894">
        <ele>549.1</ele>
        <time>1970-01-01T00:00:00Z</time>
      </trkpt>
      <trkpt lat="39.368161" lon="-5.396680">
        <ele>549.8</ele>
        <time>1970-01-01T00:00:00Z</time>
      </trkpt>
      <trkpt lat="39.368161" lon="-5.396680">
        <ele>549.8</ele>
        <time>1970-01-01T00:00:00Z</time>
      </trkpt>
      <trkpt lat="39.368161" lon="-5.396680">
        <ele>549.8</ele>
        <time>1970-01-01T00:00:00Z</time>
      </trkpt>
      <trkpt lat="39.368161" lon="-5.396680">
        <ele>549.8</ele>
        <time>1970-01-01T00:00:00Z</time>
      </trkpt>
      <trkpt lat="39.368199" lon="-5.396488">
        <ele>550.4</ele>
        <time>1970-01-01T00:00:00Z</time>
      </trkpt>
      <trkpt lat="39.368199" lon="-5.396488">
        <ele>550.4</ele>
        <time>1970-01-01T00:00:00Z</time>
      </trkpt>
      <trkpt lat="39.368199" lon="-5.396488">
        <ele>550.4</ele>
        <time>1970-01-01T00:00:00Z</time>
      </trkpt>
      <trkpt lat="39.368199" lon="-5.396488">
        <ele>550.4</ele>
        <time>1970-01-01T00:00:00Z</time>
      </trkpt>
      <trkpt lat="39.368259" lon="-5.396300">
        <ele>551.3</ele>
        <time>1970-01-01T00:00:00Z</time>
      </trkpt>
      <trkpt lat="39.368259" lon="-5.396300">
        <ele>551.3</ele>
        <time>1970-01-01T00:00:00Z</time>
      </trkpt>
      <trkpt lat="39.368259" lon="-5.396300">
        <ele>551.3</ele>
        <time>1970-01-01T00:00:00Z</time>
      </trkpt>
      <trkpt lat="39.368259" lon="-5.396300">
        <ele>551.3</ele>
        <time>1970-01-01T00:00:00Z</time>
      </trkpt>
      <trkpt lat="39.368309" lon="-5.396157">
        <ele>552.3</ele>
        <time>1970-01-01T00:00:00Z</time>
      </trkpt>
      <trkpt lat="39.368309" lon="-5.396157">
        <ele>552.3</ele>
        <time>1970-01-01T00:00:00Z</time>
      </trkpt>
      <trkpt lat="39.368309" lon="-5.396157">
        <ele>552.3</ele>
        <time>1970-01-01T00:00:00Z</time>
      </trkpt>
      <trkpt lat="39.368309" lon="-5.396157">
        <ele>552.3</ele>
        <time>1970-01-01T00:00:00Z</time>
      </trkpt>
      <trkpt lat="39.368391" lon="-5.396005">
        <ele>552.7</ele>
        <time>1970-01-01T00:00:00Z</time>
      </trkpt>
      <trkpt lat="39.368391" lon="-5.396005">
        <ele>552.7</ele>
        <time>1970-01-01T00:00:00Z</time>
      </trkpt>
      <trkpt lat="39.368391" lon="-5.396005">
        <ele>552.7</ele>
        <time>1970-01-01T00:00:00Z</time>
      </trkpt>
      <trkpt lat="39.368391" lon="-5.396005">
        <ele>552.7</ele>
        <time>1970-01-01T00:00:00Z</time>
      </trkpt>
      <trkpt lat="39.368435" lon="-5.395898">
        <ele>552.9</ele>
        <time>1970-01-01T00:00:00Z</time>
      </trkpt>
      <trkpt lat="39.368435" lon="-5.395898">
        <ele>552.9</ele>
        <time>1970-01-01T00:00:00Z</time>
      </trkpt>
      <trkpt lat="39.368435" lon="-5.395898">
        <ele>552.9</ele>
        <time>1970-01-01T00:00:00Z</time>
      </trkpt>
      <trkpt lat="39.368435" lon="-5.395898">
        <ele>552.9</ele>
        <time>1970-01-01T00:00:00Z</time>
      </trkpt>
      <trkpt lat="39.368487" lon="-5.395843">
        <ele>552.8</ele>
        <time>1970-01-01T00:00:00Z</time>
      </trkpt>
      <trkpt lat="39.368487" lon="-5.395843">
        <ele>552.8</ele>
        <time>1970-01-01T00:00:00Z</time>
      </trkpt>
      <trkpt lat="39.368487" lon="-5.395843">
        <ele>552.8</ele>
        <time>1970-01-01T00:00:00Z</time>
      </trkpt>
      <trkpt lat="39.368487" lon="-5.395843">
        <ele>552.8</ele>
        <time>1970-01-01T00:00:00Z</time>
      </trkpt>
      <trkpt lat="39.368605" lon="-5.395761">
        <ele>552.7</ele>
        <time>1970-01-01T00:00:00Z</time>
      </trkpt>
      <trkpt lat="39.368605" lon="-5.395761">
        <ele>552.7</ele>
        <time>1970-01-01T00:00:00Z</time>
      </trkpt>
      <trkpt lat="39.368605" lon="-5.395761">
        <ele>552.7</ele>
        <time>1970-01-01T00:00:00Z</time>
      </trkpt>
      <trkpt lat="39.368605" lon="-5.395761">
        <ele>552.7</ele>
        <time>1970-01-01T00:00:00Z</time>
      </trkpt>
      <trkpt lat="39.368715" lon="-5.395706">
        <ele>552.9</ele>
        <time>1970-01-01T00:00:00Z</time>
      </trkpt>
      <trkpt lat="39.368715" lon="-5.395706">
        <ele>552.9</ele>
        <time>1970-01-01T00:00:00Z</time>
      </trkpt>
      <trkpt lat="39.368715" lon="-5.395706">
        <ele>552.9</ele>
        <time>1970-01-01T00:00:00Z</time>
      </trkpt>
      <trkpt lat="39.368715" lon="-5.395706">
        <ele>552.9</ele>
        <time>1970-01-01T00:00:00Z</time>
      </trkpt>
      <trkpt lat="39.368730" lon="-5.395739">
        <ele>552.7</ele>
        <time>1970-01-01T00:00:00Z</time>
      </trkpt>
      <trkpt lat="39.368730" lon="-5.395739">
        <ele>552.7</ele>
        <time>1970-01-01T00:00:00Z</time>
      </trkpt>
      <trkpt lat="39.368730" lon="-5.395739">
        <ele>552.7</ele>
        <time>1970-01-01T00:00:00Z</time>
      </trkpt>
      <trkpt lat="39.368730" lon="-5.395739">
        <ele>552.7</ele>
        <time>1970-01-01T00:00:00Z</time>
      </trkpt>
      <trkpt lat="39.368559" lon="-5.395863">
        <ele>552.5</ele>
        <time>1970-01-01T00:00:00Z</time>
      </trkpt>
      <trkpt lat="39.368559" lon="-5.395863">
        <ele>552.5</ele>
        <time>1970-01-01T00:00:00Z</time>
      </trkpt>
      <trkpt lat="39.368559" lon="-5.395863">
        <ele>552.5</ele>
        <time>1970-01-01T00:00:00Z</time>
      </trkpt>
      <trkpt lat="39.368559" lon="-5.395863">
        <ele>552.5</ele>
        <time>1970-01-01T00:00:00Z</time>
      </trkpt>
      <trkpt lat="39.368346" lon="-5.396016">
        <ele>552.8</ele>
        <time>1970-01-01T00:00:00Z</time>
      </trkpt>
      <trkpt lat="39.368346" lon="-5.396016">
        <ele>552.8</ele>
        <time>1970-01-01T00:00:00Z</time>
      </trkpt>
      <trkpt lat="39.368346" lon="-5.396016">
        <ele>552.8</ele>
        <time>1970-01-01T00:00:00Z</time>
      </trkpt>
      <trkpt lat="39.368346" lon="-5.396016">
        <ele>552.8</ele>
        <time>1970-01-01T00:00:00Z</time>
      </trkpt>
      <trkpt lat="39.368230" lon="-5.395759">
        <ele>553.3</ele>
        <time>1970-01-01T00:00:00Z</time>
      </trkpt>
      <trkpt lat="39.368230" lon="-5.395759">
        <ele>553.3</ele>
        <time>1970-01-01T00:00:00Z</time>
      </trkpt>
      <trkpt lat="39.368230" lon="-5.395759">
        <ele>553.3</ele>
        <time>1970-01-01T00:00:00Z</time>
      </trkpt>
      <trkpt lat="39.368230" lon="-5.395759">
        <ele>553.3</ele>
        <time>1970-01-01T00:00:00Z</time>
      </trkpt>
      <trkpt lat="39.368102" lon="-5.395865">
        <ele>554.5</ele>
        <time>1970-01-01T00:00:00Z</time>
      </trkpt>
      <trkpt lat="39.368102" lon="-5.395865">
        <ele>554.5</ele>
        <time>1970-01-01T00:00:00Z</time>
      </trkpt>
      <trkpt lat="39.368102" lon="-5.395865">
        <ele>554.5</ele>
        <time>1970-01-01T00:00:00Z</time>
      </trkpt>
      <trkpt lat="39.368102" lon="-5.395865">
        <ele>554.5</ele>
        <time>1970-01-01T00:00:00Z</time>
      </trkpt>
      <trkpt lat="39.368025" lon="-5.395629">
        <ele>555.0</ele>
        <time>1970-01-01T00:00:00Z</time>
      </trkpt>
      <trkpt lat="39.368025" lon="-5.395629">
        <ele>555.0</ele>
        <time>1970-01-01T00:00:00Z</time>
      </trkpt>
      <trkpt lat="39.368025" lon="-5.395629">
        <ele>555.0</ele>
        <time>1970-01-01T00:00:00Z</time>
      </trkpt>
      <trkpt lat="39.368025" lon="-5.395629">
        <ele>555.0</ele>
        <time>1970-01-01T00:00:00Z</time>
      </trkpt>
      <trkpt lat="39.367943" lon="-5.395404">
        <ele>555.6</ele>
        <time>1970-01-01T00:00:00Z</time>
      </trkpt>
      <trkpt lat="39.367943" lon="-5.395404">
        <ele>555.6</ele>
        <time>1970-01-01T00:00:00Z</time>
      </trkpt>
      <trkpt lat="39.367943" lon="-5.395404">
        <ele>555.6</ele>
        <time>1970-01-01T00:00:00Z</time>
      </trkpt>
      <trkpt lat="39.367943" lon="-5.395404">
        <ele>555.6</ele>
        <time>1970-01-01T00:00:00Z</time>
      </trkpt>
      <trkpt lat="39.367860" lon="-5.395169">
        <ele>554.6</ele>
        <time>1970-01-01T00:00:00Z</time>
      </trkpt>
      <trkpt lat="39.367860" lon="-5.395169">
        <ele>554.6</ele>
        <time>1970-01-01T00:00:00Z</time>
      </trkpt>
      <trkpt lat="39.367860" lon="-5.395169">
        <ele>554.6</ele>
        <time>1970-01-01T00:00:00Z</time>
      </trkpt>
      <trkpt lat="39.367860" lon="-5.395169">
        <ele>554.6</ele>
        <time>1970-01-01T00:00:00Z</time>
      </trkpt>
      <trkpt lat="39.367843" lon="-5.395120">
        <ele>554.3</ele>
        <time>1970-01-01T00:00:00Z</time>
      </trkpt>
      <trkpt lat="39.367843" lon="-5.395120">
        <ele>554.3</ele>
        <time>1970-01-01T00:00:00Z</time>
      </trkpt>
      <trkpt lat="39.367843" lon="-5.395120">
        <ele>554.3</ele>
        <time>1970-01-01T00:00:00Z</time>
      </trkpt>
      <trkpt lat="39.367843" lon="-5.395120">
        <ele>554.3</ele>
        <time>1970-01-01T00:00:00Z</time>
      </trkpt>
      <trkpt lat="39.367838" lon="-5.395104">
        <ele>554.2</ele>
        <time>1970-01-01T00:00:00Z</time>
      </trkpt>
      <trkpt lat="39.367838" lon="-5.395104">
        <ele>554.2</ele>
        <time>1970-01-01T00:00:00Z</time>
      </trkpt>
      <trkpt lat="39.367838" lon="-5.395104">
        <ele>554.2</ele>
        <time>1970-01-01T00:00:00Z</time>
      </trkpt>
      <trkpt lat="39.367838" lon="-5.395104">
        <ele>554.2</ele>
        <time>1970-01-01T00:00:00Z</time>
      </trkpt>
      <trkpt lat="39.367837" lon="-5.395081">
        <ele>554.0</ele>
        <time>1970-01-01T00:00:00Z</time>
      </trkpt>
      <trkpt lat="39.367837" lon="-5.395081">
        <ele>554.0</ele>
        <time>1970-01-01T00:00:00Z</time>
      </trkpt>
      <trkpt lat="39.367837" lon="-5.395081">
        <ele>554.0</ele>
        <time>1970-01-01T00:00:00Z</time>
      </trkpt>
      <trkpt lat="39.367837" lon="-5.395081">
        <ele>554.0</ele>
        <time>1970-01-01T00:00:00Z</time>
      </trkpt>
      <trkpt lat="39.367841" lon="-5.395051">
        <ele>553.6</ele>
        <time>1970-01-01T00:00:00Z</time>
      </trkpt>
      <trkpt lat="39.367841" lon="-5.395051">
        <ele>553.6</ele>
        <time>1970-01-01T00:00:00Z</time>
      </trkpt>
      <trkpt lat="39.367841" lon="-5.395051">
        <ele>553.6</ele>
        <time>1970-01-01T00:00:00Z</time>
      </trkpt>
      <trkpt lat="39.367841" lon="-5.395051">
        <ele>553.6</ele>
        <time>1970-01-01T00:00:00Z</time>
      </trkpt>
      <trkpt lat="39.367842" lon="-5.394954">
        <ele>552.6</ele>
        <time>1970-01-01T00:00:00Z</time>
      </trkpt>
      <trkpt lat="39.367842" lon="-5.394954">
        <ele>552.6</ele>
        <time>1970-01-01T00:00:00Z</time>
      </trkpt>
      <trkpt lat="39.367842" lon="-5.394954">
        <ele>552.6</ele>
        <time>1970-01-01T00:00:00Z</time>
      </trkpt>
      <trkpt lat="39.367842" lon="-5.394954">
        <ele>552.6</ele>
        <time>1970-01-01T00:00:00Z</time>
      </trkpt>
      <trkpt lat="39.367842" lon="-5.394846">
        <ele>551.7</ele>
        <time>1970-01-01T00:00:00Z</time>
      </trkpt>
      <trkpt lat="39.367842" lon="-5.394846">
        <ele>551.7</ele>
        <time>1970-01-01T00:00:00Z</time>
      </trkpt>
      <trkpt lat="39.367842" lon="-5.394846">
        <ele>551.7</ele>
        <time>1970-01-01T00:00:00Z</time>
      </trkpt>
      <trkpt lat="39.367842" lon="-5.394846">
        <ele>551.7</ele>
        <time>1970-01-01T00:00:00Z</time>
      </trkpt>
      <trkpt lat="39.367859" lon="-5.394756">
        <ele>550.8</ele>
        <time>1970-01-01T00:00:00Z</time>
      </trkpt>
      <trkpt lat="39.367859" lon="-5.394756">
        <ele>550.8</ele>
        <time>1970-01-01T00:00:00Z</time>
      </trkpt>
      <trkpt lat="39.367859" lon="-5.394756">
        <ele>550.8</ele>
        <time>1970-01-01T00:00:00Z</time>
      </trkpt>
      <trkpt lat="39.367859" lon="-5.394756">
        <ele>550.8</ele>
        <time>1970-01-01T00:00:00Z</time>
      </trkpt>
      <trkpt lat="39.367880" lon="-5.394695">
        <ele>549.7</ele>
        <time>1970-01-01T00:00:00Z</time>
      </trkpt>
      <trkpt lat="39.367880" lon="-5.394695">
        <ele>549.7</ele>
        <time>1970-01-01T00:00:00Z</time>
      </trkpt>
      <trkpt lat="39.367880" lon="-5.394695">
        <ele>549.7</ele>
        <time>1970-01-01T00:00:00Z</time>
      </trkpt>
      <trkpt lat="39.367880" lon="-5.394695">
        <ele>549.7</ele>
        <time>1970-01-01T00:00:00Z</time>
      </trkpt>
      <trkpt lat="39.367902" lon="-5.394638">
        <ele>548.8</ele>
        <time>1970-01-01T00:00:00Z</time>
      </trkpt>
      <trkpt lat="39.367902" lon="-5.394638">
        <ele>548.8</ele>
        <time>1970-01-01T00:00:00Z</time>
      </trkpt>
      <trkpt lat="39.367902" lon="-5.394638">
        <ele>548.8</ele>
        <time>1970-01-01T00:00:00Z</time>
      </trkpt>
      <trkpt lat="39.367902" lon="-5.394638">
        <ele>548.8</ele>
        <time>1970-01-01T00:00:00Z</time>
      </trkpt>
      <trkpt lat="39.367945" lon="-5.394546">
        <ele>547.3</ele>
        <time>1970-01-01T00:00:00Z</time>
      </trkpt>
      <trkpt lat="39.367945" lon="-5.394546">
        <ele>547.3</ele>
        <time>1970-01-01T00:00:00Z</time>
      </trkpt>
      <trkpt lat="39.367945" lon="-5.394546">
        <ele>547.3</ele>
        <time>1970-01-01T00:00:00Z</time>
      </trkpt>
      <trkpt lat="39.367945" lon="-5.394546">
        <ele>547.3</ele>
        <time>1970-01-01T00:00:00Z</time>
      </trkpt>
      <trkpt lat="39.367997" lon="-5.394483">
        <ele>546.5</ele>
        <time>1970-01-01T00:00:00Z</time>
      </trkpt>
      <trkpt lat="39.367997" lon="-5.394483">
        <ele>546.5</ele>
        <time>1970-01-01T00:00:00Z</time>
      </trkpt>
      <trkpt lat="39.367997" lon="-5.394483">
        <ele>546.5</ele>
        <time>1970-01-01T00:00:00Z</time>
      </trkpt>
      <trkpt lat="39.367997" lon="-5.394483">
        <ele>546.5</ele>
        <time>1970-01-01T00:00:00Z</time>
      </trkpt>
      <trkpt lat="39.368068" lon="-5.394431">
        <ele>545.8</ele>
        <time>1970-01-01T00:00:00Z</time>
      </trkpt>
      <trkpt lat="39.368068" lon="-5.394431">
        <ele>545.8</ele>
        <time>1970-01-01T00:00:00Z</time>
      </trkpt>
      <trkpt lat="39.368068" lon="-5.394431">
        <ele>545.8</ele>
        <time>1970-01-01T00:00:00Z</time>
      </trkpt>
      <trkpt lat="39.368068" lon="-5.394431">
        <ele>545.8</ele>
        <time>1970-01-01T00:00:00Z</time>
      </trkpt>
      <trkpt lat="39.368128" lon="-5.394399">
        <ele>545.4</ele>
        <time>1970-01-01T00:00:00Z</time>
      </trkpt>
      <trkpt lat="39.368128" lon="-5.394399">
        <ele>545.4</ele>
        <time>1970-01-01T00:00:00Z</time>
      </trkpt>
      <trkpt lat="39.368128" lon="-5.394399">
        <ele>545.4</ele>
        <time>1970-01-01T00:00:00Z</time>
      </trkpt>
      <trkpt lat="39.368128" lon="-5.394399">
        <ele>545.4</ele>
        <time>1970-01-01T00:00:00Z</time>
      </trkpt>
      <trkpt lat="39.368150" lon="-5.394368">
        <ele>545.0</ele>
        <time>1970-01-01T00:00:00Z</time>
      </trkpt>
      <trkpt lat="39.368150" lon="-5.394368">
        <ele>545.0</ele>
        <time>1970-01-01T00:00:00Z</time>
      </trkpt>
      <trkpt lat="39.368150" lon="-5.394368">
        <ele>545.0</ele>
        <time>1970-01-01T00:00:00Z</time>
      </trkpt>
      <trkpt lat="39.368150" lon="-5.394368">
        <ele>545.0</ele>
        <time>1970-01-01T00:00:00Z</time>
      </trkpt>
      <trkpt lat="39.368143" lon="-5.394248">
        <ele>543.6</ele>
        <time>1970-01-01T00:00:00Z</time>
      </trkpt>
      <trkpt lat="39.368143" lon="-5.394248">
        <ele>543.6</ele>
        <time>1970-01-01T00:00:00Z</time>
      </trkpt>
      <trkpt lat="39.368143" lon="-5.394248">
        <ele>543.6</ele>
        <time>1970-01-01T00:00:00Z</time>
      </trkpt>
      <trkpt lat="39.368143" lon="-5.394248">
        <ele>543.6</ele>
        <time>1970-01-01T00:00:00Z</time>
      </trkpt>
      <trkpt lat="39.368122" lon="-5.394101">
        <ele>542.3</ele>
        <time>1970-01-01T00:00:00Z</time>
      </trkpt>
      <trkpt lat="39.368122" lon="-5.394101">
        <ele>542.3</ele>
        <time>1970-01-01T00:00:00Z</time>
      </trkpt>
      <trkpt lat="39.368122" lon="-5.394101">
        <ele>542.3</ele>
        <time>1970-01-01T00:00:00Z</time>
      </trkpt>
      <trkpt lat="39.368122" lon="-5.394101">
        <ele>542.3</ele>
        <time>1970-01-01T00:00:00Z</time>
      </trkpt>
      <trkpt lat="39.368110" lon="-5.393966">
        <ele>541.2</ele>
        <time>1970-01-01T00:00:00Z</time>
      </trkpt>
      <trkpt lat="39.368110" lon="-5.393966">
        <ele>541.2</ele>
        <time>1970-01-01T00:00:00Z</time>
      </trkpt>
      <trkpt lat="39.368110" lon="-5.393966">
        <ele>541.2</ele>
        <time>1970-01-01T00:00:00Z</time>
      </trkpt>
      <trkpt lat="39.368110" lon="-5.393966">
        <ele>541.2</ele>
        <time>1970-01-01T00:00:00Z</time>
      </trkpt>
      <trkpt lat="39.368098" lon="-5.393833">
        <ele>540.0</ele>
        <time>1970-01-01T00:00:00Z</time>
      </trkpt>
      <trkpt lat="39.368098" lon="-5.393833">
        <ele>540.0</ele>
        <time>1970-01-01T00:00:00Z</time>
      </trkpt>
      <trkpt lat="39.368098" lon="-5.393833">
        <ele>540.0</ele>
        <time>1970-01-01T00:00:00Z</time>
      </trkpt>
      <trkpt lat="39.368098" lon="-5.393833">
        <ele>540.0</ele>
        <time>1970-01-01T00:00:00Z</time>
      </trkpt>
      <trkpt lat="39.368083" lon="-5.393708">
        <ele>538.4</ele>
        <time>1970-01-01T00:00:00Z</time>
      </trkpt>
      <trkpt lat="39.368083" lon="-5.393708">
        <ele>538.4</ele>
        <time>1970-01-01T00:00:00Z</time>
      </trkpt>
      <trkpt lat="39.368083" lon="-5.393708">
        <ele>538.4</ele>
        <time>1970-01-01T00:00:00Z</time>
      </trkpt>
      <trkpt lat="39.368083" lon="-5.393708">
        <ele>538.4</ele>
        <time>1970-01-01T00:00:00Z</time>
      </trkpt>
      <trkpt lat="39.368064" lon="-5.393601">
        <ele>537.0</ele>
        <time>1970-01-01T00:00:00Z</time>
      </trkpt>
      <trkpt lat="39.368064" lon="-5.393601">
        <ele>537.0</ele>
        <time>1970-01-01T00:00:00Z</time>
      </trkpt>
      <trkpt lat="39.368064" lon="-5.393601">
        <ele>537.0</ele>
        <time>1970-01-01T00:00:00Z</time>
      </trkpt>
      <trkpt lat="39.368064" lon="-5.393601">
        <ele>537.0</ele>
        <time>1970-01-01T00:00:00Z</time>
      </trkpt>
      <trkpt lat="39.368056" lon="-5.393535">
        <ele>536.3</ele>
        <time>1970-01-01T00:00:00Z</time>
      </trkpt>
      <trkpt lat="39.368056" lon="-5.393535">
        <ele>536.3</ele>
        <time>1970-01-01T00:00:00Z</time>
      </trkpt>
      <trkpt lat="39.368056" lon="-5.393535">
        <ele>536.3</ele>
        <time>1970-01-01T00:00:00Z</time>
      </trkpt>
      <trkpt lat="39.368056" lon="-5.393535">
        <ele>536.3</ele>
        <time>1970-01-01T00:00:00Z</time>
      </trkpt>
      <trkpt lat="39.368056" lon="-5.393377">
        <ele>534.6</ele>
        <time>1970-01-01T00:00:00Z</time>
      </trkpt>
      <trkpt lat="39.368056" lon="-5.393377">
        <ele>534.6</ele>
        <time>1970-01-01T00:00:00Z</time>
      </trkpt>
      <trkpt lat="39.368056" lon="-5.393377">
        <ele>534.6</ele>
        <time>1970-01-01T00:00:00Z</time>
      </trkpt>
      <trkpt lat="39.368056" lon="-5.393377">
        <ele>534.6</ele>
        <time>1970-01-01T00:00:00Z</time>
      </trkpt>
      <trkpt lat="39.368064" lon="-5.393235">
        <ele>532.8</ele>
        <time>1970-01-01T00:00:00Z</time>
      </trkpt>
      <trkpt lat="39.368064" lon="-5.393235">
        <ele>532.8</ele>
        <time>1970-01-01T00:00:00Z</time>
      </trkpt>
      <trkpt lat="39.368064" lon="-5.393235">
        <ele>532.8</ele>
        <time>1970-01-01T00:00:00Z</time>
      </trkpt>
      <trkpt lat="39.368064" lon="-5.393235">
        <ele>532.8</ele>
        <time>1970-01-01T00:00:00Z</time>
      </trkpt>
      <trkpt lat="39.368065" lon="-5.393029">
        <ele>530.6</ele>
        <time>1970-01-01T00:00:00Z</time>
      </trkpt>
      <trkpt lat="39.368065" lon="-5.393029">
        <ele>530.6</ele>
        <time>1970-01-01T00:00:00Z</time>
      </trkpt>
      <trkpt lat="39.368065" lon="-5.393029">
        <ele>530.6</ele>
        <time>1970-01-01T00:00:00Z</time>
      </trkpt>
      <trkpt lat="39.368065" lon="-5.393029">
        <ele>530.6</ele>
        <time>1970-01-01T00:00:00Z</time>
      </trkpt>
      <trkpt lat="39.368086" lon="-5.392750">
        <ele>528.5</ele>
        <time>1970-01-01T00:00:00Z</time>
      </trkpt>
      <trkpt lat="39.368086" lon="-5.392750">
        <ele>528.5</ele>
        <time>1970-01-01T00:00:00Z</time>
      </trkpt>
      <trkpt lat="39.368086" lon="-5.392750">
        <ele>528.5</ele>
        <time>1970-01-01T00:00:00Z</time>
      </trkpt>
      <trkpt lat="39.368086" lon="-5.392750">
        <ele>528.5</ele>
        <time>1970-01-01T00:00:00Z</time>
      </trkpt>
      <trkpt lat="39.368104" lon="-5.392512">
        <ele>526.2</ele>
        <time>1970-01-01T00:00:00Z</time>
      </trkpt>
      <trkpt lat="39.368104" lon="-5.392512">
        <ele>526.2</ele>
        <time>1970-01-01T00:00:00Z</time>
      </trkpt>
      <trkpt lat="39.368104" lon="-5.392512">
        <ele>526.2</ele>
        <time>1970-01-01T00:00:00Z</time>
      </trkpt>
      <trkpt lat="39.368104" lon="-5.392512">
        <ele>526.2</ele>
        <time>1970-01-01T00:00:00Z</time>
      </trkpt>
      <trkpt lat="39.368110" lon="-5.392325">
        <ele>524.3</ele>
        <time>1970-01-01T00:00:00Z</time>
      </trkpt>
      <trkpt lat="39.368110" lon="-5.392325">
        <ele>524.3</ele>
        <time>1970-01-01T00:00:00Z</time>
      </trkpt>
      <trkpt lat="39.368110" lon="-5.392325">
        <ele>524.3</ele>
        <time>1970-01-01T00:00:00Z</time>
      </trkpt>
      <trkpt lat="39.368110" lon="-5.392325">
        <ele>524.3</ele>
        <time>1970-01-01T00:00:00Z</time>
      </trkpt>
      <trkpt lat="39.368108" lon="-5.392239">
        <ele>523.6</ele>
        <time>1970-01-01T00:00:00Z</time>
      </trkpt>
      <trkpt lat="39.368108" lon="-5.392239">
        <ele>523.6</ele>
        <time>1970-01-01T00:00:00Z</time>
      </trkpt>
      <trkpt lat="39.368108" lon="-5.392239">
        <ele>523.6</ele>
        <time>1970-01-01T00:00:00Z</time>
      </trkpt>
      <trkpt lat="39.368108" lon="-5.392239">
        <ele>523.6</ele>
        <time>1970-01-01T00:00:00Z</time>
      </trkpt>
      <trkpt lat="39.368113" lon="-5.392173">
        <ele>523.1</ele>
        <time>1970-01-01T00:00:00Z</time>
      </trkpt>
      <trkpt lat="39.368113" lon="-5.392173">
        <ele>523.1</ele>
        <time>1970-01-01T00:00:00Z</time>
      </trkpt>
      <trkpt lat="39.368113" lon="-5.392173">
        <ele>523.1</ele>
        <time>1970-01-01T00:00:00Z</time>
      </trkpt>
      <trkpt lat="39.368113" lon="-5.392173">
        <ele>523.1</ele>
        <time>1970-01-01T00:00:00Z</time>
      </trkpt>
      <trkpt lat="39.368230" lon="-5.392121">
        <ele>522.8</ele>
        <time>1970-01-01T00:00:00Z</time>
      </trkpt>
      <trkpt lat="39.368230" lon="-5.392121">
        <ele>522.8</ele>
        <time>1970-01-01T00:00:00Z</time>
      </trkpt>
      <trkpt lat="39.368230" lon="-5.392121">
        <ele>522.8</ele>
        <time>1970-01-01T00:00:00Z</time>
      </trkpt>
      <trkpt lat="39.368230" lon="-5.392121">
        <ele>522.8</ele>
        <time>1970-01-01T00:00:00Z</time>
      </trkpt>
      <trkpt lat="39.368343" lon="-5.392075">
        <ele>523.1</ele>
        <time>1970-01-01T00:00:00Z</time>
      </trkpt>
      <trkpt lat="39.368343" lon="-5.392075">
        <ele>523.1</ele>
        <time>1970-01-01T00:00:00Z</time>
      </trkpt>
      <trkpt lat="39.368343" lon="-5.392075">
        <ele>523.1</ele>
        <time>1970-01-01T00:00:00Z</time>
      </trkpt>
      <trkpt lat="39.368343" lon="-5.392075">
        <ele>523.1</ele>
        <time>1970-01-01T00:00:00Z</time>
      </trkpt>
      <trkpt lat="39.368490" lon="-5.392014">
        <ele>523.2</ele>
        <time>1970-01-01T00:00:00Z</time>
      </trkpt>
      <trkpt lat="39.368490" lon="-5.392014">
        <ele>523.2</ele>
        <time>1970-01-01T00:00:00Z</time>
      </trkpt>
      <trkpt lat="39.368490" lon="-5.392014">
        <ele>523.2</ele>
        <time>1970-01-01T00:00:00Z</time>
      </trkpt>
      <trkpt lat="39.368490" lon="-5.392014">
        <ele>523.2</ele>
        <time>1970-01-01T00:00:00Z</time>
      </trkpt>
      <trkpt lat="39.368595" lon="-5.391959">
        <ele>522.9</ele>
        <time>1970-01-01T00:00:00Z</time>
      </trkpt>
      <trkpt lat="39.368595" lon="-5.391959">
        <ele>522.9</ele>
        <time>1970-01-01T00:00:00Z</time>
      </trkpt>
      <trkpt lat="39.368595" lon="-5.391959">
        <ele>522.9</ele>
        <time>1970-01-01T00:00:00Z</time>
      </trkpt>
      <trkpt lat="39.368595" lon="-5.391959">
        <ele>522.9</ele>
        <time>1970-01-01T00:00:00Z</time>
      </trkpt>
      <trkpt lat="39.368761" lon="-5.391882">
        <ele>523.1</ele>
        <time>1970-01-01T00:00:00Z</time>
      </trkpt>
      <trkpt lat="39.368761" lon="-5.391882">
        <ele>523.1</ele>
        <time>1970-01-01T00:00:00Z</time>
      </trkpt>
      <trkpt lat="39.368761" lon="-5.391882">
        <ele>523.1</ele>
        <time>1970-01-01T00:00:00Z</time>
      </trkpt>
      <trkpt lat="39.368761" lon="-5.391882">
        <ele>523.1</ele>
        <time>1970-01-01T00:00:00Z</time>
      </trkpt>
      <trkpt lat="39.368904" lon="-5.391836">
        <ele>523.5</ele>
        <time>1970-01-01T00:00:00Z</time>
      </trkpt>
      <trkpt lat="39.368904" lon="-5.391836">
        <ele>523.5</ele>
        <time>1970-01-01T00:00:00Z</time>
      </trkpt>
      <trkpt lat="39.368904" lon="-5.391836">
        <ele>523.5</ele>
        <time>1970-01-01T00:00:00Z</time>
      </trkpt>
      <trkpt lat="39.368904" lon="-5.391836">
        <ele>523.5</ele>
        <time>1970-01-01T00:00:00Z</time>
      </trkpt>
      <trkpt lat="39.368989" lon="-5.391798">
        <ele>523.7</ele>
        <time>1970-01-01T00:00:00Z</time>
      </trkpt>
      <trkpt lat="39.368989" lon="-5.391798">
        <ele>523.7</ele>
        <time>1970-01-01T00:00:00Z</time>
      </trkpt>
      <trkpt lat="39.368989" lon="-5.391798">
        <ele>523.7</ele>
        <time>1970-01-01T00:00:00Z</time>
      </trkpt>
      <trkpt lat="39.368989" lon="-5.391798">
        <ele>523.7</ele>
        <time>1970-01-01T00:00:00Z</time>
      </trkpt>
      <trkpt lat="39.369049" lon="-5.391760">
        <ele>523.8</ele>
        <time>1970-01-01T00:00:00Z</time>
      </trkpt>
      <trkpt lat="39.369049" lon="-5.391760">
        <ele>523.8</ele>
        <time>1970-01-01T00:00:00Z</time>
      </trkpt>
      <trkpt lat="39.369049" lon="-5.391760">
        <ele>523.8</ele>
        <time>1970-01-01T00:00:00Z</time>
      </trkpt>
      <trkpt lat="39.369049" lon="-5.391760">
        <ele>523.8</ele>
        <time>1970-01-01T00:00:00Z</time>
      </trkpt>
      <trkpt lat="39.369097" lon="-5.391724">
        <ele>524.0</ele>
        <time>1970-01-01T00:00:00Z</time>
      </trkpt>
      <trkpt lat="39.369097" lon="-5.391724">
        <ele>524.0</ele>
        <time>1970-01-01T00:00:00Z</time>
      </trkpt>
      <trkpt lat="39.369097" lon="-5.391724">
        <ele>524.0</ele>
        <time>1970-01-01T00:00:00Z</time>
      </trkpt>
      <trkpt lat="39.369097" lon="-5.391724">
        <ele>524.0</ele>
        <time>1970-01-01T00:00:00Z</time>
      </trkpt>
      <trkpt lat="39.369149" lon="-5.391677">
        <ele>524.4</ele>
        <time>1970-01-01T00:00:00Z</time>
      </trkpt>
      <trkpt lat="39.369149" lon="-5.391677">
        <ele>524.4</ele>
        <time>1970-01-01T00:00:00Z</time>
      </trkpt>
      <trkpt lat="39.369149" lon="-5.391677">
        <ele>524.4</ele>
        <time>1970-01-01T00:00:00Z</time>
      </trkpt>
      <trkpt lat="39.369149" lon="-5.391677">
        <ele>524.4</ele>
        <time>1970-01-01T00:00:00Z</time>
      </trkpt>
      <trkpt lat="39.369200" lon="-5.391606">
        <ele>524.8</ele>
        <time>1970-01-01T00:00:00Z</time>
      </trkpt>
      <trkpt lat="39.369200" lon="-5.391606">
        <ele>524.8</ele>
        <time>1970-01-01T00:00:00Z</time>
      </trkpt>
      <trkpt lat="39.369200" lon="-5.391606">
        <ele>524.8</ele>
        <time>1970-01-01T00:00:00Z</time>
      </trkpt>
      <trkpt lat="39.369200" lon="-5.391606">
        <ele>524.8</ele>
        <time>1970-01-01T00:00:00Z</time>
      </trkpt>
      <trkpt lat="39.369231" lon="-5.391558">
        <ele>525.1</ele>
        <time>1970-01-01T00:00:00Z</time>
      </trkpt>
      <trkpt lat="39.369231" lon="-5.391558">
        <ele>525.1</ele>
        <time>1970-01-01T00:00:00Z</time>
      </trkpt>
      <trkpt lat="39.369231" lon="-5.391558">
        <ele>525.1</ele>
        <time>1970-01-01T00:00:00Z</time>
      </trkpt>
      <trkpt lat="39.369231" lon="-5.391558">
        <ele>525.1</ele>
        <time>1970-01-01T00:00:00Z</time>
      </trkpt>
      <trkpt lat="39.369292" lon="-5.391434">
        <ele>525.9</ele>
        <time>1970-01-01T00:00:00Z</time>
      </trkpt>
      <trkpt lat="39.369292" lon="-5.391434">
        <ele>525.9</ele>
        <time>1970-01-01T00:00:00Z</time>
      </trkpt>
      <trkpt lat="39.369292" lon="-5.391434">
        <ele>525.9</ele>
        <time>1970-01-01T00:00:00Z</time>
      </trkpt>
      <trkpt lat="39.369292" lon="-5.391434">
        <ele>525.9</ele>
        <time>1970-01-01T00:00:00Z</time>
      </trkpt>
      <trkpt lat="39.369319" lon="-5.391387">
        <ele>526.4</ele>
        <time>1970-01-01T00:00:00Z</time>
      </trkpt>
      <trkpt lat="39.369319" lon="-5.391387">
        <ele>526.4</ele>
        <time>1970-01-01T00:00:00Z</time>
      </trkpt>
      <trkpt lat="39.369319" lon="-5.391387">
        <ele>526.4</ele>
        <time>1970-01-01T00:00:00Z</time>
      </trkpt>
      <trkpt lat="39.369319" lon="-5.391387">
        <ele>526.4</ele>
        <time>1970-01-01T00:00:00Z</time>
      </trkpt>
      <trkpt lat="39.369340" lon="-5.391344">
        <ele>526.8</ele>
        <time>1970-01-01T00:00:00Z</time>
      </trkpt>
      <trkpt lat="39.369340" lon="-5.391344">
        <ele>526.8</ele>
        <time>1970-01-01T00:00:00Z</time>
      </trkpt>
      <trkpt lat="39.369340" lon="-5.391344">
        <ele>526.8</ele>
        <time>1970-01-01T00:00:00Z</time>
      </trkpt>
      <trkpt lat="39.369340" lon="-5.391344">
        <ele>526.8</ele>
        <time>1970-01-01T00:00:00Z</time>
      </trkpt>
      <trkpt lat="39.369368" lon="-5.391270">
        <ele>527.4</ele>
        <time>1970-01-01T00:00:00Z</time>
      </trkpt>
      <trkpt lat="39.369368" lon="-5.391270">
        <ele>527.4</ele>
        <time>1970-01-01T00:00:00Z</time>
      </trkpt>
      <trkpt lat="39.369368" lon="-5.391270">
        <ele>527.4</ele>
        <time>1970-01-01T00:00:00Z</time>
      </trkpt>
      <trkpt lat="39.369368" lon="-5.391270">
        <ele>527.4</ele>
        <time>1970-01-01T00:00:00Z</time>
      </trkpt>
      <trkpt lat="39.369381" lon="-5.391204">
        <ele>527.6</ele>
        <time>1970-01-01T00:00:00Z</time>
      </trkpt>
      <trkpt lat="39.369381" lon="-5.391204">
        <ele>527.6</ele>
        <time>1970-01-01T00:00:00Z</time>
      </trkpt>
      <trkpt lat="39.369381" lon="-5.391204">
        <ele>527.6</ele>
        <time>1970-01-01T00:00:00Z</time>
      </trkpt>
      <trkpt lat="39.369381" lon="-5.391204">
        <ele>527.6</ele>
        <time>1970-01-01T00:00:00Z</time>
      </trkpt>
      <trkpt lat="39.369396" lon="-5.391103">
        <ele>527.8</ele>
        <time>1970-01-01T00:00:00Z</time>
      </trkpt>
      <trkpt lat="39.369396" lon="-5.391103">
        <ele>527.8</ele>
        <time>1970-01-01T00:00:00Z</time>
      </trkpt>
      <trkpt lat="39.369396" lon="-5.391103">
        <ele>527.8</ele>
        <time>1970-01-01T00:00:00Z</time>
      </trkpt>
      <trkpt lat="39.369396" lon="-5.391103">
        <ele>527.8</ele>
        <time>1970-01-01T00:00:00Z</time>
      </trkpt>
      <trkpt lat="39.369427" lon="-5.390991">
        <ele>528.5</ele>
        <time>1970-01-01T00:00:00Z</time>
      </trkpt>
      <trkpt lat="39.369427" lon="-5.390991">
        <ele>528.5</ele>
        <time>1970-01-01T00:00:00Z</time>
      </trkpt>
      <trkpt lat="39.369427" lon="-5.390991">
        <ele>528.5</ele>
        <time>1970-01-01T00:00:00Z</time>
      </trkpt>
      <trkpt lat="39.369427" lon="-5.390991">
        <ele>528.5</ele>
        <time>1970-01-01T00:00:00Z</time>
      </trkpt>
      <trkpt lat="39.369475" lon="-5.390898">
        <ele>529.5</ele>
        <time>1970-01-01T00:00:00Z</time>
      </trkpt>
      <trkpt lat="39.369475" lon="-5.390898">
        <ele>529.5</ele>
        <time>1970-01-01T00:00:00Z</time>
      </trkpt>
      <trkpt lat="39.369475" lon="-5.390898">
        <ele>529.5</ele>
        <time>1970-01-01T00:00:00Z</time>
      </trkpt>
      <trkpt lat="39.369475" lon="-5.390898">
        <ele>529.5</ele>
        <time>1970-01-01T00:00:00Z</time>
      </trkpt>
      <trkpt lat="39.369539" lon="-5.390798">
        <ele>530.6</ele>
        <time>1970-01-01T00:00:00Z</time>
      </trkpt>
      <trkpt lat="39.369539" lon="-5.390798">
        <ele>530.6</ele>
        <time>1970-01-01T00:00:00Z</time>
      </trkpt>
      <trkpt lat="39.369539" lon="-5.390798">
        <ele>530.6</ele>
        <time>1970-01-01T00:00:00Z</time>
      </trkpt>
      <trkpt lat="39.369539" lon="-5.390798">
        <ele>530.6</ele>
        <time>1970-01-01T00:00:00Z</time>
      </trkpt>
      <trkpt lat="39.369617" lon="-5.390694">
        <ele>531.7</ele>
        <time>1970-01-01T00:00:00Z</time>
      </trkpt>
      <trkpt lat="39.369617" lon="-5.390694">
        <ele>531.7</ele>
        <time>1970-01-01T00:00:00Z</time>
      </trkpt>
      <trkpt lat="39.369617" lon="-5.390694">
        <ele>531.7</ele>
        <time>1970-01-01T00:00:00Z</time>
      </trkpt>
      <trkpt lat="39.369617" lon="-5.390694">
        <ele>531.7</ele>
        <time>1970-01-01T00:00:00Z</time>
      </trkpt>
      <trkpt lat="39.369640" lon="-5.390666">
        <ele>532.0</ele>
        <time>1970-01-01T00:00:00Z</time>
      </trkpt>
      <trkpt lat="39.369640" lon="-5.390666">
        <ele>532.0</ele>
        <time>1970-01-01T00:00:00Z</time>
      </trkpt>
      <trkpt lat="39.369640" lon="-5.390666">
        <ele>532.0</ele>
        <time>1970-01-01T00:00:00Z</time>
      </trkpt>
      <trkpt lat="39.369640" lon="-5.390666">
        <ele>532.0</ele>
        <time>1970-01-01T00:00:00Z</time>
      </trkpt>
      <trkpt lat="39.369659" lon="-5.390625">
        <ele>532.2</ele>
        <time>1970-01-01T00:00:00Z</time>
      </trkpt>
      <trkpt lat="39.369659" lon="-5.390625">
        <ele>532.2</ele>
        <time>1970-01-01T00:00:00Z</time>
      </trkpt>
      <trkpt lat="39.369659" lon="-5.390625">
        <ele>532.2</ele>
        <time>1970-01-01T00:00:00Z</time>
      </trkpt>
      <trkpt lat="39.369659" lon="-5.390625">
        <ele>532.2</ele>
        <time>1970-01-01T00:00:00Z</time>
      </trkpt>
      <trkpt lat="39.369682" lon="-5.390550">
        <ele>532.7</ele>
        <time>1970-01-01T00:00:00Z</time>
      </trkpt>
      <trkpt lat="39.369682" lon="-5.390550">
        <ele>532.7</ele>
        <time>1970-01-01T00:00:00Z</time>
      </trkpt>
      <trkpt lat="39.369682" lon="-5.390550">
        <ele>532.7</ele>
        <time>1970-01-01T00:00:00Z</time>
      </trkpt>
      <trkpt lat="39.369682" lon="-5.390550">
        <ele>532.7</ele>
        <time>1970-01-01T00:00:00Z</time>
      </trkpt>
      <trkpt lat="39.369707" lon="-5.390491">
        <ele>533.2</ele>
        <time>1970-01-01T00:00:00Z</time>
      </trkpt>
      <trkpt lat="39.369707" lon="-5.390491">
        <ele>533.2</ele>
        <time>1970-01-01T00:00:00Z</time>
      </trkpt>
      <trkpt lat="39.369707" lon="-5.390491">
        <ele>533.2</ele>
        <time>1970-01-01T00:00:00Z</time>
      </trkpt>
      <trkpt lat="39.369707" lon="-5.390491">
        <ele>533.2</ele>
        <time>1970-01-01T00:00:00Z</time>
      </trkpt>
      <trkpt lat="39.369734" lon="-5.390447">
        <ele>533.8</ele>
        <time>1970-01-01T00:00:00Z</time>
      </trkpt>
      <trkpt lat="39.369734" lon="-5.390447">
        <ele>533.8</ele>
        <time>1970-01-01T00:00:00Z</time>
      </trkpt>
      <trkpt lat="39.369734" lon="-5.390447">
        <ele>533.8</ele>
        <time>1970-01-01T00:00:00Z</time>
      </trkpt>
      <trkpt lat="39.369734" lon="-5.390447">
        <ele>533.8</ele>
        <time>1970-01-01T00:00:00Z</time>
      </trkpt>
      <trkpt lat="39.369767" lon="-5.390404">
        <ele>534.4</ele>
        <time>1970-01-01T00:00:00Z</time>
      </trkpt>
      <trkpt lat="39.369767" lon="-5.390404">
        <ele>534.4</ele>
        <time>1970-01-01T00:00:00Z</time>
      </trkpt>
      <trkpt lat="39.369767" lon="-5.390404">
        <ele>534.4</ele>
        <time>1970-01-01T00:00:00Z</time>
      </trkpt>
      <trkpt lat="39.369767" lon="-5.390404">
        <ele>534.4</ele>
        <time>1970-01-01T00:00:00Z</time>
      </trkpt>
      <trkpt lat="39.369798" lon="-5.390374">
        <ele>534.9</ele>
        <time>1970-01-01T00:00:00Z</time>
      </trkpt>
      <trkpt lat="39.369798" lon="-5.390374">
        <ele>534.9</ele>
        <time>1970-01-01T00:00:00Z</time>
      </trkpt>
      <trkpt lat="39.369798" lon="-5.390374">
        <ele>534.9</ele>
        <time>1970-01-01T00:00:00Z</time>
      </trkpt>
      <trkpt lat="39.369798" lon="-5.390374">
        <ele>534.9</ele>
        <time>1970-01-01T00:00:00Z</time>
      </trkpt>
      <trkpt lat="39.369839" lon="-5.390346">
        <ele>535.6</ele>
        <time>1970-01-01T00:00:00Z</time>
      </trkpt>
      <trkpt lat="39.369839" lon="-5.390346">
        <ele>535.6</ele>
        <time>1970-01-01T00:00:00Z</time>
      </trkpt>
      <trkpt lat="39.369839" lon="-5.390346">
        <ele>535.6</ele>
        <time>1970-01-01T00:00:00Z</time>
      </trkpt>
      <trkpt lat="39.369839" lon="-5.390346">
        <ele>535.6</ele>
        <time>1970-01-01T00:00:00Z</time>
      </trkpt>
      <trkpt lat="39.369887" lon="-5.390322">
        <ele>536.3</ele>
        <time>1970-01-01T00:00:00Z</time>
      </trkpt>
      <trkpt lat="39.369887" lon="-5.390322">
        <ele>536.3</ele>
        <time>1970-01-01T00:00:00Z</time>
      </trkpt>
      <trkpt lat="39.369887" lon="-5.390322">
        <ele>536.3</ele>
        <time>1970-01-01T00:00:00Z</time>
      </trkpt>
      <trkpt lat="39.369887" lon="-5.390322">
        <ele>536.3</ele>
        <time>1970-01-01T00:00:00Z</time>
      </trkpt>
      <trkpt lat="39.370067" lon="-5.390215">
        <ele>539.1</ele>
        <time>1970-01-01T00:00:00Z</time>
      </trkpt>
      <trkpt lat="39.370067" lon="-5.390215">
        <ele>539.1</ele>
        <time>1970-01-01T00:00:00Z</time>
      </trkpt>
      <trkpt lat="39.370067" lon="-5.390215">
        <ele>539.1</ele>
        <time>1970-01-01T00:00:00Z</time>
      </trkpt>
      <trkpt lat="39.370067" lon="-5.390215">
        <ele>539.1</ele>
        <time>1970-01-01T00:00:00Z</time>
      </trkpt>
      <trkpt lat="39.370160" lon="-5.390161">
        <ele>540.5</ele>
        <time>1970-01-01T00:00:00Z</time>
      </trkpt>
      <trkpt lat="39.370160" lon="-5.390161">
        <ele>540.5</ele>
        <time>1970-01-01T00:00:00Z</time>
      </trkpt>
      <trkpt lat="39.370160" lon="-5.390161">
        <ele>540.5</ele>
        <time>1970-01-01T00:00:00Z</time>
      </trkpt>
      <trkpt lat="39.370160" lon="-5.390161">
        <ele>540.5</ele>
        <time>1970-01-01T00:00:00Z</time>
      </trkpt>
      <trkpt lat="39.370348" lon="-5.390078">
        <ele>542.4</ele>
        <time>1970-01-01T00:00:00Z</time>
      </trkpt>
      <trkpt lat="39.370348" lon="-5.390078">
        <ele>542.4</ele>
        <time>1970-01-01T00:00:00Z</time>
      </trkpt>
      <trkpt lat="39.370348" lon="-5.390078">
        <ele>542.4</ele>
        <time>1970-01-01T00:00:00Z</time>
      </trkpt>
      <trkpt lat="39.370348" lon="-5.390078">
        <ele>542.4</ele>
        <time>1970-01-01T00:00:00Z</time>
      </trkpt>
      <trkpt lat="39.370500" lon="-5.390011">
        <ele>543.1</ele>
        <time>1970-01-01T00:00:00Z</time>
      </trkpt>
      <trkpt lat="39.370500" lon="-5.390011">
        <ele>543.1</ele>
        <time>1970-01-01T00:00:00Z</time>
      </trkpt>
      <trkpt lat="39.370500" lon="-5.390011">
        <ele>543.1</ele>
        <time>1970-01-01T00:00:00Z</time>
      </trkpt>
      <trkpt lat="39.370500" lon="-5.390011">
        <ele>543.1</ele>
        <time>1970-01-01T00:00:00Z</time>
      </trkpt>
      <trkpt lat="39.370605" lon="-5.389958">
        <ele>543.6</ele>
        <time>1970-01-01T00:00:00Z</time>
      </trkpt>
      <trkpt lat="39.370605" lon="-5.389958">
        <ele>543.6</ele>
        <time>1970-01-01T00:00:00Z</time>
      </trkpt>
      <trkpt lat="39.370605" lon="-5.389958">
        <ele>543.6</ele>
        <time>1970-01-01T00:00:00Z</time>
      </trkpt>
      <trkpt lat="39.370605" lon="-5.389958">
        <ele>543.6</ele>
        <time>1970-01-01T00:00:00Z</time>
      </trkpt>
      <trkpt lat="39.370765" lon="-5.389864">
        <ele>544.2</ele>
        <time>1970-01-01T00:00:00Z</time>
      </trkpt>
      <trkpt lat="39.370765" lon="-5.389864">
        <ele>544.2</ele>
        <time>1970-01-01T00:00:00Z</time>
      </trkpt>
      <trkpt lat="39.370765" lon="-5.389864">
        <ele>544.2</ele>
        <time>1970-01-01T00:00:00Z</time>
      </trkpt>
      <trkpt lat="39.370765" lon="-5.389864">
        <ele>544.2</ele>
        <time>1970-01-01T00:00:00Z</time>
      </trkpt>
      <trkpt lat="39.370881" lon="-5.389823">
        <ele>544.5</ele>
        <time>1970-01-01T00:00:00Z</time>
      </trkpt>
      <trkpt lat="39.370881" lon="-5.389823">
        <ele>544.5</ele>
        <time>1970-01-01T00:00:00Z</time>
      </trkpt>
      <trkpt lat="39.370881" lon="-5.389823">
        <ele>544.5</ele>
        <time>1970-01-01T00:00:00Z</time>
      </trkpt>
      <trkpt lat="39.370881" lon="-5.389823">
        <ele>544.5</ele>
        <time>1970-01-01T00:00:00Z</time>
      </trkpt>
      <trkpt lat="39.370967" lon="-5.389814">
        <ele>544.7</ele>
        <time>1970-01-01T00:00:00Z</time>
      </trkpt>
      <trkpt lat="39.370967" lon="-5.389814">
        <ele>544.7</ele>
        <time>1970-01-01T00:00:00Z</time>
      </trkpt>
      <trkpt lat="39.370967" lon="-5.389814">
        <ele>544.7</ele>
        <time>1970-01-01T00:00:00Z</time>
      </trkpt>
      <trkpt lat="39.370967" lon="-5.389814">
        <ele>544.7</ele>
        <time>1970-01-01T00:00:00Z</time>
      </trkpt>
      <trkpt lat="39.371043" lon="-5.389830">
        <ele>544.7</ele>
        <time>1970-01-01T00:00:00Z</time>
      </trkpt>
      <trkpt lat="39.371043" lon="-5.389830">
        <ele>544.7</ele>
        <time>1970-01-01T00:00:00Z</time>
      </trkpt>
      <trkpt lat="39.371043" lon="-5.389830">
        <ele>544.7</ele>
        <time>1970-01-01T00:00:00Z</time>
      </trkpt>
      <trkpt lat="39.371043" lon="-5.389830">
        <ele>544.7</ele>
        <time>1970-01-01T00:00:00Z</time>
      </trkpt>
      <trkpt lat="39.371102" lon="-5.389845">
        <ele>544.8</ele>
        <time>1970-01-01T00:00:00Z</time>
      </trkpt>
      <trkpt lat="39.371102" lon="-5.389845">
        <ele>544.8</ele>
        <time>1970-01-01T00:00:00Z</time>
      </trkpt>
      <trkpt lat="39.371102" lon="-5.389845">
        <ele>544.8</ele>
        <time>1970-01-01T00:00:00Z</time>
      </trkpt>
      <trkpt lat="39.371102" lon="-5.389845">
        <ele>544.8</ele>
        <time>1970-01-01T00:00:00Z</time>
      </trkpt>
      <trkpt lat="39.371256" lon="-5.389862">
        <ele>544.6</ele>
        <time>1970-01-01T00:00:00Z</time>
      </trkpt>
      <trkpt lat="39.371256" lon="-5.389862">
        <ele>544.6</ele>
        <time>1970-01-01T00:00:00Z</time>
      </trkpt>
      <trkpt lat="39.371256" lon="-5.389862">
        <ele>544.6</ele>
        <time>1970-01-01T00:00:00Z</time>
      </trkpt>
      <trkpt lat="39.371256" lon="-5.389862">
        <ele>544.6</ele>
        <time>1970-01-01T00:00:00Z</time>
      </trkpt>
      <trkpt lat="39.371328" lon="-5.389880">
        <ele>544.3</ele>
        <time>1970-01-01T00:00:00Z</time>
      </trkpt>
      <trkpt lat="39.371328" lon="-5.389880">
        <ele>544.3</ele>
        <time>1970-01-01T00:00:00Z</time>
      </trkpt>
      <trkpt lat="39.371328" lon="-5.389880">
        <ele>544.3</ele>
        <time>1970-01-01T00:00:00Z</time>
      </trkpt>
      <trkpt lat="39.371328" lon="-5.389880">
        <ele>544.3</ele>
        <time>1970-01-01T00:00:00Z</time>
      </trkpt>
      <trkpt lat="39.371422" lon="-5.389908">
        <ele>544.0</ele>
        <time>1970-01-01T00:00:00Z</time>
      </trkpt>
      <trkpt lat="39.371422" lon="-5.389908">
        <ele>544.0</ele>
        <time>1970-01-01T00:00:00Z</time>
      </trkpt>
      <trkpt lat="39.371422" lon="-5.389908">
        <ele>544.0</ele>
        <time>1970-01-01T00:00:00Z</time>
      </trkpt>
      <trkpt lat="39.371422" lon="-5.389908">
        <ele>544.0</ele>
        <time>1970-01-01T00:00:00Z</time>
      </trkpt>
      <trkpt lat="39.371563" lon="-5.389942">
        <ele>543.6</ele>
        <time>1970-01-01T00:00:00Z</time>
      </trkpt>
      <trkpt lat="39.371563" lon="-5.389942">
        <ele>543.6</ele>
        <time>1970-01-01T00:00:00Z</time>
      </trkpt>
      <trkpt lat="39.371563" lon="-5.389942">
        <ele>543.6</ele>
        <time>1970-01-01T00:00:00Z</time>
      </trkpt>
      <trkpt lat="39.371563" lon="-5.389942">
        <ele>543.6</ele>
        <time>1970-01-01T00:00:00Z</time>
      </trkpt>
      <trkpt lat="39.371609" lon="-5.389929">
        <ele>543.3</ele>
        <time>1970-01-01T00:00:00Z</time>
      </trkpt>
      <trkpt lat="39.371609" lon="-5.389929">
        <ele>543.3</ele>
        <time>1970-01-01T00:00:00Z</time>
      </trkpt>
      <trkpt lat="39.371609" lon="-5.389929">
        <ele>543.3</ele>
        <time>1970-01-01T00:00:00Z</time>
      </trkpt>
      <trkpt lat="39.371609" lon="-5.389929">
        <ele>543.3</ele>
        <time>1970-01-01T00:00:00Z</time>
      </trkpt>
      <trkpt lat="39.371630" lon="-5.389923">
        <ele>543.2</ele>
        <time>1970-01-01T00:00:00Z</time>
      </trkpt>
      <trkpt lat="39.371630" lon="-5.389923">
        <ele>543.2</ele>
        <time>1970-01-01T00:00:00Z</time>
      </trkpt>
      <trkpt lat="39.371630" lon="-5.389923">
        <ele>543.2</ele>
        <time>1970-01-01T00:00:00Z</time>
      </trkpt>
      <trkpt lat="39.371630" lon="-5.389923">
        <ele>543.2</ele>
        <time>1970-01-01T00:00:00Z</time>
      </trkpt>
      <trkpt lat="39.371672" lon="-5.389901">
        <ele>542.9</ele>
        <time>1970-01-01T00:00:00Z</time>
      </trkpt>
      <trkpt lat="39.371672" lon="-5.389901">
        <ele>542.9</ele>
        <time>1970-01-01T00:00:00Z</time>
      </trkpt>
      <trkpt lat="39.371672" lon="-5.389901">
        <ele>542.9</ele>
        <time>1970-01-01T00:00:00Z</time>
      </trkpt>
      <trkpt lat="39.371672" lon="-5.389901">
        <ele>542.9</ele>
        <time>1970-01-01T00:00:00Z</time>
      </trkpt>
      <trkpt lat="39.371733" lon="-5.389871">
        <ele>542.5</ele>
        <time>1970-01-01T00:00:00Z</time>
      </trkpt>
      <trkpt lat="39.371733" lon="-5.389871">
        <ele>542.5</ele>
        <time>1970-01-01T00:00:00Z</time>
      </trkpt>
      <trkpt lat="39.371733" lon="-5.389871">
        <ele>542.5</ele>
        <time>1970-01-01T00:00:00Z</time>
      </trkpt>
      <trkpt lat="39.371733" lon="-5.389871">
        <ele>542.5</ele>
        <time>1970-01-01T00:00:00Z</time>
      </trkpt>
      <trkpt lat="39.371785" lon="-5.389855">
        <ele>542.2</ele>
        <time>1970-01-01T00:00:00Z</time>
      </trkpt>
      <trkpt lat="39.371785" lon="-5.389855">
        <ele>542.2</ele>
        <time>1970-01-01T00:00:00Z</time>
      </trkpt>
      <trkpt lat="39.371785" lon="-5.389855">
        <ele>542.2</ele>
        <time>1970-01-01T00:00:00Z</time>
      </trkpt>
      <trkpt lat="39.371785" lon="-5.389855">
        <ele>542.2</ele>
        <time>1970-01-01T00:00:00Z</time>
      </trkpt>
      <trkpt lat="39.371847" lon="-5.389842">
        <ele>541.9</ele>
        <time>1970-01-01T00:00:00Z</time>
      </trkpt>
      <trkpt lat="39.371847" lon="-5.389842">
        <ele>541.9</ele>
        <time>1970-01-01T00:00:00Z</time>
      </trkpt>
      <trkpt lat="39.371847" lon="-5.389842">
        <ele>541.9</ele>
        <time>1970-01-01T00:00:00Z</time>
      </trkpt>
      <trkpt lat="39.371847" lon="-5.389842">
        <ele>541.9</ele>
        <time>1970-01-01T00:00:00Z</time>
      </trkpt>
      <trkpt lat="39.371893" lon="-5.389815">
        <ele>541.7</ele>
        <time>1970-01-01T00:00:00Z</time>
      </trkpt>
      <trkpt lat="39.371893" lon="-5.389815">
        <ele>541.7</ele>
        <time>1970-01-01T00:00:00Z</time>
      </trkpt>
      <trkpt lat="39.371893" lon="-5.389815">
        <ele>541.7</ele>
        <time>1970-01-01T00:00:00Z</time>
      </trkpt>
      <trkpt lat="39.371893" lon="-5.389815">
        <ele>541.7</ele>
        <time>1970-01-01T00:00:00Z</time>
      </trkpt>
      <trkpt lat="39.371953" lon="-5.389787">
        <ele>541.5</ele>
        <time>1970-01-01T00:00:00Z</time>
      </trkpt>
      <trkpt lat="39.371953" lon="-5.389787">
        <ele>541.5</ele>
        <time>1970-01-01T00:00:00Z</time>
      </trkpt>
      <trkpt lat="39.371953" lon="-5.389787">
        <ele>541.5</ele>
        <time>1970-01-01T00:00:00Z</time>
      </trkpt>
      <trkpt lat="39.371953" lon="-5.389787">
        <ele>541.5</ele>
        <time>1970-01-01T00:00:00Z</time>
      </trkpt>
      <trkpt lat="39.372002" lon="-5.389760">
        <ele>541.4</ele>
        <time>1970-01-01T00:00:00Z</time>
      </trkpt>
      <trkpt lat="39.372002" lon="-5.389760">
        <ele>541.4</ele>
        <time>1970-01-01T00:00:00Z</time>
      </trkpt>
      <trkpt lat="39.372002" lon="-5.389760">
        <ele>541.4</ele>
        <time>1970-01-01T00:00:00Z</time>
      </trkpt>
      <trkpt lat="39.372002" lon="-5.389760">
        <ele>541.4</ele>
        <time>1970-01-01T00:00:00Z</time>
      </trkpt>
      <trkpt lat="39.372061" lon="-5.389730">
        <ele>541.3</ele>
        <time>1970-01-01T00:00:00Z</time>
      </trkpt>
      <trkpt lat="39.372061" lon="-5.389730">
        <ele>541.3</ele>
        <time>1970-01-01T00:00:00Z</time>
      </trkpt>
      <trkpt lat="39.372061" lon="-5.389730">
        <ele>541.3</ele>
        <time>1970-01-01T00:00:00Z</time>
      </trkpt>
      <trkpt lat="39.372061" lon="-5.389730">
        <ele>541.3</ele>
        <time>1970-01-01T00:00:00Z</time>
      </trkpt>
      <trkpt lat="39.372114" lon="-5.389701">
        <ele>541.2</ele>
        <time>1970-01-01T00:00:00Z</time>
      </trkpt>
      <trkpt lat="39.372114" lon="-5.389701">
        <ele>541.2</ele>
        <time>1970-01-01T00:00:00Z</time>
      </trkpt>
      <trkpt lat="39.372114" lon="-5.389701">
        <ele>541.2</ele>
        <time>1970-01-01T00:00:00Z</time>
      </trkpt>
      <trkpt lat="39.372114" lon="-5.389701">
        <ele>541.2</ele>
        <time>1970-01-01T00:00:00Z</time>
      </trkpt>
      <trkpt lat="39.372163" lon="-5.389648">
        <ele>541.2</ele>
        <time>1970-01-01T00:00:00Z</time>
      </trkpt>
      <trkpt lat="39.372163" lon="-5.389648">
        <ele>541.2</ele>
        <time>1970-01-01T00:00:00Z</time>
      </trkpt>
      <trkpt lat="39.372163" lon="-5.389648">
        <ele>541.2</ele>
        <time>1970-01-01T00:00:00Z</time>
      </trkpt>
      <trkpt lat="39.372163" lon="-5.389648">
        <ele>541.2</ele>
        <time>1970-01-01T00:00:00Z</time>
      </trkpt>
      <trkpt lat="39.372212" lon="-5.389592">
        <ele>541.1</ele>
        <time>1970-01-01T00:00:00Z</time>
      </trkpt>
      <trkpt lat="39.372212" lon="-5.389592">
        <ele>541.1</ele>
        <time>1970-01-01T00:00:00Z</time>
      </trkpt>
      <trkpt lat="39.372212" lon="-5.389592">
        <ele>541.1</ele>
        <time>1970-01-01T00:00:00Z</time>
      </trkpt>
      <trkpt lat="39.372212" lon="-5.389592">
        <ele>541.1</ele>
        <time>1970-01-01T00:00:00Z</time>
      </trkpt>
      <trkpt lat="39.372302" lon="-5.389510">
        <ele>541.2</ele>
        <time>1970-01-01T00:00:00Z</time>
      </trkpt>
      <trkpt lat="39.372302" lon="-5.389510">
        <ele>541.2</ele>
        <time>1970-01-01T00:00:00Z</time>
      </trkpt>
      <trkpt lat="39.372302" lon="-5.389510">
        <ele>541.2</ele>
        <time>1970-01-01T00:00:00Z</time>
      </trkpt>
      <trkpt lat="39.372302" lon="-5.389510">
        <ele>541.2</ele>
        <time>1970-01-01T00:00:00Z</time>
      </trkpt>
      <trkpt lat="39.372409" lon="-5.389455">
        <ele>541.6</ele>
        <time>1970-01-01T00:00:00Z</time>
      </trkpt>
      <trkpt lat="39.372409" lon="-5.389455">
        <ele>541.6</ele>
        <time>1970-01-01T00:00:00Z</time>
      </trkpt>
      <trkpt lat="39.372409" lon="-5.389455">
        <ele>541.6</ele>
        <time>1970-01-01T00:00:00Z</time>
      </trkpt>
      <trkpt lat="39.372409" lon="-5.389455">
        <ele>541.6</ele>
        <time>1970-01-01T00:00:00Z</time>
      </trkpt>
      <trkpt lat="39.372492" lon="-5.389419">
        <ele>542.3</ele>
        <time>1970-01-01T00:00:00Z</time>
      </trkpt>
      <trkpt lat="39.372492" lon="-5.389419">
        <ele>542.3</ele>
        <time>1970-01-01T00:00:00Z</time>
      </trkpt>
      <trkpt lat="39.372492" lon="-5.389419">
        <ele>542.3</ele>
        <time>1970-01-01T00:00:00Z</time>
      </trkpt>
      <trkpt lat="39.372492" lon="-5.389419">
        <ele>542.3</ele>
        <time>1970-01-01T00:00:00Z</time>
      </trkpt>
      <trkpt lat="39.372556" lon="-5.389351">
        <ele>542.8</ele>
        <time>1970-01-01T00:00:00Z</time>
      </trkpt>
      <trkpt lat="39.372556" lon="-5.389351">
        <ele>542.8</ele>
        <time>1970-01-01T00:00:00Z</time>
      </trkpt>
      <trkpt lat="39.372556" lon="-5.389351">
        <ele>542.8</ele>
        <time>1970-01-01T00:00:00Z</time>
      </trkpt>
      <trkpt lat="39.372556" lon="-5.389351">
        <ele>542.8</ele>
        <time>1970-01-01T00:00:00Z</time>
      </trkpt>
      <trkpt lat="39.372644" lon="-5.389221">
        <ele>543.6</ele>
        <time>1970-01-01T00:00:00Z</time>
      </trkpt>
      <trkpt lat="39.372644" lon="-5.389221">
        <ele>543.6</ele>
        <time>1970-01-01T00:00:00Z</time>
      </trkpt>
      <trkpt lat="39.372644" lon="-5.389221">
        <ele>543.6</ele>
        <time>1970-01-01T00:00:00Z</time>
      </trkpt>
      <trkpt lat="39.372644" lon="-5.389221">
        <ele>543.6</ele>
        <time>1970-01-01T00:00:00Z</time>
      </trkpt>
      <trkpt lat="39.372695" lon="-5.389121">
        <ele>544.0</ele>
        <time>1970-01-01T00:00:00Z</time>
      </trkpt>
      <trkpt lat="39.372695" lon="-5.389121">
        <ele>544.0</ele>
        <time>1970-01-01T00:00:00Z</time>
      </trkpt>
      <trkpt lat="39.372695" lon="-5.389121">
        <ele>544.0</ele>
        <time>1970-01-01T00:00:00Z</time>
      </trkpt>
      <trkpt lat="39.372695" lon="-5.389121">
        <ele>544.0</ele>
        <time>1970-01-01T00:00:00Z</time>
      </trkpt>
      <trkpt lat="39.372809" lon="-5.388810">
        <ele>545.0</ele>
        <time>1970-01-01T00:00:00Z</time>
      </trkpt>
      <trkpt lat="39.372809" lon="-5.388810">
        <ele>545.0</ele>
        <time>1970-01-01T00:00:00Z</time>
      </trkpt>
      <trkpt lat="39.372809" lon="-5.388810">
        <ele>545.0</ele>
        <time>1970-01-01T00:00:00Z</time>
      </trkpt>
      <trkpt lat="39.372809" lon="-5.388810">
        <ele>545.0</ele>
        <time>1970-01-01T00:00:00Z</time>
      </trkpt>
      <trkpt lat="39.372868" lon="-5.388682">
        <ele>546.0</ele>
        <time>1970-01-01T00:00:00Z</time>
      </trkpt>
      <trkpt lat="39.372868" lon="-5.388682">
        <ele>546.0</ele>
        <time>1970-01-01T00:00:00Z</time>
      </trkpt>
      <trkpt lat="39.372868" lon="-5.388682">
        <ele>546.0</ele>
        <time>1970-01-01T00:00:00Z</time>
      </trkpt>
      <trkpt lat="39.372868" lon="-5.388682">
        <ele>546.0</ele>
        <time>1970-01-01T00:00:00Z</time>
      </trkpt>
      <trkpt lat="39.372935" lon="-5.388609">
        <ele>547.2</ele>
        <time>1970-01-01T00:00:00Z</time>
      </trkpt>
      <trkpt lat="39.372935" lon="-5.388609">
        <ele>547.2</ele>
        <time>1970-01-01T00:00:00Z</time>
      </trkpt>
      <trkpt lat="39.372935" lon="-5.388609">
        <ele>547.2</ele>
        <time>1970-01-01T00:00:00Z</time>
      </trkpt>
      <trkpt lat="39.372935" lon="-5.388609">
        <ele>547.2</ele>
        <time>1970-01-01T00:00:00Z</time>
      </trkpt>
      <trkpt lat="39.372976" lon="-5.388565">
        <ele>547.9</ele>
        <time>1970-01-01T00:00:00Z</time>
      </trkpt>
      <trkpt lat="39.372976" lon="-5.388565">
        <ele>547.9</ele>
        <time>1970-01-01T00:00:00Z</time>
      </trkpt>
      <trkpt lat="39.372976" lon="-5.388565">
        <ele>547.9</ele>
        <time>1970-01-01T00:00:00Z</time>
      </trkpt>
      <trkpt lat="39.372976" lon="-5.388565">
        <ele>547.9</ele>
        <time>1970-01-01T00:00:00Z</time>
      </trkpt>
      <trkpt lat="39.373061" lon="-5.388495">
        <ele>549.1</ele>
        <time>1970-01-01T00:00:00Z</time>
      </trkpt>
      <trkpt lat="39.373061" lon="-5.388495">
        <ele>549.1</ele>
        <time>1970-01-01T00:00:00Z</time>
      </trkpt>
      <trkpt lat="39.373061" lon="-5.388495">
        <ele>549.1</ele>
        <time>1970-01-01T00:00:00Z</time>
      </trkpt>
      <trkpt lat="39.373061" lon="-5.388495">
        <ele>549.1</ele>
        <time>1970-01-01T00:00:00Z</time>
      </trkpt>
      <trkpt lat="39.373089" lon="-5.388446">
        <ele>549.3</ele>
        <time>1970-01-01T00:00:00Z</time>
      </trkpt>
      <trkpt lat="39.373089" lon="-5.388446">
        <ele>549.3</ele>
        <time>1970-01-01T00:00:00Z</time>
      </trkpt>
      <trkpt lat="39.373089" lon="-5.388446">
        <ele>549.3</ele>
        <time>1970-01-01T00:00:00Z</time>
      </trkpt>
      <trkpt lat="39.373089" lon="-5.388446">
        <ele>549.3</ele>
        <time>1970-01-01T00:00:00Z</time>
      </trkpt>
      <trkpt lat="39.373154" lon="-5.388328">
        <ele>549.9</ele>
        <time>1970-01-01T00:00:00Z</time>
      </trkpt>
      <trkpt lat="39.373154" lon="-5.388328">
        <ele>549.9</ele>
        <time>1970-01-01T00:00:00Z</time>
      </trkpt>
      <trkpt lat="39.373154" lon="-5.388328">
        <ele>549.9</ele>
        <time>1970-01-01T00:00:00Z</time>
      </trkpt>
      <trkpt lat="39.373154" lon="-5.388328">
        <ele>549.9</ele>
        <time>1970-01-01T00:00:00Z</time>
      </trkpt>
      <trkpt lat="39.373201" lon="-5.388268">
        <ele>550.5</ele>
        <time>1970-01-01T00:00:00Z</time>
      </trkpt>
      <trkpt lat="39.373201" lon="-5.388268">
        <ele>550.5</ele>
        <time>1970-01-01T00:00:00Z</time>
      </trkpt>
      <trkpt lat="39.373201" lon="-5.388268">
        <ele>550.5</ele>
        <time>1970-01-01T00:00:00Z</time>
      </trkpt>
      <trkpt lat="39.373201" lon="-5.388268">
        <ele>550.5</ele>
        <time>1970-01-01T00:00:00Z</time>
      </trkpt>
      <trkpt lat="39.373375" lon="-5.388141">
        <ele>553.8</ele>
        <time>1970-01-01T00:00:00Z</time>
      </trkpt>
      <trkpt lat="39.373375" lon="-5.388141">
        <ele>553.8</ele>
        <time>1970-01-01T00:00:00Z</time>
      </trkpt>
      <trkpt lat="39.373375" lon="-5.388141">
        <ele>553.8</ele>
        <time>1970-01-01T00:00:00Z</time>
      </trkpt>
      <trkpt lat="39.373375" lon="-5.388141">
        <ele>553.8</ele>
        <time>1970-01-01T00:00:00Z</time>
      </trkpt>
      <trkpt lat="39.373477" lon="-5.388032">
        <ele>555.9</ele>
        <time>1970-01-01T00:00:00Z</time>
      </trkpt>
      <trkpt lat="39.373477" lon="-5.388032">
        <ele>555.9</ele>
        <time>1970-01-01T00:00:00Z</time>
      </trkpt>
      <trkpt lat="39.373477" lon="-5.388032">
        <ele>555.9</ele>
        <time>1970-01-01T00:00:00Z</time>
      </trkpt>
      <trkpt lat="39.373477" lon="-5.388032">
        <ele>555.9</ele>
        <time>1970-01-01T00:00:00Z</time>
      </trkpt>
      <trkpt lat="39.373484" lon="-5.388027">
        <ele>556.0</ele>
        <time>1970-01-01T00:00:00Z</time>
      </trkpt>
      <trkpt lat="39.373484" lon="-5.388027">
        <ele>556.0</ele>
        <time>1970-01-01T00:00:00Z</time>
      </trkpt>
      <trkpt lat="39.373484" lon="-5.388027">
        <ele>556.0</ele>
        <time>1970-01-01T00:00:00Z</time>
      </trkpt>
      <trkpt lat="39.373484" lon="-5.388027">
        <ele>556.0</ele>
        <time>1970-01-01T00:00:00Z</time>
      </trkpt>
      <trkpt lat="39.373672" lon="-5.387870">
        <ele>559.7</ele>
        <time>1970-01-01T00:00:00Z</time>
      </trkpt>
      <trkpt lat="39.373672" lon="-5.387870">
        <ele>559.7</ele>
        <time>1970-01-01T00:00:00Z</time>
      </trkpt>
      <trkpt lat="39.373672" lon="-5.387870">
        <ele>559.7</ele>
        <time>1970-01-01T00:00:00Z</time>
      </trkpt>
      <trkpt lat="39.373672" lon="-5.387870">
        <ele>559.7</ele>
        <time>1970-01-01T00:00:00Z</time>
      </trkpt>
      <trkpt lat="39.373756" lon="-5.387799">
        <ele>561.4</ele>
        <time>1970-01-01T00:00:00Z</time>
      </trkpt>
      <trkpt lat="39.373756" lon="-5.387799">
        <ele>561.4</ele>
        <time>1970-01-01T00:00:00Z</time>
      </trkpt>
      <trkpt lat="39.373756" lon="-5.387799">
        <ele>561.4</ele>
        <time>1970-01-01T00:00:00Z</time>
      </trkpt>
      <trkpt lat="39.373756" lon="-5.387799">
        <ele>561.4</ele>
        <time>1970-01-01T00:00:00Z</time>
      </trkpt>
      <trkpt lat="39.373856" lon="-5.387746">
        <ele>563.1</ele>
        <time>1970-01-01T00:00:00Z</time>
      </trkpt>
      <trkpt lat="39.373856" lon="-5.387746">
        <ele>563.1</ele>
        <time>1970-01-01T00:00:00Z</time>
      </trkpt>
      <trkpt lat="39.373856" lon="-5.387746">
        <ele>563.1</ele>
        <time>1970-01-01T00:00:00Z</time>
      </trkpt>
      <trkpt lat="39.373856" lon="-5.387746">
        <ele>563.1</ele>
        <time>1970-01-01T00:00:00Z</time>
      </trkpt>
      <trkpt lat="39.373956" lon="-5.387741">
        <ele>564.1</ele>
        <time>1970-01-01T00:00:00Z</time>
      </trkpt>
      <trkpt lat="39.373956" lon="-5.387741">
        <ele>564.1</ele>
        <time>1970-01-01T00:00:00Z</time>
      </trkpt>
      <trkpt lat="39.373956" lon="-5.387741">
        <ele>564.1</ele>
        <time>1970-01-01T00:00:00Z</time>
      </trkpt>
      <trkpt lat="39.373956" lon="-5.387741">
        <ele>564.1</ele>
        <time>1970-01-01T00:00:00Z</time>
      </trkpt>
      <trkpt lat="39.374105" lon="-5.387731">
        <ele>565.6</ele>
        <time>1970-01-01T00:00:00Z</time>
      </trkpt>
      <trkpt lat="39.374105" lon="-5.387731">
        <ele>565.6</ele>
        <time>1970-01-01T00:00:00Z</time>
      </trkpt>
      <trkpt lat="39.374105" lon="-5.387731">
        <ele>565.6</ele>
        <time>1970-01-01T00:00:00Z</time>
      </trkpt>
      <trkpt lat="39.374105" lon="-5.387731">
        <ele>565.6</ele>
        <time>1970-01-01T00:00:00Z</time>
      </trkpt>
      <trkpt lat="39.374144" lon="-5.387674">
        <ele>566.9</ele>
        <time>1970-01-01T00:00:00Z</time>
      </trkpt>
      <trkpt lat="39.374144" lon="-5.387674">
        <ele>566.9</ele>
        <time>1970-01-01T00:00:00Z</time>
      </trkpt>
      <trkpt lat="39.374144" lon="-5.387674">
        <ele>566.9</ele>
        <time>1970-01-01T00:00:00Z</time>
      </trkpt>
      <trkpt lat="39.374144" lon="-5.387674">
        <ele>566.9</ele>
        <time>1970-01-01T00:00:00Z</time>
      </trkpt>
      <trkpt lat="39.374193" lon="-5.387619">
        <ele>568.3</ele>
        <time>1970-01-01T00:00:00Z</time>
      </trkpt>
      <trkpt lat="39.374193" lon="-5.387619">
        <ele>568.3</ele>
        <time>1970-01-01T00:00:00Z</time>
      </trkpt>
      <trkpt lat="39.374193" lon="-5.387619">
        <ele>568.3</ele>
        <time>1970-01-01T00:00:00Z</time>
      </trkpt>
      <trkpt lat="39.374193" lon="-5.387619">
        <ele>568.3</ele>
        <time>1970-01-01T00:00:00Z</time>
      </trkpt>
      <trkpt lat="39.374274" lon="-5.387637">
        <ele>568.3</ele>
        <time>1970-01-01T00:00:00Z</time>
      </trkpt>
      <trkpt lat="39.374274" lon="-5.387637">
        <ele>568.3</ele>
        <time>1970-01-01T00:00:00Z</time>
      </trkpt>
      <trkpt lat="39.374274" lon="-5.387637">
        <ele>568.3</ele>
        <time>1970-01-01T00:00:00Z</time>
      </trkpt>
      <trkpt lat="39.374274" lon="-5.387637">
        <ele>568.3</ele>
        <time>1970-01-01T00:00:00Z</time>
      </trkpt>
      <trkpt lat="39.374486" lon="-5.387722">
        <ele>567.8</ele>
        <time>1970-01-01T00:00:00Z</time>
      </trkpt>
      <trkpt lat="39.374486" lon="-5.387722">
        <ele>567.8</ele>
        <time>1970-01-01T00:00:00Z</time>
      </trkpt>
      <trkpt lat="39.374486" lon="-5.387722">
        <ele>567.8</ele>
        <time>1970-01-01T00:00:00Z</time>
      </trkpt>
      <trkpt lat="39.374486" lon="-5.387722">
        <ele>567.8</ele>
        <time>1970-01-01T00:00:00Z</time>
      </trkpt>
      <trkpt lat="39.374652" lon="-5.387755">
        <ele>567.9</ele>
        <time>1970-01-01T00:00:00Z</time>
      </trkpt>
      <trkpt lat="39.374652" lon="-5.387755">
        <ele>567.9</ele>
        <time>1970-01-01T00:00:00Z</time>
      </trkpt>
      <trkpt lat="39.374652" lon="-5.387755">
        <ele>567.9</ele>
        <time>1970-01-01T00:00:00Z</time>
      </trkpt>
      <trkpt lat="39.374652" lon="-5.387755">
        <ele>567.9</ele>
        <time>1970-01-01T00:00:00Z</time>
      </trkpt>
      <trkpt lat="39.374742" lon="-5.387743">
        <ele>568.5</ele>
        <time>1970-01-01T00:00:00Z</time>
      </trkpt>
      <trkpt lat="39.374742" lon="-5.387743">
        <ele>568.5</ele>
        <time>1970-01-01T00:00:00Z</time>
      </trkpt>
      <trkpt lat="39.374742" lon="-5.387743">
        <ele>568.5</ele>
        <time>1970-01-01T00:00:00Z</time>
      </trkpt>
      <trkpt lat="39.374742" lon="-5.387743">
        <ele>568.5</ele>
        <time>1970-01-01T00:00:00Z</time>
      </trkpt>
      <trkpt lat="39.374820" lon="-5.387734">
        <ele>569.0</ele>
        <time>1970-01-01T00:00:00Z</time>
      </trkpt>
      <trkpt lat="39.374820" lon="-5.387734">
        <ele>569.0</ele>
        <time>1970-01-01T00:00:00Z</time>
      </trkpt>
      <trkpt lat="39.374820" lon="-5.387734">
        <ele>569.0</ele>
        <time>1970-01-01T00:00:00Z</time>
      </trkpt>
      <trkpt lat="39.374820" lon="-5.387734">
        <ele>569.0</ele>
        <time>1970-01-01T00:00:00Z</time>
      </trkpt>
      <trkpt lat="39.375018" lon="-5.387758">
        <ele>569.5</ele>
        <time>1970-01-01T00:00:00Z</time>
      </trkpt>
      <trkpt lat="39.375018" lon="-5.387758">
        <ele>569.5</ele>
        <time>1970-01-01T00:00:00Z</time>
      </trkpt>
      <trkpt lat="39.375018" lon="-5.387758">
        <ele>569.5</ele>
        <time>1970-01-01T00:00:00Z</time>
      </trkpt>
      <trkpt lat="39.375018" lon="-5.387758">
        <ele>569.5</ele>
        <time>1970-01-01T00:00:00Z</time>
      </trkpt>
      <trkpt lat="39.375184" lon="-5.387768">
        <ele>570.3</ele>
        <time>1970-01-01T00:00:00Z</time>
      </trkpt>
      <trkpt lat="39.375184" lon="-5.387768">
        <ele>570.3</ele>
        <time>1970-01-01T00:00:00Z</time>
      </trkpt>
      <trkpt lat="39.375184" lon="-5.387768">
        <ele>570.3</ele>
        <time>1970-01-01T00:00:00Z</time>
      </trkpt>
      <trkpt lat="39.375184" lon="-5.387768">
        <ele>570.3</ele>
        <time>1970-01-01T00:00:00Z</time>
      </trkpt>
      <trkpt lat="39.375407" lon="-5.387782">
        <ele>571.7</ele>
        <time>1970-01-01T00:00:00Z</time>
      </trkpt>
      <trkpt lat="39.375407" lon="-5.387782">
        <ele>571.7</ele>
        <time>1970-01-01T00:00:00Z</time>
      </trkpt>
      <trkpt lat="39.375407" lon="-5.387782">
        <ele>571.7</ele>
        <time>1970-01-01T00:00:00Z</time>
      </trkpt>
      <trkpt lat="39.375407" lon="-5.387782">
        <ele>571.7</ele>
        <time>1970-01-01T00:00:00Z</time>
      </trkpt>
      <trkpt lat="39.375528" lon="-5.387789">
        <ele>572.1</ele>
        <time>1970-01-01T00:00:00Z</time>
      </trkpt>
      <trkpt lat="39.375528" lon="-5.387789">
        <ele>572.1</ele>
        <time>1970-01-01T00:00:00Z</time>
      </trkpt>
      <trkpt lat="39.375528" lon="-5.387789">
        <ele>572.1</ele>
        <time>1970-01-01T00:00:00Z</time>
      </trkpt>
      <trkpt lat="39.375528" lon="-5.387789">
        <ele>572.1</ele>
        <time>1970-01-01T00:00:00Z</time>
      </trkpt>
      <trkpt lat="39.375666" lon="-5.387786">
        <ele>572.8</ele>
        <time>1970-01-01T00:00:00Z</time>
      </trkpt>
      <trkpt lat="39.375666" lon="-5.387786">
        <ele>572.8</ele>
        <time>1970-01-01T00:00:00Z</time>
      </trkpt>
      <trkpt lat="39.375666" lon="-5.387786">
        <ele>572.8</ele>
        <time>1970-01-01T00:00:00Z</time>
      </trkpt>
      <trkpt lat="39.375666" lon="-5.387786">
        <ele>572.8</ele>
        <time>1970-01-01T00:00:00Z</time>
      </trkpt>
      <trkpt lat="39.375835" lon="-5.387772">
        <ele>574.0</ele>
        <time>1970-01-01T00:00:00Z</time>
      </trkpt>
      <trkpt lat="39.375835" lon="-5.387772">
        <ele>574.0</ele>
        <time>1970-01-01T00:00:00Z</time>
      </trkpt>
      <trkpt lat="39.375835" lon="-5.387772">
        <ele>574.0</ele>
        <time>1970-01-01T00:00:00Z</time>
      </trkpt>
      <trkpt lat="39.375835" lon="-5.387772">
        <ele>574.0</ele>
        <time>1970-01-01T00:00:00Z</time>
      </trkpt>
      <trkpt lat="39.375942" lon="-5.387758">
        <ele>575.1</ele>
        <time>1970-01-01T00:00:00Z</time>
      </trkpt>
      <trkpt lat="39.375942" lon="-5.387758">
        <ele>575.1</ele>
        <time>1970-01-01T00:00:00Z</time>
      </trkpt>
      <trkpt lat="39.375942" lon="-5.387758">
        <ele>575.1</ele>
        <time>1970-01-01T00:00:00Z</time>
      </trkpt>
      <trkpt lat="39.375942" lon="-5.387758">
        <ele>575.1</ele>
        <time>1970-01-01T00:00:00Z</time>
      </trkpt>
      <trkpt lat="39.376083" lon="-5.387784">
        <ele>575.5</ele>
        <time>1970-01-01T00:00:00Z</time>
      </trkpt>
      <trkpt lat="39.376083" lon="-5.387784">
        <ele>575.5</ele>
        <time>1970-01-01T00:00:00Z</time>
      </trkpt>
      <trkpt lat="39.376083" lon="-5.387784">
        <ele>575.5</ele>
        <time>1970-01-01T00:00:00Z</time>
      </trkpt>
      <trkpt lat="39.376083" lon="-5.387784">
        <ele>575.5</ele>
        <time>1970-01-01T00:00:00Z</time>
      </trkpt>
      <trkpt lat="39.376340" lon="-5.387841">
        <ele>575.1</ele>
        <time>1970-01-01T00:00:00Z</time>
      </trkpt>
      <trkpt lat="39.376340" lon="-5.387841">
        <ele>575.1</ele>
        <time>1970-01-01T00:00:00Z</time>
      </trkpt>
      <trkpt lat="39.376340" lon="-5.387841">
        <ele>575.1</ele>
        <time>1970-01-01T00:00:00Z</time>
      </trkpt>
      <trkpt lat="39.376340" lon="-5.387841">
        <ele>575.1</ele>
        <time>1970-01-01T00:00:00Z</time>
      </trkpt>
      <trkpt lat="39.376799" lon="-5.387922">
        <ele>576.3</ele>
        <time>1970-01-01T00:00:00Z</time>
      </trkpt>
      <trkpt lat="39.376799" lon="-5.387922">
        <ele>576.3</ele>
        <time>1970-01-01T00:00:00Z</time>
      </trkpt>
      <trkpt lat="39.376799" lon="-5.387922">
        <ele>576.3</ele>
        <time>1970-01-01T00:00:00Z</time>
      </trkpt>
      <trkpt lat="39.376799" lon="-5.387922">
        <ele>576.3</ele>
        <time>1970-01-01T00:00:00Z</time>
      </trkpt>
      <trkpt lat="39.377213" lon="-5.387958">
        <ele>578.5</ele>
        <time>1970-01-01T00:00:00Z</time>
      </trkpt>
      <trkpt lat="39.377213" lon="-5.387958">
        <ele>578.5</ele>
        <time>1970-01-01T00:00:00Z</time>
      </trkpt>
      <trkpt lat="39.377213" lon="-5.387958">
        <ele>578.5</ele>
        <time>1970-01-01T00:00:00Z</time>
      </trkpt>
      <trkpt lat="39.377213" lon="-5.387958">
        <ele>578.5</ele>
        <time>1970-01-01T00:00:00Z</time>
      </trkpt>
      <trkpt lat="39.377432" lon="-5.388005">
        <ele>579.6</ele>
        <time>1970-01-01T00:00:00Z</time>
      </trkpt>
      <trkpt lat="39.377432" lon="-5.388005">
        <ele>579.6</ele>
        <time>1970-01-01T00:00:00Z</time>
      </trkpt>
      <trkpt lat="39.377432" lon="-5.388005">
        <ele>579.6</ele>
        <time>1970-01-01T00:00:00Z</time>
      </trkpt>
      <trkpt lat="39.377432" lon="-5.388005">
        <ele>579.6</ele>
        <time>1970-01-01T00:00:00Z</time>
      </trkpt>
      <trkpt lat="39.378001" lon="-5.388124">
        <ele>585.7</ele>
        <time>1970-01-01T00:00:00Z</time>
      </trkpt>
      <trkpt lat="39.378001" lon="-5.388124">
        <ele>585.7</ele>
        <time>1970-01-01T00:00:00Z</time>
      </trkpt>
      <trkpt lat="39.378001" lon="-5.388124">
        <ele>585.7</ele>
        <time>1970-01-01T00:00:00Z</time>
      </trkpt>
      <trkpt lat="39.378001" lon="-5.388124">
        <ele>585.7</ele>
        <time>1970-01-01T00:00:00Z</time>
      </trkpt>
      <trkpt lat="39.378234" lon="-5.388208">
        <ele>588.4</ele>
        <time>1970-01-01T00:00:00Z</time>
      </trkpt>
      <trkpt lat="39.378234" lon="-5.388208">
        <ele>588.4</ele>
        <time>1970-01-01T00:00:00Z</time>
      </trkpt>
      <trkpt lat="39.378234" lon="-5.388208">
        <ele>588.4</ele>
        <time>1970-01-01T00:00:00Z</time>
      </trkpt>
      <trkpt lat="39.378234" lon="-5.388208">
        <ele>588.4</ele>
        <time>1970-01-01T00:00:00Z</time>
      </trkpt>
      <trkpt lat="39.378329" lon="-5.388227">
        <ele>589.7</ele>
        <time>1970-01-01T00:00:00Z</time>
      </trkpt>
      <trkpt lat="39.378329" lon="-5.388227">
        <ele>589.7</ele>
        <time>1970-01-01T00:00:00Z</time>
      </trkpt>
      <trkpt lat="39.378329" lon="-5.388227">
        <ele>589.7</ele>
        <time>1970-01-01T00:00:00Z</time>
      </trkpt>
      <trkpt lat="39.378329" lon="-5.388227">
        <ele>589.7</ele>
        <time>1970-01-01T00:00:00Z</time>
      </trkpt>
      <trkpt lat="39.378375" lon="-5.388221">
        <ele>590.4</ele>
        <time>1970-01-01T00:00:00Z</time>
      </trkpt>
      <trkpt lat="39.378375" lon="-5.388221">
        <ele>590.4</ele>
        <time>1970-01-01T00:00:00Z</time>
      </trkpt>
      <trkpt lat="39.378375" lon="-5.388221">
        <ele>590.4</ele>
        <time>1970-01-01T00:00:00Z</time>
      </trkpt>
      <trkpt lat="39.378375" lon="-5.388221">
        <ele>590.4</ele>
        <time>1970-01-01T00:00:00Z</time>
      </trkpt>
      <trkpt lat="39.378460" lon="-5.388162">
        <ele>591.5</ele>
        <time>1970-01-01T00:00:00Z</time>
      </trkpt>
      <trkpt lat="39.378460" lon="-5.388162">
        <ele>591.5</ele>
        <time>1970-01-01T00:00:00Z</time>
      </trkpt>
      <trkpt lat="39.378460" lon="-5.388162">
        <ele>591.5</ele>
        <time>1970-01-01T00:00:00Z</time>
      </trkpt>
      <trkpt lat="39.378460" lon="-5.388162">
        <ele>591.5</ele>
        <time>1970-01-01T00:00:00Z</time>
      </trkpt>
      <trkpt lat="39.378598" lon="-5.388066">
        <ele>593.8</ele>
        <time>1970-01-01T00:00:00Z</time>
      </trkpt>
      <trkpt lat="39.378598" lon="-5.388066">
        <ele>593.8</ele>
        <time>1970-01-01T00:00:00Z</time>
      </trkpt>
      <trkpt lat="39.378598" lon="-5.388066">
        <ele>593.8</ele>
        <time>1970-01-01T00:00:00Z</time>
      </trkpt>
      <trkpt lat="39.378598" lon="-5.388066">
        <ele>593.8</ele>
        <time>1970-01-01T00:00:00Z</time>
      </trkpt>
      <trkpt lat="39.378744" lon="-5.387985">
        <ele>595.8</ele>
        <time>1970-01-01T00:00:00Z</time>
      </trkpt>
      <trkpt lat="39.378744" lon="-5.387985">
        <ele>595.8</ele>
        <time>1970-01-01T00:00:00Z</time>
      </trkpt>
      <trkpt lat="39.378744" lon="-5.387985">
        <ele>595.8</ele>
        <time>1970-01-01T00:00:00Z</time>
      </trkpt>
      <trkpt lat="39.378744" lon="-5.387985">
        <ele>595.8</ele>
        <time>1970-01-01T00:00:00Z</time>
      </trkpt>
      <trkpt lat="39.378832" lon="-5.387974">
        <ele>596.6</ele>
        <time>1970-01-01T00:00:00Z</time>
      </trkpt>
      <trkpt lat="39.378832" lon="-5.387974">
        <ele>596.6</ele>
        <time>1970-01-01T00:00:00Z</time>
      </trkpt>
      <trkpt lat="39.378832" lon="-5.387974">
        <ele>596.6</ele>
        <time>1970-01-01T00:00:00Z</time>
      </trkpt>
      <trkpt lat="39.378832" lon="-5.387974">
        <ele>596.6</ele>
        <time>1970-01-01T00:00:00Z</time>
      </trkpt>
      <trkpt lat="39.379088" lon="-5.387973">
        <ele>598.5</ele>
        <time>1970-01-01T00:00:00Z</time>
      </trkpt>
      <trkpt lat="39.379088" lon="-5.387973">
        <ele>598.5</ele>
        <time>1970-01-01T00:00:00Z</time>
      </trkpt>
      <trkpt lat="39.379088" lon="-5.387973">
        <ele>598.5</ele>
        <time>1970-01-01T00:00:00Z</time>
      </trkpt>
      <trkpt lat="39.379088" lon="-5.387973">
        <ele>598.5</ele>
        <time>1970-01-01T00:00:00Z</time>
      </trkpt>
      <trkpt lat="39.379343" lon="-5.387863">
        <ele>601.0</ele>
        <time>1970-01-01T00:00:00Z</time>
      </trkpt>
      <trkpt lat="39.379343" lon="-5.387863">
        <ele>601.0</ele>
        <time>1970-01-01T00:00:00Z</time>
      </trkpt>
      <trkpt lat="39.379343" lon="-5.387863">
        <ele>601.0</ele>
        <time>1970-01-01T00:00:00Z</time>
      </trkpt>
      <trkpt lat="39.379343" lon="-5.387863">
        <ele>601.0</ele>
        <time>1970-01-01T00:00:00Z</time>
      </trkpt>
      <trkpt lat="39.379493" lon="-5.387798">
        <ele>602.9</ele>
        <time>1970-01-01T00:00:00Z</time>
      </trkpt>
      <trkpt lat="39.379493" lon="-5.387798">
        <ele>602.9</ele>
        <time>1970-01-01T00:00:00Z</time>
      </trkpt>
      <trkpt lat="39.379493" lon="-5.387798">
        <ele>602.9</ele>
        <time>1970-01-01T00:00:00Z</time>
      </trkpt>
      <trkpt lat="39.379493" lon="-5.387798">
        <ele>602.9</ele>
        <time>1970-01-01T00:00:00Z</time>
      </trkpt>
      <trkpt lat="39.379562" lon="-5.387679">
        <ele>604.5</ele>
        <time>1970-01-01T00:00:00Z</time>
      </trkpt>
      <trkpt lat="39.379562" lon="-5.387679">
        <ele>604.5</ele>
        <time>1970-01-01T00:00:00Z</time>
      </trkpt>
      <trkpt lat="39.379562" lon="-5.387679">
        <ele>604.5</ele>
        <time>1970-01-01T00:00:00Z</time>
      </trkpt>
      <trkpt lat="39.379562" lon="-5.387679">
        <ele>604.5</ele>
        <time>1970-01-01T00:00:00Z</time>
      </trkpt>
      <trkpt lat="39.379623" lon="-5.387656">
        <ele>605.2</ele>
        <time>1970-01-01T00:00:00Z</time>
      </trkpt>
      <trkpt lat="39.379623" lon="-5.387656">
        <ele>605.2</ele>
        <time>1970-01-01T00:00:00Z</time>
      </trkpt>
      <trkpt lat="39.379623" lon="-5.387656">
        <ele>605.2</ele>
        <time>1970-01-01T00:00:00Z</time>
      </trkpt>
      <trkpt lat="39.379623" lon="-5.387656">
        <ele>605.2</ele>
        <time>1970-01-01T00:00:00Z</time>
      </trkpt>
      <trkpt lat="39.379657" lon="-5.387639">
        <ele>605.7</ele>
        <time>1970-01-01T00:00:00Z</time>
      </trkpt>
      <trkpt lat="39.379657" lon="-5.387639">
        <ele>605.7</ele>
        <time>1970-01-01T00:00:00Z</time>
      </trkpt>
      <trkpt lat="39.379657" lon="-5.387639">
        <ele>605.7</ele>
        <time>1970-01-01T00:00:00Z</time>
      </trkpt>
      <trkpt lat="39.379657" lon="-5.387639">
        <ele>605.7</ele>
        <time>1970-01-01T00:00:00Z</time>
      </trkpt>
      <trkpt lat="39.379653" lon="-5.387471">
        <ele>606.9</ele>
        <time>1970-01-01T00:00:00Z</time>
      </trkpt>
      <trkpt lat="39.379653" lon="-5.387471">
        <ele>606.9</ele>
        <time>1970-01-01T00:00:00Z</time>
      </trkpt>
      <trkpt lat="39.379653" lon="-5.387471">
        <ele>606.9</ele>
        <time>1970-01-01T00:00:00Z</time>
      </trkpt>
      <trkpt lat="39.379653" lon="-5.387471">
        <ele>606.9</ele>
        <time>1970-01-01T00:00:00Z</time>
      </trkpt>
      <trkpt lat="39.379852" lon="-5.387510">
        <ele>608.5</ele>
        <time>1970-01-01T00:00:00Z</time>
      </trkpt>
      <trkpt lat="39.379852" lon="-5.387510">
        <ele>608.5</ele>
        <time>1970-01-01T00:00:00Z</time>
      </trkpt>
      <trkpt lat="39.379852" lon="-5.387510">
        <ele>608.5</ele>
        <time>1970-01-01T00:00:00Z</time>
      </trkpt>
      <trkpt lat="39.379852" lon="-5.387510">
        <ele>608.5</ele>
        <time>1970-01-01T00:00:00Z</time>
      </trkpt>
      <trkpt lat="39.379900" lon="-5.387506">
        <ele>608.9</ele>
        <time>1970-01-01T00:00:00Z</time>
      </trkpt>
      <trkpt lat="39.379900" lon="-5.387506">
        <ele>608.9</ele>
        <time>1970-01-01T00:00:00Z</time>
      </trkpt>
      <trkpt lat="39.379900" lon="-5.387506">
        <ele>608.9</ele>
        <time>1970-01-01T00:00:00Z</time>
      </trkpt>
      <trkpt lat="39.379900" lon="-5.387506">
        <ele>608.9</ele>
        <time>1970-01-01T00:00:00Z</time>
      </trkpt>
      <trkpt lat="39.379928" lon="-5.387554">
        <ele>608.7</ele>
        <time>1970-01-01T00:00:00Z</time>
      </trkpt>
      <trkpt lat="39.379928" lon="-5.387554">
        <ele>608.7</ele>
        <time>1970-01-01T00:00:00Z</time>
      </trkpt>
      <trkpt lat="39.379928" lon="-5.387554">
        <ele>608.7</ele>
        <time>1970-01-01T00:00:00Z</time>
      </trkpt>
      <trkpt lat="39.379928" lon="-5.387554">
        <ele>608.7</ele>
        <time>1970-01-01T00:00:00Z</time>
      </trkpt>
      <trkpt lat="39.380253" lon="-5.388042">
        <ele>607.3</ele>
        <time>1970-01-01T00:00:00Z</time>
      </trkpt>
      <trkpt lat="39.380253" lon="-5.388042">
        <ele>607.3</ele>
        <time>1970-01-01T00:00:00Z</time>
      </trkpt>
      <trkpt lat="39.380253" lon="-5.388042">
        <ele>607.3</ele>
        <time>1970-01-01T00:00:00Z</time>
      </trkpt>
      <trkpt lat="39.380253" lon="-5.388042">
        <ele>607.3</ele>
        <time>1970-01-01T00:00:00Z</time>
      </trkpt>
      <trkpt lat="39.380282" lon="-5.388021">
        <ele>607.8</ele>
        <time>1970-01-01T00:00:00Z</time>
      </trkpt>
      <trkpt lat="39.380282" lon="-5.388021">
        <ele>607.8</ele>
        <time>1970-01-01T00:00:00Z</time>
      </trkpt>
      <trkpt lat="39.380282" lon="-5.388021">
        <ele>607.8</ele>
        <time>1970-01-01T00:00:00Z</time>
      </trkpt>
      <trkpt lat="39.380282" lon="-5.388021">
        <ele>607.8</ele>
        <time>1970-01-01T00:00:00Z</time>
      </trkpt>
      <trkpt lat="39.380582" lon="-5.386979">
        <ele>621.6</ele>
        <time>1970-01-01T00:00:00Z</time>
      </trkpt>
      <trkpt lat="39.380582" lon="-5.386979">
        <ele>621.6</ele>
        <time>1970-01-01T00:00:00Z</time>
      </trkpt>
      <trkpt lat="39.380582" lon="-5.386979">
        <ele>621.6</ele>
        <time>1970-01-01T00:00:00Z</time>
      </trkpt>
      <trkpt lat="39.380582" lon="-5.386979">
        <ele>621.6</ele>
        <time>1970-01-01T00:00:00Z</time>
      </trkpt>
      <trkpt lat="39.380581" lon="-5.386929">
        <ele>622.2</ele>
        <time>1970-01-01T00:00:00Z</time>
      </trkpt>
      <trkpt lat="39.380581" lon="-5.386929">
        <ele>622.2</ele>
        <time>1970-01-01T00:00:00Z</time>
      </trkpt>
      <trkpt lat="39.380581" lon="-5.386929">
        <ele>622.2</ele>
        <time>1970-01-01T00:00:00Z</time>
      </trkpt>
      <trkpt lat="39.380581" lon="-5.386929">
        <ele>622.2</ele>
        <time>1970-01-01T00:00:00Z</time>
      </trkpt>
      <trkpt lat="39.380321" lon="-5.386281">
        <ele>629.6</ele>
        <time>1970-01-01T00:00:00Z</time>
      </trkpt>
      <trkpt lat="39.380321" lon="-5.386281">
        <ele>629.6</ele>
        <time>1970-01-01T00:00:00Z</time>
      </trkpt>
      <trkpt lat="39.380321" lon="-5.386281">
        <ele>629.6</ele>
        <time>1970-01-01T00:00:00Z</time>
      </trkpt>
      <trkpt lat="39.380321" lon="-5.386281">
        <ele>629.6</ele>
        <time>1970-01-01T00:00:00Z</time>
      </trkpt>
      <trkpt lat="39.380080" lon="-5.385701">
        <ele>636.7</ele>
        <time>1970-01-01T00:00:00Z</time>
      </trkpt>
      <trkpt lat="39.380080" lon="-5.385701">
        <ele>636.7</ele>
        <time>1970-01-01T00:00:00Z</time>
      </trkpt>
      <trkpt lat="39.380080" lon="-5.385701">
        <ele>636.7</ele>
        <time>1970-01-01T00:00:00Z</time>
      </trkpt>
      <trkpt lat="39.380080" lon="-5.385701">
        <ele>636.7</ele>
        <time>1970-01-01T00:00:00Z</time>
      </trkpt>
      <trkpt lat="39.379707" lon="-5.384830">
        <ele>643.9</ele>
        <time>1970-01-01T00:00:00Z</time>
      </trkpt>
      <trkpt lat="39.379707" lon="-5.384830">
        <ele>643.9</ele>
        <time>1970-01-01T00:00:00Z</time>
      </trkpt>
      <trkpt lat="39.379707" lon="-5.384830">
        <ele>643.9</ele>
        <time>1970-01-01T00:00:00Z</time>
      </trkpt>
      <trkpt lat="39.379707" lon="-5.384830">
        <ele>643.9</ele>
        <time>1970-01-01T00:00:00Z</time>
      </trkpt>
      <trkpt lat="39.379642" lon="-5.384655">
        <ele>643.7</ele>
        <time>1970-01-01T00:00:00Z</time>
      </trkpt>
      <trkpt lat="39.379642" lon="-5.384655">
        <ele>643.7</ele>
        <time>1970-01-01T00:00:00Z</time>
      </trkpt>
      <trkpt lat="39.379642" lon="-5.384655">
        <ele>643.7</ele>
        <time>1970-01-01T00:00:00Z</time>
      </trkpt>
      <trkpt lat="39.379642" lon="-5.384655">
        <ele>643.7</ele>
        <time>1970-01-01T00:00:00Z</time>
      </trkpt>
      <trkpt lat="39.379623" lon="-5.384536">
        <ele>643.9</ele>
        <time>1970-01-01T00:00:00Z</time>
      </trkpt>
      <trkpt lat="39.379623" lon="-5.384536">
        <ele>643.9</ele>
        <time>1970-01-01T00:00:00Z</time>
      </trkpt>
      <trkpt lat="39.379623" lon="-5.384536">
        <ele>643.9</ele>
        <time>1970-01-01T00:00:00Z</time>
      </trkpt>
      <trkpt lat="39.379623" lon="-5.384536">
        <ele>643.9</ele>
        <time>1970-01-01T00:00:00Z</time>
      </trkpt>
      <trkpt lat="39.379630" lon="-5.384377">
        <ele>644.3</ele>
        <time>1970-01-01T00:00:00Z</time>
      </trkpt>
      <trkpt lat="39.379630" lon="-5.384377">
        <ele>644.3</ele>
        <time>1970-01-01T00:00:00Z</time>
      </trkpt>
      <trkpt lat="39.379630" lon="-5.384377">
        <ele>644.3</ele>
        <time>1970-01-01T00:00:00Z</time>
      </trkpt>
      <trkpt lat="39.379630" lon="-5.384377">
        <ele>644.3</ele>
        <time>1970-01-01T00:00:00Z</time>
      </trkpt>
      <trkpt lat="39.379654" lon="-5.384208">
        <ele>645.0</ele>
        <time>1970-01-01T00:00:00Z</time>
      </trkpt>
      <trkpt lat="39.379654" lon="-5.384208">
        <ele>645.0</ele>
        <time>1970-01-01T00:00:00Z</time>
      </trkpt>
      <trkpt lat="39.379654" lon="-5.384208">
        <ele>645.0</ele>
        <time>1970-01-01T00:00:00Z</time>
      </trkpt>
      <trkpt lat="39.379654" lon="-5.384208">
        <ele>645.0</ele>
        <time>1970-01-01T00:00:00Z</time>
      </trkpt>
      <trkpt lat="39.379703" lon="-5.383976">
        <ele>645.1</ele>
        <time>1970-01-01T00:00:00Z</time>
      </trkpt>
      <trkpt lat="39.379703" lon="-5.383976">
        <ele>645.1</ele>
        <time>1970-01-01T00:00:00Z</time>
      </trkpt>
      <trkpt lat="39.379703" lon="-5.383976">
        <ele>645.1</ele>
        <time>1970-01-01T00:00:00Z</time>
      </trkpt>
      <trkpt lat="39.379703" lon="-5.383976">
        <ele>645.1</ele>
        <time>1970-01-01T00:00:00Z</time>
      </trkpt>
      <trkpt lat="39.379742" lon="-5.383898">
        <ele>645.1</ele>
        <time>1970-01-01T00:00:00Z</time>
      </trkpt>
      <trkpt lat="39.379742" lon="-5.383898">
        <ele>645.1</ele>
        <time>1970-01-01T00:00:00Z</time>
      </trkpt>
      <trkpt lat="39.379742" lon="-5.383898">
        <ele>645.1</ele>
        <time>1970-01-01T00:00:00Z</time>
      </trkpt>
      <trkpt lat="39.379742" lon="-5.383898">
        <ele>645.1</ele>
        <time>1970-01-01T00:00:00Z</time>
      </trkpt>
      <trkpt lat="39.379748" lon="-5.383879">
        <ele>645.0</ele>
        <time>1970-01-01T00:00:00Z</time>
      </trkpt>
      <trkpt lat="39.379748" lon="-5.383879">
        <ele>645.0</ele>
        <time>1970-01-01T00:00:00Z</time>
      </trkpt>
      <trkpt lat="39.379748" lon="-5.383879">
        <ele>645.0</ele>
        <time>1970-01-01T00:00:00Z</time>
      </trkpt>
      <trkpt lat="39.379748" lon="-5.383879">
        <ele>645.0</ele>
        <time>1970-01-01T00:00:00Z</time>
      </trkpt>
    </trkseg>
    <trkseg>
      <trkpt lat="39.379748" lon="-5.383879">
        <ele>645.0</ele>
        <time>1970-01-01T00:00:00Z</time>
      </trkpt>
      <trkpt lat="39.379748" lon="-5.383879">
        <ele>645.0</ele>
        <time>1970-01-01T00:00:00Z</time>
      </trkpt>
      <trkpt lat="39.379748" lon="-5.383879">
        <ele>645.0</ele>
        <time>1970-01-01T00:00:00Z</time>
      </trkpt>
      <trkpt lat="39.379748" lon="-5.383879">
        <ele>645.0</ele>
        <time>1970-01-01T00:00:00Z</time>
      </trkpt>
      <trkpt lat="39.379750" lon="-5.383815">
        <ele>644.5</ele>
        <time>1970-01-01T00:00:00Z</time>
      </trkpt>
      <trkpt lat="39.379750" lon="-5.383815">
        <ele>644.5</ele>
        <time>1970-01-01T00:00:00Z</time>
      </trkpt>
      <trkpt lat="39.379750" lon="-5.383815">
        <ele>644.5</ele>
        <time>1970-01-01T00:00:00Z</time>
      </trkpt>
      <trkpt lat="39.379750" lon="-5.383815">
        <ele>644.5</ele>
        <time>1970-01-01T00:00:00Z</time>
      </trkpt>
      <trkpt lat="39.379738" lon="-5.383771">
        <ele>644.1</ele>
        <time>1970-01-01T00:00:00Z</time>
      </trkpt>
      <trkpt lat="39.379738" lon="-5.383771">
        <ele>644.1</ele>
        <time>1970-01-01T00:00:00Z</time>
      </trkpt>
      <trkpt lat="39.379738" lon="-5.383771">
        <ele>644.1</ele>
        <time>1970-01-01T00:00:00Z</time>
      </trkpt>
      <trkpt lat="39.379738" lon="-5.383771">
        <ele>644.1</ele>
        <time>1970-01-01T00:00:00Z</time>
      </trkpt>
      <trkpt lat="39.379620" lon="-5.383573">
        <ele>642.4</ele>
        <time>1970-01-01T00:00:00Z</time>
      </trkpt>
      <trkpt lat="39.379620" lon="-5.383573">
        <ele>642.4</ele>
        <time>1970-01-01T00:00:00Z</time>
      </trkpt>
      <trkpt lat="39.379620" lon="-5.383573">
        <ele>642.4</ele>
        <time>1970-01-01T00:00:00Z</time>
      </trkpt>
      <trkpt lat="39.379620" lon="-5.383573">
        <ele>642.4</ele>
        <time>1970-01-01T00:00:00Z</time>
      </trkpt>
      <trkpt lat="39.379477" lon="-5.383356">
        <ele>641.4</ele>
        <time>1970-01-01T00:00:00Z</time>
      </trkpt>
      <trkpt lat="39.379477" lon="-5.383356">
        <ele>641.4</ele>
        <time>1970-01-01T00:00:00Z</time>
      </trkpt>
      <trkpt lat="39.379477" lon="-5.383356">
        <ele>641.4</ele>
        <time>1970-01-01T00:00:00Z</time>
      </trkpt>
      <trkpt lat="39.379477" lon="-5.383356">
        <ele>641.4</ele>
        <time>1970-01-01T00:00:00Z</time>
      </trkpt>
      <trkpt lat="39.379362" lon="-5.383146">
        <ele>640.1</ele>
        <time>1970-01-01T00:00:00Z</time>
      </trkpt>
      <trkpt lat="39.379362" lon="-5.383146">
        <ele>640.1</ele>
        <time>1970-01-01T00:00:00Z</time>
      </trkpt>
      <trkpt lat="39.379362" lon="-5.383146">
        <ele>640.1</ele>
        <time>1970-01-01T00:00:00Z</time>
      </trkpt>
      <trkpt lat="39.379362" lon="-5.383146">
        <ele>640.1</ele>
        <time>1970-01-01T00:00:00Z</time>
      </trkpt>
      <trkpt lat="39.379219" lon="-5.382906">
        <ele>640.6</ele>
        <time>1970-01-01T00:00:00Z</time>
      </trkpt>
      <trkpt lat="39.379219" lon="-5.382906">
        <ele>640.6</ele>
        <time>1970-01-01T00:00:00Z</time>
      </trkpt>
      <trkpt lat="39.379219" lon="-5.382906">
        <ele>640.6</ele>
        <time>1970-01-01T00:00:00Z</time>
      </trkpt>
      <trkpt lat="39.379219" lon="-5.382906">
        <ele>640.6</ele>
        <time>1970-01-01T00:00:00Z</time>
      </trkpt>
      <trkpt lat="39.379061" lon="-5.382626">
        <ele>641.1</ele>
        <time>1970-01-01T00:00:00Z</time>
      </trkpt>
      <trkpt lat="39.379061" lon="-5.382626">
        <ele>641.1</ele>
        <time>1970-01-01T00:00:00Z</time>
      </trkpt>
      <trkpt lat="39.379061" lon="-5.382626">
        <ele>641.1</ele>
        <time>1970-01-01T00:00:00Z</time>
      </trkpt>
      <trkpt lat="39.379061" lon="-5.382626">
        <ele>641.1</ele>
        <time>1970-01-01T00:00:00Z</time>
      </trkpt>
      <trkpt lat="39.378991" lon="-5.382508">
        <ele>641.3</ele>
        <time>1970-01-01T00:00:00Z</time>
      </trkpt>
      <trkpt lat="39.378991" lon="-5.382508">
        <ele>641.3</ele>
        <time>1970-01-01T00:00:00Z</time>
      </trkpt>
      <trkpt lat="39.378991" lon="-5.382508">
        <ele>641.3</ele>
        <time>1970-01-01T00:00:00Z</time>
      </trkpt>
      <trkpt lat="39.378991" lon="-5.382508">
        <ele>641.3</ele>
        <time>1970-01-01T00:00:00Z</time>
      </trkpt>
      <trkpt lat="39.378945" lon="-5.382435">
        <ele>641.4</ele>
        <time>1970-01-01T00:00:00Z</time>
      </trkpt>
      <trkpt lat="39.378945" lon="-5.382435">
        <ele>641.4</ele>
        <time>1970-01-01T00:00:00Z</time>
      </trkpt>
      <trkpt lat="39.378945" lon="-5.382435">
        <ele>641.4</ele>
        <time>1970-01-01T00:00:00Z</time>
      </trkpt>
      <trkpt lat="39.378945" lon="-5.382435">
        <ele>641.4</ele>
        <time>1970-01-01T00:00:00Z</time>
      </trkpt>
      <trkpt lat="39.378890" lon="-5.382362">
        <ele>641.7</ele>
        <time>1970-01-01T00:00:00Z</time>
      </trkpt>
      <trkpt lat="39.378890" lon="-5.382362">
        <ele>641.7</ele>
        <time>1970-01-01T00:00:00Z</time>
      </trkpt>
      <trkpt lat="39.378890" lon="-5.382362">
        <ele>641.7</ele>
        <time>1970-01-01T00:00:00Z</time>
      </trkpt>
      <trkpt lat="39.378890" lon="-5.382362">
        <ele>641.7</ele>
        <time>1970-01-01T00:00:00Z</time>
      </trkpt>
      <trkpt lat="39.378835" lon="-5.382230">
        <ele>641.5</ele>
        <time>1970-01-01T00:00:00Z</time>
      </trkpt>
      <trkpt lat="39.378835" lon="-5.382230">
        <ele>641.5</ele>
        <time>1970-01-01T00:00:00Z</time>
      </trkpt>
      <trkpt lat="39.378835" lon="-5.382230">
        <ele>641.5</ele>
        <time>1970-01-01T00:00:00Z</time>
      </trkpt>
      <trkpt lat="39.378835" lon="-5.382230">
        <ele>641.5</ele>
        <time>1970-01-01T00:00:00Z</time>
      </trkpt>
      <trkpt lat="39.378827" lon="-5.382161">
        <ele>640.7</ele>
        <time>1970-01-01T00:00:00Z</time>
      </trkpt>
      <trkpt lat="39.378827" lon="-5.382161">
        <ele>640.7</ele>
        <time>1970-01-01T00:00:00Z</time>
      </trkpt>
      <trkpt lat="39.378827" lon="-5.382161">
        <ele>640.7</ele>
        <time>1970-01-01T00:00:00Z</time>
      </trkpt>
      <trkpt lat="39.378827" lon="-5.382161">
        <ele>640.7</ele>
        <time>1970-01-01T00:00:00Z</time>
      </trkpt>
      <trkpt lat="39.378816" lon="-5.382098">
        <ele>640.2</ele>
        <time>1970-01-01T00:00:00Z</time>
      </trkpt>
      <trkpt lat="39.378816" lon="-5.382098">
        <ele>640.2</ele>
        <time>1970-01-01T00:00:00Z</time>
      </trkpt>
      <trkpt lat="39.378816" lon="-5.382098">
        <ele>640.2</ele>
        <time>1970-01-01T00:00:00Z</time>
      </trkpt>
      <trkpt lat="39.378816" lon="-5.382098">
        <ele>640.2</ele>
        <time>1970-01-01T00:00:00Z</time>
      </trkpt>
      <trkpt lat="39.378745" lon="-5.381876">
        <ele>640.2</ele>
        <time>1970-01-01T00:00:00Z</time>
      </trkpt>
      <trkpt lat="39.378745" lon="-5.381876">
        <ele>640.2</ele>
        <time>1970-01-01T00:00:00Z</time>
      </trkpt>
      <trkpt lat="39.378745" lon="-5.381876">
        <ele>640.2</ele>
        <time>1970-01-01T00:00:00Z</time>
      </trkpt>
      <trkpt lat="39.378745" lon="-5.381876">
        <ele>640.2</ele>
        <time>1970-01-01T00:00:00Z</time>
      </trkpt>
      <trkpt lat="39.378722" lon="-5.381806">
        <ele>640.3</ele>
        <time>1970-01-01T00:00:00Z</time>
      </trkpt>
      <trkpt lat="39.378722" lon="-5.381806">
        <ele>640.3</ele>
        <time>1970-01-01T00:00:00Z</time>
      </trkpt>
      <trkpt lat="39.378722" lon="-5.381806">
        <ele>640.3</ele>
        <time>1970-01-01T00:00:00Z</time>
      </trkpt>
      <trkpt lat="39.378722" lon="-5.381806">
        <ele>640.3</ele>
        <time>1970-01-01T00:00:00Z</time>
      </trkpt>
      <trkpt lat="39.378704" lon="-5.381724">
        <ele>639.9</ele>
        <time>1970-01-01T00:00:00Z</time>
      </trkpt>
      <trkpt lat="39.378704" lon="-5.381724">
        <ele>639.9</ele>
        <time>1970-01-01T00:00:00Z</time>
      </trkpt>
      <trkpt lat="39.378704" lon="-5.381724">
        <ele>639.9</ele>
        <time>1970-01-01T00:00:00Z</time>
      </trkpt>
      <trkpt lat="39.378704" lon="-5.381724">
        <ele>639.9</ele>
        <time>1970-01-01T00:00:00Z</time>
      </trkpt>
      <trkpt lat="39.378689" lon="-5.381648">
        <ele>639.4</ele>
        <time>1970-01-01T00:00:00Z</time>
      </trkpt>
      <trkpt lat="39.378689" lon="-5.381648">
        <ele>639.4</ele>
        <time>1970-01-01T00:00:00Z</time>
      </trkpt>
      <trkpt lat="39.378689" lon="-5.381648">
        <ele>639.4</ele>
        <time>1970-01-01T00:00:00Z</time>
      </trkpt>
      <trkpt lat="39.378689" lon="-5.381648">
        <ele>639.4</ele>
        <time>1970-01-01T00:00:00Z</time>
      </trkpt>
      <trkpt lat="39.378627" lon="-5.381419">
        <ele>638.3</ele>
        <time>1970-01-01T00:00:00Z</time>
      </trkpt>
      <trkpt lat="39.378627" lon="-5.381419">
        <ele>638.3</ele>
        <time>1970-01-01T00:00:00Z</time>
      </trkpt>
      <trkpt lat="39.378627" lon="-5.381419">
        <ele>638.3</ele>
        <time>1970-01-01T00:00:00Z</time>
      </trkpt>
      <trkpt lat="39.378627" lon="-5.381419">
        <ele>638.3</ele>
        <time>1970-01-01T00:00:00Z</time>
      </trkpt>
      <trkpt lat="39.378536" lon="-5.381048">
        <ele>637.6</ele>
        <time>1970-01-01T00:00:00Z</time>
      </trkpt>
      <trkpt lat="39.378536" lon="-5.381048">
        <ele>637.6</ele>
        <time>1970-01-01T00:00:00Z</time>
      </trkpt>
      <trkpt lat="39.378536" lon="-5.381048">
        <ele>637.6</ele>
        <time>1970-01-01T00:00:00Z</time>
      </trkpt>
      <trkpt lat="39.378536" lon="-5.381048">
        <ele>637.6</ele>
        <time>1970-01-01T00:00:00Z</time>
      </trkpt>
      <trkpt lat="39.378428" lon="-5.380758">
        <ele>638.0</ele>
        <time>1970-01-01T00:00:00Z</time>
      </trkpt>
      <trkpt lat="39.378428" lon="-5.380758">
        <ele>638.0</ele>
        <time>1970-01-01T00:00:00Z</time>
      </trkpt>
      <trkpt lat="39.378428" lon="-5.380758">
        <ele>638.0</ele>
        <time>1970-01-01T00:00:00Z</time>
      </trkpt>
      <trkpt lat="39.378428" lon="-5.380758">
        <ele>638.0</ele>
        <time>1970-01-01T00:00:00Z</time>
      </trkpt>
      <trkpt lat="39.378347" lon="-5.380501">
        <ele>638.0</ele>
        <time>1970-01-01T00:00:00Z</time>
      </trkpt>
      <trkpt lat="39.378347" lon="-5.380501">
        <ele>638.0</ele>
        <time>1970-01-01T00:00:00Z</time>
      </trkpt>
      <trkpt lat="39.378347" lon="-5.380501">
        <ele>638.0</ele>
        <time>1970-01-01T00:00:00Z</time>
      </trkpt>
      <trkpt lat="39.378347" lon="-5.380501">
        <ele>638.0</ele>
        <time>1970-01-01T00:00:00Z</time>
      </trkpt>
      <trkpt lat="39.378247" lon="-5.380081">
        <ele>637.3</ele>
        <time>1970-01-01T00:00:00Z</time>
      </trkpt>
      <trkpt lat="39.378247" lon="-5.380081">
        <ele>637.3</ele>
        <time>1970-01-01T00:00:00Z</time>
      </trkpt>
      <trkpt lat="39.378247" lon="-5.380081">
        <ele>637.3</ele>
        <time>1970-01-01T00:00:00Z</time>
      </trkpt>
      <trkpt lat="39.378247" lon="-5.380081">
        <ele>637.3</ele>
        <time>1970-01-01T00:00:00Z</time>
      </trkpt>
      <trkpt lat="39.378180" lon="-5.379883">
        <ele>637.2</ele>
        <time>1970-01-01T00:00:00Z</time>
      </trkpt>
      <trkpt lat="39.378180" lon="-5.379883">
        <ele>637.2</ele>
        <time>1970-01-01T00:00:00Z</time>
      </trkpt>
      <trkpt lat="39.378180" lon="-5.379883">
        <ele>637.2</ele>
        <time>1970-01-01T00:00:00Z</time>
      </trkpt>
      <trkpt lat="39.378180" lon="-5.379883">
        <ele>637.2</ele>
        <time>1970-01-01T00:00:00Z</time>
      </trkpt>
      <trkpt lat="39.378093" lon="-5.379684">
        <ele>636.4</ele>
        <time>1970-01-01T00:00:00Z</time>
      </trkpt>
      <trkpt lat="39.378093" lon="-5.379684">
        <ele>636.4</ele>
        <time>1970-01-01T00:00:00Z</time>
      </trkpt>
      <trkpt lat="39.378093" lon="-5.379684">
        <ele>636.4</ele>
        <time>1970-01-01T00:00:00Z</time>
      </trkpt>
      <trkpt lat="39.378093" lon="-5.379684">
        <ele>636.4</ele>
        <time>1970-01-01T00:00:00Z</time>
      </trkpt>
      <trkpt lat="39.378019" lon="-5.379577">
        <ele>637.7</ele>
        <time>1970-01-01T00:00:00Z</time>
      </trkpt>
      <trkpt lat="39.378019" lon="-5.379577">
        <ele>637.7</ele>
        <time>1970-01-01T00:00:00Z</time>
      </trkpt>
      <trkpt lat="39.378019" lon="-5.379577">
        <ele>637.7</ele>
        <time>1970-01-01T00:00:00Z</time>
      </trkpt>
      <trkpt lat="39.378019" lon="-5.379577">
        <ele>637.7</ele>
        <time>1970-01-01T00:00:00Z</time>
      </trkpt>
      <trkpt lat="39.377860" lon="-5.379381">
        <ele>640.5</ele>
        <time>1970-01-01T00:00:00Z</time>
      </trkpt>
      <trkpt lat="39.377860" lon="-5.379381">
        <ele>640.5</ele>
        <time>1970-01-01T00:00:00Z</time>
      </trkpt>
      <trkpt lat="39.377860" lon="-5.379381">
        <ele>640.5</ele>
        <time>1970-01-01T00:00:00Z</time>
      </trkpt>
      <trkpt lat="39.377860" lon="-5.379381">
        <ele>640.5</ele>
        <time>1970-01-01T00:00:00Z</time>
      </trkpt>
      <trkpt lat="39.377756" lon="-5.379253">
        <ele>642.6</ele>
        <time>1970-01-01T00:00:00Z</time>
      </trkpt>
      <trkpt lat="39.377756" lon="-5.379253">
        <ele>642.6</ele>
        <time>1970-01-01T00:00:00Z</time>
      </trkpt>
      <trkpt lat="39.377756" lon="-5.379253">
        <ele>642.6</ele>
        <time>1970-01-01T00:00:00Z</time>
      </trkpt>
      <trkpt lat="39.377756" lon="-5.379253">
        <ele>642.6</ele>
        <time>1970-01-01T00:00:00Z</time>
      </trkpt>
      <trkpt lat="39.377658" lon="-5.379083">
        <ele>642.5</ele>
        <time>1970-01-01T00:00:00Z</time>
      </trkpt>
      <trkpt lat="39.377658" lon="-5.379083">
        <ele>642.5</ele>
        <time>1970-01-01T00:00:00Z</time>
      </trkpt>
      <trkpt lat="39.377658" lon="-5.379083">
        <ele>642.5</ele>
        <time>1970-01-01T00:00:00Z</time>
      </trkpt>
      <trkpt lat="39.377658" lon="-5.379083">
        <ele>642.5</ele>
        <time>1970-01-01T00:00:00Z</time>
      </trkpt>
      <trkpt lat="39.377562" lon="-5.378898">
        <ele>641.4</ele>
        <time>1970-01-01T00:00:00Z</time>
      </trkpt>
      <trkpt lat="39.377562" lon="-5.378898">
        <ele>641.4</ele>
        <time>1970-01-01T00:00:00Z</time>
      </trkpt>
      <trkpt lat="39.377562" lon="-5.378898">
        <ele>641.4</ele>
        <time>1970-01-01T00:00:00Z</time>
      </trkpt>
      <trkpt lat="39.377562" lon="-5.378898">
        <ele>641.4</ele>
        <time>1970-01-01T00:00:00Z</time>
      </trkpt>
      <trkpt lat="39.377493" lon="-5.378795">
        <ele>641.3</ele>
        <time>1970-01-01T00:00:00Z</time>
      </trkpt>
      <trkpt lat="39.377493" lon="-5.378795">
        <ele>641.3</ele>
        <time>1970-01-01T00:00:00Z</time>
      </trkpt>
      <trkpt lat="39.377493" lon="-5.378795">
        <ele>641.3</ele>
        <time>1970-01-01T00:00:00Z</time>
      </trkpt>
      <trkpt lat="39.377493" lon="-5.378795">
        <ele>641.3</ele>
        <time>1970-01-01T00:00:00Z</time>
      </trkpt>
      <trkpt lat="39.377402" lon="-5.378700">
        <ele>642.7</ele>
        <time>1970-01-01T00:00:00Z</time>
      </trkpt>
      <trkpt lat="39.377402" lon="-5.378700">
        <ele>642.7</ele>
        <time>1970-01-01T00:00:00Z</time>
      </trkpt>
      <trkpt lat="39.377402" lon="-5.378700">
        <ele>642.7</ele>
        <time>1970-01-01T00:00:00Z</time>
      </trkpt>
      <trkpt lat="39.377402" lon="-5.378700">
        <ele>642.7</ele>
        <time>1970-01-01T00:00:00Z</time>
      </trkpt>
      <trkpt lat="39.377294" lon="-5.378562">
        <ele>643.5</ele>
        <time>1970-01-01T00:00:00Z</time>
      </trkpt>
      <trkpt lat="39.377294" lon="-5.378562">
        <ele>643.5</ele>
        <time>1970-01-01T00:00:00Z</time>
      </trkpt>
      <trkpt lat="39.377294" lon="-5.378562">
        <ele>643.5</ele>
        <time>1970-01-01T00:00:00Z</time>
      </trkpt>
      <trkpt lat="39.377294" lon="-5.378562">
        <ele>643.5</ele>
        <time>1970-01-01T00:00:00Z</time>
      </trkpt>
      <trkpt lat="39.377209" lon="-5.378444">
        <ele>643.6</ele>
        <time>1970-01-01T00:00:00Z</time>
      </trkpt>
      <trkpt lat="39.377209" lon="-5.378444">
        <ele>643.6</ele>
        <time>1970-01-01T00:00:00Z</time>
      </trkpt>
      <trkpt lat="39.377209" lon="-5.378444">
        <ele>643.6</ele>
        <time>1970-01-01T00:00:00Z</time>
      </trkpt>
      <trkpt lat="39.377209" lon="-5.378444">
        <ele>643.6</ele>
        <time>1970-01-01T00:00:00Z</time>
      </trkpt>
      <trkpt lat="39.377116" lon="-5.378288">
        <ele>643.4</ele>
        <time>1970-01-01T00:00:00Z</time>
      </trkpt>
      <trkpt lat="39.377116" lon="-5.378288">
        <ele>643.4</ele>
        <time>1970-01-01T00:00:00Z</time>
      </trkpt>
      <trkpt lat="39.377116" lon="-5.378288">
        <ele>643.4</ele>
        <time>1970-01-01T00:00:00Z</time>
      </trkpt>
      <trkpt lat="39.377116" lon="-5.378288">
        <ele>643.4</ele>
        <time>1970-01-01T00:00:00Z</time>
      </trkpt>
      <trkpt lat="39.377062" lon="-5.378167">
        <ele>643.0</ele>
        <time>1970-01-01T00:00:00Z</time>
      </trkpt>
      <trkpt lat="39.377062" lon="-5.378167">
        <ele>643.0</ele>
        <time>1970-01-01T00:00:00Z</time>
      </trkpt>
      <trkpt lat="39.377062" lon="-5.378167">
        <ele>643.0</ele>
        <time>1970-01-01T00:00:00Z</time>
      </trkpt>
      <trkpt lat="39.377062" lon="-5.378167">
        <ele>643.0</ele>
        <time>1970-01-01T00:00:00Z</time>
      </trkpt>
      <trkpt lat="39.377011" lon="-5.378078">
        <ele>643.3</ele>
        <time>1970-01-01T00:00:00Z</time>
      </trkpt>
      <trkpt lat="39.377011" lon="-5.378078">
        <ele>643.3</ele>
        <time>1970-01-01T00:00:00Z</time>
      </trkpt>
      <trkpt lat="39.377011" lon="-5.378078">
        <ele>643.3</ele>
        <time>1970-01-01T00:00:00Z</time>
      </trkpt>
      <trkpt lat="39.377011" lon="-5.378078">
        <ele>643.3</ele>
        <time>1970-01-01T00:00:00Z</time>
      </trkpt>
      <trkpt lat="39.376921" lon="-5.377928">
        <ele>643.3</ele>
        <time>1970-01-01T00:00:00Z</time>
      </trkpt>
      <trkpt lat="39.376921" lon="-5.377928">
        <ele>643.3</ele>
        <time>1970-01-01T00:00:00Z</time>
      </trkpt>
      <trkpt lat="39.376921" lon="-5.377928">
        <ele>643.3</ele>
        <time>1970-01-01T00:00:00Z</time>
      </trkpt>
      <trkpt lat="39.376921" lon="-5.377928">
        <ele>643.3</ele>
        <time>1970-01-01T00:00:00Z</time>
      </trkpt>
      <trkpt lat="39.376751" lon="-5.377684">
        <ele>643.9</ele>
        <time>1970-01-01T00:00:00Z</time>
      </trkpt>
      <trkpt lat="39.376751" lon="-5.377684">
        <ele>643.9</ele>
        <time>1970-01-01T00:00:00Z</time>
      </trkpt>
      <trkpt lat="39.376751" lon="-5.377684">
        <ele>643.9</ele>
        <time>1970-01-01T00:00:00Z</time>
      </trkpt>
      <trkpt lat="39.376751" lon="-5.377684">
        <ele>643.9</ele>
        <time>1970-01-01T00:00:00Z</time>
      </trkpt>
      <trkpt lat="39.376594" lon="-5.377471">
        <ele>645.7</ele>
        <time>1970-01-01T00:00:00Z</time>
      </trkpt>
      <trkpt lat="39.376594" lon="-5.377471">
        <ele>645.7</ele>
        <time>1970-01-01T00:00:00Z</time>
      </trkpt>
      <trkpt lat="39.376594" lon="-5.377471">
        <ele>645.7</ele>
        <time>1970-01-01T00:00:00Z</time>
      </trkpt>
      <trkpt lat="39.376594" lon="-5.377471">
        <ele>645.7</ele>
        <time>1970-01-01T00:00:00Z</time>
      </trkpt>
      <trkpt lat="39.376410" lon="-5.377268">
        <ele>647.0</ele>
        <time>1970-01-01T00:00:00Z</time>
      </trkpt>
      <trkpt lat="39.376410" lon="-5.377268">
        <ele>647.0</ele>
        <time>1970-01-01T00:00:00Z</time>
      </trkpt>
      <trkpt lat="39.376410" lon="-5.377268">
        <ele>647.0</ele>
        <time>1970-01-01T00:00:00Z</time>
      </trkpt>
      <trkpt lat="39.376410" lon="-5.377268">
        <ele>647.0</ele>
        <time>1970-01-01T00:00:00Z</time>
      </trkpt>
      <trkpt lat="39.376320" lon="-5.377199">
        <ele>647.7</ele>
        <time>1970-01-01T00:00:00Z</time>
      </trkpt>
      <trkpt lat="39.376320" lon="-5.377199">
        <ele>647.7</ele>
        <time>1970-01-01T00:00:00Z</time>
      </trkpt>
      <trkpt lat="39.376320" lon="-5.377199">
        <ele>647.7</ele>
        <time>1970-01-01T00:00:00Z</time>
      </trkpt>
      <trkpt lat="39.376320" lon="-5.377199">
        <ele>647.7</ele>
        <time>1970-01-01T00:00:00Z</time>
      </trkpt>
      <trkpt lat="39.376151" lon="-5.377113">
        <ele>649.5</ele>
        <time>1970-01-01T00:00:00Z</time>
      </trkpt>
      <trkpt lat="39.376151" lon="-5.377113">
        <ele>649.5</ele>
        <time>1970-01-01T00:00:00Z</time>
      </trkpt>
      <trkpt lat="39.376151" lon="-5.377113">
        <ele>649.5</ele>
        <time>1970-01-01T00:00:00Z</time>
      </trkpt>
      <trkpt lat="39.376151" lon="-5.377113">
        <ele>649.5</ele>
        <time>1970-01-01T00:00:00Z</time>
      </trkpt>
      <trkpt lat="39.376082" lon="-5.377082">
        <ele>650.3</ele>
        <time>1970-01-01T00:00:00Z</time>
      </trkpt>
      <trkpt lat="39.376082" lon="-5.377082">
        <ele>650.3</ele>
        <time>1970-01-01T00:00:00Z</time>
      </trkpt>
      <trkpt lat="39.376082" lon="-5.377082">
        <ele>650.3</ele>
        <time>1970-01-01T00:00:00Z</time>
      </trkpt>
      <trkpt lat="39.376082" lon="-5.377082">
        <ele>650.3</ele>
        <time>1970-01-01T00:00:00Z</time>
      </trkpt>
      <trkpt lat="39.375984" lon="-5.377020">
        <ele>650.8</ele>
        <time>1970-01-01T00:00:00Z</time>
      </trkpt>
      <trkpt lat="39.375984" lon="-5.377020">
        <ele>650.8</ele>
        <time>1970-01-01T00:00:00Z</time>
      </trkpt>
      <trkpt lat="39.375984" lon="-5.377020">
        <ele>650.8</ele>
        <time>1970-01-01T00:00:00Z</time>
      </trkpt>
      <trkpt lat="39.375984" lon="-5.377020">
        <ele>650.8</ele>
        <time>1970-01-01T00:00:00Z</time>
      </trkpt>
      <trkpt lat="39.375852" lon="-5.376937">
        <ele>650.8</ele>
        <time>1970-01-01T00:00:00Z</time>
      </trkpt>
      <trkpt lat="39.375852" lon="-5.376937">
        <ele>650.8</ele>
        <time>1970-01-01T00:00:00Z</time>
      </trkpt>
      <trkpt lat="39.375852" lon="-5.376937">
        <ele>650.8</ele>
        <time>1970-01-01T00:00:00Z</time>
      </trkpt>
      <trkpt lat="39.375852" lon="-5.376937">
        <ele>650.8</ele>
        <time>1970-01-01T00:00:00Z</time>
      </trkpt>
      <trkpt lat="39.375766" lon="-5.376853">
        <ele>651.0</ele>
        <time>1970-01-01T00:00:00Z</time>
      </trkpt>
      <trkpt lat="39.375766" lon="-5.376853">
        <ele>651.0</ele>
        <time>1970-01-01T00:00:00Z</time>
      </trkpt>
      <trkpt lat="39.375766" lon="-5.376853">
        <ele>651.0</ele>
        <time>1970-01-01T00:00:00Z</time>
      </trkpt>
      <trkpt lat="39.375766" lon="-5.376853">
        <ele>651.0</ele>
        <time>1970-01-01T00:00:00Z</time>
      </trkpt>
      <trkpt lat="39.375647" lon="-5.376695">
        <ele>651.2</ele>
        <time>1970-01-01T00:00:00Z</time>
      </trkpt>
      <trkpt lat="39.375647" lon="-5.376695">
        <ele>651.2</ele>
        <time>1970-01-01T00:00:00Z</time>
      </trkpt>
      <trkpt lat="39.375647" lon="-5.376695">
        <ele>651.2</ele>
        <time>1970-01-01T00:00:00Z</time>
      </trkpt>
      <trkpt lat="39.375647" lon="-5.376695">
        <ele>651.2</ele>
        <time>1970-01-01T00:00:00Z</time>
      </trkpt>
      <trkpt lat="39.375568" lon="-5.376559">
        <ele>651.5</ele>
        <time>1970-01-01T00:00:00Z</time>
      </trkpt>
      <trkpt lat="39.375568" lon="-5.376559">
        <ele>651.5</ele>
        <time>1970-01-01T00:00:00Z</time>
      </trkpt>
      <trkpt lat="39.375568" lon="-5.376559">
        <ele>651.5</ele>
        <time>1970-01-01T00:00:00Z</time>
      </trkpt>
      <trkpt lat="39.375568" lon="-5.376559">
        <ele>651.5</ele>
        <time>1970-01-01T00:00:00Z</time>
      </trkpt>
      <trkpt lat="39.375544" lon="-5.376506">
        <ele>651.4</ele>
        <time>1970-01-01T00:00:00Z</time>
      </trkpt>
      <trkpt lat="39.375544" lon="-5.376506">
        <ele>651.4</ele>
        <time>1970-01-01T00:00:00Z</time>
      </trkpt>
      <trkpt lat="39.375544" lon="-5.376506">
        <ele>651.4</ele>
        <time>1970-01-01T00:00:00Z</time>
      </trkpt>
      <trkpt lat="39.375544" lon="-5.376506">
        <ele>651.4</ele>
        <time>1970-01-01T00:00:00Z</time>
      </trkpt>
      <trkpt lat="39.375556" lon="-5.376456">
        <ele>651.1</ele>
        <time>1970-01-01T00:00:00Z</time>
      </trkpt>
      <trkpt lat="39.375556" lon="-5.376456">
        <ele>651.1</ele>
        <time>1970-01-01T00:00:00Z</time>
      </trkpt>
      <trkpt lat="39.375556" lon="-5.376456">
        <ele>651.1</ele>
        <time>1970-01-01T00:00:00Z</time>
      </trkpt>
      <trkpt lat="39.375556" lon="-5.376456">
        <ele>651.1</ele>
        <time>1970-01-01T00:00:00Z</time>
      </trkpt>
      <trkpt lat="39.375611" lon="-5.376444">
        <ele>650.4</ele>
        <time>1970-01-01T00:00:00Z</time>
      </trkpt>
      <trkpt lat="39.375611" lon="-5.376444">
        <ele>650.4</ele>
        <time>1970-01-01T00:00:00Z</time>
      </trkpt>
      <trkpt lat="39.375611" lon="-5.376444">
        <ele>650.4</ele>
        <time>1970-01-01T00:00:00Z</time>
      </trkpt>
      <trkpt lat="39.375611" lon="-5.376444">
        <ele>650.4</ele>
        <time>1970-01-01T00:00:00Z</time>
      </trkpt>
      <trkpt lat="39.375714" lon="-5.376485">
        <ele>648.9</ele>
        <time>1970-01-01T00:00:00Z</time>
      </trkpt>
      <trkpt lat="39.375714" lon="-5.376485">
        <ele>648.9</ele>
        <time>1970-01-01T00:00:00Z</time>
      </trkpt>
      <trkpt lat="39.375714" lon="-5.376485">
        <ele>648.9</ele>
        <time>1970-01-01T00:00:00Z</time>
      </trkpt>
      <trkpt lat="39.375714" lon="-5.376485">
        <ele>648.9</ele>
        <time>1970-01-01T00:00:00Z</time>
      </trkpt>
      <trkpt lat="39.375835" lon="-5.376575">
        <ele>647.6</ele>
        <time>1970-01-01T00:00:00Z</time>
      </trkpt>
      <trkpt lat="39.375835" lon="-5.376575">
        <ele>647.6</ele>
        <time>1970-01-01T00:00:00Z</time>
      </trkpt>
      <trkpt lat="39.375835" lon="-5.376575">
        <ele>647.6</ele>
        <time>1970-01-01T00:00:00Z</time>
      </trkpt>
      <trkpt lat="39.375835" lon="-5.376575">
        <ele>647.6</ele>
        <time>1970-01-01T00:00:00Z</time>
      </trkpt>
      <trkpt lat="39.375908" lon="-5.376651">
        <ele>647.0</ele>
        <time>1970-01-01T00:00:00Z</time>
      </trkpt>
      <trkpt lat="39.375908" lon="-5.376651">
        <ele>647.0</ele>
        <time>1970-01-01T00:00:00Z</time>
      </trkpt>
      <trkpt lat="39.375908" lon="-5.376651">
        <ele>647.0</ele>
        <time>1970-01-01T00:00:00Z</time>
      </trkpt>
      <trkpt lat="39.375908" lon="-5.376651">
        <ele>647.0</ele>
        <time>1970-01-01T00:00:00Z</time>
      </trkpt>
      <trkpt lat="39.376015" lon="-5.376729">
        <ele>646.0</ele>
        <time>1970-01-01T00:00:00Z</time>
      </trkpt>
      <trkpt lat="39.376015" lon="-5.376729">
        <ele>646.0</ele>
        <time>1970-01-01T00:00:00Z</time>
      </trkpt>
      <trkpt lat="39.376015" lon="-5.376729">
        <ele>646.0</ele>
        <time>1970-01-01T00:00:00Z</time>
      </trkpt>
      <trkpt lat="39.376015" lon="-5.376729">
        <ele>646.0</ele>
        <time>1970-01-01T00:00:00Z</time>
      </trkpt>
      <trkpt lat="39.376133" lon="-5.376801">
        <ele>645.1</ele>
        <time>1970-01-01T00:00:00Z</time>
      </trkpt>
      <trkpt lat="39.376133" lon="-5.376801">
        <ele>645.1</ele>
        <time>1970-01-01T00:00:00Z</time>
      </trkpt>
      <trkpt lat="39.376133" lon="-5.376801">
        <ele>645.1</ele>
        <time>1970-01-01T00:00:00Z</time>
      </trkpt>
      <trkpt lat="39.376133" lon="-5.376801">
        <ele>645.1</ele>
        <time>1970-01-01T00:00:00Z</time>
      </trkpt>
      <trkpt lat="39.376234" lon="-5.376856">
        <ele>643.9</ele>
        <time>1970-01-01T00:00:00Z</time>
      </trkpt>
      <trkpt lat="39.376234" lon="-5.376856">
        <ele>643.9</ele>
        <time>1970-01-01T00:00:00Z</time>
      </trkpt>
      <trkpt lat="39.376234" lon="-5.376856">
        <ele>643.9</ele>
        <time>1970-01-01T00:00:00Z</time>
      </trkpt>
      <trkpt lat="39.376234" lon="-5.376856">
        <ele>643.9</ele>
        <time>1970-01-01T00:00:00Z</time>
      </trkpt>
      <trkpt lat="39.376283" lon="-5.376896">
        <ele>643.4</ele>
        <time>1970-01-01T00:00:00Z</time>
      </trkpt>
      <trkpt lat="39.376283" lon="-5.376896">
        <ele>643.4</ele>
        <time>1970-01-01T00:00:00Z</time>
      </trkpt>
      <trkpt lat="39.376283" lon="-5.376896">
        <ele>643.4</ele>
        <time>1970-01-01T00:00:00Z</time>
      </trkpt>
      <trkpt lat="39.376283" lon="-5.376896">
        <ele>643.4</ele>
        <time>1970-01-01T00:00:00Z</time>
      </trkpt>
      <trkpt lat="39.376339" lon="-5.376932">
        <ele>642.5</ele>
        <time>1970-01-01T00:00:00Z</time>
      </trkpt>
      <trkpt lat="39.376339" lon="-5.376932">
        <ele>642.5</ele>
        <time>1970-01-01T00:00:00Z</time>
      </trkpt>
      <trkpt lat="39.376339" lon="-5.376932">
        <ele>642.5</ele>
        <time>1970-01-01T00:00:00Z</time>
      </trkpt>
      <trkpt lat="39.376339" lon="-5.376932">
        <ele>642.5</ele>
        <time>1970-01-01T00:00:00Z</time>
      </trkpt>
      <trkpt lat="39.376525" lon="-5.377020">
        <ele>639.5</ele>
        <time>1970-01-01T00:00:00Z</time>
      </trkpt>
      <trkpt lat="39.376525" lon="-5.377020">
        <ele>639.5</ele>
        <time>1970-01-01T00:00:00Z</time>
      </trkpt>
      <trkpt lat="39.376525" lon="-5.377020">
        <ele>639.5</ele>
        <time>1970-01-01T00:00:00Z</time>
      </trkpt>
      <trkpt lat="39.376525" lon="-5.377020">
        <ele>639.5</ele>
        <time>1970-01-01T00:00:00Z</time>
      </trkpt>
      <trkpt lat="39.376603" lon="-5.377082">
        <ele>638.2</ele>
        <time>1970-01-01T00:00:00Z</time>
      </trkpt>
      <trkpt lat="39.376603" lon="-5.377082">
        <ele>638.2</ele>
        <time>1970-01-01T00:00:00Z</time>
      </trkpt>
      <trkpt lat="39.376603" lon="-5.377082">
        <ele>638.2</ele>
        <time>1970-01-01T00:00:00Z</time>
      </trkpt>
      <trkpt lat="39.376603" lon="-5.377082">
        <ele>638.2</ele>
        <time>1970-01-01T00:00:00Z</time>
      </trkpt>
      <trkpt lat="39.376663" lon="-5.377144">
        <ele>637.4</ele>
        <time>1970-01-01T00:00:00Z</time>
      </trkpt>
      <trkpt lat="39.376663" lon="-5.377144">
        <ele>637.4</ele>
        <time>1970-01-01T00:00:00Z</time>
      </trkpt>
      <trkpt lat="39.376663" lon="-5.377144">
        <ele>637.4</ele>
        <time>1970-01-01T00:00:00Z</time>
      </trkpt>
      <trkpt lat="39.376663" lon="-5.377144">
        <ele>637.4</ele>
        <time>1970-01-01T00:00:00Z</time>
      </trkpt>
      <trkpt lat="39.376786" lon="-5.377315">
        <ele>636.6</ele>
        <time>1970-01-01T00:00:00Z</time>
      </trkpt>
      <trkpt lat="39.376786" lon="-5.377315">
        <ele>636.6</ele>
        <time>1970-01-01T00:00:00Z</time>
      </trkpt>
      <trkpt lat="39.376786" lon="-5.377315">
        <ele>636.6</ele>
        <time>1970-01-01T00:00:00Z</time>
      </trkpt>
      <trkpt lat="39.376786" lon="-5.377315">
        <ele>636.6</ele>
        <time>1970-01-01T00:00:00Z</time>
      </trkpt>
      <trkpt lat="39.376976" lon="-5.377614">
        <ele>634.7</ele>
        <time>1970-01-01T00:00:00Z</time>
      </trkpt>
      <trkpt lat="39.376976" lon="-5.377614">
        <ele>634.7</ele>
        <time>1970-01-01T00:00:00Z</time>
      </trkpt>
      <trkpt lat="39.376976" lon="-5.377614">
        <ele>634.7</ele>
        <time>1970-01-01T00:00:00Z</time>
      </trkpt>
      <trkpt lat="39.376976" lon="-5.377614">
        <ele>634.7</ele>
        <time>1970-01-01T00:00:00Z</time>
      </trkpt>
      <trkpt lat="39.377056" lon="-5.377717">
        <ele>633.8</ele>
        <time>1970-01-01T00:00:00Z</time>
      </trkpt>
      <trkpt lat="39.377056" lon="-5.377717">
        <ele>633.8</ele>
        <time>1970-01-01T00:00:00Z</time>
      </trkpt>
      <trkpt lat="39.377056" lon="-5.377717">
        <ele>633.8</ele>
        <time>1970-01-01T00:00:00Z</time>
      </trkpt>
      <trkpt lat="39.377056" lon="-5.377717">
        <ele>633.8</ele>
        <time>1970-01-01T00:00:00Z</time>
      </trkpt>
      <trkpt lat="39.377188" lon="-5.377890">
        <ele>632.4</ele>
        <time>1970-01-01T00:00:00Z</time>
      </trkpt>
      <trkpt lat="39.377188" lon="-5.377890">
        <ele>632.4</ele>
        <time>1970-01-01T00:00:00Z</time>
      </trkpt>
      <trkpt lat="39.377188" lon="-5.377890">
        <ele>632.4</ele>
        <time>1970-01-01T00:00:00Z</time>
      </trkpt>
      <trkpt lat="39.377188" lon="-5.377890">
        <ele>632.4</ele>
        <time>1970-01-01T00:00:00Z</time>
      </trkpt>
      <trkpt lat="39.377299" lon="-5.378057">
        <ele>632.1</ele>
        <time>1970-01-01T00:00:00Z</time>
      </trkpt>
      <trkpt lat="39.377299" lon="-5.378057">
        <ele>632.1</ele>
        <time>1970-01-01T00:00:00Z</time>
      </trkpt>
      <trkpt lat="39.377299" lon="-5.378057">
        <ele>632.1</ele>
        <time>1970-01-01T00:00:00Z</time>
      </trkpt>
      <trkpt lat="39.377299" lon="-5.378057">
        <ele>632.1</ele>
        <time>1970-01-01T00:00:00Z</time>
      </trkpt>
      <trkpt lat="39.377359" lon="-5.378202">
        <ele>633.4</ele>
        <time>1970-01-01T00:00:00Z</time>
      </trkpt>
      <trkpt lat="39.377359" lon="-5.378202">
        <ele>633.4</ele>
        <time>1970-01-01T00:00:00Z</time>
      </trkpt>
      <trkpt lat="39.377359" lon="-5.378202">
        <ele>633.4</ele>
        <time>1970-01-01T00:00:00Z</time>
      </trkpt>
      <trkpt lat="39.377359" lon="-5.378202">
        <ele>633.4</ele>
        <time>1970-01-01T00:00:00Z</time>
      </trkpt>
      <trkpt lat="39.377434" lon="-5.378325">
        <ele>634.2</ele>
        <time>1970-01-01T00:00:00Z</time>
      </trkpt>
      <trkpt lat="39.377434" lon="-5.378325">
        <ele>634.2</ele>
        <time>1970-01-01T00:00:00Z</time>
      </trkpt>
      <trkpt lat="39.377434" lon="-5.378325">
        <ele>634.2</ele>
        <time>1970-01-01T00:00:00Z</time>
      </trkpt>
      <trkpt lat="39.377434" lon="-5.378325">
        <ele>634.2</ele>
        <time>1970-01-01T00:00:00Z</time>
      </trkpt>
      <trkpt lat="39.377503" lon="-5.378398">
        <ele>633.1</ele>
        <time>1970-01-01T00:00:00Z</time>
      </trkpt>
      <trkpt lat="39.377503" lon="-5.378398">
        <ele>633.1</ele>
        <time>1970-01-01T00:00:00Z</time>
      </trkpt>
      <trkpt lat="39.377503" lon="-5.378398">
        <ele>633.1</ele>
        <time>1970-01-01T00:00:00Z</time>
      </trkpt>
      <trkpt lat="39.377503" lon="-5.378398">
        <ele>633.1</ele>
        <time>1970-01-01T00:00:00Z</time>
      </trkpt>
      <trkpt lat="39.377548" lon="-5.378437">
        <ele>632.2</ele>
        <time>1970-01-01T00:00:00Z</time>
      </trkpt>
      <trkpt lat="39.377548" lon="-5.378437">
        <ele>632.2</ele>
        <time>1970-01-01T00:00:00Z</time>
      </trkpt>
      <trkpt lat="39.377548" lon="-5.378437">
        <ele>632.2</ele>
        <time>1970-01-01T00:00:00Z</time>
      </trkpt>
      <trkpt lat="39.377548" lon="-5.378437">
        <ele>632.2</ele>
        <time>1970-01-01T00:00:00Z</time>
      </trkpt>
      <trkpt lat="39.377657" lon="-5.378519">
        <ele>629.7</ele>
        <time>1970-01-01T00:00:00Z</time>
      </trkpt>
      <trkpt lat="39.377657" lon="-5.378519">
        <ele>629.7</ele>
        <time>1970-01-01T00:00:00Z</time>
      </trkpt>
      <trkpt lat="39.377657" lon="-5.378519">
        <ele>629.7</ele>
        <time>1970-01-01T00:00:00Z</time>
      </trkpt>
      <trkpt lat="39.377657" lon="-5.378519">
        <ele>629.7</ele>
        <time>1970-01-01T00:00:00Z</time>
      </trkpt>
      <trkpt lat="39.377737" lon="-5.378620">
        <ele>629.0</ele>
        <time>1970-01-01T00:00:00Z</time>
      </trkpt>
      <trkpt lat="39.377737" lon="-5.378620">
        <ele>629.0</ele>
        <time>1970-01-01T00:00:00Z</time>
      </trkpt>
      <trkpt lat="39.377737" lon="-5.378620">
        <ele>629.0</ele>
        <time>1970-01-01T00:00:00Z</time>
      </trkpt>
      <trkpt lat="39.377737" lon="-5.378620">
        <ele>629.0</ele>
        <time>1970-01-01T00:00:00Z</time>
      </trkpt>
      <trkpt lat="39.377778" lon="-5.378690">
        <ele>628.9</ele>
        <time>1970-01-01T00:00:00Z</time>
      </trkpt>
      <trkpt lat="39.377778" lon="-5.378690">
        <ele>628.9</ele>
        <time>1970-01-01T00:00:00Z</time>
      </trkpt>
      <trkpt lat="39.377778" lon="-5.378690">
        <ele>628.9</ele>
        <time>1970-01-01T00:00:00Z</time>
      </trkpt>
      <trkpt lat="39.377778" lon="-5.378690">
        <ele>628.9</ele>
        <time>1970-01-01T00:00:00Z</time>
      </trkpt>
      <trkpt lat="39.377822" lon="-5.378778">
        <ele>628.9</ele>
        <time>1970-01-01T00:00:00Z</time>
      </trkpt>
      <trkpt lat="39.377822" lon="-5.378778">
        <ele>628.9</ele>
        <time>1970-01-01T00:00:00Z</time>
      </trkpt>
      <trkpt lat="39.377822" lon="-5.378778">
        <ele>628.9</ele>
        <time>1970-01-01T00:00:00Z</time>
      </trkpt>
      <trkpt lat="39.377822" lon="-5.378778">
        <ele>628.9</ele>
        <time>1970-01-01T00:00:00Z</time>
      </trkpt>
      <trkpt lat="39.377867" lon="-5.378858">
        <ele>628.6</ele>
        <time>1970-01-01T00:00:00Z</time>
      </trkpt>
      <trkpt lat="39.377867" lon="-5.378858">
        <ele>628.6</ele>
        <time>1970-01-01T00:00:00Z</time>
      </trkpt>
      <trkpt lat="39.377867" lon="-5.378858">
        <ele>628.6</ele>
        <time>1970-01-01T00:00:00Z</time>
      </trkpt>
      <trkpt lat="39.377867" lon="-5.378858">
        <ele>628.6</ele>
        <time>1970-01-01T00:00:00Z</time>
      </trkpt>
      <trkpt lat="39.377975" lon="-5.378947">
        <ele>625.6</ele>
        <time>1970-01-01T00:00:00Z</time>
      </trkpt>
      <trkpt lat="39.377975" lon="-5.378947">
        <ele>625.6</ele>
        <time>1970-01-01T00:00:00Z</time>
      </trkpt>
      <trkpt lat="39.377975" lon="-5.378947">
        <ele>625.6</ele>
        <time>1970-01-01T00:00:00Z</time>
      </trkpt>
      <trkpt lat="39.377975" lon="-5.378947">
        <ele>625.6</ele>
        <time>1970-01-01T00:00:00Z</time>
      </trkpt>
      <trkpt lat="39.378115" lon="-5.379075">
        <ele>622.0</ele>
        <time>1970-01-01T00:00:00Z</time>
      </trkpt>
      <trkpt lat="39.378115" lon="-5.379075">
        <ele>622.0</ele>
        <time>1970-01-01T00:00:00Z</time>
      </trkpt>
      <trkpt lat="39.378115" lon="-5.379075">
        <ele>622.0</ele>
        <time>1970-01-01T00:00:00Z</time>
      </trkpt>
      <trkpt lat="39.378115" lon="-5.379075">
        <ele>622.0</ele>
        <time>1970-01-01T00:00:00Z</time>
      </trkpt>
      <trkpt lat="39.378173" lon="-5.379151">
        <ele>621.1</ele>
        <time>1970-01-01T00:00:00Z</time>
      </trkpt>
      <trkpt lat="39.378173" lon="-5.379151">
        <ele>621.1</ele>
        <time>1970-01-01T00:00:00Z</time>
      </trkpt>
      <trkpt lat="39.378173" lon="-5.379151">
        <ele>621.1</ele>
        <time>1970-01-01T00:00:00Z</time>
      </trkpt>
      <trkpt lat="39.378173" lon="-5.379151">
        <ele>621.1</ele>
        <time>1970-01-01T00:00:00Z</time>
      </trkpt>
      <trkpt lat="39.378236" lon="-5.379243">
        <ele>620.4</ele>
        <time>1970-01-01T00:00:00Z</time>
      </trkpt>
      <trkpt lat="39.378236" lon="-5.379243">
        <ele>620.4</ele>
        <time>1970-01-01T00:00:00Z</time>
      </trkpt>
      <trkpt lat="39.378236" lon="-5.379243">
        <ele>620.4</ele>
        <time>1970-01-01T00:00:00Z</time>
      </trkpt>
      <trkpt lat="39.378236" lon="-5.379243">
        <ele>620.4</ele>
        <time>1970-01-01T00:00:00Z</time>
      </trkpt>
      <trkpt lat="39.378374" lon="-5.379369">
        <ele>617.2</ele>
        <time>1970-01-01T00:00:00Z</time>
      </trkpt>
      <trkpt lat="39.378374" lon="-5.379369">
        <ele>617.2</ele>
        <time>1970-01-01T00:00:00Z</time>
      </trkpt>
      <trkpt lat="39.378374" lon="-5.379369">
        <ele>617.2</ele>
        <time>1970-01-01T00:00:00Z</time>
      </trkpt>
      <trkpt lat="39.378374" lon="-5.379369">
        <ele>617.2</ele>
        <time>1970-01-01T00:00:00Z</time>
      </trkpt>
      <trkpt lat="39.378480" lon="-5.379474">
        <ele>615.3</ele>
        <time>1970-01-01T00:00:00Z</time>
      </trkpt>
      <trkpt lat="39.378480" lon="-5.379474">
        <ele>615.3</ele>
        <time>1970-01-01T00:00:00Z</time>
      </trkpt>
      <trkpt lat="39.378480" lon="-5.379474">
        <ele>615.3</ele>
        <time>1970-01-01T00:00:00Z</time>
      </trkpt>
      <trkpt lat="39.378480" lon="-5.379474">
        <ele>615.3</ele>
        <time>1970-01-01T00:00:00Z</time>
      </trkpt>
      <trkpt lat="39.378520" lon="-5.379523">
        <ele>614.8</ele>
        <time>1970-01-01T00:00:00Z</time>
      </trkpt>
      <trkpt lat="39.378520" lon="-5.379523">
        <ele>614.8</ele>
        <time>1970-01-01T00:00:00Z</time>
      </trkpt>
      <trkpt lat="39.378520" lon="-5.379523">
        <ele>614.8</ele>
        <time>1970-01-01T00:00:00Z</time>
      </trkpt>
      <trkpt lat="39.378520" lon="-5.379523">
        <ele>614.8</ele>
        <time>1970-01-01T00:00:00Z</time>
      </trkpt>
      <trkpt lat="39.378550" lon="-5.379546">
        <ele>614.2</ele>
        <time>1970-01-01T00:00:00Z</time>
      </trkpt>
      <trkpt lat="39.378550" lon="-5.379546">
        <ele>614.2</ele>
        <time>1970-01-01T00:00:00Z</time>
      </trkpt>
      <trkpt lat="39.378550" lon="-5.379546">
        <ele>614.2</ele>
        <time>1970-01-01T00:00:00Z</time>
      </trkpt>
      <trkpt lat="39.378550" lon="-5.379546">
        <ele>614.2</ele>
        <time>1970-01-01T00:00:00Z</time>
      </trkpt>
      <trkpt lat="39.378564" lon="-5.379512">
        <ele>612.9</ele>
        <time>1970-01-01T00:00:00Z</time>
      </trkpt>
      <trkpt lat="39.378564" lon="-5.379512">
        <ele>612.9</ele>
        <time>1970-01-01T00:00:00Z</time>
      </trkpt>
      <trkpt lat="39.378564" lon="-5.379512">
        <ele>612.9</ele>
        <time>1970-01-01T00:00:00Z</time>
      </trkpt>
      <trkpt lat="39.378564" lon="-5.379512">
        <ele>612.9</ele>
        <time>1970-01-01T00:00:00Z</time>
      </trkpt>
      <trkpt lat="39.378560" lon="-5.379460">
        <ele>611.9</ele>
        <time>1970-01-01T00:00:00Z</time>
      </trkpt>
      <trkpt lat="39.378560" lon="-5.379460">
        <ele>611.9</ele>
        <time>1970-01-01T00:00:00Z</time>
      </trkpt>
      <trkpt lat="39.378560" lon="-5.379460">
        <ele>611.9</ele>
        <time>1970-01-01T00:00:00Z</time>
      </trkpt>
      <trkpt lat="39.378560" lon="-5.379460">
        <ele>611.9</ele>
        <time>1970-01-01T00:00:00Z</time>
      </trkpt>
      <trkpt lat="39.378447" lon="-5.379285">
        <ele>612.5</ele>
        <time>1970-01-01T00:00:00Z</time>
      </trkpt>
      <trkpt lat="39.378447" lon="-5.379285">
        <ele>612.5</ele>
        <time>1970-01-01T00:00:00Z</time>
      </trkpt>
      <trkpt lat="39.378447" lon="-5.379285">
        <ele>612.5</ele>
        <time>1970-01-01T00:00:00Z</time>
      </trkpt>
      <trkpt lat="39.378447" lon="-5.379285">
        <ele>612.5</ele>
        <time>1970-01-01T00:00:00Z</time>
      </trkpt>
      <trkpt lat="39.378295" lon="-5.379101">
        <ele>614.8</ele>
        <time>1970-01-01T00:00:00Z</time>
      </trkpt>
      <trkpt lat="39.378295" lon="-5.379101">
        <ele>614.8</ele>
        <time>1970-01-01T00:00:00Z</time>
      </trkpt>
      <trkpt lat="39.378295" lon="-5.379101">
        <ele>614.8</ele>
        <time>1970-01-01T00:00:00Z</time>
      </trkpt>
      <trkpt lat="39.378295" lon="-5.379101">
        <ele>614.8</ele>
        <time>1970-01-01T00:00:00Z</time>
      </trkpt>
      <trkpt lat="39.378245" lon="-5.379031">
        <ele>615.4</ele>
        <time>1970-01-01T00:00:00Z</time>
      </trkpt>
      <trkpt lat="39.378245" lon="-5.379031">
        <ele>615.4</ele>
        <time>1970-01-01T00:00:00Z</time>
      </trkpt>
      <trkpt lat="39.378245" lon="-5.379031">
        <ele>615.4</ele>
        <time>1970-01-01T00:00:00Z</time>
      </trkpt>
      <trkpt lat="39.378245" lon="-5.379031">
        <ele>615.4</ele>
        <time>1970-01-01T00:00:00Z</time>
      </trkpt>
      <trkpt lat="39.378192" lon="-5.378927">
        <ele>615.7</ele>
        <time>1970-01-01T00:00:00Z</time>
      </trkpt>
      <trkpt lat="39.378192" lon="-5.378927">
        <ele>615.7</ele>
        <time>1970-01-01T00:00:00Z</time>
      </trkpt>
      <trkpt lat="39.378192" lon="-5.378927">
        <ele>615.7</ele>
        <time>1970-01-01T00:00:00Z</time>
      </trkpt>
      <trkpt lat="39.378192" lon="-5.378927">
        <ele>615.7</ele>
        <time>1970-01-01T00:00:00Z</time>
      </trkpt>
      <trkpt lat="39.378124" lon="-5.378827">
        <ele>617.0</ele>
        <time>1970-01-01T00:00:00Z</time>
      </trkpt>
      <trkpt lat="39.378124" lon="-5.378827">
        <ele>617.0</ele>
        <time>1970-01-01T00:00:00Z</time>
      </trkpt>
      <trkpt lat="39.378124" lon="-5.378827">
        <ele>617.0</ele>
        <time>1970-01-01T00:00:00Z</time>
      </trkpt>
      <trkpt lat="39.378124" lon="-5.378827">
        <ele>617.0</ele>
        <time>1970-01-01T00:00:00Z</time>
      </trkpt>
      <trkpt lat="39.378073" lon="-5.378714">
        <ele>617.3</ele>
        <time>1970-01-01T00:00:00Z</time>
      </trkpt>
      <trkpt lat="39.378073" lon="-5.378714">
        <ele>617.3</ele>
        <time>1970-01-01T00:00:00Z</time>
      </trkpt>
      <trkpt lat="39.378073" lon="-5.378714">
        <ele>617.3</ele>
        <time>1970-01-01T00:00:00Z</time>
      </trkpt>
      <trkpt lat="39.378073" lon="-5.378714">
        <ele>617.3</ele>
        <time>1970-01-01T00:00:00Z</time>
      </trkpt>
      <trkpt lat="39.378046" lon="-5.378637">
        <ele>617.1</ele>
        <time>1970-01-01T00:00:00Z</time>
      </trkpt>
      <trkpt lat="39.378046" lon="-5.378637">
        <ele>617.1</ele>
        <time>1970-01-01T00:00:00Z</time>
      </trkpt>
      <trkpt lat="39.378046" lon="-5.378637">
        <ele>617.1</ele>
        <time>1970-01-01T00:00:00Z</time>
      </trkpt>
      <trkpt lat="39.378046" lon="-5.378637">
        <ele>617.1</ele>
        <time>1970-01-01T00:00:00Z</time>
      </trkpt>
      <trkpt lat="39.378016" lon="-5.378557">
        <ele>617.1</ele>
        <time>1970-01-01T00:00:00Z</time>
      </trkpt>
      <trkpt lat="39.378016" lon="-5.378557">
        <ele>617.1</ele>
        <time>1970-01-01T00:00:00Z</time>
      </trkpt>
      <trkpt lat="39.378016" lon="-5.378557">
        <ele>617.1</ele>
        <time>1970-01-01T00:00:00Z</time>
      </trkpt>
      <trkpt lat="39.378016" lon="-5.378557">
        <ele>617.1</ele>
        <time>1970-01-01T00:00:00Z</time>
      </trkpt>
      <trkpt lat="39.377982" lon="-5.378432">
        <ele>615.3</ele>
        <time>1970-01-01T00:00:00Z</time>
      </trkpt>
      <trkpt lat="39.377982" lon="-5.378432">
        <ele>615.3</ele>
        <time>1970-01-01T00:00:00Z</time>
      </trkpt>
      <trkpt lat="39.377982" lon="-5.378432">
        <ele>615.3</ele>
        <time>1970-01-01T00:00:00Z</time>
      </trkpt>
      <trkpt lat="39.377982" lon="-5.378432">
        <ele>615.3</ele>
        <time>1970-01-01T00:00:00Z</time>
      </trkpt>
      <trkpt lat="39.377936" lon="-5.378320">
        <ele>614.4</ele>
        <time>1970-01-01T00:00:00Z</time>
      </trkpt>
      <trkpt lat="39.377936" lon="-5.378320">
        <ele>614.4</ele>
        <time>1970-01-01T00:00:00Z</time>
      </trkpt>
      <trkpt lat="39.377936" lon="-5.378320">
        <ele>614.4</ele>
        <time>1970-01-01T00:00:00Z</time>
      </trkpt>
      <trkpt lat="39.377936" lon="-5.378320">
        <ele>614.4</ele>
        <time>1970-01-01T00:00:00Z</time>
      </trkpt>
      <trkpt lat="39.377886" lon="-5.378140">
        <ele>612.6</ele>
        <time>1970-01-01T00:00:00Z</time>
      </trkpt>
      <trkpt lat="39.377886" lon="-5.378140">
        <ele>612.6</ele>
        <time>1970-01-01T00:00:00Z</time>
      </trkpt>
      <trkpt lat="39.377886" lon="-5.378140">
        <ele>612.6</ele>
        <time>1970-01-01T00:00:00Z</time>
      </trkpt>
      <trkpt lat="39.377886" lon="-5.378140">
        <ele>612.6</ele>
        <time>1970-01-01T00:00:00Z</time>
      </trkpt>
      <trkpt lat="39.377842" lon="-5.377985">
        <ele>610.3</ele>
        <time>1970-01-01T00:00:00Z</time>
      </trkpt>
      <trkpt lat="39.377842" lon="-5.377985">
        <ele>610.3</ele>
        <time>1970-01-01T00:00:00Z</time>
      </trkpt>
      <trkpt lat="39.377842" lon="-5.377985">
        <ele>610.3</ele>
        <time>1970-01-01T00:00:00Z</time>
      </trkpt>
      <trkpt lat="39.377842" lon="-5.377985">
        <ele>610.3</ele>
        <time>1970-01-01T00:00:00Z</time>
      </trkpt>
      <trkpt lat="39.377806" lon="-5.377808">
        <ele>607.0</ele>
        <time>1970-01-01T00:00:00Z</time>
      </trkpt>
      <trkpt lat="39.377806" lon="-5.377808">
        <ele>607.0</ele>
        <time>1970-01-01T00:00:00Z</time>
      </trkpt>
      <trkpt lat="39.377806" lon="-5.377808">
        <ele>607.0</ele>
        <time>1970-01-01T00:00:00Z</time>
      </trkpt>
      <trkpt lat="39.377806" lon="-5.377808">
        <ele>607.0</ele>
        <time>1970-01-01T00:00:00Z</time>
      </trkpt>
      <trkpt lat="39.377778" lon="-5.377648">
        <ele>603.9</ele>
        <time>1970-01-01T00:00:00Z</time>
      </trkpt>
      <trkpt lat="39.377778" lon="-5.377648">
        <ele>603.9</ele>
        <time>1970-01-01T00:00:00Z</time>
      </trkpt>
      <trkpt lat="39.377778" lon="-5.377648">
        <ele>603.9</ele>
        <time>1970-01-01T00:00:00Z</time>
      </trkpt>
      <trkpt lat="39.377778" lon="-5.377648">
        <ele>603.9</ele>
        <time>1970-01-01T00:00:00Z</time>
      </trkpt>
      <trkpt lat="39.377765" lon="-5.377520">
        <ele>600.9</ele>
        <time>1970-01-01T00:00:00Z</time>
      </trkpt>
      <trkpt lat="39.377765" lon="-5.377520">
        <ele>600.9</ele>
        <time>1970-01-01T00:00:00Z</time>
      </trkpt>
      <trkpt lat="39.377765" lon="-5.377520">
        <ele>600.9</ele>
        <time>1970-01-01T00:00:00Z</time>
      </trkpt>
      <trkpt lat="39.377765" lon="-5.377520">
        <ele>600.9</ele>
        <time>1970-01-01T00:00:00Z</time>
      </trkpt>
      <trkpt lat="39.377766" lon="-5.377429">
        <ele>598.3</ele>
        <time>1970-01-01T00:00:00Z</time>
      </trkpt>
      <trkpt lat="39.377766" lon="-5.377429">
        <ele>598.3</ele>
        <time>1970-01-01T00:00:00Z</time>
      </trkpt>
      <trkpt lat="39.377766" lon="-5.377429">
        <ele>598.3</ele>
        <time>1970-01-01T00:00:00Z</time>
      </trkpt>
      <trkpt lat="39.377766" lon="-5.377429">
        <ele>598.3</ele>
        <time>1970-01-01T00:00:00Z</time>
      </trkpt>
      <trkpt lat="39.377771" lon="-5.377377">
        <ele>596.7</ele>
        <time>1970-01-01T00:00:00Z</time>
      </trkpt>
      <trkpt lat="39.377771" lon="-5.377377">
        <ele>596.7</ele>
        <time>1970-01-01T00:00:00Z</time>
      </trkpt>
      <trkpt lat="39.377771" lon="-5.377377">
        <ele>596.7</ele>
        <time>1970-01-01T00:00:00Z</time>
      </trkpt>
      <trkpt lat="39.377771" lon="-5.377377">
        <ele>596.7</ele>
        <time>1970-01-01T00:00:00Z</time>
      </trkpt>
      <trkpt lat="39.377805" lon="-5.377290">
        <ele>593.0</ele>
        <time>1970-01-01T00:00:00Z</time>
      </trkpt>
      <trkpt lat="39.377805" lon="-5.377290">
        <ele>593.0</ele>
        <time>1970-01-01T00:00:00Z</time>
      </trkpt>
      <trkpt lat="39.377805" lon="-5.377290">
        <ele>593.0</ele>
        <time>1970-01-01T00:00:00Z</time>
      </trkpt>
      <trkpt lat="39.377805" lon="-5.377290">
        <ele>593.0</ele>
        <time>1970-01-01T00:00:00Z</time>
      </trkpt>
      <trkpt lat="39.377852" lon="-5.377218">
        <ele>588.8</ele>
        <time>1970-01-01T00:00:00Z</time>
      </trkpt>
      <trkpt lat="39.377852" lon="-5.377218">
        <ele>588.8</ele>
        <time>1970-01-01T00:00:00Z</time>
      </trkpt>
      <trkpt lat="39.377852" lon="-5.377218">
        <ele>588.8</ele>
        <time>1970-01-01T00:00:00Z</time>
      </trkpt>
      <trkpt lat="39.377852" lon="-5.377218">
        <ele>588.8</ele>
        <time>1970-01-01T00:00:00Z</time>
      </trkpt>
      <trkpt lat="39.377916" lon="-5.377181">
        <ele>584.6</ele>
        <time>1970-01-01T00:00:00Z</time>
      </trkpt>
      <trkpt lat="39.377916" lon="-5.377181">
        <ele>584.6</ele>
        <time>1970-01-01T00:00:00Z</time>
      </trkpt>
      <trkpt lat="39.377916" lon="-5.377181">
        <ele>584.6</ele>
        <time>1970-01-01T00:00:00Z</time>
      </trkpt>
      <trkpt lat="39.377916" lon="-5.377181">
        <ele>584.6</ele>
        <time>1970-01-01T00:00:00Z</time>
      </trkpt>
      <trkpt lat="39.377958" lon="-5.377175">
        <ele>582.3</ele>
        <time>1970-01-01T00:00:00Z</time>
      </trkpt>
      <trkpt lat="39.377958" lon="-5.377175">
        <ele>582.3</ele>
        <time>1970-01-01T00:00:00Z</time>
      </trkpt>
      <trkpt lat="39.377958" lon="-5.377175">
        <ele>582.3</ele>
        <time>1970-01-01T00:00:00Z</time>
      </trkpt>
      <trkpt lat="39.377958" lon="-5.377175">
        <ele>582.3</ele>
        <time>1970-01-01T00:00:00Z</time>
      </trkpt>
      <trkpt lat="39.377989" lon="-5.377215">
        <ele>581.7</ele>
        <time>1970-01-01T00:00:00Z</time>
      </trkpt>
      <trkpt lat="39.377989" lon="-5.377215">
        <ele>581.7</ele>
        <time>1970-01-01T00:00:00Z</time>
      </trkpt>
      <trkpt lat="39.377989" lon="-5.377215">
        <ele>581.7</ele>
        <time>1970-01-01T00:00:00Z</time>
      </trkpt>
      <trkpt lat="39.377989" lon="-5.377215">
        <ele>581.7</ele>
        <time>1970-01-01T00:00:00Z</time>
      </trkpt>
      <trkpt lat="39.378001" lon="-5.377297">
        <ele>583.2</ele>
        <time>1970-01-01T00:00:00Z</time>
      </trkpt>
      <trkpt lat="39.378001" lon="-5.377297">
        <ele>583.2</ele>
        <time>1970-01-01T00:00:00Z</time>
      </trkpt>
      <trkpt lat="39.378001" lon="-5.377297">
        <ele>583.2</ele>
        <time>1970-01-01T00:00:00Z</time>
      </trkpt>
      <trkpt lat="39.378001" lon="-5.377297">
        <ele>583.2</ele>
        <time>1970-01-01T00:00:00Z</time>
      </trkpt>
      <trkpt lat="39.378020" lon="-5.377413">
        <ele>585.2</ele>
        <time>1970-01-01T00:00:00Z</time>
      </trkpt>
      <trkpt lat="39.378020" lon="-5.377413">
        <ele>585.2</ele>
        <time>1970-01-01T00:00:00Z</time>
      </trkpt>
      <trkpt lat="39.378020" lon="-5.377413">
        <ele>585.2</ele>
        <time>1970-01-01T00:00:00Z</time>
      </trkpt>
      <trkpt lat="39.378020" lon="-5.377413">
        <ele>585.2</ele>
        <time>1970-01-01T00:00:00Z</time>
      </trkpt>
      <trkpt lat="39.378054" lon="-5.377517">
        <ele>586.2</ele>
        <time>1970-01-01T00:00:00Z</time>
      </trkpt>
      <trkpt lat="39.378054" lon="-5.377517">
        <ele>586.2</ele>
        <time>1970-01-01T00:00:00Z</time>
      </trkpt>
      <trkpt lat="39.378054" lon="-5.377517">
        <ele>586.2</ele>
        <time>1970-01-01T00:00:00Z</time>
      </trkpt>
      <trkpt lat="39.378054" lon="-5.377517">
        <ele>586.2</ele>
        <time>1970-01-01T00:00:00Z</time>
      </trkpt>
      <trkpt lat="39.378111" lon="-5.377601">
        <ele>585.4</ele>
        <time>1970-01-01T00:00:00Z</time>
      </trkpt>
      <trkpt lat="39.378111" lon="-5.377601">
        <ele>585.4</ele>
        <time>1970-01-01T00:00:00Z</time>
      </trkpt>
      <trkpt lat="39.378111" lon="-5.377601">
        <ele>585.4</ele>
        <time>1970-01-01T00:00:00Z</time>
      </trkpt>
      <trkpt lat="39.378111" lon="-5.377601">
        <ele>585.4</ele>
        <time>1970-01-01T00:00:00Z</time>
      </trkpt>
      <trkpt lat="39.378242" lon="-5.377713">
        <ele>582.4</ele>
        <time>1970-01-01T00:00:00Z</time>
      </trkpt>
      <trkpt lat="39.378242" lon="-5.377713">
        <ele>582.4</ele>
        <time>1970-01-01T00:00:00Z</time>
      </trkpt>
      <trkpt lat="39.378242" lon="-5.377713">
        <ele>582.4</ele>
        <time>1970-01-01T00:00:00Z</time>
      </trkpt>
      <trkpt lat="39.378242" lon="-5.377713">
        <ele>582.4</ele>
        <time>1970-01-01T00:00:00Z</time>
      </trkpt>
      <trkpt lat="39.378342" lon="-5.377797">
        <ele>580.1</ele>
        <time>1970-01-01T00:00:00Z</time>
      </trkpt>
      <trkpt lat="39.378342" lon="-5.377797">
        <ele>580.1</ele>
        <time>1970-01-01T00:00:00Z</time>
      </trkpt>
      <trkpt lat="39.378342" lon="-5.377797">
        <ele>580.1</ele>
        <time>1970-01-01T00:00:00Z</time>
      </trkpt>
      <trkpt lat="39.378342" lon="-5.377797">
        <ele>580.1</ele>
        <time>1970-01-01T00:00:00Z</time>
      </trkpt>
      <trkpt lat="39.378437" lon="-5.377899">
        <ele>579.0</ele>
        <time>1970-01-01T00:00:00Z</time>
      </trkpt>
      <trkpt lat="39.378437" lon="-5.377899">
        <ele>579.0</ele>
        <time>1970-01-01T00:00:00Z</time>
      </trkpt>
      <trkpt lat="39.378437" lon="-5.377899">
        <ele>579.0</ele>
        <time>1970-01-01T00:00:00Z</time>
      </trkpt>
      <trkpt lat="39.378437" lon="-5.377899">
        <ele>579.0</ele>
        <time>1970-01-01T00:00:00Z</time>
      </trkpt>
      <trkpt lat="39.378522" lon="-5.378012">
        <ele>578.8</ele>
        <time>1970-01-01T00:00:00Z</time>
      </trkpt>
      <trkpt lat="39.378522" lon="-5.378012">
        <ele>578.8</ele>
        <time>1970-01-01T00:00:00Z</time>
      </trkpt>
      <trkpt lat="39.378522" lon="-5.378012">
        <ele>578.8</ele>
        <time>1970-01-01T00:00:00Z</time>
      </trkpt>
      <trkpt lat="39.378522" lon="-5.378012">
        <ele>578.8</ele>
        <time>1970-01-01T00:00:00Z</time>
      </trkpt>
      <trkpt lat="39.378640" lon="-5.378136">
        <ele>577.6</ele>
        <time>1970-01-01T00:00:00Z</time>
      </trkpt>
      <trkpt lat="39.378640" lon="-5.378136">
        <ele>577.6</ele>
        <time>1970-01-01T00:00:00Z</time>
      </trkpt>
      <trkpt lat="39.378640" lon="-5.378136">
        <ele>577.6</ele>
        <time>1970-01-01T00:00:00Z</time>
      </trkpt>
      <trkpt lat="39.378640" lon="-5.378136">
        <ele>577.6</ele>
        <time>1970-01-01T00:00:00Z</time>
      </trkpt>
      <trkpt lat="39.378765" lon="-5.378271">
        <ele>576.8</ele>
        <time>1970-01-01T00:00:00Z</time>
      </trkpt>
      <trkpt lat="39.378765" lon="-5.378271">
        <ele>576.8</ele>
        <time>1970-01-01T00:00:00Z</time>
      </trkpt>
      <trkpt lat="39.378765" lon="-5.378271">
        <ele>576.8</ele>
        <time>1970-01-01T00:00:00Z</time>
      </trkpt>
      <trkpt lat="39.378765" lon="-5.378271">
        <ele>576.8</ele>
        <time>1970-01-01T00:00:00Z</time>
      </trkpt>
      <trkpt lat="39.378890" lon="-5.378341">
        <ele>574.3</ele>
        <time>1970-01-01T00:00:00Z</time>
      </trkpt>
      <trkpt lat="39.378890" lon="-5.378341">
        <ele>574.3</ele>
        <time>1970-01-01T00:00:00Z</time>
      </trkpt>
      <trkpt lat="39.378890" lon="-5.378341">
        <ele>574.3</ele>
        <time>1970-01-01T00:00:00Z</time>
      </trkpt>
      <trkpt lat="39.378890" lon="-5.378341">
        <ele>574.3</ele>
        <time>1970-01-01T00:00:00Z</time>
      </trkpt>
      <trkpt lat="39.379071" lon="-5.378461">
        <ele>570.5</ele>
        <time>1970-01-01T00:00:00Z</time>
      </trkpt>
      <trkpt lat="39.379071" lon="-5.378461">
        <ele>570.5</ele>
        <time>1970-01-01T00:00:00Z</time>
      </trkpt>
      <trkpt lat="39.379071" lon="-5.378461">
        <ele>570.5</ele>
        <time>1970-01-01T00:00:00Z</time>
      </trkpt>
      <trkpt lat="39.379071" lon="-5.378461">
        <ele>570.5</ele>
        <time>1970-01-01T00:00:00Z</time>
      </trkpt>
      <trkpt lat="39.379174" lon="-5.378540">
        <ele>568.2</ele>
        <time>1970-01-01T00:00:00Z</time>
      </trkpt>
      <trkpt lat="39.379174" lon="-5.378540">
        <ele>568.2</ele>
        <time>1970-01-01T00:00:00Z</time>
      </trkpt>
      <trkpt lat="39.379174" lon="-5.378540">
        <ele>568.2</ele>
        <time>1970-01-01T00:00:00Z</time>
      </trkpt>
      <trkpt lat="39.379174" lon="-5.378540">
        <ele>568.2</ele>
        <time>1970-01-01T00:00:00Z</time>
      </trkpt>
      <trkpt lat="39.379250" lon="-5.378629">
        <ele>566.9</ele>
        <time>1970-01-01T00:00:00Z</time>
      </trkpt>
      <trkpt lat="39.379250" lon="-5.378629">
        <ele>566.9</ele>
        <time>1970-01-01T00:00:00Z</time>
      </trkpt>
      <trkpt lat="39.379250" lon="-5.378629">
        <ele>566.9</ele>
        <time>1970-01-01T00:00:00Z</time>
      </trkpt>
      <trkpt lat="39.379250" lon="-5.378629">
        <ele>566.9</ele>
        <time>1970-01-01T00:00:00Z</time>
      </trkpt>
      <trkpt lat="39.379308" lon="-5.378705">
        <ele>565.8</ele>
        <time>1970-01-01T00:00:00Z</time>
      </trkpt>
      <trkpt lat="39.379308" lon="-5.378705">
        <ele>565.8</ele>
        <time>1970-01-01T00:00:00Z</time>
      </trkpt>
      <trkpt lat="39.379308" lon="-5.378705">
        <ele>565.8</ele>
        <time>1970-01-01T00:00:00Z</time>
      </trkpt>
      <trkpt lat="39.379308" lon="-5.378705">
        <ele>565.8</ele>
        <time>1970-01-01T00:00:00Z</time>
      </trkpt>
      <trkpt lat="39.379342" lon="-5.378691">
        <ele>564.2</ele>
        <time>1970-01-01T00:00:00Z</time>
      </trkpt>
      <trkpt lat="39.379342" lon="-5.378691">
        <ele>564.2</ele>
        <time>1970-01-01T00:00:00Z</time>
      </trkpt>
      <trkpt lat="39.379342" lon="-5.378691">
        <ele>564.2</ele>
        <time>1970-01-01T00:00:00Z</time>
      </trkpt>
      <trkpt lat="39.379342" lon="-5.378691">
        <ele>564.2</ele>
        <time>1970-01-01T00:00:00Z</time>
      </trkpt>
      <trkpt lat="39.379328" lon="-5.378634">
        <ele>563.8</ele>
        <time>1970-01-01T00:00:00Z</time>
      </trkpt>
      <trkpt lat="39.379328" lon="-5.378634">
        <ele>563.8</ele>
        <time>1970-01-01T00:00:00Z</time>
      </trkpt>
      <trkpt lat="39.379328" lon="-5.378634">
        <ele>563.8</ele>
        <time>1970-01-01T00:00:00Z</time>
      </trkpt>
      <trkpt lat="39.379328" lon="-5.378634">
        <ele>563.8</ele>
        <time>1970-01-01T00:00:00Z</time>
      </trkpt>
      <trkpt lat="39.379259" lon="-5.378480">
        <ele>563.8</ele>
        <time>1970-01-01T00:00:00Z</time>
      </trkpt>
      <trkpt lat="39.379259" lon="-5.378480">
        <ele>563.8</ele>
        <time>1970-01-01T00:00:00Z</time>
      </trkpt>
      <trkpt lat="39.379259" lon="-5.378480">
        <ele>563.8</ele>
        <time>1970-01-01T00:00:00Z</time>
      </trkpt>
      <trkpt lat="39.379259" lon="-5.378480">
        <ele>563.8</ele>
        <time>1970-01-01T00:00:00Z</time>
      </trkpt>
      <trkpt lat="39.379176" lon="-5.378329">
        <ele>564.0</ele>
        <time>1970-01-01T00:00:00Z</time>
      </trkpt>
      <trkpt lat="39.379176" lon="-5.378329">
        <ele>564.0</ele>
        <time>1970-01-01T00:00:00Z</time>
      </trkpt>
      <trkpt lat="39.379176" lon="-5.378329">
        <ele>564.0</ele>
        <time>1970-01-01T00:00:00Z</time>
      </trkpt>
      <trkpt lat="39.379176" lon="-5.378329">
        <ele>564.0</ele>
        <time>1970-01-01T00:00:00Z</time>
      </trkpt>
      <trkpt lat="39.379115" lon="-5.378246">
        <ele>564.1</ele>
        <time>1970-01-01T00:00:00Z</time>
      </trkpt>
      <trkpt lat="39.379115" lon="-5.378246">
        <ele>564.1</ele>
        <time>1970-01-01T00:00:00Z</time>
      </trkpt>
      <trkpt lat="39.379115" lon="-5.378246">
        <ele>564.1</ele>
        <time>1970-01-01T00:00:00Z</time>
      </trkpt>
      <trkpt lat="39.379115" lon="-5.378246">
        <ele>564.1</ele>
        <time>1970-01-01T00:00:00Z</time>
      </trkpt>
      <trkpt lat="39.379037" lon="-5.378042">
        <ele>561.4</ele>
        <time>1970-01-01T00:00:00Z</time>
      </trkpt>
      <trkpt lat="39.379037" lon="-5.378042">
        <ele>561.4</ele>
        <time>1970-01-01T00:00:00Z</time>
      </trkpt>
      <trkpt lat="39.379037" lon="-5.378042">
        <ele>561.4</ele>
        <time>1970-01-01T00:00:00Z</time>
      </trkpt>
      <trkpt lat="39.379037" lon="-5.378042">
        <ele>561.4</ele>
        <time>1970-01-01T00:00:00Z</time>
      </trkpt>
      <trkpt lat="39.378976" lon="-5.377878">
        <ele>559.0</ele>
        <time>1970-01-01T00:00:00Z</time>
      </trkpt>
      <trkpt lat="39.378976" lon="-5.377878">
        <ele>559.0</ele>
        <time>1970-01-01T00:00:00Z</time>
      </trkpt>
      <trkpt lat="39.378976" lon="-5.377878">
        <ele>559.0</ele>
        <time>1970-01-01T00:00:00Z</time>
      </trkpt>
      <trkpt lat="39.378976" lon="-5.377878">
        <ele>559.0</ele>
        <time>1970-01-01T00:00:00Z</time>
      </trkpt>
      <trkpt lat="39.378919" lon="-5.377748">
        <ele>557.8</ele>
        <time>1970-01-01T00:00:00Z</time>
      </trkpt>
      <trkpt lat="39.378919" lon="-5.377748">
        <ele>557.8</ele>
        <time>1970-01-01T00:00:00Z</time>
      </trkpt>
      <trkpt lat="39.378919" lon="-5.377748">
        <ele>557.8</ele>
        <time>1970-01-01T00:00:00Z</time>
      </trkpt>
      <trkpt lat="39.378919" lon="-5.377748">
        <ele>557.8</ele>
        <time>1970-01-01T00:00:00Z</time>
      </trkpt>
      <trkpt lat="39.378872" lon="-5.377538">
        <ele>554.8</ele>
        <time>1970-01-01T00:00:00Z</time>
      </trkpt>
      <trkpt lat="39.378872" lon="-5.377538">
        <ele>554.8</ele>
        <time>1970-01-01T00:00:00Z</time>
      </trkpt>
      <trkpt lat="39.378872" lon="-5.377538">
        <ele>554.8</ele>
        <time>1970-01-01T00:00:00Z</time>
      </trkpt>
      <trkpt lat="39.378872" lon="-5.377538">
        <ele>554.8</ele>
        <time>1970-01-01T00:00:00Z</time>
      </trkpt>
      <trkpt lat="39.378832" lon="-5.377416">
        <ele>553.3</ele>
        <time>1970-01-01T00:00:00Z</time>
      </trkpt>
      <trkpt lat="39.378832" lon="-5.377416">
        <ele>553.3</ele>
        <time>1970-01-01T00:00:00Z</time>
      </trkpt>
      <trkpt lat="39.378832" lon="-5.377416">
        <ele>553.3</ele>
        <time>1970-01-01T00:00:00Z</time>
      </trkpt>
      <trkpt lat="39.378832" lon="-5.377416">
        <ele>553.3</ele>
        <time>1970-01-01T00:00:00Z</time>
      </trkpt>
      <trkpt lat="39.378778" lon="-5.377286">
        <ele>552.7</ele>
        <time>1970-01-01T00:00:00Z</time>
      </trkpt>
      <trkpt lat="39.378778" lon="-5.377286">
        <ele>552.7</ele>
        <time>1970-01-01T00:00:00Z</time>
      </trkpt>
      <trkpt lat="39.378778" lon="-5.377286">
        <ele>552.7</ele>
        <time>1970-01-01T00:00:00Z</time>
      </trkpt>
      <trkpt lat="39.378778" lon="-5.377286">
        <ele>552.7</ele>
        <time>1970-01-01T00:00:00Z</time>
      </trkpt>
      <trkpt lat="39.378721" lon="-5.377163">
        <ele>552.3</ele>
        <time>1970-01-01T00:00:00Z</time>
      </trkpt>
      <trkpt lat="39.378721" lon="-5.377163">
        <ele>552.3</ele>
        <time>1970-01-01T00:00:00Z</time>
      </trkpt>
      <trkpt lat="39.378721" lon="-5.377163">
        <ele>552.3</ele>
        <time>1970-01-01T00:00:00Z</time>
      </trkpt>
      <trkpt lat="39.378721" lon="-5.377163">
        <ele>552.3</ele>
        <time>1970-01-01T00:00:00Z</time>
      </trkpt>
      <trkpt lat="39.378741" lon="-5.377091">
        <ele>551.0</ele>
        <time>1970-01-01T00:00:00Z</time>
      </trkpt>
      <trkpt lat="39.378741" lon="-5.377091">
        <ele>551.0</ele>
        <time>1970-01-01T00:00:00Z</time>
      </trkpt>
      <trkpt lat="39.378741" lon="-5.377091">
        <ele>551.0</ele>
        <time>1970-01-01T00:00:00Z</time>
      </trkpt>
      <trkpt lat="39.378741" lon="-5.377091">
        <ele>551.0</ele>
        <time>1970-01-01T00:00:00Z</time>
      </trkpt>
      <trkpt lat="39.378748" lon="-5.377013">
        <ele>549.9</ele>
        <time>1970-01-01T00:00:00Z</time>
      </trkpt>
      <trkpt lat="39.378748" lon="-5.377013">
        <ele>549.9</ele>
        <time>1970-01-01T00:00:00Z</time>
      </trkpt>
      <trkpt lat="39.378748" lon="-5.377013">
        <ele>549.9</ele>
        <time>1970-01-01T00:00:00Z</time>
      </trkpt>
      <trkpt lat="39.378748" lon="-5.377013">
        <ele>549.9</ele>
        <time>1970-01-01T00:00:00Z</time>
      </trkpt>
      <trkpt lat="39.378741" lon="-5.376943">
        <ele>549.2</ele>
        <time>1970-01-01T00:00:00Z</time>
      </trkpt>
      <trkpt lat="39.378741" lon="-5.376943">
        <ele>549.2</ele>
        <time>1970-01-01T00:00:00Z</time>
      </trkpt>
      <trkpt lat="39.378741" lon="-5.376943">
        <ele>549.2</ele>
        <time>1970-01-01T00:00:00Z</time>
      </trkpt>
      <trkpt lat="39.378741" lon="-5.376943">
        <ele>549.2</ele>
        <time>1970-01-01T00:00:00Z</time>
      </trkpt>
      <trkpt lat="39.378731" lon="-5.376883">
        <ele>548.8</ele>
        <time>1970-01-01T00:00:00Z</time>
      </trkpt>
      <trkpt lat="39.378731" lon="-5.376883">
        <ele>548.8</ele>
        <time>1970-01-01T00:00:00Z</time>
      </trkpt>
      <trkpt lat="39.378731" lon="-5.376883">
        <ele>548.8</ele>
        <time>1970-01-01T00:00:00Z</time>
      </trkpt>
      <trkpt lat="39.378731" lon="-5.376883">
        <ele>548.8</ele>
        <time>1970-01-01T00:00:00Z</time>
      </trkpt>
      <trkpt lat="39.378715" lon="-5.376812">
        <ele>548.4</ele>
        <time>1970-01-01T00:00:00Z</time>
      </trkpt>
      <trkpt lat="39.378715" lon="-5.376812">
        <ele>548.4</ele>
        <time>1970-01-01T00:00:00Z</time>
      </trkpt>
      <trkpt lat="39.378715" lon="-5.376812">
        <ele>548.4</ele>
        <time>1970-01-01T00:00:00Z</time>
      </trkpt>
      <trkpt lat="39.378715" lon="-5.376812">
        <ele>548.4</ele>
        <time>1970-01-01T00:00:00Z</time>
      </trkpt>
      <trkpt lat="39.378690" lon="-5.376728">
        <ele>548.0</ele>
        <time>1970-01-01T00:00:00Z</time>
      </trkpt>
      <trkpt lat="39.378690" lon="-5.376728">
        <ele>548.0</ele>
        <time>1970-01-01T00:00:00Z</time>
      </trkpt>
      <trkpt lat="39.378690" lon="-5.376728">
        <ele>548.0</ele>
        <time>1970-01-01T00:00:00Z</time>
      </trkpt>
      <trkpt lat="39.378690" lon="-5.376728">
        <ele>548.0</ele>
        <time>1970-01-01T00:00:00Z</time>
      </trkpt>
      <trkpt lat="39.378638" lon="-5.376647">
        <ele>548.1</ele>
        <time>1970-01-01T00:00:00Z</time>
      </trkpt>
      <trkpt lat="39.378638" lon="-5.376647">
        <ele>548.1</ele>
        <time>1970-01-01T00:00:00Z</time>
      </trkpt>
      <trkpt lat="39.378638" lon="-5.376647">
        <ele>548.1</ele>
        <time>1970-01-01T00:00:00Z</time>
      </trkpt>
      <trkpt lat="39.378638" lon="-5.376647">
        <ele>548.1</ele>
        <time>1970-01-01T00:00:00Z</time>
      </trkpt>
      <trkpt lat="39.378547" lon="-5.376544">
        <ele>548.5</ele>
        <time>1970-01-01T00:00:00Z</time>
      </trkpt>
      <trkpt lat="39.378547" lon="-5.376544">
        <ele>548.5</ele>
        <time>1970-01-01T00:00:00Z</time>
      </trkpt>
      <trkpt lat="39.378547" lon="-5.376544">
        <ele>548.5</ele>
        <time>1970-01-01T00:00:00Z</time>
      </trkpt>
      <trkpt lat="39.378547" lon="-5.376544">
        <ele>548.5</ele>
        <time>1970-01-01T00:00:00Z</time>
      </trkpt>
      <trkpt lat="39.378480" lon="-5.376460">
        <ele>548.9</ele>
        <time>1970-01-01T00:00:00Z</time>
      </trkpt>
      <trkpt lat="39.378480" lon="-5.376460">
        <ele>548.9</ele>
        <time>1970-01-01T00:00:00Z</time>
      </trkpt>
      <trkpt lat="39.378480" lon="-5.376460">
        <ele>548.9</ele>
        <time>1970-01-01T00:00:00Z</time>
      </trkpt>
      <trkpt lat="39.378480" lon="-5.376460">
        <ele>548.9</ele>
        <time>1970-01-01T00:00:00Z</time>
      </trkpt>
      <trkpt lat="39.378424" lon="-5.376387">
        <ele>549.7</ele>
        <time>1970-01-01T00:00:00Z</time>
      </trkpt>
      <trkpt lat="39.378424" lon="-5.376387">
        <ele>549.7</ele>
        <time>1970-01-01T00:00:00Z</time>
      </trkpt>
      <trkpt lat="39.378424" lon="-5.376387">
        <ele>549.7</ele>
        <time>1970-01-01T00:00:00Z</time>
      </trkpt>
      <trkpt lat="39.378424" lon="-5.376387">
        <ele>549.7</ele>
        <time>1970-01-01T00:00:00Z</time>
      </trkpt>
      <trkpt lat="39.378401" lon="-5.376328">
        <ele>549.8</ele>
        <time>1970-01-01T00:00:00Z</time>
      </trkpt>
      <trkpt lat="39.378401" lon="-5.376328">
        <ele>549.8</ele>
        <time>1970-01-01T00:00:00Z</time>
      </trkpt>
      <trkpt lat="39.378401" lon="-5.376328">
        <ele>549.8</ele>
        <time>1970-01-01T00:00:00Z</time>
      </trkpt>
      <trkpt lat="39.378401" lon="-5.376328">
        <ele>549.8</ele>
        <time>1970-01-01T00:00:00Z</time>
      </trkpt>
      <trkpt lat="39.378355" lon="-5.376124">
        <ele>549.7</ele>
        <time>1970-01-01T00:00:00Z</time>
      </trkpt>
      <trkpt lat="39.378355" lon="-5.376124">
        <ele>549.7</ele>
        <time>1970-01-01T00:00:00Z</time>
      </trkpt>
      <trkpt lat="39.378355" lon="-5.376124">
        <ele>549.7</ele>
        <time>1970-01-01T00:00:00Z</time>
      </trkpt>
      <trkpt lat="39.378355" lon="-5.376124">
        <ele>549.7</ele>
        <time>1970-01-01T00:00:00Z</time>
      </trkpt>
      <trkpt lat="39.378347" lon="-5.376026">
        <ele>549.4</ele>
        <time>1970-01-01T00:00:00Z</time>
      </trkpt>
      <trkpt lat="39.378347" lon="-5.376026">
        <ele>549.4</ele>
        <time>1970-01-01T00:00:00Z</time>
      </trkpt>
      <trkpt lat="39.378347" lon="-5.376026">
        <ele>549.4</ele>
        <time>1970-01-01T00:00:00Z</time>
      </trkpt>
      <trkpt lat="39.378347" lon="-5.376026">
        <ele>549.4</ele>
        <time>1970-01-01T00:00:00Z</time>
      </trkpt>
      <trkpt lat="39.378319" lon="-5.375949">
        <ele>549.6</ele>
        <time>1970-01-01T00:00:00Z</time>
      </trkpt>
      <trkpt lat="39.378319" lon="-5.375949">
        <ele>549.6</ele>
        <time>1970-01-01T00:00:00Z</time>
      </trkpt>
      <trkpt lat="39.378319" lon="-5.375949">
        <ele>549.6</ele>
        <time>1970-01-01T00:00:00Z</time>
      </trkpt>
      <trkpt lat="39.378319" lon="-5.375949">
        <ele>549.6</ele>
        <time>1970-01-01T00:00:00Z</time>
      </trkpt>
      <trkpt lat="39.378226" lon="-5.375793">
        <ele>550.5</ele>
        <time>1970-01-01T00:00:00Z</time>
      </trkpt>
      <trkpt lat="39.378226" lon="-5.375793">
        <ele>550.5</ele>
        <time>1970-01-01T00:00:00Z</time>
      </trkpt>
      <trkpt lat="39.378226" lon="-5.375793">
        <ele>550.5</ele>
        <time>1970-01-01T00:00:00Z</time>
      </trkpt>
      <trkpt lat="39.378226" lon="-5.375793">
        <ele>550.5</ele>
        <time>1970-01-01T00:00:00Z</time>
      </trkpt>
      <trkpt lat="39.378163" lon="-5.375693">
        <ele>551.4</ele>
        <time>1970-01-01T00:00:00Z</time>
      </trkpt>
      <trkpt lat="39.378163" lon="-5.375693">
        <ele>551.4</ele>
        <time>1970-01-01T00:00:00Z</time>
      </trkpt>
      <trkpt lat="39.378163" lon="-5.375693">
        <ele>551.4</ele>
        <time>1970-01-01T00:00:00Z</time>
      </trkpt>
      <trkpt lat="39.378163" lon="-5.375693">
        <ele>551.4</ele>
        <time>1970-01-01T00:00:00Z</time>
      </trkpt>
      <trkpt lat="39.378125" lon="-5.375640">
        <ele>552.2</ele>
        <time>1970-01-01T00:00:00Z</time>
      </trkpt>
      <trkpt lat="39.378125" lon="-5.375640">
        <ele>552.2</ele>
        <time>1970-01-01T00:00:00Z</time>
      </trkpt>
      <trkpt lat="39.378125" lon="-5.375640">
        <ele>552.2</ele>
        <time>1970-01-01T00:00:00Z</time>
      </trkpt>
      <trkpt lat="39.378125" lon="-5.375640">
        <ele>552.2</ele>
        <time>1970-01-01T00:00:00Z</time>
      </trkpt>
      <trkpt lat="39.378064" lon="-5.375560">
        <ele>553.8</ele>
        <time>1970-01-01T00:00:00Z</time>
      </trkpt>
      <trkpt lat="39.378064" lon="-5.375560">
        <ele>553.8</ele>
        <time>1970-01-01T00:00:00Z</time>
      </trkpt>
      <trkpt lat="39.378064" lon="-5.375560">
        <ele>553.8</ele>
        <time>1970-01-01T00:00:00Z</time>
      </trkpt>
      <trkpt lat="39.378064" lon="-5.375560">
        <ele>553.8</ele>
        <time>1970-01-01T00:00:00Z</time>
      </trkpt>
      <trkpt lat="39.378043" lon="-5.375507">
        <ele>554.3</ele>
        <time>1970-01-01T00:00:00Z</time>
      </trkpt>
      <trkpt lat="39.378043" lon="-5.375507">
        <ele>554.3</ele>
        <time>1970-01-01T00:00:00Z</time>
      </trkpt>
      <trkpt lat="39.378043" lon="-5.375507">
        <ele>554.3</ele>
        <time>1970-01-01T00:00:00Z</time>
      </trkpt>
      <trkpt lat="39.378043" lon="-5.375507">
        <ele>554.3</ele>
        <time>1970-01-01T00:00:00Z</time>
      </trkpt>
      <trkpt lat="39.378008" lon="-5.375365">
        <ele>555.2</ele>
        <time>1970-01-01T00:00:00Z</time>
      </trkpt>
      <trkpt lat="39.378008" lon="-5.375365">
        <ele>555.2</ele>
        <time>1970-01-01T00:00:00Z</time>
      </trkpt>
      <trkpt lat="39.378008" lon="-5.375365">
        <ele>555.2</ele>
        <time>1970-01-01T00:00:00Z</time>
      </trkpt>
      <trkpt lat="39.378008" lon="-5.375365">
        <ele>555.2</ele>
        <time>1970-01-01T00:00:00Z</time>
      </trkpt>
      <trkpt lat="39.377981" lon="-5.375271">
        <ele>556.0</ele>
        <time>1970-01-01T00:00:00Z</time>
      </trkpt>
      <trkpt lat="39.377981" lon="-5.375271">
        <ele>556.0</ele>
        <time>1970-01-01T00:00:00Z</time>
      </trkpt>
      <trkpt lat="39.377981" lon="-5.375271">
        <ele>556.0</ele>
        <time>1970-01-01T00:00:00Z</time>
      </trkpt>
      <trkpt lat="39.377981" lon="-5.375271">
        <ele>556.0</ele>
        <time>1970-01-01T00:00:00Z</time>
      </trkpt>
      <trkpt lat="39.377940" lon="-5.375175">
        <ele>557.5</ele>
        <time>1970-01-01T00:00:00Z</time>
      </trkpt>
      <trkpt lat="39.377940" lon="-5.375175">
        <ele>557.5</ele>
        <time>1970-01-01T00:00:00Z</time>
      </trkpt>
      <trkpt lat="39.377940" lon="-5.375175">
        <ele>557.5</ele>
        <time>1970-01-01T00:00:00Z</time>
      </trkpt>
      <trkpt lat="39.377940" lon="-5.375175">
        <ele>557.5</ele>
        <time>1970-01-01T00:00:00Z</time>
      </trkpt>
      <trkpt lat="39.377892" lon="-5.374998">
        <ele>559.7</ele>
        <time>1970-01-01T00:00:00Z</time>
      </trkpt>
      <trkpt lat="39.377892" lon="-5.374998">
        <ele>559.7</ele>
        <time>1970-01-01T00:00:00Z</time>
      </trkpt>
      <trkpt lat="39.377892" lon="-5.374998">
        <ele>559.7</ele>
        <time>1970-01-01T00:00:00Z</time>
      </trkpt>
      <trkpt lat="39.377892" lon="-5.374998">
        <ele>559.7</ele>
        <time>1970-01-01T00:00:00Z</time>
      </trkpt>
      <trkpt lat="39.377865" lon="-5.374814">
        <ele>561.6</ele>
        <time>1970-01-01T00:00:00Z</time>
      </trkpt>
      <trkpt lat="39.377865" lon="-5.374814">
        <ele>561.6</ele>
        <time>1970-01-01T00:00:00Z</time>
      </trkpt>
      <trkpt lat="39.377865" lon="-5.374814">
        <ele>561.6</ele>
        <time>1970-01-01T00:00:00Z</time>
      </trkpt>
      <trkpt lat="39.377865" lon="-5.374814">
        <ele>561.6</ele>
        <time>1970-01-01T00:00:00Z</time>
      </trkpt>
      <trkpt lat="39.377853" lon="-5.374651">
        <ele>562.8</ele>
        <time>1970-01-01T00:00:00Z</time>
      </trkpt>
      <trkpt lat="39.377853" lon="-5.374651">
        <ele>562.8</ele>
        <time>1970-01-01T00:00:00Z</time>
      </trkpt>
      <trkpt lat="39.377853" lon="-5.374651">
        <ele>562.8</ele>
        <time>1970-01-01T00:00:00Z</time>
      </trkpt>
      <trkpt lat="39.377853" lon="-5.374651">
        <ele>562.8</ele>
        <time>1970-01-01T00:00:00Z</time>
      </trkpt>
      <trkpt lat="39.377850" lon="-5.374408">
        <ele>564.2</ele>
        <time>1970-01-01T00:00:00Z</time>
      </trkpt>
      <trkpt lat="39.377850" lon="-5.374408">
        <ele>564.2</ele>
        <time>1970-01-01T00:00:00Z</time>
      </trkpt>
      <trkpt lat="39.377850" lon="-5.374408">
        <ele>564.2</ele>
        <time>1970-01-01T00:00:00Z</time>
      </trkpt>
      <trkpt lat="39.377850" lon="-5.374408">
        <ele>564.2</ele>
        <time>1970-01-01T00:00:00Z</time>
      </trkpt>
      <trkpt lat="39.377885" lon="-5.374217">
        <ele>564.1</ele>
        <time>1970-01-01T00:00:00Z</time>
      </trkpt>
      <trkpt lat="39.377885" lon="-5.374217">
        <ele>564.1</ele>
        <time>1970-01-01T00:00:00Z</time>
      </trkpt>
      <trkpt lat="39.377885" lon="-5.374217">
        <ele>564.1</ele>
        <time>1970-01-01T00:00:00Z</time>
      </trkpt>
      <trkpt lat="39.377885" lon="-5.374217">
        <ele>564.1</ele>
        <time>1970-01-01T00:00:00Z</time>
      </trkpt>
      <trkpt lat="39.377941" lon="-5.374074">
        <ele>562.7</ele>
        <time>1970-01-01T00:00:00Z</time>
      </trkpt>
      <trkpt lat="39.377941" lon="-5.374074">
        <ele>562.7</ele>
        <time>1970-01-01T00:00:00Z</time>
      </trkpt>
      <trkpt lat="39.377941" lon="-5.374074">
        <ele>562.7</ele>
        <time>1970-01-01T00:00:00Z</time>
      </trkpt>
      <trkpt lat="39.377941" lon="-5.374074">
        <ele>562.7</ele>
        <time>1970-01-01T00:00:00Z</time>
      </trkpt>
      <trkpt lat="39.378130" lon="-5.373686">
        <ele>557.0</ele>
        <time>1970-01-01T00:00:00Z</time>
      </trkpt>
      <trkpt lat="39.378130" lon="-5.373686">
        <ele>557.0</ele>
        <time>1970-01-01T00:00:00Z</time>
      </trkpt>
      <trkpt lat="39.378130" lon="-5.373686">
        <ele>557.0</ele>
        <time>1970-01-01T00:00:00Z</time>
      </trkpt>
      <trkpt lat="39.378130" lon="-5.373686">
        <ele>557.0</ele>
        <time>1970-01-01T00:00:00Z</time>
      </trkpt>
      <trkpt lat="39.378230" lon="-5.373466">
        <ele>554.9</ele>
        <time>1970-01-01T00:00:00Z</time>
      </trkpt>
      <trkpt lat="39.378230" lon="-5.373466">
        <ele>554.9</ele>
        <time>1970-01-01T00:00:00Z</time>
      </trkpt>
      <trkpt lat="39.378230" lon="-5.373466">
        <ele>554.9</ele>
        <time>1970-01-01T00:00:00Z</time>
      </trkpt>
      <trkpt lat="39.378230" lon="-5.373466">
        <ele>554.9</ele>
        <time>1970-01-01T00:00:00Z</time>
      </trkpt>
      <trkpt lat="39.378402" lon="-5.373097">
        <ele>550.9</ele>
        <time>1970-01-01T00:00:00Z</time>
      </trkpt>
      <trkpt lat="39.378402" lon="-5.373097">
        <ele>550.9</ele>
        <time>1970-01-01T00:00:00Z</time>
      </trkpt>
      <trkpt lat="39.378402" lon="-5.373097">
        <ele>550.9</ele>
        <time>1970-01-01T00:00:00Z</time>
      </trkpt>
      <trkpt lat="39.378402" lon="-5.373097">
        <ele>550.9</ele>
        <time>1970-01-01T00:00:00Z</time>
      </trkpt>
      <trkpt lat="39.378457" lon="-5.372980">
        <ele>549.6</ele>
        <time>1970-01-01T00:00:00Z</time>
      </trkpt>
      <trkpt lat="39.378457" lon="-5.372980">
        <ele>549.6</ele>
        <time>1970-01-01T00:00:00Z</time>
      </trkpt>
      <trkpt lat="39.378457" lon="-5.372980">
        <ele>549.6</ele>
        <time>1970-01-01T00:00:00Z</time>
      </trkpt>
      <trkpt lat="39.378457" lon="-5.372980">
        <ele>549.6</ele>
        <time>1970-01-01T00:00:00Z</time>
      </trkpt>
      <trkpt lat="39.378492" lon="-5.372885">
        <ele>548.4</ele>
        <time>1970-01-01T00:00:00Z</time>
      </trkpt>
      <trkpt lat="39.378492" lon="-5.372885">
        <ele>548.4</ele>
        <time>1970-01-01T00:00:00Z</time>
      </trkpt>
      <trkpt lat="39.378492" lon="-5.372885">
        <ele>548.4</ele>
        <time>1970-01-01T00:00:00Z</time>
      </trkpt>
      <trkpt lat="39.378492" lon="-5.372885">
        <ele>548.4</ele>
        <time>1970-01-01T00:00:00Z</time>
      </trkpt>
      <trkpt lat="39.378561" lon="-5.372592">
        <ele>544.9</ele>
        <time>1970-01-01T00:00:00Z</time>
      </trkpt>
      <trkpt lat="39.378561" lon="-5.372592">
        <ele>544.9</ele>
        <time>1970-01-01T00:00:00Z</time>
      </trkpt>
      <trkpt lat="39.378561" lon="-5.372592">
        <ele>544.9</ele>
        <time>1970-01-01T00:00:00Z</time>
      </trkpt>
      <trkpt lat="39.378561" lon="-5.372592">
        <ele>544.9</ele>
        <time>1970-01-01T00:00:00Z</time>
      </trkpt>
      <trkpt lat="39.378607" lon="-5.372298">
        <ele>540.9</ele>
        <time>1970-01-01T00:00:00Z</time>
      </trkpt>
      <trkpt lat="39.378607" lon="-5.372298">
        <ele>540.9</ele>
        <time>1970-01-01T00:00:00Z</time>
      </trkpt>
      <trkpt lat="39.378607" lon="-5.372298">
        <ele>540.9</ele>
        <time>1970-01-01T00:00:00Z</time>
      </trkpt>
      <trkpt lat="39.378607" lon="-5.372298">
        <ele>540.9</ele>
        <time>1970-01-01T00:00:00Z</time>
      </trkpt>
      <trkpt lat="39.378623" lon="-5.372137">
        <ele>540.1</ele>
        <time>1970-01-01T00:00:00Z</time>
      </trkpt>
      <trkpt lat="39.378623" lon="-5.372137">
        <ele>540.1</ele>
        <time>1970-01-01T00:00:00Z</time>
      </trkpt>
      <trkpt lat="39.378623" lon="-5.372137">
        <ele>540.1</ele>
        <time>1970-01-01T00:00:00Z</time>
      </trkpt>
      <trkpt lat="39.378623" lon="-5.372137">
        <ele>540.1</ele>
        <time>1970-01-01T00:00:00Z</time>
      </trkpt>
      <trkpt lat="39.378617" lon="-5.372054">
        <ele>539.6</ele>
        <time>1970-01-01T00:00:00Z</time>
      </trkpt>
      <trkpt lat="39.378617" lon="-5.372054">
        <ele>539.6</ele>
        <time>1970-01-01T00:00:00Z</time>
      </trkpt>
      <trkpt lat="39.378617" lon="-5.372054">
        <ele>539.6</ele>
        <time>1970-01-01T00:00:00Z</time>
      </trkpt>
      <trkpt lat="39.378617" lon="-5.372054">
        <ele>539.6</ele>
        <time>1970-01-01T00:00:00Z</time>
      </trkpt>
      <trkpt lat="39.378603" lon="-5.371927">
        <ele>538.1</ele>
        <time>1970-01-01T00:00:00Z</time>
      </trkpt>
      <trkpt lat="39.378603" lon="-5.371927">
        <ele>538.1</ele>
        <time>1970-01-01T00:00:00Z</time>
      </trkpt>
      <trkpt lat="39.378603" lon="-5.371927">
        <ele>538.1</ele>
        <time>1970-01-01T00:00:00Z</time>
      </trkpt>
      <trkpt lat="39.378603" lon="-5.371927">
        <ele>538.1</ele>
        <time>1970-01-01T00:00:00Z</time>
      </trkpt>
      <trkpt lat="39.378553" lon="-5.371756">
        <ele>536.7</ele>
        <time>1970-01-01T00:00:00Z</time>
      </trkpt>
      <trkpt lat="39.378553" lon="-5.371756">
        <ele>536.7</ele>
        <time>1970-01-01T00:00:00Z</time>
      </trkpt>
      <trkpt lat="39.378553" lon="-5.371756">
        <ele>536.7</ele>
        <time>1970-01-01T00:00:00Z</time>
      </trkpt>
      <trkpt lat="39.378553" lon="-5.371756">
        <ele>536.7</ele>
        <time>1970-01-01T00:00:00Z</time>
      </trkpt>
      <trkpt lat="39.378474" lon="-5.371525">
        <ele>535.1</ele>
        <time>1970-01-01T00:00:00Z</time>
      </trkpt>
      <trkpt lat="39.378474" lon="-5.371525">
        <ele>535.1</ele>
        <time>1970-01-01T00:00:00Z</time>
      </trkpt>
      <trkpt lat="39.378474" lon="-5.371525">
        <ele>535.1</ele>
        <time>1970-01-01T00:00:00Z</time>
      </trkpt>
      <trkpt lat="39.378474" lon="-5.371525">
        <ele>535.1</ele>
        <time>1970-01-01T00:00:00Z</time>
      </trkpt>
      <trkpt lat="39.378326" lon="-5.371183">
        <ele>533.7</ele>
        <time>1970-01-01T00:00:00Z</time>
      </trkpt>
      <trkpt lat="39.378326" lon="-5.371183">
        <ele>533.7</ele>
        <time>1970-01-01T00:00:00Z</time>
      </trkpt>
      <trkpt lat="39.378326" lon="-5.371183">
        <ele>533.7</ele>
        <time>1970-01-01T00:00:00Z</time>
      </trkpt>
      <trkpt lat="39.378326" lon="-5.371183">
        <ele>533.7</ele>
        <time>1970-01-01T00:00:00Z</time>
      </trkpt>
      <trkpt lat="39.378155" lon="-5.370818">
        <ele>532.0</ele>
        <time>1970-01-01T00:00:00Z</time>
      </trkpt>
      <trkpt lat="39.378155" lon="-5.370818">
        <ele>532.0</ele>
        <time>1970-01-01T00:00:00Z</time>
      </trkpt>
      <trkpt lat="39.378155" lon="-5.370818">
        <ele>532.0</ele>
        <time>1970-01-01T00:00:00Z</time>
      </trkpt>
      <trkpt lat="39.378155" lon="-5.370818">
        <ele>532.0</ele>
        <time>1970-01-01T00:00:00Z</time>
      </trkpt>
      <trkpt lat="39.377798" lon="-5.370080">
        <ele>532.3</ele>
        <time>1970-01-01T00:00:00Z</time>
      </trkpt>
      <trkpt lat="39.377798" lon="-5.370080">
        <ele>532.3</ele>
        <time>1970-01-01T00:00:00Z</time>
      </trkpt>
      <trkpt lat="39.377798" lon="-5.370080">
        <ele>532.3</ele>
        <time>1970-01-01T00:00:00Z</time>
      </trkpt>
      <trkpt lat="39.377798" lon="-5.370080">
        <ele>532.3</ele>
        <time>1970-01-01T00:00:00Z</time>
      </trkpt>
      <trkpt lat="39.377578" lon="-5.369620">
        <ele>532.8</ele>
        <time>1970-01-01T00:00:00Z</time>
      </trkpt>
      <trkpt lat="39.377578" lon="-5.369620">
        <ele>532.8</ele>
        <time>1970-01-01T00:00:00Z</time>
      </trkpt>
      <trkpt lat="39.377578" lon="-5.369620">
        <ele>532.8</ele>
        <time>1970-01-01T00:00:00Z</time>
      </trkpt>
      <trkpt lat="39.377578" lon="-5.369620">
        <ele>532.8</ele>
        <time>1970-01-01T00:00:00Z</time>
      </trkpt>
      <trkpt lat="39.377341" lon="-5.369120">
        <ele>534.2</ele>
        <time>1970-01-01T00:00:00Z</time>
      </trkpt>
      <trkpt lat="39.377341" lon="-5.369120">
        <ele>534.2</ele>
        <time>1970-01-01T00:00:00Z</time>
      </trkpt>
      <trkpt lat="39.377341" lon="-5.369120">
        <ele>534.2</ele>
        <time>1970-01-01T00:00:00Z</time>
      </trkpt>
      <trkpt lat="39.377341" lon="-5.369120">
        <ele>534.2</ele>
        <time>1970-01-01T00:00:00Z</time>
      </trkpt>
      <trkpt lat="39.377253" lon="-5.368960">
        <ele>534.4</ele>
        <time>1970-01-01T00:00:00Z</time>
      </trkpt>
      <trkpt lat="39.377253" lon="-5.368960">
        <ele>534.4</ele>
        <time>1970-01-01T00:00:00Z</time>
      </trkpt>
      <trkpt lat="39.377253" lon="-5.368960">
        <ele>534.4</ele>
        <time>1970-01-01T00:00:00Z</time>
      </trkpt>
      <trkpt lat="39.377253" lon="-5.368960">
        <ele>534.4</ele>
        <time>1970-01-01T00:00:00Z</time>
      </trkpt>
      <trkpt lat="39.377150" lon="-5.368806">
        <ele>535.0</ele>
        <time>1970-01-01T00:00:00Z</time>
      </trkpt>
      <trkpt lat="39.377150" lon="-5.368806">
        <ele>535.0</ele>
        <time>1970-01-01T00:00:00Z</time>
      </trkpt>
      <trkpt lat="39.377150" lon="-5.368806">
        <ele>535.0</ele>
        <time>1970-01-01T00:00:00Z</time>
      </trkpt>
      <trkpt lat="39.377150" lon="-5.368806">
        <ele>535.0</ele>
        <time>1970-01-01T00:00:00Z</time>
      </trkpt>
      <trkpt lat="39.377095" lon="-5.368671">
        <ele>535.0</ele>
        <time>1970-01-01T00:00:00Z</time>
      </trkpt>
      <trkpt lat="39.377095" lon="-5.368671">
        <ele>535.0</ele>
        <time>1970-01-01T00:00:00Z</time>
      </trkpt>
      <trkpt lat="39.377095" lon="-5.368671">
        <ele>535.0</ele>
        <time>1970-01-01T00:00:00Z</time>
      </trkpt>
      <trkpt lat="39.377095" lon="-5.368671">
        <ele>535.0</ele>
        <time>1970-01-01T00:00:00Z</time>
      </trkpt>
      <trkpt lat="39.377036" lon="-5.368559">
        <ele>535.2</ele>
        <time>1970-01-01T00:00:00Z</time>
      </trkpt>
      <trkpt lat="39.377036" lon="-5.368559">
        <ele>535.2</ele>
        <time>1970-01-01T00:00:00Z</time>
      </trkpt>
      <trkpt lat="39.377036" lon="-5.368559">
        <ele>535.2</ele>
        <time>1970-01-01T00:00:00Z</time>
      </trkpt>
      <trkpt lat="39.377036" lon="-5.368559">
        <ele>535.2</ele>
        <time>1970-01-01T00:00:00Z</time>
      </trkpt>
      <trkpt lat="39.376917" lon="-5.368331">
        <ele>534.7</ele>
        <time>1970-01-01T00:00:00Z</time>
      </trkpt>
      <trkpt lat="39.376917" lon="-5.368331">
        <ele>534.7</ele>
        <time>1970-01-01T00:00:00Z</time>
      </trkpt>
      <trkpt lat="39.376917" lon="-5.368331">
        <ele>534.7</ele>
        <time>1970-01-01T00:00:00Z</time>
      </trkpt>
      <trkpt lat="39.376917" lon="-5.368331">
        <ele>534.7</ele>
        <time>1970-01-01T00:00:00Z</time>
      </trkpt>
      <trkpt lat="39.376855" lon="-5.368180">
        <ele>533.7</ele>
        <time>1970-01-01T00:00:00Z</time>
      </trkpt>
      <trkpt lat="39.376855" lon="-5.368180">
        <ele>533.7</ele>
        <time>1970-01-01T00:00:00Z</time>
      </trkpt>
      <trkpt lat="39.376855" lon="-5.368180">
        <ele>533.7</ele>
        <time>1970-01-01T00:00:00Z</time>
      </trkpt>
      <trkpt lat="39.376855" lon="-5.368180">
        <ele>533.7</ele>
        <time>1970-01-01T00:00:00Z</time>
      </trkpt>
      <trkpt lat="39.376778" lon="-5.367974">
        <ele>533.1</ele>
        <time>1970-01-01T00:00:00Z</time>
      </trkpt>
      <trkpt lat="39.376778" lon="-5.367974">
        <ele>533.1</ele>
        <time>1970-01-01T00:00:00Z</time>
      </trkpt>
      <trkpt lat="39.376778" lon="-5.367974">
        <ele>533.1</ele>
        <time>1970-01-01T00:00:00Z</time>
      </trkpt>
      <trkpt lat="39.376778" lon="-5.367974">
        <ele>533.1</ele>
        <time>1970-01-01T00:00:00Z</time>
      </trkpt>
      <trkpt lat="39.376692" lon="-5.367859">
        <ele>533.5</ele>
        <time>1970-01-01T00:00:00Z</time>
      </trkpt>
      <trkpt lat="39.376692" lon="-5.367859">
        <ele>533.5</ele>
        <time>1970-01-01T00:00:00Z</time>
      </trkpt>
      <trkpt lat="39.376692" lon="-5.367859">
        <ele>533.5</ele>
        <time>1970-01-01T00:00:00Z</time>
      </trkpt>
      <trkpt lat="39.376692" lon="-5.367859">
        <ele>533.5</ele>
        <time>1970-01-01T00:00:00Z</time>
      </trkpt>
      <trkpt lat="39.376572" lon="-5.367733">
        <ele>534.5</ele>
        <time>1970-01-01T00:00:00Z</time>
      </trkpt>
      <trkpt lat="39.376572" lon="-5.367733">
        <ele>534.5</ele>
        <time>1970-01-01T00:00:00Z</time>
      </trkpt>
      <trkpt lat="39.376572" lon="-5.367733">
        <ele>534.5</ele>
        <time>1970-01-01T00:00:00Z</time>
      </trkpt>
      <trkpt lat="39.376572" lon="-5.367733">
        <ele>534.5</ele>
        <time>1970-01-01T00:00:00Z</time>
      </trkpt>
      <trkpt lat="39.376501" lon="-5.367678">
        <ele>535.2</ele>
        <time>1970-01-01T00:00:00Z</time>
      </trkpt>
      <trkpt lat="39.376501" lon="-5.367678">
        <ele>535.2</ele>
        <time>1970-01-01T00:00:00Z</time>
      </trkpt>
      <trkpt lat="39.376501" lon="-5.367678">
        <ele>535.2</ele>
        <time>1970-01-01T00:00:00Z</time>
      </trkpt>
      <trkpt lat="39.376501" lon="-5.367678">
        <ele>535.2</ele>
        <time>1970-01-01T00:00:00Z</time>
      </trkpt>
      <trkpt lat="39.376360" lon="-5.367514">
        <ele>535.8</ele>
        <time>1970-01-01T00:00:00Z</time>
      </trkpt>
      <trkpt lat="39.376360" lon="-5.367514">
        <ele>535.8</ele>
        <time>1970-01-01T00:00:00Z</time>
      </trkpt>
      <trkpt lat="39.376360" lon="-5.367514">
        <ele>535.8</ele>
        <time>1970-01-01T00:00:00Z</time>
      </trkpt>
      <trkpt lat="39.376360" lon="-5.367514">
        <ele>535.8</ele>
        <time>1970-01-01T00:00:00Z</time>
      </trkpt>
      <trkpt lat="39.376210" lon="-5.367289">
        <ele>536.0</ele>
        <time>1970-01-01T00:00:00Z</time>
      </trkpt>
      <trkpt lat="39.376210" lon="-5.367289">
        <ele>536.0</ele>
        <time>1970-01-01T00:00:00Z</time>
      </trkpt>
      <trkpt lat="39.376210" lon="-5.367289">
        <ele>536.0</ele>
        <time>1970-01-01T00:00:00Z</time>
      </trkpt>
      <trkpt lat="39.376210" lon="-5.367289">
        <ele>536.0</ele>
        <time>1970-01-01T00:00:00Z</time>
      </trkpt>
      <trkpt lat="39.375933" lon="-5.366910">
        <ele>535.6</ele>
        <time>1970-01-01T00:00:00Z</time>
      </trkpt>
      <trkpt lat="39.375933" lon="-5.366910">
        <ele>535.6</ele>
        <time>1970-01-01T00:00:00Z</time>
      </trkpt>
      <trkpt lat="39.375933" lon="-5.366910">
        <ele>535.6</ele>
        <time>1970-01-01T00:00:00Z</time>
      </trkpt>
      <trkpt lat="39.375933" lon="-5.366910">
        <ele>535.6</ele>
        <time>1970-01-01T00:00:00Z</time>
      </trkpt>
      <trkpt lat="39.375865" lon="-5.366840">
        <ele>535.6</ele>
        <time>1970-01-01T00:00:00Z</time>
      </trkpt>
      <trkpt lat="39.375865" lon="-5.366840">
        <ele>535.6</ele>
        <time>1970-01-01T00:00:00Z</time>
      </trkpt>
      <trkpt lat="39.375865" lon="-5.366840">
        <ele>535.6</ele>
        <time>1970-01-01T00:00:00Z</time>
      </trkpt>
      <trkpt lat="39.375865" lon="-5.366840">
        <ele>535.6</ele>
        <time>1970-01-01T00:00:00Z</time>
      </trkpt>
      <trkpt lat="39.375714" lon="-5.366722">
        <ele>536.8</ele>
        <time>1970-01-01T00:00:00Z</time>
      </trkpt>
      <trkpt lat="39.375714" lon="-5.366722">
        <ele>536.8</ele>
        <time>1970-01-01T00:00:00Z</time>
      </trkpt>
      <trkpt lat="39.375714" lon="-5.366722">
        <ele>536.8</ele>
        <time>1970-01-01T00:00:00Z</time>
      </trkpt>
      <trkpt lat="39.375714" lon="-5.366722">
        <ele>536.8</ele>
        <time>1970-01-01T00:00:00Z</time>
      </trkpt>
      <trkpt lat="39.375610" lon="-5.366606">
        <ele>537.1</ele>
        <time>1970-01-01T00:00:00Z</time>
      </trkpt>
      <trkpt lat="39.375610" lon="-5.366606">
        <ele>537.1</ele>
        <time>1970-01-01T00:00:00Z</time>
      </trkpt>
      <trkpt lat="39.375610" lon="-5.366606">
        <ele>537.1</ele>
        <time>1970-01-01T00:00:00Z</time>
      </trkpt>
      <trkpt lat="39.375610" lon="-5.366606">
        <ele>537.1</ele>
        <time>1970-01-01T00:00:00Z</time>
      </trkpt>
      <trkpt lat="39.375542" lon="-5.366510">
        <ele>536.8</ele>
        <time>1970-01-01T00:00:00Z</time>
      </trkpt>
      <trkpt lat="39.375542" lon="-5.366510">
        <ele>536.8</ele>
        <time>1970-01-01T00:00:00Z</time>
      </trkpt>
      <trkpt lat="39.375542" lon="-5.366510">
        <ele>536.8</ele>
        <time>1970-01-01T00:00:00Z</time>
      </trkpt>
      <trkpt lat="39.375542" lon="-5.366510">
        <ele>536.8</ele>
        <time>1970-01-01T00:00:00Z</time>
      </trkpt>
      <trkpt lat="39.375422" lon="-5.366344">
        <ele>536.8</ele>
        <time>1970-01-01T00:00:00Z</time>
      </trkpt>
      <trkpt lat="39.375422" lon="-5.366344">
        <ele>536.8</ele>
        <time>1970-01-01T00:00:00Z</time>
      </trkpt>
      <trkpt lat="39.375422" lon="-5.366344">
        <ele>536.8</ele>
        <time>1970-01-01T00:00:00Z</time>
      </trkpt>
      <trkpt lat="39.375422" lon="-5.366344">
        <ele>536.8</ele>
        <time>1970-01-01T00:00:00Z</time>
      </trkpt>
      <trkpt lat="39.375339" lon="-5.366208">
        <ele>536.0</ele>
        <time>1970-01-01T00:00:00Z</time>
      </trkpt>
      <trkpt lat="39.375339" lon="-5.366208">
        <ele>536.0</ele>
        <time>1970-01-01T00:00:00Z</time>
      </trkpt>
      <trkpt lat="39.375339" lon="-5.366208">
        <ele>536.0</ele>
        <time>1970-01-01T00:00:00Z</time>
      </trkpt>
      <trkpt lat="39.375339" lon="-5.366208">
        <ele>536.0</ele>
        <time>1970-01-01T00:00:00Z</time>
      </trkpt>
      <trkpt lat="39.375301" lon="-5.366090">
        <ele>534.8</ele>
        <time>1970-01-01T00:00:00Z</time>
      </trkpt>
      <trkpt lat="39.375301" lon="-5.366090">
        <ele>534.8</ele>
        <time>1970-01-01T00:00:00Z</time>
      </trkpt>
      <trkpt lat="39.375301" lon="-5.366090">
        <ele>534.8</ele>
        <time>1970-01-01T00:00:00Z</time>
      </trkpt>
      <trkpt lat="39.375301" lon="-5.366090">
        <ele>534.8</ele>
        <time>1970-01-01T00:00:00Z</time>
      </trkpt>
      <trkpt lat="39.375273" lon="-5.365960">
        <ele>533.4</ele>
        <time>1970-01-01T00:00:00Z</time>
      </trkpt>
      <trkpt lat="39.375273" lon="-5.365960">
        <ele>533.4</ele>
        <time>1970-01-01T00:00:00Z</time>
      </trkpt>
      <trkpt lat="39.375273" lon="-5.365960">
        <ele>533.4</ele>
        <time>1970-01-01T00:00:00Z</time>
      </trkpt>
      <trkpt lat="39.375273" lon="-5.365960">
        <ele>533.4</ele>
        <time>1970-01-01T00:00:00Z</time>
      </trkpt>
      <trkpt lat="39.375237" lon="-5.365731">
        <ele>530.3</ele>
        <time>1970-01-01T00:00:00Z</time>
      </trkpt>
      <trkpt lat="39.375237" lon="-5.365731">
        <ele>530.3</ele>
        <time>1970-01-01T00:00:00Z</time>
      </trkpt>
      <trkpt lat="39.375237" lon="-5.365731">
        <ele>530.3</ele>
        <time>1970-01-01T00:00:00Z</time>
      </trkpt>
      <trkpt lat="39.375237" lon="-5.365731">
        <ele>530.3</ele>
        <time>1970-01-01T00:00:00Z</time>
      </trkpt>
      <trkpt lat="39.375226" lon="-5.365531">
        <ele>526.9</ele>
        <time>1970-01-01T00:00:00Z</time>
      </trkpt>
      <trkpt lat="39.375226" lon="-5.365531">
        <ele>526.9</ele>
        <time>1970-01-01T00:00:00Z</time>
      </trkpt>
      <trkpt lat="39.375226" lon="-5.365531">
        <ele>526.9</ele>
        <time>1970-01-01T00:00:00Z</time>
      </trkpt>
      <trkpt lat="39.375226" lon="-5.365531">
        <ele>526.9</ele>
        <time>1970-01-01T00:00:00Z</time>
      </trkpt>
      <trkpt lat="39.375213" lon="-5.365471">
        <ele>526.2</ele>
        <time>1970-01-01T00:00:00Z</time>
      </trkpt>
      <trkpt lat="39.375213" lon="-5.365471">
        <ele>526.2</ele>
        <time>1970-01-01T00:00:00Z</time>
      </trkpt>
      <trkpt lat="39.375213" lon="-5.365471">
        <ele>526.2</ele>
        <time>1970-01-01T00:00:00Z</time>
      </trkpt>
      <trkpt lat="39.375213" lon="-5.365471">
        <ele>526.2</ele>
        <time>1970-01-01T00:00:00Z</time>
      </trkpt>
      <trkpt lat="39.375192" lon="-5.365425">
        <ele>525.7</ele>
        <time>1970-01-01T00:00:00Z</time>
      </trkpt>
      <trkpt lat="39.375192" lon="-5.365425">
        <ele>525.7</ele>
        <time>1970-01-01T00:00:00Z</time>
      </trkpt>
      <trkpt lat="39.375192" lon="-5.365425">
        <ele>525.7</ele>
        <time>1970-01-01T00:00:00Z</time>
      </trkpt>
      <trkpt lat="39.375192" lon="-5.365425">
        <ele>525.7</ele>
        <time>1970-01-01T00:00:00Z</time>
      </trkpt>
      <trkpt lat="39.374951" lon="-5.365178">
        <ele>523.7</ele>
        <time>1970-01-01T00:00:00Z</time>
      </trkpt>
      <trkpt lat="39.374951" lon="-5.365178">
        <ele>523.7</ele>
        <time>1970-01-01T00:00:00Z</time>
      </trkpt>
      <trkpt lat="39.374951" lon="-5.365178">
        <ele>523.7</ele>
        <time>1970-01-01T00:00:00Z</time>
      </trkpt>
      <trkpt lat="39.374951" lon="-5.365178">
        <ele>523.7</ele>
        <time>1970-01-01T00:00:00Z</time>
      </trkpt>
      <trkpt lat="39.374696" lon="-5.364919">
        <ele>523.0</ele>
        <time>1970-01-01T00:00:00Z</time>
      </trkpt>
      <trkpt lat="39.374696" lon="-5.364919">
        <ele>523.0</ele>
        <time>1970-01-01T00:00:00Z</time>
      </trkpt>
      <trkpt lat="39.374696" lon="-5.364919">
        <ele>523.0</ele>
        <time>1970-01-01T00:00:00Z</time>
      </trkpt>
      <trkpt lat="39.374696" lon="-5.364919">
        <ele>523.0</ele>
        <time>1970-01-01T00:00:00Z</time>
      </trkpt>
      <trkpt lat="39.374476" lon="-5.364683">
        <ele>521.8</ele>
        <time>1970-01-01T00:00:00Z</time>
      </trkpt>
      <trkpt lat="39.374476" lon="-5.364683">
        <ele>521.8</ele>
        <time>1970-01-01T00:00:00Z</time>
      </trkpt>
      <trkpt lat="39.374476" lon="-5.364683">
        <ele>521.8</ele>
        <time>1970-01-01T00:00:00Z</time>
      </trkpt>
      <trkpt lat="39.374476" lon="-5.364683">
        <ele>521.8</ele>
        <time>1970-01-01T00:00:00Z</time>
      </trkpt>
      <trkpt lat="39.374383" lon="-5.364554">
        <ele>521.1</ele>
        <time>1970-01-01T00:00:00Z</time>
      </trkpt>
      <trkpt lat="39.374383" lon="-5.364554">
        <ele>521.1</ele>
        <time>1970-01-01T00:00:00Z</time>
      </trkpt>
      <trkpt lat="39.374383" lon="-5.364554">
        <ele>521.1</ele>
        <time>1970-01-01T00:00:00Z</time>
      </trkpt>
      <trkpt lat="39.374383" lon="-5.364554">
        <ele>521.1</ele>
        <time>1970-01-01T00:00:00Z</time>
      </trkpt>
      <trkpt lat="39.374202" lon="-5.364206">
        <ele>520.0</ele>
        <time>1970-01-01T00:00:00Z</time>
      </trkpt>
      <trkpt lat="39.374202" lon="-5.364206">
        <ele>520.0</ele>
        <time>1970-01-01T00:00:00Z</time>
      </trkpt>
      <trkpt lat="39.374202" lon="-5.364206">
        <ele>520.0</ele>
        <time>1970-01-01T00:00:00Z</time>
      </trkpt>
      <trkpt lat="39.374202" lon="-5.364206">
        <ele>520.0</ele>
        <time>1970-01-01T00:00:00Z</time>
      </trkpt>
      <trkpt lat="39.374017" lon="-5.363907">
        <ele>520.8</ele>
        <time>1970-01-01T00:00:00Z</time>
      </trkpt>
      <trkpt lat="39.374017" lon="-5.363907">
        <ele>520.8</ele>
        <time>1970-01-01T00:00:00Z</time>
      </trkpt>
      <trkpt lat="39.374017" lon="-5.363907">
        <ele>520.8</ele>
        <time>1970-01-01T00:00:00Z</time>
      </trkpt>
      <trkpt lat="39.374017" lon="-5.363907">
        <ele>520.8</ele>
        <time>1970-01-01T00:00:00Z</time>
      </trkpt>
      <trkpt lat="39.373918" lon="-5.363751">
        <ele>520.9</ele>
        <time>1970-01-01T00:00:00Z</time>
      </trkpt>
      <trkpt lat="39.373918" lon="-5.363751">
        <ele>520.9</ele>
        <time>1970-01-01T00:00:00Z</time>
      </trkpt>
      <trkpt lat="39.373918" lon="-5.363751">
        <ele>520.9</ele>
        <time>1970-01-01T00:00:00Z</time>
      </trkpt>
      <trkpt lat="39.373918" lon="-5.363751">
        <ele>520.9</ele>
        <time>1970-01-01T00:00:00Z</time>
      </trkpt>
      <trkpt lat="39.373847" lon="-5.363617">
        <ele>521.5</ele>
        <time>1970-01-01T00:00:00Z</time>
      </trkpt>
      <trkpt lat="39.373847" lon="-5.363617">
        <ele>521.5</ele>
        <time>1970-01-01T00:00:00Z</time>
      </trkpt>
      <trkpt lat="39.373847" lon="-5.363617">
        <ele>521.5</ele>
        <time>1970-01-01T00:00:00Z</time>
      </trkpt>
      <trkpt lat="39.373847" lon="-5.363617">
        <ele>521.5</ele>
        <time>1970-01-01T00:00:00Z</time>
      </trkpt>
      <trkpt lat="39.373816" lon="-5.363512">
        <ele>521.3</ele>
        <time>1970-01-01T00:00:00Z</time>
      </trkpt>
      <trkpt lat="39.373816" lon="-5.363512">
        <ele>521.3</ele>
        <time>1970-01-01T00:00:00Z</time>
      </trkpt>
      <trkpt lat="39.373816" lon="-5.363512">
        <ele>521.3</ele>
        <time>1970-01-01T00:00:00Z</time>
      </trkpt>
      <trkpt lat="39.373816" lon="-5.363512">
        <ele>521.3</ele>
        <time>1970-01-01T00:00:00Z</time>
      </trkpt>
      <trkpt lat="39.373817" lon="-5.363439">
        <ele>520.7</ele>
        <time>1970-01-01T00:00:00Z</time>
      </trkpt>
      <trkpt lat="39.373817" lon="-5.363439">
        <ele>520.7</ele>
        <time>1970-01-01T00:00:00Z</time>
      </trkpt>
      <trkpt lat="39.373817" lon="-5.363439">
        <ele>520.7</ele>
        <time>1970-01-01T00:00:00Z</time>
      </trkpt>
      <trkpt lat="39.373817" lon="-5.363439">
        <ele>520.7</ele>
        <time>1970-01-01T00:00:00Z</time>
      </trkpt>
      <trkpt lat="39.373864" lon="-5.363173">
        <ele>518.7</ele>
        <time>1970-01-01T00:00:00Z</time>
      </trkpt>
      <trkpt lat="39.373864" lon="-5.363173">
        <ele>518.7</ele>
        <time>1970-01-01T00:00:00Z</time>
      </trkpt>
      <trkpt lat="39.373864" lon="-5.363173">
        <ele>518.7</ele>
        <time>1970-01-01T00:00:00Z</time>
      </trkpt>
      <trkpt lat="39.373864" lon="-5.363173">
        <ele>518.7</ele>
        <time>1970-01-01T00:00:00Z</time>
      </trkpt>
      <trkpt lat="39.373872" lon="-5.363061">
        <ele>518.4</ele>
        <time>1970-01-01T00:00:00Z</time>
      </trkpt>
      <trkpt lat="39.373872" lon="-5.363061">
        <ele>518.4</ele>
        <time>1970-01-01T00:00:00Z</time>
      </trkpt>
      <trkpt lat="39.373872" lon="-5.363061">
        <ele>518.4</ele>
        <time>1970-01-01T00:00:00Z</time>
      </trkpt>
      <trkpt lat="39.373872" lon="-5.363061">
        <ele>518.4</ele>
        <time>1970-01-01T00:00:00Z</time>
      </trkpt>
      <trkpt lat="39.373863" lon="-5.362962">
        <ele>518.3</ele>
        <time>1970-01-01T00:00:00Z</time>
      </trkpt>
      <trkpt lat="39.373863" lon="-5.362962">
        <ele>518.3</ele>
        <time>1970-01-01T00:00:00Z</time>
      </trkpt>
      <trkpt lat="39.373863" lon="-5.362962">
        <ele>518.3</ele>
        <time>1970-01-01T00:00:00Z</time>
      </trkpt>
      <trkpt lat="39.373863" lon="-5.362962">
        <ele>518.3</ele>
        <time>1970-01-01T00:00:00Z</time>
      </trkpt>
      <trkpt lat="39.373837" lon="-5.362822">
        <ele>518.0</ele>
        <time>1970-01-01T00:00:00Z</time>
      </trkpt>
      <trkpt lat="39.373837" lon="-5.362822">
        <ele>518.0</ele>
        <time>1970-01-01T00:00:00Z</time>
      </trkpt>
      <trkpt lat="39.373837" lon="-5.362822">
        <ele>518.0</ele>
        <time>1970-01-01T00:00:00Z</time>
      </trkpt>
      <trkpt lat="39.373837" lon="-5.362822">
        <ele>518.0</ele>
        <time>1970-01-01T00:00:00Z</time>
      </trkpt>
      <trkpt lat="39.373758" lon="-5.362611">
        <ele>518.0</ele>
        <time>1970-01-01T00:00:00Z</time>
      </trkpt>
      <trkpt lat="39.373758" lon="-5.362611">
        <ele>518.0</ele>
        <time>1970-01-01T00:00:00Z</time>
      </trkpt>
      <trkpt lat="39.373758" lon="-5.362611">
        <ele>518.0</ele>
        <time>1970-01-01T00:00:00Z</time>
      </trkpt>
      <trkpt lat="39.373758" lon="-5.362611">
        <ele>518.0</ele>
        <time>1970-01-01T00:00:00Z</time>
      </trkpt>
      <trkpt lat="39.373720" lon="-5.362493">
        <ele>518.0</ele>
        <time>1970-01-01T00:00:00Z</time>
      </trkpt>
      <trkpt lat="39.373720" lon="-5.362493">
        <ele>518.0</ele>
        <time>1970-01-01T00:00:00Z</time>
      </trkpt>
      <trkpt lat="39.373720" lon="-5.362493">
        <ele>518.0</ele>
        <time>1970-01-01T00:00:00Z</time>
      </trkpt>
      <trkpt lat="39.373720" lon="-5.362493">
        <ele>518.0</ele>
        <time>1970-01-01T00:00:00Z</time>
      </trkpt>
      <trkpt lat="39.373696" lon="-5.362326">
        <ele>518.0</ele>
        <time>1970-01-01T00:00:00Z</time>
      </trkpt>
      <trkpt lat="39.373696" lon="-5.362326">
        <ele>518.0</ele>
        <time>1970-01-01T00:00:00Z</time>
      </trkpt>
      <trkpt lat="39.373696" lon="-5.362326">
        <ele>518.0</ele>
        <time>1970-01-01T00:00:00Z</time>
      </trkpt>
      <trkpt lat="39.373696" lon="-5.362326">
        <ele>518.0</ele>
        <time>1970-01-01T00:00:00Z</time>
      </trkpt>
      <trkpt lat="39.373682" lon="-5.362121">
        <ele>518.0</ele>
        <time>1970-01-01T00:00:00Z</time>
      </trkpt>
      <trkpt lat="39.373682" lon="-5.362121">
        <ele>518.0</ele>
        <time>1970-01-01T00:00:00Z</time>
      </trkpt>
      <trkpt lat="39.373682" lon="-5.362121">
        <ele>518.0</ele>
        <time>1970-01-01T00:00:00Z</time>
      </trkpt>
      <trkpt lat="39.373682" lon="-5.362121">
        <ele>518.0</ele>
        <time>1970-01-01T00:00:00Z</time>
      </trkpt>
      <trkpt lat="39.373672" lon="-5.361888">
        <ele>518.0</ele>
        <time>1970-01-01T00:00:00Z</time>
      </trkpt>
      <trkpt lat="39.373672" lon="-5.361888">
        <ele>518.0</ele>
        <time>1970-01-01T00:00:00Z</time>
      </trkpt>
      <trkpt lat="39.373672" lon="-5.361888">
        <ele>518.0</ele>
        <time>1970-01-01T00:00:00Z</time>
      </trkpt>
      <trkpt lat="39.373672" lon="-5.361888">
        <ele>518.0</ele>
        <time>1970-01-01T00:00:00Z</time>
      </trkpt>
      <trkpt lat="39.373665" lon="-5.361651">
        <ele>517.7</ele>
        <time>1970-01-01T00:00:00Z</time>
      </trkpt>
      <trkpt lat="39.373665" lon="-5.361651">
        <ele>517.7</ele>
        <time>1970-01-01T00:00:00Z</time>
      </trkpt>
      <trkpt lat="39.373665" lon="-5.361651">
        <ele>517.7</ele>
        <time>1970-01-01T00:00:00Z</time>
      </trkpt>
      <trkpt lat="39.373665" lon="-5.361651">
        <ele>517.7</ele>
        <time>1970-01-01T00:00:00Z</time>
      </trkpt>
      <trkpt lat="39.373659" lon="-5.361485">
        <ele>517.2</ele>
        <time>1970-01-01T00:00:00Z</time>
      </trkpt>
      <trkpt lat="39.373659" lon="-5.361485">
        <ele>517.2</ele>
        <time>1970-01-01T00:00:00Z</time>
      </trkpt>
      <trkpt lat="39.373659" lon="-5.361485">
        <ele>517.2</ele>
        <time>1970-01-01T00:00:00Z</time>
      </trkpt>
      <trkpt lat="39.373659" lon="-5.361485">
        <ele>517.2</ele>
        <time>1970-01-01T00:00:00Z</time>
      </trkpt>
      <trkpt lat="39.373643" lon="-5.361347">
        <ele>516.8</ele>
        <time>1970-01-01T00:00:00Z</time>
      </trkpt>
      <trkpt lat="39.373643" lon="-5.361347">
        <ele>516.8</ele>
        <time>1970-01-01T00:00:00Z</time>
      </trkpt>
      <trkpt lat="39.373643" lon="-5.361347">
        <ele>516.8</ele>
        <time>1970-01-01T00:00:00Z</time>
      </trkpt>
      <trkpt lat="39.373643" lon="-5.361347">
        <ele>516.8</ele>
        <time>1970-01-01T00:00:00Z</time>
      </trkpt>
      <trkpt lat="39.373626" lon="-5.361152">
        <ele>516.4</ele>
        <time>1970-01-01T00:00:00Z</time>
      </trkpt>
      <trkpt lat="39.373626" lon="-5.361152">
        <ele>516.4</ele>
        <time>1970-01-01T00:00:00Z</time>
      </trkpt>
      <trkpt lat="39.373626" lon="-5.361152">
        <ele>516.4</ele>
        <time>1970-01-01T00:00:00Z</time>
      </trkpt>
      <trkpt lat="39.373626" lon="-5.361152">
        <ele>516.4</ele>
        <time>1970-01-01T00:00:00Z</time>
      </trkpt>
      <trkpt lat="39.373624" lon="-5.360989">
        <ele>516.1</ele>
        <time>1970-01-01T00:00:00Z</time>
      </trkpt>
      <trkpt lat="39.373624" lon="-5.360989">
        <ele>516.1</ele>
        <time>1970-01-01T00:00:00Z</time>
      </trkpt>
      <trkpt lat="39.373624" lon="-5.360989">
        <ele>516.1</ele>
        <time>1970-01-01T00:00:00Z</time>
      </trkpt>
      <trkpt lat="39.373624" lon="-5.360989">
        <ele>516.1</ele>
        <time>1970-01-01T00:00:00Z</time>
      </trkpt>
      <trkpt lat="39.373645" lon="-5.360837">
        <ele>516.0</ele>
        <time>1970-01-01T00:00:00Z</time>
      </trkpt>
      <trkpt lat="39.373645" lon="-5.360837">
        <ele>516.0</ele>
        <time>1970-01-01T00:00:00Z</time>
      </trkpt>
      <trkpt lat="39.373645" lon="-5.360837">
        <ele>516.0</ele>
        <time>1970-01-01T00:00:00Z</time>
      </trkpt>
      <trkpt lat="39.373645" lon="-5.360837">
        <ele>516.0</ele>
        <time>1970-01-01T00:00:00Z</time>
      </trkpt>
      <trkpt lat="39.373687" lon="-5.360675">
        <ele>516.0</ele>
        <time>1970-01-01T00:00:00Z</time>
      </trkpt>
      <trkpt lat="39.373687" lon="-5.360675">
        <ele>516.0</ele>
        <time>1970-01-01T00:00:00Z</time>
      </trkpt>
      <trkpt lat="39.373687" lon="-5.360675">
        <ele>516.0</ele>
        <time>1970-01-01T00:00:00Z</time>
      </trkpt>
      <trkpt lat="39.373687" lon="-5.360675">
        <ele>516.0</ele>
        <time>1970-01-01T00:00:00Z</time>
      </trkpt>
      <trkpt lat="39.373745" lon="-5.360557">
        <ele>516.0</ele>
        <time>1970-01-01T00:00:00Z</time>
      </trkpt>
      <trkpt lat="39.373745" lon="-5.360557">
        <ele>516.0</ele>
        <time>1970-01-01T00:00:00Z</time>
      </trkpt>
      <trkpt lat="39.373745" lon="-5.360557">
        <ele>516.0</ele>
        <time>1970-01-01T00:00:00Z</time>
      </trkpt>
      <trkpt lat="39.373745" lon="-5.360557">
        <ele>516.0</ele>
        <time>1970-01-01T00:00:00Z</time>
      </trkpt>
      <trkpt lat="39.373849" lon="-5.360444">
        <ele>516.6</ele>
        <time>1970-01-01T00:00:00Z</time>
      </trkpt>
      <trkpt lat="39.373849" lon="-5.360444">
        <ele>516.6</ele>
        <time>1970-01-01T00:00:00Z</time>
      </trkpt>
      <trkpt lat="39.373849" lon="-5.360444">
        <ele>516.6</ele>
        <time>1970-01-01T00:00:00Z</time>
      </trkpt>
      <trkpt lat="39.373849" lon="-5.360444">
        <ele>516.6</ele>
        <time>1970-01-01T00:00:00Z</time>
      </trkpt>
      <trkpt lat="39.373937" lon="-5.360361">
        <ele>517.4</ele>
        <time>1970-01-01T00:00:00Z</time>
      </trkpt>
      <trkpt lat="39.373937" lon="-5.360361">
        <ele>517.4</ele>
        <time>1970-01-01T00:00:00Z</time>
      </trkpt>
      <trkpt lat="39.373937" lon="-5.360361">
        <ele>517.4</ele>
        <time>1970-01-01T00:00:00Z</time>
      </trkpt>
      <trkpt lat="39.373937" lon="-5.360361">
        <ele>517.4</ele>
        <time>1970-01-01T00:00:00Z</time>
      </trkpt>
      <trkpt lat="39.373993" lon="-5.360316">
        <ele>517.9</ele>
        <time>1970-01-01T00:00:00Z</time>
      </trkpt>
      <trkpt lat="39.373993" lon="-5.360316">
        <ele>517.9</ele>
        <time>1970-01-01T00:00:00Z</time>
      </trkpt>
      <trkpt lat="39.373993" lon="-5.360316">
        <ele>517.9</ele>
        <time>1970-01-01T00:00:00Z</time>
      </trkpt>
      <trkpt lat="39.373993" lon="-5.360316">
        <ele>517.9</ele>
        <time>1970-01-01T00:00:00Z</time>
      </trkpt>
      <trkpt lat="39.374043" lon="-5.360309">
        <ele>518.2</ele>
        <time>1970-01-01T00:00:00Z</time>
      </trkpt>
      <trkpt lat="39.374043" lon="-5.360309">
        <ele>518.2</ele>
        <time>1970-01-01T00:00:00Z</time>
      </trkpt>
      <trkpt lat="39.374043" lon="-5.360309">
        <ele>518.2</ele>
        <time>1970-01-01T00:00:00Z</time>
      </trkpt>
      <trkpt lat="39.374043" lon="-5.360309">
        <ele>518.2</ele>
        <time>1970-01-01T00:00:00Z</time>
      </trkpt>
      <trkpt lat="39.374114" lon="-5.360305">
        <ele>518.5</ele>
        <time>1970-01-01T00:00:00Z</time>
      </trkpt>
      <trkpt lat="39.374114" lon="-5.360305">
        <ele>518.5</ele>
        <time>1970-01-01T00:00:00Z</time>
      </trkpt>
      <trkpt lat="39.374114" lon="-5.360305">
        <ele>518.5</ele>
        <time>1970-01-01T00:00:00Z</time>
      </trkpt>
      <trkpt lat="39.374114" lon="-5.360305">
        <ele>518.5</ele>
        <time>1970-01-01T00:00:00Z</time>
      </trkpt>
      <trkpt lat="39.374190" lon="-5.360336">
        <ele>518.7</ele>
        <time>1970-01-01T00:00:00Z</time>
      </trkpt>
      <trkpt lat="39.374190" lon="-5.360336">
        <ele>518.7</ele>
        <time>1970-01-01T00:00:00Z</time>
      </trkpt>
      <trkpt lat="39.374190" lon="-5.360336">
        <ele>518.7</ele>
        <time>1970-01-01T00:00:00Z</time>
      </trkpt>
      <trkpt lat="39.374190" lon="-5.360336">
        <ele>518.7</ele>
        <time>1970-01-01T00:00:00Z</time>
      </trkpt>
      <trkpt lat="39.374260" lon="-5.360335">
        <ele>519.3</ele>
        <time>1970-01-01T00:00:00Z</time>
      </trkpt>
      <trkpt lat="39.374260" lon="-5.360335">
        <ele>519.3</ele>
        <time>1970-01-01T00:00:00Z</time>
      </trkpt>
      <trkpt lat="39.374260" lon="-5.360335">
        <ele>519.3</ele>
        <time>1970-01-01T00:00:00Z</time>
      </trkpt>
      <trkpt lat="39.374260" lon="-5.360335">
        <ele>519.3</ele>
        <time>1970-01-01T00:00:00Z</time>
      </trkpt>
      <trkpt lat="39.374341" lon="-5.360295">
        <ele>520.1</ele>
        <time>1970-01-01T00:00:00Z</time>
      </trkpt>
      <trkpt lat="39.374341" lon="-5.360295">
        <ele>520.1</ele>
        <time>1970-01-01T00:00:00Z</time>
      </trkpt>
      <trkpt lat="39.374341" lon="-5.360295">
        <ele>520.1</ele>
        <time>1970-01-01T00:00:00Z</time>
      </trkpt>
      <trkpt lat="39.374341" lon="-5.360295">
        <ele>520.1</ele>
        <time>1970-01-01T00:00:00Z</time>
      </trkpt>
      <trkpt lat="39.374436" lon="-5.360212">
        <ele>521.3</ele>
        <time>1970-01-01T00:00:00Z</time>
      </trkpt>
      <trkpt lat="39.374436" lon="-5.360212">
        <ele>521.3</ele>
        <time>1970-01-01T00:00:00Z</time>
      </trkpt>
      <trkpt lat="39.374436" lon="-5.360212">
        <ele>521.3</ele>
        <time>1970-01-01T00:00:00Z</time>
      </trkpt>
      <trkpt lat="39.374436" lon="-5.360212">
        <ele>521.3</ele>
        <time>1970-01-01T00:00:00Z</time>
      </trkpt>
      <trkpt lat="39.374532" lon="-5.360117">
        <ele>522.1</ele>
        <time>1970-01-01T00:00:00Z</time>
      </trkpt>
      <trkpt lat="39.374532" lon="-5.360117">
        <ele>522.1</ele>
        <time>1970-01-01T00:00:00Z</time>
      </trkpt>
      <trkpt lat="39.374532" lon="-5.360117">
        <ele>522.1</ele>
        <time>1970-01-01T00:00:00Z</time>
      </trkpt>
      <trkpt lat="39.374532" lon="-5.360117">
        <ele>522.1</ele>
        <time>1970-01-01T00:00:00Z</time>
      </trkpt>
      <trkpt lat="39.374609" lon="-5.360019">
        <ele>522.9</ele>
        <time>1970-01-01T00:00:00Z</time>
      </trkpt>
      <trkpt lat="39.374609" lon="-5.360019">
        <ele>522.9</ele>
        <time>1970-01-01T00:00:00Z</time>
      </trkpt>
      <trkpt lat="39.374609" lon="-5.360019">
        <ele>522.9</ele>
        <time>1970-01-01T00:00:00Z</time>
      </trkpt>
      <trkpt lat="39.374609" lon="-5.360019">
        <ele>522.9</ele>
        <time>1970-01-01T00:00:00Z</time>
      </trkpt>
      <trkpt lat="39.374667" lon="-5.359908">
        <ele>523.6</ele>
        <time>1970-01-01T00:00:00Z</time>
      </trkpt>
      <trkpt lat="39.374667" lon="-5.359908">
        <ele>523.6</ele>
        <time>1970-01-01T00:00:00Z</time>
      </trkpt>
      <trkpt lat="39.374667" lon="-5.359908">
        <ele>523.6</ele>
        <time>1970-01-01T00:00:00Z</time>
      </trkpt>
      <trkpt lat="39.374667" lon="-5.359908">
        <ele>523.6</ele>
        <time>1970-01-01T00:00:00Z</time>
      </trkpt>
      <trkpt lat="39.374791" lon="-5.359823">
        <ele>525.1</ele>
        <time>1970-01-01T00:00:00Z</time>
      </trkpt>
      <trkpt lat="39.374791" lon="-5.359823">
        <ele>525.1</ele>
        <time>1970-01-01T00:00:00Z</time>
      </trkpt>
      <trkpt lat="39.374791" lon="-5.359823">
        <ele>525.1</ele>
        <time>1970-01-01T00:00:00Z</time>
      </trkpt>
      <trkpt lat="39.374791" lon="-5.359823">
        <ele>525.1</ele>
        <time>1970-01-01T00:00:00Z</time>
      </trkpt>
      <trkpt lat="39.374824" lon="-5.359764">
        <ele>525.5</ele>
        <time>1970-01-01T00:00:00Z</time>
      </trkpt>
      <trkpt lat="39.374824" lon="-5.359764">
        <ele>525.5</ele>
        <time>1970-01-01T00:00:00Z</time>
      </trkpt>
      <trkpt lat="39.374824" lon="-5.359764">
        <ele>525.5</ele>
        <time>1970-01-01T00:00:00Z</time>
      </trkpt>
      <trkpt lat="39.374824" lon="-5.359764">
        <ele>525.5</ele>
        <time>1970-01-01T00:00:00Z</time>
      </trkpt>
      <trkpt lat="39.374823" lon="-5.359712">
        <ele>525.5</ele>
        <time>1970-01-01T00:00:00Z</time>
      </trkpt>
      <trkpt lat="39.374823" lon="-5.359712">
        <ele>525.5</ele>
        <time>1970-01-01T00:00:00Z</time>
      </trkpt>
      <trkpt lat="39.374823" lon="-5.359712">
        <ele>525.5</ele>
        <time>1970-01-01T00:00:00Z</time>
      </trkpt>
      <trkpt lat="39.374823" lon="-5.359712">
        <ele>525.5</ele>
        <time>1970-01-01T00:00:00Z</time>
      </trkpt>
      <trkpt lat="39.374800" lon="-5.359644">
        <ele>525.5</ele>
        <time>1970-01-01T00:00:00Z</time>
      </trkpt>
      <trkpt lat="39.374800" lon="-5.359644">
        <ele>525.5</ele>
        <time>1970-01-01T00:00:00Z</time>
      </trkpt>
      <trkpt lat="39.374800" lon="-5.359644">
        <ele>525.5</ele>
        <time>1970-01-01T00:00:00Z</time>
      </trkpt>
      <trkpt lat="39.374800" lon="-5.359644">
        <ele>525.5</ele>
        <time>1970-01-01T00:00:00Z</time>
      </trkpt>
      <trkpt lat="39.374807" lon="-5.359538">
        <ele>525.8</ele>
        <time>1970-01-01T00:00:00Z</time>
      </trkpt>
      <trkpt lat="39.374807" lon="-5.359538">
        <ele>525.8</ele>
        <time>1970-01-01T00:00:00Z</time>
      </trkpt>
      <trkpt lat="39.374807" lon="-5.359538">
        <ele>525.8</ele>
        <time>1970-01-01T00:00:00Z</time>
      </trkpt>
      <trkpt lat="39.374807" lon="-5.359538">
        <ele>525.8</ele>
        <time>1970-01-01T00:00:00Z</time>
      </trkpt>
      <trkpt lat="39.374875" lon="-5.359464">
        <ele>526.4</ele>
        <time>1970-01-01T00:00:00Z</time>
      </trkpt>
      <trkpt lat="39.374875" lon="-5.359464">
        <ele>526.4</ele>
        <time>1970-01-01T00:00:00Z</time>
      </trkpt>
      <trkpt lat="39.374875" lon="-5.359464">
        <ele>526.4</ele>
        <time>1970-01-01T00:00:00Z</time>
      </trkpt>
      <trkpt lat="39.374875" lon="-5.359464">
        <ele>526.4</ele>
        <time>1970-01-01T00:00:00Z</time>
      </trkpt>
      <trkpt lat="39.375122" lon="-5.359266">
        <ele>528.3</ele>
        <time>1970-01-01T00:00:00Z</time>
      </trkpt>
      <trkpt lat="39.375122" lon="-5.359266">
        <ele>528.3</ele>
        <time>1970-01-01T00:00:00Z</time>
      </trkpt>
      <trkpt lat="39.375122" lon="-5.359266">
        <ele>528.3</ele>
        <time>1970-01-01T00:00:00Z</time>
      </trkpt>
      <trkpt lat="39.375122" lon="-5.359266">
        <ele>528.3</ele>
        <time>1970-01-01T00:00:00Z</time>
      </trkpt>
      <trkpt lat="39.375325" lon="-5.359040">
        <ele>529.0</ele>
        <time>1970-01-01T00:00:00Z</time>
      </trkpt>
      <trkpt lat="39.375325" lon="-5.359040">
        <ele>529.0</ele>
        <time>1970-01-01T00:00:00Z</time>
      </trkpt>
      <trkpt lat="39.375325" lon="-5.359040">
        <ele>529.0</ele>
        <time>1970-01-01T00:00:00Z</time>
      </trkpt>
      <trkpt lat="39.375325" lon="-5.359040">
        <ele>529.0</ele>
        <time>1970-01-01T00:00:00Z</time>
      </trkpt>
      <trkpt lat="39.375479" lon="-5.358780">
        <ele>529.8</ele>
        <time>1970-01-01T00:00:00Z</time>
      </trkpt>
      <trkpt lat="39.375479" lon="-5.358780">
        <ele>529.8</ele>
        <time>1970-01-01T00:00:00Z</time>
      </trkpt>
      <trkpt lat="39.375479" lon="-5.358780">
        <ele>529.8</ele>
        <time>1970-01-01T00:00:00Z</time>
      </trkpt>
      <trkpt lat="39.375479" lon="-5.358780">
        <ele>529.8</ele>
        <time>1970-01-01T00:00:00Z</time>
      </trkpt>
      <trkpt lat="39.375582" lon="-5.358612">
        <ele>531.1</ele>
        <time>1970-01-01T00:00:00Z</time>
      </trkpt>
      <trkpt lat="39.375582" lon="-5.358612">
        <ele>531.1</ele>
        <time>1970-01-01T00:00:00Z</time>
      </trkpt>
      <trkpt lat="39.375582" lon="-5.358612">
        <ele>531.1</ele>
        <time>1970-01-01T00:00:00Z</time>
      </trkpt>
      <trkpt lat="39.375582" lon="-5.358612">
        <ele>531.1</ele>
        <time>1970-01-01T00:00:00Z</time>
      </trkpt>
      <trkpt lat="39.375763" lon="-5.358379">
        <ele>531.4</ele>
        <time>1970-01-01T00:00:00Z</time>
      </trkpt>
      <trkpt lat="39.375763" lon="-5.358379">
        <ele>531.4</ele>
        <time>1970-01-01T00:00:00Z</time>
      </trkpt>
      <trkpt lat="39.375763" lon="-5.358379">
        <ele>531.4</ele>
        <time>1970-01-01T00:00:00Z</time>
      </trkpt>
      <trkpt lat="39.375763" lon="-5.358379">
        <ele>531.4</ele>
        <time>1970-01-01T00:00:00Z</time>
      </trkpt>
      <trkpt lat="39.376127" lon="-5.357943">
        <ele>533.1</ele>
        <time>1970-01-01T00:00:00Z</time>
      </trkpt>
      <trkpt lat="39.376127" lon="-5.357943">
        <ele>533.1</ele>
        <time>1970-01-01T00:00:00Z</time>
      </trkpt>
      <trkpt lat="39.376127" lon="-5.357943">
        <ele>533.1</ele>
        <time>1970-01-01T00:00:00Z</time>
      </trkpt>
      <trkpt lat="39.376127" lon="-5.357943">
        <ele>533.1</ele>
        <time>1970-01-01T00:00:00Z</time>
      </trkpt>
      <trkpt lat="39.376234" lon="-5.357836">
        <ele>533.6</ele>
        <time>1970-01-01T00:00:00Z</time>
      </trkpt>
      <trkpt lat="39.376234" lon="-5.357836">
        <ele>533.6</ele>
        <time>1970-01-01T00:00:00Z</time>
      </trkpt>
      <trkpt lat="39.376234" lon="-5.357836">
        <ele>533.6</ele>
        <time>1970-01-01T00:00:00Z</time>
      </trkpt>
      <trkpt lat="39.376234" lon="-5.357836">
        <ele>533.6</ele>
        <time>1970-01-01T00:00:00Z</time>
      </trkpt>
      <trkpt lat="39.376337" lon="-5.357520">
        <ele>534.8</ele>
        <time>1970-01-01T00:00:00Z</time>
      </trkpt>
      <trkpt lat="39.376337" lon="-5.357520">
        <ele>534.8</ele>
        <time>1970-01-01T00:00:00Z</time>
      </trkpt>
      <trkpt lat="39.376337" lon="-5.357520">
        <ele>534.8</ele>
        <time>1970-01-01T00:00:00Z</time>
      </trkpt>
      <trkpt lat="39.376337" lon="-5.357520">
        <ele>534.8</ele>
        <time>1970-01-01T00:00:00Z</time>
      </trkpt>
      <trkpt lat="39.376375" lon="-5.357346">
        <ele>536.2</ele>
        <time>1970-01-01T00:00:00Z</time>
      </trkpt>
      <trkpt lat="39.376375" lon="-5.357346">
        <ele>536.2</ele>
        <time>1970-01-01T00:00:00Z</time>
      </trkpt>
      <trkpt lat="39.376375" lon="-5.357346">
        <ele>536.2</ele>
        <time>1970-01-01T00:00:00Z</time>
      </trkpt>
      <trkpt lat="39.376375" lon="-5.357346">
        <ele>536.2</ele>
        <time>1970-01-01T00:00:00Z</time>
      </trkpt>
      <trkpt lat="39.376397" lon="-5.357179">
        <ele>537.3</ele>
        <time>1970-01-01T00:00:00Z</time>
      </trkpt>
      <trkpt lat="39.376397" lon="-5.357179">
        <ele>537.3</ele>
        <time>1970-01-01T00:00:00Z</time>
      </trkpt>
      <trkpt lat="39.376397" lon="-5.357179">
        <ele>537.3</ele>
        <time>1970-01-01T00:00:00Z</time>
      </trkpt>
      <trkpt lat="39.376397" lon="-5.357179">
        <ele>537.3</ele>
        <time>1970-01-01T00:00:00Z</time>
      </trkpt>
      <trkpt lat="39.376427" lon="-5.357028">
        <ele>538.0</ele>
        <time>1970-01-01T00:00:00Z</time>
      </trkpt>
      <trkpt lat="39.376427" lon="-5.357028">
        <ele>538.0</ele>
        <time>1970-01-01T00:00:00Z</time>
      </trkpt>
      <trkpt lat="39.376427" lon="-5.357028">
        <ele>538.0</ele>
        <time>1970-01-01T00:00:00Z</time>
      </trkpt>
      <trkpt lat="39.376427" lon="-5.357028">
        <ele>538.0</ele>
        <time>1970-01-01T00:00:00Z</time>
      </trkpt>
      <trkpt lat="39.376488" lon="-5.356907">
        <ele>538.0</ele>
        <time>1970-01-01T00:00:00Z</time>
      </trkpt>
      <trkpt lat="39.376488" lon="-5.356907">
        <ele>538.0</ele>
        <time>1970-01-01T00:00:00Z</time>
      </trkpt>
      <trkpt lat="39.376488" lon="-5.356907">
        <ele>538.0</ele>
        <time>1970-01-01T00:00:00Z</time>
      </trkpt>
      <trkpt lat="39.376488" lon="-5.356907">
        <ele>538.0</ele>
        <time>1970-01-01T00:00:00Z</time>
      </trkpt>
      <trkpt lat="39.376571" lon="-5.356761">
        <ele>538.4</ele>
        <time>1970-01-01T00:00:00Z</time>
      </trkpt>
      <trkpt lat="39.376571" lon="-5.356761">
        <ele>538.4</ele>
        <time>1970-01-01T00:00:00Z</time>
      </trkpt>
      <trkpt lat="39.376571" lon="-5.356761">
        <ele>538.4</ele>
        <time>1970-01-01T00:00:00Z</time>
      </trkpt>
      <trkpt lat="39.376571" lon="-5.356761">
        <ele>538.4</ele>
        <time>1970-01-01T00:00:00Z</time>
      </trkpt>
      <trkpt lat="39.376633" lon="-5.356617">
        <ele>538.9</ele>
        <time>1970-01-01T00:00:00Z</time>
      </trkpt>
      <trkpt lat="39.376633" lon="-5.356617">
        <ele>538.9</ele>
        <time>1970-01-01T00:00:00Z</time>
      </trkpt>
      <trkpt lat="39.376633" lon="-5.356617">
        <ele>538.9</ele>
        <time>1970-01-01T00:00:00Z</time>
      </trkpt>
      <trkpt lat="39.376633" lon="-5.356617">
        <ele>538.9</ele>
        <time>1970-01-01T00:00:00Z</time>
      </trkpt>
      <trkpt lat="39.376638" lon="-5.356464">
        <ele>539.2</ele>
        <time>1970-01-01T00:00:00Z</time>
      </trkpt>
      <trkpt lat="39.376638" lon="-5.356464">
        <ele>539.2</ele>
        <time>1970-01-01T00:00:00Z</time>
      </trkpt>
      <trkpt lat="39.376638" lon="-5.356464">
        <ele>539.2</ele>
        <time>1970-01-01T00:00:00Z</time>
      </trkpt>
      <trkpt lat="39.376638" lon="-5.356464">
        <ele>539.2</ele>
        <time>1970-01-01T00:00:00Z</time>
      </trkpt>
      <trkpt lat="39.376622" lon="-5.356242">
        <ele>539.7</ele>
        <time>1970-01-01T00:00:00Z</time>
      </trkpt>
      <trkpt lat="39.376622" lon="-5.356242">
        <ele>539.7</ele>
        <time>1970-01-01T00:00:00Z</time>
      </trkpt>
      <trkpt lat="39.376622" lon="-5.356242">
        <ele>539.7</ele>
        <time>1970-01-01T00:00:00Z</time>
      </trkpt>
      <trkpt lat="39.376622" lon="-5.356242">
        <ele>539.7</ele>
        <time>1970-01-01T00:00:00Z</time>
      </trkpt>
      <trkpt lat="39.376648" lon="-5.355998">
        <ele>540.1</ele>
        <time>1970-01-01T00:00:00Z</time>
      </trkpt>
      <trkpt lat="39.376648" lon="-5.355998">
        <ele>540.1</ele>
        <time>1970-01-01T00:00:00Z</time>
      </trkpt>
      <trkpt lat="39.376648" lon="-5.355998">
        <ele>540.1</ele>
        <time>1970-01-01T00:00:00Z</time>
      </trkpt>
      <trkpt lat="39.376648" lon="-5.355998">
        <ele>540.1</ele>
        <time>1970-01-01T00:00:00Z</time>
      </trkpt>
      <trkpt lat="39.376678" lon="-5.355682">
        <ele>540.4</ele>
        <time>1970-01-01T00:00:00Z</time>
      </trkpt>
      <trkpt lat="39.376678" lon="-5.355682">
        <ele>540.4</ele>
        <time>1970-01-01T00:00:00Z</time>
      </trkpt>
      <trkpt lat="39.376678" lon="-5.355682">
        <ele>540.4</ele>
        <time>1970-01-01T00:00:00Z</time>
      </trkpt>
      <trkpt lat="39.376678" lon="-5.355682">
        <ele>540.4</ele>
        <time>1970-01-01T00:00:00Z</time>
      </trkpt>
      <trkpt lat="39.376658" lon="-5.355357">
        <ele>540.3</ele>
        <time>1970-01-01T00:00:00Z</time>
      </trkpt>
      <trkpt lat="39.376658" lon="-5.355357">
        <ele>540.3</ele>
        <time>1970-01-01T00:00:00Z</time>
      </trkpt>
      <trkpt lat="39.376658" lon="-5.355357">
        <ele>540.3</ele>
        <time>1970-01-01T00:00:00Z</time>
      </trkpt>
      <trkpt lat="39.376658" lon="-5.355357">
        <ele>540.3</ele>
        <time>1970-01-01T00:00:00Z</time>
      </trkpt>
      <trkpt lat="39.376655" lon="-5.355247">
        <ele>540.3</ele>
        <time>1970-01-01T00:00:00Z</time>
      </trkpt>
      <trkpt lat="39.376655" lon="-5.355247">
        <ele>540.3</ele>
        <time>1970-01-01T00:00:00Z</time>
      </trkpt>
      <trkpt lat="39.376655" lon="-5.355247">
        <ele>540.3</ele>
        <time>1970-01-01T00:00:00Z</time>
      </trkpt>
      <trkpt lat="39.376655" lon="-5.355247">
        <ele>540.3</ele>
        <time>1970-01-01T00:00:00Z</time>
      </trkpt>
      <trkpt lat="39.376686" lon="-5.355140">
        <ele>540.5</ele>
        <time>1970-01-01T00:00:00Z</time>
      </trkpt>
      <trkpt lat="39.376686" lon="-5.355140">
        <ele>540.5</ele>
        <time>1970-01-01T00:00:00Z</time>
      </trkpt>
      <trkpt lat="39.376686" lon="-5.355140">
        <ele>540.5</ele>
        <time>1970-01-01T00:00:00Z</time>
      </trkpt>
      <trkpt lat="39.376686" lon="-5.355140">
        <ele>540.5</ele>
        <time>1970-01-01T00:00:00Z</time>
      </trkpt>
      <trkpt lat="39.376731" lon="-5.355034">
        <ele>540.9</ele>
        <time>1970-01-01T00:00:00Z</time>
      </trkpt>
      <trkpt lat="39.376731" lon="-5.355034">
        <ele>540.9</ele>
        <time>1970-01-01T00:00:00Z</time>
      </trkpt>
      <trkpt lat="39.376731" lon="-5.355034">
        <ele>540.9</ele>
        <time>1970-01-01T00:00:00Z</time>
      </trkpt>
      <trkpt lat="39.376731" lon="-5.355034">
        <ele>540.9</ele>
        <time>1970-01-01T00:00:00Z</time>
      </trkpt>
      <trkpt lat="39.376747" lon="-5.354916">
        <ele>541.2</ele>
        <time>1970-01-01T00:00:00Z</time>
      </trkpt>
      <trkpt lat="39.376747" lon="-5.354916">
        <ele>541.2</ele>
        <time>1970-01-01T00:00:00Z</time>
      </trkpt>
      <trkpt lat="39.376747" lon="-5.354916">
        <ele>541.2</ele>
        <time>1970-01-01T00:00:00Z</time>
      </trkpt>
      <trkpt lat="39.376747" lon="-5.354916">
        <ele>541.2</ele>
        <time>1970-01-01T00:00:00Z</time>
      </trkpt>
      <trkpt lat="39.376721" lon="-5.354842">
        <ele>541.3</ele>
        <time>1970-01-01T00:00:00Z</time>
      </trkpt>
      <trkpt lat="39.376721" lon="-5.354842">
        <ele>541.3</ele>
        <time>1970-01-01T00:00:00Z</time>
      </trkpt>
      <trkpt lat="39.376721" lon="-5.354842">
        <ele>541.3</ele>
        <time>1970-01-01T00:00:00Z</time>
      </trkpt>
      <trkpt lat="39.376721" lon="-5.354842">
        <ele>541.3</ele>
        <time>1970-01-01T00:00:00Z</time>
      </trkpt>
      <trkpt lat="39.376541" lon="-5.354700">
        <ele>540.3</ele>
        <time>1970-01-01T00:00:00Z</time>
      </trkpt>
      <trkpt lat="39.376541" lon="-5.354700">
        <ele>540.3</ele>
        <time>1970-01-01T00:00:00Z</time>
      </trkpt>
      <trkpt lat="39.376541" lon="-5.354700">
        <ele>540.3</ele>
        <time>1970-01-01T00:00:00Z</time>
      </trkpt>
      <trkpt lat="39.376541" lon="-5.354700">
        <ele>540.3</ele>
        <time>1970-01-01T00:00:00Z</time>
      </trkpt>
      <trkpt lat="39.376433" lon="-5.354578">
        <ele>539.9</ele>
        <time>1970-01-01T00:00:00Z</time>
      </trkpt>
      <trkpt lat="39.376433" lon="-5.354578">
        <ele>539.9</ele>
        <time>1970-01-01T00:00:00Z</time>
      </trkpt>
      <trkpt lat="39.376433" lon="-5.354578">
        <ele>539.9</ele>
        <time>1970-01-01T00:00:00Z</time>
      </trkpt>
      <trkpt lat="39.376433" lon="-5.354578">
        <ele>539.9</ele>
        <time>1970-01-01T00:00:00Z</time>
      </trkpt>
      <trkpt lat="39.376351" lon="-5.354442">
        <ele>539.8</ele>
        <time>1970-01-01T00:00:00Z</time>
      </trkpt>
      <trkpt lat="39.376351" lon="-5.354442">
        <ele>539.8</ele>
        <time>1970-01-01T00:00:00Z</time>
      </trkpt>
      <trkpt lat="39.376351" lon="-5.354442">
        <ele>539.8</ele>
        <time>1970-01-01T00:00:00Z</time>
      </trkpt>
      <trkpt lat="39.376351" lon="-5.354442">
        <ele>539.8</ele>
        <time>1970-01-01T00:00:00Z</time>
      </trkpt>
      <trkpt lat="39.376235" lon="-5.354046">
        <ele>540.7</ele>
        <time>1970-01-01T00:00:00Z</time>
      </trkpt>
      <trkpt lat="39.376235" lon="-5.354046">
        <ele>540.7</ele>
        <time>1970-01-01T00:00:00Z</time>
      </trkpt>
      <trkpt lat="39.376235" lon="-5.354046">
        <ele>540.7</ele>
        <time>1970-01-01T00:00:00Z</time>
      </trkpt>
      <trkpt lat="39.376235" lon="-5.354046">
        <ele>540.7</ele>
        <time>1970-01-01T00:00:00Z</time>
      </trkpt>
      <trkpt lat="39.376110" lon="-5.353391">
        <ele>545.4</ele>
        <time>1970-01-01T00:00:00Z</time>
      </trkpt>
      <trkpt lat="39.376110" lon="-5.353391">
        <ele>545.4</ele>
        <time>1970-01-01T00:00:00Z</time>
      </trkpt>
      <trkpt lat="39.376110" lon="-5.353391">
        <ele>545.4</ele>
        <time>1970-01-01T00:00:00Z</time>
      </trkpt>
      <trkpt lat="39.376110" lon="-5.353391">
        <ele>545.4</ele>
        <time>1970-01-01T00:00:00Z</time>
      </trkpt>
      <trkpt lat="39.376017" lon="-5.353044">
        <ele>548.1</ele>
        <time>1970-01-01T00:00:00Z</time>
      </trkpt>
      <trkpt lat="39.376017" lon="-5.353044">
        <ele>548.1</ele>
        <time>1970-01-01T00:00:00Z</time>
      </trkpt>
      <trkpt lat="39.376017" lon="-5.353044">
        <ele>548.1</ele>
        <time>1970-01-01T00:00:00Z</time>
      </trkpt>
      <trkpt lat="39.376017" lon="-5.353044">
        <ele>548.1</ele>
        <time>1970-01-01T00:00:00Z</time>
      </trkpt>
      <trkpt lat="39.375960" lon="-5.352903">
        <ele>548.9</ele>
        <time>1970-01-01T00:00:00Z</time>
      </trkpt>
      <trkpt lat="39.375960" lon="-5.352903">
        <ele>548.9</ele>
        <time>1970-01-01T00:00:00Z</time>
      </trkpt>
      <trkpt lat="39.375960" lon="-5.352903">
        <ele>548.9</ele>
        <time>1970-01-01T00:00:00Z</time>
      </trkpt>
      <trkpt lat="39.375960" lon="-5.352903">
        <ele>548.9</ele>
        <time>1970-01-01T00:00:00Z</time>
      </trkpt>
      <trkpt lat="39.375839" lon="-5.352741">
        <ele>549.3</ele>
        <time>1970-01-01T00:00:00Z</time>
      </trkpt>
      <trkpt lat="39.375839" lon="-5.352741">
        <ele>549.3</ele>
        <time>1970-01-01T00:00:00Z</time>
      </trkpt>
      <trkpt lat="39.375839" lon="-5.352741">
        <ele>549.3</ele>
        <time>1970-01-01T00:00:00Z</time>
      </trkpt>
      <trkpt lat="39.375839" lon="-5.352741">
        <ele>549.3</ele>
        <time>1970-01-01T00:00:00Z</time>
      </trkpt>
      <trkpt lat="39.375603" lon="-5.352374">
        <ele>550.3</ele>
        <time>1970-01-01T00:00:00Z</time>
      </trkpt>
      <trkpt lat="39.375603" lon="-5.352374">
        <ele>550.3</ele>
        <time>1970-01-01T00:00:00Z</time>
      </trkpt>
      <trkpt lat="39.375603" lon="-5.352374">
        <ele>550.3</ele>
        <time>1970-01-01T00:00:00Z</time>
      </trkpt>
      <trkpt lat="39.375603" lon="-5.352374">
        <ele>550.3</ele>
        <time>1970-01-01T00:00:00Z</time>
      </trkpt>
      <trkpt lat="39.375519" lon="-5.352195">
        <ele>550.3</ele>
        <time>1970-01-01T00:00:00Z</time>
      </trkpt>
      <trkpt lat="39.375519" lon="-5.352195">
        <ele>550.3</ele>
        <time>1970-01-01T00:00:00Z</time>
      </trkpt>
      <trkpt lat="39.375519" lon="-5.352195">
        <ele>550.3</ele>
        <time>1970-01-01T00:00:00Z</time>
      </trkpt>
      <trkpt lat="39.375519" lon="-5.352195">
        <ele>550.3</ele>
        <time>1970-01-01T00:00:00Z</time>
      </trkpt>
      <trkpt lat="39.375441" lon="-5.352010">
        <ele>551.1</ele>
        <time>1970-01-01T00:00:00Z</time>
      </trkpt>
      <trkpt lat="39.375441" lon="-5.352010">
        <ele>551.1</ele>
        <time>1970-01-01T00:00:00Z</time>
      </trkpt>
      <trkpt lat="39.375441" lon="-5.352010">
        <ele>551.1</ele>
        <time>1970-01-01T00:00:00Z</time>
      </trkpt>
      <trkpt lat="39.375441" lon="-5.352010">
        <ele>551.1</ele>
        <time>1970-01-01T00:00:00Z</time>
      </trkpt>
      <trkpt lat="39.375275" lon="-5.351741">
        <ele>552.4</ele>
        <time>1970-01-01T00:00:00Z</time>
      </trkpt>
      <trkpt lat="39.375275" lon="-5.351741">
        <ele>552.4</ele>
        <time>1970-01-01T00:00:00Z</time>
      </trkpt>
      <trkpt lat="39.375275" lon="-5.351741">
        <ele>552.4</ele>
        <time>1970-01-01T00:00:00Z</time>
      </trkpt>
      <trkpt lat="39.375275" lon="-5.351741">
        <ele>552.4</ele>
        <time>1970-01-01T00:00:00Z</time>
      </trkpt>
      <trkpt lat="39.375151" lon="-5.351522">
        <ele>554.4</ele>
        <time>1970-01-01T00:00:00Z</time>
      </trkpt>
      <trkpt lat="39.375151" lon="-5.351522">
        <ele>554.4</ele>
        <time>1970-01-01T00:00:00Z</time>
      </trkpt>
      <trkpt lat="39.375151" lon="-5.351522">
        <ele>554.4</ele>
        <time>1970-01-01T00:00:00Z</time>
      </trkpt>
      <trkpt lat="39.375151" lon="-5.351522">
        <ele>554.4</ele>
        <time>1970-01-01T00:00:00Z</time>
      </trkpt>
      <trkpt lat="39.375066" lon="-5.351383">
        <ele>556.1</ele>
        <time>1970-01-01T00:00:00Z</time>
      </trkpt>
      <trkpt lat="39.375066" lon="-5.351383">
        <ele>556.1</ele>
        <time>1970-01-01T00:00:00Z</time>
      </trkpt>
      <trkpt lat="39.375066" lon="-5.351383">
        <ele>556.1</ele>
        <time>1970-01-01T00:00:00Z</time>
      </trkpt>
      <trkpt lat="39.375066" lon="-5.351383">
        <ele>556.1</ele>
        <time>1970-01-01T00:00:00Z</time>
      </trkpt>
      <trkpt lat="39.374949" lon="-5.351217">
        <ele>558.3</ele>
        <time>1970-01-01T00:00:00Z</time>
      </trkpt>
      <trkpt lat="39.374949" lon="-5.351217">
        <ele>558.3</ele>
        <time>1970-01-01T00:00:00Z</time>
      </trkpt>
      <trkpt lat="39.374949" lon="-5.351217">
        <ele>558.3</ele>
        <time>1970-01-01T00:00:00Z</time>
      </trkpt>
      <trkpt lat="39.374949" lon="-5.351217">
        <ele>558.3</ele>
        <time>1970-01-01T00:00:00Z</time>
      </trkpt>
      <trkpt lat="39.374796" lon="-5.350997">
        <ele>561.1</ele>
        <time>1970-01-01T00:00:00Z</time>
      </trkpt>
      <trkpt lat="39.374796" lon="-5.350997">
        <ele>561.1</ele>
        <time>1970-01-01T00:00:00Z</time>
      </trkpt>
      <trkpt lat="39.374796" lon="-5.350997">
        <ele>561.1</ele>
        <time>1970-01-01T00:00:00Z</time>
      </trkpt>
      <trkpt lat="39.374796" lon="-5.350997">
        <ele>561.1</ele>
        <time>1970-01-01T00:00:00Z</time>
      </trkpt>
      <trkpt lat="39.374694" lon="-5.350853">
        <ele>561.8</ele>
        <time>1970-01-01T00:00:00Z</time>
      </trkpt>
      <trkpt lat="39.374694" lon="-5.350853">
        <ele>561.8</ele>
        <time>1970-01-01T00:00:00Z</time>
      </trkpt>
      <trkpt lat="39.374694" lon="-5.350853">
        <ele>561.8</ele>
        <time>1970-01-01T00:00:00Z</time>
      </trkpt>
      <trkpt lat="39.374694" lon="-5.350853">
        <ele>561.8</ele>
        <time>1970-01-01T00:00:00Z</time>
      </trkpt>
      <trkpt lat="39.374518" lon="-5.350485">
        <ele>565.0</ele>
        <time>1970-01-01T00:00:00Z</time>
      </trkpt>
      <trkpt lat="39.374518" lon="-5.350485">
        <ele>565.0</ele>
        <time>1970-01-01T00:00:00Z</time>
      </trkpt>
      <trkpt lat="39.374518" lon="-5.350485">
        <ele>565.0</ele>
        <time>1970-01-01T00:00:00Z</time>
      </trkpt>
      <trkpt lat="39.374518" lon="-5.350485">
        <ele>565.0</ele>
        <time>1970-01-01T00:00:00Z</time>
      </trkpt>
      <trkpt lat="39.374391" lon="-5.350158">
        <ele>567.9</ele>
        <time>1970-01-01T00:00:00Z</time>
      </trkpt>
      <trkpt lat="39.374391" lon="-5.350158">
        <ele>567.9</ele>
        <time>1970-01-01T00:00:00Z</time>
      </trkpt>
      <trkpt lat="39.374391" lon="-5.350158">
        <ele>567.9</ele>
        <time>1970-01-01T00:00:00Z</time>
      </trkpt>
      <trkpt lat="39.374391" lon="-5.350158">
        <ele>567.9</ele>
        <time>1970-01-01T00:00:00Z</time>
      </trkpt>
      <trkpt lat="39.374302" lon="-5.350019">
        <ele>569.0</ele>
        <time>1970-01-01T00:00:00Z</time>
      </trkpt>
      <trkpt lat="39.374302" lon="-5.350019">
        <ele>569.0</ele>
        <time>1970-01-01T00:00:00Z</time>
      </trkpt>
      <trkpt lat="39.374302" lon="-5.350019">
        <ele>569.0</ele>
        <time>1970-01-01T00:00:00Z</time>
      </trkpt>
      <trkpt lat="39.374302" lon="-5.350019">
        <ele>569.0</ele>
        <time>1970-01-01T00:00:00Z</time>
      </trkpt>
      <trkpt lat="39.374159" lon="-5.349862">
        <ele>569.8</ele>
        <time>1970-01-01T00:00:00Z</time>
      </trkpt>
      <trkpt lat="39.374159" lon="-5.349862">
        <ele>569.8</ele>
        <time>1970-01-01T00:00:00Z</time>
      </trkpt>
      <trkpt lat="39.374159" lon="-5.349862">
        <ele>569.8</ele>
        <time>1970-01-01T00:00:00Z</time>
      </trkpt>
      <trkpt lat="39.374159" lon="-5.349862">
        <ele>569.8</ele>
        <time>1970-01-01T00:00:00Z</time>
      </trkpt>
      <trkpt lat="39.374062" lon="-5.349722">
        <ele>569.4</ele>
        <time>1970-01-01T00:00:00Z</time>
      </trkpt>
      <trkpt lat="39.374062" lon="-5.349722">
        <ele>569.4</ele>
        <time>1970-01-01T00:00:00Z</time>
      </trkpt>
      <trkpt lat="39.374062" lon="-5.349722">
        <ele>569.4</ele>
        <time>1970-01-01T00:00:00Z</time>
      </trkpt>
      <trkpt lat="39.374062" lon="-5.349722">
        <ele>569.4</ele>
        <time>1970-01-01T00:00:00Z</time>
      </trkpt>
      <trkpt lat="39.373936" lon="-5.349544">
        <ele>569.3</ele>
        <time>1970-01-01T00:00:00Z</time>
      </trkpt>
      <trkpt lat="39.373936" lon="-5.349544">
        <ele>569.3</ele>
        <time>1970-01-01T00:00:00Z</time>
      </trkpt>
      <trkpt lat="39.373936" lon="-5.349544">
        <ele>569.3</ele>
        <time>1970-01-01T00:00:00Z</time>
      </trkpt>
      <trkpt lat="39.373936" lon="-5.349544">
        <ele>569.3</ele>
        <time>1970-01-01T00:00:00Z</time>
      </trkpt>
      <trkpt lat="39.373849" lon="-5.349378">
        <ele>569.5</ele>
        <time>1970-01-01T00:00:00Z</time>
      </trkpt>
      <trkpt lat="39.373849" lon="-5.349378">
        <ele>569.5</ele>
        <time>1970-01-01T00:00:00Z</time>
      </trkpt>
      <trkpt lat="39.373849" lon="-5.349378">
        <ele>569.5</ele>
        <time>1970-01-01T00:00:00Z</time>
      </trkpt>
      <trkpt lat="39.373849" lon="-5.349378">
        <ele>569.5</ele>
        <time>1970-01-01T00:00:00Z</time>
      </trkpt>
      <trkpt lat="39.373745" lon="-5.349234">
        <ele>569.1</ele>
        <time>1970-01-01T00:00:00Z</time>
      </trkpt>
      <trkpt lat="39.373745" lon="-5.349234">
        <ele>569.1</ele>
        <time>1970-01-01T00:00:00Z</time>
      </trkpt>
      <trkpt lat="39.373745" lon="-5.349234">
        <ele>569.1</ele>
        <time>1970-01-01T00:00:00Z</time>
      </trkpt>
      <trkpt lat="39.373745" lon="-5.349234">
        <ele>569.1</ele>
        <time>1970-01-01T00:00:00Z</time>
      </trkpt>
      <trkpt lat="39.373606" lon="-5.349075">
        <ele>569.2</ele>
        <time>1970-01-01T00:00:00Z</time>
      </trkpt>
      <trkpt lat="39.373606" lon="-5.349075">
        <ele>569.2</ele>
        <time>1970-01-01T00:00:00Z</time>
      </trkpt>
      <trkpt lat="39.373606" lon="-5.349075">
        <ele>569.2</ele>
        <time>1970-01-01T00:00:00Z</time>
      </trkpt>
      <trkpt lat="39.373606" lon="-5.349075">
        <ele>569.2</ele>
        <time>1970-01-01T00:00:00Z</time>
      </trkpt>
      <trkpt lat="39.373444" lon="-5.348904">
        <ele>569.1</ele>
        <time>1970-01-01T00:00:00Z</time>
      </trkpt>
      <trkpt lat="39.373444" lon="-5.348904">
        <ele>569.1</ele>
        <time>1970-01-01T00:00:00Z</time>
      </trkpt>
      <trkpt lat="39.373444" lon="-5.348904">
        <ele>569.1</ele>
        <time>1970-01-01T00:00:00Z</time>
      </trkpt>
      <trkpt lat="39.373444" lon="-5.348904">
        <ele>569.1</ele>
        <time>1970-01-01T00:00:00Z</time>
      </trkpt>
      <trkpt lat="39.373353" lon="-5.348790">
        <ele>569.2</ele>
        <time>1970-01-01T00:00:00Z</time>
      </trkpt>
      <trkpt lat="39.373353" lon="-5.348790">
        <ele>569.2</ele>
        <time>1970-01-01T00:00:00Z</time>
      </trkpt>
      <trkpt lat="39.373353" lon="-5.348790">
        <ele>569.2</ele>
        <time>1970-01-01T00:00:00Z</time>
      </trkpt>
      <trkpt lat="39.373353" lon="-5.348790">
        <ele>569.2</ele>
        <time>1970-01-01T00:00:00Z</time>
      </trkpt>
      <trkpt lat="39.373260" lon="-5.348674">
        <ele>569.0</ele>
        <time>1970-01-01T00:00:00Z</time>
      </trkpt>
      <trkpt lat="39.373260" lon="-5.348674">
        <ele>569.0</ele>
        <time>1970-01-01T00:00:00Z</time>
      </trkpt>
      <trkpt lat="39.373260" lon="-5.348674">
        <ele>569.0</ele>
        <time>1970-01-01T00:00:00Z</time>
      </trkpt>
      <trkpt lat="39.373260" lon="-5.348674">
        <ele>569.0</ele>
        <time>1970-01-01T00:00:00Z</time>
      </trkpt>
      <trkpt lat="39.373184" lon="-5.348543">
        <ele>569.3</ele>
        <time>1970-01-01T00:00:00Z</time>
      </trkpt>
      <trkpt lat="39.373184" lon="-5.348543">
        <ele>569.3</ele>
        <time>1970-01-01T00:00:00Z</time>
      </trkpt>
      <trkpt lat="39.373184" lon="-5.348543">
        <ele>569.3</ele>
        <time>1970-01-01T00:00:00Z</time>
      </trkpt>
      <trkpt lat="39.373184" lon="-5.348543">
        <ele>569.3</ele>
        <time>1970-01-01T00:00:00Z</time>
      </trkpt>
      <trkpt lat="39.373106" lon="-5.348339">
        <ele>570.4</ele>
        <time>1970-01-01T00:00:00Z</time>
      </trkpt>
      <trkpt lat="39.373106" lon="-5.348339">
        <ele>570.4</ele>
        <time>1970-01-01T00:00:00Z</time>
      </trkpt>
      <trkpt lat="39.373106" lon="-5.348339">
        <ele>570.4</ele>
        <time>1970-01-01T00:00:00Z</time>
      </trkpt>
      <trkpt lat="39.373106" lon="-5.348339">
        <ele>570.4</ele>
        <time>1970-01-01T00:00:00Z</time>
      </trkpt>
      <trkpt lat="39.373055" lon="-5.348192">
        <ele>571.1</ele>
        <time>1970-01-01T00:00:00Z</time>
      </trkpt>
      <trkpt lat="39.373055" lon="-5.348192">
        <ele>571.1</ele>
        <time>1970-01-01T00:00:00Z</time>
      </trkpt>
      <trkpt lat="39.373055" lon="-5.348192">
        <ele>571.1</ele>
        <time>1970-01-01T00:00:00Z</time>
      </trkpt>
      <trkpt lat="39.373055" lon="-5.348192">
        <ele>571.1</ele>
        <time>1970-01-01T00:00:00Z</time>
      </trkpt>
      <trkpt lat="39.372971" lon="-5.348014">
        <ele>570.4</ele>
        <time>1970-01-01T00:00:00Z</time>
      </trkpt>
      <trkpt lat="39.372971" lon="-5.348014">
        <ele>570.4</ele>
        <time>1970-01-01T00:00:00Z</time>
      </trkpt>
      <trkpt lat="39.372971" lon="-5.348014">
        <ele>570.4</ele>
        <time>1970-01-01T00:00:00Z</time>
      </trkpt>
      <trkpt lat="39.372971" lon="-5.348014">
        <ele>570.4</ele>
        <time>1970-01-01T00:00:00Z</time>
      </trkpt>
      <trkpt lat="39.372901" lon="-5.347799">
        <ele>571.9</ele>
        <time>1970-01-01T00:00:00Z</time>
      </trkpt>
      <trkpt lat="39.372901" lon="-5.347799">
        <ele>571.9</ele>
        <time>1970-01-01T00:00:00Z</time>
      </trkpt>
      <trkpt lat="39.372901" lon="-5.347799">
        <ele>571.9</ele>
        <time>1970-01-01T00:00:00Z</time>
      </trkpt>
      <trkpt lat="39.372901" lon="-5.347799">
        <ele>571.9</ele>
        <time>1970-01-01T00:00:00Z</time>
      </trkpt>
      <trkpt lat="39.372843" lon="-5.347591">
        <ele>573.0</ele>
        <time>1970-01-01T00:00:00Z</time>
      </trkpt>
      <trkpt lat="39.372843" lon="-5.347591">
        <ele>573.0</ele>
        <time>1970-01-01T00:00:00Z</time>
      </trkpt>
      <trkpt lat="39.372843" lon="-5.347591">
        <ele>573.0</ele>
        <time>1970-01-01T00:00:00Z</time>
      </trkpt>
      <trkpt lat="39.372843" lon="-5.347591">
        <ele>573.0</ele>
        <time>1970-01-01T00:00:00Z</time>
      </trkpt>
      <trkpt lat="39.372833" lon="-5.347406">
        <ele>574.5</ele>
        <time>1970-01-01T00:00:00Z</time>
      </trkpt>
      <trkpt lat="39.372833" lon="-5.347406">
        <ele>574.5</ele>
        <time>1970-01-01T00:00:00Z</time>
      </trkpt>
      <trkpt lat="39.372833" lon="-5.347406">
        <ele>574.5</ele>
        <time>1970-01-01T00:00:00Z</time>
      </trkpt>
      <trkpt lat="39.372833" lon="-5.347406">
        <ele>574.5</ele>
        <time>1970-01-01T00:00:00Z</time>
      </trkpt>
      <trkpt lat="39.372835" lon="-5.347322">
        <ele>575.2</ele>
        <time>1970-01-01T00:00:00Z</time>
      </trkpt>
      <trkpt lat="39.372835" lon="-5.347322">
        <ele>575.2</ele>
        <time>1970-01-01T00:00:00Z</time>
      </trkpt>
      <trkpt lat="39.372835" lon="-5.347322">
        <ele>575.2</ele>
        <time>1970-01-01T00:00:00Z</time>
      </trkpt>
      <trkpt lat="39.372835" lon="-5.347322">
        <ele>575.2</ele>
        <time>1970-01-01T00:00:00Z</time>
      </trkpt>
      <trkpt lat="39.372869" lon="-5.347176">
        <ele>576.4</ele>
        <time>1970-01-01T00:00:00Z</time>
      </trkpt>
      <trkpt lat="39.372869" lon="-5.347176">
        <ele>576.4</ele>
        <time>1970-01-01T00:00:00Z</time>
      </trkpt>
      <trkpt lat="39.372869" lon="-5.347176">
        <ele>576.4</ele>
        <time>1970-01-01T00:00:00Z</time>
      </trkpt>
      <trkpt lat="39.372869" lon="-5.347176">
        <ele>576.4</ele>
        <time>1970-01-01T00:00:00Z</time>
      </trkpt>
      <trkpt lat="39.372873" lon="-5.347051">
        <ele>577.1</ele>
        <time>1970-01-01T00:00:00Z</time>
      </trkpt>
      <trkpt lat="39.372873" lon="-5.347051">
        <ele>577.1</ele>
        <time>1970-01-01T00:00:00Z</time>
      </trkpt>
      <trkpt lat="39.372873" lon="-5.347051">
        <ele>577.1</ele>
        <time>1970-01-01T00:00:00Z</time>
      </trkpt>
      <trkpt lat="39.372873" lon="-5.347051">
        <ele>577.1</ele>
        <time>1970-01-01T00:00:00Z</time>
      </trkpt>
      <trkpt lat="39.372852" lon="-5.346891">
        <ele>578.8</ele>
        <time>1970-01-01T00:00:00Z</time>
      </trkpt>
      <trkpt lat="39.372852" lon="-5.346891">
        <ele>578.8</ele>
        <time>1970-01-01T00:00:00Z</time>
      </trkpt>
      <trkpt lat="39.372852" lon="-5.346891">
        <ele>578.8</ele>
        <time>1970-01-01T00:00:00Z</time>
      </trkpt>
      <trkpt lat="39.372852" lon="-5.346891">
        <ele>578.8</ele>
        <time>1970-01-01T00:00:00Z</time>
      </trkpt>
      <trkpt lat="39.372789" lon="-5.346723">
        <ele>578.9</ele>
        <time>1970-01-01T00:00:00Z</time>
      </trkpt>
      <trkpt lat="39.372789" lon="-5.346723">
        <ele>578.9</ele>
        <time>1970-01-01T00:00:00Z</time>
      </trkpt>
      <trkpt lat="39.372789" lon="-5.346723">
        <ele>578.9</ele>
        <time>1970-01-01T00:00:00Z</time>
      </trkpt>
      <trkpt lat="39.372789" lon="-5.346723">
        <ele>578.9</ele>
        <time>1970-01-01T00:00:00Z</time>
      </trkpt>
      <trkpt lat="39.372607" lon="-5.346452">
        <ele>579.5</ele>
        <time>1970-01-01T00:00:00Z</time>
      </trkpt>
      <trkpt lat="39.372607" lon="-5.346452">
        <ele>579.5</ele>
        <time>1970-01-01T00:00:00Z</time>
      </trkpt>
      <trkpt lat="39.372607" lon="-5.346452">
        <ele>579.5</ele>
        <time>1970-01-01T00:00:00Z</time>
      </trkpt>
      <trkpt lat="39.372607" lon="-5.346452">
        <ele>579.5</ele>
        <time>1970-01-01T00:00:00Z</time>
      </trkpt>
      <trkpt lat="39.372453" lon="-5.346205">
        <ele>580.7</ele>
        <time>1970-01-01T00:00:00Z</time>
      </trkpt>
      <trkpt lat="39.372453" lon="-5.346205">
        <ele>580.7</ele>
        <time>1970-01-01T00:00:00Z</time>
      </trkpt>
      <trkpt lat="39.372453" lon="-5.346205">
        <ele>580.7</ele>
        <time>1970-01-01T00:00:00Z</time>
      </trkpt>
      <trkpt lat="39.372453" lon="-5.346205">
        <ele>580.7</ele>
        <time>1970-01-01T00:00:00Z</time>
      </trkpt>
      <trkpt lat="39.372345" lon="-5.346021">
        <ele>581.5</ele>
        <time>1970-01-01T00:00:00Z</time>
      </trkpt>
      <trkpt lat="39.372345" lon="-5.346021">
        <ele>581.5</ele>
        <time>1970-01-01T00:00:00Z</time>
      </trkpt>
      <trkpt lat="39.372345" lon="-5.346021">
        <ele>581.5</ele>
        <time>1970-01-01T00:00:00Z</time>
      </trkpt>
      <trkpt lat="39.372345" lon="-5.346021">
        <ele>581.5</ele>
        <time>1970-01-01T00:00:00Z</time>
      </trkpt>
      <trkpt lat="39.372204" lon="-5.345765">
        <ele>582.0</ele>
        <time>1970-01-01T00:00:00Z</time>
      </trkpt>
      <trkpt lat="39.372204" lon="-5.345765">
        <ele>582.0</ele>
        <time>1970-01-01T00:00:00Z</time>
      </trkpt>
      <trkpt lat="39.372204" lon="-5.345765">
        <ele>582.0</ele>
        <time>1970-01-01T00:00:00Z</time>
      </trkpt>
      <trkpt lat="39.372204" lon="-5.345765">
        <ele>582.0</ele>
        <time>1970-01-01T00:00:00Z</time>
      </trkpt>
      <trkpt lat="39.372150" lon="-5.345628">
        <ele>581.8</ele>
        <time>1970-01-01T00:00:00Z</time>
      </trkpt>
      <trkpt lat="39.372150" lon="-5.345628">
        <ele>581.8</ele>
        <time>1970-01-01T00:00:00Z</time>
      </trkpt>
      <trkpt lat="39.372150" lon="-5.345628">
        <ele>581.8</ele>
        <time>1970-01-01T00:00:00Z</time>
      </trkpt>
      <trkpt lat="39.372150" lon="-5.345628">
        <ele>581.8</ele>
        <time>1970-01-01T00:00:00Z</time>
      </trkpt>
      <trkpt lat="39.372110" lon="-5.345485">
        <ele>581.1</ele>
        <time>1970-01-01T00:00:00Z</time>
      </trkpt>
      <trkpt lat="39.372110" lon="-5.345485">
        <ele>581.1</ele>
        <time>1970-01-01T00:00:00Z</time>
      </trkpt>
      <trkpt lat="39.372110" lon="-5.345485">
        <ele>581.1</ele>
        <time>1970-01-01T00:00:00Z</time>
      </trkpt>
      <trkpt lat="39.372110" lon="-5.345485">
        <ele>581.1</ele>
        <time>1970-01-01T00:00:00Z</time>
      </trkpt>
      <trkpt lat="39.371967" lon="-5.345285">
        <ele>579.8</ele>
        <time>1970-01-01T00:00:00Z</time>
      </trkpt>
      <trkpt lat="39.371967" lon="-5.345285">
        <ele>579.8</ele>
        <time>1970-01-01T00:00:00Z</time>
      </trkpt>
      <trkpt lat="39.371967" lon="-5.345285">
        <ele>579.8</ele>
        <time>1970-01-01T00:00:00Z</time>
      </trkpt>
      <trkpt lat="39.371967" lon="-5.345285">
        <ele>579.8</ele>
        <time>1970-01-01T00:00:00Z</time>
      </trkpt>
      <trkpt lat="39.371911" lon="-5.345150">
        <ele>578.3</ele>
        <time>1970-01-01T00:00:00Z</time>
      </trkpt>
      <trkpt lat="39.371911" lon="-5.345150">
        <ele>578.3</ele>
        <time>1970-01-01T00:00:00Z</time>
      </trkpt>
      <trkpt lat="39.371911" lon="-5.345150">
        <ele>578.3</ele>
        <time>1970-01-01T00:00:00Z</time>
      </trkpt>
      <trkpt lat="39.371911" lon="-5.345150">
        <ele>578.3</ele>
        <time>1970-01-01T00:00:00Z</time>
      </trkpt>
      <trkpt lat="39.371892" lon="-5.345036">
        <ele>576.7</ele>
        <time>1970-01-01T00:00:00Z</time>
      </trkpt>
      <trkpt lat="39.371892" lon="-5.345036">
        <ele>576.7</ele>
        <time>1970-01-01T00:00:00Z</time>
      </trkpt>
      <trkpt lat="39.371892" lon="-5.345036">
        <ele>576.7</ele>
        <time>1970-01-01T00:00:00Z</time>
      </trkpt>
      <trkpt lat="39.371892" lon="-5.345036">
        <ele>576.7</ele>
        <time>1970-01-01T00:00:00Z</time>
      </trkpt>
      <trkpt lat="39.371913" lon="-5.344938">
        <ele>575.6</ele>
        <time>1970-01-01T00:00:00Z</time>
      </trkpt>
      <trkpt lat="39.371913" lon="-5.344938">
        <ele>575.6</ele>
        <time>1970-01-01T00:00:00Z</time>
      </trkpt>
      <trkpt lat="39.371913" lon="-5.344938">
        <ele>575.6</ele>
        <time>1970-01-01T00:00:00Z</time>
      </trkpt>
      <trkpt lat="39.371913" lon="-5.344938">
        <ele>575.6</ele>
        <time>1970-01-01T00:00:00Z</time>
      </trkpt>
      <trkpt lat="39.371941" lon="-5.344859">
        <ele>574.8</ele>
        <time>1970-01-01T00:00:00Z</time>
      </trkpt>
      <trkpt lat="39.371941" lon="-5.344859">
        <ele>574.8</ele>
        <time>1970-01-01T00:00:00Z</time>
      </trkpt>
      <trkpt lat="39.371941" lon="-5.344859">
        <ele>574.8</ele>
        <time>1970-01-01T00:00:00Z</time>
      </trkpt>
      <trkpt lat="39.371941" lon="-5.344859">
        <ele>574.8</ele>
        <time>1970-01-01T00:00:00Z</time>
      </trkpt>
      <trkpt lat="39.372010" lon="-5.344785">
        <ele>574.5</ele>
        <time>1970-01-01T00:00:00Z</time>
      </trkpt>
      <trkpt lat="39.372010" lon="-5.344785">
        <ele>574.5</ele>
        <time>1970-01-01T00:00:00Z</time>
      </trkpt>
      <trkpt lat="39.372010" lon="-5.344785">
        <ele>574.5</ele>
        <time>1970-01-01T00:00:00Z</time>
      </trkpt>
      <trkpt lat="39.372010" lon="-5.344785">
        <ele>574.5</ele>
        <time>1970-01-01T00:00:00Z</time>
      </trkpt>
      <trkpt lat="39.372145" lon="-5.344700">
        <ele>574.9</ele>
        <time>1970-01-01T00:00:00Z</time>
      </trkpt>
      <trkpt lat="39.372145" lon="-5.344700">
        <ele>574.9</ele>
        <time>1970-01-01T00:00:00Z</time>
      </trkpt>
      <trkpt lat="39.372145" lon="-5.344700">
        <ele>574.9</ele>
        <time>1970-01-01T00:00:00Z</time>
      </trkpt>
      <trkpt lat="39.372145" lon="-5.344700">
        <ele>574.9</ele>
        <time>1970-01-01T00:00:00Z</time>
      </trkpt>
      <trkpt lat="39.372208" lon="-5.344629">
        <ele>575.1</ele>
        <time>1970-01-01T00:00:00Z</time>
      </trkpt>
      <trkpt lat="39.372208" lon="-5.344629">
        <ele>575.1</ele>
        <time>1970-01-01T00:00:00Z</time>
      </trkpt>
      <trkpt lat="39.372208" lon="-5.344629">
        <ele>575.1</ele>
        <time>1970-01-01T00:00:00Z</time>
      </trkpt>
      <trkpt lat="39.372208" lon="-5.344629">
        <ele>575.1</ele>
        <time>1970-01-01T00:00:00Z</time>
      </trkpt>
      <trkpt lat="39.372341" lon="-5.344443">
        <ele>575.6</ele>
        <time>1970-01-01T00:00:00Z</time>
      </trkpt>
      <trkpt lat="39.372341" lon="-5.344443">
        <ele>575.6</ele>
        <time>1970-01-01T00:00:00Z</time>
      </trkpt>
      <trkpt lat="39.372341" lon="-5.344443">
        <ele>575.6</ele>
        <time>1970-01-01T00:00:00Z</time>
      </trkpt>
      <trkpt lat="39.372341" lon="-5.344443">
        <ele>575.6</ele>
        <time>1970-01-01T00:00:00Z</time>
      </trkpt>
      <trkpt lat="39.372437" lon="-5.344271">
        <ele>576.1</ele>
        <time>1970-01-01T00:00:00Z</time>
      </trkpt>
      <trkpt lat="39.372437" lon="-5.344271">
        <ele>576.1</ele>
        <time>1970-01-01T00:00:00Z</time>
      </trkpt>
      <trkpt lat="39.372437" lon="-5.344271">
        <ele>576.1</ele>
        <time>1970-01-01T00:00:00Z</time>
      </trkpt>
      <trkpt lat="39.372437" lon="-5.344271">
        <ele>576.1</ele>
        <time>1970-01-01T00:00:00Z</time>
      </trkpt>
      <trkpt lat="39.372475" lon="-5.344140">
        <ele>576.4</ele>
        <time>1970-01-01T00:00:00Z</time>
      </trkpt>
      <trkpt lat="39.372475" lon="-5.344140">
        <ele>576.4</ele>
        <time>1970-01-01T00:00:00Z</time>
      </trkpt>
      <trkpt lat="39.372475" lon="-5.344140">
        <ele>576.4</ele>
        <time>1970-01-01T00:00:00Z</time>
      </trkpt>
      <trkpt lat="39.372475" lon="-5.344140">
        <ele>576.4</ele>
        <time>1970-01-01T00:00:00Z</time>
      </trkpt>
      <trkpt lat="39.372480" lon="-5.344084">
        <ele>576.4</ele>
        <time>1970-01-01T00:00:00Z</time>
      </trkpt>
      <trkpt lat="39.372480" lon="-5.344084">
        <ele>576.4</ele>
        <time>1970-01-01T00:00:00Z</time>
      </trkpt>
      <trkpt lat="39.372480" lon="-5.344084">
        <ele>576.4</ele>
        <time>1970-01-01T00:00:00Z</time>
      </trkpt>
      <trkpt lat="39.372480" lon="-5.344084">
        <ele>576.4</ele>
        <time>1970-01-01T00:00:00Z</time>
      </trkpt>
      <trkpt lat="39.372453" lon="-5.344026">
        <ele>576.1</ele>
        <time>1970-01-01T00:00:00Z</time>
      </trkpt>
      <trkpt lat="39.372453" lon="-5.344026">
        <ele>576.1</ele>
        <time>1970-01-01T00:00:00Z</time>
      </trkpt>
      <trkpt lat="39.372453" lon="-5.344026">
        <ele>576.1</ele>
        <time>1970-01-01T00:00:00Z</time>
      </trkpt>
      <trkpt lat="39.372453" lon="-5.344026">
        <ele>576.1</ele>
        <time>1970-01-01T00:00:00Z</time>
      </trkpt>
      <trkpt lat="39.372390" lon="-5.344008">
        <ele>575.1</ele>
        <time>1970-01-01T00:00:00Z</time>
      </trkpt>
      <trkpt lat="39.372390" lon="-5.344008">
        <ele>575.1</ele>
        <time>1970-01-01T00:00:00Z</time>
      </trkpt>
      <trkpt lat="39.372390" lon="-5.344008">
        <ele>575.1</ele>
        <time>1970-01-01T00:00:00Z</time>
      </trkpt>
      <trkpt lat="39.372390" lon="-5.344008">
        <ele>575.1</ele>
        <time>1970-01-01T00:00:00Z</time>
      </trkpt>
      <trkpt lat="39.372247" lon="-5.343976">
        <ele>573.0</ele>
        <time>1970-01-01T00:00:00Z</time>
      </trkpt>
      <trkpt lat="39.372247" lon="-5.343976">
        <ele>573.0</ele>
        <time>1970-01-01T00:00:00Z</time>
      </trkpt>
      <trkpt lat="39.372247" lon="-5.343976">
        <ele>573.0</ele>
        <time>1970-01-01T00:00:00Z</time>
      </trkpt>
      <trkpt lat="39.372247" lon="-5.343976">
        <ele>573.0</ele>
        <time>1970-01-01T00:00:00Z</time>
      </trkpt>
      <trkpt lat="39.372089" lon="-5.343883">
        <ele>570.8</ele>
        <time>1970-01-01T00:00:00Z</time>
      </trkpt>
      <trkpt lat="39.372089" lon="-5.343883">
        <ele>570.8</ele>
        <time>1970-01-01T00:00:00Z</time>
      </trkpt>
      <trkpt lat="39.372089" lon="-5.343883">
        <ele>570.8</ele>
        <time>1970-01-01T00:00:00Z</time>
      </trkpt>
      <trkpt lat="39.372089" lon="-5.343883">
        <ele>570.8</ele>
        <time>1970-01-01T00:00:00Z</time>
      </trkpt>
      <trkpt lat="39.371979" lon="-5.343779">
        <ele>570.0</ele>
        <time>1970-01-01T00:00:00Z</time>
      </trkpt>
      <trkpt lat="39.371979" lon="-5.343779">
        <ele>570.0</ele>
        <time>1970-01-01T00:00:00Z</time>
      </trkpt>
      <trkpt lat="39.371979" lon="-5.343779">
        <ele>570.0</ele>
        <time>1970-01-01T00:00:00Z</time>
      </trkpt>
      <trkpt lat="39.371979" lon="-5.343779">
        <ele>570.0</ele>
        <time>1970-01-01T00:00:00Z</time>
      </trkpt>
      <trkpt lat="39.371862" lon="-5.343645">
        <ele>568.8</ele>
        <time>1970-01-01T00:00:00Z</time>
      </trkpt>
      <trkpt lat="39.371862" lon="-5.343645">
        <ele>568.8</ele>
        <time>1970-01-01T00:00:00Z</time>
      </trkpt>
      <trkpt lat="39.371862" lon="-5.343645">
        <ele>568.8</ele>
        <time>1970-01-01T00:00:00Z</time>
      </trkpt>
      <trkpt lat="39.371862" lon="-5.343645">
        <ele>568.8</ele>
        <time>1970-01-01T00:00:00Z</time>
      </trkpt>
      <trkpt lat="39.371696" lon="-5.343454">
        <ele>567.9</ele>
        <time>1970-01-01T00:00:00Z</time>
      </trkpt>
      <trkpt lat="39.371696" lon="-5.343454">
        <ele>567.9</ele>
        <time>1970-01-01T00:00:00Z</time>
      </trkpt>
      <trkpt lat="39.371696" lon="-5.343454">
        <ele>567.9</ele>
        <time>1970-01-01T00:00:00Z</time>
      </trkpt>
      <trkpt lat="39.371696" lon="-5.343454">
        <ele>567.9</ele>
        <time>1970-01-01T00:00:00Z</time>
      </trkpt>
      <trkpt lat="39.371565" lon="-5.343321">
        <ele>567.3</ele>
        <time>1970-01-01T00:00:00Z</time>
      </trkpt>
      <trkpt lat="39.371565" lon="-5.343321">
        <ele>567.3</ele>
        <time>1970-01-01T00:00:00Z</time>
      </trkpt>
      <trkpt lat="39.371565" lon="-5.343321">
        <ele>567.3</ele>
        <time>1970-01-01T00:00:00Z</time>
      </trkpt>
      <trkpt lat="39.371565" lon="-5.343321">
        <ele>567.3</ele>
        <time>1970-01-01T00:00:00Z</time>
      </trkpt>
      <trkpt lat="39.371501" lon="-5.343223">
        <ele>567.3</ele>
        <time>1970-01-01T00:00:00Z</time>
      </trkpt>
      <trkpt lat="39.371501" lon="-5.343223">
        <ele>567.3</ele>
        <time>1970-01-01T00:00:00Z</time>
      </trkpt>
      <trkpt lat="39.371501" lon="-5.343223">
        <ele>567.3</ele>
        <time>1970-01-01T00:00:00Z</time>
      </trkpt>
      <trkpt lat="39.371501" lon="-5.343223">
        <ele>567.3</ele>
        <time>1970-01-01T00:00:00Z</time>
      </trkpt>
      <trkpt lat="39.371459" lon="-5.343136">
        <ele>567.5</ele>
        <time>1970-01-01T00:00:00Z</time>
      </trkpt>
      <trkpt lat="39.371459" lon="-5.343136">
        <ele>567.5</ele>
        <time>1970-01-01T00:00:00Z</time>
      </trkpt>
      <trkpt lat="39.371459" lon="-5.343136">
        <ele>567.5</ele>
        <time>1970-01-01T00:00:00Z</time>
      </trkpt>
      <trkpt lat="39.371459" lon="-5.343136">
        <ele>567.5</ele>
        <time>1970-01-01T00:00:00Z</time>
      </trkpt>
      <trkpt lat="39.371345" lon="-5.342902">
        <ele>568.1</ele>
        <time>1970-01-01T00:00:00Z</time>
      </trkpt>
      <trkpt lat="39.371345" lon="-5.342902">
        <ele>568.1</ele>
        <time>1970-01-01T00:00:00Z</time>
      </trkpt>
      <trkpt lat="39.371345" lon="-5.342902">
        <ele>568.1</ele>
        <time>1970-01-01T00:00:00Z</time>
      </trkpt>
      <trkpt lat="39.371345" lon="-5.342902">
        <ele>568.1</ele>
        <time>1970-01-01T00:00:00Z</time>
      </trkpt>
      <trkpt lat="39.371273" lon="-5.342742">
        <ele>568.5</ele>
        <time>1970-01-01T00:00:00Z</time>
      </trkpt>
      <trkpt lat="39.371273" lon="-5.342742">
        <ele>568.5</ele>
        <time>1970-01-01T00:00:00Z</time>
      </trkpt>
      <trkpt lat="39.371273" lon="-5.342742">
        <ele>568.5</ele>
        <time>1970-01-01T00:00:00Z</time>
      </trkpt>
      <trkpt lat="39.371273" lon="-5.342742">
        <ele>568.5</ele>
        <time>1970-01-01T00:00:00Z</time>
      </trkpt>
      <trkpt lat="39.371146" lon="-5.342461">
        <ele>569.3</ele>
        <time>1970-01-01T00:00:00Z</time>
      </trkpt>
      <trkpt lat="39.371146" lon="-5.342461">
        <ele>569.3</ele>
        <time>1970-01-01T00:00:00Z</time>
      </trkpt>
      <trkpt lat="39.371146" lon="-5.342461">
        <ele>569.3</ele>
        <time>1970-01-01T00:00:00Z</time>
      </trkpt>
      <trkpt lat="39.371146" lon="-5.342461">
        <ele>569.3</ele>
        <time>1970-01-01T00:00:00Z</time>
      </trkpt>
      <trkpt lat="39.371049" lon="-5.342197">
        <ele>570.7</ele>
        <time>1970-01-01T00:00:00Z</time>
      </trkpt>
      <trkpt lat="39.371049" lon="-5.342197">
        <ele>570.7</ele>
        <time>1970-01-01T00:00:00Z</time>
      </trkpt>
      <trkpt lat="39.371049" lon="-5.342197">
        <ele>570.7</ele>
        <time>1970-01-01T00:00:00Z</time>
      </trkpt>
      <trkpt lat="39.371049" lon="-5.342197">
        <ele>570.7</ele>
        <time>1970-01-01T00:00:00Z</time>
      </trkpt>
      <trkpt lat="39.370944" lon="-5.341961">
        <ele>571.0</ele>
        <time>1970-01-01T00:00:00Z</time>
      </trkpt>
      <trkpt lat="39.370944" lon="-5.341961">
        <ele>571.0</ele>
        <time>1970-01-01T00:00:00Z</time>
      </trkpt>
      <trkpt lat="39.370944" lon="-5.341961">
        <ele>571.0</ele>
        <time>1970-01-01T00:00:00Z</time>
      </trkpt>
      <trkpt lat="39.370944" lon="-5.341961">
        <ele>571.0</ele>
        <time>1970-01-01T00:00:00Z</time>
      </trkpt>
      <trkpt lat="39.370811" lon="-5.341715">
        <ele>571.3</ele>
        <time>1970-01-01T00:00:00Z</time>
      </trkpt>
      <trkpt lat="39.370811" lon="-5.341715">
        <ele>571.3</ele>
        <time>1970-01-01T00:00:00Z</time>
      </trkpt>
      <trkpt lat="39.370811" lon="-5.341715">
        <ele>571.3</ele>
        <time>1970-01-01T00:00:00Z</time>
      </trkpt>
      <trkpt lat="39.370811" lon="-5.341715">
        <ele>571.3</ele>
        <time>1970-01-01T00:00:00Z</time>
      </trkpt>
      <trkpt lat="39.370682" lon="-5.341526">
        <ele>570.4</ele>
        <time>1970-01-01T00:00:00Z</time>
      </trkpt>
      <trkpt lat="39.370682" lon="-5.341526">
        <ele>570.4</ele>
        <time>1970-01-01T00:00:00Z</time>
      </trkpt>
      <trkpt lat="39.370682" lon="-5.341526">
        <ele>570.4</ele>
        <time>1970-01-01T00:00:00Z</time>
      </trkpt>
      <trkpt lat="39.370682" lon="-5.341526">
        <ele>570.4</ele>
        <time>1970-01-01T00:00:00Z</time>
      </trkpt>
      <trkpt lat="39.370559" lon="-5.341379">
        <ele>570.1</ele>
        <time>1970-01-01T00:00:00Z</time>
      </trkpt>
      <trkpt lat="39.370559" lon="-5.341379">
        <ele>570.1</ele>
        <time>1970-01-01T00:00:00Z</time>
      </trkpt>
      <trkpt lat="39.370559" lon="-5.341379">
        <ele>570.1</ele>
        <time>1970-01-01T00:00:00Z</time>
      </trkpt>
      <trkpt lat="39.370559" lon="-5.341379">
        <ele>570.1</ele>
        <time>1970-01-01T00:00:00Z</time>
      </trkpt>
      <trkpt lat="39.370392" lon="-5.341243">
        <ele>569.4</ele>
        <time>1970-01-01T00:00:00Z</time>
      </trkpt>
      <trkpt lat="39.370392" lon="-5.341243">
        <ele>569.4</ele>
        <time>1970-01-01T00:00:00Z</time>
      </trkpt>
      <trkpt lat="39.370392" lon="-5.341243">
        <ele>569.4</ele>
        <time>1970-01-01T00:00:00Z</time>
      </trkpt>
      <trkpt lat="39.370392" lon="-5.341243">
        <ele>569.4</ele>
        <time>1970-01-01T00:00:00Z</time>
      </trkpt>
      <trkpt lat="39.370347" lon="-5.341196">
        <ele>569.3</ele>
        <time>1970-01-01T00:00:00Z</time>
      </trkpt>
      <trkpt lat="39.370347" lon="-5.341196">
        <ele>569.3</ele>
        <time>1970-01-01T00:00:00Z</time>
      </trkpt>
      <trkpt lat="39.370347" lon="-5.341196">
        <ele>569.3</ele>
        <time>1970-01-01T00:00:00Z</time>
      </trkpt>
      <trkpt lat="39.370347" lon="-5.341196">
        <ele>569.3</ele>
        <time>1970-01-01T00:00:00Z</time>
      </trkpt>
      <trkpt lat="39.370287" lon="-5.341130">
        <ele>569.0</ele>
        <time>1970-01-01T00:00:00Z</time>
      </trkpt>
      <trkpt lat="39.370287" lon="-5.341130">
        <ele>569.0</ele>
        <time>1970-01-01T00:00:00Z</time>
      </trkpt>
      <trkpt lat="39.370287" lon="-5.341130">
        <ele>569.0</ele>
        <time>1970-01-01T00:00:00Z</time>
      </trkpt>
      <trkpt lat="39.370287" lon="-5.341130">
        <ele>569.0</ele>
        <time>1970-01-01T00:00:00Z</time>
      </trkpt>
      <trkpt lat="39.370173" lon="-5.341053">
        <ele>568.2</ele>
        <time>1970-01-01T00:00:00Z</time>
      </trkpt>
      <trkpt lat="39.370173" lon="-5.341053">
        <ele>568.2</ele>
        <time>1970-01-01T00:00:00Z</time>
      </trkpt>
      <trkpt lat="39.370173" lon="-5.341053">
        <ele>568.2</ele>
        <time>1970-01-01T00:00:00Z</time>
      </trkpt>
      <trkpt lat="39.370173" lon="-5.341053">
        <ele>568.2</ele>
        <time>1970-01-01T00:00:00Z</time>
      </trkpt>
      <trkpt lat="39.370099" lon="-5.341015">
        <ele>567.8</ele>
        <time>1970-01-01T00:00:00Z</time>
      </trkpt>
      <trkpt lat="39.370099" lon="-5.341015">
        <ele>567.8</ele>
        <time>1970-01-01T00:00:00Z</time>
      </trkpt>
      <trkpt lat="39.370099" lon="-5.341015">
        <ele>567.8</ele>
        <time>1970-01-01T00:00:00Z</time>
      </trkpt>
      <trkpt lat="39.370099" lon="-5.341015">
        <ele>567.8</ele>
        <time>1970-01-01T00:00:00Z</time>
      </trkpt>
      <trkpt lat="39.369991" lon="-5.340997">
        <ele>566.8</ele>
        <time>1970-01-01T00:00:00Z</time>
      </trkpt>
      <trkpt lat="39.369991" lon="-5.340997">
        <ele>566.8</ele>
        <time>1970-01-01T00:00:00Z</time>
      </trkpt>
      <trkpt lat="39.369991" lon="-5.340997">
        <ele>566.8</ele>
        <time>1970-01-01T00:00:00Z</time>
      </trkpt>
      <trkpt lat="39.369991" lon="-5.340997">
        <ele>566.8</ele>
        <time>1970-01-01T00:00:00Z</time>
      </trkpt>
      <trkpt lat="39.369800" lon="-5.340918">
        <ele>565.2</ele>
        <time>1970-01-01T00:00:00Z</time>
      </trkpt>
      <trkpt lat="39.369800" lon="-5.340918">
        <ele>565.2</ele>
        <time>1970-01-01T00:00:00Z</time>
      </trkpt>
      <trkpt lat="39.369800" lon="-5.340918">
        <ele>565.2</ele>
        <time>1970-01-01T00:00:00Z</time>
      </trkpt>
      <trkpt lat="39.369800" lon="-5.340918">
        <ele>565.2</ele>
        <time>1970-01-01T00:00:00Z</time>
      </trkpt>
      <trkpt lat="39.369466" lon="-5.340719">
        <ele>562.6</ele>
        <time>1970-01-01T00:00:00Z</time>
      </trkpt>
      <trkpt lat="39.369466" lon="-5.340719">
        <ele>562.6</ele>
        <time>1970-01-01T00:00:00Z</time>
      </trkpt>
      <trkpt lat="39.369466" lon="-5.340719">
        <ele>562.6</ele>
        <time>1970-01-01T00:00:00Z</time>
      </trkpt>
      <trkpt lat="39.369466" lon="-5.340719">
        <ele>562.6</ele>
        <time>1970-01-01T00:00:00Z</time>
      </trkpt>
      <trkpt lat="39.369169" lon="-5.340526">
        <ele>560.9</ele>
        <time>1970-01-01T00:00:00Z</time>
      </trkpt>
      <trkpt lat="39.369169" lon="-5.340526">
        <ele>560.9</ele>
        <time>1970-01-01T00:00:00Z</time>
      </trkpt>
      <trkpt lat="39.369169" lon="-5.340526">
        <ele>560.9</ele>
        <time>1970-01-01T00:00:00Z</time>
      </trkpt>
      <trkpt lat="39.369169" lon="-5.340526">
        <ele>560.9</ele>
        <time>1970-01-01T00:00:00Z</time>
      </trkpt>
      <trkpt lat="39.369083" lon="-5.340444">
        <ele>560.5</ele>
        <time>1970-01-01T00:00:00Z</time>
      </trkpt>
      <trkpt lat="39.369083" lon="-5.340444">
        <ele>560.5</ele>
        <time>1970-01-01T00:00:00Z</time>
      </trkpt>
      <trkpt lat="39.369083" lon="-5.340444">
        <ele>560.5</ele>
        <time>1970-01-01T00:00:00Z</time>
      </trkpt>
      <trkpt lat="39.369083" lon="-5.340444">
        <ele>560.5</ele>
        <time>1970-01-01T00:00:00Z</time>
      </trkpt>
      <trkpt lat="39.368964" lon="-5.340370">
        <ele>559.8</ele>
        <time>1970-01-01T00:00:00Z</time>
      </trkpt>
      <trkpt lat="39.368964" lon="-5.340370">
        <ele>559.8</ele>
        <time>1970-01-01T00:00:00Z</time>
      </trkpt>
      <trkpt lat="39.368964" lon="-5.340370">
        <ele>559.8</ele>
        <time>1970-01-01T00:00:00Z</time>
      </trkpt>
      <trkpt lat="39.368964" lon="-5.340370">
        <ele>559.8</ele>
        <time>1970-01-01T00:00:00Z</time>
      </trkpt>
      <trkpt lat="39.368817" lon="-5.340292">
        <ele>558.7</ele>
        <time>1970-01-01T00:00:00Z</time>
      </trkpt>
      <trkpt lat="39.368817" lon="-5.340292">
        <ele>558.7</ele>
        <time>1970-01-01T00:00:00Z</time>
      </trkpt>
      <trkpt lat="39.368817" lon="-5.340292">
        <ele>558.7</ele>
        <time>1970-01-01T00:00:00Z</time>
      </trkpt>
      <trkpt lat="39.368817" lon="-5.340292">
        <ele>558.7</ele>
        <time>1970-01-01T00:00:00Z</time>
      </trkpt>
      <trkpt lat="39.368647" lon="-5.340175">
        <ele>557.1</ele>
        <time>1970-01-01T00:00:00Z</time>
      </trkpt>
      <trkpt lat="39.368647" lon="-5.340175">
        <ele>557.1</ele>
        <time>1970-01-01T00:00:00Z</time>
      </trkpt>
      <trkpt lat="39.368647" lon="-5.340175">
        <ele>557.1</ele>
        <time>1970-01-01T00:00:00Z</time>
      </trkpt>
      <trkpt lat="39.368647" lon="-5.340175">
        <ele>557.1</ele>
        <time>1970-01-01T00:00:00Z</time>
      </trkpt>
      <trkpt lat="39.368492" lon="-5.340050">
        <ele>554.4</ele>
        <time>1970-01-01T00:00:00Z</time>
      </trkpt>
      <trkpt lat="39.368492" lon="-5.340050">
        <ele>554.4</ele>
        <time>1970-01-01T00:00:00Z</time>
      </trkpt>
      <trkpt lat="39.368492" lon="-5.340050">
        <ele>554.4</ele>
        <time>1970-01-01T00:00:00Z</time>
      </trkpt>
      <trkpt lat="39.368492" lon="-5.340050">
        <ele>554.4</ele>
        <time>1970-01-01T00:00:00Z</time>
      </trkpt>
      <trkpt lat="39.368374" lon="-5.339952">
        <ele>552.4</ele>
        <time>1970-01-01T00:00:00Z</time>
      </trkpt>
      <trkpt lat="39.368374" lon="-5.339952">
        <ele>552.4</ele>
        <time>1970-01-01T00:00:00Z</time>
      </trkpt>
      <trkpt lat="39.368374" lon="-5.339952">
        <ele>552.4</ele>
        <time>1970-01-01T00:00:00Z</time>
      </trkpt>
      <trkpt lat="39.368374" lon="-5.339952">
        <ele>552.4</ele>
        <time>1970-01-01T00:00:00Z</time>
      </trkpt>
      <trkpt lat="39.368096" lon="-5.339641">
        <ele>548.0</ele>
        <time>1970-01-01T00:00:00Z</time>
      </trkpt>
      <trkpt lat="39.368096" lon="-5.339641">
        <ele>548.0</ele>
        <time>1970-01-01T00:00:00Z</time>
      </trkpt>
      <trkpt lat="39.368096" lon="-5.339641">
        <ele>548.0</ele>
        <time>1970-01-01T00:00:00Z</time>
      </trkpt>
      <trkpt lat="39.368096" lon="-5.339641">
        <ele>548.0</ele>
        <time>1970-01-01T00:00:00Z</time>
      </trkpt>
      <trkpt lat="39.367992" lon="-5.339502">
        <ele>547.2</ele>
        <time>1970-01-01T00:00:00Z</time>
      </trkpt>
      <trkpt lat="39.367992" lon="-5.339502">
        <ele>547.2</ele>
        <time>1970-01-01T00:00:00Z</time>
      </trkpt>
      <trkpt lat="39.367992" lon="-5.339502">
        <ele>547.2</ele>
        <time>1970-01-01T00:00:00Z</time>
      </trkpt>
      <trkpt lat="39.367992" lon="-5.339502">
        <ele>547.2</ele>
        <time>1970-01-01T00:00:00Z</time>
      </trkpt>
      <trkpt lat="39.367935" lon="-5.339385">
        <ele>546.9</ele>
        <time>1970-01-01T00:00:00Z</time>
      </trkpt>
      <trkpt lat="39.367935" lon="-5.339385">
        <ele>546.9</ele>
        <time>1970-01-01T00:00:00Z</time>
      </trkpt>
      <trkpt lat="39.367935" lon="-5.339385">
        <ele>546.9</ele>
        <time>1970-01-01T00:00:00Z</time>
      </trkpt>
      <trkpt lat="39.367935" lon="-5.339385">
        <ele>546.9</ele>
        <time>1970-01-01T00:00:00Z</time>
      </trkpt>
      <trkpt lat="39.367898" lon="-5.339299">
        <ele>546.6</ele>
        <time>1970-01-01T00:00:00Z</time>
      </trkpt>
      <trkpt lat="39.367898" lon="-5.339299">
        <ele>546.6</ele>
        <time>1970-01-01T00:00:00Z</time>
      </trkpt>
      <trkpt lat="39.367898" lon="-5.339299">
        <ele>546.6</ele>
        <time>1970-01-01T00:00:00Z</time>
      </trkpt>
      <trkpt lat="39.367898" lon="-5.339299">
        <ele>546.6</ele>
        <time>1970-01-01T00:00:00Z</time>
      </trkpt>
      <trkpt lat="39.367865" lon="-5.339149">
        <ele>546.6</ele>
        <time>1970-01-01T00:00:00Z</time>
      </trkpt>
      <trkpt lat="39.367865" lon="-5.339149">
        <ele>546.6</ele>
        <time>1970-01-01T00:00:00Z</time>
      </trkpt>
      <trkpt lat="39.367865" lon="-5.339149">
        <ele>546.6</ele>
        <time>1970-01-01T00:00:00Z</time>
      </trkpt>
      <trkpt lat="39.367865" lon="-5.339149">
        <ele>546.6</ele>
        <time>1970-01-01T00:00:00Z</time>
      </trkpt>
      <trkpt lat="39.367822" lon="-5.338959">
        <ele>546.5</ele>
        <time>1970-01-01T00:00:00Z</time>
      </trkpt>
      <trkpt lat="39.367822" lon="-5.338959">
        <ele>546.5</ele>
        <time>1970-01-01T00:00:00Z</time>
      </trkpt>
      <trkpt lat="39.367822" lon="-5.338959">
        <ele>546.5</ele>
        <time>1970-01-01T00:00:00Z</time>
      </trkpt>
      <trkpt lat="39.367822" lon="-5.338959">
        <ele>546.5</ele>
        <time>1970-01-01T00:00:00Z</time>
      </trkpt>
      <trkpt lat="39.367796" lon="-5.338831">
        <ele>546.6</ele>
        <time>1970-01-01T00:00:00Z</time>
      </trkpt>
      <trkpt lat="39.367796" lon="-5.338831">
        <ele>546.6</ele>
        <time>1970-01-01T00:00:00Z</time>
      </trkpt>
      <trkpt lat="39.367796" lon="-5.338831">
        <ele>546.6</ele>
        <time>1970-01-01T00:00:00Z</time>
      </trkpt>
      <trkpt lat="39.367796" lon="-5.338831">
        <ele>546.6</ele>
        <time>1970-01-01T00:00:00Z</time>
      </trkpt>
      <trkpt lat="39.367756" lon="-5.338766">
        <ele>546.3</ele>
        <time>1970-01-01T00:00:00Z</time>
      </trkpt>
      <trkpt lat="39.367756" lon="-5.338766">
        <ele>546.3</ele>
        <time>1970-01-01T00:00:00Z</time>
      </trkpt>
      <trkpt lat="39.367756" lon="-5.338766">
        <ele>546.3</ele>
        <time>1970-01-01T00:00:00Z</time>
      </trkpt>
      <trkpt lat="39.367756" lon="-5.338766">
        <ele>546.3</ele>
        <time>1970-01-01T00:00:00Z</time>
      </trkpt>
      <trkpt lat="39.367742" lon="-5.338711">
        <ele>546.5</ele>
        <time>1970-01-01T00:00:00Z</time>
      </trkpt>
      <trkpt lat="39.367742" lon="-5.338711">
        <ele>546.5</ele>
        <time>1970-01-01T00:00:00Z</time>
      </trkpt>
      <trkpt lat="39.367742" lon="-5.338711">
        <ele>546.5</ele>
        <time>1970-01-01T00:00:00Z</time>
      </trkpt>
      <trkpt lat="39.367742" lon="-5.338711">
        <ele>546.5</ele>
        <time>1970-01-01T00:00:00Z</time>
      </trkpt>
      <trkpt lat="39.367765" lon="-5.338631">
        <ele>547.3</ele>
        <time>1970-01-01T00:00:00Z</time>
      </trkpt>
      <trkpt lat="39.367765" lon="-5.338631">
        <ele>547.3</ele>
        <time>1970-01-01T00:00:00Z</time>
      </trkpt>
      <trkpt lat="39.367765" lon="-5.338631">
        <ele>547.3</ele>
        <time>1970-01-01T00:00:00Z</time>
      </trkpt>
      <trkpt lat="39.367765" lon="-5.338631">
        <ele>547.3</ele>
        <time>1970-01-01T00:00:00Z</time>
      </trkpt>
      <trkpt lat="39.367796" lon="-5.338505">
        <ele>548.4</ele>
        <time>1970-01-01T00:00:00Z</time>
      </trkpt>
      <trkpt lat="39.367796" lon="-5.338505">
        <ele>548.4</ele>
        <time>1970-01-01T00:00:00Z</time>
      </trkpt>
      <trkpt lat="39.367796" lon="-5.338505">
        <ele>548.4</ele>
        <time>1970-01-01T00:00:00Z</time>
      </trkpt>
      <trkpt lat="39.367796" lon="-5.338505">
        <ele>548.4</ele>
        <time>1970-01-01T00:00:00Z</time>
      </trkpt>
      <trkpt lat="39.367819" lon="-5.338430">
        <ele>548.8</ele>
        <time>1970-01-01T00:00:00Z</time>
      </trkpt>
      <trkpt lat="39.367819" lon="-5.338430">
        <ele>548.8</ele>
        <time>1970-01-01T00:00:00Z</time>
      </trkpt>
      <trkpt lat="39.367819" lon="-5.338430">
        <ele>548.8</ele>
        <time>1970-01-01T00:00:00Z</time>
      </trkpt>
      <trkpt lat="39.367819" lon="-5.338430">
        <ele>548.8</ele>
        <time>1970-01-01T00:00:00Z</time>
      </trkpt>
      <trkpt lat="39.367925" lon="-5.338121">
        <ele>550.5</ele>
        <time>1970-01-01T00:00:00Z</time>
      </trkpt>
      <trkpt lat="39.367925" lon="-5.338121">
        <ele>550.5</ele>
        <time>1970-01-01T00:00:00Z</time>
      </trkpt>
      <trkpt lat="39.367925" lon="-5.338121">
        <ele>550.5</ele>
        <time>1970-01-01T00:00:00Z</time>
      </trkpt>
      <trkpt lat="39.367925" lon="-5.338121">
        <ele>550.5</ele>
        <time>1970-01-01T00:00:00Z</time>
      </trkpt>
      <trkpt lat="39.367954" lon="-5.337966">
        <ele>551.8</ele>
        <time>1970-01-01T00:00:00Z</time>
      </trkpt>
      <trkpt lat="39.367954" lon="-5.337966">
        <ele>551.8</ele>
        <time>1970-01-01T00:00:00Z</time>
      </trkpt>
      <trkpt lat="39.367954" lon="-5.337966">
        <ele>551.8</ele>
        <time>1970-01-01T00:00:00Z</time>
      </trkpt>
      <trkpt lat="39.367954" lon="-5.337966">
        <ele>551.8</ele>
        <time>1970-01-01T00:00:00Z</time>
      </trkpt>
      <trkpt lat="39.367980" lon="-5.337859">
        <ele>552.9</ele>
        <time>1970-01-01T00:00:00Z</time>
      </trkpt>
      <trkpt lat="39.367980" lon="-5.337859">
        <ele>552.9</ele>
        <time>1970-01-01T00:00:00Z</time>
      </trkpt>
      <trkpt lat="39.367980" lon="-5.337859">
        <ele>552.9</ele>
        <time>1970-01-01T00:00:00Z</time>
      </trkpt>
      <trkpt lat="39.367980" lon="-5.337859">
        <ele>552.9</ele>
        <time>1970-01-01T00:00:00Z</time>
      </trkpt>
      <trkpt lat="39.368008" lon="-5.337747">
        <ele>553.7</ele>
        <time>1970-01-01T00:00:00Z</time>
      </trkpt>
      <trkpt lat="39.368008" lon="-5.337747">
        <ele>553.7</ele>
        <time>1970-01-01T00:00:00Z</time>
      </trkpt>
      <trkpt lat="39.368008" lon="-5.337747">
        <ele>553.7</ele>
        <time>1970-01-01T00:00:00Z</time>
      </trkpt>
      <trkpt lat="39.368008" lon="-5.337747">
        <ele>553.7</ele>
        <time>1970-01-01T00:00:00Z</time>
      </trkpt>
      <trkpt lat="39.368049" lon="-5.337634">
        <ele>554.6</ele>
        <time>1970-01-01T00:00:00Z</time>
      </trkpt>
      <trkpt lat="39.368049" lon="-5.337634">
        <ele>554.6</ele>
        <time>1970-01-01T00:00:00Z</time>
      </trkpt>
      <trkpt lat="39.368049" lon="-5.337634">
        <ele>554.6</ele>
        <time>1970-01-01T00:00:00Z</time>
      </trkpt>
      <trkpt lat="39.368049" lon="-5.337634">
        <ele>554.6</ele>
        <time>1970-01-01T00:00:00Z</time>
      </trkpt>
      <trkpt lat="39.368085" lon="-5.337593">
        <ele>555.3</ele>
        <time>1970-01-01T00:00:00Z</time>
      </trkpt>
      <trkpt lat="39.368085" lon="-5.337593">
        <ele>555.3</ele>
        <time>1970-01-01T00:00:00Z</time>
      </trkpt>
      <trkpt lat="39.368085" lon="-5.337593">
        <ele>555.3</ele>
        <time>1970-01-01T00:00:00Z</time>
      </trkpt>
      <trkpt lat="39.368085" lon="-5.337593">
        <ele>555.3</ele>
        <time>1970-01-01T00:00:00Z</time>
      </trkpt>
      <trkpt lat="39.368136" lon="-5.337582">
        <ele>556.3</ele>
        <time>1970-01-01T00:00:00Z</time>
      </trkpt>
      <trkpt lat="39.368136" lon="-5.337582">
        <ele>556.3</ele>
        <time>1970-01-01T00:00:00Z</time>
      </trkpt>
      <trkpt lat="39.368136" lon="-5.337582">
        <ele>556.3</ele>
        <time>1970-01-01T00:00:00Z</time>
      </trkpt>
      <trkpt lat="39.368136" lon="-5.337582">
        <ele>556.3</ele>
        <time>1970-01-01T00:00:00Z</time>
      </trkpt>
      <trkpt lat="39.368256" lon="-5.337606">
        <ele>558.5</ele>
        <time>1970-01-01T00:00:00Z</time>
      </trkpt>
      <trkpt lat="39.368256" lon="-5.337606">
        <ele>558.5</ele>
        <time>1970-01-01T00:00:00Z</time>
      </trkpt>
      <trkpt lat="39.368256" lon="-5.337606">
        <ele>558.5</ele>
        <time>1970-01-01T00:00:00Z</time>
      </trkpt>
      <trkpt lat="39.368256" lon="-5.337606">
        <ele>558.5</ele>
        <time>1970-01-01T00:00:00Z</time>
      </trkpt>
      <trkpt lat="39.368327" lon="-5.337628">
        <ele>559.7</ele>
        <time>1970-01-01T00:00:00Z</time>
      </trkpt>
      <trkpt lat="39.368327" lon="-5.337628">
        <ele>559.7</ele>
        <time>1970-01-01T00:00:00Z</time>
      </trkpt>
      <trkpt lat="39.368327" lon="-5.337628">
        <ele>559.7</ele>
        <time>1970-01-01T00:00:00Z</time>
      </trkpt>
      <trkpt lat="39.368327" lon="-5.337628">
        <ele>559.7</ele>
        <time>1970-01-01T00:00:00Z</time>
      </trkpt>
      <trkpt lat="39.368386" lon="-5.337600">
        <ele>561.3</ele>
        <time>1970-01-01T00:00:00Z</time>
      </trkpt>
      <trkpt lat="39.368386" lon="-5.337600">
        <ele>561.3</ele>
        <time>1970-01-01T00:00:00Z</time>
      </trkpt>
      <trkpt lat="39.368386" lon="-5.337600">
        <ele>561.3</ele>
        <time>1970-01-01T00:00:00Z</time>
      </trkpt>
      <trkpt lat="39.368386" lon="-5.337600">
        <ele>561.3</ele>
        <time>1970-01-01T00:00:00Z</time>
      </trkpt>
      <trkpt lat="39.368418" lon="-5.337542">
        <ele>562.4</ele>
        <time>1970-01-01T00:00:00Z</time>
      </trkpt>
      <trkpt lat="39.368418" lon="-5.337542">
        <ele>562.4</ele>
        <time>1970-01-01T00:00:00Z</time>
      </trkpt>
      <trkpt lat="39.368418" lon="-5.337542">
        <ele>562.4</ele>
        <time>1970-01-01T00:00:00Z</time>
      </trkpt>
      <trkpt lat="39.368418" lon="-5.337542">
        <ele>562.4</ele>
        <time>1970-01-01T00:00:00Z</time>
      </trkpt>
      <trkpt lat="39.368427" lon="-5.337463">
        <ele>562.9</ele>
        <time>1970-01-01T00:00:00Z</time>
      </trkpt>
      <trkpt lat="39.368427" lon="-5.337463">
        <ele>562.9</ele>
        <time>1970-01-01T00:00:00Z</time>
      </trkpt>
      <trkpt lat="39.368427" lon="-5.337463">
        <ele>562.9</ele>
        <time>1970-01-01T00:00:00Z</time>
      </trkpt>
      <trkpt lat="39.368427" lon="-5.337463">
        <ele>562.9</ele>
        <time>1970-01-01T00:00:00Z</time>
      </trkpt>
      <trkpt lat="39.368417" lon="-5.337315">
        <ele>563.4</ele>
        <time>1970-01-01T00:00:00Z</time>
      </trkpt>
      <trkpt lat="39.368417" lon="-5.337315">
        <ele>563.4</ele>
        <time>1970-01-01T00:00:00Z</time>
      </trkpt>
      <trkpt lat="39.368417" lon="-5.337315">
        <ele>563.4</ele>
        <time>1970-01-01T00:00:00Z</time>
      </trkpt>
      <trkpt lat="39.368417" lon="-5.337315">
        <ele>563.4</ele>
        <time>1970-01-01T00:00:00Z</time>
      </trkpt>
      <trkpt lat="39.368408" lon="-5.337170">
        <ele>563.8</ele>
        <time>1970-01-01T00:00:00Z</time>
      </trkpt>
      <trkpt lat="39.368408" lon="-5.337170">
        <ele>563.8</ele>
        <time>1970-01-01T00:00:00Z</time>
      </trkpt>
      <trkpt lat="39.368408" lon="-5.337170">
        <ele>563.8</ele>
        <time>1970-01-01T00:00:00Z</time>
      </trkpt>
      <trkpt lat="39.368408" lon="-5.337170">
        <ele>563.8</ele>
        <time>1970-01-01T00:00:00Z</time>
      </trkpt>
      <trkpt lat="39.368428" lon="-5.336763">
        <ele>566.7</ele>
        <time>1970-01-01T00:00:00Z</time>
      </trkpt>
      <trkpt lat="39.368428" lon="-5.336763">
        <ele>566.7</ele>
        <time>1970-01-01T00:00:00Z</time>
      </trkpt>
      <trkpt lat="39.368428" lon="-5.336763">
        <ele>566.7</ele>
        <time>1970-01-01T00:00:00Z</time>
      </trkpt>
      <trkpt lat="39.368428" lon="-5.336763">
        <ele>566.7</ele>
        <time>1970-01-01T00:00:00Z</time>
      </trkpt>
      <trkpt lat="39.368440" lon="-5.336472">
        <ele>569.4</ele>
        <time>1970-01-01T00:00:00Z</time>
      </trkpt>
      <trkpt lat="39.368440" lon="-5.336472">
        <ele>569.4</ele>
        <time>1970-01-01T00:00:00Z</time>
      </trkpt>
      <trkpt lat="39.368440" lon="-5.336472">
        <ele>569.4</ele>
        <time>1970-01-01T00:00:00Z</time>
      </trkpt>
      <trkpt lat="39.368440" lon="-5.336472">
        <ele>569.4</ele>
        <time>1970-01-01T00:00:00Z</time>
      </trkpt>
      <trkpt lat="39.368438" lon="-5.336389">
        <ele>569.9</ele>
        <time>1970-01-01T00:00:00Z</time>
      </trkpt>
      <trkpt lat="39.368438" lon="-5.336389">
        <ele>569.9</ele>
        <time>1970-01-01T00:00:00Z</time>
      </trkpt>
      <trkpt lat="39.368438" lon="-5.336389">
        <ele>569.9</ele>
        <time>1970-01-01T00:00:00Z</time>
      </trkpt>
      <trkpt lat="39.368438" lon="-5.336389">
        <ele>569.9</ele>
        <time>1970-01-01T00:00:00Z</time>
      </trkpt>
      <trkpt lat="39.368458" lon="-5.336275">
        <ele>571.0</ele>
        <time>1970-01-01T00:00:00Z</time>
      </trkpt>
      <trkpt lat="39.368458" lon="-5.336275">
        <ele>571.0</ele>
        <time>1970-01-01T00:00:00Z</time>
      </trkpt>
      <trkpt lat="39.368458" lon="-5.336275">
        <ele>571.0</ele>
        <time>1970-01-01T00:00:00Z</time>
      </trkpt>
      <trkpt lat="39.368458" lon="-5.336275">
        <ele>571.0</ele>
        <time>1970-01-01T00:00:00Z</time>
      </trkpt>
      <trkpt lat="39.368517" lon="-5.336154">
        <ele>573.4</ele>
        <time>1970-01-01T00:00:00Z</time>
      </trkpt>
      <trkpt lat="39.368517" lon="-5.336154">
        <ele>573.4</ele>
        <time>1970-01-01T00:00:00Z</time>
      </trkpt>
      <trkpt lat="39.368517" lon="-5.336154">
        <ele>573.4</ele>
        <time>1970-01-01T00:00:00Z</time>
      </trkpt>
      <trkpt lat="39.368517" lon="-5.336154">
        <ele>573.4</ele>
        <time>1970-01-01T00:00:00Z</time>
      </trkpt>
      <trkpt lat="39.368589" lon="-5.336009">
        <ele>575.6</ele>
        <time>1970-01-01T00:00:00Z</time>
      </trkpt>
      <trkpt lat="39.368589" lon="-5.336009">
        <ele>575.6</ele>
        <time>1970-01-01T00:00:00Z</time>
      </trkpt>
      <trkpt lat="39.368589" lon="-5.336009">
        <ele>575.6</ele>
        <time>1970-01-01T00:00:00Z</time>
      </trkpt>
      <trkpt lat="39.368589" lon="-5.336009">
        <ele>575.6</ele>
        <time>1970-01-01T00:00:00Z</time>
      </trkpt>
      <trkpt lat="39.368738" lon="-5.335754">
        <ele>580.1</ele>
        <time>1970-01-01T00:00:00Z</time>
      </trkpt>
      <trkpt lat="39.368738" lon="-5.335754">
        <ele>580.1</ele>
        <time>1970-01-01T00:00:00Z</time>
      </trkpt>
      <trkpt lat="39.368738" lon="-5.335754">
        <ele>580.1</ele>
        <time>1970-01-01T00:00:00Z</time>
      </trkpt>
      <trkpt lat="39.368738" lon="-5.335754">
        <ele>580.1</ele>
        <time>1970-01-01T00:00:00Z</time>
      </trkpt>
      <trkpt lat="39.368840" lon="-5.335594">
        <ele>582.2</ele>
        <time>1970-01-01T00:00:00Z</time>
      </trkpt>
      <trkpt lat="39.368840" lon="-5.335594">
        <ele>582.2</ele>
        <time>1970-01-01T00:00:00Z</time>
      </trkpt>
      <trkpt lat="39.368840" lon="-5.335594">
        <ele>582.2</ele>
        <time>1970-01-01T00:00:00Z</time>
      </trkpt>
      <trkpt lat="39.368840" lon="-5.335594">
        <ele>582.2</ele>
        <time>1970-01-01T00:00:00Z</time>
      </trkpt>
      <trkpt lat="39.369027" lon="-5.335336">
        <ele>585.0</ele>
        <time>1970-01-01T00:00:00Z</time>
      </trkpt>
      <trkpt lat="39.369027" lon="-5.335336">
        <ele>585.0</ele>
        <time>1970-01-01T00:00:00Z</time>
      </trkpt>
      <trkpt lat="39.369027" lon="-5.335336">
        <ele>585.0</ele>
        <time>1970-01-01T00:00:00Z</time>
      </trkpt>
      <trkpt lat="39.369027" lon="-5.335336">
        <ele>585.0</ele>
        <time>1970-01-01T00:00:00Z</time>
      </trkpt>
      <trkpt lat="39.369237" lon="-5.335082">
        <ele>588.1</ele>
        <time>1970-01-01T00:00:00Z</time>
      </trkpt>
      <trkpt lat="39.369237" lon="-5.335082">
        <ele>588.1</ele>
        <time>1970-01-01T00:00:00Z</time>
      </trkpt>
      <trkpt lat="39.369237" lon="-5.335082">
        <ele>588.1</ele>
        <time>1970-01-01T00:00:00Z</time>
      </trkpt>
      <trkpt lat="39.369237" lon="-5.335082">
        <ele>588.1</ele>
        <time>1970-01-01T00:00:00Z</time>
      </trkpt>
      <trkpt lat="39.369333" lon="-5.334970">
        <ele>589.7</ele>
        <time>1970-01-01T00:00:00Z</time>
      </trkpt>
      <trkpt lat="39.369333" lon="-5.334970">
        <ele>589.7</ele>
        <time>1970-01-01T00:00:00Z</time>
      </trkpt>
      <trkpt lat="39.369333" lon="-5.334970">
        <ele>589.7</ele>
        <time>1970-01-01T00:00:00Z</time>
      </trkpt>
      <trkpt lat="39.369333" lon="-5.334970">
        <ele>589.7</ele>
        <time>1970-01-01T00:00:00Z</time>
      </trkpt>
      <trkpt lat="39.369471" lon="-5.334849">
        <ele>592.6</ele>
        <time>1970-01-01T00:00:00Z</time>
      </trkpt>
      <trkpt lat="39.369471" lon="-5.334849">
        <ele>592.6</ele>
        <time>1970-01-01T00:00:00Z</time>
      </trkpt>
      <trkpt lat="39.369471" lon="-5.334849">
        <ele>592.6</ele>
        <time>1970-01-01T00:00:00Z</time>
      </trkpt>
      <trkpt lat="39.369471" lon="-5.334849">
        <ele>592.6</ele>
        <time>1970-01-01T00:00:00Z</time>
      </trkpt>
      <trkpt lat="39.369602" lon="-5.334734">
        <ele>595.8</ele>
        <time>1970-01-01T00:00:00Z</time>
      </trkpt>
      <trkpt lat="39.369602" lon="-5.334734">
        <ele>595.8</ele>
        <time>1970-01-01T00:00:00Z</time>
      </trkpt>
      <trkpt lat="39.369602" lon="-5.334734">
        <ele>595.8</ele>
        <time>1970-01-01T00:00:00Z</time>
      </trkpt>
      <trkpt lat="39.369602" lon="-5.334734">
        <ele>595.8</ele>
        <time>1970-01-01T00:00:00Z</time>
      </trkpt>
      <trkpt lat="39.369701" lon="-5.334637">
        <ele>598.8</ele>
        <time>1970-01-01T00:00:00Z</time>
      </trkpt>
      <trkpt lat="39.369701" lon="-5.334637">
        <ele>598.8</ele>
        <time>1970-01-01T00:00:00Z</time>
      </trkpt>
      <trkpt lat="39.369701" lon="-5.334637">
        <ele>598.8</ele>
        <time>1970-01-01T00:00:00Z</time>
      </trkpt>
      <trkpt lat="39.369701" lon="-5.334637">
        <ele>598.8</ele>
        <time>1970-01-01T00:00:00Z</time>
      </trkpt>
      <trkpt lat="39.369821" lon="-5.334538">
        <ele>602.6</ele>
        <time>1970-01-01T00:00:00Z</time>
      </trkpt>
      <trkpt lat="39.369821" lon="-5.334538">
        <ele>602.6</ele>
        <time>1970-01-01T00:00:00Z</time>
      </trkpt>
      <trkpt lat="39.369821" lon="-5.334538">
        <ele>602.6</ele>
        <time>1970-01-01T00:00:00Z</time>
      </trkpt>
      <trkpt lat="39.369821" lon="-5.334538">
        <ele>602.6</ele>
        <time>1970-01-01T00:00:00Z</time>
      </trkpt>
      <trkpt lat="39.369916" lon="-5.334459">
        <ele>605.3</ele>
        <time>1970-01-01T00:00:00Z</time>
      </trkpt>
      <trkpt lat="39.369916" lon="-5.334459">
        <ele>605.3</ele>
        <time>1970-01-01T00:00:00Z</time>
      </trkpt>
      <trkpt lat="39.369916" lon="-5.334459">
        <ele>605.3</ele>
        <time>1970-01-01T00:00:00Z</time>
      </trkpt>
      <trkpt lat="39.369916" lon="-5.334459">
        <ele>605.3</ele>
        <time>1970-01-01T00:00:00Z</time>
      </trkpt>
      <trkpt lat="39.370016" lon="-5.334386">
        <ele>608.6</ele>
        <time>1970-01-01T00:00:00Z</time>
      </trkpt>
      <trkpt lat="39.370016" lon="-5.334386">
        <ele>608.6</ele>
        <time>1970-01-01T00:00:00Z</time>
      </trkpt>
      <trkpt lat="39.370016" lon="-5.334386">
        <ele>608.6</ele>
        <time>1970-01-01T00:00:00Z</time>
      </trkpt>
      <trkpt lat="39.370016" lon="-5.334386">
        <ele>608.6</ele>
        <time>1970-01-01T00:00:00Z</time>
      </trkpt>
      <trkpt lat="39.370123" lon="-5.334310">
        <ele>612.2</ele>
        <time>1970-01-01T00:00:00Z</time>
      </trkpt>
      <trkpt lat="39.370123" lon="-5.334310">
        <ele>612.2</ele>
        <time>1970-01-01T00:00:00Z</time>
      </trkpt>
      <trkpt lat="39.370123" lon="-5.334310">
        <ele>612.2</ele>
        <time>1970-01-01T00:00:00Z</time>
      </trkpt>
      <trkpt lat="39.370123" lon="-5.334310">
        <ele>612.2</ele>
        <time>1970-01-01T00:00:00Z</time>
      </trkpt>
      <trkpt lat="39.370162" lon="-5.334262">
        <ele>613.6</ele>
        <time>1970-01-01T00:00:00Z</time>
      </trkpt>
      <trkpt lat="39.370162" lon="-5.334262">
        <ele>613.6</ele>
        <time>1970-01-01T00:00:00Z</time>
      </trkpt>
      <trkpt lat="39.370162" lon="-5.334262">
        <ele>613.6</ele>
        <time>1970-01-01T00:00:00Z</time>
      </trkpt>
      <trkpt lat="39.370162" lon="-5.334262">
        <ele>613.6</ele>
        <time>1970-01-01T00:00:00Z</time>
      </trkpt>
      <trkpt lat="39.370212" lon="-5.334162">
        <ele>615.3</ele>
        <time>1970-01-01T00:00:00Z</time>
      </trkpt>
      <trkpt lat="39.370212" lon="-5.334162">
        <ele>615.3</ele>
        <time>1970-01-01T00:00:00Z</time>
      </trkpt>
      <trkpt lat="39.370212" lon="-5.334162">
        <ele>615.3</ele>
        <time>1970-01-01T00:00:00Z</time>
      </trkpt>
      <trkpt lat="39.370212" lon="-5.334162">
        <ele>615.3</ele>
        <time>1970-01-01T00:00:00Z</time>
      </trkpt>
      <trkpt lat="39.370281" lon="-5.334002">
        <ele>617.7</ele>
        <time>1970-01-01T00:00:00Z</time>
      </trkpt>
      <trkpt lat="39.370281" lon="-5.334002">
        <ele>617.7</ele>
        <time>1970-01-01T00:00:00Z</time>
      </trkpt>
      <trkpt lat="39.370281" lon="-5.334002">
        <ele>617.7</ele>
        <time>1970-01-01T00:00:00Z</time>
      </trkpt>
      <trkpt lat="39.370281" lon="-5.334002">
        <ele>617.7</ele>
        <time>1970-01-01T00:00:00Z</time>
      </trkpt>
      <trkpt lat="39.370376" lon="-5.333784">
        <ele>620.3</ele>
        <time>1970-01-01T00:00:00Z</time>
      </trkpt>
      <trkpt lat="39.370376" lon="-5.333784">
        <ele>620.3</ele>
        <time>1970-01-01T00:00:00Z</time>
      </trkpt>
      <trkpt lat="39.370376" lon="-5.333784">
        <ele>620.3</ele>
        <time>1970-01-01T00:00:00Z</time>
      </trkpt>
      <trkpt lat="39.370376" lon="-5.333784">
        <ele>620.3</ele>
        <time>1970-01-01T00:00:00Z</time>
      </trkpt>
      <trkpt lat="39.370422" lon="-5.333660">
        <ele>621.2</ele>
        <time>1970-01-01T00:00:00Z</time>
      </trkpt>
      <trkpt lat="39.370422" lon="-5.333660">
        <ele>621.2</ele>
        <time>1970-01-01T00:00:00Z</time>
      </trkpt>
      <trkpt lat="39.370422" lon="-5.333660">
        <ele>621.2</ele>
        <time>1970-01-01T00:00:00Z</time>
      </trkpt>
      <trkpt lat="39.370422" lon="-5.333660">
        <ele>621.2</ele>
        <time>1970-01-01T00:00:00Z</time>
      </trkpt>
      <trkpt lat="39.370514" lon="-5.333451">
        <ele>622.8</ele>
        <time>1970-01-01T00:00:00Z</time>
      </trkpt>
      <trkpt lat="39.370514" lon="-5.333451">
        <ele>622.8</ele>
        <time>1970-01-01T00:00:00Z</time>
      </trkpt>
      <trkpt lat="39.370514" lon="-5.333451">
        <ele>622.8</ele>
        <time>1970-01-01T00:00:00Z</time>
      </trkpt>
      <trkpt lat="39.370514" lon="-5.333451">
        <ele>622.8</ele>
        <time>1970-01-01T00:00:00Z</time>
      </trkpt>
      <trkpt lat="39.370568" lon="-5.333358">
        <ele>624.1</ele>
        <time>1970-01-01T00:00:00Z</time>
      </trkpt>
      <trkpt lat="39.370568" lon="-5.333358">
        <ele>624.1</ele>
        <time>1970-01-01T00:00:00Z</time>
      </trkpt>
      <trkpt lat="39.370568" lon="-5.333358">
        <ele>624.1</ele>
        <time>1970-01-01T00:00:00Z</time>
      </trkpt>
      <trkpt lat="39.370568" lon="-5.333358">
        <ele>624.1</ele>
        <time>1970-01-01T00:00:00Z</time>
      </trkpt>
      <trkpt lat="39.370635" lon="-5.333252">
        <ele>625.6</ele>
        <time>1970-01-01T00:00:00Z</time>
      </trkpt>
      <trkpt lat="39.370635" lon="-5.333252">
        <ele>625.6</ele>
        <time>1970-01-01T00:00:00Z</time>
      </trkpt>
      <trkpt lat="39.370635" lon="-5.333252">
        <ele>625.6</ele>
        <time>1970-01-01T00:00:00Z</time>
      </trkpt>
      <trkpt lat="39.370635" lon="-5.333252">
        <ele>625.6</ele>
        <time>1970-01-01T00:00:00Z</time>
      </trkpt>
      <trkpt lat="39.370737" lon="-5.333139">
        <ele>628.3</ele>
        <time>1970-01-01T00:00:00Z</time>
      </trkpt>
      <trkpt lat="39.370737" lon="-5.333139">
        <ele>628.3</ele>
        <time>1970-01-01T00:00:00Z</time>
      </trkpt>
      <trkpt lat="39.370737" lon="-5.333139">
        <ele>628.3</ele>
        <time>1970-01-01T00:00:00Z</time>
      </trkpt>
      <trkpt lat="39.370737" lon="-5.333139">
        <ele>628.3</ele>
        <time>1970-01-01T00:00:00Z</time>
      </trkpt>
      <trkpt lat="39.370797" lon="-5.333110">
        <ele>630.2</ele>
        <time>1970-01-01T00:00:00Z</time>
      </trkpt>
      <trkpt lat="39.370797" lon="-5.333110">
        <ele>630.2</ele>
        <time>1970-01-01T00:00:00Z</time>
      </trkpt>
      <trkpt lat="39.370797" lon="-5.333110">
        <ele>630.2</ele>
        <time>1970-01-01T00:00:00Z</time>
      </trkpt>
      <trkpt lat="39.370797" lon="-5.333110">
        <ele>630.2</ele>
        <time>1970-01-01T00:00:00Z</time>
      </trkpt>
      <trkpt lat="39.370846" lon="-5.333053">
        <ele>631.7</ele>
        <time>1970-01-01T00:00:00Z</time>
      </trkpt>
      <trkpt lat="39.370846" lon="-5.333053">
        <ele>631.7</ele>
        <time>1970-01-01T00:00:00Z</time>
      </trkpt>
      <trkpt lat="39.370846" lon="-5.333053">
        <ele>631.7</ele>
        <time>1970-01-01T00:00:00Z</time>
      </trkpt>
      <trkpt lat="39.370846" lon="-5.333053">
        <ele>631.7</ele>
        <time>1970-01-01T00:00:00Z</time>
      </trkpt>
      <trkpt lat="39.370985" lon="-5.332869">
        <ele>635.4</ele>
        <time>1970-01-01T00:00:00Z</time>
      </trkpt>
      <trkpt lat="39.370985" lon="-5.332869">
        <ele>635.4</ele>
        <time>1970-01-01T00:00:00Z</time>
      </trkpt>
      <trkpt lat="39.370985" lon="-5.332869">
        <ele>635.4</ele>
        <time>1970-01-01T00:00:00Z</time>
      </trkpt>
      <trkpt lat="39.370985" lon="-5.332869">
        <ele>635.4</ele>
        <time>1970-01-01T00:00:00Z</time>
      </trkpt>
      <trkpt lat="39.371101" lon="-5.332674">
        <ele>638.5</ele>
        <time>1970-01-01T00:00:00Z</time>
      </trkpt>
      <trkpt lat="39.371101" lon="-5.332674">
        <ele>638.5</ele>
        <time>1970-01-01T00:00:00Z</time>
      </trkpt>
      <trkpt lat="39.371101" lon="-5.332674">
        <ele>638.5</ele>
        <time>1970-01-01T00:00:00Z</time>
      </trkpt>
      <trkpt lat="39.371101" lon="-5.332674">
        <ele>638.5</ele>
        <time>1970-01-01T00:00:00Z</time>
      </trkpt>
      <trkpt lat="39.371198" lon="-5.332503">
        <ele>641.5</ele>
        <time>1970-01-01T00:00:00Z</time>
      </trkpt>
      <trkpt lat="39.371198" lon="-5.332503">
        <ele>641.5</ele>
        <time>1970-01-01T00:00:00Z</time>
      </trkpt>
      <trkpt lat="39.371198" lon="-5.332503">
        <ele>641.5</ele>
        <time>1970-01-01T00:00:00Z</time>
      </trkpt>
      <trkpt lat="39.371198" lon="-5.332503">
        <ele>641.5</ele>
        <time>1970-01-01T00:00:00Z</time>
      </trkpt>
      <trkpt lat="39.371277" lon="-5.332345">
        <ele>643.3</ele>
        <time>1970-01-01T00:00:00Z</time>
      </trkpt>
      <trkpt lat="39.371277" lon="-5.332345">
        <ele>643.3</ele>
        <time>1970-01-01T00:00:00Z</time>
      </trkpt>
      <trkpt lat="39.371277" lon="-5.332345">
        <ele>643.3</ele>
        <time>1970-01-01T00:00:00Z</time>
      </trkpt>
      <trkpt lat="39.371277" lon="-5.332345">
        <ele>643.3</ele>
        <time>1970-01-01T00:00:00Z</time>
      </trkpt>
      <trkpt lat="39.371317" lon="-5.332274">
        <ele>644.2</ele>
        <time>1970-01-01T00:00:00Z</time>
      </trkpt>
      <trkpt lat="39.371317" lon="-5.332274">
        <ele>644.2</ele>
        <time>1970-01-01T00:00:00Z</time>
      </trkpt>
      <trkpt lat="39.371317" lon="-5.332274">
        <ele>644.2</ele>
        <time>1970-01-01T00:00:00Z</time>
      </trkpt>
      <trkpt lat="39.371317" lon="-5.332274">
        <ele>644.2</ele>
        <time>1970-01-01T00:00:00Z</time>
      </trkpt>
      <trkpt lat="39.371378" lon="-5.332187">
        <ele>646.2</ele>
        <time>1970-01-01T00:00:00Z</time>
      </trkpt>
      <trkpt lat="39.371378" lon="-5.332187">
        <ele>646.2</ele>
        <time>1970-01-01T00:00:00Z</time>
      </trkpt>
      <trkpt lat="39.371378" lon="-5.332187">
        <ele>646.2</ele>
        <time>1970-01-01T00:00:00Z</time>
      </trkpt>
      <trkpt lat="39.371378" lon="-5.332187">
        <ele>646.2</ele>
        <time>1970-01-01T00:00:00Z</time>
      </trkpt>
      <trkpt lat="39.371453" lon="-5.332143">
        <ele>648.6</ele>
        <time>1970-01-01T00:00:00Z</time>
      </trkpt>
      <trkpt lat="39.371453" lon="-5.332143">
        <ele>648.6</ele>
        <time>1970-01-01T00:00:00Z</time>
      </trkpt>
      <trkpt lat="39.371453" lon="-5.332143">
        <ele>648.6</ele>
        <time>1970-01-01T00:00:00Z</time>
      </trkpt>
      <trkpt lat="39.371453" lon="-5.332143">
        <ele>648.6</ele>
        <time>1970-01-01T00:00:00Z</time>
      </trkpt>
      <trkpt lat="39.371556" lon="-5.332063">
        <ele>651.4</ele>
        <time>1970-01-01T00:00:00Z</time>
      </trkpt>
      <trkpt lat="39.371556" lon="-5.332063">
        <ele>651.4</ele>
        <time>1970-01-01T00:00:00Z</time>
      </trkpt>
      <trkpt lat="39.371556" lon="-5.332063">
        <ele>651.4</ele>
        <time>1970-01-01T00:00:00Z</time>
      </trkpt>
      <trkpt lat="39.371556" lon="-5.332063">
        <ele>651.4</ele>
        <time>1970-01-01T00:00:00Z</time>
      </trkpt>
      <trkpt lat="39.371653" lon="-5.331935">
        <ele>653.7</ele>
        <time>1970-01-01T00:00:00Z</time>
      </trkpt>
      <trkpt lat="39.371653" lon="-5.331935">
        <ele>653.7</ele>
        <time>1970-01-01T00:00:00Z</time>
      </trkpt>
      <trkpt lat="39.371653" lon="-5.331935">
        <ele>653.7</ele>
        <time>1970-01-01T00:00:00Z</time>
      </trkpt>
      <trkpt lat="39.371653" lon="-5.331935">
        <ele>653.7</ele>
        <time>1970-01-01T00:00:00Z</time>
      </trkpt>
      <trkpt lat="39.371755" lon="-5.331785">
        <ele>656.2</ele>
        <time>1970-01-01T00:00:00Z</time>
      </trkpt>
      <trkpt lat="39.371755" lon="-5.331785">
        <ele>656.2</ele>
        <time>1970-01-01T00:00:00Z</time>
      </trkpt>
      <trkpt lat="39.371755" lon="-5.331785">
        <ele>656.2</ele>
        <time>1970-01-01T00:00:00Z</time>
      </trkpt>
      <trkpt lat="39.371755" lon="-5.331785">
        <ele>656.2</ele>
        <time>1970-01-01T00:00:00Z</time>
      </trkpt>
      <trkpt lat="39.371847" lon="-5.331640">
        <ele>658.4</ele>
        <time>1970-01-01T00:00:00Z</time>
      </trkpt>
      <trkpt lat="39.371847" lon="-5.331640">
        <ele>658.4</ele>
        <time>1970-01-01T00:00:00Z</time>
      </trkpt>
      <trkpt lat="39.371847" lon="-5.331640">
        <ele>658.4</ele>
        <time>1970-01-01T00:00:00Z</time>
      </trkpt>
      <trkpt lat="39.371847" lon="-5.331640">
        <ele>658.4</ele>
        <time>1970-01-01T00:00:00Z</time>
      </trkpt>
      <trkpt lat="39.372015" lon="-5.331466">
        <ele>662.0</ele>
        <time>1970-01-01T00:00:00Z</time>
      </trkpt>
      <trkpt lat="39.372015" lon="-5.331466">
        <ele>662.0</ele>
        <time>1970-01-01T00:00:00Z</time>
      </trkpt>
      <trkpt lat="39.372015" lon="-5.331466">
        <ele>662.0</ele>
        <time>1970-01-01T00:00:00Z</time>
      </trkpt>
      <trkpt lat="39.372015" lon="-5.331466">
        <ele>662.0</ele>
        <time>1970-01-01T00:00:00Z</time>
      </trkpt>
      <trkpt lat="39.372117" lon="-5.331361">
        <ele>664.3</ele>
        <time>1970-01-01T00:00:00Z</time>
      </trkpt>
      <trkpt lat="39.372117" lon="-5.331361">
        <ele>664.3</ele>
        <time>1970-01-01T00:00:00Z</time>
      </trkpt>
      <trkpt lat="39.372117" lon="-5.331361">
        <ele>664.3</ele>
        <time>1970-01-01T00:00:00Z</time>
      </trkpt>
      <trkpt lat="39.372117" lon="-5.331361">
        <ele>664.3</ele>
        <time>1970-01-01T00:00:00Z</time>
      </trkpt>
      <trkpt lat="39.372187" lon="-5.331257">
        <ele>666.1</ele>
        <time>1970-01-01T00:00:00Z</time>
      </trkpt>
      <trkpt lat="39.372187" lon="-5.331257">
        <ele>666.1</ele>
        <time>1970-01-01T00:00:00Z</time>
      </trkpt>
      <trkpt lat="39.372187" lon="-5.331257">
        <ele>666.1</ele>
        <time>1970-01-01T00:00:00Z</time>
      </trkpt>
      <trkpt lat="39.372187" lon="-5.331257">
        <ele>666.1</ele>
        <time>1970-01-01T00:00:00Z</time>
      </trkpt>
      <trkpt lat="39.372369" lon="-5.330882">
        <ele>669.8</ele>
        <time>1970-01-01T00:00:00Z</time>
      </trkpt>
      <trkpt lat="39.372369" lon="-5.330882">
        <ele>669.8</ele>
        <time>1970-01-01T00:00:00Z</time>
      </trkpt>
      <trkpt lat="39.372369" lon="-5.330882">
        <ele>669.8</ele>
        <time>1970-01-01T00:00:00Z</time>
      </trkpt>
      <trkpt lat="39.372369" lon="-5.330882">
        <ele>669.8</ele>
        <time>1970-01-01T00:00:00Z</time>
      </trkpt>
      <trkpt lat="39.372418" lon="-5.330767">
        <ele>671.1</ele>
        <time>1970-01-01T00:00:00Z</time>
      </trkpt>
      <trkpt lat="39.372418" lon="-5.330767">
        <ele>671.1</ele>
        <time>1970-01-01T00:00:00Z</time>
      </trkpt>
      <trkpt lat="39.372418" lon="-5.330767">
        <ele>671.1</ele>
        <time>1970-01-01T00:00:00Z</time>
      </trkpt>
      <trkpt lat="39.372418" lon="-5.330767">
        <ele>671.1</ele>
        <time>1970-01-01T00:00:00Z</time>
      </trkpt>
      <trkpt lat="39.372431" lon="-5.330696">
        <ele>671.4</ele>
        <time>1970-01-01T00:00:00Z</time>
      </trkpt>
      <trkpt lat="39.372431" lon="-5.330696">
        <ele>671.4</ele>
        <time>1970-01-01T00:00:00Z</time>
      </trkpt>
      <trkpt lat="39.372431" lon="-5.330696">
        <ele>671.4</ele>
        <time>1970-01-01T00:00:00Z</time>
      </trkpt>
      <trkpt lat="39.372431" lon="-5.330696">
        <ele>671.4</ele>
        <time>1970-01-01T00:00:00Z</time>
      </trkpt>
      <trkpt lat="39.372406" lon="-5.330638">
        <ele>670.6</ele>
        <time>1970-01-01T00:00:00Z</time>
      </trkpt>
      <trkpt lat="39.372406" lon="-5.330638">
        <ele>670.6</ele>
        <time>1970-01-01T00:00:00Z</time>
      </trkpt>
      <trkpt lat="39.372406" lon="-5.330638">
        <ele>670.6</ele>
        <time>1970-01-01T00:00:00Z</time>
      </trkpt>
      <trkpt lat="39.372406" lon="-5.330638">
        <ele>670.6</ele>
        <time>1970-01-01T00:00:00Z</time>
      </trkpt>
      <trkpt lat="39.372360" lon="-5.330587">
        <ele>669.6</ele>
        <time>1970-01-01T00:00:00Z</time>
      </trkpt>
      <trkpt lat="39.372360" lon="-5.330587">
        <ele>669.6</ele>
        <time>1970-01-01T00:00:00Z</time>
      </trkpt>
      <trkpt lat="39.372360" lon="-5.330587">
        <ele>669.6</ele>
        <time>1970-01-01T00:00:00Z</time>
      </trkpt>
      <trkpt lat="39.372360" lon="-5.330587">
        <ele>669.6</ele>
        <time>1970-01-01T00:00:00Z</time>
      </trkpt>
      <trkpt lat="39.372175" lon="-5.330439">
        <ele>666.8</ele>
        <time>1970-01-01T00:00:00Z</time>
      </trkpt>
      <trkpt lat="39.372175" lon="-5.330439">
        <ele>666.8</ele>
        <time>1970-01-01T00:00:00Z</time>
      </trkpt>
      <trkpt lat="39.372175" lon="-5.330439">
        <ele>666.8</ele>
        <time>1970-01-01T00:00:00Z</time>
      </trkpt>
      <trkpt lat="39.372175" lon="-5.330439">
        <ele>666.8</ele>
        <time>1970-01-01T00:00:00Z</time>
      </trkpt>
      <trkpt lat="39.372135" lon="-5.330387">
        <ele>666.6</ele>
        <time>1970-01-01T00:00:00Z</time>
      </trkpt>
      <trkpt lat="39.372135" lon="-5.330387">
        <ele>666.6</ele>
        <time>1970-01-01T00:00:00Z</time>
      </trkpt>
      <trkpt lat="39.372135" lon="-5.330387">
        <ele>666.6</ele>
        <time>1970-01-01T00:00:00Z</time>
      </trkpt>
      <trkpt lat="39.372135" lon="-5.330387">
        <ele>666.6</ele>
        <time>1970-01-01T00:00:00Z</time>
      </trkpt>
      <trkpt lat="39.372135" lon="-5.330336">
        <ele>667.3</ele>
        <time>1970-01-01T00:00:00Z</time>
      </trkpt>
      <trkpt lat="39.372135" lon="-5.330336">
        <ele>667.3</ele>
        <time>1970-01-01T00:00:00Z</time>
      </trkpt>
      <trkpt lat="39.372135" lon="-5.330336">
        <ele>667.3</ele>
        <time>1970-01-01T00:00:00Z</time>
      </trkpt>
      <trkpt lat="39.372135" lon="-5.330336">
        <ele>667.3</ele>
        <time>1970-01-01T00:00:00Z</time>
      </trkpt>
      <trkpt lat="39.372169" lon="-5.330306">
        <ele>668.2</ele>
        <time>1970-01-01T00:00:00Z</time>
      </trkpt>
      <trkpt lat="39.372169" lon="-5.330306">
        <ele>668.2</ele>
        <time>1970-01-01T00:00:00Z</time>
      </trkpt>
      <trkpt lat="39.372169" lon="-5.330306">
        <ele>668.2</ele>
        <time>1970-01-01T00:00:00Z</time>
      </trkpt>
      <trkpt lat="39.372169" lon="-5.330306">
        <ele>668.2</ele>
        <time>1970-01-01T00:00:00Z</time>
      </trkpt>
      <trkpt lat="39.372230" lon="-5.330287">
        <ele>669.3</ele>
        <time>1970-01-01T00:00:00Z</time>
      </trkpt>
      <trkpt lat="39.372230" lon="-5.330287">
        <ele>669.3</ele>
        <time>1970-01-01T00:00:00Z</time>
      </trkpt>
      <trkpt lat="39.372230" lon="-5.330287">
        <ele>669.3</ele>
        <time>1970-01-01T00:00:00Z</time>
      </trkpt>
      <trkpt lat="39.372230" lon="-5.330287">
        <ele>669.3</ele>
        <time>1970-01-01T00:00:00Z</time>
      </trkpt>
      <trkpt lat="39.372341" lon="-5.330313">
        <ele>670.8</ele>
        <time>1970-01-01T00:00:00Z</time>
      </trkpt>
      <trkpt lat="39.372341" lon="-5.330313">
        <ele>670.8</ele>
        <time>1970-01-01T00:00:00Z</time>
      </trkpt>
      <trkpt lat="39.372341" lon="-5.330313">
        <ele>670.8</ele>
        <time>1970-01-01T00:00:00Z</time>
      </trkpt>
      <trkpt lat="39.372341" lon="-5.330313">
        <ele>670.8</ele>
        <time>1970-01-01T00:00:00Z</time>
      </trkpt>
      <trkpt lat="39.372446" lon="-5.330308">
        <ele>672.9</ele>
        <time>1970-01-01T00:00:00Z</time>
      </trkpt>
      <trkpt lat="39.372446" lon="-5.330308">
        <ele>672.9</ele>
        <time>1970-01-01T00:00:00Z</time>
      </trkpt>
      <trkpt lat="39.372446" lon="-5.330308">
        <ele>672.9</ele>
        <time>1970-01-01T00:00:00Z</time>
      </trkpt>
      <trkpt lat="39.372446" lon="-5.330308">
        <ele>672.9</ele>
        <time>1970-01-01T00:00:00Z</time>
      </trkpt>
      <trkpt lat="39.372631" lon="-5.330278">
        <ele>676.4</ele>
        <time>1970-01-01T00:00:00Z</time>
      </trkpt>
      <trkpt lat="39.372631" lon="-5.330278">
        <ele>676.4</ele>
        <time>1970-01-01T00:00:00Z</time>
      </trkpt>
      <trkpt lat="39.372631" lon="-5.330278">
        <ele>676.4</ele>
        <time>1970-01-01T00:00:00Z</time>
      </trkpt>
      <trkpt lat="39.372631" lon="-5.330278">
        <ele>676.4</ele>
        <time>1970-01-01T00:00:00Z</time>
      </trkpt>
      <trkpt lat="39.372752" lon="-5.330263">
        <ele>678.2</ele>
        <time>1970-01-01T00:00:00Z</time>
      </trkpt>
      <trkpt lat="39.372752" lon="-5.330263">
        <ele>678.2</ele>
        <time>1970-01-01T00:00:00Z</time>
      </trkpt>
      <trkpt lat="39.372752" lon="-5.330263">
        <ele>678.2</ele>
        <time>1970-01-01T00:00:00Z</time>
      </trkpt>
      <trkpt lat="39.372752" lon="-5.330263">
        <ele>678.2</ele>
        <time>1970-01-01T00:00:00Z</time>
      </trkpt>
      <trkpt lat="39.372859" lon="-5.330258">
        <ele>679.7</ele>
        <time>1970-01-01T00:00:00Z</time>
      </trkpt>
      <trkpt lat="39.372859" lon="-5.330258">
        <ele>679.7</ele>
        <time>1970-01-01T00:00:00Z</time>
      </trkpt>
      <trkpt lat="39.372859" lon="-5.330258">
        <ele>679.7</ele>
        <time>1970-01-01T00:00:00Z</time>
      </trkpt>
      <trkpt lat="39.372859" lon="-5.330258">
        <ele>679.7</ele>
        <time>1970-01-01T00:00:00Z</time>
      </trkpt>
      <trkpt lat="39.372882" lon="-5.330193">
        <ele>680.0</ele>
        <time>1970-01-01T00:00:00Z</time>
      </trkpt>
      <trkpt lat="39.372882" lon="-5.330193">
        <ele>680.0</ele>
        <time>1970-01-01T00:00:00Z</time>
      </trkpt>
      <trkpt lat="39.372882" lon="-5.330193">
        <ele>680.0</ele>
        <time>1970-01-01T00:00:00Z</time>
      </trkpt>
      <trkpt lat="39.372882" lon="-5.330193">
        <ele>680.0</ele>
        <time>1970-01-01T00:00:00Z</time>
      </trkpt>
      <trkpt lat="39.373092" lon="-5.329924">
        <ele>683.4</ele>
        <time>1970-01-01T00:00:00Z</time>
      </trkpt>
      <trkpt lat="39.373092" lon="-5.329924">
        <ele>683.4</ele>
        <time>1970-01-01T00:00:00Z</time>
      </trkpt>
      <trkpt lat="39.373092" lon="-5.329924">
        <ele>683.4</ele>
        <time>1970-01-01T00:00:00Z</time>
      </trkpt>
      <trkpt lat="39.373092" lon="-5.329924">
        <ele>683.4</ele>
        <time>1970-01-01T00:00:00Z</time>
      </trkpt>
      <trkpt lat="39.373285" lon="-5.329814">
        <ele>684.6</ele>
        <time>1970-01-01T00:00:00Z</time>
      </trkpt>
      <trkpt lat="39.373285" lon="-5.329814">
        <ele>684.6</ele>
        <time>1970-01-01T00:00:00Z</time>
      </trkpt>
      <trkpt lat="39.373285" lon="-5.329814">
        <ele>684.6</ele>
        <time>1970-01-01T00:00:00Z</time>
      </trkpt>
      <trkpt lat="39.373285" lon="-5.329814">
        <ele>684.6</ele>
        <time>1970-01-01T00:00:00Z</time>
      </trkpt>
      <trkpt lat="39.373404" lon="-5.329739">
        <ele>685.0</ele>
        <time>1970-01-01T00:00:00Z</time>
      </trkpt>
      <trkpt lat="39.373404" lon="-5.329739">
        <ele>685.0</ele>
        <time>1970-01-01T00:00:00Z</time>
      </trkpt>
      <trkpt lat="39.373404" lon="-5.329739">
        <ele>685.0</ele>
        <time>1970-01-01T00:00:00Z</time>
      </trkpt>
      <trkpt lat="39.373404" lon="-5.329739">
        <ele>685.0</ele>
        <time>1970-01-01T00:00:00Z</time>
      </trkpt>
      <trkpt lat="39.373450" lon="-5.329677">
        <ele>685.3</ele>
        <time>1970-01-01T00:00:00Z</time>
      </trkpt>
      <trkpt lat="39.373450" lon="-5.329677">
        <ele>685.3</ele>
        <time>1970-01-01T00:00:00Z</time>
      </trkpt>
      <trkpt lat="39.373450" lon="-5.329677">
        <ele>685.3</ele>
        <time>1970-01-01T00:00:00Z</time>
      </trkpt>
      <trkpt lat="39.373450" lon="-5.329677">
        <ele>685.3</ele>
        <time>1970-01-01T00:00:00Z</time>
      </trkpt>
      <trkpt lat="39.373485" lon="-5.329510">
        <ele>686.7</ele>
        <time>1970-01-01T00:00:00Z</time>
      </trkpt>
      <trkpt lat="39.373485" lon="-5.329510">
        <ele>686.7</ele>
        <time>1970-01-01T00:00:00Z</time>
      </trkpt>
      <trkpt lat="39.373485" lon="-5.329510">
        <ele>686.7</ele>
        <time>1970-01-01T00:00:00Z</time>
      </trkpt>
      <trkpt lat="39.373485" lon="-5.329510">
        <ele>686.7</ele>
        <time>1970-01-01T00:00:00Z</time>
      </trkpt>
      <trkpt lat="39.373523" lon="-5.329129">
        <ele>689.9</ele>
        <time>1970-01-01T00:00:00Z</time>
      </trkpt>
      <trkpt lat="39.373523" lon="-5.329129">
        <ele>689.9</ele>
        <time>1970-01-01T00:00:00Z</time>
      </trkpt>
      <trkpt lat="39.373523" lon="-5.329129">
        <ele>689.9</ele>
        <time>1970-01-01T00:00:00Z</time>
      </trkpt>
      <trkpt lat="39.373523" lon="-5.329129">
        <ele>689.9</ele>
        <time>1970-01-01T00:00:00Z</time>
      </trkpt>
      <trkpt lat="39.373528" lon="-5.328664">
        <ele>693.7</ele>
        <time>1970-01-01T00:00:00Z</time>
      </trkpt>
      <trkpt lat="39.373528" lon="-5.328664">
        <ele>693.7</ele>
        <time>1970-01-01T00:00:00Z</time>
      </trkpt>
      <trkpt lat="39.373528" lon="-5.328664">
        <ele>693.7</ele>
        <time>1970-01-01T00:00:00Z</time>
      </trkpt>
      <trkpt lat="39.373528" lon="-5.328664">
        <ele>693.7</ele>
        <time>1970-01-01T00:00:00Z</time>
      </trkpt>
      <trkpt lat="39.373520" lon="-5.328550">
        <ele>694.8</ele>
        <time>1970-01-01T00:00:00Z</time>
      </trkpt>
      <trkpt lat="39.373520" lon="-5.328550">
        <ele>694.8</ele>
        <time>1970-01-01T00:00:00Z</time>
      </trkpt>
      <trkpt lat="39.373520" lon="-5.328550">
        <ele>694.8</ele>
        <time>1970-01-01T00:00:00Z</time>
      </trkpt>
      <trkpt lat="39.373520" lon="-5.328550">
        <ele>694.8</ele>
        <time>1970-01-01T00:00:00Z</time>
      </trkpt>
      <trkpt lat="39.373530" lon="-5.328470">
        <ele>695.7</ele>
        <time>1970-01-01T00:00:00Z</time>
      </trkpt>
      <trkpt lat="39.373530" lon="-5.328470">
        <ele>695.7</ele>
        <time>1970-01-01T00:00:00Z</time>
      </trkpt>
      <trkpt lat="39.373530" lon="-5.328470">
        <ele>695.7</ele>
        <time>1970-01-01T00:00:00Z</time>
      </trkpt>
      <trkpt lat="39.373530" lon="-5.328470">
        <ele>695.7</ele>
        <time>1970-01-01T00:00:00Z</time>
      </trkpt>
      <trkpt lat="39.373563" lon="-5.328420">
        <ele>695.8</ele>
        <time>1970-01-01T00:00:00Z</time>
      </trkpt>
      <trkpt lat="39.373563" lon="-5.328420">
        <ele>695.8</ele>
        <time>1970-01-01T00:00:00Z</time>
      </trkpt>
      <trkpt lat="39.373563" lon="-5.328420">
        <ele>695.8</ele>
        <time>1970-01-01T00:00:00Z</time>
      </trkpt>
      <trkpt lat="39.373563" lon="-5.328420">
        <ele>695.8</ele>
        <time>1970-01-01T00:00:00Z</time>
      </trkpt>
      <trkpt lat="39.373833" lon="-5.328278">
        <ele>693.3</ele>
        <time>1970-01-01T00:00:00Z</time>
      </trkpt>
      <trkpt lat="39.373833" lon="-5.328278">
        <ele>693.3</ele>
        <time>1970-01-01T00:00:00Z</time>
      </trkpt>
      <trkpt lat="39.373833" lon="-5.328278">
        <ele>693.3</ele>
        <time>1970-01-01T00:00:00Z</time>
      </trkpt>
      <trkpt lat="39.373833" lon="-5.328278">
        <ele>693.3</ele>
        <time>1970-01-01T00:00:00Z</time>
      </trkpt>
      <trkpt lat="39.374046" lon="-5.328122">
        <ele>692.6</ele>
        <time>1970-01-01T00:00:00Z</time>
      </trkpt>
      <trkpt lat="39.374046" lon="-5.328122">
        <ele>692.6</ele>
        <time>1970-01-01T00:00:00Z</time>
      </trkpt>
      <trkpt lat="39.374046" lon="-5.328122">
        <ele>692.6</ele>
        <time>1970-01-01T00:00:00Z</time>
      </trkpt>
      <trkpt lat="39.374046" lon="-5.328122">
        <ele>692.6</ele>
        <time>1970-01-01T00:00:00Z</time>
      </trkpt>
      <trkpt lat="39.374214" lon="-5.327934">
        <ele>692.1</ele>
        <time>1970-01-01T00:00:00Z</time>
      </trkpt>
      <trkpt lat="39.374214" lon="-5.327934">
        <ele>692.1</ele>
        <time>1970-01-01T00:00:00Z</time>
      </trkpt>
      <trkpt lat="39.374214" lon="-5.327934">
        <ele>692.1</ele>
        <time>1970-01-01T00:00:00Z</time>
      </trkpt>
      <trkpt lat="39.374214" lon="-5.327934">
        <ele>692.1</ele>
        <time>1970-01-01T00:00:00Z</time>
      </trkpt>
      <trkpt lat="39.374378" lon="-5.327706">
        <ele>691.8</ele>
        <time>1970-01-01T00:00:00Z</time>
      </trkpt>
      <trkpt lat="39.374378" lon="-5.327706">
        <ele>691.8</ele>
        <time>1970-01-01T00:00:00Z</time>
      </trkpt>
      <trkpt lat="39.374378" lon="-5.327706">
        <ele>691.8</ele>
        <time>1970-01-01T00:00:00Z</time>
      </trkpt>
      <trkpt lat="39.374378" lon="-5.327706">
        <ele>691.8</ele>
        <time>1970-01-01T00:00:00Z</time>
      </trkpt>
      <trkpt lat="39.374477" lon="-5.327553">
        <ele>691.6</ele>
        <time>1970-01-01T00:00:00Z</time>
      </trkpt>
      <trkpt lat="39.374477" lon="-5.327553">
        <ele>691.6</ele>
        <time>1970-01-01T00:00:00Z</time>
      </trkpt>
      <trkpt lat="39.374477" lon="-5.327553">
        <ele>691.6</ele>
        <time>1970-01-01T00:00:00Z</time>
      </trkpt>
      <trkpt lat="39.374477" lon="-5.327553">
        <ele>691.6</ele>
        <time>1970-01-01T00:00:00Z</time>
      </trkpt>
      <trkpt lat="39.374667" lon="-5.327188">
        <ele>690.8</ele>
        <time>1970-01-01T00:00:00Z</time>
      </trkpt>
      <trkpt lat="39.374667" lon="-5.327188">
        <ele>690.8</ele>
        <time>1970-01-01T00:00:00Z</time>
      </trkpt>
      <trkpt lat="39.374667" lon="-5.327188">
        <ele>690.8</ele>
        <time>1970-01-01T00:00:00Z</time>
      </trkpt>
      <trkpt lat="39.374667" lon="-5.327188">
        <ele>690.8</ele>
        <time>1970-01-01T00:00:00Z</time>
      </trkpt>
      <trkpt lat="39.374839" lon="-5.326846">
        <ele>689.9</ele>
        <time>1970-01-01T00:00:00Z</time>
      </trkpt>
      <trkpt lat="39.374839" lon="-5.326846">
        <ele>689.9</ele>
        <time>1970-01-01T00:00:00Z</time>
      </trkpt>
      <trkpt lat="39.374839" lon="-5.326846">
        <ele>689.9</ele>
        <time>1970-01-01T00:00:00Z</time>
      </trkpt>
      <trkpt lat="39.374839" lon="-5.326846">
        <ele>689.9</ele>
        <time>1970-01-01T00:00:00Z</time>
      </trkpt>
      <trkpt lat="39.375002" lon="-5.326449">
        <ele>687.4</ele>
        <time>1970-01-01T00:00:00Z</time>
      </trkpt>
      <trkpt lat="39.375002" lon="-5.326449">
        <ele>687.4</ele>
        <time>1970-01-01T00:00:00Z</time>
      </trkpt>
      <trkpt lat="39.375002" lon="-5.326449">
        <ele>687.4</ele>
        <time>1970-01-01T00:00:00Z</time>
      </trkpt>
      <trkpt lat="39.375002" lon="-5.326449">
        <ele>687.4</ele>
        <time>1970-01-01T00:00:00Z</time>
      </trkpt>
      <trkpt lat="39.375089" lon="-5.326198">
        <ele>685.8</ele>
        <time>1970-01-01T00:00:00Z</time>
      </trkpt>
      <trkpt lat="39.375089" lon="-5.326198">
        <ele>685.8</ele>
        <time>1970-01-01T00:00:00Z</time>
      </trkpt>
      <trkpt lat="39.375089" lon="-5.326198">
        <ele>685.8</ele>
        <time>1970-01-01T00:00:00Z</time>
      </trkpt>
      <trkpt lat="39.375089" lon="-5.326198">
        <ele>685.8</ele>
        <time>1970-01-01T00:00:00Z</time>
      </trkpt>
      <trkpt lat="39.375181" lon="-5.325841">
        <ele>682.2</ele>
        <time>1970-01-01T00:00:00Z</time>
      </trkpt>
      <trkpt lat="39.375181" lon="-5.325841">
        <ele>682.2</ele>
        <time>1970-01-01T00:00:00Z</time>
      </trkpt>
      <trkpt lat="39.375181" lon="-5.325841">
        <ele>682.2</ele>
        <time>1970-01-01T00:00:00Z</time>
      </trkpt>
      <trkpt lat="39.375181" lon="-5.325841">
        <ele>682.2</ele>
        <time>1970-01-01T00:00:00Z</time>
      </trkpt>
      <trkpt lat="39.375220" lon="-5.325632">
        <ele>680.3</ele>
        <time>1970-01-01T00:00:00Z</time>
      </trkpt>
      <trkpt lat="39.375220" lon="-5.325632">
        <ele>680.3</ele>
        <time>1970-01-01T00:00:00Z</time>
      </trkpt>
      <trkpt lat="39.375220" lon="-5.325632">
        <ele>680.3</ele>
        <time>1970-01-01T00:00:00Z</time>
      </trkpt>
      <trkpt lat="39.375220" lon="-5.325632">
        <ele>680.3</ele>
        <time>1970-01-01T00:00:00Z</time>
      </trkpt>
      <trkpt lat="39.375237" lon="-5.325422">
        <ele>678.7</ele>
        <time>1970-01-01T00:00:00Z</time>
      </trkpt>
      <trkpt lat="39.375237" lon="-5.325422">
        <ele>678.7</ele>
        <time>1970-01-01T00:00:00Z</time>
      </trkpt>
      <trkpt lat="39.375237" lon="-5.325422">
        <ele>678.7</ele>
        <time>1970-01-01T00:00:00Z</time>
      </trkpt>
      <trkpt lat="39.375237" lon="-5.325422">
        <ele>678.7</ele>
        <time>1970-01-01T00:00:00Z</time>
      </trkpt>
      <trkpt lat="39.375199" lon="-5.325255">
        <ele>677.8</ele>
        <time>1970-01-01T00:00:00Z</time>
      </trkpt>
      <trkpt lat="39.375199" lon="-5.325255">
        <ele>677.8</ele>
        <time>1970-01-01T00:00:00Z</time>
      </trkpt>
      <trkpt lat="39.375199" lon="-5.325255">
        <ele>677.8</ele>
        <time>1970-01-01T00:00:00Z</time>
      </trkpt>
      <trkpt lat="39.375199" lon="-5.325255">
        <ele>677.8</ele>
        <time>1970-01-01T00:00:00Z</time>
      </trkpt>
      <trkpt lat="39.375136" lon="-5.325099">
        <ele>677.0</ele>
        <time>1970-01-01T00:00:00Z</time>
      </trkpt>
      <trkpt lat="39.375136" lon="-5.325099">
        <ele>677.0</ele>
        <time>1970-01-01T00:00:00Z</time>
      </trkpt>
      <trkpt lat="39.375136" lon="-5.325099">
        <ele>677.0</ele>
        <time>1970-01-01T00:00:00Z</time>
      </trkpt>
      <trkpt lat="39.375136" lon="-5.325099">
        <ele>677.0</ele>
        <time>1970-01-01T00:00:00Z</time>
      </trkpt>
      <trkpt lat="39.374997" lon="-5.324901">
        <ele>675.6</ele>
        <time>1970-01-01T00:00:00Z</time>
      </trkpt>
      <trkpt lat="39.374997" lon="-5.324901">
        <ele>675.6</ele>
        <time>1970-01-01T00:00:00Z</time>
      </trkpt>
      <trkpt lat="39.374997" lon="-5.324901">
        <ele>675.6</ele>
        <time>1970-01-01T00:00:00Z</time>
      </trkpt>
      <trkpt lat="39.374997" lon="-5.324901">
        <ele>675.6</ele>
        <time>1970-01-01T00:00:00Z</time>
      </trkpt>
      <trkpt lat="39.374845" lon="-5.324770">
        <ele>675.0</ele>
        <time>1970-01-01T00:00:00Z</time>
      </trkpt>
      <trkpt lat="39.374845" lon="-5.324770">
        <ele>675.0</ele>
        <time>1970-01-01T00:00:00Z</time>
      </trkpt>
      <trkpt lat="39.374845" lon="-5.324770">
        <ele>675.0</ele>
        <time>1970-01-01T00:00:00Z</time>
      </trkpt>
      <trkpt lat="39.374845" lon="-5.324770">
        <ele>675.0</ele>
        <time>1970-01-01T00:00:00Z</time>
      </trkpt>
      <trkpt lat="39.374727" lon="-5.324671">
        <ele>673.7</ele>
        <time>1970-01-01T00:00:00Z</time>
      </trkpt>
      <trkpt lat="39.374727" lon="-5.324671">
        <ele>673.7</ele>
        <time>1970-01-01T00:00:00Z</time>
      </trkpt>
      <trkpt lat="39.374727" lon="-5.324671">
        <ele>673.7</ele>
        <time>1970-01-01T00:00:00Z</time>
      </trkpt>
      <trkpt lat="39.374727" lon="-5.324671">
        <ele>673.7</ele>
        <time>1970-01-01T00:00:00Z</time>
      </trkpt>
      <trkpt lat="39.374548" lon="-5.324582">
        <ele>672.9</ele>
        <time>1970-01-01T00:00:00Z</time>
      </trkpt>
      <trkpt lat="39.374548" lon="-5.324582">
        <ele>672.9</ele>
        <time>1970-01-01T00:00:00Z</time>
      </trkpt>
      <trkpt lat="39.374548" lon="-5.324582">
        <ele>672.9</ele>
        <time>1970-01-01T00:00:00Z</time>
      </trkpt>
      <trkpt lat="39.374548" lon="-5.324582">
        <ele>672.9</ele>
        <time>1970-01-01T00:00:00Z</time>
      </trkpt>
      <trkpt lat="39.374219" lon="-5.324479">
        <ele>672.7</ele>
        <time>1970-01-01T00:00:00Z</time>
      </trkpt>
      <trkpt lat="39.374219" lon="-5.324479">
        <ele>672.7</ele>
        <time>1970-01-01T00:00:00Z</time>
      </trkpt>
      <trkpt lat="39.374219" lon="-5.324479">
        <ele>672.7</ele>
        <time>1970-01-01T00:00:00Z</time>
      </trkpt>
      <trkpt lat="39.374219" lon="-5.324479">
        <ele>672.7</ele>
        <time>1970-01-01T00:00:00Z</time>
      </trkpt>
      <trkpt lat="39.374064" lon="-5.324443">
        <ele>673.6</ele>
        <time>1970-01-01T00:00:00Z</time>
      </trkpt>
      <trkpt lat="39.374064" lon="-5.324443">
        <ele>673.6</ele>
        <time>1970-01-01T00:00:00Z</time>
      </trkpt>
      <trkpt lat="39.374064" lon="-5.324443">
        <ele>673.6</ele>
        <time>1970-01-01T00:00:00Z</time>
      </trkpt>
      <trkpt lat="39.374064" lon="-5.324443">
        <ele>673.6</ele>
        <time>1970-01-01T00:00:00Z</time>
      </trkpt>
      <trkpt lat="39.374006" lon="-5.324383">
        <ele>673.6</ele>
        <time>1970-01-01T00:00:00Z</time>
      </trkpt>
      <trkpt lat="39.374006" lon="-5.324383">
        <ele>673.6</ele>
        <time>1970-01-01T00:00:00Z</time>
      </trkpt>
      <trkpt lat="39.374006" lon="-5.324383">
        <ele>673.6</ele>
        <time>1970-01-01T00:00:00Z</time>
      </trkpt>
      <trkpt lat="39.374006" lon="-5.324383">
        <ele>673.6</ele>
        <time>1970-01-01T00:00:00Z</time>
      </trkpt>
      <trkpt lat="39.373979" lon="-5.324170">
        <ele>671.0</ele>
        <time>1970-01-01T00:00:00Z</time>
      </trkpt>
      <trkpt lat="39.373979" lon="-5.324170">
        <ele>671.0</ele>
        <time>1970-01-01T00:00:00Z</time>
      </trkpt>
      <trkpt lat="39.373979" lon="-5.324170">
        <ele>671.0</ele>
        <time>1970-01-01T00:00:00Z</time>
      </trkpt>
      <trkpt lat="39.373979" lon="-5.324170">
        <ele>671.0</ele>
        <time>1970-01-01T00:00:00Z</time>
      </trkpt>
      <trkpt lat="39.373972" lon="-5.323823">
        <ele>668.5</ele>
        <time>1970-01-01T00:00:00Z</time>
      </trkpt>
      <trkpt lat="39.373972" lon="-5.323823">
        <ele>668.5</ele>
        <time>1970-01-01T00:00:00Z</time>
      </trkpt>
      <trkpt lat="39.373972" lon="-5.323823">
        <ele>668.5</ele>
        <time>1970-01-01T00:00:00Z</time>
      </trkpt>
      <trkpt lat="39.373972" lon="-5.323823">
        <ele>668.5</ele>
        <time>1970-01-01T00:00:00Z</time>
      </trkpt>
      <trkpt lat="39.373968" lon="-5.323641">
        <ele>667.5</ele>
        <time>1970-01-01T00:00:00Z</time>
      </trkpt>
      <trkpt lat="39.373968" lon="-5.323641">
        <ele>667.5</ele>
        <time>1970-01-01T00:00:00Z</time>
      </trkpt>
      <trkpt lat="39.373968" lon="-5.323641">
        <ele>667.5</ele>
        <time>1970-01-01T00:00:00Z</time>
      </trkpt>
      <trkpt lat="39.373968" lon="-5.323641">
        <ele>667.5</ele>
        <time>1970-01-01T00:00:00Z</time>
      </trkpt>
      <trkpt lat="39.373958" lon="-5.323215">
        <ele>665.0</ele>
        <time>1970-01-01T00:00:00Z</time>
      </trkpt>
      <trkpt lat="39.373958" lon="-5.323215">
        <ele>665.0</ele>
        <time>1970-01-01T00:00:00Z</time>
      </trkpt>
      <trkpt lat="39.373958" lon="-5.323215">
        <ele>665.0</ele>
        <time>1970-01-01T00:00:00Z</time>
      </trkpt>
      <trkpt lat="39.373958" lon="-5.323215">
        <ele>665.0</ele>
        <time>1970-01-01T00:00:00Z</time>
      </trkpt>
      <trkpt lat="39.373916" lon="-5.322664">
        <ele>664.1</ele>
        <time>1970-01-01T00:00:00Z</time>
      </trkpt>
      <trkpt lat="39.373916" lon="-5.322664">
        <ele>664.1</ele>
        <time>1970-01-01T00:00:00Z</time>
      </trkpt>
      <trkpt lat="39.373916" lon="-5.322664">
        <ele>664.1</ele>
        <time>1970-01-01T00:00:00Z</time>
      </trkpt>
      <trkpt lat="39.373916" lon="-5.322664">
        <ele>664.1</ele>
        <time>1970-01-01T00:00:00Z</time>
      </trkpt>
      <trkpt lat="39.373882" lon="-5.322011">
        <ele>661.3</ele>
        <time>1970-01-01T00:00:00Z</time>
      </trkpt>
      <trkpt lat="39.373882" lon="-5.322011">
        <ele>661.3</ele>
        <time>1970-01-01T00:00:00Z</time>
      </trkpt>
      <trkpt lat="39.373882" lon="-5.322011">
        <ele>661.3</ele>
        <time>1970-01-01T00:00:00Z</time>
      </trkpt>
      <trkpt lat="39.373882" lon="-5.322011">
        <ele>661.3</ele>
        <time>1970-01-01T00:00:00Z</time>
      </trkpt>
      <trkpt lat="39.373892" lon="-5.321748">
        <ele>661.0</ele>
        <time>1970-01-01T00:00:00Z</time>
      </trkpt>
      <trkpt lat="39.373892" lon="-5.321748">
        <ele>661.0</ele>
        <time>1970-01-01T00:00:00Z</time>
      </trkpt>
      <trkpt lat="39.373892" lon="-5.321748">
        <ele>661.0</ele>
        <time>1970-01-01T00:00:00Z</time>
      </trkpt>
      <trkpt lat="39.373892" lon="-5.321748">
        <ele>661.0</ele>
        <time>1970-01-01T00:00:00Z</time>
      </trkpt>
      <trkpt lat="39.373925" lon="-5.321415">
        <ele>660.9</ele>
        <time>1970-01-01T00:00:00Z</time>
      </trkpt>
      <trkpt lat="39.373925" lon="-5.321415">
        <ele>660.9</ele>
        <time>1970-01-01T00:00:00Z</time>
      </trkpt>
      <trkpt lat="39.373925" lon="-5.321415">
        <ele>660.9</ele>
        <time>1970-01-01T00:00:00Z</time>
      </trkpt>
      <trkpt lat="39.373925" lon="-5.321415">
        <ele>660.9</ele>
        <time>1970-01-01T00:00:00Z</time>
      </trkpt>
      <trkpt lat="39.373946" lon="-5.321308">
        <ele>660.3</ele>
        <time>1970-01-01T00:00:00Z</time>
      </trkpt>
      <trkpt lat="39.373946" lon="-5.321308">
        <ele>660.3</ele>
        <time>1970-01-01T00:00:00Z</time>
      </trkpt>
      <trkpt lat="39.373946" lon="-5.321308">
        <ele>660.3</ele>
        <time>1970-01-01T00:00:00Z</time>
      </trkpt>
      <trkpt lat="39.373946" lon="-5.321308">
        <ele>660.3</ele>
        <time>1970-01-01T00:00:00Z</time>
      </trkpt>
      <trkpt lat="39.374003" lon="-5.321206">
        <ele>659.8</ele>
        <time>1970-01-01T00:00:00Z</time>
      </trkpt>
      <trkpt lat="39.374003" lon="-5.321206">
        <ele>659.8</ele>
        <time>1970-01-01T00:00:00Z</time>
      </trkpt>
      <trkpt lat="39.374003" lon="-5.321206">
        <ele>659.8</ele>
        <time>1970-01-01T00:00:00Z</time>
      </trkpt>
      <trkpt lat="39.374003" lon="-5.321206">
        <ele>659.8</ele>
        <time>1970-01-01T00:00:00Z</time>
      </trkpt>
      <trkpt lat="39.374072" lon="-5.321076">
        <ele>659.9</ele>
        <time>1970-01-01T00:00:00Z</time>
      </trkpt>
      <trkpt lat="39.374072" lon="-5.321076">
        <ele>659.9</ele>
        <time>1970-01-01T00:00:00Z</time>
      </trkpt>
      <trkpt lat="39.374072" lon="-5.321076">
        <ele>659.9</ele>
        <time>1970-01-01T00:00:00Z</time>
      </trkpt>
      <trkpt lat="39.374072" lon="-5.321076">
        <ele>659.9</ele>
        <time>1970-01-01T00:00:00Z</time>
      </trkpt>
      <trkpt lat="39.374136" lon="-5.320994">
        <ele>660.5</ele>
        <time>1970-01-01T00:00:00Z</time>
      </trkpt>
      <trkpt lat="39.374136" lon="-5.320994">
        <ele>660.5</ele>
        <time>1970-01-01T00:00:00Z</time>
      </trkpt>
      <trkpt lat="39.374136" lon="-5.320994">
        <ele>660.5</ele>
        <time>1970-01-01T00:00:00Z</time>
      </trkpt>
      <trkpt lat="39.374136" lon="-5.320994">
        <ele>660.5</ele>
        <time>1970-01-01T00:00:00Z</time>
      </trkpt>
      <trkpt lat="39.374223" lon="-5.320933">
        <ele>661.5</ele>
        <time>1970-01-01T00:00:00Z</time>
      </trkpt>
      <trkpt lat="39.374223" lon="-5.320933">
        <ele>661.5</ele>
        <time>1970-01-01T00:00:00Z</time>
      </trkpt>
      <trkpt lat="39.374223" lon="-5.320933">
        <ele>661.5</ele>
        <time>1970-01-01T00:00:00Z</time>
      </trkpt>
      <trkpt lat="39.374223" lon="-5.320933">
        <ele>661.5</ele>
        <time>1970-01-01T00:00:00Z</time>
      </trkpt>
      <trkpt lat="39.374427" lon="-5.320842">
        <ele>665.0</ele>
        <time>1970-01-01T00:00:00Z</time>
      </trkpt>
      <trkpt lat="39.374427" lon="-5.320842">
        <ele>665.0</ele>
        <time>1970-01-01T00:00:00Z</time>
      </trkpt>
      <trkpt lat="39.374427" lon="-5.320842">
        <ele>665.0</ele>
        <time>1970-01-01T00:00:00Z</time>
      </trkpt>
      <trkpt lat="39.374427" lon="-5.320842">
        <ele>665.0</ele>
        <time>1970-01-01T00:00:00Z</time>
      </trkpt>
      <trkpt lat="39.374447" lon="-5.320778">
        <ele>665.2</ele>
        <time>1970-01-01T00:00:00Z</time>
      </trkpt>
      <trkpt lat="39.374447" lon="-5.320778">
        <ele>665.2</ele>
        <time>1970-01-01T00:00:00Z</time>
      </trkpt>
      <trkpt lat="39.374447" lon="-5.320778">
        <ele>665.2</ele>
        <time>1970-01-01T00:00:00Z</time>
      </trkpt>
      <trkpt lat="39.374447" lon="-5.320778">
        <ele>665.2</ele>
        <time>1970-01-01T00:00:00Z</time>
      </trkpt>
      <trkpt lat="39.374434" lon="-5.320596">
        <ele>665.9</ele>
        <time>1970-01-01T00:00:00Z</time>
      </trkpt>
      <trkpt lat="39.374434" lon="-5.320596">
        <ele>665.9</ele>
        <time>1970-01-01T00:00:00Z</time>
      </trkpt>
      <trkpt lat="39.374434" lon="-5.320596">
        <ele>665.9</ele>
        <time>1970-01-01T00:00:00Z</time>
      </trkpt>
      <trkpt lat="39.374434" lon="-5.320596">
        <ele>665.9</ele>
        <time>1970-01-01T00:00:00Z</time>
      </trkpt>
      <trkpt lat="39.374444" lon="-5.320467">
        <ele>667.1</ele>
        <time>1970-01-01T00:00:00Z</time>
      </trkpt>
      <trkpt lat="39.374444" lon="-5.320467">
        <ele>667.1</ele>
        <time>1970-01-01T00:00:00Z</time>
      </trkpt>
      <trkpt lat="39.374444" lon="-5.320467">
        <ele>667.1</ele>
        <time>1970-01-01T00:00:00Z</time>
      </trkpt>
      <trkpt lat="39.374444" lon="-5.320467">
        <ele>667.1</ele>
        <time>1970-01-01T00:00:00Z</time>
      </trkpt>
      <trkpt lat="39.374472" lon="-5.320429">
        <ele>667.7</ele>
        <time>1970-01-01T00:00:00Z</time>
      </trkpt>
      <trkpt lat="39.374472" lon="-5.320429">
        <ele>667.7</ele>
        <time>1970-01-01T00:00:00Z</time>
      </trkpt>
      <trkpt lat="39.374472" lon="-5.320429">
        <ele>667.7</ele>
        <time>1970-01-01T00:00:00Z</time>
      </trkpt>
      <trkpt lat="39.374472" lon="-5.320429">
        <ele>667.7</ele>
        <time>1970-01-01T00:00:00Z</time>
      </trkpt>
      <trkpt lat="39.374529" lon="-5.320409">
        <ele>668.5</ele>
        <time>1970-01-01T00:00:00Z</time>
      </trkpt>
      <trkpt lat="39.374529" lon="-5.320409">
        <ele>668.5</ele>
        <time>1970-01-01T00:00:00Z</time>
      </trkpt>
      <trkpt lat="39.374529" lon="-5.320409">
        <ele>668.5</ele>
        <time>1970-01-01T00:00:00Z</time>
      </trkpt>
      <trkpt lat="39.374529" lon="-5.320409">
        <ele>668.5</ele>
        <time>1970-01-01T00:00:00Z</time>
      </trkpt>
      <trkpt lat="39.374607" lon="-5.320411">
        <ele>669.5</ele>
        <time>1970-01-01T00:00:00Z</time>
      </trkpt>
      <trkpt lat="39.374607" lon="-5.320411">
        <ele>669.5</ele>
        <time>1970-01-01T00:00:00Z</time>
      </trkpt>
      <trkpt lat="39.374607" lon="-5.320411">
        <ele>669.5</ele>
        <time>1970-01-01T00:00:00Z</time>
      </trkpt>
      <trkpt lat="39.374607" lon="-5.320411">
        <ele>669.5</ele>
        <time>1970-01-01T00:00:00Z</time>
      </trkpt>
      <trkpt lat="39.374703" lon="-5.320396">
        <ele>670.9</ele>
        <time>1970-01-01T00:00:00Z</time>
      </trkpt>
      <trkpt lat="39.374703" lon="-5.320396">
        <ele>670.9</ele>
        <time>1970-01-01T00:00:00Z</time>
      </trkpt>
      <trkpt lat="39.374703" lon="-5.320396">
        <ele>670.9</ele>
        <time>1970-01-01T00:00:00Z</time>
      </trkpt>
      <trkpt lat="39.374703" lon="-5.320396">
        <ele>670.9</ele>
        <time>1970-01-01T00:00:00Z</time>
      </trkpt>
      <trkpt lat="39.374743" lon="-5.320344">
        <ele>671.7</ele>
        <time>1970-01-01T00:00:00Z</time>
      </trkpt>
      <trkpt lat="39.374743" lon="-5.320344">
        <ele>671.7</ele>
        <time>1970-01-01T00:00:00Z</time>
      </trkpt>
      <trkpt lat="39.374743" lon="-5.320344">
        <ele>671.7</ele>
        <time>1970-01-01T00:00:00Z</time>
      </trkpt>
      <trkpt lat="39.374743" lon="-5.320344">
        <ele>671.7</ele>
        <time>1970-01-01T00:00:00Z</time>
      </trkpt>
      <trkpt lat="39.374773" lon="-5.320257">
        <ele>672.7</ele>
        <time>1970-01-01T00:00:00Z</time>
      </trkpt>
      <trkpt lat="39.374773" lon="-5.320257">
        <ele>672.7</ele>
        <time>1970-01-01T00:00:00Z</time>
      </trkpt>
      <trkpt lat="39.374773" lon="-5.320257">
        <ele>672.7</ele>
        <time>1970-01-01T00:00:00Z</time>
      </trkpt>
      <trkpt lat="39.374773" lon="-5.320257">
        <ele>672.7</ele>
        <time>1970-01-01T00:00:00Z</time>
      </trkpt>
      <trkpt lat="39.374759" lon="-5.320088">
        <ele>673.9</ele>
        <time>1970-01-01T00:00:00Z</time>
      </trkpt>
      <trkpt lat="39.374759" lon="-5.320088">
        <ele>673.9</ele>
        <time>1970-01-01T00:00:00Z</time>
      </trkpt>
      <trkpt lat="39.374759" lon="-5.320088">
        <ele>673.9</ele>
        <time>1970-01-01T00:00:00Z</time>
      </trkpt>
      <trkpt lat="39.374759" lon="-5.320088">
        <ele>673.9</ele>
        <time>1970-01-01T00:00:00Z</time>
      </trkpt>
      <trkpt lat="39.374746" lon="-5.320022">
        <ele>674.2</ele>
        <time>1970-01-01T00:00:00Z</time>
      </trkpt>
      <trkpt lat="39.374746" lon="-5.320022">
        <ele>674.2</ele>
        <time>1970-01-01T00:00:00Z</time>
      </trkpt>
      <trkpt lat="39.374746" lon="-5.320022">
        <ele>674.2</ele>
        <time>1970-01-01T00:00:00Z</time>
      </trkpt>
      <trkpt lat="39.374746" lon="-5.320022">
        <ele>674.2</ele>
        <time>1970-01-01T00:00:00Z</time>
      </trkpt>
      <trkpt lat="39.374769" lon="-5.319961">
        <ele>675.1</ele>
        <time>1970-01-01T00:00:00Z</time>
      </trkpt>
      <trkpt lat="39.374769" lon="-5.319961">
        <ele>675.1</ele>
        <time>1970-01-01T00:00:00Z</time>
      </trkpt>
      <trkpt lat="39.374769" lon="-5.319961">
        <ele>675.1</ele>
        <time>1970-01-01T00:00:00Z</time>
      </trkpt>
      <trkpt lat="39.374769" lon="-5.319961">
        <ele>675.1</ele>
        <time>1970-01-01T00:00:00Z</time>
      </trkpt>
      <trkpt lat="39.374797" lon="-5.319935">
        <ele>675.7</ele>
        <time>1970-01-01T00:00:00Z</time>
      </trkpt>
      <trkpt lat="39.374797" lon="-5.319935">
        <ele>675.7</ele>
        <time>1970-01-01T00:00:00Z</time>
      </trkpt>
      <trkpt lat="39.374797" lon="-5.319935">
        <ele>675.7</ele>
        <time>1970-01-01T00:00:00Z</time>
      </trkpt>
      <trkpt lat="39.374797" lon="-5.319935">
        <ele>675.7</ele>
        <time>1970-01-01T00:00:00Z</time>
      </trkpt>
      <trkpt lat="39.374824" lon="-5.319919">
        <ele>676.2</ele>
        <time>1970-01-01T00:00:00Z</time>
      </trkpt>
      <trkpt lat="39.374824" lon="-5.319919">
        <ele>676.2</ele>
        <time>1970-01-01T00:00:00Z</time>
      </trkpt>
      <trkpt lat="39.374824" lon="-5.319919">
        <ele>676.2</ele>
        <time>1970-01-01T00:00:00Z</time>
      </trkpt>
      <trkpt lat="39.374824" lon="-5.319919">
        <ele>676.2</ele>
        <time>1970-01-01T00:00:00Z</time>
      </trkpt>
      <trkpt lat="39.374878" lon="-5.319902">
        <ele>677.2</ele>
        <time>1970-01-01T00:00:00Z</time>
      </trkpt>
      <trkpt lat="39.374878" lon="-5.319902">
        <ele>677.2</ele>
        <time>1970-01-01T00:00:00Z</time>
      </trkpt>
      <trkpt lat="39.374878" lon="-5.319902">
        <ele>677.2</ele>
        <time>1970-01-01T00:00:00Z</time>
      </trkpt>
      <trkpt lat="39.374878" lon="-5.319902">
        <ele>677.2</ele>
        <time>1970-01-01T00:00:00Z</time>
      </trkpt>
      <trkpt lat="39.374952" lon="-5.319907">
        <ele>678.1</ele>
        <time>1970-01-01T00:00:00Z</time>
      </trkpt>
      <trkpt lat="39.374952" lon="-5.319907">
        <ele>678.1</ele>
        <time>1970-01-01T00:00:00Z</time>
      </trkpt>
      <trkpt lat="39.374952" lon="-5.319907">
        <ele>678.1</ele>
        <time>1970-01-01T00:00:00Z</time>
      </trkpt>
      <trkpt lat="39.374952" lon="-5.319907">
        <ele>678.1</ele>
        <time>1970-01-01T00:00:00Z</time>
      </trkpt>
      <trkpt lat="39.375018" lon="-5.319876">
        <ele>678.9</ele>
        <time>1970-01-01T00:00:00Z</time>
      </trkpt>
      <trkpt lat="39.375018" lon="-5.319876">
        <ele>678.9</ele>
        <time>1970-01-01T00:00:00Z</time>
      </trkpt>
      <trkpt lat="39.375018" lon="-5.319876">
        <ele>678.9</ele>
        <time>1970-01-01T00:00:00Z</time>
      </trkpt>
      <trkpt lat="39.375018" lon="-5.319876">
        <ele>678.9</ele>
        <time>1970-01-01T00:00:00Z</time>
      </trkpt>
      <trkpt lat="39.375055" lon="-5.319825">
        <ele>679.3</ele>
        <time>1970-01-01T00:00:00Z</time>
      </trkpt>
      <trkpt lat="39.375055" lon="-5.319825">
        <ele>679.3</ele>
        <time>1970-01-01T00:00:00Z</time>
      </trkpt>
      <trkpt lat="39.375055" lon="-5.319825">
        <ele>679.3</ele>
        <time>1970-01-01T00:00:00Z</time>
      </trkpt>
      <trkpt lat="39.375055" lon="-5.319825">
        <ele>679.3</ele>
        <time>1970-01-01T00:00:00Z</time>
      </trkpt>
      <trkpt lat="39.375085" lon="-5.319731">
        <ele>679.8</ele>
        <time>1970-01-01T00:00:00Z</time>
      </trkpt>
      <trkpt lat="39.375085" lon="-5.319731">
        <ele>679.8</ele>
        <time>1970-01-01T00:00:00Z</time>
      </trkpt>
      <trkpt lat="39.375085" lon="-5.319731">
        <ele>679.8</ele>
        <time>1970-01-01T00:00:00Z</time>
      </trkpt>
      <trkpt lat="39.375085" lon="-5.319731">
        <ele>679.8</ele>
        <time>1970-01-01T00:00:00Z</time>
      </trkpt>
      <trkpt lat="39.375086" lon="-5.319571">
        <ele>680.5</ele>
        <time>1970-01-01T00:00:00Z</time>
      </trkpt>
      <trkpt lat="39.375086" lon="-5.319571">
        <ele>680.5</ele>
        <time>1970-01-01T00:00:00Z</time>
      </trkpt>
      <trkpt lat="39.375086" lon="-5.319571">
        <ele>680.5</ele>
        <time>1970-01-01T00:00:00Z</time>
      </trkpt>
      <trkpt lat="39.375086" lon="-5.319571">
        <ele>680.5</ele>
        <time>1970-01-01T00:00:00Z</time>
      </trkpt>
      <trkpt lat="39.375095" lon="-5.319348">
        <ele>680.9</ele>
        <time>1970-01-01T00:00:00Z</time>
      </trkpt>
      <trkpt lat="39.375095" lon="-5.319348">
        <ele>680.9</ele>
        <time>1970-01-01T00:00:00Z</time>
      </trkpt>
      <trkpt lat="39.375095" lon="-5.319348">
        <ele>680.9</ele>
        <time>1970-01-01T00:00:00Z</time>
      </trkpt>
      <trkpt lat="39.375095" lon="-5.319348">
        <ele>680.9</ele>
        <time>1970-01-01T00:00:00Z</time>
      </trkpt>
      <trkpt lat="39.375137" lon="-5.319183">
        <ele>681.0</ele>
        <time>1970-01-01T00:00:00Z</time>
      </trkpt>
      <trkpt lat="39.375137" lon="-5.319183">
        <ele>681.0</ele>
        <time>1970-01-01T00:00:00Z</time>
      </trkpt>
      <trkpt lat="39.375137" lon="-5.319183">
        <ele>681.0</ele>
        <time>1970-01-01T00:00:00Z</time>
      </trkpt>
      <trkpt lat="39.375137" lon="-5.319183">
        <ele>681.0</ele>
        <time>1970-01-01T00:00:00Z</time>
      </trkpt>
      <trkpt lat="39.375231" lon="-5.318987">
        <ele>680.7</ele>
        <time>1970-01-01T00:00:00Z</time>
      </trkpt>
      <trkpt lat="39.375231" lon="-5.318987">
        <ele>680.7</ele>
        <time>1970-01-01T00:00:00Z</time>
      </trkpt>
      <trkpt lat="39.375231" lon="-5.318987">
        <ele>680.7</ele>
        <time>1970-01-01T00:00:00Z</time>
      </trkpt>
      <trkpt lat="39.375231" lon="-5.318987">
        <ele>680.7</ele>
        <time>1970-01-01T00:00:00Z</time>
      </trkpt>
      <trkpt lat="39.375328" lon="-5.318910">
        <ele>679.8</ele>
        <time>1970-01-01T00:00:00Z</time>
      </trkpt>
      <trkpt lat="39.375328" lon="-5.318910">
        <ele>679.8</ele>
        <time>1970-01-01T00:00:00Z</time>
      </trkpt>
      <trkpt lat="39.375328" lon="-5.318910">
        <ele>679.8</ele>
        <time>1970-01-01T00:00:00Z</time>
      </trkpt>
      <trkpt lat="39.375328" lon="-5.318910">
        <ele>679.8</ele>
        <time>1970-01-01T00:00:00Z</time>
      </trkpt>
      <trkpt lat="39.375487" lon="-5.318897">
        <ele>679.1</ele>
        <time>1970-01-01T00:00:00Z</time>
      </trkpt>
      <trkpt lat="39.375487" lon="-5.318897">
        <ele>679.1</ele>
        <time>1970-01-01T00:00:00Z</time>
      </trkpt>
      <trkpt lat="39.375487" lon="-5.318897">
        <ele>679.1</ele>
        <time>1970-01-01T00:00:00Z</time>
      </trkpt>
      <trkpt lat="39.375487" lon="-5.318897">
        <ele>679.1</ele>
        <time>1970-01-01T00:00:00Z</time>
      </trkpt>
      <trkpt lat="39.375601" lon="-5.318867">
        <ele>678.5</ele>
        <time>1970-01-01T00:00:00Z</time>
      </trkpt>
      <trkpt lat="39.375601" lon="-5.318867">
        <ele>678.5</ele>
        <time>1970-01-01T00:00:00Z</time>
      </trkpt>
      <trkpt lat="39.375601" lon="-5.318867">
        <ele>678.5</ele>
        <time>1970-01-01T00:00:00Z</time>
      </trkpt>
      <trkpt lat="39.375601" lon="-5.318867">
        <ele>678.5</ele>
        <time>1970-01-01T00:00:00Z</time>
      </trkpt>
      <trkpt lat="39.375642" lon="-5.318833">
        <ele>678.0</ele>
        <time>1970-01-01T00:00:00Z</time>
      </trkpt>
      <trkpt lat="39.375642" lon="-5.318833">
        <ele>678.0</ele>
        <time>1970-01-01T00:00:00Z</time>
      </trkpt>
      <trkpt lat="39.375642" lon="-5.318833">
        <ele>678.0</ele>
        <time>1970-01-01T00:00:00Z</time>
      </trkpt>
      <trkpt lat="39.375642" lon="-5.318833">
        <ele>678.0</ele>
        <time>1970-01-01T00:00:00Z</time>
      </trkpt>
      <trkpt lat="39.375646" lon="-5.318772">
        <ele>677.3</ele>
        <time>1970-01-01T00:00:00Z</time>
      </trkpt>
      <trkpt lat="39.375646" lon="-5.318772">
        <ele>677.3</ele>
        <time>1970-01-01T00:00:00Z</time>
      </trkpt>
      <trkpt lat="39.375646" lon="-5.318772">
        <ele>677.3</ele>
        <time>1970-01-01T00:00:00Z</time>
      </trkpt>
      <trkpt lat="39.375646" lon="-5.318772">
        <ele>677.3</ele>
        <time>1970-01-01T00:00:00Z</time>
      </trkpt>
      <trkpt lat="39.375569" lon="-5.318656">
        <ele>676.6</ele>
        <time>1970-01-01T00:00:00Z</time>
      </trkpt>
      <trkpt lat="39.375569" lon="-5.318656">
        <ele>676.6</ele>
        <time>1970-01-01T00:00:00Z</time>
      </trkpt>
      <trkpt lat="39.375569" lon="-5.318656">
        <ele>676.6</ele>
        <time>1970-01-01T00:00:00Z</time>
      </trkpt>
      <trkpt lat="39.375569" lon="-5.318656">
        <ele>676.6</ele>
        <time>1970-01-01T00:00:00Z</time>
      </trkpt>
      <trkpt lat="39.375511" lon="-5.318577">
        <ele>676.4</ele>
        <time>1970-01-01T00:00:00Z</time>
      </trkpt>
      <trkpt lat="39.375511" lon="-5.318577">
        <ele>676.4</ele>
        <time>1970-01-01T00:00:00Z</time>
      </trkpt>
      <trkpt lat="39.375511" lon="-5.318577">
        <ele>676.4</ele>
        <time>1970-01-01T00:00:00Z</time>
      </trkpt>
      <trkpt lat="39.375511" lon="-5.318577">
        <ele>676.4</ele>
        <time>1970-01-01T00:00:00Z</time>
      </trkpt>
      <trkpt lat="39.375504" lon="-5.318525">
        <ele>675.9</ele>
        <time>1970-01-01T00:00:00Z</time>
      </trkpt>
      <trkpt lat="39.375504" lon="-5.318525">
        <ele>675.9</ele>
        <time>1970-01-01T00:00:00Z</time>
      </trkpt>
      <trkpt lat="39.375504" lon="-5.318525">
        <ele>675.9</ele>
        <time>1970-01-01T00:00:00Z</time>
      </trkpt>
      <trkpt lat="39.375504" lon="-5.318525">
        <ele>675.9</ele>
        <time>1970-01-01T00:00:00Z</time>
      </trkpt>
      <trkpt lat="39.375525" lon="-5.318498">
        <ele>675.4</ele>
        <time>1970-01-01T00:00:00Z</time>
      </trkpt>
      <trkpt lat="39.375525" lon="-5.318498">
        <ele>675.4</ele>
        <time>1970-01-01T00:00:00Z</time>
      </trkpt>
      <trkpt lat="39.375525" lon="-5.318498">
        <ele>675.4</ele>
        <time>1970-01-01T00:00:00Z</time>
      </trkpt>
      <trkpt lat="39.375525" lon="-5.318498">
        <ele>675.4</ele>
        <time>1970-01-01T00:00:00Z</time>
      </trkpt>
      <trkpt lat="39.375570" lon="-5.318471">
        <ele>674.5</ele>
        <time>1970-01-01T00:00:00Z</time>
      </trkpt>
      <trkpt lat="39.375570" lon="-5.318471">
        <ele>674.5</ele>
        <time>1970-01-01T00:00:00Z</time>
      </trkpt>
      <trkpt lat="39.375570" lon="-5.318471">
        <ele>674.5</ele>
        <time>1970-01-01T00:00:00Z</time>
      </trkpt>
      <trkpt lat="39.375570" lon="-5.318471">
        <ele>674.5</ele>
        <time>1970-01-01T00:00:00Z</time>
      </trkpt>
      <trkpt lat="39.375713" lon="-5.318465">
        <ele>672.8</ele>
        <time>1970-01-01T00:00:00Z</time>
      </trkpt>
      <trkpt lat="39.375713" lon="-5.318465">
        <ele>672.8</ele>
        <time>1970-01-01T00:00:00Z</time>
      </trkpt>
      <trkpt lat="39.375713" lon="-5.318465">
        <ele>672.8</ele>
        <time>1970-01-01T00:00:00Z</time>
      </trkpt>
      <trkpt lat="39.375713" lon="-5.318465">
        <ele>672.8</ele>
        <time>1970-01-01T00:00:00Z</time>
      </trkpt>
      <trkpt lat="39.375905" lon="-5.318455">
        <ele>670.9</ele>
        <time>1970-01-01T00:00:00Z</time>
      </trkpt>
      <trkpt lat="39.375905" lon="-5.318455">
        <ele>670.9</ele>
        <time>1970-01-01T00:00:00Z</time>
      </trkpt>
      <trkpt lat="39.375905" lon="-5.318455">
        <ele>670.9</ele>
        <time>1970-01-01T00:00:00Z</time>
      </trkpt>
      <trkpt lat="39.375905" lon="-5.318455">
        <ele>670.9</ele>
        <time>1970-01-01T00:00:00Z</time>
      </trkpt>
      <trkpt lat="39.376113" lon="-5.318423">
        <ele>668.9</ele>
        <time>1970-01-01T00:00:00Z</time>
      </trkpt>
      <trkpt lat="39.376113" lon="-5.318423">
        <ele>668.9</ele>
        <time>1970-01-01T00:00:00Z</time>
      </trkpt>
      <trkpt lat="39.376113" lon="-5.318423">
        <ele>668.9</ele>
        <time>1970-01-01T00:00:00Z</time>
      </trkpt>
      <trkpt lat="39.376113" lon="-5.318423">
        <ele>668.9</ele>
        <time>1970-01-01T00:00:00Z</time>
      </trkpt>
      <trkpt lat="39.376328" lon="-5.318378">
        <ele>667.0</ele>
        <time>1970-01-01T00:00:00Z</time>
      </trkpt>
      <trkpt lat="39.376328" lon="-5.318378">
        <ele>667.0</ele>
        <time>1970-01-01T00:00:00Z</time>
      </trkpt>
      <trkpt lat="39.376328" lon="-5.318378">
        <ele>667.0</ele>
        <time>1970-01-01T00:00:00Z</time>
      </trkpt>
      <trkpt lat="39.376328" lon="-5.318378">
        <ele>667.0</ele>
        <time>1970-01-01T00:00:00Z</time>
      </trkpt>
      <trkpt lat="39.376617" lon="-5.318263">
        <ele>663.7</ele>
        <time>1970-01-01T00:00:00Z</time>
      </trkpt>
      <trkpt lat="39.376617" lon="-5.318263">
        <ele>663.7</ele>
        <time>1970-01-01T00:00:00Z</time>
      </trkpt>
      <trkpt lat="39.376617" lon="-5.318263">
        <ele>663.7</ele>
        <time>1970-01-01T00:00:00Z</time>
      </trkpt>
      <trkpt lat="39.376617" lon="-5.318263">
        <ele>663.7</ele>
        <time>1970-01-01T00:00:00Z</time>
      </trkpt>
      <trkpt lat="39.376853" lon="-5.318136">
        <ele>661.4</ele>
        <time>1970-01-01T00:00:00Z</time>
      </trkpt>
      <trkpt lat="39.376853" lon="-5.318136">
        <ele>661.4</ele>
        <time>1970-01-01T00:00:00Z</time>
      </trkpt>
      <trkpt lat="39.376853" lon="-5.318136">
        <ele>661.4</ele>
        <time>1970-01-01T00:00:00Z</time>
      </trkpt>
      <trkpt lat="39.376853" lon="-5.318136">
        <ele>661.4</ele>
        <time>1970-01-01T00:00:00Z</time>
      </trkpt>
      <trkpt lat="39.377104" lon="-5.318015">
        <ele>661.3</ele>
        <time>1970-01-01T00:00:00Z</time>
      </trkpt>
      <trkpt lat="39.377104" lon="-5.318015">
        <ele>661.3</ele>
        <time>1970-01-01T00:00:00Z</time>
      </trkpt>
      <trkpt lat="39.377104" lon="-5.318015">
        <ele>661.3</ele>
        <time>1970-01-01T00:00:00Z</time>
      </trkpt>
      <trkpt lat="39.377104" lon="-5.318015">
        <ele>661.3</ele>
        <time>1970-01-01T00:00:00Z</time>
      </trkpt>
      <trkpt lat="39.377243" lon="-5.317977">
        <ele>662.2</ele>
        <time>1970-01-01T00:00:00Z</time>
      </trkpt>
      <trkpt lat="39.377243" lon="-5.317977">
        <ele>662.2</ele>
        <time>1970-01-01T00:00:00Z</time>
      </trkpt>
      <trkpt lat="39.377243" lon="-5.317977">
        <ele>662.2</ele>
        <time>1970-01-01T00:00:00Z</time>
      </trkpt>
      <trkpt lat="39.377243" lon="-5.317977">
        <ele>662.2</ele>
        <time>1970-01-01T00:00:00Z</time>
      </trkpt>
      <trkpt lat="39.377290" lon="-5.317983">
        <ele>662.7</ele>
        <time>1970-01-01T00:00:00Z</time>
      </trkpt>
      <trkpt lat="39.377290" lon="-5.317983">
        <ele>662.7</ele>
        <time>1970-01-01T00:00:00Z</time>
      </trkpt>
      <trkpt lat="39.377290" lon="-5.317983">
        <ele>662.7</ele>
        <time>1970-01-01T00:00:00Z</time>
      </trkpt>
      <trkpt lat="39.377290" lon="-5.317983">
        <ele>662.7</ele>
        <time>1970-01-01T00:00:00Z</time>
      </trkpt>
      <trkpt lat="39.377454" lon="-5.318039">
        <ele>664.9</ele>
        <time>1970-01-01T00:00:00Z</time>
      </trkpt>
      <trkpt lat="39.377454" lon="-5.318039">
        <ele>664.9</ele>
        <time>1970-01-01T00:00:00Z</time>
      </trkpt>
      <trkpt lat="39.377454" lon="-5.318039">
        <ele>664.9</ele>
        <time>1970-01-01T00:00:00Z</time>
      </trkpt>
      <trkpt lat="39.377454" lon="-5.318039">
        <ele>664.9</ele>
        <time>1970-01-01T00:00:00Z</time>
      </trkpt>
      <trkpt lat="39.377621" lon="-5.318085">
        <ele>667.7</ele>
        <time>1970-01-01T00:00:00Z</time>
      </trkpt>
      <trkpt lat="39.377621" lon="-5.318085">
        <ele>667.7</ele>
        <time>1970-01-01T00:00:00Z</time>
      </trkpt>
      <trkpt lat="39.377621" lon="-5.318085">
        <ele>667.7</ele>
        <time>1970-01-01T00:00:00Z</time>
      </trkpt>
      <trkpt lat="39.377621" lon="-5.318085">
        <ele>667.7</ele>
        <time>1970-01-01T00:00:00Z</time>
      </trkpt>
      <trkpt lat="39.377694" lon="-5.318075">
        <ele>668.6</ele>
        <time>1970-01-01T00:00:00Z</time>
      </trkpt>
      <trkpt lat="39.377694" lon="-5.318075">
        <ele>668.6</ele>
        <time>1970-01-01T00:00:00Z</time>
      </trkpt>
      <trkpt lat="39.377694" lon="-5.318075">
        <ele>668.6</ele>
        <time>1970-01-01T00:00:00Z</time>
      </trkpt>
      <trkpt lat="39.377694" lon="-5.318075">
        <ele>668.6</ele>
        <time>1970-01-01T00:00:00Z</time>
      </trkpt>
      <trkpt lat="39.377754" lon="-5.318058">
        <ele>669.3</ele>
        <time>1970-01-01T00:00:00Z</time>
      </trkpt>
      <trkpt lat="39.377754" lon="-5.318058">
        <ele>669.3</ele>
        <time>1970-01-01T00:00:00Z</time>
      </trkpt>
      <trkpt lat="39.377754" lon="-5.318058">
        <ele>669.3</ele>
        <time>1970-01-01T00:00:00Z</time>
      </trkpt>
      <trkpt lat="39.377754" lon="-5.318058">
        <ele>669.3</ele>
        <time>1970-01-01T00:00:00Z</time>
      </trkpt>
      <trkpt lat="39.377793" lon="-5.317995">
        <ele>669.0</ele>
        <time>1970-01-01T00:00:00Z</time>
      </trkpt>
      <trkpt lat="39.377793" lon="-5.317995">
        <ele>669.0</ele>
        <time>1970-01-01T00:00:00Z</time>
      </trkpt>
      <trkpt lat="39.377793" lon="-5.317995">
        <ele>669.0</ele>
        <time>1970-01-01T00:00:00Z</time>
      </trkpt>
      <trkpt lat="39.377793" lon="-5.317995">
        <ele>669.0</ele>
        <time>1970-01-01T00:00:00Z</time>
      </trkpt>
      <trkpt lat="39.377834" lon="-5.317861">
        <ele>667.6</ele>
        <time>1970-01-01T00:00:00Z</time>
      </trkpt>
      <trkpt lat="39.377834" lon="-5.317861">
        <ele>667.6</ele>
        <time>1970-01-01T00:00:00Z</time>
      </trkpt>
      <trkpt lat="39.377834" lon="-5.317861">
        <ele>667.6</ele>
        <time>1970-01-01T00:00:00Z</time>
      </trkpt>
      <trkpt lat="39.377834" lon="-5.317861">
        <ele>667.6</ele>
        <time>1970-01-01T00:00:00Z</time>
      </trkpt>
      <trkpt lat="39.377899" lon="-5.317611">
        <ele>665.2</ele>
        <time>1970-01-01T00:00:00Z</time>
      </trkpt>
      <trkpt lat="39.377899" lon="-5.317611">
        <ele>665.2</ele>
        <time>1970-01-01T00:00:00Z</time>
      </trkpt>
      <trkpt lat="39.377899" lon="-5.317611">
        <ele>665.2</ele>
        <time>1970-01-01T00:00:00Z</time>
      </trkpt>
      <trkpt lat="39.377899" lon="-5.317611">
        <ele>665.2</ele>
        <time>1970-01-01T00:00:00Z</time>
      </trkpt>
      <trkpt lat="39.378004" lon="-5.317326">
        <ele>663.1</ele>
        <time>1970-01-01T00:00:00Z</time>
      </trkpt>
      <trkpt lat="39.378004" lon="-5.317326">
        <ele>663.1</ele>
        <time>1970-01-01T00:00:00Z</time>
      </trkpt>
      <trkpt lat="39.378004" lon="-5.317326">
        <ele>663.1</ele>
        <time>1970-01-01T00:00:00Z</time>
      </trkpt>
      <trkpt lat="39.378004" lon="-5.317326">
        <ele>663.1</ele>
        <time>1970-01-01T00:00:00Z</time>
      </trkpt>
      <trkpt lat="39.378135" lon="-5.317082">
        <ele>661.3</ele>
        <time>1970-01-01T00:00:00Z</time>
      </trkpt>
      <trkpt lat="39.378135" lon="-5.317082">
        <ele>661.3</ele>
        <time>1970-01-01T00:00:00Z</time>
      </trkpt>
      <trkpt lat="39.378135" lon="-5.317082">
        <ele>661.3</ele>
        <time>1970-01-01T00:00:00Z</time>
      </trkpt>
      <trkpt lat="39.378135" lon="-5.317082">
        <ele>661.3</ele>
        <time>1970-01-01T00:00:00Z</time>
      </trkpt>
      <trkpt lat="39.378242" lon="-5.316972">
        <ele>660.3</ele>
        <time>1970-01-01T00:00:00Z</time>
      </trkpt>
      <trkpt lat="39.378242" lon="-5.316972">
        <ele>660.3</ele>
        <time>1970-01-01T00:00:00Z</time>
      </trkpt>
      <trkpt lat="39.378242" lon="-5.316972">
        <ele>660.3</ele>
        <time>1970-01-01T00:00:00Z</time>
      </trkpt>
      <trkpt lat="39.378242" lon="-5.316972">
        <ele>660.3</ele>
        <time>1970-01-01T00:00:00Z</time>
      </trkpt>
      <trkpt lat="39.378382" lon="-5.316891">
        <ele>659.1</ele>
        <time>1970-01-01T00:00:00Z</time>
      </trkpt>
      <trkpt lat="39.378382" lon="-5.316891">
        <ele>659.1</ele>
        <time>1970-01-01T00:00:00Z</time>
      </trkpt>
      <trkpt lat="39.378382" lon="-5.316891">
        <ele>659.1</ele>
        <time>1970-01-01T00:00:00Z</time>
      </trkpt>
      <trkpt lat="39.378382" lon="-5.316891">
        <ele>659.1</ele>
        <time>1970-01-01T00:00:00Z</time>
      </trkpt>
      <trkpt lat="39.378480" lon="-5.316860">
        <ele>658.7</ele>
        <time>1970-01-01T00:00:00Z</time>
      </trkpt>
      <trkpt lat="39.378480" lon="-5.316860">
        <ele>658.7</ele>
        <time>1970-01-01T00:00:00Z</time>
      </trkpt>
      <trkpt lat="39.378480" lon="-5.316860">
        <ele>658.7</ele>
        <time>1970-01-01T00:00:00Z</time>
      </trkpt>
      <trkpt lat="39.378480" lon="-5.316860">
        <ele>658.7</ele>
        <time>1970-01-01T00:00:00Z</time>
      </trkpt>
      <trkpt lat="39.378659" lon="-5.316854">
        <ele>658.6</ele>
        <time>1970-01-01T00:00:00Z</time>
      </trkpt>
      <trkpt lat="39.378659" lon="-5.316854">
        <ele>658.6</ele>
        <time>1970-01-01T00:00:00Z</time>
      </trkpt>
      <trkpt lat="39.378659" lon="-5.316854">
        <ele>658.6</ele>
        <time>1970-01-01T00:00:00Z</time>
      </trkpt>
      <trkpt lat="39.378659" lon="-5.316854">
        <ele>658.6</ele>
        <time>1970-01-01T00:00:00Z</time>
      </trkpt>
      <trkpt lat="39.378992" lon="-5.316871">
        <ele>659.0</ele>
        <time>1970-01-01T00:00:00Z</time>
      </trkpt>
      <trkpt lat="39.378992" lon="-5.316871">
        <ele>659.0</ele>
        <time>1970-01-01T00:00:00Z</time>
      </trkpt>
      <trkpt lat="39.378992" lon="-5.316871">
        <ele>659.0</ele>
        <time>1970-01-01T00:00:00Z</time>
      </trkpt>
      <trkpt lat="39.378992" lon="-5.316871">
        <ele>659.0</ele>
        <time>1970-01-01T00:00:00Z</time>
      </trkpt>
      <trkpt lat="39.379328" lon="-5.316910">
        <ele>662.7</ele>
        <time>1970-01-01T00:00:00Z</time>
      </trkpt>
      <trkpt lat="39.379328" lon="-5.316910">
        <ele>662.7</ele>
        <time>1970-01-01T00:00:00Z</time>
      </trkpt>
      <trkpt lat="39.379328" lon="-5.316910">
        <ele>662.7</ele>
        <time>1970-01-01T00:00:00Z</time>
      </trkpt>
      <trkpt lat="39.379328" lon="-5.316910">
        <ele>662.7</ele>
        <time>1970-01-01T00:00:00Z</time>
      </trkpt>
      <trkpt lat="39.379495" lon="-5.316915">
        <ele>665.2</ele>
        <time>1970-01-01T00:00:00Z</time>
      </trkpt>
      <trkpt lat="39.379495" lon="-5.316915">
        <ele>665.2</ele>
        <time>1970-01-01T00:00:00Z</time>
      </trkpt>
      <trkpt lat="39.379495" lon="-5.316915">
        <ele>665.2</ele>
        <time>1970-01-01T00:00:00Z</time>
      </trkpt>
      <trkpt lat="39.379495" lon="-5.316915">
        <ele>665.2</ele>
        <time>1970-01-01T00:00:00Z</time>
      </trkpt>
      <trkpt lat="39.379555" lon="-5.316892">
        <ele>665.5</ele>
        <time>1970-01-01T00:00:00Z</time>
      </trkpt>
      <trkpt lat="39.379555" lon="-5.316892">
        <ele>665.5</ele>
        <time>1970-01-01T00:00:00Z</time>
      </trkpt>
      <trkpt lat="39.379555" lon="-5.316892">
        <ele>665.5</ele>
        <time>1970-01-01T00:00:00Z</time>
      </trkpt>
      <trkpt lat="39.379555" lon="-5.316892">
        <ele>665.5</ele>
        <time>1970-01-01T00:00:00Z</time>
      </trkpt>
      <trkpt lat="39.379689" lon="-5.316842">
        <ele>666.2</ele>
        <time>1970-01-01T00:00:00Z</time>
      </trkpt>
      <trkpt lat="39.379689" lon="-5.316842">
        <ele>666.2</ele>
        <time>1970-01-01T00:00:00Z</time>
      </trkpt>
      <trkpt lat="39.379689" lon="-5.316842">
        <ele>666.2</ele>
        <time>1970-01-01T00:00:00Z</time>
      </trkpt>
      <trkpt lat="39.379689" lon="-5.316842">
        <ele>666.2</ele>
        <time>1970-01-01T00:00:00Z</time>
      </trkpt>
      <trkpt lat="39.379877" lon="-5.316724">
        <ele>665.5</ele>
        <time>1970-01-01T00:00:00Z</time>
      </trkpt>
      <trkpt lat="39.379877" lon="-5.316724">
        <ele>665.5</ele>
        <time>1970-01-01T00:00:00Z</time>
      </trkpt>
      <trkpt lat="39.379877" lon="-5.316724">
        <ele>665.5</ele>
        <time>1970-01-01T00:00:00Z</time>
      </trkpt>
      <trkpt lat="39.379877" lon="-5.316724">
        <ele>665.5</ele>
        <time>1970-01-01T00:00:00Z</time>
      </trkpt>
      <trkpt lat="39.380218" lon="-5.316506">
        <ele>665.8</ele>
        <time>1970-01-01T00:00:00Z</time>
      </trkpt>
      <trkpt lat="39.380218" lon="-5.316506">
        <ele>665.8</ele>
        <time>1970-01-01T00:00:00Z</time>
      </trkpt>
      <trkpt lat="39.380218" lon="-5.316506">
        <ele>665.8</ele>
        <time>1970-01-01T00:00:00Z</time>
      </trkpt>
      <trkpt lat="39.380218" lon="-5.316506">
        <ele>665.8</ele>
        <time>1970-01-01T00:00:00Z</time>
      </trkpt>
      <trkpt lat="39.380508" lon="-5.316313">
        <ele>666.5</ele>
        <time>1970-01-01T00:00:00Z</time>
      </trkpt>
      <trkpt lat="39.380508" lon="-5.316313">
        <ele>666.5</ele>
        <time>1970-01-01T00:00:00Z</time>
      </trkpt>
      <trkpt lat="39.380508" lon="-5.316313">
        <ele>666.5</ele>
        <time>1970-01-01T00:00:00Z</time>
      </trkpt>
      <trkpt lat="39.380508" lon="-5.316313">
        <ele>666.5</ele>
        <time>1970-01-01T00:00:00Z</time>
      </trkpt>
      <trkpt lat="39.380759" lon="-5.316148">
        <ele>667.3</ele>
        <time>1970-01-01T00:00:00Z</time>
      </trkpt>
      <trkpt lat="39.380759" lon="-5.316148">
        <ele>667.3</ele>
        <time>1970-01-01T00:00:00Z</time>
      </trkpt>
      <trkpt lat="39.380759" lon="-5.316148">
        <ele>667.3</ele>
        <time>1970-01-01T00:00:00Z</time>
      </trkpt>
      <trkpt lat="39.380759" lon="-5.316148">
        <ele>667.3</ele>
        <time>1970-01-01T00:00:00Z</time>
      </trkpt>
      <trkpt lat="39.380858" lon="-5.316061">
        <ele>666.7</ele>
        <time>1970-01-01T00:00:00Z</time>
      </trkpt>
      <trkpt lat="39.380858" lon="-5.316061">
        <ele>666.7</ele>
        <time>1970-01-01T00:00:00Z</time>
      </trkpt>
      <trkpt lat="39.380858" lon="-5.316061">
        <ele>666.7</ele>
        <time>1970-01-01T00:00:00Z</time>
      </trkpt>
      <trkpt lat="39.380858" lon="-5.316061">
        <ele>666.7</ele>
        <time>1970-01-01T00:00:00Z</time>
      </trkpt>
      <trkpt lat="39.381070" lon="-5.315825">
        <ele>664.7</ele>
        <time>1970-01-01T00:00:00Z</time>
      </trkpt>
      <trkpt lat="39.381070" lon="-5.315825">
        <ele>664.7</ele>
        <time>1970-01-01T00:00:00Z</time>
      </trkpt>
      <trkpt lat="39.381070" lon="-5.315825">
        <ele>664.7</ele>
        <time>1970-01-01T00:00:00Z</time>
      </trkpt>
      <trkpt lat="39.381070" lon="-5.315825">
        <ele>664.7</ele>
        <time>1970-01-01T00:00:00Z</time>
      </trkpt>
      <trkpt lat="39.381496" lon="-5.315339">
        <ele>658.9</ele>
        <time>1970-01-01T00:00:00Z</time>
      </trkpt>
      <trkpt lat="39.381496" lon="-5.315339">
        <ele>658.9</ele>
        <time>1970-01-01T00:00:00Z</time>
      </trkpt>
      <trkpt lat="39.381496" lon="-5.315339">
        <ele>658.9</ele>
        <time>1970-01-01T00:00:00Z</time>
      </trkpt>
      <trkpt lat="39.381496" lon="-5.315339">
        <ele>658.9</ele>
        <time>1970-01-01T00:00:00Z</time>
      </trkpt>
      <trkpt lat="39.381575" lon="-5.315248">
        <ele>658.5</ele>
        <time>1970-01-01T00:00:00Z</time>
      </trkpt>
      <trkpt lat="39.381575" lon="-5.315248">
        <ele>658.5</ele>
        <time>1970-01-01T00:00:00Z</time>
      </trkpt>
      <trkpt lat="39.381575" lon="-5.315248">
        <ele>658.5</ele>
        <time>1970-01-01T00:00:00Z</time>
      </trkpt>
      <trkpt lat="39.381575" lon="-5.315248">
        <ele>658.5</ele>
        <time>1970-01-01T00:00:00Z</time>
      </trkpt>
      <trkpt lat="39.381708" lon="-5.315170">
        <ele>657.7</ele>
        <time>1970-01-01T00:00:00Z</time>
      </trkpt>
      <trkpt lat="39.381708" lon="-5.315170">
        <ele>657.7</ele>
        <time>1970-01-01T00:00:00Z</time>
      </trkpt>
      <trkpt lat="39.381708" lon="-5.315170">
        <ele>657.7</ele>
        <time>1970-01-01T00:00:00Z</time>
      </trkpt>
      <trkpt lat="39.381708" lon="-5.315170">
        <ele>657.7</ele>
        <time>1970-01-01T00:00:00Z</time>
      </trkpt>
      <trkpt lat="39.381885" lon="-5.315078">
        <ele>656.8</ele>
        <time>1970-01-01T00:00:00Z</time>
      </trkpt>
      <trkpt lat="39.381885" lon="-5.315078">
        <ele>656.8</ele>
        <time>1970-01-01T00:00:00Z</time>
      </trkpt>
      <trkpt lat="39.381885" lon="-5.315078">
        <ele>656.8</ele>
        <time>1970-01-01T00:00:00Z</time>
      </trkpt>
      <trkpt lat="39.381885" lon="-5.315078">
        <ele>656.8</ele>
        <time>1970-01-01T00:00:00Z</time>
      </trkpt>
      <trkpt lat="39.381950" lon="-5.315049">
        <ele>656.5</ele>
        <time>1970-01-01T00:00:00Z</time>
      </trkpt>
      <trkpt lat="39.381950" lon="-5.315049">
        <ele>656.5</ele>
        <time>1970-01-01T00:00:00Z</time>
      </trkpt>
      <trkpt lat="39.381950" lon="-5.315049">
        <ele>656.5</ele>
        <time>1970-01-01T00:00:00Z</time>
      </trkpt>
      <trkpt lat="39.381950" lon="-5.315049">
        <ele>656.5</ele>
        <time>1970-01-01T00:00:00Z</time>
      </trkpt>
      <trkpt lat="39.382169" lon="-5.314983">
        <ele>655.1</ele>
        <time>1970-01-01T00:00:00Z</time>
      </trkpt>
      <trkpt lat="39.382169" lon="-5.314983">
        <ele>655.1</ele>
        <time>1970-01-01T00:00:00Z</time>
      </trkpt>
      <trkpt lat="39.382169" lon="-5.314983">
        <ele>655.1</ele>
        <time>1970-01-01T00:00:00Z</time>
      </trkpt>
      <trkpt lat="39.382169" lon="-5.314983">
        <ele>655.1</ele>
        <time>1970-01-01T00:00:00Z</time>
      </trkpt>
      <trkpt lat="39.382312" lon="-5.314959">
        <ele>653.9</ele>
        <time>1970-01-01T00:00:00Z</time>
      </trkpt>
      <trkpt lat="39.382312" lon="-5.314959">
        <ele>653.9</ele>
        <time>1970-01-01T00:00:00Z</time>
      </trkpt>
      <trkpt lat="39.382312" lon="-5.314959">
        <ele>653.9</ele>
        <time>1970-01-01T00:00:00Z</time>
      </trkpt>
      <trkpt lat="39.382312" lon="-5.314959">
        <ele>653.9</ele>
        <time>1970-01-01T00:00:00Z</time>
      </trkpt>
      <trkpt lat="39.382455" lon="-5.314956">
        <ele>652.5</ele>
        <time>1970-01-01T00:00:00Z</time>
      </trkpt>
      <trkpt lat="39.382455" lon="-5.314956">
        <ele>652.5</ele>
        <time>1970-01-01T00:00:00Z</time>
      </trkpt>
      <trkpt lat="39.382455" lon="-5.314956">
        <ele>652.5</ele>
        <time>1970-01-01T00:00:00Z</time>
      </trkpt>
      <trkpt lat="39.382455" lon="-5.314956">
        <ele>652.5</ele>
        <time>1970-01-01T00:00:00Z</time>
      </trkpt>
      <trkpt lat="39.382588" lon="-5.314956">
        <ele>651.5</ele>
        <time>1970-01-01T00:00:00Z</time>
      </trkpt>
      <trkpt lat="39.382588" lon="-5.314956">
        <ele>651.5</ele>
        <time>1970-01-01T00:00:00Z</time>
      </trkpt>
      <trkpt lat="39.382588" lon="-5.314956">
        <ele>651.5</ele>
        <time>1970-01-01T00:00:00Z</time>
      </trkpt>
      <trkpt lat="39.382588" lon="-5.314956">
        <ele>651.5</ele>
        <time>1970-01-01T00:00:00Z</time>
      </trkpt>
      <trkpt lat="39.382915" lon="-5.314973">
        <ele>649.8</ele>
        <time>1970-01-01T00:00:00Z</time>
      </trkpt>
      <trkpt lat="39.382915" lon="-5.314973">
        <ele>649.8</ele>
        <time>1970-01-01T00:00:00Z</time>
      </trkpt>
      <trkpt lat="39.382915" lon="-5.314973">
        <ele>649.8</ele>
        <time>1970-01-01T00:00:00Z</time>
      </trkpt>
      <trkpt lat="39.382915" lon="-5.314973">
        <ele>649.8</ele>
        <time>1970-01-01T00:00:00Z</time>
      </trkpt>
      <trkpt lat="39.383028" lon="-5.314999">
        <ele>649.0</ele>
        <time>1970-01-01T00:00:00Z</time>
      </trkpt>
      <trkpt lat="39.383028" lon="-5.314999">
        <ele>649.0</ele>
        <time>1970-01-01T00:00:00Z</time>
      </trkpt>
      <trkpt lat="39.383028" lon="-5.314999">
        <ele>649.0</ele>
        <time>1970-01-01T00:00:00Z</time>
      </trkpt>
      <trkpt lat="39.383028" lon="-5.314999">
        <ele>649.0</ele>
        <time>1970-01-01T00:00:00Z</time>
      </trkpt>
      <trkpt lat="39.383103" lon="-5.315054">
        <ele>648.2</ele>
        <time>1970-01-01T00:00:00Z</time>
      </trkpt>
      <trkpt lat="39.383103" lon="-5.315054">
        <ele>648.2</ele>
        <time>1970-01-01T00:00:00Z</time>
      </trkpt>
      <trkpt lat="39.383103" lon="-5.315054">
        <ele>648.2</ele>
        <time>1970-01-01T00:00:00Z</time>
      </trkpt>
      <trkpt lat="39.383103" lon="-5.315054">
        <ele>648.2</ele>
        <time>1970-01-01T00:00:00Z</time>
      </trkpt>
      <trkpt lat="39.383181" lon="-5.315118">
        <ele>647.3</ele>
        <time>1970-01-01T00:00:00Z</time>
      </trkpt>
      <trkpt lat="39.383181" lon="-5.315118">
        <ele>647.3</ele>
        <time>1970-01-01T00:00:00Z</time>
      </trkpt>
      <trkpt lat="39.383181" lon="-5.315118">
        <ele>647.3</ele>
        <time>1970-01-01T00:00:00Z</time>
      </trkpt>
      <trkpt lat="39.383181" lon="-5.315118">
        <ele>647.3</ele>
        <time>1970-01-01T00:00:00Z</time>
      </trkpt>
      <trkpt lat="39.383444" lon="-5.315434">
        <ele>642.4</ele>
        <time>1970-01-01T00:00:00Z</time>
      </trkpt>
      <trkpt lat="39.383444" lon="-5.315434">
        <ele>642.4</ele>
        <time>1970-01-01T00:00:00Z</time>
      </trkpt>
      <trkpt lat="39.383444" lon="-5.315434">
        <ele>642.4</ele>
        <time>1970-01-01T00:00:00Z</time>
      </trkpt>
      <trkpt lat="39.383444" lon="-5.315434">
        <ele>642.4</ele>
        <time>1970-01-01T00:00:00Z</time>
      </trkpt>
      <trkpt lat="39.383528" lon="-5.315541">
        <ele>641.4</ele>
        <time>1970-01-01T00:00:00Z</time>
      </trkpt>
      <trkpt lat="39.383528" lon="-5.315541">
        <ele>641.4</ele>
        <time>1970-01-01T00:00:00Z</time>
      </trkpt>
      <trkpt lat="39.383528" lon="-5.315541">
        <ele>641.4</ele>
        <time>1970-01-01T00:00:00Z</time>
      </trkpt>
      <trkpt lat="39.383528" lon="-5.315541">
        <ele>641.4</ele>
        <time>1970-01-01T00:00:00Z</time>
      </trkpt>
      <trkpt lat="39.383606" lon="-5.315590">
        <ele>641.0</ele>
        <time>1970-01-01T00:00:00Z</time>
      </trkpt>
      <trkpt lat="39.383606" lon="-5.315590">
        <ele>641.0</ele>
        <time>1970-01-01T00:00:00Z</time>
      </trkpt>
      <trkpt lat="39.383606" lon="-5.315590">
        <ele>641.0</ele>
        <time>1970-01-01T00:00:00Z</time>
      </trkpt>
      <trkpt lat="39.383606" lon="-5.315590">
        <ele>641.0</ele>
        <time>1970-01-01T00:00:00Z</time>
      </trkpt>
      <trkpt lat="39.383776" lon="-5.315626">
        <ele>640.0</ele>
        <time>1970-01-01T00:00:00Z</time>
      </trkpt>
      <trkpt lat="39.383776" lon="-5.315626">
        <ele>640.0</ele>
        <time>1970-01-01T00:00:00Z</time>
      </trkpt>
      <trkpt lat="39.383776" lon="-5.315626">
        <ele>640.0</ele>
        <time>1970-01-01T00:00:00Z</time>
      </trkpt>
      <trkpt lat="39.383776" lon="-5.315626">
        <ele>640.0</ele>
        <time>1970-01-01T00:00:00Z</time>
      </trkpt>
      <trkpt lat="39.383966" lon="-5.315636">
        <ele>638.7</ele>
        <time>1970-01-01T00:00:00Z</time>
      </trkpt>
      <trkpt lat="39.383966" lon="-5.315636">
        <ele>638.7</ele>
        <time>1970-01-01T00:00:00Z</time>
      </trkpt>
      <trkpt lat="39.383966" lon="-5.315636">
        <ele>638.7</ele>
        <time>1970-01-01T00:00:00Z</time>
      </trkpt>
      <trkpt lat="39.383966" lon="-5.315636">
        <ele>638.7</ele>
        <time>1970-01-01T00:00:00Z</time>
      </trkpt>
      <trkpt lat="39.384083" lon="-5.315622">
        <ele>637.4</ele>
        <time>1970-01-01T00:00:00Z</time>
      </trkpt>
      <trkpt lat="39.384083" lon="-5.315622">
        <ele>637.4</ele>
        <time>1970-01-01T00:00:00Z</time>
      </trkpt>
      <trkpt lat="39.384083" lon="-5.315622">
        <ele>637.4</ele>
        <time>1970-01-01T00:00:00Z</time>
      </trkpt>
      <trkpt lat="39.384083" lon="-5.315622">
        <ele>637.4</ele>
        <time>1970-01-01T00:00:00Z</time>
      </trkpt>
      <trkpt lat="39.384406" lon="-5.315534">
        <ele>632.5</ele>
        <time>1970-01-01T00:00:00Z</time>
      </trkpt>
      <trkpt lat="39.384406" lon="-5.315534">
        <ele>632.5</ele>
        <time>1970-01-01T00:00:00Z</time>
      </trkpt>
      <trkpt lat="39.384406" lon="-5.315534">
        <ele>632.5</ele>
        <time>1970-01-01T00:00:00Z</time>
      </trkpt>
      <trkpt lat="39.384406" lon="-5.315534">
        <ele>632.5</ele>
        <time>1970-01-01T00:00:00Z</time>
      </trkpt>
      <trkpt lat="39.384678" lon="-5.315462">
        <ele>627.3</ele>
        <time>1970-01-01T00:00:00Z</time>
      </trkpt>
      <trkpt lat="39.384678" lon="-5.315462">
        <ele>627.3</ele>
        <time>1970-01-01T00:00:00Z</time>
      </trkpt>
      <trkpt lat="39.384678" lon="-5.315462">
        <ele>627.3</ele>
        <time>1970-01-01T00:00:00Z</time>
      </trkpt>
      <trkpt lat="39.384678" lon="-5.315462">
        <ele>627.3</ele>
        <time>1970-01-01T00:00:00Z</time>
      </trkpt>
      <trkpt lat="39.385056" lon="-5.315340">
        <ele>617.8</ele>
        <time>1970-01-01T00:00:00Z</time>
      </trkpt>
      <trkpt lat="39.385056" lon="-5.315340">
        <ele>617.8</ele>
        <time>1970-01-01T00:00:00Z</time>
      </trkpt>
      <trkpt lat="39.385056" lon="-5.315340">
        <ele>617.8</ele>
        <time>1970-01-01T00:00:00Z</time>
      </trkpt>
      <trkpt lat="39.385056" lon="-5.315340">
        <ele>617.8</ele>
        <time>1970-01-01T00:00:00Z</time>
      </trkpt>
      <trkpt lat="39.385281" lon="-5.315243">
        <ele>614.1</ele>
        <time>1970-01-01T00:00:00Z</time>
      </trkpt>
      <trkpt lat="39.385281" lon="-5.315243">
        <ele>614.1</ele>
        <time>1970-01-01T00:00:00Z</time>
      </trkpt>
      <trkpt lat="39.385281" lon="-5.315243">
        <ele>614.1</ele>
        <time>1970-01-01T00:00:00Z</time>
      </trkpt>
      <trkpt lat="39.385281" lon="-5.315243">
        <ele>614.1</ele>
        <time>1970-01-01T00:00:00Z</time>
      </trkpt>
      <trkpt lat="39.385359" lon="-5.315202">
        <ele>613.1</ele>
        <time>1970-01-01T00:00:00Z</time>
      </trkpt>
      <trkpt lat="39.385359" lon="-5.315202">
        <ele>613.1</ele>
        <time>1970-01-01T00:00:00Z</time>
      </trkpt>
      <trkpt lat="39.385359" lon="-5.315202">
        <ele>613.1</ele>
        <time>1970-01-01T00:00:00Z</time>
      </trkpt>
      <trkpt lat="39.385359" lon="-5.315202">
        <ele>613.1</ele>
        <time>1970-01-01T00:00:00Z</time>
      </trkpt>
      <trkpt lat="39.385677" lon="-5.315059">
        <ele>609.0</ele>
        <time>1970-01-01T00:00:00Z</time>
      </trkpt>
      <trkpt lat="39.385677" lon="-5.315059">
        <ele>609.0</ele>
        <time>1970-01-01T00:00:00Z</time>
      </trkpt>
      <trkpt lat="39.385677" lon="-5.315059">
        <ele>609.0</ele>
        <time>1970-01-01T00:00:00Z</time>
      </trkpt>
      <trkpt lat="39.385677" lon="-5.315059">
        <ele>609.0</ele>
        <time>1970-01-01T00:00:00Z</time>
      </trkpt>
      <trkpt lat="39.385814" lon="-5.314965">
        <ele>607.1</ele>
        <time>1970-01-01T00:00:00Z</time>
      </trkpt>
      <trkpt lat="39.385814" lon="-5.314965">
        <ele>607.1</ele>
        <time>1970-01-01T00:00:00Z</time>
      </trkpt>
      <trkpt lat="39.385814" lon="-5.314965">
        <ele>607.1</ele>
        <time>1970-01-01T00:00:00Z</time>
      </trkpt>
      <trkpt lat="39.385814" lon="-5.314965">
        <ele>607.1</ele>
        <time>1970-01-01T00:00:00Z</time>
      </trkpt>
      <trkpt lat="39.385900" lon="-5.314864">
        <ele>606.7</ele>
        <time>1970-01-01T00:00:00Z</time>
      </trkpt>
      <trkpt lat="39.385900" lon="-5.314864">
        <ele>606.7</ele>
        <time>1970-01-01T00:00:00Z</time>
      </trkpt>
      <trkpt lat="39.385900" lon="-5.314864">
        <ele>606.7</ele>
        <time>1970-01-01T00:00:00Z</time>
      </trkpt>
      <trkpt lat="39.385900" lon="-5.314864">
        <ele>606.7</ele>
        <time>1970-01-01T00:00:00Z</time>
      </trkpt>
      <trkpt lat="39.386001" lon="-5.314683">
        <ele>606.8</ele>
        <time>1970-01-01T00:00:00Z</time>
      </trkpt>
      <trkpt lat="39.386001" lon="-5.314683">
        <ele>606.8</ele>
        <time>1970-01-01T00:00:00Z</time>
      </trkpt>
      <trkpt lat="39.386001" lon="-5.314683">
        <ele>606.8</ele>
        <time>1970-01-01T00:00:00Z</time>
      </trkpt>
      <trkpt lat="39.386001" lon="-5.314683">
        <ele>606.8</ele>
        <time>1970-01-01T00:00:00Z</time>
      </trkpt>
      <trkpt lat="39.386104" lon="-5.314450">
        <ele>607.1</ele>
        <time>1970-01-01T00:00:00Z</time>
      </trkpt>
      <trkpt lat="39.386104" lon="-5.314450">
        <ele>607.1</ele>
        <time>1970-01-01T00:00:00Z</time>
      </trkpt>
      <trkpt lat="39.386104" lon="-5.314450">
        <ele>607.1</ele>
        <time>1970-01-01T00:00:00Z</time>
      </trkpt>
      <trkpt lat="39.386104" lon="-5.314450">
        <ele>607.1</ele>
        <time>1970-01-01T00:00:00Z</time>
      </trkpt>
      <trkpt lat="39.386333" lon="-5.313849">
        <ele>605.0</ele>
        <time>1970-01-01T00:00:00Z</time>
      </trkpt>
      <trkpt lat="39.386333" lon="-5.313849">
        <ele>605.0</ele>
        <time>1970-01-01T00:00:00Z</time>
      </trkpt>
      <trkpt lat="39.386333" lon="-5.313849">
        <ele>605.0</ele>
        <time>1970-01-01T00:00:00Z</time>
      </trkpt>
      <trkpt lat="39.386333" lon="-5.313849">
        <ele>605.0</ele>
        <time>1970-01-01T00:00:00Z</time>
      </trkpt>
      <trkpt lat="39.386472" lon="-5.313424">
        <ele>602.5</ele>
        <time>1970-01-01T00:00:00Z</time>
      </trkpt>
      <trkpt lat="39.386472" lon="-5.313424">
        <ele>602.5</ele>
        <time>1970-01-01T00:00:00Z</time>
      </trkpt>
      <trkpt lat="39.386472" lon="-5.313424">
        <ele>602.5</ele>
        <time>1970-01-01T00:00:00Z</time>
      </trkpt>
      <trkpt lat="39.386472" lon="-5.313424">
        <ele>602.5</ele>
        <time>1970-01-01T00:00:00Z</time>
      </trkpt>
      <trkpt lat="39.386578" lon="-5.313008">
        <ele>599.4</ele>
        <time>1970-01-01T00:00:00Z</time>
      </trkpt>
      <trkpt lat="39.386578" lon="-5.313008">
        <ele>599.4</ele>
        <time>1970-01-01T00:00:00Z</time>
      </trkpt>
      <trkpt lat="39.386578" lon="-5.313008">
        <ele>599.4</ele>
        <time>1970-01-01T00:00:00Z</time>
      </trkpt>
      <trkpt lat="39.386578" lon="-5.313008">
        <ele>599.4</ele>
        <time>1970-01-01T00:00:00Z</time>
      </trkpt>
      <trkpt lat="39.386618" lon="-5.312807">
        <ele>597.9</ele>
        <time>1970-01-01T00:00:00Z</time>
      </trkpt>
      <trkpt lat="39.386618" lon="-5.312807">
        <ele>597.9</ele>
        <time>1970-01-01T00:00:00Z</time>
      </trkpt>
      <trkpt lat="39.386618" lon="-5.312807">
        <ele>597.9</ele>
        <time>1970-01-01T00:00:00Z</time>
      </trkpt>
      <trkpt lat="39.386618" lon="-5.312807">
        <ele>597.9</ele>
        <time>1970-01-01T00:00:00Z</time>
      </trkpt>
      <trkpt lat="39.386633" lon="-5.312669">
        <ele>596.6</ele>
        <time>1970-01-01T00:00:00Z</time>
      </trkpt>
      <trkpt lat="39.386633" lon="-5.312669">
        <ele>596.6</ele>
        <time>1970-01-01T00:00:00Z</time>
      </trkpt>
      <trkpt lat="39.386633" lon="-5.312669">
        <ele>596.6</ele>
        <time>1970-01-01T00:00:00Z</time>
      </trkpt>
      <trkpt lat="39.386633" lon="-5.312669">
        <ele>596.6</ele>
        <time>1970-01-01T00:00:00Z</time>
      </trkpt>
      <trkpt lat="39.386603" lon="-5.312487">
        <ele>595.4</ele>
        <time>1970-01-01T00:00:00Z</time>
      </trkpt>
      <trkpt lat="39.386603" lon="-5.312487">
        <ele>595.4</ele>
        <time>1970-01-01T00:00:00Z</time>
      </trkpt>
      <trkpt lat="39.386603" lon="-5.312487">
        <ele>595.4</ele>
        <time>1970-01-01T00:00:00Z</time>
      </trkpt>
      <trkpt lat="39.386603" lon="-5.312487">
        <ele>595.4</ele>
        <time>1970-01-01T00:00:00Z</time>
      </trkpt>
      <trkpt lat="39.386566" lon="-5.312341">
        <ele>594.6</ele>
        <time>1970-01-01T00:00:00Z</time>
      </trkpt>
      <trkpt lat="39.386566" lon="-5.312341">
        <ele>594.6</ele>
        <time>1970-01-01T00:00:00Z</time>
      </trkpt>
      <trkpt lat="39.386566" lon="-5.312341">
        <ele>594.6</ele>
        <time>1970-01-01T00:00:00Z</time>
      </trkpt>
      <trkpt lat="39.386566" lon="-5.312341">
        <ele>594.6</ele>
        <time>1970-01-01T00:00:00Z</time>
      </trkpt>
      <trkpt lat="39.386417" lon="-5.312107">
        <ele>594.7</ele>
        <time>1970-01-01T00:00:00Z</time>
      </trkpt>
      <trkpt lat="39.386417" lon="-5.312107">
        <ele>594.7</ele>
        <time>1970-01-01T00:00:00Z</time>
      </trkpt>
      <trkpt lat="39.386417" lon="-5.312107">
        <ele>594.7</ele>
        <time>1970-01-01T00:00:00Z</time>
      </trkpt>
      <trkpt lat="39.386417" lon="-5.312107">
        <ele>594.7</ele>
        <time>1970-01-01T00:00:00Z</time>
      </trkpt>
      <trkpt lat="39.386259" lon="-5.311901">
        <ele>595.6</ele>
        <time>1970-01-01T00:00:00Z</time>
      </trkpt>
      <trkpt lat="39.386259" lon="-5.311901">
        <ele>595.6</ele>
        <time>1970-01-01T00:00:00Z</time>
      </trkpt>
      <trkpt lat="39.386259" lon="-5.311901">
        <ele>595.6</ele>
        <time>1970-01-01T00:00:00Z</time>
      </trkpt>
      <trkpt lat="39.386259" lon="-5.311901">
        <ele>595.6</ele>
        <time>1970-01-01T00:00:00Z</time>
      </trkpt>
      <trkpt lat="39.386032" lon="-5.311562">
        <ele>597.4</ele>
        <time>1970-01-01T00:00:00Z</time>
      </trkpt>
      <trkpt lat="39.386032" lon="-5.311562">
        <ele>597.4</ele>
        <time>1970-01-01T00:00:00Z</time>
      </trkpt>
      <trkpt lat="39.386032" lon="-5.311562">
        <ele>597.4</ele>
        <time>1970-01-01T00:00:00Z</time>
      </trkpt>
      <trkpt lat="39.386032" lon="-5.311562">
        <ele>597.4</ele>
        <time>1970-01-01T00:00:00Z</time>
      </trkpt>
      <trkpt lat="39.385912" lon="-5.311398">
        <ele>598.7</ele>
        <time>1970-01-01T00:00:00Z</time>
      </trkpt>
      <trkpt lat="39.385912" lon="-5.311398">
        <ele>598.7</ele>
        <time>1970-01-01T00:00:00Z</time>
      </trkpt>
      <trkpt lat="39.385912" lon="-5.311398">
        <ele>598.7</ele>
        <time>1970-01-01T00:00:00Z</time>
      </trkpt>
      <trkpt lat="39.385912" lon="-5.311398">
        <ele>598.7</ele>
        <time>1970-01-01T00:00:00Z</time>
      </trkpt>
      <trkpt lat="39.385831" lon="-5.311283">
        <ele>599.4</ele>
        <time>1970-01-01T00:00:00Z</time>
      </trkpt>
      <trkpt lat="39.385831" lon="-5.311283">
        <ele>599.4</ele>
        <time>1970-01-01T00:00:00Z</time>
      </trkpt>
      <trkpt lat="39.385831" lon="-5.311283">
        <ele>599.4</ele>
        <time>1970-01-01T00:00:00Z</time>
      </trkpt>
      <trkpt lat="39.385831" lon="-5.311283">
        <ele>599.4</ele>
        <time>1970-01-01T00:00:00Z</time>
      </trkpt>
      <trkpt lat="39.385726" lon="-5.311146">
        <ele>600.6</ele>
        <time>1970-01-01T00:00:00Z</time>
      </trkpt>
      <trkpt lat="39.385726" lon="-5.311146">
        <ele>600.6</ele>
        <time>1970-01-01T00:00:00Z</time>
      </trkpt>
      <trkpt lat="39.385726" lon="-5.311146">
        <ele>600.6</ele>
        <time>1970-01-01T00:00:00Z</time>
      </trkpt>
      <trkpt lat="39.385726" lon="-5.311146">
        <ele>600.6</ele>
        <time>1970-01-01T00:00:00Z</time>
      </trkpt>
      <trkpt lat="39.385526" lon="-5.310751">
        <ele>604.3</ele>
        <time>1970-01-01T00:00:00Z</time>
      </trkpt>
      <trkpt lat="39.385526" lon="-5.310751">
        <ele>604.3</ele>
        <time>1970-01-01T00:00:00Z</time>
      </trkpt>
      <trkpt lat="39.385526" lon="-5.310751">
        <ele>604.3</ele>
        <time>1970-01-01T00:00:00Z</time>
      </trkpt>
      <trkpt lat="39.385526" lon="-5.310751">
        <ele>604.3</ele>
        <time>1970-01-01T00:00:00Z</time>
      </trkpt>
      <trkpt lat="39.385455" lon="-5.310527">
        <ele>607.4</ele>
        <time>1970-01-01T00:00:00Z</time>
      </trkpt>
      <trkpt lat="39.385455" lon="-5.310527">
        <ele>607.4</ele>
        <time>1970-01-01T00:00:00Z</time>
      </trkpt>
      <trkpt lat="39.385455" lon="-5.310527">
        <ele>607.4</ele>
        <time>1970-01-01T00:00:00Z</time>
      </trkpt>
      <trkpt lat="39.385455" lon="-5.310527">
        <ele>607.4</ele>
        <time>1970-01-01T00:00:00Z</time>
      </trkpt>
      <trkpt lat="39.385433" lon="-5.310410">
        <ele>608.6</ele>
        <time>1970-01-01T00:00:00Z</time>
      </trkpt>
      <trkpt lat="39.385433" lon="-5.310410">
        <ele>608.6</ele>
        <time>1970-01-01T00:00:00Z</time>
      </trkpt>
      <trkpt lat="39.385433" lon="-5.310410">
        <ele>608.6</ele>
        <time>1970-01-01T00:00:00Z</time>
      </trkpt>
      <trkpt lat="39.385433" lon="-5.310410">
        <ele>608.6</ele>
        <time>1970-01-01T00:00:00Z</time>
      </trkpt>
      <trkpt lat="39.385446" lon="-5.310346">
        <ele>608.4</ele>
        <time>1970-01-01T00:00:00Z</time>
      </trkpt>
      <trkpt lat="39.385446" lon="-5.310346">
        <ele>608.4</ele>
        <time>1970-01-01T00:00:00Z</time>
      </trkpt>
      <trkpt lat="39.385446" lon="-5.310346">
        <ele>608.4</ele>
        <time>1970-01-01T00:00:00Z</time>
      </trkpt>
      <trkpt lat="39.385446" lon="-5.310346">
        <ele>608.4</ele>
        <time>1970-01-01T00:00:00Z</time>
      </trkpt>
      <trkpt lat="39.385478" lon="-5.310304">
        <ele>607.6</ele>
        <time>1970-01-01T00:00:00Z</time>
      </trkpt>
      <trkpt lat="39.385478" lon="-5.310304">
        <ele>607.6</ele>
        <time>1970-01-01T00:00:00Z</time>
      </trkpt>
      <trkpt lat="39.385478" lon="-5.310304">
        <ele>607.6</ele>
        <time>1970-01-01T00:00:00Z</time>
      </trkpt>
      <trkpt lat="39.385478" lon="-5.310304">
        <ele>607.6</ele>
        <time>1970-01-01T00:00:00Z</time>
      </trkpt>
      <trkpt lat="39.385546" lon="-5.310270">
        <ele>605.8</ele>
        <time>1970-01-01T00:00:00Z</time>
      </trkpt>
      <trkpt lat="39.385546" lon="-5.310270">
        <ele>605.8</ele>
        <time>1970-01-01T00:00:00Z</time>
      </trkpt>
      <trkpt lat="39.385546" lon="-5.310270">
        <ele>605.8</ele>
        <time>1970-01-01T00:00:00Z</time>
      </trkpt>
      <trkpt lat="39.385546" lon="-5.310270">
        <ele>605.8</ele>
        <time>1970-01-01T00:00:00Z</time>
      </trkpt>
      <trkpt lat="39.385793" lon="-5.310191">
        <ele>601.5</ele>
        <time>1970-01-01T00:00:00Z</time>
      </trkpt>
      <trkpt lat="39.385793" lon="-5.310191">
        <ele>601.5</ele>
        <time>1970-01-01T00:00:00Z</time>
      </trkpt>
      <trkpt lat="39.385793" lon="-5.310191">
        <ele>601.5</ele>
        <time>1970-01-01T00:00:00Z</time>
      </trkpt>
      <trkpt lat="39.385793" lon="-5.310191">
        <ele>601.5</ele>
        <time>1970-01-01T00:00:00Z</time>
      </trkpt>
      <trkpt lat="39.385943" lon="-5.310127">
        <ele>599.1</ele>
        <time>1970-01-01T00:00:00Z</time>
      </trkpt>
      <trkpt lat="39.385943" lon="-5.310127">
        <ele>599.1</ele>
        <time>1970-01-01T00:00:00Z</time>
      </trkpt>
      <trkpt lat="39.385943" lon="-5.310127">
        <ele>599.1</ele>
        <time>1970-01-01T00:00:00Z</time>
      </trkpt>
      <trkpt lat="39.385943" lon="-5.310127">
        <ele>599.1</ele>
        <time>1970-01-01T00:00:00Z</time>
      </trkpt>
      <trkpt lat="39.386112" lon="-5.310003">
        <ele>596.2</ele>
        <time>1970-01-01T00:00:00Z</time>
      </trkpt>
      <trkpt lat="39.386112" lon="-5.310003">
        <ele>596.2</ele>
        <time>1970-01-01T00:00:00Z</time>
      </trkpt>
      <trkpt lat="39.386112" lon="-5.310003">
        <ele>596.2</ele>
        <time>1970-01-01T00:00:00Z</time>
      </trkpt>
      <trkpt lat="39.386112" lon="-5.310003">
        <ele>596.2</ele>
        <time>1970-01-01T00:00:00Z</time>
      </trkpt>
      <trkpt lat="39.386224" lon="-5.309862">
        <ele>594.5</ele>
        <time>1970-01-01T00:00:00Z</time>
      </trkpt>
      <trkpt lat="39.386224" lon="-5.309862">
        <ele>594.5</ele>
        <time>1970-01-01T00:00:00Z</time>
      </trkpt>
      <trkpt lat="39.386224" lon="-5.309862">
        <ele>594.5</ele>
        <time>1970-01-01T00:00:00Z</time>
      </trkpt>
      <trkpt lat="39.386224" lon="-5.309862">
        <ele>594.5</ele>
        <time>1970-01-01T00:00:00Z</time>
      </trkpt>
      <trkpt lat="39.386340" lon="-5.309705">
        <ele>592.8</ele>
        <time>1970-01-01T00:00:00Z</time>
      </trkpt>
      <trkpt lat="39.386340" lon="-5.309705">
        <ele>592.8</ele>
        <time>1970-01-01T00:00:00Z</time>
      </trkpt>
      <trkpt lat="39.386340" lon="-5.309705">
        <ele>592.8</ele>
        <time>1970-01-01T00:00:00Z</time>
      </trkpt>
      <trkpt lat="39.386340" lon="-5.309705">
        <ele>592.8</ele>
        <time>1970-01-01T00:00:00Z</time>
      </trkpt>
      <trkpt lat="39.386464" lon="-5.309454">
        <ele>592.1</ele>
        <time>1970-01-01T00:00:00Z</time>
      </trkpt>
      <trkpt lat="39.386464" lon="-5.309454">
        <ele>592.1</ele>
        <time>1970-01-01T00:00:00Z</time>
      </trkpt>
      <trkpt lat="39.386464" lon="-5.309454">
        <ele>592.1</ele>
        <time>1970-01-01T00:00:00Z</time>
      </trkpt>
      <trkpt lat="39.386464" lon="-5.309454">
        <ele>592.1</ele>
        <time>1970-01-01T00:00:00Z</time>
      </trkpt>
      <trkpt lat="39.386540" lon="-5.309253">
        <ele>591.8</ele>
        <time>1970-01-01T00:00:00Z</time>
      </trkpt>
      <trkpt lat="39.386540" lon="-5.309253">
        <ele>591.8</ele>
        <time>1970-01-01T00:00:00Z</time>
      </trkpt>
      <trkpt lat="39.386540" lon="-5.309253">
        <ele>591.8</ele>
        <time>1970-01-01T00:00:00Z</time>
      </trkpt>
      <trkpt lat="39.386540" lon="-5.309253">
        <ele>591.8</ele>
        <time>1970-01-01T00:00:00Z</time>
      </trkpt>
      <trkpt lat="39.386582" lon="-5.309078">
        <ele>591.8</ele>
        <time>1970-01-01T00:00:00Z</time>
      </trkpt>
      <trkpt lat="39.386582" lon="-5.309078">
        <ele>591.8</ele>
        <time>1970-01-01T00:00:00Z</time>
      </trkpt>
      <trkpt lat="39.386582" lon="-5.309078">
        <ele>591.8</ele>
        <time>1970-01-01T00:00:00Z</time>
      </trkpt>
      <trkpt lat="39.386582" lon="-5.309078">
        <ele>591.8</ele>
        <time>1970-01-01T00:00:00Z</time>
      </trkpt>
      <trkpt lat="39.386607" lon="-5.308953">
        <ele>592.5</ele>
        <time>1970-01-01T00:00:00Z</time>
      </trkpt>
      <trkpt lat="39.386607" lon="-5.308953">
        <ele>592.5</ele>
        <time>1970-01-01T00:00:00Z</time>
      </trkpt>
      <trkpt lat="39.386607" lon="-5.308953">
        <ele>592.5</ele>
        <time>1970-01-01T00:00:00Z</time>
      </trkpt>
      <trkpt lat="39.386607" lon="-5.308953">
        <ele>592.5</ele>
        <time>1970-01-01T00:00:00Z</time>
      </trkpt>
      <trkpt lat="39.386616" lon="-5.308795">
        <ele>594.0</ele>
        <time>1970-01-01T00:00:00Z</time>
      </trkpt>
      <trkpt lat="39.386616" lon="-5.308795">
        <ele>594.0</ele>
        <time>1970-01-01T00:00:00Z</time>
      </trkpt>
      <trkpt lat="39.386616" lon="-5.308795">
        <ele>594.0</ele>
        <time>1970-01-01T00:00:00Z</time>
      </trkpt>
      <trkpt lat="39.386616" lon="-5.308795">
        <ele>594.0</ele>
        <time>1970-01-01T00:00:00Z</time>
      </trkpt>
      <trkpt lat="39.386593" lon="-5.308582">
        <ele>597.4</ele>
        <time>1970-01-01T00:00:00Z</time>
      </trkpt>
      <trkpt lat="39.386593" lon="-5.308582">
        <ele>597.4</ele>
        <time>1970-01-01T00:00:00Z</time>
      </trkpt>
      <trkpt lat="39.386593" lon="-5.308582">
        <ele>597.4</ele>
        <time>1970-01-01T00:00:00Z</time>
      </trkpt>
      <trkpt lat="39.386593" lon="-5.308582">
        <ele>597.4</ele>
        <time>1970-01-01T00:00:00Z</time>
      </trkpt>
      <trkpt lat="39.386564" lon="-5.308434">
        <ele>600.1</ele>
        <time>1970-01-01T00:00:00Z</time>
      </trkpt>
      <trkpt lat="39.386564" lon="-5.308434">
        <ele>600.1</ele>
        <time>1970-01-01T00:00:00Z</time>
      </trkpt>
      <trkpt lat="39.386564" lon="-5.308434">
        <ele>600.1</ele>
        <time>1970-01-01T00:00:00Z</time>
      </trkpt>
      <trkpt lat="39.386564" lon="-5.308434">
        <ele>600.1</ele>
        <time>1970-01-01T00:00:00Z</time>
      </trkpt>
      <trkpt lat="39.386567" lon="-5.308270">
        <ele>601.0</ele>
        <time>1970-01-01T00:00:00Z</time>
      </trkpt>
      <trkpt lat="39.386567" lon="-5.308270">
        <ele>601.0</ele>
        <time>1970-01-01T00:00:00Z</time>
      </trkpt>
      <trkpt lat="39.386567" lon="-5.308270">
        <ele>601.0</ele>
        <time>1970-01-01T00:00:00Z</time>
      </trkpt>
      <trkpt lat="39.386567" lon="-5.308270">
        <ele>601.0</ele>
        <time>1970-01-01T00:00:00Z</time>
      </trkpt>
      <trkpt lat="39.386620" lon="-5.308146">
        <ele>599.6</ele>
        <time>1970-01-01T00:00:00Z</time>
      </trkpt>
      <trkpt lat="39.386620" lon="-5.308146">
        <ele>599.6</ele>
        <time>1970-01-01T00:00:00Z</time>
      </trkpt>
      <trkpt lat="39.386620" lon="-5.308146">
        <ele>599.6</ele>
        <time>1970-01-01T00:00:00Z</time>
      </trkpt>
      <trkpt lat="39.386620" lon="-5.308146">
        <ele>599.6</ele>
        <time>1970-01-01T00:00:00Z</time>
      </trkpt>
      <trkpt lat="39.386750" lon="-5.307948">
        <ele>596.1</ele>
        <time>1970-01-01T00:00:00Z</time>
      </trkpt>
      <trkpt lat="39.386750" lon="-5.307948">
        <ele>596.1</ele>
        <time>1970-01-01T00:00:00Z</time>
      </trkpt>
      <trkpt lat="39.386750" lon="-5.307948">
        <ele>596.1</ele>
        <time>1970-01-01T00:00:00Z</time>
      </trkpt>
      <trkpt lat="39.386750" lon="-5.307948">
        <ele>596.1</ele>
        <time>1970-01-01T00:00:00Z</time>
      </trkpt>
      <trkpt lat="39.386843" lon="-5.307819">
        <ele>593.7</ele>
        <time>1970-01-01T00:00:00Z</time>
      </trkpt>
      <trkpt lat="39.386843" lon="-5.307819">
        <ele>593.7</ele>
        <time>1970-01-01T00:00:00Z</time>
      </trkpt>
      <trkpt lat="39.386843" lon="-5.307819">
        <ele>593.7</ele>
        <time>1970-01-01T00:00:00Z</time>
      </trkpt>
      <trkpt lat="39.386843" lon="-5.307819">
        <ele>593.7</ele>
        <time>1970-01-01T00:00:00Z</time>
      </trkpt>
      <trkpt lat="39.386894" lon="-5.307719">
        <ele>592.3</ele>
        <time>1970-01-01T00:00:00Z</time>
      </trkpt>
      <trkpt lat="39.386894" lon="-5.307719">
        <ele>592.3</ele>
        <time>1970-01-01T00:00:00Z</time>
      </trkpt>
      <trkpt lat="39.386894" lon="-5.307719">
        <ele>592.3</ele>
        <time>1970-01-01T00:00:00Z</time>
      </trkpt>
      <trkpt lat="39.386894" lon="-5.307719">
        <ele>592.3</ele>
        <time>1970-01-01T00:00:00Z</time>
      </trkpt>
      <trkpt lat="39.386935" lon="-5.307595">
        <ele>592.4</ele>
        <time>1970-01-01T00:00:00Z</time>
      </trkpt>
      <trkpt lat="39.386935" lon="-5.307595">
        <ele>592.4</ele>
        <time>1970-01-01T00:00:00Z</time>
      </trkpt>
      <trkpt lat="39.386935" lon="-5.307595">
        <ele>592.4</ele>
        <time>1970-01-01T00:00:00Z</time>
      </trkpt>
      <trkpt lat="39.386935" lon="-5.307595">
        <ele>592.4</ele>
        <time>1970-01-01T00:00:00Z</time>
      </trkpt>
      <trkpt lat="39.386971" lon="-5.307368">
        <ele>594.9</ele>
        <time>1970-01-01T00:00:00Z</time>
      </trkpt>
      <trkpt lat="39.386971" lon="-5.307368">
        <ele>594.9</ele>
        <time>1970-01-01T00:00:00Z</time>
      </trkpt>
      <trkpt lat="39.386971" lon="-5.307368">
        <ele>594.9</ele>
        <time>1970-01-01T00:00:00Z</time>
      </trkpt>
      <trkpt lat="39.386971" lon="-5.307368">
        <ele>594.9</ele>
        <time>1970-01-01T00:00:00Z</time>
      </trkpt>
      <trkpt lat="39.386992" lon="-5.307286">
        <ele>595.6</ele>
        <time>1970-01-01T00:00:00Z</time>
      </trkpt>
      <trkpt lat="39.386992" lon="-5.307286">
        <ele>595.6</ele>
        <time>1970-01-01T00:00:00Z</time>
      </trkpt>
      <trkpt lat="39.386992" lon="-5.307286">
        <ele>595.6</ele>
        <time>1970-01-01T00:00:00Z</time>
      </trkpt>
      <trkpt lat="39.386992" lon="-5.307286">
        <ele>595.6</ele>
        <time>1970-01-01T00:00:00Z</time>
      </trkpt>
      <trkpt lat="39.387041" lon="-5.307223">
        <ele>595.0</ele>
        <time>1970-01-01T00:00:00Z</time>
      </trkpt>
      <trkpt lat="39.387041" lon="-5.307223">
        <ele>595.0</ele>
        <time>1970-01-01T00:00:00Z</time>
      </trkpt>
      <trkpt lat="39.387041" lon="-5.307223">
        <ele>595.0</ele>
        <time>1970-01-01T00:00:00Z</time>
      </trkpt>
      <trkpt lat="39.387041" lon="-5.307223">
        <ele>595.0</ele>
        <time>1970-01-01T00:00:00Z</time>
      </trkpt>
      <trkpt lat="39.387140" lon="-5.307143">
        <ele>593.0</ele>
        <time>1970-01-01T00:00:00Z</time>
      </trkpt>
      <trkpt lat="39.387140" lon="-5.307143">
        <ele>593.0</ele>
        <time>1970-01-01T00:00:00Z</time>
      </trkpt>
      <trkpt lat="39.387140" lon="-5.307143">
        <ele>593.0</ele>
        <time>1970-01-01T00:00:00Z</time>
      </trkpt>
      <trkpt lat="39.387140" lon="-5.307143">
        <ele>593.0</ele>
        <time>1970-01-01T00:00:00Z</time>
      </trkpt>
      <trkpt lat="39.387298" lon="-5.306987">
        <ele>590.7</ele>
        <time>1970-01-01T00:00:00Z</time>
      </trkpt>
      <trkpt lat="39.387298" lon="-5.306987">
        <ele>590.7</ele>
        <time>1970-01-01T00:00:00Z</time>
      </trkpt>
      <trkpt lat="39.387298" lon="-5.306987">
        <ele>590.7</ele>
        <time>1970-01-01T00:00:00Z</time>
      </trkpt>
      <trkpt lat="39.387298" lon="-5.306987">
        <ele>590.7</ele>
        <time>1970-01-01T00:00:00Z</time>
      </trkpt>
      <trkpt lat="39.387441" lon="-5.306794">
        <ele>588.4</ele>
        <time>1970-01-01T00:00:00Z</time>
      </trkpt>
      <trkpt lat="39.387441" lon="-5.306794">
        <ele>588.4</ele>
        <time>1970-01-01T00:00:00Z</time>
      </trkpt>
      <trkpt lat="39.387441" lon="-5.306794">
        <ele>588.4</ele>
        <time>1970-01-01T00:00:00Z</time>
      </trkpt>
      <trkpt lat="39.387441" lon="-5.306794">
        <ele>588.4</ele>
        <time>1970-01-01T00:00:00Z</time>
      </trkpt>
      <trkpt lat="39.387506" lon="-5.306693">
        <ele>586.5</ele>
        <time>1970-01-01T00:00:00Z</time>
      </trkpt>
      <trkpt lat="39.387506" lon="-5.306693">
        <ele>586.5</ele>
        <time>1970-01-01T00:00:00Z</time>
      </trkpt>
      <trkpt lat="39.387506" lon="-5.306693">
        <ele>586.5</ele>
        <time>1970-01-01T00:00:00Z</time>
      </trkpt>
      <trkpt lat="39.387506" lon="-5.306693">
        <ele>586.5</ele>
        <time>1970-01-01T00:00:00Z</time>
      </trkpt>
      <trkpt lat="39.387527" lon="-5.306620">
        <ele>585.8</ele>
        <time>1970-01-01T00:00:00Z</time>
      </trkpt>
      <trkpt lat="39.387527" lon="-5.306620">
        <ele>585.8</ele>
        <time>1970-01-01T00:00:00Z</time>
      </trkpt>
      <trkpt lat="39.387527" lon="-5.306620">
        <ele>585.8</ele>
        <time>1970-01-01T00:00:00Z</time>
      </trkpt>
      <trkpt lat="39.387527" lon="-5.306620">
        <ele>585.8</ele>
        <time>1970-01-01T00:00:00Z</time>
      </trkpt>
      <trkpt lat="39.387498" lon="-5.306512">
        <ele>586.6</ele>
        <time>1970-01-01T00:00:00Z</time>
      </trkpt>
      <trkpt lat="39.387498" lon="-5.306512">
        <ele>586.6</ele>
        <time>1970-01-01T00:00:00Z</time>
      </trkpt>
      <trkpt lat="39.387498" lon="-5.306512">
        <ele>586.6</ele>
        <time>1970-01-01T00:00:00Z</time>
      </trkpt>
      <trkpt lat="39.387498" lon="-5.306512">
        <ele>586.6</ele>
        <time>1970-01-01T00:00:00Z</time>
      </trkpt>
      <trkpt lat="39.387464" lon="-5.306437">
        <ele>587.6</ele>
        <time>1970-01-01T00:00:00Z</time>
      </trkpt>
      <trkpt lat="39.387464" lon="-5.306437">
        <ele>587.6</ele>
        <time>1970-01-01T00:00:00Z</time>
      </trkpt>
      <trkpt lat="39.387464" lon="-5.306437">
        <ele>587.6</ele>
        <time>1970-01-01T00:00:00Z</time>
      </trkpt>
      <trkpt lat="39.387464" lon="-5.306437">
        <ele>587.6</ele>
        <time>1970-01-01T00:00:00Z</time>
      </trkpt>
      <trkpt lat="39.387423" lon="-5.306325">
        <ele>588.8</ele>
        <time>1970-01-01T00:00:00Z</time>
      </trkpt>
      <trkpt lat="39.387423" lon="-5.306325">
        <ele>588.8</ele>
        <time>1970-01-01T00:00:00Z</time>
      </trkpt>
      <trkpt lat="39.387423" lon="-5.306325">
        <ele>588.8</ele>
        <time>1970-01-01T00:00:00Z</time>
      </trkpt>
      <trkpt lat="39.387423" lon="-5.306325">
        <ele>588.8</ele>
        <time>1970-01-01T00:00:00Z</time>
      </trkpt>
      <trkpt lat="39.387416" lon="-5.306214">
        <ele>588.1</ele>
        <time>1970-01-01T00:00:00Z</time>
      </trkpt>
      <trkpt lat="39.387416" lon="-5.306214">
        <ele>588.1</ele>
        <time>1970-01-01T00:00:00Z</time>
      </trkpt>
      <trkpt lat="39.387416" lon="-5.306214">
        <ele>588.1</ele>
        <time>1970-01-01T00:00:00Z</time>
      </trkpt>
      <trkpt lat="39.387416" lon="-5.306214">
        <ele>588.1</ele>
        <time>1970-01-01T00:00:00Z</time>
      </trkpt>
      <trkpt lat="39.387444" lon="-5.305994">
        <ele>585.8</ele>
        <time>1970-01-01T00:00:00Z</time>
      </trkpt>
      <trkpt lat="39.387444" lon="-5.305994">
        <ele>585.8</ele>
        <time>1970-01-01T00:00:00Z</time>
      </trkpt>
      <trkpt lat="39.387444" lon="-5.305994">
        <ele>585.8</ele>
        <time>1970-01-01T00:00:00Z</time>
      </trkpt>
      <trkpt lat="39.387444" lon="-5.305994">
        <ele>585.8</ele>
        <time>1970-01-01T00:00:00Z</time>
      </trkpt>
      <trkpt lat="39.387462" lon="-5.305832">
        <ele>584.3</ele>
        <time>1970-01-01T00:00:00Z</time>
      </trkpt>
      <trkpt lat="39.387462" lon="-5.305832">
        <ele>584.3</ele>
        <time>1970-01-01T00:00:00Z</time>
      </trkpt>
      <trkpt lat="39.387462" lon="-5.305832">
        <ele>584.3</ele>
        <time>1970-01-01T00:00:00Z</time>
      </trkpt>
      <trkpt lat="39.387462" lon="-5.305832">
        <ele>584.3</ele>
        <time>1970-01-01T00:00:00Z</time>
      </trkpt>
      <trkpt lat="39.387453" lon="-5.305671">
        <ele>584.0</ele>
        <time>1970-01-01T00:00:00Z</time>
      </trkpt>
      <trkpt lat="39.387453" lon="-5.305671">
        <ele>584.0</ele>
        <time>1970-01-01T00:00:00Z</time>
      </trkpt>
      <trkpt lat="39.387453" lon="-5.305671">
        <ele>584.0</ele>
        <time>1970-01-01T00:00:00Z</time>
      </trkpt>
      <trkpt lat="39.387453" lon="-5.305671">
        <ele>584.0</ele>
        <time>1970-01-01T00:00:00Z</time>
      </trkpt>
      <trkpt lat="39.387423" lon="-5.305492">
        <ele>583.7</ele>
        <time>1970-01-01T00:00:00Z</time>
      </trkpt>
      <trkpt lat="39.387423" lon="-5.305492">
        <ele>583.7</ele>
        <time>1970-01-01T00:00:00Z</time>
      </trkpt>
      <trkpt lat="39.387423" lon="-5.305492">
        <ele>583.7</ele>
        <time>1970-01-01T00:00:00Z</time>
      </trkpt>
      <trkpt lat="39.387423" lon="-5.305492">
        <ele>583.7</ele>
        <time>1970-01-01T00:00:00Z</time>
      </trkpt>
      <trkpt lat="39.387381" lon="-5.305300">
        <ele>583.8</ele>
        <time>1970-01-01T00:00:00Z</time>
      </trkpt>
      <trkpt lat="39.387381" lon="-5.305300">
        <ele>583.8</ele>
        <time>1970-01-01T00:00:00Z</time>
      </trkpt>
      <trkpt lat="39.387381" lon="-5.305300">
        <ele>583.8</ele>
        <time>1970-01-01T00:00:00Z</time>
      </trkpt>
      <trkpt lat="39.387381" lon="-5.305300">
        <ele>583.8</ele>
        <time>1970-01-01T00:00:00Z</time>
      </trkpt>
      <trkpt lat="39.387216" lon="-5.304886">
        <ele>585.9</ele>
        <time>1970-01-01T00:00:00Z</time>
      </trkpt>
      <trkpt lat="39.387216" lon="-5.304886">
        <ele>585.9</ele>
        <time>1970-01-01T00:00:00Z</time>
      </trkpt>
      <trkpt lat="39.387216" lon="-5.304886">
        <ele>585.9</ele>
        <time>1970-01-01T00:00:00Z</time>
      </trkpt>
      <trkpt lat="39.387216" lon="-5.304886">
        <ele>585.9</ele>
        <time>1970-01-01T00:00:00Z</time>
      </trkpt>
      <trkpt lat="39.387168" lon="-5.304762">
        <ele>586.8</ele>
        <time>1970-01-01T00:00:00Z</time>
      </trkpt>
      <trkpt lat="39.387168" lon="-5.304762">
        <ele>586.8</ele>
        <time>1970-01-01T00:00:00Z</time>
      </trkpt>
      <trkpt lat="39.387168" lon="-5.304762">
        <ele>586.8</ele>
        <time>1970-01-01T00:00:00Z</time>
      </trkpt>
      <trkpt lat="39.387168" lon="-5.304762">
        <ele>586.8</ele>
        <time>1970-01-01T00:00:00Z</time>
      </trkpt>
      <trkpt lat="39.387156" lon="-5.304629">
        <ele>587.4</ele>
        <time>1970-01-01T00:00:00Z</time>
      </trkpt>
      <trkpt lat="39.387156" lon="-5.304629">
        <ele>587.4</ele>
        <time>1970-01-01T00:00:00Z</time>
      </trkpt>
      <trkpt lat="39.387156" lon="-5.304629">
        <ele>587.4</ele>
        <time>1970-01-01T00:00:00Z</time>
      </trkpt>
      <trkpt lat="39.387156" lon="-5.304629">
        <ele>587.4</ele>
        <time>1970-01-01T00:00:00Z</time>
      </trkpt>
      <trkpt lat="39.387203" lon="-5.304548">
        <ele>586.7</ele>
        <time>1970-01-01T00:00:00Z</time>
      </trkpt>
      <trkpt lat="39.387203" lon="-5.304548">
        <ele>586.7</ele>
        <time>1970-01-01T00:00:00Z</time>
      </trkpt>
      <trkpt lat="39.387203" lon="-5.304548">
        <ele>586.7</ele>
        <time>1970-01-01T00:00:00Z</time>
      </trkpt>
      <trkpt lat="39.387203" lon="-5.304548">
        <ele>586.7</ele>
        <time>1970-01-01T00:00:00Z</time>
      </trkpt>
      <trkpt lat="39.387323" lon="-5.304515">
        <ele>584.3</ele>
        <time>1970-01-01T00:00:00Z</time>
      </trkpt>
      <trkpt lat="39.387323" lon="-5.304515">
        <ele>584.3</ele>
        <time>1970-01-01T00:00:00Z</time>
      </trkpt>
      <trkpt lat="39.387323" lon="-5.304515">
        <ele>584.3</ele>
        <time>1970-01-01T00:00:00Z</time>
      </trkpt>
      <trkpt lat="39.387323" lon="-5.304515">
        <ele>584.3</ele>
        <time>1970-01-01T00:00:00Z</time>
      </trkpt>
      <trkpt lat="39.387562" lon="-5.304464">
        <ele>580.3</ele>
        <time>1970-01-01T00:00:00Z</time>
      </trkpt>
      <trkpt lat="39.387562" lon="-5.304464">
        <ele>580.3</ele>
        <time>1970-01-01T00:00:00Z</time>
      </trkpt>
      <trkpt lat="39.387562" lon="-5.304464">
        <ele>580.3</ele>
        <time>1970-01-01T00:00:00Z</time>
      </trkpt>
      <trkpt lat="39.387562" lon="-5.304464">
        <ele>580.3</ele>
        <time>1970-01-01T00:00:00Z</time>
      </trkpt>
      <trkpt lat="39.387718" lon="-5.304369">
        <ele>579.5</ele>
        <time>1970-01-01T00:00:00Z</time>
      </trkpt>
      <trkpt lat="39.387718" lon="-5.304369">
        <ele>579.5</ele>
        <time>1970-01-01T00:00:00Z</time>
      </trkpt>
      <trkpt lat="39.387718" lon="-5.304369">
        <ele>579.5</ele>
        <time>1970-01-01T00:00:00Z</time>
      </trkpt>
      <trkpt lat="39.387718" lon="-5.304369">
        <ele>579.5</ele>
        <time>1970-01-01T00:00:00Z</time>
      </trkpt>
      <trkpt lat="39.387850" lon="-5.304285">
        <ele>579.3</ele>
        <time>1970-01-01T00:00:00Z</time>
      </trkpt>
      <trkpt lat="39.387850" lon="-5.304285">
        <ele>579.3</ele>
        <time>1970-01-01T00:00:00Z</time>
      </trkpt>
      <trkpt lat="39.387850" lon="-5.304285">
        <ele>579.3</ele>
        <time>1970-01-01T00:00:00Z</time>
      </trkpt>
      <trkpt lat="39.387850" lon="-5.304285">
        <ele>579.3</ele>
        <time>1970-01-01T00:00:00Z</time>
      </trkpt>
      <trkpt lat="39.388014" lon="-5.304141">
        <ele>578.9</ele>
        <time>1970-01-01T00:00:00Z</time>
      </trkpt>
      <trkpt lat="39.388014" lon="-5.304141">
        <ele>578.9</ele>
        <time>1970-01-01T00:00:00Z</time>
      </trkpt>
      <trkpt lat="39.388014" lon="-5.304141">
        <ele>578.9</ele>
        <time>1970-01-01T00:00:00Z</time>
      </trkpt>
      <trkpt lat="39.388014" lon="-5.304141">
        <ele>578.9</ele>
        <time>1970-01-01T00:00:00Z</time>
      </trkpt>
      <trkpt lat="39.388141" lon="-5.304065">
        <ele>577.7</ele>
        <time>1970-01-01T00:00:00Z</time>
      </trkpt>
      <trkpt lat="39.388141" lon="-5.304065">
        <ele>577.7</ele>
        <time>1970-01-01T00:00:00Z</time>
      </trkpt>
      <trkpt lat="39.388141" lon="-5.304065">
        <ele>577.7</ele>
        <time>1970-01-01T00:00:00Z</time>
      </trkpt>
      <trkpt lat="39.388141" lon="-5.304065">
        <ele>577.7</ele>
        <time>1970-01-01T00:00:00Z</time>
      </trkpt>
      <trkpt lat="39.388315" lon="-5.303988">
        <ele>575.5</ele>
        <time>1970-01-01T00:00:00Z</time>
      </trkpt>
      <trkpt lat="39.388315" lon="-5.303988">
        <ele>575.5</ele>
        <time>1970-01-01T00:00:00Z</time>
      </trkpt>
      <trkpt lat="39.388315" lon="-5.303988">
        <ele>575.5</ele>
        <time>1970-01-01T00:00:00Z</time>
      </trkpt>
      <trkpt lat="39.388315" lon="-5.303988">
        <ele>575.5</ele>
        <time>1970-01-01T00:00:00Z</time>
      </trkpt>
      <trkpt lat="39.388584" lon="-5.303837">
        <ele>571.4</ele>
        <time>1970-01-01T00:00:00Z</time>
      </trkpt>
      <trkpt lat="39.388584" lon="-5.303837">
        <ele>571.4</ele>
        <time>1970-01-01T00:00:00Z</time>
      </trkpt>
      <trkpt lat="39.388584" lon="-5.303837">
        <ele>571.4</ele>
        <time>1970-01-01T00:00:00Z</time>
      </trkpt>
      <trkpt lat="39.388584" lon="-5.303837">
        <ele>571.4</ele>
        <time>1970-01-01T00:00:00Z</time>
      </trkpt>
      <trkpt lat="39.388751" lon="-5.303668">
        <ele>569.3</ele>
        <time>1970-01-01T00:00:00Z</time>
      </trkpt>
      <trkpt lat="39.388751" lon="-5.303668">
        <ele>569.3</ele>
        <time>1970-01-01T00:00:00Z</time>
      </trkpt>
      <trkpt lat="39.388751" lon="-5.303668">
        <ele>569.3</ele>
        <time>1970-01-01T00:00:00Z</time>
      </trkpt>
      <trkpt lat="39.388751" lon="-5.303668">
        <ele>569.3</ele>
        <time>1970-01-01T00:00:00Z</time>
      </trkpt>
      <trkpt lat="39.388847" lon="-5.303499">
        <ele>568.9</ele>
        <time>1970-01-01T00:00:00Z</time>
      </trkpt>
      <trkpt lat="39.388847" lon="-5.303499">
        <ele>568.9</ele>
        <time>1970-01-01T00:00:00Z</time>
      </trkpt>
      <trkpt lat="39.388847" lon="-5.303499">
        <ele>568.9</ele>
        <time>1970-01-01T00:00:00Z</time>
      </trkpt>
      <trkpt lat="39.388847" lon="-5.303499">
        <ele>568.9</ele>
        <time>1970-01-01T00:00:00Z</time>
      </trkpt>
      <trkpt lat="39.388885" lon="-5.303359">
        <ele>569.4</ele>
        <time>1970-01-01T00:00:00Z</time>
      </trkpt>
      <trkpt lat="39.388885" lon="-5.303359">
        <ele>569.4</ele>
        <time>1970-01-01T00:00:00Z</time>
      </trkpt>
      <trkpt lat="39.388885" lon="-5.303359">
        <ele>569.4</ele>
        <time>1970-01-01T00:00:00Z</time>
      </trkpt>
      <trkpt lat="39.388885" lon="-5.303359">
        <ele>569.4</ele>
        <time>1970-01-01T00:00:00Z</time>
      </trkpt>
      <trkpt lat="39.388905" lon="-5.303236">
        <ele>570.3</ele>
        <time>1970-01-01T00:00:00Z</time>
      </trkpt>
      <trkpt lat="39.388905" lon="-5.303236">
        <ele>570.3</ele>
        <time>1970-01-01T00:00:00Z</time>
      </trkpt>
      <trkpt lat="39.388905" lon="-5.303236">
        <ele>570.3</ele>
        <time>1970-01-01T00:00:00Z</time>
      </trkpt>
      <trkpt lat="39.388905" lon="-5.303236">
        <ele>570.3</ele>
        <time>1970-01-01T00:00:00Z</time>
      </trkpt>
      <trkpt lat="39.388930" lon="-5.303133">
        <ele>570.9</ele>
        <time>1970-01-01T00:00:00Z</time>
      </trkpt>
      <trkpt lat="39.388930" lon="-5.303133">
        <ele>570.9</ele>
        <time>1970-01-01T00:00:00Z</time>
      </trkpt>
      <trkpt lat="39.388930" lon="-5.303133">
        <ele>570.9</ele>
        <time>1970-01-01T00:00:00Z</time>
      </trkpt>
      <trkpt lat="39.388930" lon="-5.303133">
        <ele>570.9</ele>
        <time>1970-01-01T00:00:00Z</time>
      </trkpt>
      <trkpt lat="39.388979" lon="-5.303078">
        <ele>570.1</ele>
        <time>1970-01-01T00:00:00Z</time>
      </trkpt>
      <trkpt lat="39.388979" lon="-5.303078">
        <ele>570.1</ele>
        <time>1970-01-01T00:00:00Z</time>
      </trkpt>
      <trkpt lat="39.388979" lon="-5.303078">
        <ele>570.1</ele>
        <time>1970-01-01T00:00:00Z</time>
      </trkpt>
      <trkpt lat="39.388979" lon="-5.303078">
        <ele>570.1</ele>
        <time>1970-01-01T00:00:00Z</time>
      </trkpt>
      <trkpt lat="39.389191" lon="-5.302987">
        <ele>564.4</ele>
        <time>1970-01-01T00:00:00Z</time>
      </trkpt>
      <trkpt lat="39.389191" lon="-5.302987">
        <ele>564.4</ele>
        <time>1970-01-01T00:00:00Z</time>
      </trkpt>
      <trkpt lat="39.389191" lon="-5.302987">
        <ele>564.4</ele>
        <time>1970-01-01T00:00:00Z</time>
      </trkpt>
      <trkpt lat="39.389191" lon="-5.302987">
        <ele>564.4</ele>
        <time>1970-01-01T00:00:00Z</time>
      </trkpt>
      <trkpt lat="39.389314" lon="-5.302896">
        <ele>561.5</ele>
        <time>1970-01-01T00:00:00Z</time>
      </trkpt>
      <trkpt lat="39.389314" lon="-5.302896">
        <ele>561.5</ele>
        <time>1970-01-01T00:00:00Z</time>
      </trkpt>
      <trkpt lat="39.389314" lon="-5.302896">
        <ele>561.5</ele>
        <time>1970-01-01T00:00:00Z</time>
      </trkpt>
      <trkpt lat="39.389314" lon="-5.302896">
        <ele>561.5</ele>
        <time>1970-01-01T00:00:00Z</time>
      </trkpt>
      <trkpt lat="39.389391" lon="-5.302792">
        <ele>560.3</ele>
        <time>1970-01-01T00:00:00Z</time>
      </trkpt>
      <trkpt lat="39.389391" lon="-5.302792">
        <ele>560.3</ele>
        <time>1970-01-01T00:00:00Z</time>
      </trkpt>
      <trkpt lat="39.389391" lon="-5.302792">
        <ele>560.3</ele>
        <time>1970-01-01T00:00:00Z</time>
      </trkpt>
      <trkpt lat="39.389391" lon="-5.302792">
        <ele>560.3</ele>
        <time>1970-01-01T00:00:00Z</time>
      </trkpt>
      <trkpt lat="39.389451" lon="-5.302670">
        <ele>560.1</ele>
        <time>1970-01-01T00:00:00Z</time>
      </trkpt>
      <trkpt lat="39.389451" lon="-5.302670">
        <ele>560.1</ele>
        <time>1970-01-01T00:00:00Z</time>
      </trkpt>
      <trkpt lat="39.389451" lon="-5.302670">
        <ele>560.1</ele>
        <time>1970-01-01T00:00:00Z</time>
      </trkpt>
      <trkpt lat="39.389451" lon="-5.302670">
        <ele>560.1</ele>
        <time>1970-01-01T00:00:00Z</time>
      </trkpt>
      <trkpt lat="39.389533" lon="-5.302442">
        <ele>559.7</ele>
        <time>1970-01-01T00:00:00Z</time>
      </trkpt>
      <trkpt lat="39.389533" lon="-5.302442">
        <ele>559.7</ele>
        <time>1970-01-01T00:00:00Z</time>
      </trkpt>
      <trkpt lat="39.389533" lon="-5.302442">
        <ele>559.7</ele>
        <time>1970-01-01T00:00:00Z</time>
      </trkpt>
      <trkpt lat="39.389533" lon="-5.302442">
        <ele>559.7</ele>
        <time>1970-01-01T00:00:00Z</time>
      </trkpt>
      <trkpt lat="39.389635" lon="-5.302197">
        <ele>558.8</ele>
        <time>1970-01-01T00:00:00Z</time>
      </trkpt>
      <trkpt lat="39.389635" lon="-5.302197">
        <ele>558.8</ele>
        <time>1970-01-01T00:00:00Z</time>
      </trkpt>
      <trkpt lat="39.389635" lon="-5.302197">
        <ele>558.8</ele>
        <time>1970-01-01T00:00:00Z</time>
      </trkpt>
      <trkpt lat="39.389635" lon="-5.302197">
        <ele>558.8</ele>
        <time>1970-01-01T00:00:00Z</time>
      </trkpt>
      <trkpt lat="39.389760" lon="-5.302010">
        <ele>557.6</ele>
        <time>1970-01-01T00:00:00Z</time>
      </trkpt>
      <trkpt lat="39.389760" lon="-5.302010">
        <ele>557.6</ele>
        <time>1970-01-01T00:00:00Z</time>
      </trkpt>
      <trkpt lat="39.389760" lon="-5.302010">
        <ele>557.6</ele>
        <time>1970-01-01T00:00:00Z</time>
      </trkpt>
      <trkpt lat="39.389760" lon="-5.302010">
        <ele>557.6</ele>
        <time>1970-01-01T00:00:00Z</time>
      </trkpt>
      <trkpt lat="39.389972" lon="-5.301784">
        <ele>556.9</ele>
        <time>1970-01-01T00:00:00Z</time>
      </trkpt>
      <trkpt lat="39.389972" lon="-5.301784">
        <ele>556.9</ele>
        <time>1970-01-01T00:00:00Z</time>
      </trkpt>
      <trkpt lat="39.389972" lon="-5.301784">
        <ele>556.9</ele>
        <time>1970-01-01T00:00:00Z</time>
      </trkpt>
      <trkpt lat="39.389972" lon="-5.301784">
        <ele>556.9</ele>
        <time>1970-01-01T00:00:00Z</time>
      </trkpt>
      <trkpt lat="39.390118" lon="-5.301618">
        <ele>557.3</ele>
        <time>1970-01-01T00:00:00Z</time>
      </trkpt>
      <trkpt lat="39.390118" lon="-5.301618">
        <ele>557.3</ele>
        <time>1970-01-01T00:00:00Z</time>
      </trkpt>
      <trkpt lat="39.390118" lon="-5.301618">
        <ele>557.3</ele>
        <time>1970-01-01T00:00:00Z</time>
      </trkpt>
      <trkpt lat="39.390118" lon="-5.301618">
        <ele>557.3</ele>
        <time>1970-01-01T00:00:00Z</time>
      </trkpt>
      <trkpt lat="39.390142" lon="-5.301536">
        <ele>557.6</ele>
        <time>1970-01-01T00:00:00Z</time>
      </trkpt>
      <trkpt lat="39.390142" lon="-5.301536">
        <ele>557.6</ele>
        <time>1970-01-01T00:00:00Z</time>
      </trkpt>
      <trkpt lat="39.390142" lon="-5.301536">
        <ele>557.6</ele>
        <time>1970-01-01T00:00:00Z</time>
      </trkpt>
      <trkpt lat="39.390142" lon="-5.301536">
        <ele>557.6</ele>
        <time>1970-01-01T00:00:00Z</time>
      </trkpt>
      <trkpt lat="39.390130" lon="-5.301419">
        <ele>557.6</ele>
        <time>1970-01-01T00:00:00Z</time>
      </trkpt>
      <trkpt lat="39.390130" lon="-5.301419">
        <ele>557.6</ele>
        <time>1970-01-01T00:00:00Z</time>
      </trkpt>
      <trkpt lat="39.390130" lon="-5.301419">
        <ele>557.6</ele>
        <time>1970-01-01T00:00:00Z</time>
      </trkpt>
      <trkpt lat="39.390130" lon="-5.301419">
        <ele>557.6</ele>
        <time>1970-01-01T00:00:00Z</time>
      </trkpt>
      <trkpt lat="39.390092" lon="-5.301362">
        <ele>557.0</ele>
        <time>1970-01-01T00:00:00Z</time>
      </trkpt>
      <trkpt lat="39.390092" lon="-5.301362">
        <ele>557.0</ele>
        <time>1970-01-01T00:00:00Z</time>
      </trkpt>
      <trkpt lat="39.390092" lon="-5.301362">
        <ele>557.0</ele>
        <time>1970-01-01T00:00:00Z</time>
      </trkpt>
      <trkpt lat="39.390092" lon="-5.301362">
        <ele>557.0</ele>
        <time>1970-01-01T00:00:00Z</time>
      </trkpt>
      <trkpt lat="39.389993" lon="-5.301253">
        <ele>555.6</ele>
        <time>1970-01-01T00:00:00Z</time>
      </trkpt>
      <trkpt lat="39.389993" lon="-5.301253">
        <ele>555.6</ele>
        <time>1970-01-01T00:00:00Z</time>
      </trkpt>
      <trkpt lat="39.389993" lon="-5.301253">
        <ele>555.6</ele>
        <time>1970-01-01T00:00:00Z</time>
      </trkpt>
      <trkpt lat="39.389993" lon="-5.301253">
        <ele>555.6</ele>
        <time>1970-01-01T00:00:00Z</time>
      </trkpt>
      <trkpt lat="39.389930" lon="-5.301160">
        <ele>554.3</ele>
        <time>1970-01-01T00:00:00Z</time>
      </trkpt>
      <trkpt lat="39.389930" lon="-5.301160">
        <ele>554.3</ele>
        <time>1970-01-01T00:00:00Z</time>
      </trkpt>
      <trkpt lat="39.389930" lon="-5.301160">
        <ele>554.3</ele>
        <time>1970-01-01T00:00:00Z</time>
      </trkpt>
      <trkpt lat="39.389930" lon="-5.301160">
        <ele>554.3</ele>
        <time>1970-01-01T00:00:00Z</time>
      </trkpt>
      <trkpt lat="39.389862" lon="-5.301043">
        <ele>552.7</ele>
        <time>1970-01-01T00:00:00Z</time>
      </trkpt>
      <trkpt lat="39.389862" lon="-5.301043">
        <ele>552.7</ele>
        <time>1970-01-01T00:00:00Z</time>
      </trkpt>
      <trkpt lat="39.389862" lon="-5.301043">
        <ele>552.7</ele>
        <time>1970-01-01T00:00:00Z</time>
      </trkpt>
      <trkpt lat="39.389862" lon="-5.301043">
        <ele>552.7</ele>
        <time>1970-01-01T00:00:00Z</time>
      </trkpt>
      <trkpt lat="39.389784" lon="-5.300931">
        <ele>550.8</ele>
        <time>1970-01-01T00:00:00Z</time>
      </trkpt>
      <trkpt lat="39.389784" lon="-5.300931">
        <ele>550.8</ele>
        <time>1970-01-01T00:00:00Z</time>
      </trkpt>
      <trkpt lat="39.389784" lon="-5.300931">
        <ele>550.8</ele>
        <time>1970-01-01T00:00:00Z</time>
      </trkpt>
      <trkpt lat="39.389784" lon="-5.300931">
        <ele>550.8</ele>
        <time>1970-01-01T00:00:00Z</time>
      </trkpt>
      <trkpt lat="39.389725" lon="-5.300886">
        <ele>549.6</ele>
        <time>1970-01-01T00:00:00Z</time>
      </trkpt>
      <trkpt lat="39.389725" lon="-5.300886">
        <ele>549.6</ele>
        <time>1970-01-01T00:00:00Z</time>
      </trkpt>
      <trkpt lat="39.389725" lon="-5.300886">
        <ele>549.6</ele>
        <time>1970-01-01T00:00:00Z</time>
      </trkpt>
      <trkpt lat="39.389725" lon="-5.300886">
        <ele>549.6</ele>
        <time>1970-01-01T00:00:00Z</time>
      </trkpt>
      <trkpt lat="39.389669" lon="-5.300863">
        <ele>549.0</ele>
        <time>1970-01-01T00:00:00Z</time>
      </trkpt>
      <trkpt lat="39.389669" lon="-5.300863">
        <ele>549.0</ele>
        <time>1970-01-01T00:00:00Z</time>
      </trkpt>
      <trkpt lat="39.389669" lon="-5.300863">
        <ele>549.0</ele>
        <time>1970-01-01T00:00:00Z</time>
      </trkpt>
      <trkpt lat="39.389669" lon="-5.300863">
        <ele>549.0</ele>
        <time>1970-01-01T00:00:00Z</time>
      </trkpt>
      <trkpt lat="39.389626" lon="-5.300848">
        <ele>548.7</ele>
        <time>1970-01-01T00:00:00Z</time>
      </trkpt>
      <trkpt lat="39.389626" lon="-5.300848">
        <ele>548.7</ele>
        <time>1970-01-01T00:00:00Z</time>
      </trkpt>
      <trkpt lat="39.389626" lon="-5.300848">
        <ele>548.7</ele>
        <time>1970-01-01T00:00:00Z</time>
      </trkpt>
      <trkpt lat="39.389626" lon="-5.300848">
        <ele>548.7</ele>
        <time>1970-01-01T00:00:00Z</time>
      </trkpt>
      <trkpt lat="39.389588" lon="-5.300801">
        <ele>547.8</ele>
        <time>1970-01-01T00:00:00Z</time>
      </trkpt>
      <trkpt lat="39.389588" lon="-5.300801">
        <ele>547.8</ele>
        <time>1970-01-01T00:00:00Z</time>
      </trkpt>
      <trkpt lat="39.389588" lon="-5.300801">
        <ele>547.8</ele>
        <time>1970-01-01T00:00:00Z</time>
      </trkpt>
      <trkpt lat="39.389588" lon="-5.300801">
        <ele>547.8</ele>
        <time>1970-01-01T00:00:00Z</time>
      </trkpt>
      <trkpt lat="39.389573" lon="-5.300734">
        <ele>546.7</ele>
        <time>1970-01-01T00:00:00Z</time>
      </trkpt>
      <trkpt lat="39.389573" lon="-5.300734">
        <ele>546.7</ele>
        <time>1970-01-01T00:00:00Z</time>
      </trkpt>
      <trkpt lat="39.389573" lon="-5.300734">
        <ele>546.7</ele>
        <time>1970-01-01T00:00:00Z</time>
      </trkpt>
      <trkpt lat="39.389573" lon="-5.300734">
        <ele>546.7</ele>
        <time>1970-01-01T00:00:00Z</time>
      </trkpt>
      <trkpt lat="39.389599" lon="-5.300652">
        <ele>545.4</ele>
        <time>1970-01-01T00:00:00Z</time>
      </trkpt>
      <trkpt lat="39.389599" lon="-5.300652">
        <ele>545.4</ele>
        <time>1970-01-01T00:00:00Z</time>
      </trkpt>
      <trkpt lat="39.389599" lon="-5.300652">
        <ele>545.4</ele>
        <time>1970-01-01T00:00:00Z</time>
      </trkpt>
      <trkpt lat="39.389599" lon="-5.300652">
        <ele>545.4</ele>
        <time>1970-01-01T00:00:00Z</time>
      </trkpt>
      <trkpt lat="39.389657" lon="-5.300580">
        <ele>544.4</ele>
        <time>1970-01-01T00:00:00Z</time>
      </trkpt>
      <trkpt lat="39.389657" lon="-5.300580">
        <ele>544.4</ele>
        <time>1970-01-01T00:00:00Z</time>
      </trkpt>
      <trkpt lat="39.389657" lon="-5.300580">
        <ele>544.4</ele>
        <time>1970-01-01T00:00:00Z</time>
      </trkpt>
      <trkpt lat="39.389657" lon="-5.300580">
        <ele>544.4</ele>
        <time>1970-01-01T00:00:00Z</time>
      </trkpt>
      <trkpt lat="39.389743" lon="-5.300551">
        <ele>544.6</ele>
        <time>1970-01-01T00:00:00Z</time>
      </trkpt>
      <trkpt lat="39.389743" lon="-5.300551">
        <ele>544.6</ele>
        <time>1970-01-01T00:00:00Z</time>
      </trkpt>
      <trkpt lat="39.389743" lon="-5.300551">
        <ele>544.6</ele>
        <time>1970-01-01T00:00:00Z</time>
      </trkpt>
      <trkpt lat="39.389743" lon="-5.300551">
        <ele>544.6</ele>
        <time>1970-01-01T00:00:00Z</time>
      </trkpt>
      <trkpt lat="39.389826" lon="-5.300537">
        <ele>545.5</ele>
        <time>1970-01-01T00:00:00Z</time>
      </trkpt>
      <trkpt lat="39.389826" lon="-5.300537">
        <ele>545.5</ele>
        <time>1970-01-01T00:00:00Z</time>
      </trkpt>
      <trkpt lat="39.389826" lon="-5.300537">
        <ele>545.5</ele>
        <time>1970-01-01T00:00:00Z</time>
      </trkpt>
      <trkpt lat="39.389826" lon="-5.300537">
        <ele>545.5</ele>
        <time>1970-01-01T00:00:00Z</time>
      </trkpt>
      <trkpt lat="39.389866" lon="-5.300507">
        <ele>545.6</ele>
        <time>1970-01-01T00:00:00Z</time>
      </trkpt>
      <trkpt lat="39.389866" lon="-5.300507">
        <ele>545.6</ele>
        <time>1970-01-01T00:00:00Z</time>
      </trkpt>
      <trkpt lat="39.389866" lon="-5.300507">
        <ele>545.6</ele>
        <time>1970-01-01T00:00:00Z</time>
      </trkpt>
      <trkpt lat="39.389866" lon="-5.300507">
        <ele>545.6</ele>
        <time>1970-01-01T00:00:00Z</time>
      </trkpt>
      <trkpt lat="39.389882" lon="-5.300440">
        <ele>544.9</ele>
        <time>1970-01-01T00:00:00Z</time>
      </trkpt>
      <trkpt lat="39.389882" lon="-5.300440">
        <ele>544.9</ele>
        <time>1970-01-01T00:00:00Z</time>
      </trkpt>
      <trkpt lat="39.389882" lon="-5.300440">
        <ele>544.9</ele>
        <time>1970-01-01T00:00:00Z</time>
      </trkpt>
      <trkpt lat="39.389882" lon="-5.300440">
        <ele>544.9</ele>
        <time>1970-01-01T00:00:00Z</time>
      </trkpt>
      <trkpt lat="39.389877" lon="-5.300354">
        <ele>543.7</ele>
        <time>1970-01-01T00:00:00Z</time>
      </trkpt>
      <trkpt lat="39.389877" lon="-5.300354">
        <ele>543.7</ele>
        <time>1970-01-01T00:00:00Z</time>
      </trkpt>
      <trkpt lat="39.389877" lon="-5.300354">
        <ele>543.7</ele>
        <time>1970-01-01T00:00:00Z</time>
      </trkpt>
      <trkpt lat="39.389877" lon="-5.300354">
        <ele>543.7</ele>
        <time>1970-01-01T00:00:00Z</time>
      </trkpt>
      <trkpt lat="39.389832" lon="-5.300188">
        <ele>541.3</ele>
        <time>1970-01-01T00:00:00Z</time>
      </trkpt>
      <trkpt lat="39.389832" lon="-5.300188">
        <ele>541.3</ele>
        <time>1970-01-01T00:00:00Z</time>
      </trkpt>
      <trkpt lat="39.389832" lon="-5.300188">
        <ele>541.3</ele>
        <time>1970-01-01T00:00:00Z</time>
      </trkpt>
      <trkpt lat="39.389832" lon="-5.300188">
        <ele>541.3</ele>
        <time>1970-01-01T00:00:00Z</time>
      </trkpt>
      <trkpt lat="39.389797" lon="-5.299913">
        <ele>538.1</ele>
        <time>1970-01-01T00:00:00Z</time>
      </trkpt>
      <trkpt lat="39.389797" lon="-5.299913">
        <ele>538.1</ele>
        <time>1970-01-01T00:00:00Z</time>
      </trkpt>
      <trkpt lat="39.389797" lon="-5.299913">
        <ele>538.1</ele>
        <time>1970-01-01T00:00:00Z</time>
      </trkpt>
      <trkpt lat="39.389797" lon="-5.299913">
        <ele>538.1</ele>
        <time>1970-01-01T00:00:00Z</time>
      </trkpt>
      <trkpt lat="39.389785" lon="-5.299544">
        <ele>535.1</ele>
        <time>1970-01-01T00:00:00Z</time>
      </trkpt>
      <trkpt lat="39.389785" lon="-5.299544">
        <ele>535.1</ele>
        <time>1970-01-01T00:00:00Z</time>
      </trkpt>
      <trkpt lat="39.389785" lon="-5.299544">
        <ele>535.1</ele>
        <time>1970-01-01T00:00:00Z</time>
      </trkpt>
      <trkpt lat="39.389785" lon="-5.299544">
        <ele>535.1</ele>
        <time>1970-01-01T00:00:00Z</time>
      </trkpt>
      <trkpt lat="39.389787" lon="-5.299237">
        <ele>533.3</ele>
        <time>1970-01-01T00:00:00Z</time>
      </trkpt>
      <trkpt lat="39.389787" lon="-5.299237">
        <ele>533.3</ele>
        <time>1970-01-01T00:00:00Z</time>
      </trkpt>
      <trkpt lat="39.389787" lon="-5.299237">
        <ele>533.3</ele>
        <time>1970-01-01T00:00:00Z</time>
      </trkpt>
      <trkpt lat="39.389787" lon="-5.299237">
        <ele>533.3</ele>
        <time>1970-01-01T00:00:00Z</time>
      </trkpt>
      <trkpt lat="39.389788" lon="-5.299062">
        <ele>532.2</ele>
        <time>1970-01-01T00:00:00Z</time>
      </trkpt>
      <trkpt lat="39.389788" lon="-5.299062">
        <ele>532.2</ele>
        <time>1970-01-01T00:00:00Z</time>
      </trkpt>
      <trkpt lat="39.389788" lon="-5.299062">
        <ele>532.2</ele>
        <time>1970-01-01T00:00:00Z</time>
      </trkpt>
      <trkpt lat="39.389788" lon="-5.299062">
        <ele>532.2</ele>
        <time>1970-01-01T00:00:00Z</time>
      </trkpt>
      <trkpt lat="39.389783" lon="-5.299028">
        <ele>532.0</ele>
        <time>1970-01-01T00:00:00Z</time>
      </trkpt>
      <trkpt lat="39.389783" lon="-5.299028">
        <ele>532.0</ele>
        <time>1970-01-01T00:00:00Z</time>
      </trkpt>
      <trkpt lat="39.389783" lon="-5.299028">
        <ele>532.0</ele>
        <time>1970-01-01T00:00:00Z</time>
      </trkpt>
      <trkpt lat="39.389783" lon="-5.299028">
        <ele>532.0</ele>
        <time>1970-01-01T00:00:00Z</time>
      </trkpt>
      <trkpt lat="39.389777" lon="-5.298991">
        <ele>531.6</ele>
        <time>1970-01-01T00:00:00Z</time>
      </trkpt>
      <trkpt lat="39.389777" lon="-5.298991">
        <ele>531.6</ele>
        <time>1970-01-01T00:00:00Z</time>
      </trkpt>
      <trkpt lat="39.389777" lon="-5.298991">
        <ele>531.6</ele>
        <time>1970-01-01T00:00:00Z</time>
      </trkpt>
      <trkpt lat="39.389777" lon="-5.298991">
        <ele>531.6</ele>
        <time>1970-01-01T00:00:00Z</time>
      </trkpt>
      <trkpt lat="39.389741" lon="-5.298786">
        <ele>529.4</ele>
        <time>1970-01-01T00:00:00Z</time>
      </trkpt>
      <trkpt lat="39.389741" lon="-5.298786">
        <ele>529.4</ele>
        <time>1970-01-01T00:00:00Z</time>
      </trkpt>
      <trkpt lat="39.389741" lon="-5.298786">
        <ele>529.4</ele>
        <time>1970-01-01T00:00:00Z</time>
      </trkpt>
      <trkpt lat="39.389741" lon="-5.298786">
        <ele>529.4</ele>
        <time>1970-01-01T00:00:00Z</time>
      </trkpt>
      <trkpt lat="39.389723" lon="-5.298469">
        <ele>526.3</ele>
        <time>1970-01-01T00:00:00Z</time>
      </trkpt>
      <trkpt lat="39.389723" lon="-5.298469">
        <ele>526.3</ele>
        <time>1970-01-01T00:00:00Z</time>
      </trkpt>
      <trkpt lat="39.389723" lon="-5.298469">
        <ele>526.3</ele>
        <time>1970-01-01T00:00:00Z</time>
      </trkpt>
      <trkpt lat="39.389723" lon="-5.298469">
        <ele>526.3</ele>
        <time>1970-01-01T00:00:00Z</time>
      </trkpt>
      <trkpt lat="39.389728" lon="-5.298211">
        <ele>524.3</ele>
        <time>1970-01-01T00:00:00Z</time>
      </trkpt>
      <trkpt lat="39.389728" lon="-5.298211">
        <ele>524.3</ele>
        <time>1970-01-01T00:00:00Z</time>
      </trkpt>
      <trkpt lat="39.389728" lon="-5.298211">
        <ele>524.3</ele>
        <time>1970-01-01T00:00:00Z</time>
      </trkpt>
      <trkpt lat="39.389728" lon="-5.298211">
        <ele>524.3</ele>
        <time>1970-01-01T00:00:00Z</time>
      </trkpt>
      <trkpt lat="39.389702" lon="-5.297711">
        <ele>520.5</ele>
        <time>1970-01-01T00:00:00Z</time>
      </trkpt>
      <trkpt lat="39.389702" lon="-5.297711">
        <ele>520.5</ele>
        <time>1970-01-01T00:00:00Z</time>
      </trkpt>
      <trkpt lat="39.389702" lon="-5.297711">
        <ele>520.5</ele>
        <time>1970-01-01T00:00:00Z</time>
      </trkpt>
      <trkpt lat="39.389702" lon="-5.297711">
        <ele>520.5</ele>
        <time>1970-01-01T00:00:00Z</time>
      </trkpt>
      <trkpt lat="39.389686" lon="-5.297566">
        <ele>519.3</ele>
        <time>1970-01-01T00:00:00Z</time>
      </trkpt>
      <trkpt lat="39.389686" lon="-5.297566">
        <ele>519.3</ele>
        <time>1970-01-01T00:00:00Z</time>
      </trkpt>
      <trkpt lat="39.389686" lon="-5.297566">
        <ele>519.3</ele>
        <time>1970-01-01T00:00:00Z</time>
      </trkpt>
      <trkpt lat="39.389686" lon="-5.297566">
        <ele>519.3</ele>
        <time>1970-01-01T00:00:00Z</time>
      </trkpt>
      <trkpt lat="39.389665" lon="-5.297440">
        <ele>519.2</ele>
        <time>1970-01-01T00:00:00Z</time>
      </trkpt>
      <trkpt lat="39.389665" lon="-5.297440">
        <ele>519.2</ele>
        <time>1970-01-01T00:00:00Z</time>
      </trkpt>
      <trkpt lat="39.389665" lon="-5.297440">
        <ele>519.2</ele>
        <time>1970-01-01T00:00:00Z</time>
      </trkpt>
      <trkpt lat="39.389665" lon="-5.297440">
        <ele>519.2</ele>
        <time>1970-01-01T00:00:00Z</time>
      </trkpt>
      <trkpt lat="39.389665" lon="-5.297326">
        <ele>519.2</ele>
        <time>1970-01-01T00:00:00Z</time>
      </trkpt>
      <trkpt lat="39.389665" lon="-5.297326">
        <ele>519.2</ele>
        <time>1970-01-01T00:00:00Z</time>
      </trkpt>
      <trkpt lat="39.389665" lon="-5.297326">
        <ele>519.2</ele>
        <time>1970-01-01T00:00:00Z</time>
      </trkpt>
      <trkpt lat="39.389665" lon="-5.297326">
        <ele>519.2</ele>
        <time>1970-01-01T00:00:00Z</time>
      </trkpt>
      <trkpt lat="39.389687" lon="-5.297179">
        <ele>518.6</ele>
        <time>1970-01-01T00:00:00Z</time>
      </trkpt>
      <trkpt lat="39.389687" lon="-5.297179">
        <ele>518.6</ele>
        <time>1970-01-01T00:00:00Z</time>
      </trkpt>
      <trkpt lat="39.389687" lon="-5.297179">
        <ele>518.6</ele>
        <time>1970-01-01T00:00:00Z</time>
      </trkpt>
      <trkpt lat="39.389687" lon="-5.297179">
        <ele>518.6</ele>
        <time>1970-01-01T00:00:00Z</time>
      </trkpt>
      <trkpt lat="39.389785" lon="-5.296894">
        <ele>516.4</ele>
        <time>1970-01-01T00:00:00Z</time>
      </trkpt>
      <trkpt lat="39.389785" lon="-5.296894">
        <ele>516.4</ele>
        <time>1970-01-01T00:00:00Z</time>
      </trkpt>
      <trkpt lat="39.389785" lon="-5.296894">
        <ele>516.4</ele>
        <time>1970-01-01T00:00:00Z</time>
      </trkpt>
      <trkpt lat="39.389785" lon="-5.296894">
        <ele>516.4</ele>
        <time>1970-01-01T00:00:00Z</time>
      </trkpt>
      <trkpt lat="39.389873" lon="-5.296666">
        <ele>514.7</ele>
        <time>1970-01-01T00:00:00Z</time>
      </trkpt>
      <trkpt lat="39.389873" lon="-5.296666">
        <ele>514.7</ele>
        <time>1970-01-01T00:00:00Z</time>
      </trkpt>
      <trkpt lat="39.389873" lon="-5.296666">
        <ele>514.7</ele>
        <time>1970-01-01T00:00:00Z</time>
      </trkpt>
      <trkpt lat="39.389873" lon="-5.296666">
        <ele>514.7</ele>
        <time>1970-01-01T00:00:00Z</time>
      </trkpt>
      <trkpt lat="39.389976" lon="-5.296412">
        <ele>512.1</ele>
        <time>1970-01-01T00:00:00Z</time>
      </trkpt>
      <trkpt lat="39.389976" lon="-5.296412">
        <ele>512.1</ele>
        <time>1970-01-01T00:00:00Z</time>
      </trkpt>
      <trkpt lat="39.389976" lon="-5.296412">
        <ele>512.1</ele>
        <time>1970-01-01T00:00:00Z</time>
      </trkpt>
      <trkpt lat="39.389976" lon="-5.296412">
        <ele>512.1</ele>
        <time>1970-01-01T00:00:00Z</time>
      </trkpt>
      <trkpt lat="39.390037" lon="-5.296214">
        <ele>510.5</ele>
        <time>1970-01-01T00:00:00Z</time>
      </trkpt>
      <trkpt lat="39.390037" lon="-5.296214">
        <ele>510.5</ele>
        <time>1970-01-01T00:00:00Z</time>
      </trkpt>
      <trkpt lat="39.390037" lon="-5.296214">
        <ele>510.5</ele>
        <time>1970-01-01T00:00:00Z</time>
      </trkpt>
      <trkpt lat="39.390037" lon="-5.296214">
        <ele>510.5</ele>
        <time>1970-01-01T00:00:00Z</time>
      </trkpt>
      <trkpt lat="39.390200" lon="-5.295653">
        <ele>504.6</ele>
        <time>1970-01-01T00:00:00Z</time>
      </trkpt>
      <trkpt lat="39.390200" lon="-5.295653">
        <ele>504.6</ele>
        <time>1970-01-01T00:00:00Z</time>
      </trkpt>
      <trkpt lat="39.390200" lon="-5.295653">
        <ele>504.6</ele>
        <time>1970-01-01T00:00:00Z</time>
      </trkpt>
      <trkpt lat="39.390200" lon="-5.295653">
        <ele>504.6</ele>
        <time>1970-01-01T00:00:00Z</time>
      </trkpt>
      <trkpt lat="39.390300" lon="-5.295312">
        <ele>501.6</ele>
        <time>1970-01-01T00:00:00Z</time>
      </trkpt>
      <trkpt lat="39.390300" lon="-5.295312">
        <ele>501.6</ele>
        <time>1970-01-01T00:00:00Z</time>
      </trkpt>
      <trkpt lat="39.390300" lon="-5.295312">
        <ele>501.6</ele>
        <time>1970-01-01T00:00:00Z</time>
      </trkpt>
      <trkpt lat="39.390300" lon="-5.295312">
        <ele>501.6</ele>
        <time>1970-01-01T00:00:00Z</time>
      </trkpt>
      <trkpt lat="39.390382" lon="-5.295020">
        <ele>499.3</ele>
        <time>1970-01-01T00:00:00Z</time>
      </trkpt>
      <trkpt lat="39.390382" lon="-5.295020">
        <ele>499.3</ele>
        <time>1970-01-01T00:00:00Z</time>
      </trkpt>
      <trkpt lat="39.390382" lon="-5.295020">
        <ele>499.3</ele>
        <time>1970-01-01T00:00:00Z</time>
      </trkpt>
      <trkpt lat="39.390382" lon="-5.295020">
        <ele>499.3</ele>
        <time>1970-01-01T00:00:00Z</time>
      </trkpt>
      <trkpt lat="39.390463" lon="-5.294796">
        <ele>497.6</ele>
        <time>1970-01-01T00:00:00Z</time>
      </trkpt>
      <trkpt lat="39.390463" lon="-5.294796">
        <ele>497.6</ele>
        <time>1970-01-01T00:00:00Z</time>
      </trkpt>
      <trkpt lat="39.390463" lon="-5.294796">
        <ele>497.6</ele>
        <time>1970-01-01T00:00:00Z</time>
      </trkpt>
      <trkpt lat="39.390463" lon="-5.294796">
        <ele>497.6</ele>
        <time>1970-01-01T00:00:00Z</time>
      </trkpt>
      <trkpt lat="39.390497" lon="-5.294751">
        <ele>497.1</ele>
        <time>1970-01-01T00:00:00Z</time>
      </trkpt>
      <trkpt lat="39.390497" lon="-5.294751">
        <ele>497.1</ele>
        <time>1970-01-01T00:00:00Z</time>
      </trkpt>
      <trkpt lat="39.390497" lon="-5.294751">
        <ele>497.1</ele>
        <time>1970-01-01T00:00:00Z</time>
      </trkpt>
      <trkpt lat="39.390497" lon="-5.294751">
        <ele>497.1</ele>
        <time>1970-01-01T00:00:00Z</time>
      </trkpt>
      <trkpt lat="39.390671" lon="-5.294517">
        <ele>494.0</ele>
        <time>1970-01-01T00:00:00Z</time>
      </trkpt>
      <trkpt lat="39.390671" lon="-5.294517">
        <ele>494.0</ele>
        <time>1970-01-01T00:00:00Z</time>
      </trkpt>
      <trkpt lat="39.390671" lon="-5.294517">
        <ele>494.0</ele>
        <time>1970-01-01T00:00:00Z</time>
      </trkpt>
      <trkpt lat="39.390671" lon="-5.294517">
        <ele>494.0</ele>
        <time>1970-01-01T00:00:00Z</time>
      </trkpt>
      <trkpt lat="39.390794" lon="-5.294315">
        <ele>493.7</ele>
        <time>1970-01-01T00:00:00Z</time>
      </trkpt>
      <trkpt lat="39.390794" lon="-5.294315">
        <ele>493.7</ele>
        <time>1970-01-01T00:00:00Z</time>
      </trkpt>
      <trkpt lat="39.390794" lon="-5.294315">
        <ele>493.7</ele>
        <time>1970-01-01T00:00:00Z</time>
      </trkpt>
      <trkpt lat="39.390794" lon="-5.294315">
        <ele>493.7</ele>
        <time>1970-01-01T00:00:00Z</time>
      </trkpt>
      <trkpt lat="39.390847" lon="-5.294225">
        <ele>494.0</ele>
        <time>1970-01-01T00:00:00Z</time>
      </trkpt>
      <trkpt lat="39.390847" lon="-5.294225">
        <ele>494.0</ele>
        <time>1970-01-01T00:00:00Z</time>
      </trkpt>
      <trkpt lat="39.390847" lon="-5.294225">
        <ele>494.0</ele>
        <time>1970-01-01T00:00:00Z</time>
      </trkpt>
      <trkpt lat="39.390847" lon="-5.294225">
        <ele>494.0</ele>
        <time>1970-01-01T00:00:00Z</time>
      </trkpt>
      <trkpt lat="39.390934" lon="-5.294258">
        <ele>494.7</ele>
        <time>1970-01-01T00:00:00Z</time>
      </trkpt>
      <trkpt lat="39.390934" lon="-5.294258">
        <ele>494.7</ele>
        <time>1970-01-01T00:00:00Z</time>
      </trkpt>
      <trkpt lat="39.390934" lon="-5.294258">
        <ele>494.7</ele>
        <time>1970-01-01T00:00:00Z</time>
      </trkpt>
      <trkpt lat="39.390934" lon="-5.294258">
        <ele>494.7</ele>
        <time>1970-01-01T00:00:00Z</time>
      </trkpt>
      <trkpt lat="39.391003" lon="-5.294349">
        <ele>495.1</ele>
        <time>1970-01-01T00:00:00Z</time>
      </trkpt>
      <trkpt lat="39.391003" lon="-5.294349">
        <ele>495.1</ele>
        <time>1970-01-01T00:00:00Z</time>
      </trkpt>
      <trkpt lat="39.391003" lon="-5.294349">
        <ele>495.1</ele>
        <time>1970-01-01T00:00:00Z</time>
      </trkpt>
      <trkpt lat="39.391003" lon="-5.294349">
        <ele>495.1</ele>
        <time>1970-01-01T00:00:00Z</time>
      </trkpt>
      <trkpt lat="39.391028" lon="-5.294396">
        <ele>495.1</ele>
        <time>1970-01-01T00:00:00Z</time>
      </trkpt>
      <trkpt lat="39.391028" lon="-5.294396">
        <ele>495.1</ele>
        <time>1970-01-01T00:00:00Z</time>
      </trkpt>
      <trkpt lat="39.391028" lon="-5.294396">
        <ele>495.1</ele>
        <time>1970-01-01T00:00:00Z</time>
      </trkpt>
      <trkpt lat="39.391028" lon="-5.294396">
        <ele>495.1</ele>
        <time>1970-01-01T00:00:00Z</time>
      </trkpt>
      <trkpt lat="39.391316" lon="-5.294335">
        <ele>496.8</ele>
        <time>1970-01-01T00:00:00Z</time>
      </trkpt>
      <trkpt lat="39.391316" lon="-5.294335">
        <ele>496.8</ele>
        <time>1970-01-01T00:00:00Z</time>
      </trkpt>
      <trkpt lat="39.391316" lon="-5.294335">
        <ele>496.8</ele>
        <time>1970-01-01T00:00:00Z</time>
      </trkpt>
      <trkpt lat="39.391316" lon="-5.294335">
        <ele>496.8</ele>
        <time>1970-01-01T00:00:00Z</time>
      </trkpt>
      <trkpt lat="39.391368" lon="-5.294335">
        <ele>497.2</ele>
        <time>1970-01-01T00:00:00Z</time>
      </trkpt>
      <trkpt lat="39.391368" lon="-5.294335">
        <ele>497.2</ele>
        <time>1970-01-01T00:00:00Z</time>
      </trkpt>
      <trkpt lat="39.391368" lon="-5.294335">
        <ele>497.2</ele>
        <time>1970-01-01T00:00:00Z</time>
      </trkpt>
      <trkpt lat="39.391368" lon="-5.294335">
        <ele>497.2</ele>
        <time>1970-01-01T00:00:00Z</time>
      </trkpt>
      <trkpt lat="39.391480" lon="-5.294341">
        <ele>498.2</ele>
        <time>1970-01-01T00:00:00Z</time>
      </trkpt>
      <trkpt lat="39.391480" lon="-5.294341">
        <ele>498.2</ele>
        <time>1970-01-01T00:00:00Z</time>
      </trkpt>
      <trkpt lat="39.391480" lon="-5.294341">
        <ele>498.2</ele>
        <time>1970-01-01T00:00:00Z</time>
      </trkpt>
      <trkpt lat="39.391480" lon="-5.294341">
        <ele>498.2</ele>
        <time>1970-01-01T00:00:00Z</time>
      </trkpt>
      <trkpt lat="39.391585" lon="-5.294361">
        <ele>498.9</ele>
        <time>1970-01-01T00:00:00Z</time>
      </trkpt>
      <trkpt lat="39.391585" lon="-5.294361">
        <ele>498.9</ele>
        <time>1970-01-01T00:00:00Z</time>
      </trkpt>
      <trkpt lat="39.391585" lon="-5.294361">
        <ele>498.9</ele>
        <time>1970-01-01T00:00:00Z</time>
      </trkpt>
      <trkpt lat="39.391585" lon="-5.294361">
        <ele>498.9</ele>
        <time>1970-01-01T00:00:00Z</time>
      </trkpt>
      <trkpt lat="39.391662" lon="-5.294348">
        <ele>499.6</ele>
        <time>1970-01-01T00:00:00Z</time>
      </trkpt>
      <trkpt lat="39.391662" lon="-5.294348">
        <ele>499.6</ele>
        <time>1970-01-01T00:00:00Z</time>
      </trkpt>
      <trkpt lat="39.391662" lon="-5.294348">
        <ele>499.6</ele>
        <time>1970-01-01T00:00:00Z</time>
      </trkpt>
      <trkpt lat="39.391662" lon="-5.294348">
        <ele>499.6</ele>
        <time>1970-01-01T00:00:00Z</time>
      </trkpt>
      <trkpt lat="39.391835" lon="-5.294289">
        <ele>501.3</ele>
        <time>1970-01-01T00:00:00Z</time>
      </trkpt>
      <trkpt lat="39.391835" lon="-5.294289">
        <ele>501.3</ele>
        <time>1970-01-01T00:00:00Z</time>
      </trkpt>
      <trkpt lat="39.391835" lon="-5.294289">
        <ele>501.3</ele>
        <time>1970-01-01T00:00:00Z</time>
      </trkpt>
      <trkpt lat="39.391835" lon="-5.294289">
        <ele>501.3</ele>
        <time>1970-01-01T00:00:00Z</time>
      </trkpt>
      <trkpt lat="39.392044" lon="-5.294197">
        <ele>502.9</ele>
        <time>1970-01-01T00:00:00Z</time>
      </trkpt>
      <trkpt lat="39.392044" lon="-5.294197">
        <ele>502.9</ele>
        <time>1970-01-01T00:00:00Z</time>
      </trkpt>
      <trkpt lat="39.392044" lon="-5.294197">
        <ele>502.9</ele>
        <time>1970-01-01T00:00:00Z</time>
      </trkpt>
      <trkpt lat="39.392044" lon="-5.294197">
        <ele>502.9</ele>
        <time>1970-01-01T00:00:00Z</time>
      </trkpt>
      <trkpt lat="39.392146" lon="-5.294173">
        <ele>503.3</ele>
        <time>1970-01-01T00:00:00Z</time>
      </trkpt>
      <trkpt lat="39.392146" lon="-5.294173">
        <ele>503.3</ele>
        <time>1970-01-01T00:00:00Z</time>
      </trkpt>
      <trkpt lat="39.392146" lon="-5.294173">
        <ele>503.3</ele>
        <time>1970-01-01T00:00:00Z</time>
      </trkpt>
      <trkpt lat="39.392146" lon="-5.294173">
        <ele>503.3</ele>
        <time>1970-01-01T00:00:00Z</time>
      </trkpt>
      <trkpt lat="39.392408" lon="-5.294149">
        <ele>503.9</ele>
        <time>1970-01-01T00:00:00Z</time>
      </trkpt>
      <trkpt lat="39.392408" lon="-5.294149">
        <ele>503.9</ele>
        <time>1970-01-01T00:00:00Z</time>
      </trkpt>
      <trkpt lat="39.392408" lon="-5.294149">
        <ele>503.9</ele>
        <time>1970-01-01T00:00:00Z</time>
      </trkpt>
      <trkpt lat="39.392408" lon="-5.294149">
        <ele>503.9</ele>
        <time>1970-01-01T00:00:00Z</time>
      </trkpt>
      <trkpt lat="39.392479" lon="-5.294142">
        <ele>504.0</ele>
        <time>1970-01-01T00:00:00Z</time>
      </trkpt>
      <trkpt lat="39.392479" lon="-5.294142">
        <ele>504.0</ele>
        <time>1970-01-01T00:00:00Z</time>
      </trkpt>
      <trkpt lat="39.392479" lon="-5.294142">
        <ele>504.0</ele>
        <time>1970-01-01T00:00:00Z</time>
      </trkpt>
      <trkpt lat="39.392479" lon="-5.294142">
        <ele>504.0</ele>
        <time>1970-01-01T00:00:00Z</time>
      </trkpt>
      <trkpt lat="39.392593" lon="-5.294125">
        <ele>504.0</ele>
        <time>1970-01-01T00:00:00Z</time>
      </trkpt>
      <trkpt lat="39.392593" lon="-5.294125">
        <ele>504.0</ele>
        <time>1970-01-01T00:00:00Z</time>
      </trkpt>
      <trkpt lat="39.392593" lon="-5.294125">
        <ele>504.0</ele>
        <time>1970-01-01T00:00:00Z</time>
      </trkpt>
      <trkpt lat="39.392593" lon="-5.294125">
        <ele>504.0</ele>
        <time>1970-01-01T00:00:00Z</time>
      </trkpt>
      <trkpt lat="39.392872" lon="-5.294016">
        <ele>504.9</ele>
        <time>1970-01-01T00:00:00Z</time>
      </trkpt>
      <trkpt lat="39.392872" lon="-5.294016">
        <ele>504.9</ele>
        <time>1970-01-01T00:00:00Z</time>
      </trkpt>
      <trkpt lat="39.392872" lon="-5.294016">
        <ele>504.9</ele>
        <time>1970-01-01T00:00:00Z</time>
      </trkpt>
      <trkpt lat="39.392872" lon="-5.294016">
        <ele>504.9</ele>
        <time>1970-01-01T00:00:00Z</time>
      </trkpt>
      <trkpt lat="39.393017" lon="-5.293960">
        <ele>505.5</ele>
        <time>1970-01-01T00:00:00Z</time>
      </trkpt>
      <trkpt lat="39.393017" lon="-5.293960">
        <ele>505.5</ele>
        <time>1970-01-01T00:00:00Z</time>
      </trkpt>
      <trkpt lat="39.393017" lon="-5.293960">
        <ele>505.5</ele>
        <time>1970-01-01T00:00:00Z</time>
      </trkpt>
      <trkpt lat="39.393017" lon="-5.293960">
        <ele>505.5</ele>
        <time>1970-01-01T00:00:00Z</time>
      </trkpt>
      <trkpt lat="39.393415" lon="-5.293799">
        <ele>506.1</ele>
        <time>1970-01-01T00:00:00Z</time>
      </trkpt>
      <trkpt lat="39.393415" lon="-5.293799">
        <ele>506.1</ele>
        <time>1970-01-01T00:00:00Z</time>
      </trkpt>
      <trkpt lat="39.393415" lon="-5.293799">
        <ele>506.1</ele>
        <time>1970-01-01T00:00:00Z</time>
      </trkpt>
      <trkpt lat="39.393415" lon="-5.293799">
        <ele>506.1</ele>
        <time>1970-01-01T00:00:00Z</time>
      </trkpt>
      <trkpt lat="39.393442" lon="-5.293787">
        <ele>506.2</ele>
        <time>1970-01-01T00:00:00Z</time>
      </trkpt>
      <trkpt lat="39.393442" lon="-5.293787">
        <ele>506.2</ele>
        <time>1970-01-01T00:00:00Z</time>
      </trkpt>
      <trkpt lat="39.393442" lon="-5.293787">
        <ele>506.2</ele>
        <time>1970-01-01T00:00:00Z</time>
      </trkpt>
      <trkpt lat="39.393442" lon="-5.293787">
        <ele>506.2</ele>
        <time>1970-01-01T00:00:00Z</time>
      </trkpt>
      <trkpt lat="39.393675" lon="-5.293687">
        <ele>506.8</ele>
        <time>1970-01-01T00:00:00Z</time>
      </trkpt>
      <trkpt lat="39.393675" lon="-5.293687">
        <ele>506.8</ele>
        <time>1970-01-01T00:00:00Z</time>
      </trkpt>
      <trkpt lat="39.393675" lon="-5.293687">
        <ele>506.8</ele>
        <time>1970-01-01T00:00:00Z</time>
      </trkpt>
      <trkpt lat="39.393675" lon="-5.293687">
        <ele>506.8</ele>
        <time>1970-01-01T00:00:00Z</time>
      </trkpt>
      <trkpt lat="39.393752" lon="-5.293637">
        <ele>507.3</ele>
        <time>1970-01-01T00:00:00Z</time>
      </trkpt>
      <trkpt lat="39.393752" lon="-5.293637">
        <ele>507.3</ele>
        <time>1970-01-01T00:00:00Z</time>
      </trkpt>
      <trkpt lat="39.393752" lon="-5.293637">
        <ele>507.3</ele>
        <time>1970-01-01T00:00:00Z</time>
      </trkpt>
      <trkpt lat="39.393752" lon="-5.293637">
        <ele>507.3</ele>
        <time>1970-01-01T00:00:00Z</time>
      </trkpt>
      <trkpt lat="39.393809" lon="-5.293564">
        <ele>508.2</ele>
        <time>1970-01-01T00:00:00Z</time>
      </trkpt>
      <trkpt lat="39.393809" lon="-5.293564">
        <ele>508.2</ele>
        <time>1970-01-01T00:00:00Z</time>
      </trkpt>
      <trkpt lat="39.393809" lon="-5.293564">
        <ele>508.2</ele>
        <time>1970-01-01T00:00:00Z</time>
      </trkpt>
      <trkpt lat="39.393809" lon="-5.293564">
        <ele>508.2</ele>
        <time>1970-01-01T00:00:00Z</time>
      </trkpt>
      <trkpt lat="39.393880" lon="-5.293460">
        <ele>509.9</ele>
        <time>1970-01-01T00:00:00Z</time>
      </trkpt>
      <trkpt lat="39.393880" lon="-5.293460">
        <ele>509.9</ele>
        <time>1970-01-01T00:00:00Z</time>
      </trkpt>
      <trkpt lat="39.393880" lon="-5.293460">
        <ele>509.9</ele>
        <time>1970-01-01T00:00:00Z</time>
      </trkpt>
      <trkpt lat="39.393880" lon="-5.293460">
        <ele>509.9</ele>
        <time>1970-01-01T00:00:00Z</time>
      </trkpt>
      <trkpt lat="39.394006" lon="-5.293252">
        <ele>512.0</ele>
        <time>1970-01-01T00:00:00Z</time>
      </trkpt>
      <trkpt lat="39.394006" lon="-5.293252">
        <ele>512.0</ele>
        <time>1970-01-01T00:00:00Z</time>
      </trkpt>
      <trkpt lat="39.394006" lon="-5.293252">
        <ele>512.0</ele>
        <time>1970-01-01T00:00:00Z</time>
      </trkpt>
      <trkpt lat="39.394006" lon="-5.293252">
        <ele>512.0</ele>
        <time>1970-01-01T00:00:00Z</time>
      </trkpt>
      <trkpt lat="39.394109" lon="-5.293084">
        <ele>513.7</ele>
        <time>1970-01-01T00:00:00Z</time>
      </trkpt>
      <trkpt lat="39.394109" lon="-5.293084">
        <ele>513.7</ele>
        <time>1970-01-01T00:00:00Z</time>
      </trkpt>
      <trkpt lat="39.394109" lon="-5.293084">
        <ele>513.7</ele>
        <time>1970-01-01T00:00:00Z</time>
      </trkpt>
      <trkpt lat="39.394109" lon="-5.293084">
        <ele>513.7</ele>
        <time>1970-01-01T00:00:00Z</time>
      </trkpt>
      <trkpt lat="39.394177" lon="-5.293028">
        <ele>514.6</ele>
        <time>1970-01-01T00:00:00Z</time>
      </trkpt>
      <trkpt lat="39.394177" lon="-5.293028">
        <ele>514.6</ele>
        <time>1970-01-01T00:00:00Z</time>
      </trkpt>
      <trkpt lat="39.394177" lon="-5.293028">
        <ele>514.6</ele>
        <time>1970-01-01T00:00:00Z</time>
      </trkpt>
      <trkpt lat="39.394177" lon="-5.293028">
        <ele>514.6</ele>
        <time>1970-01-01T00:00:00Z</time>
      </trkpt>
      <trkpt lat="39.394276" lon="-5.292960">
        <ele>515.5</ele>
        <time>1970-01-01T00:00:00Z</time>
      </trkpt>
      <trkpt lat="39.394276" lon="-5.292960">
        <ele>515.5</ele>
        <time>1970-01-01T00:00:00Z</time>
      </trkpt>
      <trkpt lat="39.394276" lon="-5.292960">
        <ele>515.5</ele>
        <time>1970-01-01T00:00:00Z</time>
      </trkpt>
      <trkpt lat="39.394276" lon="-5.292960">
        <ele>515.5</ele>
        <time>1970-01-01T00:00:00Z</time>
      </trkpt>
      <trkpt lat="39.394311" lon="-5.292895">
        <ele>516.1</ele>
        <time>1970-01-01T00:00:00Z</time>
      </trkpt>
      <trkpt lat="39.394311" lon="-5.292895">
        <ele>516.1</ele>
        <time>1970-01-01T00:00:00Z</time>
      </trkpt>
      <trkpt lat="39.394311" lon="-5.292895">
        <ele>516.1</ele>
        <time>1970-01-01T00:00:00Z</time>
      </trkpt>
      <trkpt lat="39.394311" lon="-5.292895">
        <ele>516.1</ele>
        <time>1970-01-01T00:00:00Z</time>
      </trkpt>
      <trkpt lat="39.394342" lon="-5.292752">
        <ele>517.4</ele>
        <time>1970-01-01T00:00:00Z</time>
      </trkpt>
      <trkpt lat="39.394342" lon="-5.292752">
        <ele>517.4</ele>
        <time>1970-01-01T00:00:00Z</time>
      </trkpt>
      <trkpt lat="39.394342" lon="-5.292752">
        <ele>517.4</ele>
        <time>1970-01-01T00:00:00Z</time>
      </trkpt>
      <trkpt lat="39.394342" lon="-5.292752">
        <ele>517.4</ele>
        <time>1970-01-01T00:00:00Z</time>
      </trkpt>
      <trkpt lat="39.394347" lon="-5.292610">
        <ele>518.6</ele>
        <time>1970-01-01T00:00:00Z</time>
      </trkpt>
      <trkpt lat="39.394347" lon="-5.292610">
        <ele>518.6</ele>
        <time>1970-01-01T00:00:00Z</time>
      </trkpt>
      <trkpt lat="39.394347" lon="-5.292610">
        <ele>518.6</ele>
        <time>1970-01-01T00:00:00Z</time>
      </trkpt>
      <trkpt lat="39.394347" lon="-5.292610">
        <ele>518.6</ele>
        <time>1970-01-01T00:00:00Z</time>
      </trkpt>
      <trkpt lat="39.394340" lon="-5.292536">
        <ele>519.2</ele>
        <time>1970-01-01T00:00:00Z</time>
      </trkpt>
      <trkpt lat="39.394340" lon="-5.292536">
        <ele>519.2</ele>
        <time>1970-01-01T00:00:00Z</time>
      </trkpt>
      <trkpt lat="39.394340" lon="-5.292536">
        <ele>519.2</ele>
        <time>1970-01-01T00:00:00Z</time>
      </trkpt>
      <trkpt lat="39.394340" lon="-5.292536">
        <ele>519.2</ele>
        <time>1970-01-01T00:00:00Z</time>
      </trkpt>
      <trkpt lat="39.394371" lon="-5.292335">
        <ele>520.5</ele>
        <time>1970-01-01T00:00:00Z</time>
      </trkpt>
      <trkpt lat="39.394371" lon="-5.292335">
        <ele>520.5</ele>
        <time>1970-01-01T00:00:00Z</time>
      </trkpt>
      <trkpt lat="39.394371" lon="-5.292335">
        <ele>520.5</ele>
        <time>1970-01-01T00:00:00Z</time>
      </trkpt>
      <trkpt lat="39.394371" lon="-5.292335">
        <ele>520.5</ele>
        <time>1970-01-01T00:00:00Z</time>
      </trkpt>
      <trkpt lat="39.394414" lon="-5.292100">
        <ele>522.0</ele>
        <time>1970-01-01T00:00:00Z</time>
      </trkpt>
      <trkpt lat="39.394414" lon="-5.292100">
        <ele>522.0</ele>
        <time>1970-01-01T00:00:00Z</time>
      </trkpt>
      <trkpt lat="39.394414" lon="-5.292100">
        <ele>522.0</ele>
        <time>1970-01-01T00:00:00Z</time>
      </trkpt>
      <trkpt lat="39.394414" lon="-5.292100">
        <ele>522.0</ele>
        <time>1970-01-01T00:00:00Z</time>
      </trkpt>
      <trkpt lat="39.394433" lon="-5.291962">
        <ele>523.0</ele>
        <time>1970-01-01T00:00:00Z</time>
      </trkpt>
      <trkpt lat="39.394433" lon="-5.291962">
        <ele>523.0</ele>
        <time>1970-01-01T00:00:00Z</time>
      </trkpt>
      <trkpt lat="39.394433" lon="-5.291962">
        <ele>523.0</ele>
        <time>1970-01-01T00:00:00Z</time>
      </trkpt>
      <trkpt lat="39.394433" lon="-5.291962">
        <ele>523.0</ele>
        <time>1970-01-01T00:00:00Z</time>
      </trkpt>
      <trkpt lat="39.394440" lon="-5.291869">
        <ele>523.0</ele>
        <time>1970-01-01T00:00:00Z</time>
      </trkpt>
      <trkpt lat="39.394440" lon="-5.291869">
        <ele>523.0</ele>
        <time>1970-01-01T00:00:00Z</time>
      </trkpt>
      <trkpt lat="39.394440" lon="-5.291869">
        <ele>523.0</ele>
        <time>1970-01-01T00:00:00Z</time>
      </trkpt>
      <trkpt lat="39.394440" lon="-5.291869">
        <ele>523.0</ele>
        <time>1970-01-01T00:00:00Z</time>
      </trkpt>
      <trkpt lat="39.394430" lon="-5.291793">
        <ele>523.0</ele>
        <time>1970-01-01T00:00:00Z</time>
      </trkpt>
      <trkpt lat="39.394430" lon="-5.291793">
        <ele>523.0</ele>
        <time>1970-01-01T00:00:00Z</time>
      </trkpt>
      <trkpt lat="39.394430" lon="-5.291793">
        <ele>523.0</ele>
        <time>1970-01-01T00:00:00Z</time>
      </trkpt>
      <trkpt lat="39.394430" lon="-5.291793">
        <ele>523.0</ele>
        <time>1970-01-01T00:00:00Z</time>
      </trkpt>
      <trkpt lat="39.394412" lon="-5.291722">
        <ele>523.1</ele>
        <time>1970-01-01T00:00:00Z</time>
      </trkpt>
      <trkpt lat="39.394412" lon="-5.291722">
        <ele>523.1</ele>
        <time>1970-01-01T00:00:00Z</time>
      </trkpt>
      <trkpt lat="39.394412" lon="-5.291722">
        <ele>523.1</ele>
        <time>1970-01-01T00:00:00Z</time>
      </trkpt>
      <trkpt lat="39.394412" lon="-5.291722">
        <ele>523.1</ele>
        <time>1970-01-01T00:00:00Z</time>
      </trkpt>
      <trkpt lat="39.394353" lon="-5.291566">
        <ele>523.8</ele>
        <time>1970-01-01T00:00:00Z</time>
      </trkpt>
      <trkpt lat="39.394353" lon="-5.291566">
        <ele>523.8</ele>
        <time>1970-01-01T00:00:00Z</time>
      </trkpt>
      <trkpt lat="39.394353" lon="-5.291566">
        <ele>523.8</ele>
        <time>1970-01-01T00:00:00Z</time>
      </trkpt>
      <trkpt lat="39.394353" lon="-5.291566">
        <ele>523.8</ele>
        <time>1970-01-01T00:00:00Z</time>
      </trkpt>
      <trkpt lat="39.394305" lon="-5.291470">
        <ele>524.3</ele>
        <time>1970-01-01T00:00:00Z</time>
      </trkpt>
      <trkpt lat="39.394305" lon="-5.291470">
        <ele>524.3</ele>
        <time>1970-01-01T00:00:00Z</time>
      </trkpt>
      <trkpt lat="39.394305" lon="-5.291470">
        <ele>524.3</ele>
        <time>1970-01-01T00:00:00Z</time>
      </trkpt>
      <trkpt lat="39.394305" lon="-5.291470">
        <ele>524.3</ele>
        <time>1970-01-01T00:00:00Z</time>
      </trkpt>
      <trkpt lat="39.394275" lon="-5.291407">
        <ele>524.7</ele>
        <time>1970-01-01T00:00:00Z</time>
      </trkpt>
      <trkpt lat="39.394275" lon="-5.291407">
        <ele>524.7</ele>
        <time>1970-01-01T00:00:00Z</time>
      </trkpt>
      <trkpt lat="39.394275" lon="-5.291407">
        <ele>524.7</ele>
        <time>1970-01-01T00:00:00Z</time>
      </trkpt>
      <trkpt lat="39.394275" lon="-5.291407">
        <ele>524.7</ele>
        <time>1970-01-01T00:00:00Z</time>
      </trkpt>
      <trkpt lat="39.394225" lon="-5.291306">
        <ele>525.4</ele>
        <time>1970-01-01T00:00:00Z</time>
      </trkpt>
      <trkpt lat="39.394225" lon="-5.291306">
        <ele>525.4</ele>
        <time>1970-01-01T00:00:00Z</time>
      </trkpt>
      <trkpt lat="39.394225" lon="-5.291306">
        <ele>525.4</ele>
        <time>1970-01-01T00:00:00Z</time>
      </trkpt>
      <trkpt lat="39.394225" lon="-5.291306">
        <ele>525.4</ele>
        <time>1970-01-01T00:00:00Z</time>
      </trkpt>
      <trkpt lat="39.394198" lon="-5.291216">
        <ele>525.9</ele>
        <time>1970-01-01T00:00:00Z</time>
      </trkpt>
      <trkpt lat="39.394198" lon="-5.291216">
        <ele>525.9</ele>
        <time>1970-01-01T00:00:00Z</time>
      </trkpt>
      <trkpt lat="39.394198" lon="-5.291216">
        <ele>525.9</ele>
        <time>1970-01-01T00:00:00Z</time>
      </trkpt>
      <trkpt lat="39.394198" lon="-5.291216">
        <ele>525.9</ele>
        <time>1970-01-01T00:00:00Z</time>
      </trkpt>
      <trkpt lat="39.394186" lon="-5.291108">
        <ele>526.4</ele>
        <time>1970-01-01T00:00:00Z</time>
      </trkpt>
      <trkpt lat="39.394186" lon="-5.291108">
        <ele>526.4</ele>
        <time>1970-01-01T00:00:00Z</time>
      </trkpt>
      <trkpt lat="39.394186" lon="-5.291108">
        <ele>526.4</ele>
        <time>1970-01-01T00:00:00Z</time>
      </trkpt>
      <trkpt lat="39.394186" lon="-5.291108">
        <ele>526.4</ele>
        <time>1970-01-01T00:00:00Z</time>
      </trkpt>
      <trkpt lat="39.394194" lon="-5.291031">
        <ele>526.7</ele>
        <time>1970-01-01T00:00:00Z</time>
      </trkpt>
      <trkpt lat="39.394194" lon="-5.291031">
        <ele>526.7</ele>
        <time>1970-01-01T00:00:00Z</time>
      </trkpt>
      <trkpt lat="39.394194" lon="-5.291031">
        <ele>526.7</ele>
        <time>1970-01-01T00:00:00Z</time>
      </trkpt>
      <trkpt lat="39.394194" lon="-5.291031">
        <ele>526.7</ele>
        <time>1970-01-01T00:00:00Z</time>
      </trkpt>
      <trkpt lat="39.394252" lon="-5.290873">
        <ele>527.1</ele>
        <time>1970-01-01T00:00:00Z</time>
      </trkpt>
      <trkpt lat="39.394252" lon="-5.290873">
        <ele>527.1</ele>
        <time>1970-01-01T00:00:00Z</time>
      </trkpt>
      <trkpt lat="39.394252" lon="-5.290873">
        <ele>527.1</ele>
        <time>1970-01-01T00:00:00Z</time>
      </trkpt>
      <trkpt lat="39.394252" lon="-5.290873">
        <ele>527.1</ele>
        <time>1970-01-01T00:00:00Z</time>
      </trkpt>
      <trkpt lat="39.394304" lon="-5.290783">
        <ele>527.3</ele>
        <time>1970-01-01T00:00:00Z</time>
      </trkpt>
      <trkpt lat="39.394304" lon="-5.290783">
        <ele>527.3</ele>
        <time>1970-01-01T00:00:00Z</time>
      </trkpt>
      <trkpt lat="39.394304" lon="-5.290783">
        <ele>527.3</ele>
        <time>1970-01-01T00:00:00Z</time>
      </trkpt>
      <trkpt lat="39.394304" lon="-5.290783">
        <ele>527.3</ele>
        <time>1970-01-01T00:00:00Z</time>
      </trkpt>
      <trkpt lat="39.394357" lon="-5.290714">
        <ele>527.4</ele>
        <time>1970-01-01T00:00:00Z</time>
      </trkpt>
      <trkpt lat="39.394357" lon="-5.290714">
        <ele>527.4</ele>
        <time>1970-01-01T00:00:00Z</time>
      </trkpt>
      <trkpt lat="39.394357" lon="-5.290714">
        <ele>527.4</ele>
        <time>1970-01-01T00:00:00Z</time>
      </trkpt>
      <trkpt lat="39.394357" lon="-5.290714">
        <ele>527.4</ele>
        <time>1970-01-01T00:00:00Z</time>
      </trkpt>
      <trkpt lat="39.394526" lon="-5.290591">
        <ele>527.2</ele>
        <time>1970-01-01T00:00:00Z</time>
      </trkpt>
      <trkpt lat="39.394526" lon="-5.290591">
        <ele>527.2</ele>
        <time>1970-01-01T00:00:00Z</time>
      </trkpt>
      <trkpt lat="39.394526" lon="-5.290591">
        <ele>527.2</ele>
        <time>1970-01-01T00:00:00Z</time>
      </trkpt>
      <trkpt lat="39.394526" lon="-5.290591">
        <ele>527.2</ele>
        <time>1970-01-01T00:00:00Z</time>
      </trkpt>
      <trkpt lat="39.394728" lon="-5.290444">
        <ele>527.9</ele>
        <time>1970-01-01T00:00:00Z</time>
      </trkpt>
      <trkpt lat="39.394728" lon="-5.290444">
        <ele>527.9</ele>
        <time>1970-01-01T00:00:00Z</time>
      </trkpt>
      <trkpt lat="39.394728" lon="-5.290444">
        <ele>527.9</ele>
        <time>1970-01-01T00:00:00Z</time>
      </trkpt>
      <trkpt lat="39.394728" lon="-5.290444">
        <ele>527.9</ele>
        <time>1970-01-01T00:00:00Z</time>
      </trkpt>
      <trkpt lat="39.394792" lon="-5.290394">
        <ele>528.0</ele>
        <time>1970-01-01T00:00:00Z</time>
      </trkpt>
      <trkpt lat="39.394792" lon="-5.290394">
        <ele>528.0</ele>
        <time>1970-01-01T00:00:00Z</time>
      </trkpt>
      <trkpt lat="39.394792" lon="-5.290394">
        <ele>528.0</ele>
        <time>1970-01-01T00:00:00Z</time>
      </trkpt>
      <trkpt lat="39.394792" lon="-5.290394">
        <ele>528.0</ele>
        <time>1970-01-01T00:00:00Z</time>
      </trkpt>
      <trkpt lat="39.394852" lon="-5.290335">
        <ele>528.6</ele>
        <time>1970-01-01T00:00:00Z</time>
      </trkpt>
      <trkpt lat="39.394852" lon="-5.290335">
        <ele>528.6</ele>
        <time>1970-01-01T00:00:00Z</time>
      </trkpt>
      <trkpt lat="39.394852" lon="-5.290335">
        <ele>528.6</ele>
        <time>1970-01-01T00:00:00Z</time>
      </trkpt>
      <trkpt lat="39.394852" lon="-5.290335">
        <ele>528.6</ele>
        <time>1970-01-01T00:00:00Z</time>
      </trkpt>
      <trkpt lat="39.394925" lon="-5.290237">
        <ele>529.4</ele>
        <time>1970-01-01T00:00:00Z</time>
      </trkpt>
      <trkpt lat="39.394925" lon="-5.290237">
        <ele>529.4</ele>
        <time>1970-01-01T00:00:00Z</time>
      </trkpt>
      <trkpt lat="39.394925" lon="-5.290237">
        <ele>529.4</ele>
        <time>1970-01-01T00:00:00Z</time>
      </trkpt>
      <trkpt lat="39.394925" lon="-5.290237">
        <ele>529.4</ele>
        <time>1970-01-01T00:00:00Z</time>
      </trkpt>
      <trkpt lat="39.395014" lon="-5.290098">
        <ele>529.9</ele>
        <time>1970-01-01T00:00:00Z</time>
      </trkpt>
      <trkpt lat="39.395014" lon="-5.290098">
        <ele>529.9</ele>
        <time>1970-01-01T00:00:00Z</time>
      </trkpt>
      <trkpt lat="39.395014" lon="-5.290098">
        <ele>529.9</ele>
        <time>1970-01-01T00:00:00Z</time>
      </trkpt>
      <trkpt lat="39.395014" lon="-5.290098">
        <ele>529.9</ele>
        <time>1970-01-01T00:00:00Z</time>
      </trkpt>
      <trkpt lat="39.395121" lon="-5.289960">
        <ele>530.9</ele>
        <time>1970-01-01T00:00:00Z</time>
      </trkpt>
      <trkpt lat="39.395121" lon="-5.289960">
        <ele>530.9</ele>
        <time>1970-01-01T00:00:00Z</time>
      </trkpt>
      <trkpt lat="39.395121" lon="-5.289960">
        <ele>530.9</ele>
        <time>1970-01-01T00:00:00Z</time>
      </trkpt>
      <trkpt lat="39.395121" lon="-5.289960">
        <ele>530.9</ele>
        <time>1970-01-01T00:00:00Z</time>
      </trkpt>
      <trkpt lat="39.395182" lon="-5.289904">
        <ele>531.3</ele>
        <time>1970-01-01T00:00:00Z</time>
      </trkpt>
      <trkpt lat="39.395182" lon="-5.289904">
        <ele>531.3</ele>
        <time>1970-01-01T00:00:00Z</time>
      </trkpt>
      <trkpt lat="39.395182" lon="-5.289904">
        <ele>531.3</ele>
        <time>1970-01-01T00:00:00Z</time>
      </trkpt>
      <trkpt lat="39.395182" lon="-5.289904">
        <ele>531.3</ele>
        <time>1970-01-01T00:00:00Z</time>
      </trkpt>
      <trkpt lat="39.395259" lon="-5.289840">
        <ele>532.2</ele>
        <time>1970-01-01T00:00:00Z</time>
      </trkpt>
      <trkpt lat="39.395259" lon="-5.289840">
        <ele>532.2</ele>
        <time>1970-01-01T00:00:00Z</time>
      </trkpt>
      <trkpt lat="39.395259" lon="-5.289840">
        <ele>532.2</ele>
        <time>1970-01-01T00:00:00Z</time>
      </trkpt>
      <trkpt lat="39.395259" lon="-5.289840">
        <ele>532.2</ele>
        <time>1970-01-01T00:00:00Z</time>
      </trkpt>
      <trkpt lat="39.395380" lon="-5.289790">
        <ele>533.3</ele>
        <time>1970-01-01T00:00:00Z</time>
      </trkpt>
      <trkpt lat="39.395380" lon="-5.289790">
        <ele>533.3</ele>
        <time>1970-01-01T00:00:00Z</time>
      </trkpt>
      <trkpt lat="39.395380" lon="-5.289790">
        <ele>533.3</ele>
        <time>1970-01-01T00:00:00Z</time>
      </trkpt>
      <trkpt lat="39.395380" lon="-5.289790">
        <ele>533.3</ele>
        <time>1970-01-01T00:00:00Z</time>
      </trkpt>
      <trkpt lat="39.395532" lon="-5.289719">
        <ele>534.2</ele>
        <time>1970-01-01T00:00:00Z</time>
      </trkpt>
      <trkpt lat="39.395532" lon="-5.289719">
        <ele>534.2</ele>
        <time>1970-01-01T00:00:00Z</time>
      </trkpt>
      <trkpt lat="39.395532" lon="-5.289719">
        <ele>534.2</ele>
        <time>1970-01-01T00:00:00Z</time>
      </trkpt>
      <trkpt lat="39.395532" lon="-5.289719">
        <ele>534.2</ele>
        <time>1970-01-01T00:00:00Z</time>
      </trkpt>
      <trkpt lat="39.395651" lon="-5.289673">
        <ele>534.7</ele>
        <time>1970-01-01T00:00:00Z</time>
      </trkpt>
      <trkpt lat="39.395651" lon="-5.289673">
        <ele>534.7</ele>
        <time>1970-01-01T00:00:00Z</time>
      </trkpt>
      <trkpt lat="39.395651" lon="-5.289673">
        <ele>534.7</ele>
        <time>1970-01-01T00:00:00Z</time>
      </trkpt>
      <trkpt lat="39.395651" lon="-5.289673">
        <ele>534.7</ele>
        <time>1970-01-01T00:00:00Z</time>
      </trkpt>
      <trkpt lat="39.395718" lon="-5.289636">
        <ele>535.0</ele>
        <time>1970-01-01T00:00:00Z</time>
      </trkpt>
      <trkpt lat="39.395718" lon="-5.289636">
        <ele>535.0</ele>
        <time>1970-01-01T00:00:00Z</time>
      </trkpt>
      <trkpt lat="39.395718" lon="-5.289636">
        <ele>535.0</ele>
        <time>1970-01-01T00:00:00Z</time>
      </trkpt>
      <trkpt lat="39.395718" lon="-5.289636">
        <ele>535.0</ele>
        <time>1970-01-01T00:00:00Z</time>
      </trkpt>
      <trkpt lat="39.396015" lon="-5.289511">
        <ele>537.6</ele>
        <time>1970-01-01T00:00:00Z</time>
      </trkpt>
      <trkpt lat="39.396015" lon="-5.289511">
        <ele>537.6</ele>
        <time>1970-01-01T00:00:00Z</time>
      </trkpt>
      <trkpt lat="39.396015" lon="-5.289511">
        <ele>537.6</ele>
        <time>1970-01-01T00:00:00Z</time>
      </trkpt>
      <trkpt lat="39.396015" lon="-5.289511">
        <ele>537.6</ele>
        <time>1970-01-01T00:00:00Z</time>
      </trkpt>
      <trkpt lat="39.396327" lon="-5.289374">
        <ele>539.0</ele>
        <time>1970-01-01T00:00:00Z</time>
      </trkpt>
      <trkpt lat="39.396327" lon="-5.289374">
        <ele>539.0</ele>
        <time>1970-01-01T00:00:00Z</time>
      </trkpt>
      <trkpt lat="39.396327" lon="-5.289374">
        <ele>539.0</ele>
        <time>1970-01-01T00:00:00Z</time>
      </trkpt>
      <trkpt lat="39.396327" lon="-5.289374">
        <ele>539.0</ele>
        <time>1970-01-01T00:00:00Z</time>
      </trkpt>
      <trkpt lat="39.396405" lon="-5.289338">
        <ele>539.0</ele>
        <time>1970-01-01T00:00:00Z</time>
      </trkpt>
      <trkpt lat="39.396405" lon="-5.289338">
        <ele>539.0</ele>
        <time>1970-01-01T00:00:00Z</time>
      </trkpt>
      <trkpt lat="39.396405" lon="-5.289338">
        <ele>539.0</ele>
        <time>1970-01-01T00:00:00Z</time>
      </trkpt>
      <trkpt lat="39.396405" lon="-5.289338">
        <ele>539.0</ele>
        <time>1970-01-01T00:00:00Z</time>
      </trkpt>
      <trkpt lat="39.396483" lon="-5.289299">
        <ele>539.0</ele>
        <time>1970-01-01T00:00:00Z</time>
      </trkpt>
      <trkpt lat="39.396483" lon="-5.289299">
        <ele>539.0</ele>
        <time>1970-01-01T00:00:00Z</time>
      </trkpt>
      <trkpt lat="39.396483" lon="-5.289299">
        <ele>539.0</ele>
        <time>1970-01-01T00:00:00Z</time>
      </trkpt>
      <trkpt lat="39.396483" lon="-5.289299">
        <ele>539.0</ele>
        <time>1970-01-01T00:00:00Z</time>
      </trkpt>
      <trkpt lat="39.396590" lon="-5.289232">
        <ele>539.0</ele>
        <time>1970-01-01T00:00:00Z</time>
      </trkpt>
      <trkpt lat="39.396590" lon="-5.289232">
        <ele>539.0</ele>
        <time>1970-01-01T00:00:00Z</time>
      </trkpt>
      <trkpt lat="39.396590" lon="-5.289232">
        <ele>539.0</ele>
        <time>1970-01-01T00:00:00Z</time>
      </trkpt>
      <trkpt lat="39.396590" lon="-5.289232">
        <ele>539.0</ele>
        <time>1970-01-01T00:00:00Z</time>
      </trkpt>
      <trkpt lat="39.396655" lon="-5.289170">
        <ele>539.0</ele>
        <time>1970-01-01T00:00:00Z</time>
      </trkpt>
      <trkpt lat="39.396655" lon="-5.289170">
        <ele>539.0</ele>
        <time>1970-01-01T00:00:00Z</time>
      </trkpt>
      <trkpt lat="39.396655" lon="-5.289170">
        <ele>539.0</ele>
        <time>1970-01-01T00:00:00Z</time>
      </trkpt>
      <trkpt lat="39.396655" lon="-5.289170">
        <ele>539.0</ele>
        <time>1970-01-01T00:00:00Z</time>
      </trkpt>
      <trkpt lat="39.396755" lon="-5.289062">
        <ele>538.5</ele>
        <time>1970-01-01T00:00:00Z</time>
      </trkpt>
      <trkpt lat="39.396755" lon="-5.289062">
        <ele>538.5</ele>
        <time>1970-01-01T00:00:00Z</time>
      </trkpt>
      <trkpt lat="39.396755" lon="-5.289062">
        <ele>538.5</ele>
        <time>1970-01-01T00:00:00Z</time>
      </trkpt>
      <trkpt lat="39.396755" lon="-5.289062">
        <ele>538.5</ele>
        <time>1970-01-01T00:00:00Z</time>
      </trkpt>
      <trkpt lat="39.396806" lon="-5.288998">
        <ele>538.3</ele>
        <time>1970-01-01T00:00:00Z</time>
      </trkpt>
      <trkpt lat="39.396806" lon="-5.288998">
        <ele>538.3</ele>
        <time>1970-01-01T00:00:00Z</time>
      </trkpt>
      <trkpt lat="39.396806" lon="-5.288998">
        <ele>538.3</ele>
        <time>1970-01-01T00:00:00Z</time>
      </trkpt>
      <trkpt lat="39.396806" lon="-5.288998">
        <ele>538.3</ele>
        <time>1970-01-01T00:00:00Z</time>
      </trkpt>
      <trkpt lat="39.396847" lon="-5.288896">
        <ele>538.4</ele>
        <time>1970-01-01T00:00:00Z</time>
      </trkpt>
      <trkpt lat="39.396847" lon="-5.288896">
        <ele>538.4</ele>
        <time>1970-01-01T00:00:00Z</time>
      </trkpt>
      <trkpt lat="39.396847" lon="-5.288896">
        <ele>538.4</ele>
        <time>1970-01-01T00:00:00Z</time>
      </trkpt>
      <trkpt lat="39.396847" lon="-5.288896">
        <ele>538.4</ele>
        <time>1970-01-01T00:00:00Z</time>
      </trkpt>
      <trkpt lat="39.396903" lon="-5.288714">
        <ele>539.1</ele>
        <time>1970-01-01T00:00:00Z</time>
      </trkpt>
      <trkpt lat="39.396903" lon="-5.288714">
        <ele>539.1</ele>
        <time>1970-01-01T00:00:00Z</time>
      </trkpt>
      <trkpt lat="39.396903" lon="-5.288714">
        <ele>539.1</ele>
        <time>1970-01-01T00:00:00Z</time>
      </trkpt>
      <trkpt lat="39.396903" lon="-5.288714">
        <ele>539.1</ele>
        <time>1970-01-01T00:00:00Z</time>
      </trkpt>
      <trkpt lat="39.397007" lon="-5.288517">
        <ele>540.0</ele>
        <time>1970-01-01T00:00:00Z</time>
      </trkpt>
      <trkpt lat="39.397007" lon="-5.288517">
        <ele>540.0</ele>
        <time>1970-01-01T00:00:00Z</time>
      </trkpt>
      <trkpt lat="39.397007" lon="-5.288517">
        <ele>540.0</ele>
        <time>1970-01-01T00:00:00Z</time>
      </trkpt>
      <trkpt lat="39.397007" lon="-5.288517">
        <ele>540.0</ele>
        <time>1970-01-01T00:00:00Z</time>
      </trkpt>
      <trkpt lat="39.397338" lon="-5.288037">
        <ele>543.1</ele>
        <time>1970-01-01T00:00:00Z</time>
      </trkpt>
      <trkpt lat="39.397338" lon="-5.288037">
        <ele>543.1</ele>
        <time>1970-01-01T00:00:00Z</time>
      </trkpt>
      <trkpt lat="39.397338" lon="-5.288037">
        <ele>543.1</ele>
        <time>1970-01-01T00:00:00Z</time>
      </trkpt>
      <trkpt lat="39.397338" lon="-5.288037">
        <ele>543.1</ele>
        <time>1970-01-01T00:00:00Z</time>
      </trkpt>
      <trkpt lat="39.397552" lon="-5.287681">
        <ele>545.3</ele>
        <time>1970-01-01T00:00:00Z</time>
      </trkpt>
      <trkpt lat="39.397552" lon="-5.287681">
        <ele>545.3</ele>
        <time>1970-01-01T00:00:00Z</time>
      </trkpt>
      <trkpt lat="39.397552" lon="-5.287681">
        <ele>545.3</ele>
        <time>1970-01-01T00:00:00Z</time>
      </trkpt>
      <trkpt lat="39.397552" lon="-5.287681">
        <ele>545.3</ele>
        <time>1970-01-01T00:00:00Z</time>
      </trkpt>
      <trkpt lat="39.397616" lon="-5.287566">
        <ele>546.1</ele>
        <time>1970-01-01T00:00:00Z</time>
      </trkpt>
      <trkpt lat="39.397616" lon="-5.287566">
        <ele>546.1</ele>
        <time>1970-01-01T00:00:00Z</time>
      </trkpt>
      <trkpt lat="39.397616" lon="-5.287566">
        <ele>546.1</ele>
        <time>1970-01-01T00:00:00Z</time>
      </trkpt>
      <trkpt lat="39.397616" lon="-5.287566">
        <ele>546.1</ele>
        <time>1970-01-01T00:00:00Z</time>
      </trkpt>
      <trkpt lat="39.397693" lon="-5.287389">
        <ele>547.3</ele>
        <time>1970-01-01T00:00:00Z</time>
      </trkpt>
      <trkpt lat="39.397693" lon="-5.287389">
        <ele>547.3</ele>
        <time>1970-01-01T00:00:00Z</time>
      </trkpt>
      <trkpt lat="39.397693" lon="-5.287389">
        <ele>547.3</ele>
        <time>1970-01-01T00:00:00Z</time>
      </trkpt>
      <trkpt lat="39.397693" lon="-5.287389">
        <ele>547.3</ele>
        <time>1970-01-01T00:00:00Z</time>
      </trkpt>
      <trkpt lat="39.397728" lon="-5.287284">
        <ele>547.9</ele>
        <time>1970-01-01T00:00:00Z</time>
      </trkpt>
      <trkpt lat="39.397728" lon="-5.287284">
        <ele>547.9</ele>
        <time>1970-01-01T00:00:00Z</time>
      </trkpt>
      <trkpt lat="39.397728" lon="-5.287284">
        <ele>547.9</ele>
        <time>1970-01-01T00:00:00Z</time>
      </trkpt>
      <trkpt lat="39.397728" lon="-5.287284">
        <ele>547.9</ele>
        <time>1970-01-01T00:00:00Z</time>
      </trkpt>
      <trkpt lat="39.397752" lon="-5.287170">
        <ele>548.8</ele>
        <time>1970-01-01T00:00:00Z</time>
      </trkpt>
      <trkpt lat="39.397752" lon="-5.287170">
        <ele>548.8</ele>
        <time>1970-01-01T00:00:00Z</time>
      </trkpt>
      <trkpt lat="39.397752" lon="-5.287170">
        <ele>548.8</ele>
        <time>1970-01-01T00:00:00Z</time>
      </trkpt>
      <trkpt lat="39.397752" lon="-5.287170">
        <ele>548.8</ele>
        <time>1970-01-01T00:00:00Z</time>
      </trkpt>
      <trkpt lat="39.397810" lon="-5.286928">
        <ele>549.8</ele>
        <time>1970-01-01T00:00:00Z</time>
      </trkpt>
      <trkpt lat="39.397810" lon="-5.286928">
        <ele>549.8</ele>
        <time>1970-01-01T00:00:00Z</time>
      </trkpt>
      <trkpt lat="39.397810" lon="-5.286928">
        <ele>549.8</ele>
        <time>1970-01-01T00:00:00Z</time>
      </trkpt>
      <trkpt lat="39.397810" lon="-5.286928">
        <ele>549.8</ele>
        <time>1970-01-01T00:00:00Z</time>
      </trkpt>
      <trkpt lat="39.397843" lon="-5.286825">
        <ele>550.4</ele>
        <time>1970-01-01T00:00:00Z</time>
      </trkpt>
      <trkpt lat="39.397843" lon="-5.286825">
        <ele>550.4</ele>
        <time>1970-01-01T00:00:00Z</time>
      </trkpt>
      <trkpt lat="39.397843" lon="-5.286825">
        <ele>550.4</ele>
        <time>1970-01-01T00:00:00Z</time>
      </trkpt>
      <trkpt lat="39.397843" lon="-5.286825">
        <ele>550.4</ele>
        <time>1970-01-01T00:00:00Z</time>
      </trkpt>
      <trkpt lat="39.397885" lon="-5.286730">
        <ele>551.0</ele>
        <time>1970-01-01T00:00:00Z</time>
      </trkpt>
      <trkpt lat="39.397885" lon="-5.286730">
        <ele>551.0</ele>
        <time>1970-01-01T00:00:00Z</time>
      </trkpt>
      <trkpt lat="39.397885" lon="-5.286730">
        <ele>551.0</ele>
        <time>1970-01-01T00:00:00Z</time>
      </trkpt>
      <trkpt lat="39.397885" lon="-5.286730">
        <ele>551.0</ele>
        <time>1970-01-01T00:00:00Z</time>
      </trkpt>
      <trkpt lat="39.397959" lon="-5.286657">
        <ele>551.3</ele>
        <time>1970-01-01T00:00:00Z</time>
      </trkpt>
      <trkpt lat="39.397959" lon="-5.286657">
        <ele>551.3</ele>
        <time>1970-01-01T00:00:00Z</time>
      </trkpt>
      <trkpt lat="39.397959" lon="-5.286657">
        <ele>551.3</ele>
        <time>1970-01-01T00:00:00Z</time>
      </trkpt>
      <trkpt lat="39.397959" lon="-5.286657">
        <ele>551.3</ele>
        <time>1970-01-01T00:00:00Z</time>
      </trkpt>
      <trkpt lat="39.398036" lon="-5.286585">
        <ele>551.6</ele>
        <time>1970-01-01T00:00:00Z</time>
      </trkpt>
      <trkpt lat="39.398036" lon="-5.286585">
        <ele>551.6</ele>
        <time>1970-01-01T00:00:00Z</time>
      </trkpt>
      <trkpt lat="39.398036" lon="-5.286585">
        <ele>551.6</ele>
        <time>1970-01-01T00:00:00Z</time>
      </trkpt>
      <trkpt lat="39.398036" lon="-5.286585">
        <ele>551.6</ele>
        <time>1970-01-01T00:00:00Z</time>
      </trkpt>
      <trkpt lat="39.398106" lon="-5.286508">
        <ele>551.7</ele>
        <time>1970-01-01T00:00:00Z</time>
      </trkpt>
      <trkpt lat="39.398106" lon="-5.286508">
        <ele>551.7</ele>
        <time>1970-01-01T00:00:00Z</time>
      </trkpt>
      <trkpt lat="39.398106" lon="-5.286508">
        <ele>551.7</ele>
        <time>1970-01-01T00:00:00Z</time>
      </trkpt>
      <trkpt lat="39.398106" lon="-5.286508">
        <ele>551.7</ele>
        <time>1970-01-01T00:00:00Z</time>
      </trkpt>
      <trkpt lat="39.398183" lon="-5.286388">
        <ele>552.0</ele>
        <time>1970-01-01T00:00:00Z</time>
      </trkpt>
      <trkpt lat="39.398183" lon="-5.286388">
        <ele>552.0</ele>
        <time>1970-01-01T00:00:00Z</time>
      </trkpt>
      <trkpt lat="39.398183" lon="-5.286388">
        <ele>552.0</ele>
        <time>1970-01-01T00:00:00Z</time>
      </trkpt>
      <trkpt lat="39.398183" lon="-5.286388">
        <ele>552.0</ele>
        <time>1970-01-01T00:00:00Z</time>
      </trkpt>
      <trkpt lat="39.398276" lon="-5.286191">
        <ele>553.0</ele>
        <time>1970-01-01T00:00:00Z</time>
      </trkpt>
      <trkpt lat="39.398276" lon="-5.286191">
        <ele>553.0</ele>
        <time>1970-01-01T00:00:00Z</time>
      </trkpt>
      <trkpt lat="39.398276" lon="-5.286191">
        <ele>553.0</ele>
        <time>1970-01-01T00:00:00Z</time>
      </trkpt>
      <trkpt lat="39.398276" lon="-5.286191">
        <ele>553.0</ele>
        <time>1970-01-01T00:00:00Z</time>
      </trkpt>
      <trkpt lat="39.398430" lon="-5.285827">
        <ele>555.5</ele>
        <time>1970-01-01T00:00:00Z</time>
      </trkpt>
      <trkpt lat="39.398430" lon="-5.285827">
        <ele>555.5</ele>
        <time>1970-01-01T00:00:00Z</time>
      </trkpt>
      <trkpt lat="39.398430" lon="-5.285827">
        <ele>555.5</ele>
        <time>1970-01-01T00:00:00Z</time>
      </trkpt>
      <trkpt lat="39.398430" lon="-5.285827">
        <ele>555.5</ele>
        <time>1970-01-01T00:00:00Z</time>
      </trkpt>
      <trkpt lat="39.398497" lon="-5.285708">
        <ele>556.3</ele>
        <time>1970-01-01T00:00:00Z</time>
      </trkpt>
      <trkpt lat="39.398497" lon="-5.285708">
        <ele>556.3</ele>
        <time>1970-01-01T00:00:00Z</time>
      </trkpt>
      <trkpt lat="39.398497" lon="-5.285708">
        <ele>556.3</ele>
        <time>1970-01-01T00:00:00Z</time>
      </trkpt>
      <trkpt lat="39.398497" lon="-5.285708">
        <ele>556.3</ele>
        <time>1970-01-01T00:00:00Z</time>
      </trkpt>
      <trkpt lat="39.398509" lon="-5.285666">
        <ele>556.8</ele>
        <time>1970-01-01T00:00:00Z</time>
      </trkpt>
      <trkpt lat="39.398509" lon="-5.285666">
        <ele>556.8</ele>
        <time>1970-01-01T00:00:00Z</time>
      </trkpt>
      <trkpt lat="39.398509" lon="-5.285666">
        <ele>556.8</ele>
        <time>1970-01-01T00:00:00Z</time>
      </trkpt>
      <trkpt lat="39.398509" lon="-5.285666">
        <ele>556.8</ele>
        <time>1970-01-01T00:00:00Z</time>
      </trkpt>
      <trkpt lat="39.398556" lon="-5.285502">
        <ele>558.3</ele>
        <time>1970-01-01T00:00:00Z</time>
      </trkpt>
      <trkpt lat="39.398556" lon="-5.285502">
        <ele>558.3</ele>
        <time>1970-01-01T00:00:00Z</time>
      </trkpt>
      <trkpt lat="39.398556" lon="-5.285502">
        <ele>558.3</ele>
        <time>1970-01-01T00:00:00Z</time>
      </trkpt>
      <trkpt lat="39.398556" lon="-5.285502">
        <ele>558.3</ele>
        <time>1970-01-01T00:00:00Z</time>
      </trkpt>
      <trkpt lat="39.398623" lon="-5.285350">
        <ele>559.4</ele>
        <time>1970-01-01T00:00:00Z</time>
      </trkpt>
      <trkpt lat="39.398623" lon="-5.285350">
        <ele>559.4</ele>
        <time>1970-01-01T00:00:00Z</time>
      </trkpt>
      <trkpt lat="39.398623" lon="-5.285350">
        <ele>559.4</ele>
        <time>1970-01-01T00:00:00Z</time>
      </trkpt>
      <trkpt lat="39.398623" lon="-5.285350">
        <ele>559.4</ele>
        <time>1970-01-01T00:00:00Z</time>
      </trkpt>
      <trkpt lat="39.398909" lon="-5.285006">
        <ele>561.9</ele>
        <time>1970-01-01T00:00:00Z</time>
      </trkpt>
      <trkpt lat="39.398909" lon="-5.285006">
        <ele>561.9</ele>
        <time>1970-01-01T00:00:00Z</time>
      </trkpt>
      <trkpt lat="39.398909" lon="-5.285006">
        <ele>561.9</ele>
        <time>1970-01-01T00:00:00Z</time>
      </trkpt>
      <trkpt lat="39.398909" lon="-5.285006">
        <ele>561.9</ele>
        <time>1970-01-01T00:00:00Z</time>
      </trkpt>
      <trkpt lat="39.399060" lon="-5.284842">
        <ele>562.3</ele>
        <time>1970-01-01T00:00:00Z</time>
      </trkpt>
      <trkpt lat="39.399060" lon="-5.284842">
        <ele>562.3</ele>
        <time>1970-01-01T00:00:00Z</time>
      </trkpt>
      <trkpt lat="39.399060" lon="-5.284842">
        <ele>562.3</ele>
        <time>1970-01-01T00:00:00Z</time>
      </trkpt>
      <trkpt lat="39.399060" lon="-5.284842">
        <ele>562.3</ele>
        <time>1970-01-01T00:00:00Z</time>
      </trkpt>
      <trkpt lat="39.399201" lon="-5.284669">
        <ele>563.3</ele>
        <time>1970-01-01T00:00:00Z</time>
      </trkpt>
      <trkpt lat="39.399201" lon="-5.284669">
        <ele>563.3</ele>
        <time>1970-01-01T00:00:00Z</time>
      </trkpt>
      <trkpt lat="39.399201" lon="-5.284669">
        <ele>563.3</ele>
        <time>1970-01-01T00:00:00Z</time>
      </trkpt>
      <trkpt lat="39.399201" lon="-5.284669">
        <ele>563.3</ele>
        <time>1970-01-01T00:00:00Z</time>
      </trkpt>
      <trkpt lat="39.399314" lon="-5.284512">
        <ele>563.7</ele>
        <time>1970-01-01T00:00:00Z</time>
      </trkpt>
      <trkpt lat="39.399314" lon="-5.284512">
        <ele>563.7</ele>
        <time>1970-01-01T00:00:00Z</time>
      </trkpt>
      <trkpt lat="39.399314" lon="-5.284512">
        <ele>563.7</ele>
        <time>1970-01-01T00:00:00Z</time>
      </trkpt>
      <trkpt lat="39.399314" lon="-5.284512">
        <ele>563.7</ele>
        <time>1970-01-01T00:00:00Z</time>
      </trkpt>
      <trkpt lat="39.399396" lon="-5.284359">
        <ele>563.3</ele>
        <time>1970-01-01T00:00:00Z</time>
      </trkpt>
      <trkpt lat="39.399396" lon="-5.284359">
        <ele>563.3</ele>
        <time>1970-01-01T00:00:00Z</time>
      </trkpt>
      <trkpt lat="39.399396" lon="-5.284359">
        <ele>563.3</ele>
        <time>1970-01-01T00:00:00Z</time>
      </trkpt>
      <trkpt lat="39.399396" lon="-5.284359">
        <ele>563.3</ele>
        <time>1970-01-01T00:00:00Z</time>
      </trkpt>
      <trkpt lat="39.399466" lon="-5.284293">
        <ele>563.2</ele>
        <time>1970-01-01T00:00:00Z</time>
      </trkpt>
      <trkpt lat="39.399466" lon="-5.284293">
        <ele>563.2</ele>
        <time>1970-01-01T00:00:00Z</time>
      </trkpt>
      <trkpt lat="39.399466" lon="-5.284293">
        <ele>563.2</ele>
        <time>1970-01-01T00:00:00Z</time>
      </trkpt>
      <trkpt lat="39.399466" lon="-5.284293">
        <ele>563.2</ele>
        <time>1970-01-01T00:00:00Z</time>
      </trkpt>
      <trkpt lat="39.399547" lon="-5.284238">
        <ele>563.1</ele>
        <time>1970-01-01T00:00:00Z</time>
      </trkpt>
      <trkpt lat="39.399547" lon="-5.284238">
        <ele>563.1</ele>
        <time>1970-01-01T00:00:00Z</time>
      </trkpt>
      <trkpt lat="39.399547" lon="-5.284238">
        <ele>563.1</ele>
        <time>1970-01-01T00:00:00Z</time>
      </trkpt>
      <trkpt lat="39.399547" lon="-5.284238">
        <ele>563.1</ele>
        <time>1970-01-01T00:00:00Z</time>
      </trkpt>
      <trkpt lat="39.399665" lon="-5.284179">
        <ele>562.7</ele>
        <time>1970-01-01T00:00:00Z</time>
      </trkpt>
      <trkpt lat="39.399665" lon="-5.284179">
        <ele>562.7</ele>
        <time>1970-01-01T00:00:00Z</time>
      </trkpt>
      <trkpt lat="39.399665" lon="-5.284179">
        <ele>562.7</ele>
        <time>1970-01-01T00:00:00Z</time>
      </trkpt>
      <trkpt lat="39.399665" lon="-5.284179">
        <ele>562.7</ele>
        <time>1970-01-01T00:00:00Z</time>
      </trkpt>
      <trkpt lat="39.399936" lon="-5.284003">
        <ele>562.6</ele>
        <time>1970-01-01T00:00:00Z</time>
      </trkpt>
      <trkpt lat="39.399936" lon="-5.284003">
        <ele>562.6</ele>
        <time>1970-01-01T00:00:00Z</time>
      </trkpt>
      <trkpt lat="39.399936" lon="-5.284003">
        <ele>562.6</ele>
        <time>1970-01-01T00:00:00Z</time>
      </trkpt>
      <trkpt lat="39.399936" lon="-5.284003">
        <ele>562.6</ele>
        <time>1970-01-01T00:00:00Z</time>
      </trkpt>
      <trkpt lat="39.399978" lon="-5.283960">
        <ele>562.8</ele>
        <time>1970-01-01T00:00:00Z</time>
      </trkpt>
      <trkpt lat="39.399978" lon="-5.283960">
        <ele>562.8</ele>
        <time>1970-01-01T00:00:00Z</time>
      </trkpt>
      <trkpt lat="39.399978" lon="-5.283960">
        <ele>562.8</ele>
        <time>1970-01-01T00:00:00Z</time>
      </trkpt>
      <trkpt lat="39.399978" lon="-5.283960">
        <ele>562.8</ele>
        <time>1970-01-01T00:00:00Z</time>
      </trkpt>
      <trkpt lat="39.400085" lon="-5.283865">
        <ele>562.9</ele>
        <time>1970-01-01T00:00:00Z</time>
      </trkpt>
      <trkpt lat="39.400085" lon="-5.283865">
        <ele>562.9</ele>
        <time>1970-01-01T00:00:00Z</time>
      </trkpt>
      <trkpt lat="39.400085" lon="-5.283865">
        <ele>562.9</ele>
        <time>1970-01-01T00:00:00Z</time>
      </trkpt>
      <trkpt lat="39.400085" lon="-5.283865">
        <ele>562.9</ele>
        <time>1970-01-01T00:00:00Z</time>
      </trkpt>
      <trkpt lat="39.400163" lon="-5.283751">
        <ele>562.5</ele>
        <time>1970-01-01T00:00:00Z</time>
      </trkpt>
      <trkpt lat="39.400163" lon="-5.283751">
        <ele>562.5</ele>
        <time>1970-01-01T00:00:00Z</time>
      </trkpt>
      <trkpt lat="39.400163" lon="-5.283751">
        <ele>562.5</ele>
        <time>1970-01-01T00:00:00Z</time>
      </trkpt>
      <trkpt lat="39.400163" lon="-5.283751">
        <ele>562.5</ele>
        <time>1970-01-01T00:00:00Z</time>
      </trkpt>
      <trkpt lat="39.400330" lon="-5.283509">
        <ele>560.8</ele>
        <time>1970-01-01T00:00:00Z</time>
      </trkpt>
      <trkpt lat="39.400330" lon="-5.283509">
        <ele>560.8</ele>
        <time>1970-01-01T00:00:00Z</time>
      </trkpt>
      <trkpt lat="39.400330" lon="-5.283509">
        <ele>560.8</ele>
        <time>1970-01-01T00:00:00Z</time>
      </trkpt>
      <trkpt lat="39.400330" lon="-5.283509">
        <ele>560.8</ele>
        <time>1970-01-01T00:00:00Z</time>
      </trkpt>
      <trkpt lat="39.400365" lon="-5.283446">
        <ele>560.3</ele>
        <time>1970-01-01T00:00:00Z</time>
      </trkpt>
      <trkpt lat="39.400365" lon="-5.283446">
        <ele>560.3</ele>
        <time>1970-01-01T00:00:00Z</time>
      </trkpt>
      <trkpt lat="39.400365" lon="-5.283446">
        <ele>560.3</ele>
        <time>1970-01-01T00:00:00Z</time>
      </trkpt>
      <trkpt lat="39.400365" lon="-5.283446">
        <ele>560.3</ele>
        <time>1970-01-01T00:00:00Z</time>
      </trkpt>
      <trkpt lat="39.400381" lon="-5.283365">
        <ele>559.7</ele>
        <time>1970-01-01T00:00:00Z</time>
      </trkpt>
      <trkpt lat="39.400381" lon="-5.283365">
        <ele>559.7</ele>
        <time>1970-01-01T00:00:00Z</time>
      </trkpt>
      <trkpt lat="39.400381" lon="-5.283365">
        <ele>559.7</ele>
        <time>1970-01-01T00:00:00Z</time>
      </trkpt>
      <trkpt lat="39.400381" lon="-5.283365">
        <ele>559.7</ele>
        <time>1970-01-01T00:00:00Z</time>
      </trkpt>
      <trkpt lat="39.400412" lon="-5.283225">
        <ele>558.6</ele>
        <time>1970-01-01T00:00:00Z</time>
      </trkpt>
      <trkpt lat="39.400412" lon="-5.283225">
        <ele>558.6</ele>
        <time>1970-01-01T00:00:00Z</time>
      </trkpt>
      <trkpt lat="39.400412" lon="-5.283225">
        <ele>558.6</ele>
        <time>1970-01-01T00:00:00Z</time>
      </trkpt>
      <trkpt lat="39.400412" lon="-5.283225">
        <ele>558.6</ele>
        <time>1970-01-01T00:00:00Z</time>
      </trkpt>
      <trkpt lat="39.400454" lon="-5.283027">
        <ele>557.5</ele>
        <time>1970-01-01T00:00:00Z</time>
      </trkpt>
      <trkpt lat="39.400454" lon="-5.283027">
        <ele>557.5</ele>
        <time>1970-01-01T00:00:00Z</time>
      </trkpt>
      <trkpt lat="39.400454" lon="-5.283027">
        <ele>557.5</ele>
        <time>1970-01-01T00:00:00Z</time>
      </trkpt>
      <trkpt lat="39.400454" lon="-5.283027">
        <ele>557.5</ele>
        <time>1970-01-01T00:00:00Z</time>
      </trkpt>
      <trkpt lat="39.400491" lon="-5.282878">
        <ele>556.3</ele>
        <time>1970-01-01T00:00:00Z</time>
      </trkpt>
      <trkpt lat="39.400491" lon="-5.282878">
        <ele>556.3</ele>
        <time>1970-01-01T00:00:00Z</time>
      </trkpt>
      <trkpt lat="39.400491" lon="-5.282878">
        <ele>556.3</ele>
        <time>1970-01-01T00:00:00Z</time>
      </trkpt>
      <trkpt lat="39.400491" lon="-5.282878">
        <ele>556.3</ele>
        <time>1970-01-01T00:00:00Z</time>
      </trkpt>
      <trkpt lat="39.400550" lon="-5.282748">
        <ele>554.6</ele>
        <time>1970-01-01T00:00:00Z</time>
      </trkpt>
      <trkpt lat="39.400550" lon="-5.282748">
        <ele>554.6</ele>
        <time>1970-01-01T00:00:00Z</time>
      </trkpt>
      <trkpt lat="39.400550" lon="-5.282748">
        <ele>554.6</ele>
        <time>1970-01-01T00:00:00Z</time>
      </trkpt>
      <trkpt lat="39.400550" lon="-5.282748">
        <ele>554.6</ele>
        <time>1970-01-01T00:00:00Z</time>
      </trkpt>
      <trkpt lat="39.400615" lon="-5.282621">
        <ele>553.2</ele>
        <time>1970-01-01T00:00:00Z</time>
      </trkpt>
      <trkpt lat="39.400615" lon="-5.282621">
        <ele>553.2</ele>
        <time>1970-01-01T00:00:00Z</time>
      </trkpt>
      <trkpt lat="39.400615" lon="-5.282621">
        <ele>553.2</ele>
        <time>1970-01-01T00:00:00Z</time>
      </trkpt>
      <trkpt lat="39.400615" lon="-5.282621">
        <ele>553.2</ele>
        <time>1970-01-01T00:00:00Z</time>
      </trkpt>
      <trkpt lat="39.400655" lon="-5.282556">
        <ele>552.6</ele>
        <time>1970-01-01T00:00:00Z</time>
      </trkpt>
      <trkpt lat="39.400655" lon="-5.282556">
        <ele>552.6</ele>
        <time>1970-01-01T00:00:00Z</time>
      </trkpt>
      <trkpt lat="39.400655" lon="-5.282556">
        <ele>552.6</ele>
        <time>1970-01-01T00:00:00Z</time>
      </trkpt>
      <trkpt lat="39.400655" lon="-5.282556">
        <ele>552.6</ele>
        <time>1970-01-01T00:00:00Z</time>
      </trkpt>
      <trkpt lat="39.400722" lon="-5.282416">
        <ele>551.2</ele>
        <time>1970-01-01T00:00:00Z</time>
      </trkpt>
      <trkpt lat="39.400722" lon="-5.282416">
        <ele>551.2</ele>
        <time>1970-01-01T00:00:00Z</time>
      </trkpt>
      <trkpt lat="39.400722" lon="-5.282416">
        <ele>551.2</ele>
        <time>1970-01-01T00:00:00Z</time>
      </trkpt>
      <trkpt lat="39.400722" lon="-5.282416">
        <ele>551.2</ele>
        <time>1970-01-01T00:00:00Z</time>
      </trkpt>
      <trkpt lat="39.400712" lon="-5.282275">
        <ele>549.6</ele>
        <time>1970-01-01T00:00:00Z</time>
      </trkpt>
      <trkpt lat="39.400712" lon="-5.282275">
        <ele>549.6</ele>
        <time>1970-01-01T00:00:00Z</time>
      </trkpt>
      <trkpt lat="39.400712" lon="-5.282275">
        <ele>549.6</ele>
        <time>1970-01-01T00:00:00Z</time>
      </trkpt>
      <trkpt lat="39.400712" lon="-5.282275">
        <ele>549.6</ele>
        <time>1970-01-01T00:00:00Z</time>
      </trkpt>
      <trkpt lat="39.400686" lon="-5.282129">
        <ele>547.3</ele>
        <time>1970-01-01T00:00:00Z</time>
      </trkpt>
      <trkpt lat="39.400686" lon="-5.282129">
        <ele>547.3</ele>
        <time>1970-01-01T00:00:00Z</time>
      </trkpt>
      <trkpt lat="39.400686" lon="-5.282129">
        <ele>547.3</ele>
        <time>1970-01-01T00:00:00Z</time>
      </trkpt>
      <trkpt lat="39.400686" lon="-5.282129">
        <ele>547.3</ele>
        <time>1970-01-01T00:00:00Z</time>
      </trkpt>
      <trkpt lat="39.400679" lon="-5.282035">
        <ele>545.7</ele>
        <time>1970-01-01T00:00:00Z</time>
      </trkpt>
      <trkpt lat="39.400679" lon="-5.282035">
        <ele>545.7</ele>
        <time>1970-01-01T00:00:00Z</time>
      </trkpt>
      <trkpt lat="39.400679" lon="-5.282035">
        <ele>545.7</ele>
        <time>1970-01-01T00:00:00Z</time>
      </trkpt>
      <trkpt lat="39.400679" lon="-5.282035">
        <ele>545.7</ele>
        <time>1970-01-01T00:00:00Z</time>
      </trkpt>
      <trkpt lat="39.400703" lon="-5.281923">
        <ele>544.6</ele>
        <time>1970-01-01T00:00:00Z</time>
      </trkpt>
      <trkpt lat="39.400703" lon="-5.281923">
        <ele>544.6</ele>
        <time>1970-01-01T00:00:00Z</time>
      </trkpt>
      <trkpt lat="39.400703" lon="-5.281923">
        <ele>544.6</ele>
        <time>1970-01-01T00:00:00Z</time>
      </trkpt>
      <trkpt lat="39.400703" lon="-5.281923">
        <ele>544.6</ele>
        <time>1970-01-01T00:00:00Z</time>
      </trkpt>
      <trkpt lat="39.400779" lon="-5.281534">
        <ele>540.3</ele>
        <time>1970-01-01T00:00:00Z</time>
      </trkpt>
      <trkpt lat="39.400779" lon="-5.281534">
        <ele>540.3</ele>
        <time>1970-01-01T00:00:00Z</time>
      </trkpt>
      <trkpt lat="39.400779" lon="-5.281534">
        <ele>540.3</ele>
        <time>1970-01-01T00:00:00Z</time>
      </trkpt>
      <trkpt lat="39.400779" lon="-5.281534">
        <ele>540.3</ele>
        <time>1970-01-01T00:00:00Z</time>
      </trkpt>
      <trkpt lat="39.400803" lon="-5.281381">
        <ele>539.4</ele>
        <time>1970-01-01T00:00:00Z</time>
      </trkpt>
      <trkpt lat="39.400803" lon="-5.281381">
        <ele>539.4</ele>
        <time>1970-01-01T00:00:00Z</time>
      </trkpt>
      <trkpt lat="39.400803" lon="-5.281381">
        <ele>539.4</ele>
        <time>1970-01-01T00:00:00Z</time>
      </trkpt>
      <trkpt lat="39.400803" lon="-5.281381">
        <ele>539.4</ele>
        <time>1970-01-01T00:00:00Z</time>
      </trkpt>
      <trkpt lat="39.400822" lon="-5.281139">
        <ele>537.3</ele>
        <time>1970-01-01T00:00:00Z</time>
      </trkpt>
      <trkpt lat="39.400822" lon="-5.281139">
        <ele>537.3</ele>
        <time>1970-01-01T00:00:00Z</time>
      </trkpt>
      <trkpt lat="39.400822" lon="-5.281139">
        <ele>537.3</ele>
        <time>1970-01-01T00:00:00Z</time>
      </trkpt>
      <trkpt lat="39.400822" lon="-5.281139">
        <ele>537.3</ele>
        <time>1970-01-01T00:00:00Z</time>
      </trkpt>
      <trkpt lat="39.400826" lon="-5.280949">
        <ele>535.6</ele>
        <time>1970-01-01T00:00:00Z</time>
      </trkpt>
      <trkpt lat="39.400826" lon="-5.280949">
        <ele>535.6</ele>
        <time>1970-01-01T00:00:00Z</time>
      </trkpt>
      <trkpt lat="39.400826" lon="-5.280949">
        <ele>535.6</ele>
        <time>1970-01-01T00:00:00Z</time>
      </trkpt>
      <trkpt lat="39.400826" lon="-5.280949">
        <ele>535.6</ele>
        <time>1970-01-01T00:00:00Z</time>
      </trkpt>
      <trkpt lat="39.400841" lon="-5.280738">
        <ele>533.7</ele>
        <time>1970-01-01T00:00:00Z</time>
      </trkpt>
      <trkpt lat="39.400841" lon="-5.280738">
        <ele>533.7</ele>
        <time>1970-01-01T00:00:00Z</time>
      </trkpt>
      <trkpt lat="39.400841" lon="-5.280738">
        <ele>533.7</ele>
        <time>1970-01-01T00:00:00Z</time>
      </trkpt>
      <trkpt lat="39.400841" lon="-5.280738">
        <ele>533.7</ele>
        <time>1970-01-01T00:00:00Z</time>
      </trkpt>
      <trkpt lat="39.400862" lon="-5.280612">
        <ele>532.7</ele>
        <time>1970-01-01T00:00:00Z</time>
      </trkpt>
      <trkpt lat="39.400862" lon="-5.280612">
        <ele>532.7</ele>
        <time>1970-01-01T00:00:00Z</time>
      </trkpt>
      <trkpt lat="39.400862" lon="-5.280612">
        <ele>532.7</ele>
        <time>1970-01-01T00:00:00Z</time>
      </trkpt>
      <trkpt lat="39.400862" lon="-5.280612">
        <ele>532.7</ele>
        <time>1970-01-01T00:00:00Z</time>
      </trkpt>
      <trkpt lat="39.400921" lon="-5.280489">
        <ele>531.9</ele>
        <time>1970-01-01T00:00:00Z</time>
      </trkpt>
      <trkpt lat="39.400921" lon="-5.280489">
        <ele>531.9</ele>
        <time>1970-01-01T00:00:00Z</time>
      </trkpt>
      <trkpt lat="39.400921" lon="-5.280489">
        <ele>531.9</ele>
        <time>1970-01-01T00:00:00Z</time>
      </trkpt>
      <trkpt lat="39.400921" lon="-5.280489">
        <ele>531.9</ele>
        <time>1970-01-01T00:00:00Z</time>
      </trkpt>
      <trkpt lat="39.400979" lon="-5.280417">
        <ele>531.3</ele>
        <time>1970-01-01T00:00:00Z</time>
      </trkpt>
      <trkpt lat="39.400979" lon="-5.280417">
        <ele>531.3</ele>
        <time>1970-01-01T00:00:00Z</time>
      </trkpt>
      <trkpt lat="39.400979" lon="-5.280417">
        <ele>531.3</ele>
        <time>1970-01-01T00:00:00Z</time>
      </trkpt>
      <trkpt lat="39.400979" lon="-5.280417">
        <ele>531.3</ele>
        <time>1970-01-01T00:00:00Z</time>
      </trkpt>
      <trkpt lat="39.401046" lon="-5.280315">
        <ele>530.2</ele>
        <time>1970-01-01T00:00:00Z</time>
      </trkpt>
      <trkpt lat="39.401046" lon="-5.280315">
        <ele>530.2</ele>
        <time>1970-01-01T00:00:00Z</time>
      </trkpt>
      <trkpt lat="39.401046" lon="-5.280315">
        <ele>530.2</ele>
        <time>1970-01-01T00:00:00Z</time>
      </trkpt>
      <trkpt lat="39.401046" lon="-5.280315">
        <ele>530.2</ele>
        <time>1970-01-01T00:00:00Z</time>
      </trkpt>
      <trkpt lat="39.401100" lon="-5.280209">
        <ele>529.0</ele>
        <time>1970-01-01T00:00:00Z</time>
      </trkpt>
      <trkpt lat="39.401100" lon="-5.280209">
        <ele>529.0</ele>
        <time>1970-01-01T00:00:00Z</time>
      </trkpt>
      <trkpt lat="39.401100" lon="-5.280209">
        <ele>529.0</ele>
        <time>1970-01-01T00:00:00Z</time>
      </trkpt>
      <trkpt lat="39.401100" lon="-5.280209">
        <ele>529.0</ele>
        <time>1970-01-01T00:00:00Z</time>
      </trkpt>
      <trkpt lat="39.401123" lon="-5.280142">
        <ele>528.4</ele>
        <time>1970-01-01T00:00:00Z</time>
      </trkpt>
      <trkpt lat="39.401123" lon="-5.280142">
        <ele>528.4</ele>
        <time>1970-01-01T00:00:00Z</time>
      </trkpt>
      <trkpt lat="39.401123" lon="-5.280142">
        <ele>528.4</ele>
        <time>1970-01-01T00:00:00Z</time>
      </trkpt>
      <trkpt lat="39.401123" lon="-5.280142">
        <ele>528.4</ele>
        <time>1970-01-01T00:00:00Z</time>
      </trkpt>
      <trkpt lat="39.401148" lon="-5.280020">
        <ele>527.2</ele>
        <time>1970-01-01T00:00:00Z</time>
      </trkpt>
      <trkpt lat="39.401148" lon="-5.280020">
        <ele>527.2</ele>
        <time>1970-01-01T00:00:00Z</time>
      </trkpt>
      <trkpt lat="39.401148" lon="-5.280020">
        <ele>527.2</ele>
        <time>1970-01-01T00:00:00Z</time>
      </trkpt>
      <trkpt lat="39.401148" lon="-5.280020">
        <ele>527.2</ele>
        <time>1970-01-01T00:00:00Z</time>
      </trkpt>
      <trkpt lat="39.401227" lon="-5.279403">
        <ele>520.4</ele>
        <time>1970-01-01T00:00:00Z</time>
      </trkpt>
      <trkpt lat="39.401227" lon="-5.279403">
        <ele>520.4</ele>
        <time>1970-01-01T00:00:00Z</time>
      </trkpt>
      <trkpt lat="39.401227" lon="-5.279403">
        <ele>520.4</ele>
        <time>1970-01-01T00:00:00Z</time>
      </trkpt>
      <trkpt lat="39.401227" lon="-5.279403">
        <ele>520.4</ele>
        <time>1970-01-01T00:00:00Z</time>
      </trkpt>
      <trkpt lat="39.401248" lon="-5.279246">
        <ele>518.2</ele>
        <time>1970-01-01T00:00:00Z</time>
      </trkpt>
      <trkpt lat="39.401248" lon="-5.279246">
        <ele>518.2</ele>
        <time>1970-01-01T00:00:00Z</time>
      </trkpt>
      <trkpt lat="39.401248" lon="-5.279246">
        <ele>518.2</ele>
        <time>1970-01-01T00:00:00Z</time>
      </trkpt>
      <trkpt lat="39.401248" lon="-5.279246">
        <ele>518.2</ele>
        <time>1970-01-01T00:00:00Z</time>
      </trkpt>
      <trkpt lat="39.401258" lon="-5.279071">
        <ele>517.4</ele>
        <time>1970-01-01T00:00:00Z</time>
      </trkpt>
      <trkpt lat="39.401258" lon="-5.279071">
        <ele>517.4</ele>
        <time>1970-01-01T00:00:00Z</time>
      </trkpt>
      <trkpt lat="39.401258" lon="-5.279071">
        <ele>517.4</ele>
        <time>1970-01-01T00:00:00Z</time>
      </trkpt>
      <trkpt lat="39.401258" lon="-5.279071">
        <ele>517.4</ele>
        <time>1970-01-01T00:00:00Z</time>
      </trkpt>
      <trkpt lat="39.401262" lon="-5.278899">
        <ele>516.6</ele>
        <time>1970-01-01T00:00:00Z</time>
      </trkpt>
      <trkpt lat="39.401262" lon="-5.278899">
        <ele>516.6</ele>
        <time>1970-01-01T00:00:00Z</time>
      </trkpt>
      <trkpt lat="39.401262" lon="-5.278899">
        <ele>516.6</ele>
        <time>1970-01-01T00:00:00Z</time>
      </trkpt>
      <trkpt lat="39.401262" lon="-5.278899">
        <ele>516.6</ele>
        <time>1970-01-01T00:00:00Z</time>
      </trkpt>
      <trkpt lat="39.401281" lon="-5.278721">
        <ele>515.7</ele>
        <time>1970-01-01T00:00:00Z</time>
      </trkpt>
      <trkpt lat="39.401281" lon="-5.278721">
        <ele>515.7</ele>
        <time>1970-01-01T00:00:00Z</time>
      </trkpt>
      <trkpt lat="39.401281" lon="-5.278721">
        <ele>515.7</ele>
        <time>1970-01-01T00:00:00Z</time>
      </trkpt>
      <trkpt lat="39.401281" lon="-5.278721">
        <ele>515.7</ele>
        <time>1970-01-01T00:00:00Z</time>
      </trkpt>
      <trkpt lat="39.401340" lon="-5.278418">
        <ele>514.8</ele>
        <time>1970-01-01T00:00:00Z</time>
      </trkpt>
      <trkpt lat="39.401340" lon="-5.278418">
        <ele>514.8</ele>
        <time>1970-01-01T00:00:00Z</time>
      </trkpt>
      <trkpt lat="39.401340" lon="-5.278418">
        <ele>514.8</ele>
        <time>1970-01-01T00:00:00Z</time>
      </trkpt>
      <trkpt lat="39.401340" lon="-5.278418">
        <ele>514.8</ele>
        <time>1970-01-01T00:00:00Z</time>
      </trkpt>
      <trkpt lat="39.401355" lon="-5.278327">
        <ele>514.7</ele>
        <time>1970-01-01T00:00:00Z</time>
      </trkpt>
      <trkpt lat="39.401355" lon="-5.278327">
        <ele>514.7</ele>
        <time>1970-01-01T00:00:00Z</time>
      </trkpt>
      <trkpt lat="39.401355" lon="-5.278327">
        <ele>514.7</ele>
        <time>1970-01-01T00:00:00Z</time>
      </trkpt>
      <trkpt lat="39.401355" lon="-5.278327">
        <ele>514.7</ele>
        <time>1970-01-01T00:00:00Z</time>
      </trkpt>
    </trkseg>
    <trkseg>
      <trkpt lat="39.401355" lon="-5.278327">
        <ele>514.7</ele>
        <time>1970-01-01T00:00:00Z</time>
      </trkpt>
      <trkpt lat="39.401355" lon="-5.278327">
        <ele>514.7</ele>
        <time>1970-01-01T00:00:00Z</time>
      </trkpt>
      <trkpt lat="39.401355" lon="-5.278327">
        <ele>514.7</ele>
        <time>1970-01-01T00:00:00Z</time>
      </trkpt>
      <trkpt lat="39.401355" lon="-5.278327">
        <ele>514.7</ele>
        <time>1970-01-01T00:00:00Z</time>
      </trkpt>
      <trkpt lat="39.401399" lon="-5.278337">
        <ele>514.5</ele>
        <time>1970-01-01T00:00:00Z</time>
      </trkpt>
      <trkpt lat="39.401399" lon="-5.278337">
        <ele>514.5</ele>
        <time>1970-01-01T00:00:00Z</time>
      </trkpt>
      <trkpt lat="39.401399" lon="-5.278337">
        <ele>514.5</ele>
        <time>1970-01-01T00:00:00Z</time>
      </trkpt>
      <trkpt lat="39.401399" lon="-5.278337">
        <ele>514.5</ele>
        <time>1970-01-01T00:00:00Z</time>
      </trkpt>
      <trkpt lat="39.401449" lon="-5.278384">
        <ele>514.5</ele>
        <time>1970-01-01T00:00:00Z</time>
      </trkpt>
      <trkpt lat="39.401449" lon="-5.278384">
        <ele>514.5</ele>
        <time>1970-01-01T00:00:00Z</time>
      </trkpt>
      <trkpt lat="39.401449" lon="-5.278384">
        <ele>514.5</ele>
        <time>1970-01-01T00:00:00Z</time>
      </trkpt>
      <trkpt lat="39.401449" lon="-5.278384">
        <ele>514.5</ele>
        <time>1970-01-01T00:00:00Z</time>
      </trkpt>
      <trkpt lat="39.401495" lon="-5.278436">
        <ele>514.5</ele>
        <time>1970-01-01T00:00:00Z</time>
      </trkpt>
      <trkpt lat="39.401495" lon="-5.278436">
        <ele>514.5</ele>
        <time>1970-01-01T00:00:00Z</time>
      </trkpt>
      <trkpt lat="39.401495" lon="-5.278436">
        <ele>514.5</ele>
        <time>1970-01-01T00:00:00Z</time>
      </trkpt>
      <trkpt lat="39.401495" lon="-5.278436">
        <ele>514.5</ele>
        <time>1970-01-01T00:00:00Z</time>
      </trkpt>
      <trkpt lat="39.401519" lon="-5.278606">
        <ele>515.3</ele>
        <time>1970-01-01T00:00:00Z</time>
      </trkpt>
      <trkpt lat="39.401519" lon="-5.278606">
        <ele>515.3</ele>
        <time>1970-01-01T00:00:00Z</time>
      </trkpt>
      <trkpt lat="39.401519" lon="-5.278606">
        <ele>515.3</ele>
        <time>1970-01-01T00:00:00Z</time>
      </trkpt>
      <trkpt lat="39.401519" lon="-5.278606">
        <ele>515.3</ele>
        <time>1970-01-01T00:00:00Z</time>
      </trkpt>
      <trkpt lat="39.401523" lon="-5.278867">
        <ele>516.2</ele>
        <time>1970-01-01T00:00:00Z</time>
      </trkpt>
      <trkpt lat="39.401523" lon="-5.278867">
        <ele>516.2</ele>
        <time>1970-01-01T00:00:00Z</time>
      </trkpt>
      <trkpt lat="39.401523" lon="-5.278867">
        <ele>516.2</ele>
        <time>1970-01-01T00:00:00Z</time>
      </trkpt>
      <trkpt lat="39.401523" lon="-5.278867">
        <ele>516.2</ele>
        <time>1970-01-01T00:00:00Z</time>
      </trkpt>
      <trkpt lat="39.401540" lon="-5.279175">
        <ele>517.8</ele>
        <time>1970-01-01T00:00:00Z</time>
      </trkpt>
      <trkpt lat="39.401540" lon="-5.279175">
        <ele>517.8</ele>
        <time>1970-01-01T00:00:00Z</time>
      </trkpt>
      <trkpt lat="39.401540" lon="-5.279175">
        <ele>517.8</ele>
        <time>1970-01-01T00:00:00Z</time>
      </trkpt>
      <trkpt lat="39.401540" lon="-5.279175">
        <ele>517.8</ele>
        <time>1970-01-01T00:00:00Z</time>
      </trkpt>
      <trkpt lat="39.401545" lon="-5.279405">
        <ele>519.8</ele>
        <time>1970-01-01T00:00:00Z</time>
      </trkpt>
      <trkpt lat="39.401545" lon="-5.279405">
        <ele>519.8</ele>
        <time>1970-01-01T00:00:00Z</time>
      </trkpt>
      <trkpt lat="39.401545" lon="-5.279405">
        <ele>519.8</ele>
        <time>1970-01-01T00:00:00Z</time>
      </trkpt>
      <trkpt lat="39.401545" lon="-5.279405">
        <ele>519.8</ele>
        <time>1970-01-01T00:00:00Z</time>
      </trkpt>
      <trkpt lat="39.401542" lon="-5.279544">
        <ele>521.2</ele>
        <time>1970-01-01T00:00:00Z</time>
      </trkpt>
      <trkpt lat="39.401542" lon="-5.279544">
        <ele>521.2</ele>
        <time>1970-01-01T00:00:00Z</time>
      </trkpt>
      <trkpt lat="39.401542" lon="-5.279544">
        <ele>521.2</ele>
        <time>1970-01-01T00:00:00Z</time>
      </trkpt>
      <trkpt lat="39.401542" lon="-5.279544">
        <ele>521.2</ele>
        <time>1970-01-01T00:00:00Z</time>
      </trkpt>
      <trkpt lat="39.401462" lon="-5.279860">
        <ele>524.9</ele>
        <time>1970-01-01T00:00:00Z</time>
      </trkpt>
      <trkpt lat="39.401462" lon="-5.279860">
        <ele>524.9</ele>
        <time>1970-01-01T00:00:00Z</time>
      </trkpt>
      <trkpt lat="39.401462" lon="-5.279860">
        <ele>524.9</ele>
        <time>1970-01-01T00:00:00Z</time>
      </trkpt>
      <trkpt lat="39.401462" lon="-5.279860">
        <ele>524.9</ele>
        <time>1970-01-01T00:00:00Z</time>
      </trkpt>
      <trkpt lat="39.401395" lon="-5.280076">
        <ele>527.4</ele>
        <time>1970-01-01T00:00:00Z</time>
      </trkpt>
      <trkpt lat="39.401395" lon="-5.280076">
        <ele>527.4</ele>
        <time>1970-01-01T00:00:00Z</time>
      </trkpt>
      <trkpt lat="39.401395" lon="-5.280076">
        <ele>527.4</ele>
        <time>1970-01-01T00:00:00Z</time>
      </trkpt>
      <trkpt lat="39.401395" lon="-5.280076">
        <ele>527.4</ele>
        <time>1970-01-01T00:00:00Z</time>
      </trkpt>
      <trkpt lat="39.401324" lon="-5.280347">
        <ele>529.7</ele>
        <time>1970-01-01T00:00:00Z</time>
      </trkpt>
      <trkpt lat="39.401324" lon="-5.280347">
        <ele>529.7</ele>
        <time>1970-01-01T00:00:00Z</time>
      </trkpt>
      <trkpt lat="39.401324" lon="-5.280347">
        <ele>529.7</ele>
        <time>1970-01-01T00:00:00Z</time>
      </trkpt>
      <trkpt lat="39.401324" lon="-5.280347">
        <ele>529.7</ele>
        <time>1970-01-01T00:00:00Z</time>
      </trkpt>
      <trkpt lat="39.401260" lon="-5.280579">
        <ele>531.5</ele>
        <time>1970-01-01T00:00:00Z</time>
      </trkpt>
      <trkpt lat="39.401260" lon="-5.280579">
        <ele>531.5</ele>
        <time>1970-01-01T00:00:00Z</time>
      </trkpt>
      <trkpt lat="39.401260" lon="-5.280579">
        <ele>531.5</ele>
        <time>1970-01-01T00:00:00Z</time>
      </trkpt>
      <trkpt lat="39.401260" lon="-5.280579">
        <ele>531.5</ele>
        <time>1970-01-01T00:00:00Z</time>
      </trkpt>
      <trkpt lat="39.401206" lon="-5.280731">
        <ele>532.8</ele>
        <time>1970-01-01T00:00:00Z</time>
      </trkpt>
      <trkpt lat="39.401206" lon="-5.280731">
        <ele>532.8</ele>
        <time>1970-01-01T00:00:00Z</time>
      </trkpt>
      <trkpt lat="39.401206" lon="-5.280731">
        <ele>532.8</ele>
        <time>1970-01-01T00:00:00Z</time>
      </trkpt>
      <trkpt lat="39.401206" lon="-5.280731">
        <ele>532.8</ele>
        <time>1970-01-01T00:00:00Z</time>
      </trkpt>
      <trkpt lat="39.401147" lon="-5.280869">
        <ele>534.0</ele>
        <time>1970-01-01T00:00:00Z</time>
      </trkpt>
      <trkpt lat="39.401147" lon="-5.280869">
        <ele>534.0</ele>
        <time>1970-01-01T00:00:00Z</time>
      </trkpt>
      <trkpt lat="39.401147" lon="-5.280869">
        <ele>534.0</ele>
        <time>1970-01-01T00:00:00Z</time>
      </trkpt>
      <trkpt lat="39.401147" lon="-5.280869">
        <ele>534.0</ele>
        <time>1970-01-01T00:00:00Z</time>
      </trkpt>
      <trkpt lat="39.401102" lon="-5.281023">
        <ele>535.3</ele>
        <time>1970-01-01T00:00:00Z</time>
      </trkpt>
      <trkpt lat="39.401102" lon="-5.281023">
        <ele>535.3</ele>
        <time>1970-01-01T00:00:00Z</time>
      </trkpt>
      <trkpt lat="39.401102" lon="-5.281023">
        <ele>535.3</ele>
        <time>1970-01-01T00:00:00Z</time>
      </trkpt>
      <trkpt lat="39.401102" lon="-5.281023">
        <ele>535.3</ele>
        <time>1970-01-01T00:00:00Z</time>
      </trkpt>
      <trkpt lat="39.401081" lon="-5.281176">
        <ele>536.6</ele>
        <time>1970-01-01T00:00:00Z</time>
      </trkpt>
      <trkpt lat="39.401081" lon="-5.281176">
        <ele>536.6</ele>
        <time>1970-01-01T00:00:00Z</time>
      </trkpt>
      <trkpt lat="39.401081" lon="-5.281176">
        <ele>536.6</ele>
        <time>1970-01-01T00:00:00Z</time>
      </trkpt>
      <trkpt lat="39.401081" lon="-5.281176">
        <ele>536.6</ele>
        <time>1970-01-01T00:00:00Z</time>
      </trkpt>
      <trkpt lat="39.401096" lon="-5.281342">
        <ele>538.1</ele>
        <time>1970-01-01T00:00:00Z</time>
      </trkpt>
      <trkpt lat="39.401096" lon="-5.281342">
        <ele>538.1</ele>
        <time>1970-01-01T00:00:00Z</time>
      </trkpt>
      <trkpt lat="39.401096" lon="-5.281342">
        <ele>538.1</ele>
        <time>1970-01-01T00:00:00Z</time>
      </trkpt>
      <trkpt lat="39.401096" lon="-5.281342">
        <ele>538.1</ele>
        <time>1970-01-01T00:00:00Z</time>
      </trkpt>
      <trkpt lat="39.401143" lon="-5.281524">
        <ele>539.6</ele>
        <time>1970-01-01T00:00:00Z</time>
      </trkpt>
      <trkpt lat="39.401143" lon="-5.281524">
        <ele>539.6</ele>
        <time>1970-01-01T00:00:00Z</time>
      </trkpt>
      <trkpt lat="39.401143" lon="-5.281524">
        <ele>539.6</ele>
        <time>1970-01-01T00:00:00Z</time>
      </trkpt>
      <trkpt lat="39.401143" lon="-5.281524">
        <ele>539.6</ele>
        <time>1970-01-01T00:00:00Z</time>
      </trkpt>
      <trkpt lat="39.401211" lon="-5.281672">
        <ele>541.7</ele>
        <time>1970-01-01T00:00:00Z</time>
      </trkpt>
      <trkpt lat="39.401211" lon="-5.281672">
        <ele>541.7</ele>
        <time>1970-01-01T00:00:00Z</time>
      </trkpt>
      <trkpt lat="39.401211" lon="-5.281672">
        <ele>541.7</ele>
        <time>1970-01-01T00:00:00Z</time>
      </trkpt>
      <trkpt lat="39.401211" lon="-5.281672">
        <ele>541.7</ele>
        <time>1970-01-01T00:00:00Z</time>
      </trkpt>
      <trkpt lat="39.401340" lon="-5.281822">
        <ele>544.5</ele>
        <time>1970-01-01T00:00:00Z</time>
      </trkpt>
      <trkpt lat="39.401340" lon="-5.281822">
        <ele>544.5</ele>
        <time>1970-01-01T00:00:00Z</time>
      </trkpt>
      <trkpt lat="39.401340" lon="-5.281822">
        <ele>544.5</ele>
        <time>1970-01-01T00:00:00Z</time>
      </trkpt>
      <trkpt lat="39.401340" lon="-5.281822">
        <ele>544.5</ele>
        <time>1970-01-01T00:00:00Z</time>
      </trkpt>
      <trkpt lat="39.401380" lon="-5.281897">
        <ele>545.5</ele>
        <time>1970-01-01T00:00:00Z</time>
      </trkpt>
      <trkpt lat="39.401380" lon="-5.281897">
        <ele>545.5</ele>
        <time>1970-01-01T00:00:00Z</time>
      </trkpt>
      <trkpt lat="39.401380" lon="-5.281897">
        <ele>545.5</ele>
        <time>1970-01-01T00:00:00Z</time>
      </trkpt>
      <trkpt lat="39.401380" lon="-5.281897">
        <ele>545.5</ele>
        <time>1970-01-01T00:00:00Z</time>
      </trkpt>
      <trkpt lat="39.401433" lon="-5.281934">
        <ele>546.2</ele>
        <time>1970-01-01T00:00:00Z</time>
      </trkpt>
      <trkpt lat="39.401433" lon="-5.281934">
        <ele>546.2</ele>
        <time>1970-01-01T00:00:00Z</time>
      </trkpt>
      <trkpt lat="39.401433" lon="-5.281934">
        <ele>546.2</ele>
        <time>1970-01-01T00:00:00Z</time>
      </trkpt>
      <trkpt lat="39.401433" lon="-5.281934">
        <ele>546.2</ele>
        <time>1970-01-01T00:00:00Z</time>
      </trkpt>
      <trkpt lat="39.401533" lon="-5.281994">
        <ele>547.7</ele>
        <time>1970-01-01T00:00:00Z</time>
      </trkpt>
      <trkpt lat="39.401533" lon="-5.281994">
        <ele>547.7</ele>
        <time>1970-01-01T00:00:00Z</time>
      </trkpt>
      <trkpt lat="39.401533" lon="-5.281994">
        <ele>547.7</ele>
        <time>1970-01-01T00:00:00Z</time>
      </trkpt>
      <trkpt lat="39.401533" lon="-5.281994">
        <ele>547.7</ele>
        <time>1970-01-01T00:00:00Z</time>
      </trkpt>
      <trkpt lat="39.401577" lon="-5.282059">
        <ele>548.9</ele>
        <time>1970-01-01T00:00:00Z</time>
      </trkpt>
      <trkpt lat="39.401577" lon="-5.282059">
        <ele>548.9</ele>
        <time>1970-01-01T00:00:00Z</time>
      </trkpt>
      <trkpt lat="39.401577" lon="-5.282059">
        <ele>548.9</ele>
        <time>1970-01-01T00:00:00Z</time>
      </trkpt>
      <trkpt lat="39.401577" lon="-5.282059">
        <ele>548.9</ele>
        <time>1970-01-01T00:00:00Z</time>
      </trkpt>
      <trkpt lat="39.401640" lon="-5.282151">
        <ele>550.4</ele>
        <time>1970-01-01T00:00:00Z</time>
      </trkpt>
      <trkpt lat="39.401640" lon="-5.282151">
        <ele>550.4</ele>
        <time>1970-01-01T00:00:00Z</time>
      </trkpt>
      <trkpt lat="39.401640" lon="-5.282151">
        <ele>550.4</ele>
        <time>1970-01-01T00:00:00Z</time>
      </trkpt>
      <trkpt lat="39.401640" lon="-5.282151">
        <ele>550.4</ele>
        <time>1970-01-01T00:00:00Z</time>
      </trkpt>
      <trkpt lat="39.401695" lon="-5.282231">
        <ele>551.5</ele>
        <time>1970-01-01T00:00:00Z</time>
      </trkpt>
      <trkpt lat="39.401695" lon="-5.282231">
        <ele>551.5</ele>
        <time>1970-01-01T00:00:00Z</time>
      </trkpt>
      <trkpt lat="39.401695" lon="-5.282231">
        <ele>551.5</ele>
        <time>1970-01-01T00:00:00Z</time>
      </trkpt>
      <trkpt lat="39.401695" lon="-5.282231">
        <ele>551.5</ele>
        <time>1970-01-01T00:00:00Z</time>
      </trkpt>
      <trkpt lat="39.401776" lon="-5.282286">
        <ele>552.6</ele>
        <time>1970-01-01T00:00:00Z</time>
      </trkpt>
      <trkpt lat="39.401776" lon="-5.282286">
        <ele>552.6</ele>
        <time>1970-01-01T00:00:00Z</time>
      </trkpt>
      <trkpt lat="39.401776" lon="-5.282286">
        <ele>552.6</ele>
        <time>1970-01-01T00:00:00Z</time>
      </trkpt>
      <trkpt lat="39.401776" lon="-5.282286">
        <ele>552.6</ele>
        <time>1970-01-01T00:00:00Z</time>
      </trkpt>
      <trkpt lat="39.401848" lon="-5.282336">
        <ele>553.9</ele>
        <time>1970-01-01T00:00:00Z</time>
      </trkpt>
      <trkpt lat="39.401848" lon="-5.282336">
        <ele>553.9</ele>
        <time>1970-01-01T00:00:00Z</time>
      </trkpt>
      <trkpt lat="39.401848" lon="-5.282336">
        <ele>553.9</ele>
        <time>1970-01-01T00:00:00Z</time>
      </trkpt>
      <trkpt lat="39.401848" lon="-5.282336">
        <ele>553.9</ele>
        <time>1970-01-01T00:00:00Z</time>
      </trkpt>
      <trkpt lat="39.401923" lon="-5.282422">
        <ele>555.7</ele>
        <time>1970-01-01T00:00:00Z</time>
      </trkpt>
      <trkpt lat="39.401923" lon="-5.282422">
        <ele>555.7</ele>
        <time>1970-01-01T00:00:00Z</time>
      </trkpt>
      <trkpt lat="39.401923" lon="-5.282422">
        <ele>555.7</ele>
        <time>1970-01-01T00:00:00Z</time>
      </trkpt>
      <trkpt lat="39.401923" lon="-5.282422">
        <ele>555.7</ele>
        <time>1970-01-01T00:00:00Z</time>
      </trkpt>
      <trkpt lat="39.401979" lon="-5.282575">
        <ele>557.7</ele>
        <time>1970-01-01T00:00:00Z</time>
      </trkpt>
      <trkpt lat="39.401979" lon="-5.282575">
        <ele>557.7</ele>
        <time>1970-01-01T00:00:00Z</time>
      </trkpt>
      <trkpt lat="39.401979" lon="-5.282575">
        <ele>557.7</ele>
        <time>1970-01-01T00:00:00Z</time>
      </trkpt>
      <trkpt lat="39.401979" lon="-5.282575">
        <ele>557.7</ele>
        <time>1970-01-01T00:00:00Z</time>
      </trkpt>
      <trkpt lat="39.402009" lon="-5.282710">
        <ele>558.9</ele>
        <time>1970-01-01T00:00:00Z</time>
      </trkpt>
      <trkpt lat="39.402009" lon="-5.282710">
        <ele>558.9</ele>
        <time>1970-01-01T00:00:00Z</time>
      </trkpt>
      <trkpt lat="39.402009" lon="-5.282710">
        <ele>558.9</ele>
        <time>1970-01-01T00:00:00Z</time>
      </trkpt>
      <trkpt lat="39.402009" lon="-5.282710">
        <ele>558.9</ele>
        <time>1970-01-01T00:00:00Z</time>
      </trkpt>
      <trkpt lat="39.402065" lon="-5.282836">
        <ele>559.5</ele>
        <time>1970-01-01T00:00:00Z</time>
      </trkpt>
      <trkpt lat="39.402065" lon="-5.282836">
        <ele>559.5</ele>
        <time>1970-01-01T00:00:00Z</time>
      </trkpt>
      <trkpt lat="39.402065" lon="-5.282836">
        <ele>559.5</ele>
        <time>1970-01-01T00:00:00Z</time>
      </trkpt>
      <trkpt lat="39.402065" lon="-5.282836">
        <ele>559.5</ele>
        <time>1970-01-01T00:00:00Z</time>
      </trkpt>
      <trkpt lat="39.402118" lon="-5.283006">
        <ele>560.3</ele>
        <time>1970-01-01T00:00:00Z</time>
      </trkpt>
      <trkpt lat="39.402118" lon="-5.283006">
        <ele>560.3</ele>
        <time>1970-01-01T00:00:00Z</time>
      </trkpt>
      <trkpt lat="39.402118" lon="-5.283006">
        <ele>560.3</ele>
        <time>1970-01-01T00:00:00Z</time>
      </trkpt>
      <trkpt lat="39.402118" lon="-5.283006">
        <ele>560.3</ele>
        <time>1970-01-01T00:00:00Z</time>
      </trkpt>
      <trkpt lat="39.402134" lon="-5.283107">
        <ele>560.9</ele>
        <time>1970-01-01T00:00:00Z</time>
      </trkpt>
      <trkpt lat="39.402134" lon="-5.283107">
        <ele>560.9</ele>
        <time>1970-01-01T00:00:00Z</time>
      </trkpt>
      <trkpt lat="39.402134" lon="-5.283107">
        <ele>560.9</ele>
        <time>1970-01-01T00:00:00Z</time>
      </trkpt>
      <trkpt lat="39.402134" lon="-5.283107">
        <ele>560.9</ele>
        <time>1970-01-01T00:00:00Z</time>
      </trkpt>
      <trkpt lat="39.402147" lon="-5.283286">
        <ele>562.4</ele>
        <time>1970-01-01T00:00:00Z</time>
      </trkpt>
      <trkpt lat="39.402147" lon="-5.283286">
        <ele>562.4</ele>
        <time>1970-01-01T00:00:00Z</time>
      </trkpt>
      <trkpt lat="39.402147" lon="-5.283286">
        <ele>562.4</ele>
        <time>1970-01-01T00:00:00Z</time>
      </trkpt>
      <trkpt lat="39.402147" lon="-5.283286">
        <ele>562.4</ele>
        <time>1970-01-01T00:00:00Z</time>
      </trkpt>
      <trkpt lat="39.402173" lon="-5.283442">
        <ele>564.2</ele>
        <time>1970-01-01T00:00:00Z</time>
      </trkpt>
      <trkpt lat="39.402173" lon="-5.283442">
        <ele>564.2</ele>
        <time>1970-01-01T00:00:00Z</time>
      </trkpt>
      <trkpt lat="39.402173" lon="-5.283442">
        <ele>564.2</ele>
        <time>1970-01-01T00:00:00Z</time>
      </trkpt>
      <trkpt lat="39.402173" lon="-5.283442">
        <ele>564.2</ele>
        <time>1970-01-01T00:00:00Z</time>
      </trkpt>
      <trkpt lat="39.402195" lon="-5.283577">
        <ele>565.4</ele>
        <time>1970-01-01T00:00:00Z</time>
      </trkpt>
      <trkpt lat="39.402195" lon="-5.283577">
        <ele>565.4</ele>
        <time>1970-01-01T00:00:00Z</time>
      </trkpt>
      <trkpt lat="39.402195" lon="-5.283577">
        <ele>565.4</ele>
        <time>1970-01-01T00:00:00Z</time>
      </trkpt>
      <trkpt lat="39.402195" lon="-5.283577">
        <ele>565.4</ele>
        <time>1970-01-01T00:00:00Z</time>
      </trkpt>
      <trkpt lat="39.402260" lon="-5.283754">
        <ele>567.4</ele>
        <time>1970-01-01T00:00:00Z</time>
      </trkpt>
      <trkpt lat="39.402260" lon="-5.283754">
        <ele>567.4</ele>
        <time>1970-01-01T00:00:00Z</time>
      </trkpt>
      <trkpt lat="39.402260" lon="-5.283754">
        <ele>567.4</ele>
        <time>1970-01-01T00:00:00Z</time>
      </trkpt>
      <trkpt lat="39.402260" lon="-5.283754">
        <ele>567.4</ele>
        <time>1970-01-01T00:00:00Z</time>
      </trkpt>
      <trkpt lat="39.402369" lon="-5.283930">
        <ele>569.6</ele>
        <time>1970-01-01T00:00:00Z</time>
      </trkpt>
      <trkpt lat="39.402369" lon="-5.283930">
        <ele>569.6</ele>
        <time>1970-01-01T00:00:00Z</time>
      </trkpt>
      <trkpt lat="39.402369" lon="-5.283930">
        <ele>569.6</ele>
        <time>1970-01-01T00:00:00Z</time>
      </trkpt>
      <trkpt lat="39.402369" lon="-5.283930">
        <ele>569.6</ele>
        <time>1970-01-01T00:00:00Z</time>
      </trkpt>
      <trkpt lat="39.402447" lon="-5.284028">
        <ele>570.9</ele>
        <time>1970-01-01T00:00:00Z</time>
      </trkpt>
      <trkpt lat="39.402447" lon="-5.284028">
        <ele>570.9</ele>
        <time>1970-01-01T00:00:00Z</time>
      </trkpt>
      <trkpt lat="39.402447" lon="-5.284028">
        <ele>570.9</ele>
        <time>1970-01-01T00:00:00Z</time>
      </trkpt>
      <trkpt lat="39.402447" lon="-5.284028">
        <ele>570.9</ele>
        <time>1970-01-01T00:00:00Z</time>
      </trkpt>
      <trkpt lat="39.402547" lon="-5.284130">
        <ele>571.7</ele>
        <time>1970-01-01T00:00:00Z</time>
      </trkpt>
      <trkpt lat="39.402547" lon="-5.284130">
        <ele>571.7</ele>
        <time>1970-01-01T00:00:00Z</time>
      </trkpt>
      <trkpt lat="39.402547" lon="-5.284130">
        <ele>571.7</ele>
        <time>1970-01-01T00:00:00Z</time>
      </trkpt>
      <trkpt lat="39.402547" lon="-5.284130">
        <ele>571.7</ele>
        <time>1970-01-01T00:00:00Z</time>
      </trkpt>
      <trkpt lat="39.402661" lon="-5.284292">
        <ele>573.3</ele>
        <time>1970-01-01T00:00:00Z</time>
      </trkpt>
      <trkpt lat="39.402661" lon="-5.284292">
        <ele>573.3</ele>
        <time>1970-01-01T00:00:00Z</time>
      </trkpt>
      <trkpt lat="39.402661" lon="-5.284292">
        <ele>573.3</ele>
        <time>1970-01-01T00:00:00Z</time>
      </trkpt>
      <trkpt lat="39.402661" lon="-5.284292">
        <ele>573.3</ele>
        <time>1970-01-01T00:00:00Z</time>
      </trkpt>
      <trkpt lat="39.402805" lon="-5.284514">
        <ele>575.5</ele>
        <time>1970-01-01T00:00:00Z</time>
      </trkpt>
      <trkpt lat="39.402805" lon="-5.284514">
        <ele>575.5</ele>
        <time>1970-01-01T00:00:00Z</time>
      </trkpt>
      <trkpt lat="39.402805" lon="-5.284514">
        <ele>575.5</ele>
        <time>1970-01-01T00:00:00Z</time>
      </trkpt>
      <trkpt lat="39.402805" lon="-5.284514">
        <ele>575.5</ele>
        <time>1970-01-01T00:00:00Z</time>
      </trkpt>
      <trkpt lat="39.402966" lon="-5.284747">
        <ele>577.8</ele>
        <time>1970-01-01T00:00:00Z</time>
      </trkpt>
      <trkpt lat="39.402966" lon="-5.284747">
        <ele>577.8</ele>
        <time>1970-01-01T00:00:00Z</time>
      </trkpt>
      <trkpt lat="39.402966" lon="-5.284747">
        <ele>577.8</ele>
        <time>1970-01-01T00:00:00Z</time>
      </trkpt>
      <trkpt lat="39.402966" lon="-5.284747">
        <ele>577.8</ele>
        <time>1970-01-01T00:00:00Z</time>
      </trkpt>
      <trkpt lat="39.403244" lon="-5.285007">
        <ele>583.1</ele>
        <time>1970-01-01T00:00:00Z</time>
      </trkpt>
      <trkpt lat="39.403244" lon="-5.285007">
        <ele>583.1</ele>
        <time>1970-01-01T00:00:00Z</time>
      </trkpt>
      <trkpt lat="39.403244" lon="-5.285007">
        <ele>583.1</ele>
        <time>1970-01-01T00:00:00Z</time>
      </trkpt>
      <trkpt lat="39.403244" lon="-5.285007">
        <ele>583.1</ele>
        <time>1970-01-01T00:00:00Z</time>
      </trkpt>
      <trkpt lat="39.403517" lon="-5.285271">
        <ele>587.7</ele>
        <time>1970-01-01T00:00:00Z</time>
      </trkpt>
      <trkpt lat="39.403517" lon="-5.285271">
        <ele>587.7</ele>
        <time>1970-01-01T00:00:00Z</time>
      </trkpt>
      <trkpt lat="39.403517" lon="-5.285271">
        <ele>587.7</ele>
        <time>1970-01-01T00:00:00Z</time>
      </trkpt>
      <trkpt lat="39.403517" lon="-5.285271">
        <ele>587.7</ele>
        <time>1970-01-01T00:00:00Z</time>
      </trkpt>
      <trkpt lat="39.403658" lon="-5.285370">
        <ele>589.3</ele>
        <time>1970-01-01T00:00:00Z</time>
      </trkpt>
      <trkpt lat="39.403658" lon="-5.285370">
        <ele>589.3</ele>
        <time>1970-01-01T00:00:00Z</time>
      </trkpt>
      <trkpt lat="39.403658" lon="-5.285370">
        <ele>589.3</ele>
        <time>1970-01-01T00:00:00Z</time>
      </trkpt>
      <trkpt lat="39.403658" lon="-5.285370">
        <ele>589.3</ele>
        <time>1970-01-01T00:00:00Z</time>
      </trkpt>
      <trkpt lat="39.403811" lon="-5.285433">
        <ele>590.6</ele>
        <time>1970-01-01T00:00:00Z</time>
      </trkpt>
      <trkpt lat="39.403811" lon="-5.285433">
        <ele>590.6</ele>
        <time>1970-01-01T00:00:00Z</time>
      </trkpt>
      <trkpt lat="39.403811" lon="-5.285433">
        <ele>590.6</ele>
        <time>1970-01-01T00:00:00Z</time>
      </trkpt>
      <trkpt lat="39.403811" lon="-5.285433">
        <ele>590.6</ele>
        <time>1970-01-01T00:00:00Z</time>
      </trkpt>
      <trkpt lat="39.404032" lon="-5.285515">
        <ele>592.0</ele>
        <time>1970-01-01T00:00:00Z</time>
      </trkpt>
      <trkpt lat="39.404032" lon="-5.285515">
        <ele>592.0</ele>
        <time>1970-01-01T00:00:00Z</time>
      </trkpt>
      <trkpt lat="39.404032" lon="-5.285515">
        <ele>592.0</ele>
        <time>1970-01-01T00:00:00Z</time>
      </trkpt>
      <trkpt lat="39.404032" lon="-5.285515">
        <ele>592.0</ele>
        <time>1970-01-01T00:00:00Z</time>
      </trkpt>
      <trkpt lat="39.404317" lon="-5.285643">
        <ele>593.0</ele>
        <time>1970-01-01T00:00:00Z</time>
      </trkpt>
      <trkpt lat="39.404317" lon="-5.285643">
        <ele>593.0</ele>
        <time>1970-01-01T00:00:00Z</time>
      </trkpt>
      <trkpt lat="39.404317" lon="-5.285643">
        <ele>593.0</ele>
        <time>1970-01-01T00:00:00Z</time>
      </trkpt>
      <trkpt lat="39.404317" lon="-5.285643">
        <ele>593.0</ele>
        <time>1970-01-01T00:00:00Z</time>
      </trkpt>
      <trkpt lat="39.404479" lon="-5.285739">
        <ele>593.0</ele>
        <time>1970-01-01T00:00:00Z</time>
      </trkpt>
      <trkpt lat="39.404479" lon="-5.285739">
        <ele>593.0</ele>
        <time>1970-01-01T00:00:00Z</time>
      </trkpt>
      <trkpt lat="39.404479" lon="-5.285739">
        <ele>593.0</ele>
        <time>1970-01-01T00:00:00Z</time>
      </trkpt>
      <trkpt lat="39.404479" lon="-5.285739">
        <ele>593.0</ele>
        <time>1970-01-01T00:00:00Z</time>
      </trkpt>
      <trkpt lat="39.404567" lon="-5.285785">
        <ele>593.4</ele>
        <time>1970-01-01T00:00:00Z</time>
      </trkpt>
      <trkpt lat="39.404567" lon="-5.285785">
        <ele>593.4</ele>
        <time>1970-01-01T00:00:00Z</time>
      </trkpt>
      <trkpt lat="39.404567" lon="-5.285785">
        <ele>593.4</ele>
        <time>1970-01-01T00:00:00Z</time>
      </trkpt>
      <trkpt lat="39.404567" lon="-5.285785">
        <ele>593.4</ele>
        <time>1970-01-01T00:00:00Z</time>
      </trkpt>
      <trkpt lat="39.404760" lon="-5.285877">
        <ele>594.0</ele>
        <time>1970-01-01T00:00:00Z</time>
      </trkpt>
      <trkpt lat="39.404760" lon="-5.285877">
        <ele>594.0</ele>
        <time>1970-01-01T00:00:00Z</time>
      </trkpt>
      <trkpt lat="39.404760" lon="-5.285877">
        <ele>594.0</ele>
        <time>1970-01-01T00:00:00Z</time>
      </trkpt>
      <trkpt lat="39.404760" lon="-5.285877">
        <ele>594.0</ele>
        <time>1970-01-01T00:00:00Z</time>
      </trkpt>
      <trkpt lat="39.404909" lon="-5.285906">
        <ele>594.5</ele>
        <time>1970-01-01T00:00:00Z</time>
      </trkpt>
      <trkpt lat="39.404909" lon="-5.285906">
        <ele>594.5</ele>
        <time>1970-01-01T00:00:00Z</time>
      </trkpt>
      <trkpt lat="39.404909" lon="-5.285906">
        <ele>594.5</ele>
        <time>1970-01-01T00:00:00Z</time>
      </trkpt>
      <trkpt lat="39.404909" lon="-5.285906">
        <ele>594.5</ele>
        <time>1970-01-01T00:00:00Z</time>
      </trkpt>
      <trkpt lat="39.405190" lon="-5.286002">
        <ele>595.9</ele>
        <time>1970-01-01T00:00:00Z</time>
      </trkpt>
      <trkpt lat="39.405190" lon="-5.286002">
        <ele>595.9</ele>
        <time>1970-01-01T00:00:00Z</time>
      </trkpt>
      <trkpt lat="39.405190" lon="-5.286002">
        <ele>595.9</ele>
        <time>1970-01-01T00:00:00Z</time>
      </trkpt>
      <trkpt lat="39.405190" lon="-5.286002">
        <ele>595.9</ele>
        <time>1970-01-01T00:00:00Z</time>
      </trkpt>
      <trkpt lat="39.405459" lon="-5.286107">
        <ele>597.1</ele>
        <time>1970-01-01T00:00:00Z</time>
      </trkpt>
      <trkpt lat="39.405459" lon="-5.286107">
        <ele>597.1</ele>
        <time>1970-01-01T00:00:00Z</time>
      </trkpt>
      <trkpt lat="39.405459" lon="-5.286107">
        <ele>597.1</ele>
        <time>1970-01-01T00:00:00Z</time>
      </trkpt>
      <trkpt lat="39.405459" lon="-5.286107">
        <ele>597.1</ele>
        <time>1970-01-01T00:00:00Z</time>
      </trkpt>
      <trkpt lat="39.405573" lon="-5.286177">
        <ele>597.6</ele>
        <time>1970-01-01T00:00:00Z</time>
      </trkpt>
      <trkpt lat="39.405573" lon="-5.286177">
        <ele>597.6</ele>
        <time>1970-01-01T00:00:00Z</time>
      </trkpt>
      <trkpt lat="39.405573" lon="-5.286177">
        <ele>597.6</ele>
        <time>1970-01-01T00:00:00Z</time>
      </trkpt>
      <trkpt lat="39.405573" lon="-5.286177">
        <ele>597.6</ele>
        <time>1970-01-01T00:00:00Z</time>
      </trkpt>
      <trkpt lat="39.405762" lon="-5.286313">
        <ele>598.0</ele>
        <time>1970-01-01T00:00:00Z</time>
      </trkpt>
      <trkpt lat="39.405762" lon="-5.286313">
        <ele>598.0</ele>
        <time>1970-01-01T00:00:00Z</time>
      </trkpt>
      <trkpt lat="39.405762" lon="-5.286313">
        <ele>598.0</ele>
        <time>1970-01-01T00:00:00Z</time>
      </trkpt>
      <trkpt lat="39.405762" lon="-5.286313">
        <ele>598.0</ele>
        <time>1970-01-01T00:00:00Z</time>
      </trkpt>
      <trkpt lat="39.406012" lon="-5.286504">
        <ele>598.0</ele>
        <time>1970-01-01T00:00:00Z</time>
      </trkpt>
      <trkpt lat="39.406012" lon="-5.286504">
        <ele>598.0</ele>
        <time>1970-01-01T00:00:00Z</time>
      </trkpt>
      <trkpt lat="39.406012" lon="-5.286504">
        <ele>598.0</ele>
        <time>1970-01-01T00:00:00Z</time>
      </trkpt>
      <trkpt lat="39.406012" lon="-5.286504">
        <ele>598.0</ele>
        <time>1970-01-01T00:00:00Z</time>
      </trkpt>
      <trkpt lat="39.406230" lon="-5.286657">
        <ele>597.6</ele>
        <time>1970-01-01T00:00:00Z</time>
      </trkpt>
      <trkpt lat="39.406230" lon="-5.286657">
        <ele>597.6</ele>
        <time>1970-01-01T00:00:00Z</time>
      </trkpt>
      <trkpt lat="39.406230" lon="-5.286657">
        <ele>597.6</ele>
        <time>1970-01-01T00:00:00Z</time>
      </trkpt>
      <trkpt lat="39.406230" lon="-5.286657">
        <ele>597.6</ele>
        <time>1970-01-01T00:00:00Z</time>
      </trkpt>
      <trkpt lat="39.406318" lon="-5.286743">
        <ele>597.2</ele>
        <time>1970-01-01T00:00:00Z</time>
      </trkpt>
      <trkpt lat="39.406318" lon="-5.286743">
        <ele>597.2</ele>
        <time>1970-01-01T00:00:00Z</time>
      </trkpt>
      <trkpt lat="39.406318" lon="-5.286743">
        <ele>597.2</ele>
        <time>1970-01-01T00:00:00Z</time>
      </trkpt>
      <trkpt lat="39.406318" lon="-5.286743">
        <ele>597.2</ele>
        <time>1970-01-01T00:00:00Z</time>
      </trkpt>
      <trkpt lat="39.406440" lon="-5.286848">
        <ele>596.7</ele>
        <time>1970-01-01T00:00:00Z</time>
      </trkpt>
      <trkpt lat="39.406440" lon="-5.286848">
        <ele>596.7</ele>
        <time>1970-01-01T00:00:00Z</time>
      </trkpt>
      <trkpt lat="39.406440" lon="-5.286848">
        <ele>596.7</ele>
        <time>1970-01-01T00:00:00Z</time>
      </trkpt>
      <trkpt lat="39.406440" lon="-5.286848">
        <ele>596.7</ele>
        <time>1970-01-01T00:00:00Z</time>
      </trkpt>
      <trkpt lat="39.406657" lon="-5.287038">
        <ele>596.6</ele>
        <time>1970-01-01T00:00:00Z</time>
      </trkpt>
      <trkpt lat="39.406657" lon="-5.287038">
        <ele>596.6</ele>
        <time>1970-01-01T00:00:00Z</time>
      </trkpt>
      <trkpt lat="39.406657" lon="-5.287038">
        <ele>596.6</ele>
        <time>1970-01-01T00:00:00Z</time>
      </trkpt>
      <trkpt lat="39.406657" lon="-5.287038">
        <ele>596.6</ele>
        <time>1970-01-01T00:00:00Z</time>
      </trkpt>
      <trkpt lat="39.406880" lon="-5.287190">
        <ele>597.1</ele>
        <time>1970-01-01T00:00:00Z</time>
      </trkpt>
      <trkpt lat="39.406880" lon="-5.287190">
        <ele>597.1</ele>
        <time>1970-01-01T00:00:00Z</time>
      </trkpt>
      <trkpt lat="39.406880" lon="-5.287190">
        <ele>597.1</ele>
        <time>1970-01-01T00:00:00Z</time>
      </trkpt>
      <trkpt lat="39.406880" lon="-5.287190">
        <ele>597.1</ele>
        <time>1970-01-01T00:00:00Z</time>
      </trkpt>
      <trkpt lat="39.407156" lon="-5.287390">
        <ele>597.9</ele>
        <time>1970-01-01T00:00:00Z</time>
      </trkpt>
      <trkpt lat="39.407156" lon="-5.287390">
        <ele>597.9</ele>
        <time>1970-01-01T00:00:00Z</time>
      </trkpt>
      <trkpt lat="39.407156" lon="-5.287390">
        <ele>597.9</ele>
        <time>1970-01-01T00:00:00Z</time>
      </trkpt>
      <trkpt lat="39.407156" lon="-5.287390">
        <ele>597.9</ele>
        <time>1970-01-01T00:00:00Z</time>
      </trkpt>
      <trkpt lat="39.407470" lon="-5.287604">
        <ele>598.8</ele>
        <time>1970-01-01T00:00:00Z</time>
      </trkpt>
      <trkpt lat="39.407470" lon="-5.287604">
        <ele>598.8</ele>
        <time>1970-01-01T00:00:00Z</time>
      </trkpt>
      <trkpt lat="39.407470" lon="-5.287604">
        <ele>598.8</ele>
        <time>1970-01-01T00:00:00Z</time>
      </trkpt>
      <trkpt lat="39.407470" lon="-5.287604">
        <ele>598.8</ele>
        <time>1970-01-01T00:00:00Z</time>
      </trkpt>
      <trkpt lat="39.407608" lon="-5.287690">
        <ele>599.0</ele>
        <time>1970-01-01T00:00:00Z</time>
      </trkpt>
      <trkpt lat="39.407608" lon="-5.287690">
        <ele>599.0</ele>
        <time>1970-01-01T00:00:00Z</time>
      </trkpt>
      <trkpt lat="39.407608" lon="-5.287690">
        <ele>599.0</ele>
        <time>1970-01-01T00:00:00Z</time>
      </trkpt>
      <trkpt lat="39.407608" lon="-5.287690">
        <ele>599.0</ele>
        <time>1970-01-01T00:00:00Z</time>
      </trkpt>
      <trkpt lat="39.407671" lon="-5.287759">
        <ele>599.0</ele>
        <time>1970-01-01T00:00:00Z</time>
      </trkpt>
      <trkpt lat="39.407671" lon="-5.287759">
        <ele>599.0</ele>
        <time>1970-01-01T00:00:00Z</time>
      </trkpt>
      <trkpt lat="39.407671" lon="-5.287759">
        <ele>599.0</ele>
        <time>1970-01-01T00:00:00Z</time>
      </trkpt>
      <trkpt lat="39.407671" lon="-5.287759">
        <ele>599.0</ele>
        <time>1970-01-01T00:00:00Z</time>
      </trkpt>
      <trkpt lat="39.407760" lon="-5.287880">
        <ele>599.0</ele>
        <time>1970-01-01T00:00:00Z</time>
      </trkpt>
      <trkpt lat="39.407760" lon="-5.287880">
        <ele>599.0</ele>
        <time>1970-01-01T00:00:00Z</time>
      </trkpt>
      <trkpt lat="39.407760" lon="-5.287880">
        <ele>599.0</ele>
        <time>1970-01-01T00:00:00Z</time>
      </trkpt>
      <trkpt lat="39.407760" lon="-5.287880">
        <ele>599.0</ele>
        <time>1970-01-01T00:00:00Z</time>
      </trkpt>
      <trkpt lat="39.407815" lon="-5.287949">
        <ele>599.1</ele>
        <time>1970-01-01T00:00:00Z</time>
      </trkpt>
      <trkpt lat="39.407815" lon="-5.287949">
        <ele>599.1</ele>
        <time>1970-01-01T00:00:00Z</time>
      </trkpt>
      <trkpt lat="39.407815" lon="-5.287949">
        <ele>599.1</ele>
        <time>1970-01-01T00:00:00Z</time>
      </trkpt>
      <trkpt lat="39.407815" lon="-5.287949">
        <ele>599.1</ele>
        <time>1970-01-01T00:00:00Z</time>
      </trkpt>
      <trkpt lat="39.408040" lon="-5.288193">
        <ele>600.0</ele>
        <time>1970-01-01T00:00:00Z</time>
      </trkpt>
      <trkpt lat="39.408040" lon="-5.288193">
        <ele>600.0</ele>
        <time>1970-01-01T00:00:00Z</time>
      </trkpt>
      <trkpt lat="39.408040" lon="-5.288193">
        <ele>600.0</ele>
        <time>1970-01-01T00:00:00Z</time>
      </trkpt>
      <trkpt lat="39.408040" lon="-5.288193">
        <ele>600.0</ele>
        <time>1970-01-01T00:00:00Z</time>
      </trkpt>
      <trkpt lat="39.408322" lon="-5.288509">
        <ele>600.0</ele>
        <time>1970-01-01T00:00:00Z</time>
      </trkpt>
      <trkpt lat="39.408322" lon="-5.288509">
        <ele>600.0</ele>
        <time>1970-01-01T00:00:00Z</time>
      </trkpt>
      <trkpt lat="39.408322" lon="-5.288509">
        <ele>600.0</ele>
        <time>1970-01-01T00:00:00Z</time>
      </trkpt>
      <trkpt lat="39.408322" lon="-5.288509">
        <ele>600.0</ele>
        <time>1970-01-01T00:00:00Z</time>
      </trkpt>
      <trkpt lat="39.408653" lon="-5.288889">
        <ele>601.3</ele>
        <time>1970-01-01T00:00:00Z</time>
      </trkpt>
      <trkpt lat="39.408653" lon="-5.288889">
        <ele>601.3</ele>
        <time>1970-01-01T00:00:00Z</time>
      </trkpt>
      <trkpt lat="39.408653" lon="-5.288889">
        <ele>601.3</ele>
        <time>1970-01-01T00:00:00Z</time>
      </trkpt>
      <trkpt lat="39.408653" lon="-5.288889">
        <ele>601.3</ele>
        <time>1970-01-01T00:00:00Z</time>
      </trkpt>
      <trkpt lat="39.408862" lon="-5.289149">
        <ele>601.2</ele>
        <time>1970-01-01T00:00:00Z</time>
      </trkpt>
      <trkpt lat="39.408862" lon="-5.289149">
        <ele>601.2</ele>
        <time>1970-01-01T00:00:00Z</time>
      </trkpt>
      <trkpt lat="39.408862" lon="-5.289149">
        <ele>601.2</ele>
        <time>1970-01-01T00:00:00Z</time>
      </trkpt>
      <trkpt lat="39.408862" lon="-5.289149">
        <ele>601.2</ele>
        <time>1970-01-01T00:00:00Z</time>
      </trkpt>
      <trkpt lat="39.409002" lon="-5.289280">
        <ele>601.3</ele>
        <time>1970-01-01T00:00:00Z</time>
      </trkpt>
      <trkpt lat="39.409002" lon="-5.289280">
        <ele>601.3</ele>
        <time>1970-01-01T00:00:00Z</time>
      </trkpt>
      <trkpt lat="39.409002" lon="-5.289280">
        <ele>601.3</ele>
        <time>1970-01-01T00:00:00Z</time>
      </trkpt>
      <trkpt lat="39.409002" lon="-5.289280">
        <ele>601.3</ele>
        <time>1970-01-01T00:00:00Z</time>
      </trkpt>
      <trkpt lat="39.409431" lon="-5.289717">
        <ele>602.0</ele>
        <time>1970-01-01T00:00:00Z</time>
      </trkpt>
      <trkpt lat="39.409431" lon="-5.289717">
        <ele>602.0</ele>
        <time>1970-01-01T00:00:00Z</time>
      </trkpt>
      <trkpt lat="39.409431" lon="-5.289717">
        <ele>602.0</ele>
        <time>1970-01-01T00:00:00Z</time>
      </trkpt>
      <trkpt lat="39.409431" lon="-5.289717">
        <ele>602.0</ele>
        <time>1970-01-01T00:00:00Z</time>
      </trkpt>
      <trkpt lat="39.409502" lon="-5.289789">
        <ele>602.0</ele>
        <time>1970-01-01T00:00:00Z</time>
      </trkpt>
      <trkpt lat="39.409502" lon="-5.289789">
        <ele>602.0</ele>
        <time>1970-01-01T00:00:00Z</time>
      </trkpt>
      <trkpt lat="39.409502" lon="-5.289789">
        <ele>602.0</ele>
        <time>1970-01-01T00:00:00Z</time>
      </trkpt>
      <trkpt lat="39.409502" lon="-5.289789">
        <ele>602.0</ele>
        <time>1970-01-01T00:00:00Z</time>
      </trkpt>
      <trkpt lat="39.409576" lon="-5.289839">
        <ele>602.1</ele>
        <time>1970-01-01T00:00:00Z</time>
      </trkpt>
      <trkpt lat="39.409576" lon="-5.289839">
        <ele>602.1</ele>
        <time>1970-01-01T00:00:00Z</time>
      </trkpt>
      <trkpt lat="39.409576" lon="-5.289839">
        <ele>602.1</ele>
        <time>1970-01-01T00:00:00Z</time>
      </trkpt>
      <trkpt lat="39.409576" lon="-5.289839">
        <ele>602.1</ele>
        <time>1970-01-01T00:00:00Z</time>
      </trkpt>
      <trkpt lat="39.409623" lon="-5.289860">
        <ele>602.2</ele>
        <time>1970-01-01T00:00:00Z</time>
      </trkpt>
      <trkpt lat="39.409623" lon="-5.289860">
        <ele>602.2</ele>
        <time>1970-01-01T00:00:00Z</time>
      </trkpt>
      <trkpt lat="39.409623" lon="-5.289860">
        <ele>602.2</ele>
        <time>1970-01-01T00:00:00Z</time>
      </trkpt>
      <trkpt lat="39.409623" lon="-5.289860">
        <ele>602.2</ele>
        <time>1970-01-01T00:00:00Z</time>
      </trkpt>
      <trkpt lat="39.409669" lon="-5.289853">
        <ele>602.2</ele>
        <time>1970-01-01T00:00:00Z</time>
      </trkpt>
      <trkpt lat="39.409669" lon="-5.289853">
        <ele>602.2</ele>
        <time>1970-01-01T00:00:00Z</time>
      </trkpt>
      <trkpt lat="39.409669" lon="-5.289853">
        <ele>602.2</ele>
        <time>1970-01-01T00:00:00Z</time>
      </trkpt>
      <trkpt lat="39.409669" lon="-5.289853">
        <ele>602.2</ele>
        <time>1970-01-01T00:00:00Z</time>
      </trkpt>
      <trkpt lat="39.409737" lon="-5.289822">
        <ele>602.3</ele>
        <time>1970-01-01T00:00:00Z</time>
      </trkpt>
      <trkpt lat="39.409737" lon="-5.289822">
        <ele>602.3</ele>
        <time>1970-01-01T00:00:00Z</time>
      </trkpt>
      <trkpt lat="39.409737" lon="-5.289822">
        <ele>602.3</ele>
        <time>1970-01-01T00:00:00Z</time>
      </trkpt>
      <trkpt lat="39.409737" lon="-5.289822">
        <ele>602.3</ele>
        <time>1970-01-01T00:00:00Z</time>
      </trkpt>
      <trkpt lat="39.409821" lon="-5.289799">
        <ele>602.4</ele>
        <time>1970-01-01T00:00:00Z</time>
      </trkpt>
      <trkpt lat="39.409821" lon="-5.289799">
        <ele>602.4</ele>
        <time>1970-01-01T00:00:00Z</time>
      </trkpt>
      <trkpt lat="39.409821" lon="-5.289799">
        <ele>602.4</ele>
        <time>1970-01-01T00:00:00Z</time>
      </trkpt>
      <trkpt lat="39.409821" lon="-5.289799">
        <ele>602.4</ele>
        <time>1970-01-01T00:00:00Z</time>
      </trkpt>
      <trkpt lat="39.409917" lon="-5.289799">
        <ele>602.9</ele>
        <time>1970-01-01T00:00:00Z</time>
      </trkpt>
      <trkpt lat="39.409917" lon="-5.289799">
        <ele>602.9</ele>
        <time>1970-01-01T00:00:00Z</time>
      </trkpt>
      <trkpt lat="39.409917" lon="-5.289799">
        <ele>602.9</ele>
        <time>1970-01-01T00:00:00Z</time>
      </trkpt>
      <trkpt lat="39.409917" lon="-5.289799">
        <ele>602.9</ele>
        <time>1970-01-01T00:00:00Z</time>
      </trkpt>
      <trkpt lat="39.410051" lon="-5.289827">
        <ele>603.8</ele>
        <time>1970-01-01T00:00:00Z</time>
      </trkpt>
      <trkpt lat="39.410051" lon="-5.289827">
        <ele>603.8</ele>
        <time>1970-01-01T00:00:00Z</time>
      </trkpt>
      <trkpt lat="39.410051" lon="-5.289827">
        <ele>603.8</ele>
        <time>1970-01-01T00:00:00Z</time>
      </trkpt>
      <trkpt lat="39.410051" lon="-5.289827">
        <ele>603.8</ele>
        <time>1970-01-01T00:00:00Z</time>
      </trkpt>
      <trkpt lat="39.410154" lon="-5.289855">
        <ele>604.7</ele>
        <time>1970-01-01T00:00:00Z</time>
      </trkpt>
      <trkpt lat="39.410154" lon="-5.289855">
        <ele>604.7</ele>
        <time>1970-01-01T00:00:00Z</time>
      </trkpt>
      <trkpt lat="39.410154" lon="-5.289855">
        <ele>604.7</ele>
        <time>1970-01-01T00:00:00Z</time>
      </trkpt>
      <trkpt lat="39.410154" lon="-5.289855">
        <ele>604.7</ele>
        <time>1970-01-01T00:00:00Z</time>
      </trkpt>
      <trkpt lat="39.410227" lon="-5.289888">
        <ele>605.3</ele>
        <time>1970-01-01T00:00:00Z</time>
      </trkpt>
      <trkpt lat="39.410227" lon="-5.289888">
        <ele>605.3</ele>
        <time>1970-01-01T00:00:00Z</time>
      </trkpt>
      <trkpt lat="39.410227" lon="-5.289888">
        <ele>605.3</ele>
        <time>1970-01-01T00:00:00Z</time>
      </trkpt>
      <trkpt lat="39.410227" lon="-5.289888">
        <ele>605.3</ele>
        <time>1970-01-01T00:00:00Z</time>
      </trkpt>
      <trkpt lat="39.410489" lon="-5.289998">
        <ele>607.6</ele>
        <time>1970-01-01T00:00:00Z</time>
      </trkpt>
      <trkpt lat="39.410489" lon="-5.289998">
        <ele>607.6</ele>
        <time>1970-01-01T00:00:00Z</time>
      </trkpt>
      <trkpt lat="39.410489" lon="-5.289998">
        <ele>607.6</ele>
        <time>1970-01-01T00:00:00Z</time>
      </trkpt>
      <trkpt lat="39.410489" lon="-5.289998">
        <ele>607.6</ele>
        <time>1970-01-01T00:00:00Z</time>
      </trkpt>
      <trkpt lat="39.410730" lon="-5.290108">
        <ele>609.7</ele>
        <time>1970-01-01T00:00:00Z</time>
      </trkpt>
      <trkpt lat="39.410730" lon="-5.290108">
        <ele>609.7</ele>
        <time>1970-01-01T00:00:00Z</time>
      </trkpt>
      <trkpt lat="39.410730" lon="-5.290108">
        <ele>609.7</ele>
        <time>1970-01-01T00:00:00Z</time>
      </trkpt>
      <trkpt lat="39.410730" lon="-5.290108">
        <ele>609.7</ele>
        <time>1970-01-01T00:00:00Z</time>
      </trkpt>
      <trkpt lat="39.410907" lon="-5.290196">
        <ele>611.2</ele>
        <time>1970-01-01T00:00:00Z</time>
      </trkpt>
      <trkpt lat="39.410907" lon="-5.290196">
        <ele>611.2</ele>
        <time>1970-01-01T00:00:00Z</time>
      </trkpt>
      <trkpt lat="39.410907" lon="-5.290196">
        <ele>611.2</ele>
        <time>1970-01-01T00:00:00Z</time>
      </trkpt>
      <trkpt lat="39.410907" lon="-5.290196">
        <ele>611.2</ele>
        <time>1970-01-01T00:00:00Z</time>
      </trkpt>
      <trkpt lat="39.410994" lon="-5.290243">
        <ele>612.0</ele>
        <time>1970-01-01T00:00:00Z</time>
      </trkpt>
      <trkpt lat="39.410994" lon="-5.290243">
        <ele>612.0</ele>
        <time>1970-01-01T00:00:00Z</time>
      </trkpt>
      <trkpt lat="39.410994" lon="-5.290243">
        <ele>612.0</ele>
        <time>1970-01-01T00:00:00Z</time>
      </trkpt>
      <trkpt lat="39.410994" lon="-5.290243">
        <ele>612.0</ele>
        <time>1970-01-01T00:00:00Z</time>
      </trkpt>
      <trkpt lat="39.411070" lon="-5.290312">
        <ele>612.7</ele>
        <time>1970-01-01T00:00:00Z</time>
      </trkpt>
      <trkpt lat="39.411070" lon="-5.290312">
        <ele>612.7</ele>
        <time>1970-01-01T00:00:00Z</time>
      </trkpt>
      <trkpt lat="39.411070" lon="-5.290312">
        <ele>612.7</ele>
        <time>1970-01-01T00:00:00Z</time>
      </trkpt>
      <trkpt lat="39.411070" lon="-5.290312">
        <ele>612.7</ele>
        <time>1970-01-01T00:00:00Z</time>
      </trkpt>
      <trkpt lat="39.411180" lon="-5.290405">
        <ele>613.6</ele>
        <time>1970-01-01T00:00:00Z</time>
      </trkpt>
      <trkpt lat="39.411180" lon="-5.290405">
        <ele>613.6</ele>
        <time>1970-01-01T00:00:00Z</time>
      </trkpt>
      <trkpt lat="39.411180" lon="-5.290405">
        <ele>613.6</ele>
        <time>1970-01-01T00:00:00Z</time>
      </trkpt>
      <trkpt lat="39.411180" lon="-5.290405">
        <ele>613.6</ele>
        <time>1970-01-01T00:00:00Z</time>
      </trkpt>
      <trkpt lat="39.411364" lon="-5.290531">
        <ele>615.1</ele>
        <time>1970-01-01T00:00:00Z</time>
      </trkpt>
      <trkpt lat="39.411364" lon="-5.290531">
        <ele>615.1</ele>
        <time>1970-01-01T00:00:00Z</time>
      </trkpt>
      <trkpt lat="39.411364" lon="-5.290531">
        <ele>615.1</ele>
        <time>1970-01-01T00:00:00Z</time>
      </trkpt>
      <trkpt lat="39.411364" lon="-5.290531">
        <ele>615.1</ele>
        <time>1970-01-01T00:00:00Z</time>
      </trkpt>
      <trkpt lat="39.411528" lon="-5.290616">
        <ele>616.5</ele>
        <time>1970-01-01T00:00:00Z</time>
      </trkpt>
      <trkpt lat="39.411528" lon="-5.290616">
        <ele>616.5</ele>
        <time>1970-01-01T00:00:00Z</time>
      </trkpt>
      <trkpt lat="39.411528" lon="-5.290616">
        <ele>616.5</ele>
        <time>1970-01-01T00:00:00Z</time>
      </trkpt>
      <trkpt lat="39.411528" lon="-5.290616">
        <ele>616.5</ele>
        <time>1970-01-01T00:00:00Z</time>
      </trkpt>
      <trkpt lat="39.411729" lon="-5.290705">
        <ele>617.7</ele>
        <time>1970-01-01T00:00:00Z</time>
      </trkpt>
      <trkpt lat="39.411729" lon="-5.290705">
        <ele>617.7</ele>
        <time>1970-01-01T00:00:00Z</time>
      </trkpt>
      <trkpt lat="39.411729" lon="-5.290705">
        <ele>617.7</ele>
        <time>1970-01-01T00:00:00Z</time>
      </trkpt>
      <trkpt lat="39.411729" lon="-5.290705">
        <ele>617.7</ele>
        <time>1970-01-01T00:00:00Z</time>
      </trkpt>
      <trkpt lat="39.411823" lon="-5.290751">
        <ele>617.9</ele>
        <time>1970-01-01T00:00:00Z</time>
      </trkpt>
      <trkpt lat="39.411823" lon="-5.290751">
        <ele>617.9</ele>
        <time>1970-01-01T00:00:00Z</time>
      </trkpt>
      <trkpt lat="39.411823" lon="-5.290751">
        <ele>617.9</ele>
        <time>1970-01-01T00:00:00Z</time>
      </trkpt>
      <trkpt lat="39.411823" lon="-5.290751">
        <ele>617.9</ele>
        <time>1970-01-01T00:00:00Z</time>
      </trkpt>
      <trkpt lat="39.411979" lon="-5.290831">
        <ele>618.5</ele>
        <time>1970-01-01T00:00:00Z</time>
      </trkpt>
      <trkpt lat="39.411979" lon="-5.290831">
        <ele>618.5</ele>
        <time>1970-01-01T00:00:00Z</time>
      </trkpt>
      <trkpt lat="39.411979" lon="-5.290831">
        <ele>618.5</ele>
        <time>1970-01-01T00:00:00Z</time>
      </trkpt>
      <trkpt lat="39.411979" lon="-5.290831">
        <ele>618.5</ele>
        <time>1970-01-01T00:00:00Z</time>
      </trkpt>
      <trkpt lat="39.412146" lon="-5.290899">
        <ele>619.6</ele>
        <time>1970-01-01T00:00:00Z</time>
      </trkpt>
      <trkpt lat="39.412146" lon="-5.290899">
        <ele>619.6</ele>
        <time>1970-01-01T00:00:00Z</time>
      </trkpt>
      <trkpt lat="39.412146" lon="-5.290899">
        <ele>619.6</ele>
        <time>1970-01-01T00:00:00Z</time>
      </trkpt>
      <trkpt lat="39.412146" lon="-5.290899">
        <ele>619.6</ele>
        <time>1970-01-01T00:00:00Z</time>
      </trkpt>
      <trkpt lat="39.412309" lon="-5.290960">
        <ele>619.4</ele>
        <time>1970-01-01T00:00:00Z</time>
      </trkpt>
      <trkpt lat="39.412309" lon="-5.290960">
        <ele>619.4</ele>
        <time>1970-01-01T00:00:00Z</time>
      </trkpt>
      <trkpt lat="39.412309" lon="-5.290960">
        <ele>619.4</ele>
        <time>1970-01-01T00:00:00Z</time>
      </trkpt>
      <trkpt lat="39.412309" lon="-5.290960">
        <ele>619.4</ele>
        <time>1970-01-01T00:00:00Z</time>
      </trkpt>
      <trkpt lat="39.412604" lon="-5.291062">
        <ele>620.8</ele>
        <time>1970-01-01T00:00:00Z</time>
      </trkpt>
      <trkpt lat="39.412604" lon="-5.291062">
        <ele>620.8</ele>
        <time>1970-01-01T00:00:00Z</time>
      </trkpt>
      <trkpt lat="39.412604" lon="-5.291062">
        <ele>620.8</ele>
        <time>1970-01-01T00:00:00Z</time>
      </trkpt>
      <trkpt lat="39.412604" lon="-5.291062">
        <ele>620.8</ele>
        <time>1970-01-01T00:00:00Z</time>
      </trkpt>
      <trkpt lat="39.412914" lon="-5.291158">
        <ele>622.7</ele>
        <time>1970-01-01T00:00:00Z</time>
      </trkpt>
      <trkpt lat="39.412914" lon="-5.291158">
        <ele>622.7</ele>
        <time>1970-01-01T00:00:00Z</time>
      </trkpt>
      <trkpt lat="39.412914" lon="-5.291158">
        <ele>622.7</ele>
        <time>1970-01-01T00:00:00Z</time>
      </trkpt>
      <trkpt lat="39.412914" lon="-5.291158">
        <ele>622.7</ele>
        <time>1970-01-01T00:00:00Z</time>
      </trkpt>
      <trkpt lat="39.413154" lon="-5.291251">
        <ele>622.6</ele>
        <time>1970-01-01T00:00:00Z</time>
      </trkpt>
      <trkpt lat="39.413154" lon="-5.291251">
        <ele>622.6</ele>
        <time>1970-01-01T00:00:00Z</time>
      </trkpt>
      <trkpt lat="39.413154" lon="-5.291251">
        <ele>622.6</ele>
        <time>1970-01-01T00:00:00Z</time>
      </trkpt>
      <trkpt lat="39.413154" lon="-5.291251">
        <ele>622.6</ele>
        <time>1970-01-01T00:00:00Z</time>
      </trkpt>
      <trkpt lat="39.413354" lon="-5.291328">
        <ele>623.0</ele>
        <time>1970-01-01T00:00:00Z</time>
      </trkpt>
      <trkpt lat="39.413354" lon="-5.291328">
        <ele>623.0</ele>
        <time>1970-01-01T00:00:00Z</time>
      </trkpt>
      <trkpt lat="39.413354" lon="-5.291328">
        <ele>623.0</ele>
        <time>1970-01-01T00:00:00Z</time>
      </trkpt>
      <trkpt lat="39.413354" lon="-5.291328">
        <ele>623.0</ele>
        <time>1970-01-01T00:00:00Z</time>
      </trkpt>
      <trkpt lat="39.413518" lon="-5.291371">
        <ele>623.2</ele>
        <time>1970-01-01T00:00:00Z</time>
      </trkpt>
      <trkpt lat="39.413518" lon="-5.291371">
        <ele>623.2</ele>
        <time>1970-01-01T00:00:00Z</time>
      </trkpt>
      <trkpt lat="39.413518" lon="-5.291371">
        <ele>623.2</ele>
        <time>1970-01-01T00:00:00Z</time>
      </trkpt>
      <trkpt lat="39.413518" lon="-5.291371">
        <ele>623.2</ele>
        <time>1970-01-01T00:00:00Z</time>
      </trkpt>
      <trkpt lat="39.413768" lon="-5.291427">
        <ele>623.8</ele>
        <time>1970-01-01T00:00:00Z</time>
      </trkpt>
      <trkpt lat="39.413768" lon="-5.291427">
        <ele>623.8</ele>
        <time>1970-01-01T00:00:00Z</time>
      </trkpt>
      <trkpt lat="39.413768" lon="-5.291427">
        <ele>623.8</ele>
        <time>1970-01-01T00:00:00Z</time>
      </trkpt>
      <trkpt lat="39.413768" lon="-5.291427">
        <ele>623.8</ele>
        <time>1970-01-01T00:00:00Z</time>
      </trkpt>
      <trkpt lat="39.413924" lon="-5.291491">
        <ele>623.9</ele>
        <time>1970-01-01T00:00:00Z</time>
      </trkpt>
      <trkpt lat="39.413924" lon="-5.291491">
        <ele>623.9</ele>
        <time>1970-01-01T00:00:00Z</time>
      </trkpt>
      <trkpt lat="39.413924" lon="-5.291491">
        <ele>623.9</ele>
        <time>1970-01-01T00:00:00Z</time>
      </trkpt>
      <trkpt lat="39.413924" lon="-5.291491">
        <ele>623.9</ele>
        <time>1970-01-01T00:00:00Z</time>
      </trkpt>
      <trkpt lat="39.414186" lon="-5.291627">
        <ele>623.8</ele>
        <time>1970-01-01T00:00:00Z</time>
      </trkpt>
      <trkpt lat="39.414186" lon="-5.291627">
        <ele>623.8</ele>
        <time>1970-01-01T00:00:00Z</time>
      </trkpt>
      <trkpt lat="39.414186" lon="-5.291627">
        <ele>623.8</ele>
        <time>1970-01-01T00:00:00Z</time>
      </trkpt>
      <trkpt lat="39.414186" lon="-5.291627">
        <ele>623.8</ele>
        <time>1970-01-01T00:00:00Z</time>
      </trkpt>
      <trkpt lat="39.414354" lon="-5.291695">
        <ele>624.3</ele>
        <time>1970-01-01T00:00:00Z</time>
      </trkpt>
      <trkpt lat="39.414354" lon="-5.291695">
        <ele>624.3</ele>
        <time>1970-01-01T00:00:00Z</time>
      </trkpt>
      <trkpt lat="39.414354" lon="-5.291695">
        <ele>624.3</ele>
        <time>1970-01-01T00:00:00Z</time>
      </trkpt>
      <trkpt lat="39.414354" lon="-5.291695">
        <ele>624.3</ele>
        <time>1970-01-01T00:00:00Z</time>
      </trkpt>
      <trkpt lat="39.414553" lon="-5.291732">
        <ele>625.8</ele>
        <time>1970-01-01T00:00:00Z</time>
      </trkpt>
      <trkpt lat="39.414553" lon="-5.291732">
        <ele>625.8</ele>
        <time>1970-01-01T00:00:00Z</time>
      </trkpt>
      <trkpt lat="39.414553" lon="-5.291732">
        <ele>625.8</ele>
        <time>1970-01-01T00:00:00Z</time>
      </trkpt>
      <trkpt lat="39.414553" lon="-5.291732">
        <ele>625.8</ele>
        <time>1970-01-01T00:00:00Z</time>
      </trkpt>
      <trkpt lat="39.414684" lon="-5.291748">
        <ele>626.9</ele>
        <time>1970-01-01T00:00:00Z</time>
      </trkpt>
      <trkpt lat="39.414684" lon="-5.291748">
        <ele>626.9</ele>
        <time>1970-01-01T00:00:00Z</time>
      </trkpt>
      <trkpt lat="39.414684" lon="-5.291748">
        <ele>626.9</ele>
        <time>1970-01-01T00:00:00Z</time>
      </trkpt>
      <trkpt lat="39.414684" lon="-5.291748">
        <ele>626.9</ele>
        <time>1970-01-01T00:00:00Z</time>
      </trkpt>
      <trkpt lat="39.414846" lon="-5.291815">
        <ele>627.3</ele>
        <time>1970-01-01T00:00:00Z</time>
      </trkpt>
      <trkpt lat="39.414846" lon="-5.291815">
        <ele>627.3</ele>
        <time>1970-01-01T00:00:00Z</time>
      </trkpt>
      <trkpt lat="39.414846" lon="-5.291815">
        <ele>627.3</ele>
        <time>1970-01-01T00:00:00Z</time>
      </trkpt>
      <trkpt lat="39.414846" lon="-5.291815">
        <ele>627.3</ele>
        <time>1970-01-01T00:00:00Z</time>
      </trkpt>
      <trkpt lat="39.414951" lon="-5.291880">
        <ele>627.5</ele>
        <time>1970-01-01T00:00:00Z</time>
      </trkpt>
      <trkpt lat="39.414951" lon="-5.291880">
        <ele>627.5</ele>
        <time>1970-01-01T00:00:00Z</time>
      </trkpt>
      <trkpt lat="39.414951" lon="-5.291880">
        <ele>627.5</ele>
        <time>1970-01-01T00:00:00Z</time>
      </trkpt>
      <trkpt lat="39.414951" lon="-5.291880">
        <ele>627.5</ele>
        <time>1970-01-01T00:00:00Z</time>
      </trkpt>
      <trkpt lat="39.415196" lon="-5.292025">
        <ele>628.1</ele>
        <time>1970-01-01T00:00:00Z</time>
      </trkpt>
      <trkpt lat="39.415196" lon="-5.292025">
        <ele>628.1</ele>
        <time>1970-01-01T00:00:00Z</time>
      </trkpt>
      <trkpt lat="39.415196" lon="-5.292025">
        <ele>628.1</ele>
        <time>1970-01-01T00:00:00Z</time>
      </trkpt>
      <trkpt lat="39.415196" lon="-5.292025">
        <ele>628.1</ele>
        <time>1970-01-01T00:00:00Z</time>
      </trkpt>
      <trkpt lat="39.415353" lon="-5.292140">
        <ele>628.9</ele>
        <time>1970-01-01T00:00:00Z</time>
      </trkpt>
      <trkpt lat="39.415353" lon="-5.292140">
        <ele>628.9</ele>
        <time>1970-01-01T00:00:00Z</time>
      </trkpt>
      <trkpt lat="39.415353" lon="-5.292140">
        <ele>628.9</ele>
        <time>1970-01-01T00:00:00Z</time>
      </trkpt>
      <trkpt lat="39.415353" lon="-5.292140">
        <ele>628.9</ele>
        <time>1970-01-01T00:00:00Z</time>
      </trkpt>
      <trkpt lat="39.415540" lon="-5.292288">
        <ele>629.3</ele>
        <time>1970-01-01T00:00:00Z</time>
      </trkpt>
      <trkpt lat="39.415540" lon="-5.292288">
        <ele>629.3</ele>
        <time>1970-01-01T00:00:00Z</time>
      </trkpt>
      <trkpt lat="39.415540" lon="-5.292288">
        <ele>629.3</ele>
        <time>1970-01-01T00:00:00Z</time>
      </trkpt>
      <trkpt lat="39.415540" lon="-5.292288">
        <ele>629.3</ele>
        <time>1970-01-01T00:00:00Z</time>
      </trkpt>
      <trkpt lat="39.415811" lon="-5.292497">
        <ele>629.6</ele>
        <time>1970-01-01T00:00:00Z</time>
      </trkpt>
      <trkpt lat="39.415811" lon="-5.292497">
        <ele>629.6</ele>
        <time>1970-01-01T00:00:00Z</time>
      </trkpt>
      <trkpt lat="39.415811" lon="-5.292497">
        <ele>629.6</ele>
        <time>1970-01-01T00:00:00Z</time>
      </trkpt>
      <trkpt lat="39.415811" lon="-5.292497">
        <ele>629.6</ele>
        <time>1970-01-01T00:00:00Z</time>
      </trkpt>
      <trkpt lat="39.416047" lon="-5.292664">
        <ele>629.9</ele>
        <time>1970-01-01T00:00:00Z</time>
      </trkpt>
      <trkpt lat="39.416047" lon="-5.292664">
        <ele>629.9</ele>
        <time>1970-01-01T00:00:00Z</time>
      </trkpt>
      <trkpt lat="39.416047" lon="-5.292664">
        <ele>629.9</ele>
        <time>1970-01-01T00:00:00Z</time>
      </trkpt>
      <trkpt lat="39.416047" lon="-5.292664">
        <ele>629.9</ele>
        <time>1970-01-01T00:00:00Z</time>
      </trkpt>
      <trkpt lat="39.416265" lon="-5.292806">
        <ele>630.5</ele>
        <time>1970-01-01T00:00:00Z</time>
      </trkpt>
      <trkpt lat="39.416265" lon="-5.292806">
        <ele>630.5</ele>
        <time>1970-01-01T00:00:00Z</time>
      </trkpt>
      <trkpt lat="39.416265" lon="-5.292806">
        <ele>630.5</ele>
        <time>1970-01-01T00:00:00Z</time>
      </trkpt>
      <trkpt lat="39.416265" lon="-5.292806">
        <ele>630.5</ele>
        <time>1970-01-01T00:00:00Z</time>
      </trkpt>
      <trkpt lat="39.416474" lon="-5.292909">
        <ele>630.6</ele>
        <time>1970-01-01T00:00:00Z</time>
      </trkpt>
      <trkpt lat="39.416474" lon="-5.292909">
        <ele>630.6</ele>
        <time>1970-01-01T00:00:00Z</time>
      </trkpt>
      <trkpt lat="39.416474" lon="-5.292909">
        <ele>630.6</ele>
        <time>1970-01-01T00:00:00Z</time>
      </trkpt>
      <trkpt lat="39.416474" lon="-5.292909">
        <ele>630.6</ele>
        <time>1970-01-01T00:00:00Z</time>
      </trkpt>
      <trkpt lat="39.416631" lon="-5.292986">
        <ele>630.9</ele>
        <time>1970-01-01T00:00:00Z</time>
      </trkpt>
      <trkpt lat="39.416631" lon="-5.292986">
        <ele>630.9</ele>
        <time>1970-01-01T00:00:00Z</time>
      </trkpt>
      <trkpt lat="39.416631" lon="-5.292986">
        <ele>630.9</ele>
        <time>1970-01-01T00:00:00Z</time>
      </trkpt>
      <trkpt lat="39.416631" lon="-5.292986">
        <ele>630.9</ele>
        <time>1970-01-01T00:00:00Z</time>
      </trkpt>
      <trkpt lat="39.416869" lon="-5.293098">
        <ele>631.2</ele>
        <time>1970-01-01T00:00:00Z</time>
      </trkpt>
      <trkpt lat="39.416869" lon="-5.293098">
        <ele>631.2</ele>
        <time>1970-01-01T00:00:00Z</time>
      </trkpt>
      <trkpt lat="39.416869" lon="-5.293098">
        <ele>631.2</ele>
        <time>1970-01-01T00:00:00Z</time>
      </trkpt>
      <trkpt lat="39.416869" lon="-5.293098">
        <ele>631.2</ele>
        <time>1970-01-01T00:00:00Z</time>
      </trkpt>
      <trkpt lat="39.417145" lon="-5.293208">
        <ele>632.2</ele>
        <time>1970-01-01T00:00:00Z</time>
      </trkpt>
      <trkpt lat="39.417145" lon="-5.293208">
        <ele>632.2</ele>
        <time>1970-01-01T00:00:00Z</time>
      </trkpt>
      <trkpt lat="39.417145" lon="-5.293208">
        <ele>632.2</ele>
        <time>1970-01-01T00:00:00Z</time>
      </trkpt>
      <trkpt lat="39.417145" lon="-5.293208">
        <ele>632.2</ele>
        <time>1970-01-01T00:00:00Z</time>
      </trkpt>
      <trkpt lat="39.417345" lon="-5.293317">
        <ele>632.5</ele>
        <time>1970-01-01T00:00:00Z</time>
      </trkpt>
      <trkpt lat="39.417345" lon="-5.293317">
        <ele>632.5</ele>
        <time>1970-01-01T00:00:00Z</time>
      </trkpt>
      <trkpt lat="39.417345" lon="-5.293317">
        <ele>632.5</ele>
        <time>1970-01-01T00:00:00Z</time>
      </trkpt>
      <trkpt lat="39.417345" lon="-5.293317">
        <ele>632.5</ele>
        <time>1970-01-01T00:00:00Z</time>
      </trkpt>
      <trkpt lat="39.417594" lon="-5.293455">
        <ele>632.7</ele>
        <time>1970-01-01T00:00:00Z</time>
      </trkpt>
      <trkpt lat="39.417594" lon="-5.293455">
        <ele>632.7</ele>
        <time>1970-01-01T00:00:00Z</time>
      </trkpt>
      <trkpt lat="39.417594" lon="-5.293455">
        <ele>632.7</ele>
        <time>1970-01-01T00:00:00Z</time>
      </trkpt>
      <trkpt lat="39.417594" lon="-5.293455">
        <ele>632.7</ele>
        <time>1970-01-01T00:00:00Z</time>
      </trkpt>
      <trkpt lat="39.417816" lon="-5.293565">
        <ele>632.5</ele>
        <time>1970-01-01T00:00:00Z</time>
      </trkpt>
      <trkpt lat="39.417816" lon="-5.293565">
        <ele>632.5</ele>
        <time>1970-01-01T00:00:00Z</time>
      </trkpt>
      <trkpt lat="39.417816" lon="-5.293565">
        <ele>632.5</ele>
        <time>1970-01-01T00:00:00Z</time>
      </trkpt>
      <trkpt lat="39.417816" lon="-5.293565">
        <ele>632.5</ele>
        <time>1970-01-01T00:00:00Z</time>
      </trkpt>
      <trkpt lat="39.418046" lon="-5.293653">
        <ele>633.4</ele>
        <time>1970-01-01T00:00:00Z</time>
      </trkpt>
      <trkpt lat="39.418046" lon="-5.293653">
        <ele>633.4</ele>
        <time>1970-01-01T00:00:00Z</time>
      </trkpt>
      <trkpt lat="39.418046" lon="-5.293653">
        <ele>633.4</ele>
        <time>1970-01-01T00:00:00Z</time>
      </trkpt>
      <trkpt lat="39.418046" lon="-5.293653">
        <ele>633.4</ele>
        <time>1970-01-01T00:00:00Z</time>
      </trkpt>
      <trkpt lat="39.418266" lon="-5.293732">
        <ele>634.1</ele>
        <time>1970-01-01T00:00:00Z</time>
      </trkpt>
      <trkpt lat="39.418266" lon="-5.293732">
        <ele>634.1</ele>
        <time>1970-01-01T00:00:00Z</time>
      </trkpt>
      <trkpt lat="39.418266" lon="-5.293732">
        <ele>634.1</ele>
        <time>1970-01-01T00:00:00Z</time>
      </trkpt>
      <trkpt lat="39.418266" lon="-5.293732">
        <ele>634.1</ele>
        <time>1970-01-01T00:00:00Z</time>
      </trkpt>
      <trkpt lat="39.418480" lon="-5.293812">
        <ele>634.9</ele>
        <time>1970-01-01T00:00:00Z</time>
      </trkpt>
      <trkpt lat="39.418480" lon="-5.293812">
        <ele>634.9</ele>
        <time>1970-01-01T00:00:00Z</time>
      </trkpt>
      <trkpt lat="39.418480" lon="-5.293812">
        <ele>634.9</ele>
        <time>1970-01-01T00:00:00Z</time>
      </trkpt>
      <trkpt lat="39.418480" lon="-5.293812">
        <ele>634.9</ele>
        <time>1970-01-01T00:00:00Z</time>
      </trkpt>
      <trkpt lat="39.418657" lon="-5.293909">
        <ele>635.9</ele>
        <time>1970-01-01T00:00:00Z</time>
      </trkpt>
      <trkpt lat="39.418657" lon="-5.293909">
        <ele>635.9</ele>
        <time>1970-01-01T00:00:00Z</time>
      </trkpt>
      <trkpt lat="39.418657" lon="-5.293909">
        <ele>635.9</ele>
        <time>1970-01-01T00:00:00Z</time>
      </trkpt>
      <trkpt lat="39.418657" lon="-5.293909">
        <ele>635.9</ele>
        <time>1970-01-01T00:00:00Z</time>
      </trkpt>
      <trkpt lat="39.418926" lon="-5.294086">
        <ele>637.4</ele>
        <time>1970-01-01T00:00:00Z</time>
      </trkpt>
      <trkpt lat="39.418926" lon="-5.294086">
        <ele>637.4</ele>
        <time>1970-01-01T00:00:00Z</time>
      </trkpt>
      <trkpt lat="39.418926" lon="-5.294086">
        <ele>637.4</ele>
        <time>1970-01-01T00:00:00Z</time>
      </trkpt>
      <trkpt lat="39.418926" lon="-5.294086">
        <ele>637.4</ele>
        <time>1970-01-01T00:00:00Z</time>
      </trkpt>
      <trkpt lat="39.419102" lon="-5.294212">
        <ele>637.7</ele>
        <time>1970-01-01T00:00:00Z</time>
      </trkpt>
      <trkpt lat="39.419102" lon="-5.294212">
        <ele>637.7</ele>
        <time>1970-01-01T00:00:00Z</time>
      </trkpt>
      <trkpt lat="39.419102" lon="-5.294212">
        <ele>637.7</ele>
        <time>1970-01-01T00:00:00Z</time>
      </trkpt>
      <trkpt lat="39.419102" lon="-5.294212">
        <ele>637.7</ele>
        <time>1970-01-01T00:00:00Z</time>
      </trkpt>
      <trkpt lat="39.419339" lon="-5.294353">
        <ele>637.5</ele>
        <time>1970-01-01T00:00:00Z</time>
      </trkpt>
      <trkpt lat="39.419339" lon="-5.294353">
        <ele>637.5</ele>
        <time>1970-01-01T00:00:00Z</time>
      </trkpt>
      <trkpt lat="39.419339" lon="-5.294353">
        <ele>637.5</ele>
        <time>1970-01-01T00:00:00Z</time>
      </trkpt>
      <trkpt lat="39.419339" lon="-5.294353">
        <ele>637.5</ele>
        <time>1970-01-01T00:00:00Z</time>
      </trkpt>
      <trkpt lat="39.419529" lon="-5.294455">
        <ele>636.6</ele>
        <time>1970-01-01T00:00:00Z</time>
      </trkpt>
      <trkpt lat="39.419529" lon="-5.294455">
        <ele>636.6</ele>
        <time>1970-01-01T00:00:00Z</time>
      </trkpt>
      <trkpt lat="39.419529" lon="-5.294455">
        <ele>636.6</ele>
        <time>1970-01-01T00:00:00Z</time>
      </trkpt>
      <trkpt lat="39.419529" lon="-5.294455">
        <ele>636.6</ele>
        <time>1970-01-01T00:00:00Z</time>
      </trkpt>
      <trkpt lat="39.419636" lon="-5.294517">
        <ele>635.8</ele>
        <time>1970-01-01T00:00:00Z</time>
      </trkpt>
      <trkpt lat="39.419636" lon="-5.294517">
        <ele>635.8</ele>
        <time>1970-01-01T00:00:00Z</time>
      </trkpt>
      <trkpt lat="39.419636" lon="-5.294517">
        <ele>635.8</ele>
        <time>1970-01-01T00:00:00Z</time>
      </trkpt>
      <trkpt lat="39.419636" lon="-5.294517">
        <ele>635.8</ele>
        <time>1970-01-01T00:00:00Z</time>
      </trkpt>
      <trkpt lat="39.419747" lon="-5.294599">
        <ele>635.2</ele>
        <time>1970-01-01T00:00:00Z</time>
      </trkpt>
      <trkpt lat="39.419747" lon="-5.294599">
        <ele>635.2</ele>
        <time>1970-01-01T00:00:00Z</time>
      </trkpt>
      <trkpt lat="39.419747" lon="-5.294599">
        <ele>635.2</ele>
        <time>1970-01-01T00:00:00Z</time>
      </trkpt>
      <trkpt lat="39.419747" lon="-5.294599">
        <ele>635.2</ele>
        <time>1970-01-01T00:00:00Z</time>
      </trkpt>
      <trkpt lat="39.419861" lon="-5.294685">
        <ele>634.2</ele>
        <time>1970-01-01T00:00:00Z</time>
      </trkpt>
      <trkpt lat="39.419861" lon="-5.294685">
        <ele>634.2</ele>
        <time>1970-01-01T00:00:00Z</time>
      </trkpt>
      <trkpt lat="39.419861" lon="-5.294685">
        <ele>634.2</ele>
        <time>1970-01-01T00:00:00Z</time>
      </trkpt>
      <trkpt lat="39.419861" lon="-5.294685">
        <ele>634.2</ele>
        <time>1970-01-01T00:00:00Z</time>
      </trkpt>
      <trkpt lat="39.420017" lon="-5.294838">
        <ele>632.5</ele>
        <time>1970-01-01T00:00:00Z</time>
      </trkpt>
      <trkpt lat="39.420017" lon="-5.294838">
        <ele>632.5</ele>
        <time>1970-01-01T00:00:00Z</time>
      </trkpt>
      <trkpt lat="39.420017" lon="-5.294838">
        <ele>632.5</ele>
        <time>1970-01-01T00:00:00Z</time>
      </trkpt>
      <trkpt lat="39.420017" lon="-5.294838">
        <ele>632.5</ele>
        <time>1970-01-01T00:00:00Z</time>
      </trkpt>
      <trkpt lat="39.420207" lon="-5.295031">
        <ele>631.3</ele>
        <time>1970-01-01T00:00:00Z</time>
      </trkpt>
      <trkpt lat="39.420207" lon="-5.295031">
        <ele>631.3</ele>
        <time>1970-01-01T00:00:00Z</time>
      </trkpt>
      <trkpt lat="39.420207" lon="-5.295031">
        <ele>631.3</ele>
        <time>1970-01-01T00:00:00Z</time>
      </trkpt>
      <trkpt lat="39.420207" lon="-5.295031">
        <ele>631.3</ele>
        <time>1970-01-01T00:00:00Z</time>
      </trkpt>
      <trkpt lat="39.420302" lon="-5.295147">
        <ele>632.3</ele>
        <time>1970-01-01T00:00:00Z</time>
      </trkpt>
      <trkpt lat="39.420302" lon="-5.295147">
        <ele>632.3</ele>
        <time>1970-01-01T00:00:00Z</time>
      </trkpt>
      <trkpt lat="39.420302" lon="-5.295147">
        <ele>632.3</ele>
        <time>1970-01-01T00:00:00Z</time>
      </trkpt>
      <trkpt lat="39.420302" lon="-5.295147">
        <ele>632.3</ele>
        <time>1970-01-01T00:00:00Z</time>
      </trkpt>
      <trkpt lat="39.420552" lon="-5.295361">
        <ele>634.0</ele>
        <time>1970-01-01T00:00:00Z</time>
      </trkpt>
      <trkpt lat="39.420552" lon="-5.295361">
        <ele>634.0</ele>
        <time>1970-01-01T00:00:00Z</time>
      </trkpt>
      <trkpt lat="39.420552" lon="-5.295361">
        <ele>634.0</ele>
        <time>1970-01-01T00:00:00Z</time>
      </trkpt>
      <trkpt lat="39.420552" lon="-5.295361">
        <ele>634.0</ele>
        <time>1970-01-01T00:00:00Z</time>
      </trkpt>
      <trkpt lat="39.420731" lon="-5.295518">
        <ele>636.0</ele>
        <time>1970-01-01T00:00:00Z</time>
      </trkpt>
      <trkpt lat="39.420731" lon="-5.295518">
        <ele>636.0</ele>
        <time>1970-01-01T00:00:00Z</time>
      </trkpt>
      <trkpt lat="39.420731" lon="-5.295518">
        <ele>636.0</ele>
        <time>1970-01-01T00:00:00Z</time>
      </trkpt>
      <trkpt lat="39.420731" lon="-5.295518">
        <ele>636.0</ele>
        <time>1970-01-01T00:00:00Z</time>
      </trkpt>
      <trkpt lat="39.420954" lon="-5.295664">
        <ele>636.6</ele>
        <time>1970-01-01T00:00:00Z</time>
      </trkpt>
      <trkpt lat="39.420954" lon="-5.295664">
        <ele>636.6</ele>
        <time>1970-01-01T00:00:00Z</time>
      </trkpt>
      <trkpt lat="39.420954" lon="-5.295664">
        <ele>636.6</ele>
        <time>1970-01-01T00:00:00Z</time>
      </trkpt>
      <trkpt lat="39.420954" lon="-5.295664">
        <ele>636.6</ele>
        <time>1970-01-01T00:00:00Z</time>
      </trkpt>
      <trkpt lat="39.421113" lon="-5.295759">
        <ele>638.0</ele>
        <time>1970-01-01T00:00:00Z</time>
      </trkpt>
      <trkpt lat="39.421113" lon="-5.295759">
        <ele>638.0</ele>
        <time>1970-01-01T00:00:00Z</time>
      </trkpt>
      <trkpt lat="39.421113" lon="-5.295759">
        <ele>638.0</ele>
        <time>1970-01-01T00:00:00Z</time>
      </trkpt>
      <trkpt lat="39.421113" lon="-5.295759">
        <ele>638.0</ele>
        <time>1970-01-01T00:00:00Z</time>
      </trkpt>
      <trkpt lat="39.421359" lon="-5.295898">
        <ele>639.1</ele>
        <time>1970-01-01T00:00:00Z</time>
      </trkpt>
      <trkpt lat="39.421359" lon="-5.295898">
        <ele>639.1</ele>
        <time>1970-01-01T00:00:00Z</time>
      </trkpt>
      <trkpt lat="39.421359" lon="-5.295898">
        <ele>639.1</ele>
        <time>1970-01-01T00:00:00Z</time>
      </trkpt>
      <trkpt lat="39.421359" lon="-5.295898">
        <ele>639.1</ele>
        <time>1970-01-01T00:00:00Z</time>
      </trkpt>
      <trkpt lat="39.421506" lon="-5.296041">
        <ele>639.6</ele>
        <time>1970-01-01T00:00:00Z</time>
      </trkpt>
      <trkpt lat="39.421506" lon="-5.296041">
        <ele>639.6</ele>
        <time>1970-01-01T00:00:00Z</time>
      </trkpt>
      <trkpt lat="39.421506" lon="-5.296041">
        <ele>639.6</ele>
        <time>1970-01-01T00:00:00Z</time>
      </trkpt>
      <trkpt lat="39.421506" lon="-5.296041">
        <ele>639.6</ele>
        <time>1970-01-01T00:00:00Z</time>
      </trkpt>
      <trkpt lat="39.421648" lon="-5.296226">
        <ele>640.3</ele>
        <time>1970-01-01T00:00:00Z</time>
      </trkpt>
      <trkpt lat="39.421648" lon="-5.296226">
        <ele>640.3</ele>
        <time>1970-01-01T00:00:00Z</time>
      </trkpt>
      <trkpt lat="39.421648" lon="-5.296226">
        <ele>640.3</ele>
        <time>1970-01-01T00:00:00Z</time>
      </trkpt>
      <trkpt lat="39.421648" lon="-5.296226">
        <ele>640.3</ele>
        <time>1970-01-01T00:00:00Z</time>
      </trkpt>
      <trkpt lat="39.421825" lon="-5.296487">
        <ele>640.8</ele>
        <time>1970-01-01T00:00:00Z</time>
      </trkpt>
      <trkpt lat="39.421825" lon="-5.296487">
        <ele>640.8</ele>
        <time>1970-01-01T00:00:00Z</time>
      </trkpt>
      <trkpt lat="39.421825" lon="-5.296487">
        <ele>640.8</ele>
        <time>1970-01-01T00:00:00Z</time>
      </trkpt>
      <trkpt lat="39.421825" lon="-5.296487">
        <ele>640.8</ele>
        <time>1970-01-01T00:00:00Z</time>
      </trkpt>
      <trkpt lat="39.422006" lon="-5.296713">
        <ele>639.7</ele>
        <time>1970-01-01T00:00:00Z</time>
      </trkpt>
      <trkpt lat="39.422006" lon="-5.296713">
        <ele>639.7</ele>
        <time>1970-01-01T00:00:00Z</time>
      </trkpt>
      <trkpt lat="39.422006" lon="-5.296713">
        <ele>639.7</ele>
        <time>1970-01-01T00:00:00Z</time>
      </trkpt>
      <trkpt lat="39.422006" lon="-5.296713">
        <ele>639.7</ele>
        <time>1970-01-01T00:00:00Z</time>
      </trkpt>
      <trkpt lat="39.422168" lon="-5.296920">
        <ele>638.4</ele>
        <time>1970-01-01T00:00:00Z</time>
      </trkpt>
      <trkpt lat="39.422168" lon="-5.296920">
        <ele>638.4</ele>
        <time>1970-01-01T00:00:00Z</time>
      </trkpt>
      <trkpt lat="39.422168" lon="-5.296920">
        <ele>638.4</ele>
        <time>1970-01-01T00:00:00Z</time>
      </trkpt>
      <trkpt lat="39.422168" lon="-5.296920">
        <ele>638.4</ele>
        <time>1970-01-01T00:00:00Z</time>
      </trkpt>
      <trkpt lat="39.422325" lon="-5.297106">
        <ele>636.9</ele>
        <time>1970-01-01T00:00:00Z</time>
      </trkpt>
      <trkpt lat="39.422325" lon="-5.297106">
        <ele>636.9</ele>
        <time>1970-01-01T00:00:00Z</time>
      </trkpt>
      <trkpt lat="39.422325" lon="-5.297106">
        <ele>636.9</ele>
        <time>1970-01-01T00:00:00Z</time>
      </trkpt>
      <trkpt lat="39.422325" lon="-5.297106">
        <ele>636.9</ele>
        <time>1970-01-01T00:00:00Z</time>
      </trkpt>
      <trkpt lat="39.422486" lon="-5.297259">
        <ele>636.2</ele>
        <time>1970-01-01T00:00:00Z</time>
      </trkpt>
      <trkpt lat="39.422486" lon="-5.297259">
        <ele>636.2</ele>
        <time>1970-01-01T00:00:00Z</time>
      </trkpt>
      <trkpt lat="39.422486" lon="-5.297259">
        <ele>636.2</ele>
        <time>1970-01-01T00:00:00Z</time>
      </trkpt>
      <trkpt lat="39.422486" lon="-5.297259">
        <ele>636.2</ele>
        <time>1970-01-01T00:00:00Z</time>
      </trkpt>
      <trkpt lat="39.422618" lon="-5.297346">
        <ele>634.6</ele>
        <time>1970-01-01T00:00:00Z</time>
      </trkpt>
      <trkpt lat="39.422618" lon="-5.297346">
        <ele>634.6</ele>
        <time>1970-01-01T00:00:00Z</time>
      </trkpt>
      <trkpt lat="39.422618" lon="-5.297346">
        <ele>634.6</ele>
        <time>1970-01-01T00:00:00Z</time>
      </trkpt>
      <trkpt lat="39.422618" lon="-5.297346">
        <ele>634.6</ele>
        <time>1970-01-01T00:00:00Z</time>
      </trkpt>
      <trkpt lat="39.422701" lon="-5.297389">
        <ele>633.7</ele>
        <time>1970-01-01T00:00:00Z</time>
      </trkpt>
      <trkpt lat="39.422701" lon="-5.297389">
        <ele>633.7</ele>
        <time>1970-01-01T00:00:00Z</time>
      </trkpt>
      <trkpt lat="39.422701" lon="-5.297389">
        <ele>633.7</ele>
        <time>1970-01-01T00:00:00Z</time>
      </trkpt>
      <trkpt lat="39.422701" lon="-5.297389">
        <ele>633.7</ele>
        <time>1970-01-01T00:00:00Z</time>
      </trkpt>
      <trkpt lat="39.422769" lon="-5.297403">
        <ele>632.7</ele>
        <time>1970-01-01T00:00:00Z</time>
      </trkpt>
      <trkpt lat="39.422769" lon="-5.297403">
        <ele>632.7</ele>
        <time>1970-01-01T00:00:00Z</time>
      </trkpt>
      <trkpt lat="39.422769" lon="-5.297403">
        <ele>632.7</ele>
        <time>1970-01-01T00:00:00Z</time>
      </trkpt>
      <trkpt lat="39.422769" lon="-5.297403">
        <ele>632.7</ele>
        <time>1970-01-01T00:00:00Z</time>
      </trkpt>
      <trkpt lat="39.422912" lon="-5.297435">
        <ele>631.4</ele>
        <time>1970-01-01T00:00:00Z</time>
      </trkpt>
      <trkpt lat="39.422912" lon="-5.297435">
        <ele>631.4</ele>
        <time>1970-01-01T00:00:00Z</time>
      </trkpt>
      <trkpt lat="39.422912" lon="-5.297435">
        <ele>631.4</ele>
        <time>1970-01-01T00:00:00Z</time>
      </trkpt>
      <trkpt lat="39.422912" lon="-5.297435">
        <ele>631.4</ele>
        <time>1970-01-01T00:00:00Z</time>
      </trkpt>
      <trkpt lat="39.423134" lon="-5.297439">
        <ele>629.0</ele>
        <time>1970-01-01T00:00:00Z</time>
      </trkpt>
      <trkpt lat="39.423134" lon="-5.297439">
        <ele>629.0</ele>
        <time>1970-01-01T00:00:00Z</time>
      </trkpt>
      <trkpt lat="39.423134" lon="-5.297439">
        <ele>629.0</ele>
        <time>1970-01-01T00:00:00Z</time>
      </trkpt>
      <trkpt lat="39.423134" lon="-5.297439">
        <ele>629.0</ele>
        <time>1970-01-01T00:00:00Z</time>
      </trkpt>
      <trkpt lat="39.423260" lon="-5.297448">
        <ele>627.9</ele>
        <time>1970-01-01T00:00:00Z</time>
      </trkpt>
      <trkpt lat="39.423260" lon="-5.297448">
        <ele>627.9</ele>
        <time>1970-01-01T00:00:00Z</time>
      </trkpt>
      <trkpt lat="39.423260" lon="-5.297448">
        <ele>627.9</ele>
        <time>1970-01-01T00:00:00Z</time>
      </trkpt>
      <trkpt lat="39.423260" lon="-5.297448">
        <ele>627.9</ele>
        <time>1970-01-01T00:00:00Z</time>
      </trkpt>
      <trkpt lat="39.423353" lon="-5.297472">
        <ele>626.9</ele>
        <time>1970-01-01T00:00:00Z</time>
      </trkpt>
      <trkpt lat="39.423353" lon="-5.297472">
        <ele>626.9</ele>
        <time>1970-01-01T00:00:00Z</time>
      </trkpt>
      <trkpt lat="39.423353" lon="-5.297472">
        <ele>626.9</ele>
        <time>1970-01-01T00:00:00Z</time>
      </trkpt>
      <trkpt lat="39.423353" lon="-5.297472">
        <ele>626.9</ele>
        <time>1970-01-01T00:00:00Z</time>
      </trkpt>
      <trkpt lat="39.423441" lon="-5.297521">
        <ele>626.5</ele>
        <time>1970-01-01T00:00:00Z</time>
      </trkpt>
      <trkpt lat="39.423441" lon="-5.297521">
        <ele>626.5</ele>
        <time>1970-01-01T00:00:00Z</time>
      </trkpt>
      <trkpt lat="39.423441" lon="-5.297521">
        <ele>626.5</ele>
        <time>1970-01-01T00:00:00Z</time>
      </trkpt>
      <trkpt lat="39.423441" lon="-5.297521">
        <ele>626.5</ele>
        <time>1970-01-01T00:00:00Z</time>
      </trkpt>
      <trkpt lat="39.423565" lon="-5.297587">
        <ele>626.4</ele>
        <time>1970-01-01T00:00:00Z</time>
      </trkpt>
      <trkpt lat="39.423565" lon="-5.297587">
        <ele>626.4</ele>
        <time>1970-01-01T00:00:00Z</time>
      </trkpt>
      <trkpt lat="39.423565" lon="-5.297587">
        <ele>626.4</ele>
        <time>1970-01-01T00:00:00Z</time>
      </trkpt>
      <trkpt lat="39.423565" lon="-5.297587">
        <ele>626.4</ele>
        <time>1970-01-01T00:00:00Z</time>
      </trkpt>
      <trkpt lat="39.423721" lon="-5.297661">
        <ele>625.7</ele>
        <time>1970-01-01T00:00:00Z</time>
      </trkpt>
      <trkpt lat="39.423721" lon="-5.297661">
        <ele>625.7</ele>
        <time>1970-01-01T00:00:00Z</time>
      </trkpt>
      <trkpt lat="39.423721" lon="-5.297661">
        <ele>625.7</ele>
        <time>1970-01-01T00:00:00Z</time>
      </trkpt>
      <trkpt lat="39.423721" lon="-5.297661">
        <ele>625.7</ele>
        <time>1970-01-01T00:00:00Z</time>
      </trkpt>
      <trkpt lat="39.423857" lon="-5.297683">
        <ele>624.6</ele>
        <time>1970-01-01T00:00:00Z</time>
      </trkpt>
      <trkpt lat="39.423857" lon="-5.297683">
        <ele>624.6</ele>
        <time>1970-01-01T00:00:00Z</time>
      </trkpt>
      <trkpt lat="39.423857" lon="-5.297683">
        <ele>624.6</ele>
        <time>1970-01-01T00:00:00Z</time>
      </trkpt>
      <trkpt lat="39.423857" lon="-5.297683">
        <ele>624.6</ele>
        <time>1970-01-01T00:00:00Z</time>
      </trkpt>
      <trkpt lat="39.423995" lon="-5.297665">
        <ele>622.9</ele>
        <time>1970-01-01T00:00:00Z</time>
      </trkpt>
      <trkpt lat="39.423995" lon="-5.297665">
        <ele>622.9</ele>
        <time>1970-01-01T00:00:00Z</time>
      </trkpt>
      <trkpt lat="39.423995" lon="-5.297665">
        <ele>622.9</ele>
        <time>1970-01-01T00:00:00Z</time>
      </trkpt>
      <trkpt lat="39.423995" lon="-5.297665">
        <ele>622.9</ele>
        <time>1970-01-01T00:00:00Z</time>
      </trkpt>
      <trkpt lat="39.424159" lon="-5.297626">
        <ele>620.8</ele>
        <time>1970-01-01T00:00:00Z</time>
      </trkpt>
      <trkpt lat="39.424159" lon="-5.297626">
        <ele>620.8</ele>
        <time>1970-01-01T00:00:00Z</time>
      </trkpt>
      <trkpt lat="39.424159" lon="-5.297626">
        <ele>620.8</ele>
        <time>1970-01-01T00:00:00Z</time>
      </trkpt>
      <trkpt lat="39.424159" lon="-5.297626">
        <ele>620.8</ele>
        <time>1970-01-01T00:00:00Z</time>
      </trkpt>
      <trkpt lat="39.424293" lon="-5.297599">
        <ele>619.1</ele>
        <time>1970-01-01T00:00:00Z</time>
      </trkpt>
      <trkpt lat="39.424293" lon="-5.297599">
        <ele>619.1</ele>
        <time>1970-01-01T00:00:00Z</time>
      </trkpt>
      <trkpt lat="39.424293" lon="-5.297599">
        <ele>619.1</ele>
        <time>1970-01-01T00:00:00Z</time>
      </trkpt>
      <trkpt lat="39.424293" lon="-5.297599">
        <ele>619.1</ele>
        <time>1970-01-01T00:00:00Z</time>
      </trkpt>
      <trkpt lat="39.424393" lon="-5.297593">
        <ele>618.0</ele>
        <time>1970-01-01T00:00:00Z</time>
      </trkpt>
      <trkpt lat="39.424393" lon="-5.297593">
        <ele>618.0</ele>
        <time>1970-01-01T00:00:00Z</time>
      </trkpt>
      <trkpt lat="39.424393" lon="-5.297593">
        <ele>618.0</ele>
        <time>1970-01-01T00:00:00Z</time>
      </trkpt>
      <trkpt lat="39.424393" lon="-5.297593">
        <ele>618.0</ele>
        <time>1970-01-01T00:00:00Z</time>
      </trkpt>
      <trkpt lat="39.424578" lon="-5.297589">
        <ele>616.2</ele>
        <time>1970-01-01T00:00:00Z</time>
      </trkpt>
      <trkpt lat="39.424578" lon="-5.297589">
        <ele>616.2</ele>
        <time>1970-01-01T00:00:00Z</time>
      </trkpt>
      <trkpt lat="39.424578" lon="-5.297589">
        <ele>616.2</ele>
        <time>1970-01-01T00:00:00Z</time>
      </trkpt>
      <trkpt lat="39.424578" lon="-5.297589">
        <ele>616.2</ele>
        <time>1970-01-01T00:00:00Z</time>
      </trkpt>
      <trkpt lat="39.424707" lon="-5.297599">
        <ele>614.7</ele>
        <time>1970-01-01T00:00:00Z</time>
      </trkpt>
      <trkpt lat="39.424707" lon="-5.297599">
        <ele>614.7</ele>
        <time>1970-01-01T00:00:00Z</time>
      </trkpt>
      <trkpt lat="39.424707" lon="-5.297599">
        <ele>614.7</ele>
        <time>1970-01-01T00:00:00Z</time>
      </trkpt>
      <trkpt lat="39.424707" lon="-5.297599">
        <ele>614.7</ele>
        <time>1970-01-01T00:00:00Z</time>
      </trkpt>
      <trkpt lat="39.424909" lon="-5.297585">
        <ele>611.3</ele>
        <time>1970-01-01T00:00:00Z</time>
      </trkpt>
      <trkpt lat="39.424909" lon="-5.297585">
        <ele>611.3</ele>
        <time>1970-01-01T00:00:00Z</time>
      </trkpt>
      <trkpt lat="39.424909" lon="-5.297585">
        <ele>611.3</ele>
        <time>1970-01-01T00:00:00Z</time>
      </trkpt>
      <trkpt lat="39.424909" lon="-5.297585">
        <ele>611.3</ele>
        <time>1970-01-01T00:00:00Z</time>
      </trkpt>
      <trkpt lat="39.425033" lon="-5.297627">
        <ele>610.0</ele>
        <time>1970-01-01T00:00:00Z</time>
      </trkpt>
      <trkpt lat="39.425033" lon="-5.297627">
        <ele>610.0</ele>
        <time>1970-01-01T00:00:00Z</time>
      </trkpt>
      <trkpt lat="39.425033" lon="-5.297627">
        <ele>610.0</ele>
        <time>1970-01-01T00:00:00Z</time>
      </trkpt>
      <trkpt lat="39.425033" lon="-5.297627">
        <ele>610.0</ele>
        <time>1970-01-01T00:00:00Z</time>
      </trkpt>
      <trkpt lat="39.425147" lon="-5.297721">
        <ele>609.3</ele>
        <time>1970-01-01T00:00:00Z</time>
      </trkpt>
      <trkpt lat="39.425147" lon="-5.297721">
        <ele>609.3</ele>
        <time>1970-01-01T00:00:00Z</time>
      </trkpt>
      <trkpt lat="39.425147" lon="-5.297721">
        <ele>609.3</ele>
        <time>1970-01-01T00:00:00Z</time>
      </trkpt>
      <trkpt lat="39.425147" lon="-5.297721">
        <ele>609.3</ele>
        <time>1970-01-01T00:00:00Z</time>
      </trkpt>
      <trkpt lat="39.425254" lon="-5.297866">
        <ele>610.1</ele>
        <time>1970-01-01T00:00:00Z</time>
      </trkpt>
      <trkpt lat="39.425254" lon="-5.297866">
        <ele>610.1</ele>
        <time>1970-01-01T00:00:00Z</time>
      </trkpt>
      <trkpt lat="39.425254" lon="-5.297866">
        <ele>610.1</ele>
        <time>1970-01-01T00:00:00Z</time>
      </trkpt>
      <trkpt lat="39.425254" lon="-5.297866">
        <ele>610.1</ele>
        <time>1970-01-01T00:00:00Z</time>
      </trkpt>
      <trkpt lat="39.425317" lon="-5.298018">
        <ele>611.5</ele>
        <time>1970-01-01T00:00:00Z</time>
      </trkpt>
      <trkpt lat="39.425317" lon="-5.298018">
        <ele>611.5</ele>
        <time>1970-01-01T00:00:00Z</time>
      </trkpt>
      <trkpt lat="39.425317" lon="-5.298018">
        <ele>611.5</ele>
        <time>1970-01-01T00:00:00Z</time>
      </trkpt>
      <trkpt lat="39.425317" lon="-5.298018">
        <ele>611.5</ele>
        <time>1970-01-01T00:00:00Z</time>
      </trkpt>
      <trkpt lat="39.425354" lon="-5.298112">
        <ele>611.9</ele>
        <time>1970-01-01T00:00:00Z</time>
      </trkpt>
      <trkpt lat="39.425354" lon="-5.298112">
        <ele>611.9</ele>
        <time>1970-01-01T00:00:00Z</time>
      </trkpt>
      <trkpt lat="39.425354" lon="-5.298112">
        <ele>611.9</ele>
        <time>1970-01-01T00:00:00Z</time>
      </trkpt>
      <trkpt lat="39.425354" lon="-5.298112">
        <ele>611.9</ele>
        <time>1970-01-01T00:00:00Z</time>
      </trkpt>
      <trkpt lat="39.425406" lon="-5.298207">
        <ele>612.3</ele>
        <time>1970-01-01T00:00:00Z</time>
      </trkpt>
      <trkpt lat="39.425406" lon="-5.298207">
        <ele>612.3</ele>
        <time>1970-01-01T00:00:00Z</time>
      </trkpt>
      <trkpt lat="39.425406" lon="-5.298207">
        <ele>612.3</ele>
        <time>1970-01-01T00:00:00Z</time>
      </trkpt>
      <trkpt lat="39.425406" lon="-5.298207">
        <ele>612.3</ele>
        <time>1970-01-01T00:00:00Z</time>
      </trkpt>
      <trkpt lat="39.425487" lon="-5.298308">
        <ele>613.1</ele>
        <time>1970-01-01T00:00:00Z</time>
      </trkpt>
      <trkpt lat="39.425487" lon="-5.298308">
        <ele>613.1</ele>
        <time>1970-01-01T00:00:00Z</time>
      </trkpt>
      <trkpt lat="39.425487" lon="-5.298308">
        <ele>613.1</ele>
        <time>1970-01-01T00:00:00Z</time>
      </trkpt>
      <trkpt lat="39.425487" lon="-5.298308">
        <ele>613.1</ele>
        <time>1970-01-01T00:00:00Z</time>
      </trkpt>
      <trkpt lat="39.425619" lon="-5.298378">
        <ele>613.4</ele>
        <time>1970-01-01T00:00:00Z</time>
      </trkpt>
      <trkpt lat="39.425619" lon="-5.298378">
        <ele>613.4</ele>
        <time>1970-01-01T00:00:00Z</time>
      </trkpt>
      <trkpt lat="39.425619" lon="-5.298378">
        <ele>613.4</ele>
        <time>1970-01-01T00:00:00Z</time>
      </trkpt>
      <trkpt lat="39.425619" lon="-5.298378">
        <ele>613.4</ele>
        <time>1970-01-01T00:00:00Z</time>
      </trkpt>
      <trkpt lat="39.425770" lon="-5.298398">
        <ele>613.3</ele>
        <time>1970-01-01T00:00:00Z</time>
      </trkpt>
      <trkpt lat="39.425770" lon="-5.298398">
        <ele>613.3</ele>
        <time>1970-01-01T00:00:00Z</time>
      </trkpt>
      <trkpt lat="39.425770" lon="-5.298398">
        <ele>613.3</ele>
        <time>1970-01-01T00:00:00Z</time>
      </trkpt>
      <trkpt lat="39.425770" lon="-5.298398">
        <ele>613.3</ele>
        <time>1970-01-01T00:00:00Z</time>
      </trkpt>
      <trkpt lat="39.425948" lon="-5.298428">
        <ele>613.0</ele>
        <time>1970-01-01T00:00:00Z</time>
      </trkpt>
      <trkpt lat="39.425948" lon="-5.298428">
        <ele>613.0</ele>
        <time>1970-01-01T00:00:00Z</time>
      </trkpt>
      <trkpt lat="39.425948" lon="-5.298428">
        <ele>613.0</ele>
        <time>1970-01-01T00:00:00Z</time>
      </trkpt>
      <trkpt lat="39.425948" lon="-5.298428">
        <ele>613.0</ele>
        <time>1970-01-01T00:00:00Z</time>
      </trkpt>
      <trkpt lat="39.426149" lon="-5.298421">
        <ele>612.1</ele>
        <time>1970-01-01T00:00:00Z</time>
      </trkpt>
      <trkpt lat="39.426149" lon="-5.298421">
        <ele>612.1</ele>
        <time>1970-01-01T00:00:00Z</time>
      </trkpt>
      <trkpt lat="39.426149" lon="-5.298421">
        <ele>612.1</ele>
        <time>1970-01-01T00:00:00Z</time>
      </trkpt>
      <trkpt lat="39.426149" lon="-5.298421">
        <ele>612.1</ele>
        <time>1970-01-01T00:00:00Z</time>
      </trkpt>
      <trkpt lat="39.426429" lon="-5.298404">
        <ele>611.5</ele>
        <time>1970-01-01T00:00:00Z</time>
      </trkpt>
      <trkpt lat="39.426429" lon="-5.298404">
        <ele>611.5</ele>
        <time>1970-01-01T00:00:00Z</time>
      </trkpt>
      <trkpt lat="39.426429" lon="-5.298404">
        <ele>611.5</ele>
        <time>1970-01-01T00:00:00Z</time>
      </trkpt>
      <trkpt lat="39.426429" lon="-5.298404">
        <ele>611.5</ele>
        <time>1970-01-01T00:00:00Z</time>
      </trkpt>
      <trkpt lat="39.426575" lon="-5.298419">
        <ele>611.9</ele>
        <time>1970-01-01T00:00:00Z</time>
      </trkpt>
      <trkpt lat="39.426575" lon="-5.298419">
        <ele>611.9</ele>
        <time>1970-01-01T00:00:00Z</time>
      </trkpt>
      <trkpt lat="39.426575" lon="-5.298419">
        <ele>611.9</ele>
        <time>1970-01-01T00:00:00Z</time>
      </trkpt>
      <trkpt lat="39.426575" lon="-5.298419">
        <ele>611.9</ele>
        <time>1970-01-01T00:00:00Z</time>
      </trkpt>
      <trkpt lat="39.426665" lon="-5.298445">
        <ele>612.5</ele>
        <time>1970-01-01T00:00:00Z</time>
      </trkpt>
      <trkpt lat="39.426665" lon="-5.298445">
        <ele>612.5</ele>
        <time>1970-01-01T00:00:00Z</time>
      </trkpt>
      <trkpt lat="39.426665" lon="-5.298445">
        <ele>612.5</ele>
        <time>1970-01-01T00:00:00Z</time>
      </trkpt>
      <trkpt lat="39.426665" lon="-5.298445">
        <ele>612.5</ele>
        <time>1970-01-01T00:00:00Z</time>
      </trkpt>
      <trkpt lat="39.426744" lon="-5.298485">
        <ele>613.2</ele>
        <time>1970-01-01T00:00:00Z</time>
      </trkpt>
      <trkpt lat="39.426744" lon="-5.298485">
        <ele>613.2</ele>
        <time>1970-01-01T00:00:00Z</time>
      </trkpt>
      <trkpt lat="39.426744" lon="-5.298485">
        <ele>613.2</ele>
        <time>1970-01-01T00:00:00Z</time>
      </trkpt>
      <trkpt lat="39.426744" lon="-5.298485">
        <ele>613.2</ele>
        <time>1970-01-01T00:00:00Z</time>
      </trkpt>
      <trkpt lat="39.426884" lon="-5.298569">
        <ele>614.3</ele>
        <time>1970-01-01T00:00:00Z</time>
      </trkpt>
      <trkpt lat="39.426884" lon="-5.298569">
        <ele>614.3</ele>
        <time>1970-01-01T00:00:00Z</time>
      </trkpt>
      <trkpt lat="39.426884" lon="-5.298569">
        <ele>614.3</ele>
        <time>1970-01-01T00:00:00Z</time>
      </trkpt>
      <trkpt lat="39.426884" lon="-5.298569">
        <ele>614.3</ele>
        <time>1970-01-01T00:00:00Z</time>
      </trkpt>
      <trkpt lat="39.427100" lon="-5.298721">
        <ele>615.2</ele>
        <time>1970-01-01T00:00:00Z</time>
      </trkpt>
      <trkpt lat="39.427100" lon="-5.298721">
        <ele>615.2</ele>
        <time>1970-01-01T00:00:00Z</time>
      </trkpt>
      <trkpt lat="39.427100" lon="-5.298721">
        <ele>615.2</ele>
        <time>1970-01-01T00:00:00Z</time>
      </trkpt>
      <trkpt lat="39.427100" lon="-5.298721">
        <ele>615.2</ele>
        <time>1970-01-01T00:00:00Z</time>
      </trkpt>
      <trkpt lat="39.427252" lon="-5.298831">
        <ele>616.1</ele>
        <time>1970-01-01T00:00:00Z</time>
      </trkpt>
      <trkpt lat="39.427252" lon="-5.298831">
        <ele>616.1</ele>
        <time>1970-01-01T00:00:00Z</time>
      </trkpt>
      <trkpt lat="39.427252" lon="-5.298831">
        <ele>616.1</ele>
        <time>1970-01-01T00:00:00Z</time>
      </trkpt>
      <trkpt lat="39.427252" lon="-5.298831">
        <ele>616.1</ele>
        <time>1970-01-01T00:00:00Z</time>
      </trkpt>
      <trkpt lat="39.427436" lon="-5.298983">
        <ele>616.2</ele>
        <time>1970-01-01T00:00:00Z</time>
      </trkpt>
      <trkpt lat="39.427436" lon="-5.298983">
        <ele>616.2</ele>
        <time>1970-01-01T00:00:00Z</time>
      </trkpt>
      <trkpt lat="39.427436" lon="-5.298983">
        <ele>616.2</ele>
        <time>1970-01-01T00:00:00Z</time>
      </trkpt>
      <trkpt lat="39.427436" lon="-5.298983">
        <ele>616.2</ele>
        <time>1970-01-01T00:00:00Z</time>
      </trkpt>
      <trkpt lat="39.427574" lon="-5.299095">
        <ele>615.5</ele>
        <time>1970-01-01T00:00:00Z</time>
      </trkpt>
      <trkpt lat="39.427574" lon="-5.299095">
        <ele>615.5</ele>
        <time>1970-01-01T00:00:00Z</time>
      </trkpt>
      <trkpt lat="39.427574" lon="-5.299095">
        <ele>615.5</ele>
        <time>1970-01-01T00:00:00Z</time>
      </trkpt>
      <trkpt lat="39.427574" lon="-5.299095">
        <ele>615.5</ele>
        <time>1970-01-01T00:00:00Z</time>
      </trkpt>
      <trkpt lat="39.427698" lon="-5.299153">
        <ele>614.6</ele>
        <time>1970-01-01T00:00:00Z</time>
      </trkpt>
      <trkpt lat="39.427698" lon="-5.299153">
        <ele>614.6</ele>
        <time>1970-01-01T00:00:00Z</time>
      </trkpt>
      <trkpt lat="39.427698" lon="-5.299153">
        <ele>614.6</ele>
        <time>1970-01-01T00:00:00Z</time>
      </trkpt>
      <trkpt lat="39.427698" lon="-5.299153">
        <ele>614.6</ele>
        <time>1970-01-01T00:00:00Z</time>
      </trkpt>
      <trkpt lat="39.427800" lon="-5.299168">
        <ele>613.3</ele>
        <time>1970-01-01T00:00:00Z</time>
      </trkpt>
      <trkpt lat="39.427800" lon="-5.299168">
        <ele>613.3</ele>
        <time>1970-01-01T00:00:00Z</time>
      </trkpt>
      <trkpt lat="39.427800" lon="-5.299168">
        <ele>613.3</ele>
        <time>1970-01-01T00:00:00Z</time>
      </trkpt>
      <trkpt lat="39.427800" lon="-5.299168">
        <ele>613.3</ele>
        <time>1970-01-01T00:00:00Z</time>
      </trkpt>
      <trkpt lat="39.427925" lon="-5.299137">
        <ele>611.7</ele>
        <time>1970-01-01T00:00:00Z</time>
      </trkpt>
      <trkpt lat="39.427925" lon="-5.299137">
        <ele>611.7</ele>
        <time>1970-01-01T00:00:00Z</time>
      </trkpt>
      <trkpt lat="39.427925" lon="-5.299137">
        <ele>611.7</ele>
        <time>1970-01-01T00:00:00Z</time>
      </trkpt>
      <trkpt lat="39.427925" lon="-5.299137">
        <ele>611.7</ele>
        <time>1970-01-01T00:00:00Z</time>
      </trkpt>
      <trkpt lat="39.428108" lon="-5.299078">
        <ele>609.9</ele>
        <time>1970-01-01T00:00:00Z</time>
      </trkpt>
      <trkpt lat="39.428108" lon="-5.299078">
        <ele>609.9</ele>
        <time>1970-01-01T00:00:00Z</time>
      </trkpt>
      <trkpt lat="39.428108" lon="-5.299078">
        <ele>609.9</ele>
        <time>1970-01-01T00:00:00Z</time>
      </trkpt>
      <trkpt lat="39.428108" lon="-5.299078">
        <ele>609.9</ele>
        <time>1970-01-01T00:00:00Z</time>
      </trkpt>
      <trkpt lat="39.428261" lon="-5.299043">
        <ele>608.9</ele>
        <time>1970-01-01T00:00:00Z</time>
      </trkpt>
      <trkpt lat="39.428261" lon="-5.299043">
        <ele>608.9</ele>
        <time>1970-01-01T00:00:00Z</time>
      </trkpt>
      <trkpt lat="39.428261" lon="-5.299043">
        <ele>608.9</ele>
        <time>1970-01-01T00:00:00Z</time>
      </trkpt>
      <trkpt lat="39.428261" lon="-5.299043">
        <ele>608.9</ele>
        <time>1970-01-01T00:00:00Z</time>
      </trkpt>
      <trkpt lat="39.428534" lon="-5.299021">
        <ele>606.9</ele>
        <time>1970-01-01T00:00:00Z</time>
      </trkpt>
      <trkpt lat="39.428534" lon="-5.299021">
        <ele>606.9</ele>
        <time>1970-01-01T00:00:00Z</time>
      </trkpt>
      <trkpt lat="39.428534" lon="-5.299021">
        <ele>606.9</ele>
        <time>1970-01-01T00:00:00Z</time>
      </trkpt>
      <trkpt lat="39.428534" lon="-5.299021">
        <ele>606.9</ele>
        <time>1970-01-01T00:00:00Z</time>
      </trkpt>
      <trkpt lat="39.428791" lon="-5.299012">
        <ele>604.3</ele>
        <time>1970-01-01T00:00:00Z</time>
      </trkpt>
      <trkpt lat="39.428791" lon="-5.299012">
        <ele>604.3</ele>
        <time>1970-01-01T00:00:00Z</time>
      </trkpt>
      <trkpt lat="39.428791" lon="-5.299012">
        <ele>604.3</ele>
        <time>1970-01-01T00:00:00Z</time>
      </trkpt>
      <trkpt lat="39.428791" lon="-5.299012">
        <ele>604.3</ele>
        <time>1970-01-01T00:00:00Z</time>
      </trkpt>
      <trkpt lat="39.428908" lon="-5.299037">
        <ele>603.1</ele>
        <time>1970-01-01T00:00:00Z</time>
      </trkpt>
      <trkpt lat="39.428908" lon="-5.299037">
        <ele>603.1</ele>
        <time>1970-01-01T00:00:00Z</time>
      </trkpt>
      <trkpt lat="39.428908" lon="-5.299037">
        <ele>603.1</ele>
        <time>1970-01-01T00:00:00Z</time>
      </trkpt>
      <trkpt lat="39.428908" lon="-5.299037">
        <ele>603.1</ele>
        <time>1970-01-01T00:00:00Z</time>
      </trkpt>
      <trkpt lat="39.429052" lon="-5.299107">
        <ele>601.8</ele>
        <time>1970-01-01T00:00:00Z</time>
      </trkpt>
      <trkpt lat="39.429052" lon="-5.299107">
        <ele>601.8</ele>
        <time>1970-01-01T00:00:00Z</time>
      </trkpt>
      <trkpt lat="39.429052" lon="-5.299107">
        <ele>601.8</ele>
        <time>1970-01-01T00:00:00Z</time>
      </trkpt>
      <trkpt lat="39.429052" lon="-5.299107">
        <ele>601.8</ele>
        <time>1970-01-01T00:00:00Z</time>
      </trkpt>
      <trkpt lat="39.429232" lon="-5.299280">
        <ele>598.6</ele>
        <time>1970-01-01T00:00:00Z</time>
      </trkpt>
      <trkpt lat="39.429232" lon="-5.299280">
        <ele>598.6</ele>
        <time>1970-01-01T00:00:00Z</time>
      </trkpt>
      <trkpt lat="39.429232" lon="-5.299280">
        <ele>598.6</ele>
        <time>1970-01-01T00:00:00Z</time>
      </trkpt>
      <trkpt lat="39.429232" lon="-5.299280">
        <ele>598.6</ele>
        <time>1970-01-01T00:00:00Z</time>
      </trkpt>
      <trkpt lat="39.429444" lon="-5.299511">
        <ele>595.8</ele>
        <time>1970-01-01T00:00:00Z</time>
      </trkpt>
      <trkpt lat="39.429444" lon="-5.299511">
        <ele>595.8</ele>
        <time>1970-01-01T00:00:00Z</time>
      </trkpt>
      <trkpt lat="39.429444" lon="-5.299511">
        <ele>595.8</ele>
        <time>1970-01-01T00:00:00Z</time>
      </trkpt>
      <trkpt lat="39.429444" lon="-5.299511">
        <ele>595.8</ele>
        <time>1970-01-01T00:00:00Z</time>
      </trkpt>
      <trkpt lat="39.429625" lon="-5.299697">
        <ele>593.9</ele>
        <time>1970-01-01T00:00:00Z</time>
      </trkpt>
      <trkpt lat="39.429625" lon="-5.299697">
        <ele>593.9</ele>
        <time>1970-01-01T00:00:00Z</time>
      </trkpt>
      <trkpt lat="39.429625" lon="-5.299697">
        <ele>593.9</ele>
        <time>1970-01-01T00:00:00Z</time>
      </trkpt>
      <trkpt lat="39.429625" lon="-5.299697">
        <ele>593.9</ele>
        <time>1970-01-01T00:00:00Z</time>
      </trkpt>
      <trkpt lat="39.429766" lon="-5.299878">
        <ele>592.8</ele>
        <time>1970-01-01T00:00:00Z</time>
      </trkpt>
      <trkpt lat="39.429766" lon="-5.299878">
        <ele>592.8</ele>
        <time>1970-01-01T00:00:00Z</time>
      </trkpt>
      <trkpt lat="39.429766" lon="-5.299878">
        <ele>592.8</ele>
        <time>1970-01-01T00:00:00Z</time>
      </trkpt>
      <trkpt lat="39.429766" lon="-5.299878">
        <ele>592.8</ele>
        <time>1970-01-01T00:00:00Z</time>
      </trkpt>
      <trkpt lat="39.429882" lon="-5.300073">
        <ele>591.3</ele>
        <time>1970-01-01T00:00:00Z</time>
      </trkpt>
      <trkpt lat="39.429882" lon="-5.300073">
        <ele>591.3</ele>
        <time>1970-01-01T00:00:00Z</time>
      </trkpt>
      <trkpt lat="39.429882" lon="-5.300073">
        <ele>591.3</ele>
        <time>1970-01-01T00:00:00Z</time>
      </trkpt>
      <trkpt lat="39.429882" lon="-5.300073">
        <ele>591.3</ele>
        <time>1970-01-01T00:00:00Z</time>
      </trkpt>
      <trkpt lat="39.429980" lon="-5.300251">
        <ele>590.7</ele>
        <time>1970-01-01T00:00:00Z</time>
      </trkpt>
      <trkpt lat="39.429980" lon="-5.300251">
        <ele>590.7</ele>
        <time>1970-01-01T00:00:00Z</time>
      </trkpt>
      <trkpt lat="39.429980" lon="-5.300251">
        <ele>590.7</ele>
        <time>1970-01-01T00:00:00Z</time>
      </trkpt>
      <trkpt lat="39.429980" lon="-5.300251">
        <ele>590.7</ele>
        <time>1970-01-01T00:00:00Z</time>
      </trkpt>
      <trkpt lat="39.430087" lon="-5.300530">
        <ele>591.0</ele>
        <time>1970-01-01T00:00:00Z</time>
      </trkpt>
      <trkpt lat="39.430087" lon="-5.300530">
        <ele>591.0</ele>
        <time>1970-01-01T00:00:00Z</time>
      </trkpt>
      <trkpt lat="39.430087" lon="-5.300530">
        <ele>591.0</ele>
        <time>1970-01-01T00:00:00Z</time>
      </trkpt>
      <trkpt lat="39.430087" lon="-5.300530">
        <ele>591.0</ele>
        <time>1970-01-01T00:00:00Z</time>
      </trkpt>
      <trkpt lat="39.430264" lon="-5.300901">
        <ele>589.4</ele>
        <time>1970-01-01T00:00:00Z</time>
      </trkpt>
      <trkpt lat="39.430264" lon="-5.300901">
        <ele>589.4</ele>
        <time>1970-01-01T00:00:00Z</time>
      </trkpt>
      <trkpt lat="39.430264" lon="-5.300901">
        <ele>589.4</ele>
        <time>1970-01-01T00:00:00Z</time>
      </trkpt>
      <trkpt lat="39.430264" lon="-5.300901">
        <ele>589.4</ele>
        <time>1970-01-01T00:00:00Z</time>
      </trkpt>
      <trkpt lat="39.430437" lon="-5.301217">
        <ele>589.0</ele>
        <time>1970-01-01T00:00:00Z</time>
      </trkpt>
      <trkpt lat="39.430437" lon="-5.301217">
        <ele>589.0</ele>
        <time>1970-01-01T00:00:00Z</time>
      </trkpt>
      <trkpt lat="39.430437" lon="-5.301217">
        <ele>589.0</ele>
        <time>1970-01-01T00:00:00Z</time>
      </trkpt>
      <trkpt lat="39.430437" lon="-5.301217">
        <ele>589.0</ele>
        <time>1970-01-01T00:00:00Z</time>
      </trkpt>
      <trkpt lat="39.430543" lon="-5.301396">
        <ele>588.4</ele>
        <time>1970-01-01T00:00:00Z</time>
      </trkpt>
      <trkpt lat="39.430543" lon="-5.301396">
        <ele>588.4</ele>
        <time>1970-01-01T00:00:00Z</time>
      </trkpt>
      <trkpt lat="39.430543" lon="-5.301396">
        <ele>588.4</ele>
        <time>1970-01-01T00:00:00Z</time>
      </trkpt>
      <trkpt lat="39.430543" lon="-5.301396">
        <ele>588.4</ele>
        <time>1970-01-01T00:00:00Z</time>
      </trkpt>
      <trkpt lat="39.430640" lon="-5.301507">
        <ele>587.6</ele>
        <time>1970-01-01T00:00:00Z</time>
      </trkpt>
      <trkpt lat="39.430640" lon="-5.301507">
        <ele>587.6</ele>
        <time>1970-01-01T00:00:00Z</time>
      </trkpt>
      <trkpt lat="39.430640" lon="-5.301507">
        <ele>587.6</ele>
        <time>1970-01-01T00:00:00Z</time>
      </trkpt>
      <trkpt lat="39.430640" lon="-5.301507">
        <ele>587.6</ele>
        <time>1970-01-01T00:00:00Z</time>
      </trkpt>
      <trkpt lat="39.430756" lon="-5.301608">
        <ele>587.2</ele>
        <time>1970-01-01T00:00:00Z</time>
      </trkpt>
      <trkpt lat="39.430756" lon="-5.301608">
        <ele>587.2</ele>
        <time>1970-01-01T00:00:00Z</time>
      </trkpt>
      <trkpt lat="39.430756" lon="-5.301608">
        <ele>587.2</ele>
        <time>1970-01-01T00:00:00Z</time>
      </trkpt>
      <trkpt lat="39.430756" lon="-5.301608">
        <ele>587.2</ele>
        <time>1970-01-01T00:00:00Z</time>
      </trkpt>
      <trkpt lat="39.430879" lon="-5.301715">
        <ele>587.2</ele>
        <time>1970-01-01T00:00:00Z</time>
      </trkpt>
      <trkpt lat="39.430879" lon="-5.301715">
        <ele>587.2</ele>
        <time>1970-01-01T00:00:00Z</time>
      </trkpt>
      <trkpt lat="39.430879" lon="-5.301715">
        <ele>587.2</ele>
        <time>1970-01-01T00:00:00Z</time>
      </trkpt>
      <trkpt lat="39.430879" lon="-5.301715">
        <ele>587.2</ele>
        <time>1970-01-01T00:00:00Z</time>
      </trkpt>
      <trkpt lat="39.431043" lon="-5.301800">
        <ele>586.8</ele>
        <time>1970-01-01T00:00:00Z</time>
      </trkpt>
      <trkpt lat="39.431043" lon="-5.301800">
        <ele>586.8</ele>
        <time>1970-01-01T00:00:00Z</time>
      </trkpt>
      <trkpt lat="39.431043" lon="-5.301800">
        <ele>586.8</ele>
        <time>1970-01-01T00:00:00Z</time>
      </trkpt>
      <trkpt lat="39.431043" lon="-5.301800">
        <ele>586.8</ele>
        <time>1970-01-01T00:00:00Z</time>
      </trkpt>
      <trkpt lat="39.431188" lon="-5.301884">
        <ele>586.8</ele>
        <time>1970-01-01T00:00:00Z</time>
      </trkpt>
      <trkpt lat="39.431188" lon="-5.301884">
        <ele>586.8</ele>
        <time>1970-01-01T00:00:00Z</time>
      </trkpt>
      <trkpt lat="39.431188" lon="-5.301884">
        <ele>586.8</ele>
        <time>1970-01-01T00:00:00Z</time>
      </trkpt>
      <trkpt lat="39.431188" lon="-5.301884">
        <ele>586.8</ele>
        <time>1970-01-01T00:00:00Z</time>
      </trkpt>
      <trkpt lat="39.431339" lon="-5.301968">
        <ele>587.2</ele>
        <time>1970-01-01T00:00:00Z</time>
      </trkpt>
      <trkpt lat="39.431339" lon="-5.301968">
        <ele>587.2</ele>
        <time>1970-01-01T00:00:00Z</time>
      </trkpt>
      <trkpt lat="39.431339" lon="-5.301968">
        <ele>587.2</ele>
        <time>1970-01-01T00:00:00Z</time>
      </trkpt>
      <trkpt lat="39.431339" lon="-5.301968">
        <ele>587.2</ele>
        <time>1970-01-01T00:00:00Z</time>
      </trkpt>
      <trkpt lat="39.431472" lon="-5.302041">
        <ele>587.5</ele>
        <time>1970-01-01T00:00:00Z</time>
      </trkpt>
      <trkpt lat="39.431472" lon="-5.302041">
        <ele>587.5</ele>
        <time>1970-01-01T00:00:00Z</time>
      </trkpt>
      <trkpt lat="39.431472" lon="-5.302041">
        <ele>587.5</ele>
        <time>1970-01-01T00:00:00Z</time>
      </trkpt>
      <trkpt lat="39.431472" lon="-5.302041">
        <ele>587.5</ele>
        <time>1970-01-01T00:00:00Z</time>
      </trkpt>
      <trkpt lat="39.431784" lon="-5.302234">
        <ele>587.3</ele>
        <time>1970-01-01T00:00:00Z</time>
      </trkpt>
      <trkpt lat="39.431784" lon="-5.302234">
        <ele>587.3</ele>
        <time>1970-01-01T00:00:00Z</time>
      </trkpt>
      <trkpt lat="39.431784" lon="-5.302234">
        <ele>587.3</ele>
        <time>1970-01-01T00:00:00Z</time>
      </trkpt>
      <trkpt lat="39.431784" lon="-5.302234">
        <ele>587.3</ele>
        <time>1970-01-01T00:00:00Z</time>
      </trkpt>
      <trkpt lat="39.432096" lon="-5.302413">
        <ele>585.9</ele>
        <time>1970-01-01T00:00:00Z</time>
      </trkpt>
      <trkpt lat="39.432096" lon="-5.302413">
        <ele>585.9</ele>
        <time>1970-01-01T00:00:00Z</time>
      </trkpt>
      <trkpt lat="39.432096" lon="-5.302413">
        <ele>585.9</ele>
        <time>1970-01-01T00:00:00Z</time>
      </trkpt>
      <trkpt lat="39.432096" lon="-5.302413">
        <ele>585.9</ele>
        <time>1970-01-01T00:00:00Z</time>
      </trkpt>
      <trkpt lat="39.432269" lon="-5.302538">
        <ele>585.2</ele>
        <time>1970-01-01T00:00:00Z</time>
      </trkpt>
      <trkpt lat="39.432269" lon="-5.302538">
        <ele>585.2</ele>
        <time>1970-01-01T00:00:00Z</time>
      </trkpt>
      <trkpt lat="39.432269" lon="-5.302538">
        <ele>585.2</ele>
        <time>1970-01-01T00:00:00Z</time>
      </trkpt>
      <trkpt lat="39.432269" lon="-5.302538">
        <ele>585.2</ele>
        <time>1970-01-01T00:00:00Z</time>
      </trkpt>
      <trkpt lat="39.432452" lon="-5.302683">
        <ele>584.8</ele>
        <time>1970-01-01T00:00:00Z</time>
      </trkpt>
      <trkpt lat="39.432452" lon="-5.302683">
        <ele>584.8</ele>
        <time>1970-01-01T00:00:00Z</time>
      </trkpt>
      <trkpt lat="39.432452" lon="-5.302683">
        <ele>584.8</ele>
        <time>1970-01-01T00:00:00Z</time>
      </trkpt>
      <trkpt lat="39.432452" lon="-5.302683">
        <ele>584.8</ele>
        <time>1970-01-01T00:00:00Z</time>
      </trkpt>
      <trkpt lat="39.432650" lon="-5.302885">
        <ele>585.6</ele>
        <time>1970-01-01T00:00:00Z</time>
      </trkpt>
      <trkpt lat="39.432650" lon="-5.302885">
        <ele>585.6</ele>
        <time>1970-01-01T00:00:00Z</time>
      </trkpt>
      <trkpt lat="39.432650" lon="-5.302885">
        <ele>585.6</ele>
        <time>1970-01-01T00:00:00Z</time>
      </trkpt>
      <trkpt lat="39.432650" lon="-5.302885">
        <ele>585.6</ele>
        <time>1970-01-01T00:00:00Z</time>
      </trkpt>
      <trkpt lat="39.432779" lon="-5.303020">
        <ele>585.6</ele>
        <time>1970-01-01T00:00:00Z</time>
      </trkpt>
      <trkpt lat="39.432779" lon="-5.303020">
        <ele>585.6</ele>
        <time>1970-01-01T00:00:00Z</time>
      </trkpt>
      <trkpt lat="39.432779" lon="-5.303020">
        <ele>585.6</ele>
        <time>1970-01-01T00:00:00Z</time>
      </trkpt>
      <trkpt lat="39.432779" lon="-5.303020">
        <ele>585.6</ele>
        <time>1970-01-01T00:00:00Z</time>
      </trkpt>
      <trkpt lat="39.433068" lon="-5.303349">
        <ele>586.1</ele>
        <time>1970-01-01T00:00:00Z</time>
      </trkpt>
      <trkpt lat="39.433068" lon="-5.303349">
        <ele>586.1</ele>
        <time>1970-01-01T00:00:00Z</time>
      </trkpt>
      <trkpt lat="39.433068" lon="-5.303349">
        <ele>586.1</ele>
        <time>1970-01-01T00:00:00Z</time>
      </trkpt>
      <trkpt lat="39.433068" lon="-5.303349">
        <ele>586.1</ele>
        <time>1970-01-01T00:00:00Z</time>
      </trkpt>
      <trkpt lat="39.433306" lon="-5.303630">
        <ele>586.2</ele>
        <time>1970-01-01T00:00:00Z</time>
      </trkpt>
      <trkpt lat="39.433306" lon="-5.303630">
        <ele>586.2</ele>
        <time>1970-01-01T00:00:00Z</time>
      </trkpt>
      <trkpt lat="39.433306" lon="-5.303630">
        <ele>586.2</ele>
        <time>1970-01-01T00:00:00Z</time>
      </trkpt>
      <trkpt lat="39.433306" lon="-5.303630">
        <ele>586.2</ele>
        <time>1970-01-01T00:00:00Z</time>
      </trkpt>
      <trkpt lat="39.433458" lon="-5.303792">
        <ele>585.9</ele>
        <time>1970-01-01T00:00:00Z</time>
      </trkpt>
      <trkpt lat="39.433458" lon="-5.303792">
        <ele>585.9</ele>
        <time>1970-01-01T00:00:00Z</time>
      </trkpt>
      <trkpt lat="39.433458" lon="-5.303792">
        <ele>585.9</ele>
        <time>1970-01-01T00:00:00Z</time>
      </trkpt>
      <trkpt lat="39.433458" lon="-5.303792">
        <ele>585.9</ele>
        <time>1970-01-01T00:00:00Z</time>
      </trkpt>
      <trkpt lat="39.433620" lon="-5.303959">
        <ele>584.5</ele>
        <time>1970-01-01T00:00:00Z</time>
      </trkpt>
      <trkpt lat="39.433620" lon="-5.303959">
        <ele>584.5</ele>
        <time>1970-01-01T00:00:00Z</time>
      </trkpt>
      <trkpt lat="39.433620" lon="-5.303959">
        <ele>584.5</ele>
        <time>1970-01-01T00:00:00Z</time>
      </trkpt>
      <trkpt lat="39.433620" lon="-5.303959">
        <ele>584.5</ele>
        <time>1970-01-01T00:00:00Z</time>
      </trkpt>
      <trkpt lat="39.433763" lon="-5.304153">
        <ele>582.9</ele>
        <time>1970-01-01T00:00:00Z</time>
      </trkpt>
      <trkpt lat="39.433763" lon="-5.304153">
        <ele>582.9</ele>
        <time>1970-01-01T00:00:00Z</time>
      </trkpt>
      <trkpt lat="39.433763" lon="-5.304153">
        <ele>582.9</ele>
        <time>1970-01-01T00:00:00Z</time>
      </trkpt>
      <trkpt lat="39.433763" lon="-5.304153">
        <ele>582.9</ele>
        <time>1970-01-01T00:00:00Z</time>
      </trkpt>
      <trkpt lat="39.433916" lon="-5.304437">
        <ele>581.2</ele>
        <time>1970-01-01T00:00:00Z</time>
      </trkpt>
      <trkpt lat="39.433916" lon="-5.304437">
        <ele>581.2</ele>
        <time>1970-01-01T00:00:00Z</time>
      </trkpt>
      <trkpt lat="39.433916" lon="-5.304437">
        <ele>581.2</ele>
        <time>1970-01-01T00:00:00Z</time>
      </trkpt>
      <trkpt lat="39.433916" lon="-5.304437">
        <ele>581.2</ele>
        <time>1970-01-01T00:00:00Z</time>
      </trkpt>
      <trkpt lat="39.434024" lon="-5.304685">
        <ele>580.1</ele>
        <time>1970-01-01T00:00:00Z</time>
      </trkpt>
      <trkpt lat="39.434024" lon="-5.304685">
        <ele>580.1</ele>
        <time>1970-01-01T00:00:00Z</time>
      </trkpt>
      <trkpt lat="39.434024" lon="-5.304685">
        <ele>580.1</ele>
        <time>1970-01-01T00:00:00Z</time>
      </trkpt>
      <trkpt lat="39.434024" lon="-5.304685">
        <ele>580.1</ele>
        <time>1970-01-01T00:00:00Z</time>
      </trkpt>
      <trkpt lat="39.434162" lon="-5.304987">
        <ele>577.9</ele>
        <time>1970-01-01T00:00:00Z</time>
      </trkpt>
      <trkpt lat="39.434162" lon="-5.304987">
        <ele>577.9</ele>
        <time>1970-01-01T00:00:00Z</time>
      </trkpt>
      <trkpt lat="39.434162" lon="-5.304987">
        <ele>577.9</ele>
        <time>1970-01-01T00:00:00Z</time>
      </trkpt>
      <trkpt lat="39.434162" lon="-5.304987">
        <ele>577.9</ele>
        <time>1970-01-01T00:00:00Z</time>
      </trkpt>
      <trkpt lat="39.434244" lon="-5.305200">
        <ele>577.2</ele>
        <time>1970-01-01T00:00:00Z</time>
      </trkpt>
      <trkpt lat="39.434244" lon="-5.305200">
        <ele>577.2</ele>
        <time>1970-01-01T00:00:00Z</time>
      </trkpt>
      <trkpt lat="39.434244" lon="-5.305200">
        <ele>577.2</ele>
        <time>1970-01-01T00:00:00Z</time>
      </trkpt>
      <trkpt lat="39.434244" lon="-5.305200">
        <ele>577.2</ele>
        <time>1970-01-01T00:00:00Z</time>
      </trkpt>
      <trkpt lat="39.434272" lon="-5.305355">
        <ele>576.9</ele>
        <time>1970-01-01T00:00:00Z</time>
      </trkpt>
      <trkpt lat="39.434272" lon="-5.305355">
        <ele>576.9</ele>
        <time>1970-01-01T00:00:00Z</time>
      </trkpt>
      <trkpt lat="39.434272" lon="-5.305355">
        <ele>576.9</ele>
        <time>1970-01-01T00:00:00Z</time>
      </trkpt>
      <trkpt lat="39.434272" lon="-5.305355">
        <ele>576.9</ele>
        <time>1970-01-01T00:00:00Z</time>
      </trkpt>
      <trkpt lat="39.434291" lon="-5.305641">
        <ele>577.1</ele>
        <time>1970-01-01T00:00:00Z</time>
      </trkpt>
      <trkpt lat="39.434291" lon="-5.305641">
        <ele>577.1</ele>
        <time>1970-01-01T00:00:00Z</time>
      </trkpt>
      <trkpt lat="39.434291" lon="-5.305641">
        <ele>577.1</ele>
        <time>1970-01-01T00:00:00Z</time>
      </trkpt>
      <trkpt lat="39.434291" lon="-5.305641">
        <ele>577.1</ele>
        <time>1970-01-01T00:00:00Z</time>
      </trkpt>
      <trkpt lat="39.434315" lon="-5.306015">
        <ele>577.8</ele>
        <time>1970-01-01T00:00:00Z</time>
      </trkpt>
      <trkpt lat="39.434315" lon="-5.306015">
        <ele>577.8</ele>
        <time>1970-01-01T00:00:00Z</time>
      </trkpt>
      <trkpt lat="39.434315" lon="-5.306015">
        <ele>577.8</ele>
        <time>1970-01-01T00:00:00Z</time>
      </trkpt>
      <trkpt lat="39.434315" lon="-5.306015">
        <ele>577.8</ele>
        <time>1970-01-01T00:00:00Z</time>
      </trkpt>
      <trkpt lat="39.434281" lon="-5.306297">
        <ele>578.3</ele>
        <time>1970-01-01T00:00:00Z</time>
      </trkpt>
      <trkpt lat="39.434281" lon="-5.306297">
        <ele>578.3</ele>
        <time>1970-01-01T00:00:00Z</time>
      </trkpt>
      <trkpt lat="39.434281" lon="-5.306297">
        <ele>578.3</ele>
        <time>1970-01-01T00:00:00Z</time>
      </trkpt>
      <trkpt lat="39.434281" lon="-5.306297">
        <ele>578.3</ele>
        <time>1970-01-01T00:00:00Z</time>
      </trkpt>
      <trkpt lat="39.434215" lon="-5.306557">
        <ele>579.4</ele>
        <time>1970-01-01T00:00:00Z</time>
      </trkpt>
      <trkpt lat="39.434215" lon="-5.306557">
        <ele>579.4</ele>
        <time>1970-01-01T00:00:00Z</time>
      </trkpt>
      <trkpt lat="39.434215" lon="-5.306557">
        <ele>579.4</ele>
        <time>1970-01-01T00:00:00Z</time>
      </trkpt>
      <trkpt lat="39.434215" lon="-5.306557">
        <ele>579.4</ele>
        <time>1970-01-01T00:00:00Z</time>
      </trkpt>
      <trkpt lat="39.434168" lon="-5.306701">
        <ele>579.8</ele>
        <time>1970-01-01T00:00:00Z</time>
      </trkpt>
      <trkpt lat="39.434168" lon="-5.306701">
        <ele>579.8</ele>
        <time>1970-01-01T00:00:00Z</time>
      </trkpt>
      <trkpt lat="39.434168" lon="-5.306701">
        <ele>579.8</ele>
        <time>1970-01-01T00:00:00Z</time>
      </trkpt>
      <trkpt lat="39.434168" lon="-5.306701">
        <ele>579.8</ele>
        <time>1970-01-01T00:00:00Z</time>
      </trkpt>
      <trkpt lat="39.434171" lon="-5.306832">
        <ele>579.9</ele>
        <time>1970-01-01T00:00:00Z</time>
      </trkpt>
      <trkpt lat="39.434171" lon="-5.306832">
        <ele>579.9</ele>
        <time>1970-01-01T00:00:00Z</time>
      </trkpt>
      <trkpt lat="39.434171" lon="-5.306832">
        <ele>579.9</ele>
        <time>1970-01-01T00:00:00Z</time>
      </trkpt>
      <trkpt lat="39.434171" lon="-5.306832">
        <ele>579.9</ele>
        <time>1970-01-01T00:00:00Z</time>
      </trkpt>
      <trkpt lat="39.434201" lon="-5.306918">
        <ele>580.1</ele>
        <time>1970-01-01T00:00:00Z</time>
      </trkpt>
      <trkpt lat="39.434201" lon="-5.306918">
        <ele>580.1</ele>
        <time>1970-01-01T00:00:00Z</time>
      </trkpt>
      <trkpt lat="39.434201" lon="-5.306918">
        <ele>580.1</ele>
        <time>1970-01-01T00:00:00Z</time>
      </trkpt>
      <trkpt lat="39.434201" lon="-5.306918">
        <ele>580.1</ele>
        <time>1970-01-01T00:00:00Z</time>
      </trkpt>
      <trkpt lat="39.434248" lon="-5.306979">
        <ele>579.9</ele>
        <time>1970-01-01T00:00:00Z</time>
      </trkpt>
      <trkpt lat="39.434248" lon="-5.306979">
        <ele>579.9</ele>
        <time>1970-01-01T00:00:00Z</time>
      </trkpt>
      <trkpt lat="39.434248" lon="-5.306979">
        <ele>579.9</ele>
        <time>1970-01-01T00:00:00Z</time>
      </trkpt>
      <trkpt lat="39.434248" lon="-5.306979">
        <ele>579.9</ele>
        <time>1970-01-01T00:00:00Z</time>
      </trkpt>
      <trkpt lat="39.434353" lon="-5.307061">
        <ele>579.3</ele>
        <time>1970-01-01T00:00:00Z</time>
      </trkpt>
      <trkpt lat="39.434353" lon="-5.307061">
        <ele>579.3</ele>
        <time>1970-01-01T00:00:00Z</time>
      </trkpt>
      <trkpt lat="39.434353" lon="-5.307061">
        <ele>579.3</ele>
        <time>1970-01-01T00:00:00Z</time>
      </trkpt>
      <trkpt lat="39.434353" lon="-5.307061">
        <ele>579.3</ele>
        <time>1970-01-01T00:00:00Z</time>
      </trkpt>
      <trkpt lat="39.434496" lon="-5.307147">
        <ele>578.5</ele>
        <time>1970-01-01T00:00:00Z</time>
      </trkpt>
      <trkpt lat="39.434496" lon="-5.307147">
        <ele>578.5</ele>
        <time>1970-01-01T00:00:00Z</time>
      </trkpt>
      <trkpt lat="39.434496" lon="-5.307147">
        <ele>578.5</ele>
        <time>1970-01-01T00:00:00Z</time>
      </trkpt>
      <trkpt lat="39.434496" lon="-5.307147">
        <ele>578.5</ele>
        <time>1970-01-01T00:00:00Z</time>
      </trkpt>
      <trkpt lat="39.434840" lon="-5.307370">
        <ele>576.5</ele>
        <time>1970-01-01T00:00:00Z</time>
      </trkpt>
      <trkpt lat="39.434840" lon="-5.307370">
        <ele>576.5</ele>
        <time>1970-01-01T00:00:00Z</time>
      </trkpt>
      <trkpt lat="39.434840" lon="-5.307370">
        <ele>576.5</ele>
        <time>1970-01-01T00:00:00Z</time>
      </trkpt>
      <trkpt lat="39.434840" lon="-5.307370">
        <ele>576.5</ele>
        <time>1970-01-01T00:00:00Z</time>
      </trkpt>
      <trkpt lat="39.435177" lon="-5.307616">
        <ele>575.8</ele>
        <time>1970-01-01T00:00:00Z</time>
      </trkpt>
      <trkpt lat="39.435177" lon="-5.307616">
        <ele>575.8</ele>
        <time>1970-01-01T00:00:00Z</time>
      </trkpt>
      <trkpt lat="39.435177" lon="-5.307616">
        <ele>575.8</ele>
        <time>1970-01-01T00:00:00Z</time>
      </trkpt>
      <trkpt lat="39.435177" lon="-5.307616">
        <ele>575.8</ele>
        <time>1970-01-01T00:00:00Z</time>
      </trkpt>
      <trkpt lat="39.435351" lon="-5.307725">
        <ele>576.0</ele>
        <time>1970-01-01T00:00:00Z</time>
      </trkpt>
      <trkpt lat="39.435351" lon="-5.307725">
        <ele>576.0</ele>
        <time>1970-01-01T00:00:00Z</time>
      </trkpt>
      <trkpt lat="39.435351" lon="-5.307725">
        <ele>576.0</ele>
        <time>1970-01-01T00:00:00Z</time>
      </trkpt>
      <trkpt lat="39.435351" lon="-5.307725">
        <ele>576.0</ele>
        <time>1970-01-01T00:00:00Z</time>
      </trkpt>
      <trkpt lat="39.435689" lon="-5.307920">
        <ele>577.1</ele>
        <time>1970-01-01T00:00:00Z</time>
      </trkpt>
      <trkpt lat="39.435689" lon="-5.307920">
        <ele>577.1</ele>
        <time>1970-01-01T00:00:00Z</time>
      </trkpt>
      <trkpt lat="39.435689" lon="-5.307920">
        <ele>577.1</ele>
        <time>1970-01-01T00:00:00Z</time>
      </trkpt>
      <trkpt lat="39.435689" lon="-5.307920">
        <ele>577.1</ele>
        <time>1970-01-01T00:00:00Z</time>
      </trkpt>
      <trkpt lat="39.436410" lon="-5.308383">
        <ele>579.7</ele>
        <time>1970-01-01T00:00:00Z</time>
      </trkpt>
      <trkpt lat="39.436410" lon="-5.308383">
        <ele>579.7</ele>
        <time>1970-01-01T00:00:00Z</time>
      </trkpt>
      <trkpt lat="39.436410" lon="-5.308383">
        <ele>579.7</ele>
        <time>1970-01-01T00:00:00Z</time>
      </trkpt>
      <trkpt lat="39.436410" lon="-5.308383">
        <ele>579.7</ele>
        <time>1970-01-01T00:00:00Z</time>
      </trkpt>
      <trkpt lat="39.437016" lon="-5.308722">
        <ele>582.6</ele>
        <time>1970-01-01T00:00:00Z</time>
      </trkpt>
      <trkpt lat="39.437016" lon="-5.308722">
        <ele>582.6</ele>
        <time>1970-01-01T00:00:00Z</time>
      </trkpt>
      <trkpt lat="39.437016" lon="-5.308722">
        <ele>582.6</ele>
        <time>1970-01-01T00:00:00Z</time>
      </trkpt>
      <trkpt lat="39.437016" lon="-5.308722">
        <ele>582.6</ele>
        <time>1970-01-01T00:00:00Z</time>
      </trkpt>
      <trkpt lat="39.437306" lon="-5.308881">
        <ele>582.7</ele>
        <time>1970-01-01T00:00:00Z</time>
      </trkpt>
      <trkpt lat="39.437306" lon="-5.308881">
        <ele>582.7</ele>
        <time>1970-01-01T00:00:00Z</time>
      </trkpt>
      <trkpt lat="39.437306" lon="-5.308881">
        <ele>582.7</ele>
        <time>1970-01-01T00:00:00Z</time>
      </trkpt>
      <trkpt lat="39.437306" lon="-5.308881">
        <ele>582.7</ele>
        <time>1970-01-01T00:00:00Z</time>
      </trkpt>
      <trkpt lat="39.437544" lon="-5.309006">
        <ele>582.2</ele>
        <time>1970-01-01T00:00:00Z</time>
      </trkpt>
      <trkpt lat="39.437544" lon="-5.309006">
        <ele>582.2</ele>
        <time>1970-01-01T00:00:00Z</time>
      </trkpt>
      <trkpt lat="39.437544" lon="-5.309006">
        <ele>582.2</ele>
        <time>1970-01-01T00:00:00Z</time>
      </trkpt>
      <trkpt lat="39.437544" lon="-5.309006">
        <ele>582.2</ele>
        <time>1970-01-01T00:00:00Z</time>
      </trkpt>
      <trkpt lat="39.437856" lon="-5.309207">
        <ele>580.0</ele>
        <time>1970-01-01T00:00:00Z</time>
      </trkpt>
      <trkpt lat="39.437856" lon="-5.309207">
        <ele>580.0</ele>
        <time>1970-01-01T00:00:00Z</time>
      </trkpt>
      <trkpt lat="39.437856" lon="-5.309207">
        <ele>580.0</ele>
        <time>1970-01-01T00:00:00Z</time>
      </trkpt>
      <trkpt lat="39.437856" lon="-5.309207">
        <ele>580.0</ele>
        <time>1970-01-01T00:00:00Z</time>
      </trkpt>
      <trkpt lat="39.437917" lon="-5.309245">
        <ele>579.4</ele>
        <time>1970-01-01T00:00:00Z</time>
      </trkpt>
      <trkpt lat="39.437917" lon="-5.309245">
        <ele>579.4</ele>
        <time>1970-01-01T00:00:00Z</time>
      </trkpt>
      <trkpt lat="39.437917" lon="-5.309245">
        <ele>579.4</ele>
        <time>1970-01-01T00:00:00Z</time>
      </trkpt>
      <trkpt lat="39.437917" lon="-5.309245">
        <ele>579.4</ele>
        <time>1970-01-01T00:00:00Z</time>
      </trkpt>
      <trkpt lat="39.437971" lon="-5.309259">
        <ele>579.0</ele>
        <time>1970-01-01T00:00:00Z</time>
      </trkpt>
      <trkpt lat="39.437971" lon="-5.309259">
        <ele>579.0</ele>
        <time>1970-01-01T00:00:00Z</time>
      </trkpt>
      <trkpt lat="39.437971" lon="-5.309259">
        <ele>579.0</ele>
        <time>1970-01-01T00:00:00Z</time>
      </trkpt>
      <trkpt lat="39.437971" lon="-5.309259">
        <ele>579.0</ele>
        <time>1970-01-01T00:00:00Z</time>
      </trkpt>
      <trkpt lat="39.438203" lon="-5.309289">
        <ele>576.4</ele>
        <time>1970-01-01T00:00:00Z</time>
      </trkpt>
      <trkpt lat="39.438203" lon="-5.309289">
        <ele>576.4</ele>
        <time>1970-01-01T00:00:00Z</time>
      </trkpt>
      <trkpt lat="39.438203" lon="-5.309289">
        <ele>576.4</ele>
        <time>1970-01-01T00:00:00Z</time>
      </trkpt>
      <trkpt lat="39.438203" lon="-5.309289">
        <ele>576.4</ele>
        <time>1970-01-01T00:00:00Z</time>
      </trkpt>
      <trkpt lat="39.438493" lon="-5.309322">
        <ele>573.4</ele>
        <time>1970-01-01T00:00:00Z</time>
      </trkpt>
      <trkpt lat="39.438493" lon="-5.309322">
        <ele>573.4</ele>
        <time>1970-01-01T00:00:00Z</time>
      </trkpt>
      <trkpt lat="39.438493" lon="-5.309322">
        <ele>573.4</ele>
        <time>1970-01-01T00:00:00Z</time>
      </trkpt>
      <trkpt lat="39.438493" lon="-5.309322">
        <ele>573.4</ele>
        <time>1970-01-01T00:00:00Z</time>
      </trkpt>
      <trkpt lat="39.438653" lon="-5.309336">
        <ele>571.6</ele>
        <time>1970-01-01T00:00:00Z</time>
      </trkpt>
      <trkpt lat="39.438653" lon="-5.309336">
        <ele>571.6</ele>
        <time>1970-01-01T00:00:00Z</time>
      </trkpt>
      <trkpt lat="39.438653" lon="-5.309336">
        <ele>571.6</ele>
        <time>1970-01-01T00:00:00Z</time>
      </trkpt>
      <trkpt lat="39.438653" lon="-5.309336">
        <ele>571.6</ele>
        <time>1970-01-01T00:00:00Z</time>
      </trkpt>
      <trkpt lat="39.439154" lon="-5.309382">
        <ele>564.2</ele>
        <time>1970-01-01T00:00:00Z</time>
      </trkpt>
      <trkpt lat="39.439154" lon="-5.309382">
        <ele>564.2</ele>
        <time>1970-01-01T00:00:00Z</time>
      </trkpt>
      <trkpt lat="39.439154" lon="-5.309382">
        <ele>564.2</ele>
        <time>1970-01-01T00:00:00Z</time>
      </trkpt>
      <trkpt lat="39.439154" lon="-5.309382">
        <ele>564.2</ele>
        <time>1970-01-01T00:00:00Z</time>
      </trkpt>
      <trkpt lat="39.439286" lon="-5.309367">
        <ele>561.4</ele>
        <time>1970-01-01T00:00:00Z</time>
      </trkpt>
      <trkpt lat="39.439286" lon="-5.309367">
        <ele>561.4</ele>
        <time>1970-01-01T00:00:00Z</time>
      </trkpt>
      <trkpt lat="39.439286" lon="-5.309367">
        <ele>561.4</ele>
        <time>1970-01-01T00:00:00Z</time>
      </trkpt>
      <trkpt lat="39.439286" lon="-5.309367">
        <ele>561.4</ele>
        <time>1970-01-01T00:00:00Z</time>
      </trkpt>
      <trkpt lat="39.439347" lon="-5.309337">
        <ele>559.7</ele>
        <time>1970-01-01T00:00:00Z</time>
      </trkpt>
      <trkpt lat="39.439347" lon="-5.309337">
        <ele>559.7</ele>
        <time>1970-01-01T00:00:00Z</time>
      </trkpt>
      <trkpt lat="39.439347" lon="-5.309337">
        <ele>559.7</ele>
        <time>1970-01-01T00:00:00Z</time>
      </trkpt>
      <trkpt lat="39.439347" lon="-5.309337">
        <ele>559.7</ele>
        <time>1970-01-01T00:00:00Z</time>
      </trkpt>
      <trkpt lat="39.439467" lon="-5.309265">
        <ele>556.4</ele>
        <time>1970-01-01T00:00:00Z</time>
      </trkpt>
      <trkpt lat="39.439467" lon="-5.309265">
        <ele>556.4</ele>
        <time>1970-01-01T00:00:00Z</time>
      </trkpt>
      <trkpt lat="39.439467" lon="-5.309265">
        <ele>556.4</ele>
        <time>1970-01-01T00:00:00Z</time>
      </trkpt>
      <trkpt lat="39.439467" lon="-5.309265">
        <ele>556.4</ele>
        <time>1970-01-01T00:00:00Z</time>
      </trkpt>
      <trkpt lat="39.439564" lon="-5.309222">
        <ele>553.7</ele>
        <time>1970-01-01T00:00:00Z</time>
      </trkpt>
      <trkpt lat="39.439564" lon="-5.309222">
        <ele>553.7</ele>
        <time>1970-01-01T00:00:00Z</time>
      </trkpt>
      <trkpt lat="39.439564" lon="-5.309222">
        <ele>553.7</ele>
        <time>1970-01-01T00:00:00Z</time>
      </trkpt>
      <trkpt lat="39.439564" lon="-5.309222">
        <ele>553.7</ele>
        <time>1970-01-01T00:00:00Z</time>
      </trkpt>
      <trkpt lat="39.439681" lon="-5.309212">
        <ele>550.2</ele>
        <time>1970-01-01T00:00:00Z</time>
      </trkpt>
      <trkpt lat="39.439681" lon="-5.309212">
        <ele>550.2</ele>
        <time>1970-01-01T00:00:00Z</time>
      </trkpt>
      <trkpt lat="39.439681" lon="-5.309212">
        <ele>550.2</ele>
        <time>1970-01-01T00:00:00Z</time>
      </trkpt>
      <trkpt lat="39.439681" lon="-5.309212">
        <ele>550.2</ele>
        <time>1970-01-01T00:00:00Z</time>
      </trkpt>
      <trkpt lat="39.439774" lon="-5.309253">
        <ele>547.4</ele>
        <time>1970-01-01T00:00:00Z</time>
      </trkpt>
      <trkpt lat="39.439774" lon="-5.309253">
        <ele>547.4</ele>
        <time>1970-01-01T00:00:00Z</time>
      </trkpt>
      <trkpt lat="39.439774" lon="-5.309253">
        <ele>547.4</ele>
        <time>1970-01-01T00:00:00Z</time>
      </trkpt>
      <trkpt lat="39.439774" lon="-5.309253">
        <ele>547.4</ele>
        <time>1970-01-01T00:00:00Z</time>
      </trkpt>
      <trkpt lat="39.439830" lon="-5.309300">
        <ele>545.7</ele>
        <time>1970-01-01T00:00:00Z</time>
      </trkpt>
      <trkpt lat="39.439830" lon="-5.309300">
        <ele>545.7</ele>
        <time>1970-01-01T00:00:00Z</time>
      </trkpt>
      <trkpt lat="39.439830" lon="-5.309300">
        <ele>545.7</ele>
        <time>1970-01-01T00:00:00Z</time>
      </trkpt>
      <trkpt lat="39.439830" lon="-5.309300">
        <ele>545.7</ele>
        <time>1970-01-01T00:00:00Z</time>
      </trkpt>
      <trkpt lat="39.439911" lon="-5.309417">
        <ele>543.3</ele>
        <time>1970-01-01T00:00:00Z</time>
      </trkpt>
      <trkpt lat="39.439911" lon="-5.309417">
        <ele>543.3</ele>
        <time>1970-01-01T00:00:00Z</time>
      </trkpt>
      <trkpt lat="39.439911" lon="-5.309417">
        <ele>543.3</ele>
        <time>1970-01-01T00:00:00Z</time>
      </trkpt>
      <trkpt lat="39.439911" lon="-5.309417">
        <ele>543.3</ele>
        <time>1970-01-01T00:00:00Z</time>
      </trkpt>
      <trkpt lat="39.439956" lon="-5.309580">
        <ele>541.3</ele>
        <time>1970-01-01T00:00:00Z</time>
      </trkpt>
      <trkpt lat="39.439956" lon="-5.309580">
        <ele>541.3</ele>
        <time>1970-01-01T00:00:00Z</time>
      </trkpt>
      <trkpt lat="39.439956" lon="-5.309580">
        <ele>541.3</ele>
        <time>1970-01-01T00:00:00Z</time>
      </trkpt>
      <trkpt lat="39.439956" lon="-5.309580">
        <ele>541.3</ele>
        <time>1970-01-01T00:00:00Z</time>
      </trkpt>
      <trkpt lat="39.439944" lon="-5.309738">
        <ele>541.0</ele>
        <time>1970-01-01T00:00:00Z</time>
      </trkpt>
      <trkpt lat="39.439944" lon="-5.309738">
        <ele>541.0</ele>
        <time>1970-01-01T00:00:00Z</time>
      </trkpt>
      <trkpt lat="39.439944" lon="-5.309738">
        <ele>541.0</ele>
        <time>1970-01-01T00:00:00Z</time>
      </trkpt>
      <trkpt lat="39.439944" lon="-5.309738">
        <ele>541.0</ele>
        <time>1970-01-01T00:00:00Z</time>
      </trkpt>
      <trkpt lat="39.439885" lon="-5.309900">
        <ele>540.9</ele>
        <time>1970-01-01T00:00:00Z</time>
      </trkpt>
      <trkpt lat="39.439885" lon="-5.309900">
        <ele>540.9</ele>
        <time>1970-01-01T00:00:00Z</time>
      </trkpt>
      <trkpt lat="39.439885" lon="-5.309900">
        <ele>540.9</ele>
        <time>1970-01-01T00:00:00Z</time>
      </trkpt>
      <trkpt lat="39.439885" lon="-5.309900">
        <ele>540.9</ele>
        <time>1970-01-01T00:00:00Z</time>
      </trkpt>
      <trkpt lat="39.439776" lon="-5.310020">
        <ele>542.2</ele>
        <time>1970-01-01T00:00:00Z</time>
      </trkpt>
      <trkpt lat="39.439776" lon="-5.310020">
        <ele>542.2</ele>
        <time>1970-01-01T00:00:00Z</time>
      </trkpt>
      <trkpt lat="39.439776" lon="-5.310020">
        <ele>542.2</ele>
        <time>1970-01-01T00:00:00Z</time>
      </trkpt>
      <trkpt lat="39.439776" lon="-5.310020">
        <ele>542.2</ele>
        <time>1970-01-01T00:00:00Z</time>
      </trkpt>
      <trkpt lat="39.439621" lon="-5.310139">
        <ele>544.2</ele>
        <time>1970-01-01T00:00:00Z</time>
      </trkpt>
      <trkpt lat="39.439621" lon="-5.310139">
        <ele>544.2</ele>
        <time>1970-01-01T00:00:00Z</time>
      </trkpt>
      <trkpt lat="39.439621" lon="-5.310139">
        <ele>544.2</ele>
        <time>1970-01-01T00:00:00Z</time>
      </trkpt>
      <trkpt lat="39.439621" lon="-5.310139">
        <ele>544.2</ele>
        <time>1970-01-01T00:00:00Z</time>
      </trkpt>
      <trkpt lat="39.439427" lon="-5.310236">
        <ele>547.0</ele>
        <time>1970-01-01T00:00:00Z</time>
      </trkpt>
      <trkpt lat="39.439427" lon="-5.310236">
        <ele>547.0</ele>
        <time>1970-01-01T00:00:00Z</time>
      </trkpt>
      <trkpt lat="39.439427" lon="-5.310236">
        <ele>547.0</ele>
        <time>1970-01-01T00:00:00Z</time>
      </trkpt>
      <trkpt lat="39.439427" lon="-5.310236">
        <ele>547.0</ele>
        <time>1970-01-01T00:00:00Z</time>
      </trkpt>
      <trkpt lat="39.439217" lon="-5.310332">
        <ele>551.2</ele>
        <time>1970-01-01T00:00:00Z</time>
      </trkpt>
      <trkpt lat="39.439217" lon="-5.310332">
        <ele>551.2</ele>
        <time>1970-01-01T00:00:00Z</time>
      </trkpt>
      <trkpt lat="39.439217" lon="-5.310332">
        <ele>551.2</ele>
        <time>1970-01-01T00:00:00Z</time>
      </trkpt>
      <trkpt lat="39.439217" lon="-5.310332">
        <ele>551.2</ele>
        <time>1970-01-01T00:00:00Z</time>
      </trkpt>
      <trkpt lat="39.439014" lon="-5.310400">
        <ele>555.0</ele>
        <time>1970-01-01T00:00:00Z</time>
      </trkpt>
      <trkpt lat="39.439014" lon="-5.310400">
        <ele>555.0</ele>
        <time>1970-01-01T00:00:00Z</time>
      </trkpt>
      <trkpt lat="39.439014" lon="-5.310400">
        <ele>555.0</ele>
        <time>1970-01-01T00:00:00Z</time>
      </trkpt>
      <trkpt lat="39.439014" lon="-5.310400">
        <ele>555.0</ele>
        <time>1970-01-01T00:00:00Z</time>
      </trkpt>
      <trkpt lat="39.438881" lon="-5.310448">
        <ele>556.7</ele>
        <time>1970-01-01T00:00:00Z</time>
      </trkpt>
      <trkpt lat="39.438881" lon="-5.310448">
        <ele>556.7</ele>
        <time>1970-01-01T00:00:00Z</time>
      </trkpt>
      <trkpt lat="39.438881" lon="-5.310448">
        <ele>556.7</ele>
        <time>1970-01-01T00:00:00Z</time>
      </trkpt>
      <trkpt lat="39.438881" lon="-5.310448">
        <ele>556.7</ele>
        <time>1970-01-01T00:00:00Z</time>
      </trkpt>
      <trkpt lat="39.438788" lon="-5.310528">
        <ele>557.2</ele>
        <time>1970-01-01T00:00:00Z</time>
      </trkpt>
      <trkpt lat="39.438788" lon="-5.310528">
        <ele>557.2</ele>
        <time>1970-01-01T00:00:00Z</time>
      </trkpt>
      <trkpt lat="39.438788" lon="-5.310528">
        <ele>557.2</ele>
        <time>1970-01-01T00:00:00Z</time>
      </trkpt>
      <trkpt lat="39.438788" lon="-5.310528">
        <ele>557.2</ele>
        <time>1970-01-01T00:00:00Z</time>
      </trkpt>
      <trkpt lat="39.438724" lon="-5.310692">
        <ele>555.6</ele>
        <time>1970-01-01T00:00:00Z</time>
      </trkpt>
      <trkpt lat="39.438724" lon="-5.310692">
        <ele>555.6</ele>
        <time>1970-01-01T00:00:00Z</time>
      </trkpt>
      <trkpt lat="39.438724" lon="-5.310692">
        <ele>555.6</ele>
        <time>1970-01-01T00:00:00Z</time>
      </trkpt>
      <trkpt lat="39.438724" lon="-5.310692">
        <ele>555.6</ele>
        <time>1970-01-01T00:00:00Z</time>
      </trkpt>
      <trkpt lat="39.438699" lon="-5.310842">
        <ele>553.6</ele>
        <time>1970-01-01T00:00:00Z</time>
      </trkpt>
      <trkpt lat="39.438699" lon="-5.310842">
        <ele>553.6</ele>
        <time>1970-01-01T00:00:00Z</time>
      </trkpt>
      <trkpt lat="39.438699" lon="-5.310842">
        <ele>553.6</ele>
        <time>1970-01-01T00:00:00Z</time>
      </trkpt>
      <trkpt lat="39.438699" lon="-5.310842">
        <ele>553.6</ele>
        <time>1970-01-01T00:00:00Z</time>
      </trkpt>
      <trkpt lat="39.438671" lon="-5.311065">
        <ele>549.8</ele>
        <time>1970-01-01T00:00:00Z</time>
      </trkpt>
      <trkpt lat="39.438671" lon="-5.311065">
        <ele>549.8</ele>
        <time>1970-01-01T00:00:00Z</time>
      </trkpt>
      <trkpt lat="39.438671" lon="-5.311065">
        <ele>549.8</ele>
        <time>1970-01-01T00:00:00Z</time>
      </trkpt>
      <trkpt lat="39.438671" lon="-5.311065">
        <ele>549.8</ele>
        <time>1970-01-01T00:00:00Z</time>
      </trkpt>
      <trkpt lat="39.438643" lon="-5.311267">
        <ele>545.9</ele>
        <time>1970-01-01T00:00:00Z</time>
      </trkpt>
      <trkpt lat="39.438643" lon="-5.311267">
        <ele>545.9</ele>
        <time>1970-01-01T00:00:00Z</time>
      </trkpt>
      <trkpt lat="39.438643" lon="-5.311267">
        <ele>545.9</ele>
        <time>1970-01-01T00:00:00Z</time>
      </trkpt>
      <trkpt lat="39.438643" lon="-5.311267">
        <ele>545.9</ele>
        <time>1970-01-01T00:00:00Z</time>
      </trkpt>
      <trkpt lat="39.438615" lon="-5.311458">
        <ele>542.5</ele>
        <time>1970-01-01T00:00:00Z</time>
      </trkpt>
      <trkpt lat="39.438615" lon="-5.311458">
        <ele>542.5</ele>
        <time>1970-01-01T00:00:00Z</time>
      </trkpt>
      <trkpt lat="39.438615" lon="-5.311458">
        <ele>542.5</ele>
        <time>1970-01-01T00:00:00Z</time>
      </trkpt>
      <trkpt lat="39.438615" lon="-5.311458">
        <ele>542.5</ele>
        <time>1970-01-01T00:00:00Z</time>
      </trkpt>
      <trkpt lat="39.438603" lon="-5.311654">
        <ele>538.8</ele>
        <time>1970-01-01T00:00:00Z</time>
      </trkpt>
      <trkpt lat="39.438603" lon="-5.311654">
        <ele>538.8</ele>
        <time>1970-01-01T00:00:00Z</time>
      </trkpt>
      <trkpt lat="39.438603" lon="-5.311654">
        <ele>538.8</ele>
        <time>1970-01-01T00:00:00Z</time>
      </trkpt>
      <trkpt lat="39.438603" lon="-5.311654">
        <ele>538.8</ele>
        <time>1970-01-01T00:00:00Z</time>
      </trkpt>
      <trkpt lat="39.438583" lon="-5.311887">
        <ele>535.2</ele>
        <time>1970-01-01T00:00:00Z</time>
      </trkpt>
      <trkpt lat="39.438583" lon="-5.311887">
        <ele>535.2</ele>
        <time>1970-01-01T00:00:00Z</time>
      </trkpt>
      <trkpt lat="39.438583" lon="-5.311887">
        <ele>535.2</ele>
        <time>1970-01-01T00:00:00Z</time>
      </trkpt>
      <trkpt lat="39.438583" lon="-5.311887">
        <ele>535.2</ele>
        <time>1970-01-01T00:00:00Z</time>
      </trkpt>
      <trkpt lat="39.438513" lon="-5.312050">
        <ele>535.3</ele>
        <time>1970-01-01T00:00:00Z</time>
      </trkpt>
      <trkpt lat="39.438513" lon="-5.312050">
        <ele>535.3</ele>
        <time>1970-01-01T00:00:00Z</time>
      </trkpt>
      <trkpt lat="39.438513" lon="-5.312050">
        <ele>535.3</ele>
        <time>1970-01-01T00:00:00Z</time>
      </trkpt>
      <trkpt lat="39.438513" lon="-5.312050">
        <ele>535.3</ele>
        <time>1970-01-01T00:00:00Z</time>
      </trkpt>
      <trkpt lat="39.438457" lon="-5.312159">
        <ele>535.5</ele>
        <time>1970-01-01T00:00:00Z</time>
      </trkpt>
      <trkpt lat="39.438457" lon="-5.312159">
        <ele>535.5</ele>
        <time>1970-01-01T00:00:00Z</time>
      </trkpt>
      <trkpt lat="39.438457" lon="-5.312159">
        <ele>535.5</ele>
        <time>1970-01-01T00:00:00Z</time>
      </trkpt>
      <trkpt lat="39.438457" lon="-5.312159">
        <ele>535.5</ele>
        <time>1970-01-01T00:00:00Z</time>
      </trkpt>
      <trkpt lat="39.438453" lon="-5.312255">
        <ele>534.6</ele>
        <time>1970-01-01T00:00:00Z</time>
      </trkpt>
      <trkpt lat="39.438453" lon="-5.312255">
        <ele>534.6</ele>
        <time>1970-01-01T00:00:00Z</time>
      </trkpt>
      <trkpt lat="39.438453" lon="-5.312255">
        <ele>534.6</ele>
        <time>1970-01-01T00:00:00Z</time>
      </trkpt>
      <trkpt lat="39.438453" lon="-5.312255">
        <ele>534.6</ele>
        <time>1970-01-01T00:00:00Z</time>
      </trkpt>
      <trkpt lat="39.438486" lon="-5.312339">
        <ele>533.1</ele>
        <time>1970-01-01T00:00:00Z</time>
      </trkpt>
      <trkpt lat="39.438486" lon="-5.312339">
        <ele>533.1</ele>
        <time>1970-01-01T00:00:00Z</time>
      </trkpt>
      <trkpt lat="39.438486" lon="-5.312339">
        <ele>533.1</ele>
        <time>1970-01-01T00:00:00Z</time>
      </trkpt>
      <trkpt lat="39.438486" lon="-5.312339">
        <ele>533.1</ele>
        <time>1970-01-01T00:00:00Z</time>
      </trkpt>
      <trkpt lat="39.438558" lon="-5.312341">
        <ele>531.9</ele>
        <time>1970-01-01T00:00:00Z</time>
      </trkpt>
      <trkpt lat="39.438558" lon="-5.312341">
        <ele>531.9</ele>
        <time>1970-01-01T00:00:00Z</time>
      </trkpt>
      <trkpt lat="39.438558" lon="-5.312341">
        <ele>531.9</ele>
        <time>1970-01-01T00:00:00Z</time>
      </trkpt>
      <trkpt lat="39.438558" lon="-5.312341">
        <ele>531.9</ele>
        <time>1970-01-01T00:00:00Z</time>
      </trkpt>
      <trkpt lat="39.438644" lon="-5.312299">
        <ele>530.6</ele>
        <time>1970-01-01T00:00:00Z</time>
      </trkpt>
      <trkpt lat="39.438644" lon="-5.312299">
        <ele>530.6</ele>
        <time>1970-01-01T00:00:00Z</time>
      </trkpt>
      <trkpt lat="39.438644" lon="-5.312299">
        <ele>530.6</ele>
        <time>1970-01-01T00:00:00Z</time>
      </trkpt>
      <trkpt lat="39.438644" lon="-5.312299">
        <ele>530.6</ele>
        <time>1970-01-01T00:00:00Z</time>
      </trkpt>
      <trkpt lat="39.438726" lon="-5.312198">
        <ele>529.7</ele>
        <time>1970-01-01T00:00:00Z</time>
      </trkpt>
      <trkpt lat="39.438726" lon="-5.312198">
        <ele>529.7</ele>
        <time>1970-01-01T00:00:00Z</time>
      </trkpt>
      <trkpt lat="39.438726" lon="-5.312198">
        <ele>529.7</ele>
        <time>1970-01-01T00:00:00Z</time>
      </trkpt>
      <trkpt lat="39.438726" lon="-5.312198">
        <ele>529.7</ele>
        <time>1970-01-01T00:00:00Z</time>
      </trkpt>
      <trkpt lat="39.438802" lon="-5.312005">
        <ele>529.7</ele>
        <time>1970-01-01T00:00:00Z</time>
      </trkpt>
      <trkpt lat="39.438802" lon="-5.312005">
        <ele>529.7</ele>
        <time>1970-01-01T00:00:00Z</time>
      </trkpt>
      <trkpt lat="39.438802" lon="-5.312005">
        <ele>529.7</ele>
        <time>1970-01-01T00:00:00Z</time>
      </trkpt>
      <trkpt lat="39.438802" lon="-5.312005">
        <ele>529.7</ele>
        <time>1970-01-01T00:00:00Z</time>
      </trkpt>
      <trkpt lat="39.438863" lon="-5.311818">
        <ele>530.9</ele>
        <time>1970-01-01T00:00:00Z</time>
      </trkpt>
      <trkpt lat="39.438863" lon="-5.311818">
        <ele>530.9</ele>
        <time>1970-01-01T00:00:00Z</time>
      </trkpt>
      <trkpt lat="39.438863" lon="-5.311818">
        <ele>530.9</ele>
        <time>1970-01-01T00:00:00Z</time>
      </trkpt>
      <trkpt lat="39.438863" lon="-5.311818">
        <ele>530.9</ele>
        <time>1970-01-01T00:00:00Z</time>
      </trkpt>
      <trkpt lat="39.438922" lon="-5.311689">
        <ele>531.5</ele>
        <time>1970-01-01T00:00:00Z</time>
      </trkpt>
      <trkpt lat="39.438922" lon="-5.311689">
        <ele>531.5</ele>
        <time>1970-01-01T00:00:00Z</time>
      </trkpt>
      <trkpt lat="39.438922" lon="-5.311689">
        <ele>531.5</ele>
        <time>1970-01-01T00:00:00Z</time>
      </trkpt>
      <trkpt lat="39.438922" lon="-5.311689">
        <ele>531.5</ele>
        <time>1970-01-01T00:00:00Z</time>
      </trkpt>
      <trkpt lat="39.438972" lon="-5.311601">
        <ele>531.7</ele>
        <time>1970-01-01T00:00:00Z</time>
      </trkpt>
      <trkpt lat="39.438972" lon="-5.311601">
        <ele>531.7</ele>
        <time>1970-01-01T00:00:00Z</time>
      </trkpt>
      <trkpt lat="39.438972" lon="-5.311601">
        <ele>531.7</ele>
        <time>1970-01-01T00:00:00Z</time>
      </trkpt>
      <trkpt lat="39.438972" lon="-5.311601">
        <ele>531.7</ele>
        <time>1970-01-01T00:00:00Z</time>
      </trkpt>
      <trkpt lat="39.439024" lon="-5.311553">
        <ele>531.5</ele>
        <time>1970-01-01T00:00:00Z</time>
      </trkpt>
      <trkpt lat="39.439024" lon="-5.311553">
        <ele>531.5</ele>
        <time>1970-01-01T00:00:00Z</time>
      </trkpt>
      <trkpt lat="39.439024" lon="-5.311553">
        <ele>531.5</ele>
        <time>1970-01-01T00:00:00Z</time>
      </trkpt>
      <trkpt lat="39.439024" lon="-5.311553">
        <ele>531.5</ele>
        <time>1970-01-01T00:00:00Z</time>
      </trkpt>
      <trkpt lat="39.439106" lon="-5.311456">
        <ele>531.4</ele>
        <time>1970-01-01T00:00:00Z</time>
      </trkpt>
      <trkpt lat="39.439106" lon="-5.311456">
        <ele>531.4</ele>
        <time>1970-01-01T00:00:00Z</time>
      </trkpt>
      <trkpt lat="39.439106" lon="-5.311456">
        <ele>531.4</ele>
        <time>1970-01-01T00:00:00Z</time>
      </trkpt>
      <trkpt lat="39.439106" lon="-5.311456">
        <ele>531.4</ele>
        <time>1970-01-01T00:00:00Z</time>
      </trkpt>
      <trkpt lat="39.439180" lon="-5.311339">
        <ele>531.8</ele>
        <time>1970-01-01T00:00:00Z</time>
      </trkpt>
      <trkpt lat="39.439180" lon="-5.311339">
        <ele>531.8</ele>
        <time>1970-01-01T00:00:00Z</time>
      </trkpt>
      <trkpt lat="39.439180" lon="-5.311339">
        <ele>531.8</ele>
        <time>1970-01-01T00:00:00Z</time>
      </trkpt>
      <trkpt lat="39.439180" lon="-5.311339">
        <ele>531.8</ele>
        <time>1970-01-01T00:00:00Z</time>
      </trkpt>
      <trkpt lat="39.439245" lon="-5.311294">
        <ele>531.2</ele>
        <time>1970-01-01T00:00:00Z</time>
      </trkpt>
      <trkpt lat="39.439245" lon="-5.311294">
        <ele>531.2</ele>
        <time>1970-01-01T00:00:00Z</time>
      </trkpt>
      <trkpt lat="39.439245" lon="-5.311294">
        <ele>531.2</ele>
        <time>1970-01-01T00:00:00Z</time>
      </trkpt>
      <trkpt lat="39.439245" lon="-5.311294">
        <ele>531.2</ele>
        <time>1970-01-01T00:00:00Z</time>
      </trkpt>
      <trkpt lat="39.439345" lon="-5.311249">
        <ele>530.3</ele>
        <time>1970-01-01T00:00:00Z</time>
      </trkpt>
      <trkpt lat="39.439345" lon="-5.311249">
        <ele>530.3</ele>
        <time>1970-01-01T00:00:00Z</time>
      </trkpt>
      <trkpt lat="39.439345" lon="-5.311249">
        <ele>530.3</ele>
        <time>1970-01-01T00:00:00Z</time>
      </trkpt>
      <trkpt lat="39.439345" lon="-5.311249">
        <ele>530.3</ele>
        <time>1970-01-01T00:00:00Z</time>
      </trkpt>
      <trkpt lat="39.439455" lon="-5.311244">
        <ele>528.6</ele>
        <time>1970-01-01T00:00:00Z</time>
      </trkpt>
      <trkpt lat="39.439455" lon="-5.311244">
        <ele>528.6</ele>
        <time>1970-01-01T00:00:00Z</time>
      </trkpt>
      <trkpt lat="39.439455" lon="-5.311244">
        <ele>528.6</ele>
        <time>1970-01-01T00:00:00Z</time>
      </trkpt>
      <trkpt lat="39.439455" lon="-5.311244">
        <ele>528.6</ele>
        <time>1970-01-01T00:00:00Z</time>
      </trkpt>
      <trkpt lat="39.439602" lon="-5.311227">
        <ele>527.0</ele>
        <time>1970-01-01T00:00:00Z</time>
      </trkpt>
      <trkpt lat="39.439602" lon="-5.311227">
        <ele>527.0</ele>
        <time>1970-01-01T00:00:00Z</time>
      </trkpt>
      <trkpt lat="39.439602" lon="-5.311227">
        <ele>527.0</ele>
        <time>1970-01-01T00:00:00Z</time>
      </trkpt>
      <trkpt lat="39.439602" lon="-5.311227">
        <ele>527.0</ele>
        <time>1970-01-01T00:00:00Z</time>
      </trkpt>
      <trkpt lat="39.439798" lon="-5.311160">
        <ele>525.6</ele>
        <time>1970-01-01T00:00:00Z</time>
      </trkpt>
      <trkpt lat="39.439798" lon="-5.311160">
        <ele>525.6</ele>
        <time>1970-01-01T00:00:00Z</time>
      </trkpt>
      <trkpt lat="39.439798" lon="-5.311160">
        <ele>525.6</ele>
        <time>1970-01-01T00:00:00Z</time>
      </trkpt>
      <trkpt lat="39.439798" lon="-5.311160">
        <ele>525.6</ele>
        <time>1970-01-01T00:00:00Z</time>
      </trkpt>
      <trkpt lat="39.439863" lon="-5.311150">
        <ele>525.0</ele>
        <time>1970-01-01T00:00:00Z</time>
      </trkpt>
      <trkpt lat="39.439863" lon="-5.311150">
        <ele>525.0</ele>
        <time>1970-01-01T00:00:00Z</time>
      </trkpt>
      <trkpt lat="39.439863" lon="-5.311150">
        <ele>525.0</ele>
        <time>1970-01-01T00:00:00Z</time>
      </trkpt>
      <trkpt lat="39.439863" lon="-5.311150">
        <ele>525.0</ele>
        <time>1970-01-01T00:00:00Z</time>
      </trkpt>
      <trkpt lat="39.439911" lon="-5.311170">
        <ele>524.4</ele>
        <time>1970-01-01T00:00:00Z</time>
      </trkpt>
      <trkpt lat="39.439911" lon="-5.311170">
        <ele>524.4</ele>
        <time>1970-01-01T00:00:00Z</time>
      </trkpt>
      <trkpt lat="39.439911" lon="-5.311170">
        <ele>524.4</ele>
        <time>1970-01-01T00:00:00Z</time>
      </trkpt>
      <trkpt lat="39.439911" lon="-5.311170">
        <ele>524.4</ele>
        <time>1970-01-01T00:00:00Z</time>
      </trkpt>
      <trkpt lat="39.439916" lon="-5.311206">
        <ele>524.0</ele>
        <time>1970-01-01T00:00:00Z</time>
      </trkpt>
      <trkpt lat="39.439916" lon="-5.311206">
        <ele>524.0</ele>
        <time>1970-01-01T00:00:00Z</time>
      </trkpt>
      <trkpt lat="39.439916" lon="-5.311206">
        <ele>524.0</ele>
        <time>1970-01-01T00:00:00Z</time>
      </trkpt>
      <trkpt lat="39.439916" lon="-5.311206">
        <ele>524.0</ele>
        <time>1970-01-01T00:00:00Z</time>
      </trkpt>
      <trkpt lat="39.439920" lon="-5.311310">
        <ele>523.1</ele>
        <time>1970-01-01T00:00:00Z</time>
      </trkpt>
      <trkpt lat="39.439920" lon="-5.311310">
        <ele>523.1</ele>
        <time>1970-01-01T00:00:00Z</time>
      </trkpt>
      <trkpt lat="39.439920" lon="-5.311310">
        <ele>523.1</ele>
        <time>1970-01-01T00:00:00Z</time>
      </trkpt>
      <trkpt lat="39.439920" lon="-5.311310">
        <ele>523.1</ele>
        <time>1970-01-01T00:00:00Z</time>
      </trkpt>
      <trkpt lat="39.440007" lon="-5.311294">
        <ele>522.3</ele>
        <time>1970-01-01T00:00:00Z</time>
      </trkpt>
      <trkpt lat="39.440007" lon="-5.311294">
        <ele>522.3</ele>
        <time>1970-01-01T00:00:00Z</time>
      </trkpt>
      <trkpt lat="39.440007" lon="-5.311294">
        <ele>522.3</ele>
        <time>1970-01-01T00:00:00Z</time>
      </trkpt>
      <trkpt lat="39.440007" lon="-5.311294">
        <ele>522.3</ele>
        <time>1970-01-01T00:00:00Z</time>
      </trkpt>
      <trkpt lat="39.440021" lon="-5.311336">
        <ele>521.9</ele>
        <time>1970-01-01T00:00:00Z</time>
      </trkpt>
      <trkpt lat="39.440021" lon="-5.311336">
        <ele>521.9</ele>
        <time>1970-01-01T00:00:00Z</time>
      </trkpt>
      <trkpt lat="39.440021" lon="-5.311336">
        <ele>521.9</ele>
        <time>1970-01-01T00:00:00Z</time>
      </trkpt>
      <trkpt lat="39.440021" lon="-5.311336">
        <ele>521.9</ele>
        <time>1970-01-01T00:00:00Z</time>
      </trkpt>
      <trkpt lat="39.440042" lon="-5.311437">
        <ele>521.0</ele>
        <time>1970-01-01T00:00:00Z</time>
      </trkpt>
      <trkpt lat="39.440042" lon="-5.311437">
        <ele>521.0</ele>
        <time>1970-01-01T00:00:00Z</time>
      </trkpt>
      <trkpt lat="39.440042" lon="-5.311437">
        <ele>521.0</ele>
        <time>1970-01-01T00:00:00Z</time>
      </trkpt>
      <trkpt lat="39.440042" lon="-5.311437">
        <ele>521.0</ele>
        <time>1970-01-01T00:00:00Z</time>
      </trkpt>
      <trkpt lat="39.440054" lon="-5.311520">
        <ele>520.5</ele>
        <time>1970-01-01T00:00:00Z</time>
      </trkpt>
      <trkpt lat="39.440054" lon="-5.311520">
        <ele>520.5</ele>
        <time>1970-01-01T00:00:00Z</time>
      </trkpt>
      <trkpt lat="39.440054" lon="-5.311520">
        <ele>520.5</ele>
        <time>1970-01-01T00:00:00Z</time>
      </trkpt>
      <trkpt lat="39.440054" lon="-5.311520">
        <ele>520.5</ele>
        <time>1970-01-01T00:00:00Z</time>
      </trkpt>
      <trkpt lat="39.440087" lon="-5.311596">
        <ele>519.9</ele>
        <time>1970-01-01T00:00:00Z</time>
      </trkpt>
      <trkpt lat="39.440087" lon="-5.311596">
        <ele>519.9</ele>
        <time>1970-01-01T00:00:00Z</time>
      </trkpt>
      <trkpt lat="39.440087" lon="-5.311596">
        <ele>519.9</ele>
        <time>1970-01-01T00:00:00Z</time>
      </trkpt>
      <trkpt lat="39.440087" lon="-5.311596">
        <ele>519.9</ele>
        <time>1970-01-01T00:00:00Z</time>
      </trkpt>
      <trkpt lat="39.440123" lon="-5.311632">
        <ele>519.5</ele>
        <time>1970-01-01T00:00:00Z</time>
      </trkpt>
      <trkpt lat="39.440123" lon="-5.311632">
        <ele>519.5</ele>
        <time>1970-01-01T00:00:00Z</time>
      </trkpt>
      <trkpt lat="39.440123" lon="-5.311632">
        <ele>519.5</ele>
        <time>1970-01-01T00:00:00Z</time>
      </trkpt>
      <trkpt lat="39.440123" lon="-5.311632">
        <ele>519.5</ele>
        <time>1970-01-01T00:00:00Z</time>
      </trkpt>
      <trkpt lat="39.440172" lon="-5.311660">
        <ele>519.0</ele>
        <time>1970-01-01T00:00:00Z</time>
      </trkpt>
      <trkpt lat="39.440172" lon="-5.311660">
        <ele>519.0</ele>
        <time>1970-01-01T00:00:00Z</time>
      </trkpt>
      <trkpt lat="39.440172" lon="-5.311660">
        <ele>519.0</ele>
        <time>1970-01-01T00:00:00Z</time>
      </trkpt>
      <trkpt lat="39.440172" lon="-5.311660">
        <ele>519.0</ele>
        <time>1970-01-01T00:00:00Z</time>
      </trkpt>
      <trkpt lat="39.440317" lon="-5.311714">
        <ele>518.7</ele>
        <time>1970-01-01T00:00:00Z</time>
      </trkpt>
      <trkpt lat="39.440317" lon="-5.311714">
        <ele>518.7</ele>
        <time>1970-01-01T00:00:00Z</time>
      </trkpt>
      <trkpt lat="39.440317" lon="-5.311714">
        <ele>518.7</ele>
        <time>1970-01-01T00:00:00Z</time>
      </trkpt>
      <trkpt lat="39.440317" lon="-5.311714">
        <ele>518.7</ele>
        <time>1970-01-01T00:00:00Z</time>
      </trkpt>
      <trkpt lat="39.440423" lon="-5.311749">
        <ele>518.4</ele>
        <time>1970-01-01T00:00:00Z</time>
      </trkpt>
      <trkpt lat="39.440423" lon="-5.311749">
        <ele>518.4</ele>
        <time>1970-01-01T00:00:00Z</time>
      </trkpt>
      <trkpt lat="39.440423" lon="-5.311749">
        <ele>518.4</ele>
        <time>1970-01-01T00:00:00Z</time>
      </trkpt>
      <trkpt lat="39.440423" lon="-5.311749">
        <ele>518.4</ele>
        <time>1970-01-01T00:00:00Z</time>
      </trkpt>
      <trkpt lat="39.440518" lon="-5.311771">
        <ele>518.5</ele>
        <time>1970-01-01T00:00:00Z</time>
      </trkpt>
      <trkpt lat="39.440518" lon="-5.311771">
        <ele>518.5</ele>
        <time>1970-01-01T00:00:00Z</time>
      </trkpt>
      <trkpt lat="39.440518" lon="-5.311771">
        <ele>518.5</ele>
        <time>1970-01-01T00:00:00Z</time>
      </trkpt>
      <trkpt lat="39.440518" lon="-5.311771">
        <ele>518.5</ele>
        <time>1970-01-01T00:00:00Z</time>
      </trkpt>
      <trkpt lat="39.440611" lon="-5.311775">
        <ele>518.5</ele>
        <time>1970-01-01T00:00:00Z</time>
      </trkpt>
      <trkpt lat="39.440611" lon="-5.311775">
        <ele>518.5</ele>
        <time>1970-01-01T00:00:00Z</time>
      </trkpt>
      <trkpt lat="39.440611" lon="-5.311775">
        <ele>518.5</ele>
        <time>1970-01-01T00:00:00Z</time>
      </trkpt>
      <trkpt lat="39.440611" lon="-5.311775">
        <ele>518.5</ele>
        <time>1970-01-01T00:00:00Z</time>
      </trkpt>
      <trkpt lat="39.440603" lon="-5.311859">
        <ele>518.9</ele>
        <time>1970-01-01T00:00:00Z</time>
      </trkpt>
      <trkpt lat="39.440603" lon="-5.311859">
        <ele>518.9</ele>
        <time>1970-01-01T00:00:00Z</time>
      </trkpt>
      <trkpt lat="39.440603" lon="-5.311859">
        <ele>518.9</ele>
        <time>1970-01-01T00:00:00Z</time>
      </trkpt>
      <trkpt lat="39.440603" lon="-5.311859">
        <ele>518.9</ele>
        <time>1970-01-01T00:00:00Z</time>
      </trkpt>
      <trkpt lat="39.440607" lon="-5.311963">
        <ele>519.3</ele>
        <time>1970-01-01T00:00:00Z</time>
      </trkpt>
      <trkpt lat="39.440607" lon="-5.311963">
        <ele>519.3</ele>
        <time>1970-01-01T00:00:00Z</time>
      </trkpt>
      <trkpt lat="39.440607" lon="-5.311963">
        <ele>519.3</ele>
        <time>1970-01-01T00:00:00Z</time>
      </trkpt>
      <trkpt lat="39.440607" lon="-5.311963">
        <ele>519.3</ele>
        <time>1970-01-01T00:00:00Z</time>
      </trkpt>
      <trkpt lat="39.440605" lon="-5.312082">
        <ele>519.8</ele>
        <time>1970-01-01T00:00:00Z</time>
      </trkpt>
      <trkpt lat="39.440605" lon="-5.312082">
        <ele>519.8</ele>
        <time>1970-01-01T00:00:00Z</time>
      </trkpt>
      <trkpt lat="39.440605" lon="-5.312082">
        <ele>519.8</ele>
        <time>1970-01-01T00:00:00Z</time>
      </trkpt>
      <trkpt lat="39.440605" lon="-5.312082">
        <ele>519.8</ele>
        <time>1970-01-01T00:00:00Z</time>
      </trkpt>
      <trkpt lat="39.440609" lon="-5.312174">
        <ele>520.5</ele>
        <time>1970-01-01T00:00:00Z</time>
      </trkpt>
      <trkpt lat="39.440609" lon="-5.312174">
        <ele>520.5</ele>
        <time>1970-01-01T00:00:00Z</time>
      </trkpt>
      <trkpt lat="39.440609" lon="-5.312174">
        <ele>520.5</ele>
        <time>1970-01-01T00:00:00Z</time>
      </trkpt>
      <trkpt lat="39.440609" lon="-5.312174">
        <ele>520.5</ele>
        <time>1970-01-01T00:00:00Z</time>
      </trkpt>
      <trkpt lat="39.440627" lon="-5.312325">
        <ele>521.8</ele>
        <time>1970-01-01T00:00:00Z</time>
      </trkpt>
      <trkpt lat="39.440627" lon="-5.312325">
        <ele>521.8</ele>
        <time>1970-01-01T00:00:00Z</time>
      </trkpt>
      <trkpt lat="39.440627" lon="-5.312325">
        <ele>521.8</ele>
        <time>1970-01-01T00:00:00Z</time>
      </trkpt>
      <trkpt lat="39.440627" lon="-5.312325">
        <ele>521.8</ele>
        <time>1970-01-01T00:00:00Z</time>
      </trkpt>
      <trkpt lat="39.440672" lon="-5.312441">
        <ele>522.4</ele>
        <time>1970-01-01T00:00:00Z</time>
      </trkpt>
      <trkpt lat="39.440672" lon="-5.312441">
        <ele>522.4</ele>
        <time>1970-01-01T00:00:00Z</time>
      </trkpt>
      <trkpt lat="39.440672" lon="-5.312441">
        <ele>522.4</ele>
        <time>1970-01-01T00:00:00Z</time>
      </trkpt>
      <trkpt lat="39.440672" lon="-5.312441">
        <ele>522.4</ele>
        <time>1970-01-01T00:00:00Z</time>
      </trkpt>
      <trkpt lat="39.440703" lon="-5.312546">
        <ele>522.8</ele>
        <time>1970-01-01T00:00:00Z</time>
      </trkpt>
      <trkpt lat="39.440703" lon="-5.312546">
        <ele>522.8</ele>
        <time>1970-01-01T00:00:00Z</time>
      </trkpt>
      <trkpt lat="39.440703" lon="-5.312546">
        <ele>522.8</ele>
        <time>1970-01-01T00:00:00Z</time>
      </trkpt>
      <trkpt lat="39.440703" lon="-5.312546">
        <ele>522.8</ele>
        <time>1970-01-01T00:00:00Z</time>
      </trkpt>
      <trkpt lat="39.440739" lon="-5.312644">
        <ele>523.5</ele>
        <time>1970-01-01T00:00:00Z</time>
      </trkpt>
      <trkpt lat="39.440739" lon="-5.312644">
        <ele>523.5</ele>
        <time>1970-01-01T00:00:00Z</time>
      </trkpt>
      <trkpt lat="39.440739" lon="-5.312644">
        <ele>523.5</ele>
        <time>1970-01-01T00:00:00Z</time>
      </trkpt>
      <trkpt lat="39.440739" lon="-5.312644">
        <ele>523.5</ele>
        <time>1970-01-01T00:00:00Z</time>
      </trkpt>
      <trkpt lat="39.440782" lon="-5.312804">
        <ele>524.9</ele>
        <time>1970-01-01T00:00:00Z</time>
      </trkpt>
      <trkpt lat="39.440782" lon="-5.312804">
        <ele>524.9</ele>
        <time>1970-01-01T00:00:00Z</time>
      </trkpt>
      <trkpt lat="39.440782" lon="-5.312804">
        <ele>524.9</ele>
        <time>1970-01-01T00:00:00Z</time>
      </trkpt>
      <trkpt lat="39.440782" lon="-5.312804">
        <ele>524.9</ele>
        <time>1970-01-01T00:00:00Z</time>
      </trkpt>
      <trkpt lat="39.440806" lon="-5.312919">
        <ele>525.6</ele>
        <time>1970-01-01T00:00:00Z</time>
      </trkpt>
      <trkpt lat="39.440806" lon="-5.312919">
        <ele>525.6</ele>
        <time>1970-01-01T00:00:00Z</time>
      </trkpt>
      <trkpt lat="39.440806" lon="-5.312919">
        <ele>525.6</ele>
        <time>1970-01-01T00:00:00Z</time>
      </trkpt>
      <trkpt lat="39.440806" lon="-5.312919">
        <ele>525.6</ele>
        <time>1970-01-01T00:00:00Z</time>
      </trkpt>
      <trkpt lat="39.440849" lon="-5.313107">
        <ele>526.3</ele>
        <time>1970-01-01T00:00:00Z</time>
      </trkpt>
      <trkpt lat="39.440849" lon="-5.313107">
        <ele>526.3</ele>
        <time>1970-01-01T00:00:00Z</time>
      </trkpt>
      <trkpt lat="39.440849" lon="-5.313107">
        <ele>526.3</ele>
        <time>1970-01-01T00:00:00Z</time>
      </trkpt>
      <trkpt lat="39.440849" lon="-5.313107">
        <ele>526.3</ele>
        <time>1970-01-01T00:00:00Z</time>
      </trkpt>
      <trkpt lat="39.440866" lon="-5.313326">
        <ele>527.0</ele>
        <time>1970-01-01T00:00:00Z</time>
      </trkpt>
      <trkpt lat="39.440866" lon="-5.313326">
        <ele>527.0</ele>
        <time>1970-01-01T00:00:00Z</time>
      </trkpt>
      <trkpt lat="39.440866" lon="-5.313326">
        <ele>527.0</ele>
        <time>1970-01-01T00:00:00Z</time>
      </trkpt>
      <trkpt lat="39.440866" lon="-5.313326">
        <ele>527.0</ele>
        <time>1970-01-01T00:00:00Z</time>
      </trkpt>
      <trkpt lat="39.440868" lon="-5.313539">
        <ele>527.0</ele>
        <time>1970-01-01T00:00:00Z</time>
      </trkpt>
      <trkpt lat="39.440868" lon="-5.313539">
        <ele>527.0</ele>
        <time>1970-01-01T00:00:00Z</time>
      </trkpt>
      <trkpt lat="39.440868" lon="-5.313539">
        <ele>527.0</ele>
        <time>1970-01-01T00:00:00Z</time>
      </trkpt>
      <trkpt lat="39.440868" lon="-5.313539">
        <ele>527.0</ele>
        <time>1970-01-01T00:00:00Z</time>
      </trkpt>
      <trkpt lat="39.440870" lon="-5.313705">
        <ele>527.0</ele>
        <time>1970-01-01T00:00:00Z</time>
      </trkpt>
      <trkpt lat="39.440870" lon="-5.313705">
        <ele>527.0</ele>
        <time>1970-01-01T00:00:00Z</time>
      </trkpt>
      <trkpt lat="39.440870" lon="-5.313705">
        <ele>527.0</ele>
        <time>1970-01-01T00:00:00Z</time>
      </trkpt>
      <trkpt lat="39.440870" lon="-5.313705">
        <ele>527.0</ele>
        <time>1970-01-01T00:00:00Z</time>
      </trkpt>
      <trkpt lat="39.440858" lon="-5.313812">
        <ele>527.0</ele>
        <time>1970-01-01T00:00:00Z</time>
      </trkpt>
      <trkpt lat="39.440858" lon="-5.313812">
        <ele>527.0</ele>
        <time>1970-01-01T00:00:00Z</time>
      </trkpt>
      <trkpt lat="39.440858" lon="-5.313812">
        <ele>527.0</ele>
        <time>1970-01-01T00:00:00Z</time>
      </trkpt>
      <trkpt lat="39.440858" lon="-5.313812">
        <ele>527.0</ele>
        <time>1970-01-01T00:00:00Z</time>
      </trkpt>
      <trkpt lat="39.440832" lon="-5.313981">
        <ele>527.2</ele>
        <time>1970-01-01T00:00:00Z</time>
      </trkpt>
      <trkpt lat="39.440832" lon="-5.313981">
        <ele>527.2</ele>
        <time>1970-01-01T00:00:00Z</time>
      </trkpt>
      <trkpt lat="39.440832" lon="-5.313981">
        <ele>527.2</ele>
        <time>1970-01-01T00:00:00Z</time>
      </trkpt>
      <trkpt lat="39.440832" lon="-5.313981">
        <ele>527.2</ele>
        <time>1970-01-01T00:00:00Z</time>
      </trkpt>
      <trkpt lat="39.440801" lon="-5.314121">
        <ele>527.5</ele>
        <time>1970-01-01T00:00:00Z</time>
      </trkpt>
      <trkpt lat="39.440801" lon="-5.314121">
        <ele>527.5</ele>
        <time>1970-01-01T00:00:00Z</time>
      </trkpt>
      <trkpt lat="39.440801" lon="-5.314121">
        <ele>527.5</ele>
        <time>1970-01-01T00:00:00Z</time>
      </trkpt>
      <trkpt lat="39.440801" lon="-5.314121">
        <ele>527.5</ele>
        <time>1970-01-01T00:00:00Z</time>
      </trkpt>
      <trkpt lat="39.440754" lon="-5.314300">
        <ele>527.5</ele>
        <time>1970-01-01T00:00:00Z</time>
      </trkpt>
      <trkpt lat="39.440754" lon="-5.314300">
        <ele>527.5</ele>
        <time>1970-01-01T00:00:00Z</time>
      </trkpt>
      <trkpt lat="39.440754" lon="-5.314300">
        <ele>527.5</ele>
        <time>1970-01-01T00:00:00Z</time>
      </trkpt>
      <trkpt lat="39.440754" lon="-5.314300">
        <ele>527.5</ele>
        <time>1970-01-01T00:00:00Z</time>
      </trkpt>
      <trkpt lat="39.440716" lon="-5.314435">
        <ele>527.2</ele>
        <time>1970-01-01T00:00:00Z</time>
      </trkpt>
      <trkpt lat="39.440716" lon="-5.314435">
        <ele>527.2</ele>
        <time>1970-01-01T00:00:00Z</time>
      </trkpt>
      <trkpt lat="39.440716" lon="-5.314435">
        <ele>527.2</ele>
        <time>1970-01-01T00:00:00Z</time>
      </trkpt>
      <trkpt lat="39.440716" lon="-5.314435">
        <ele>527.2</ele>
        <time>1970-01-01T00:00:00Z</time>
      </trkpt>
      <trkpt lat="39.440637" lon="-5.314638">
        <ele>527.9</ele>
        <time>1970-01-01T00:00:00Z</time>
      </trkpt>
      <trkpt lat="39.440637" lon="-5.314638">
        <ele>527.9</ele>
        <time>1970-01-01T00:00:00Z</time>
      </trkpt>
      <trkpt lat="39.440637" lon="-5.314638">
        <ele>527.9</ele>
        <time>1970-01-01T00:00:00Z</time>
      </trkpt>
      <trkpt lat="39.440637" lon="-5.314638">
        <ele>527.9</ele>
        <time>1970-01-01T00:00:00Z</time>
      </trkpt>
      <trkpt lat="39.440590" lon="-5.314787">
        <ele>528.1</ele>
        <time>1970-01-01T00:00:00Z</time>
      </trkpt>
      <trkpt lat="39.440590" lon="-5.314787">
        <ele>528.1</ele>
        <time>1970-01-01T00:00:00Z</time>
      </trkpt>
      <trkpt lat="39.440590" lon="-5.314787">
        <ele>528.1</ele>
        <time>1970-01-01T00:00:00Z</time>
      </trkpt>
      <trkpt lat="39.440590" lon="-5.314787">
        <ele>528.1</ele>
        <time>1970-01-01T00:00:00Z</time>
      </trkpt>
      <trkpt lat="39.440539" lon="-5.314931">
        <ele>528.3</ele>
        <time>1970-01-01T00:00:00Z</time>
      </trkpt>
      <trkpt lat="39.440539" lon="-5.314931">
        <ele>528.3</ele>
        <time>1970-01-01T00:00:00Z</time>
      </trkpt>
      <trkpt lat="39.440539" lon="-5.314931">
        <ele>528.3</ele>
        <time>1970-01-01T00:00:00Z</time>
      </trkpt>
      <trkpt lat="39.440539" lon="-5.314931">
        <ele>528.3</ele>
        <time>1970-01-01T00:00:00Z</time>
      </trkpt>
      <trkpt lat="39.440509" lon="-5.315057">
        <ele>528.0</ele>
        <time>1970-01-01T00:00:00Z</time>
      </trkpt>
      <trkpt lat="39.440509" lon="-5.315057">
        <ele>528.0</ele>
        <time>1970-01-01T00:00:00Z</time>
      </trkpt>
      <trkpt lat="39.440509" lon="-5.315057">
        <ele>528.0</ele>
        <time>1970-01-01T00:00:00Z</time>
      </trkpt>
      <trkpt lat="39.440509" lon="-5.315057">
        <ele>528.0</ele>
        <time>1970-01-01T00:00:00Z</time>
      </trkpt>
      <trkpt lat="39.440478" lon="-5.315191">
        <ele>527.4</ele>
        <time>1970-01-01T00:00:00Z</time>
      </trkpt>
      <trkpt lat="39.440478" lon="-5.315191">
        <ele>527.4</ele>
        <time>1970-01-01T00:00:00Z</time>
      </trkpt>
      <trkpt lat="39.440478" lon="-5.315191">
        <ele>527.4</ele>
        <time>1970-01-01T00:00:00Z</time>
      </trkpt>
      <trkpt lat="39.440478" lon="-5.315191">
        <ele>527.4</ele>
        <time>1970-01-01T00:00:00Z</time>
      </trkpt>
      <trkpt lat="39.440478" lon="-5.315238">
        <ele>527.0</ele>
        <time>1970-01-01T00:00:00Z</time>
      </trkpt>
      <trkpt lat="39.440478" lon="-5.315238">
        <ele>527.0</ele>
        <time>1970-01-01T00:00:00Z</time>
      </trkpt>
      <trkpt lat="39.440478" lon="-5.315238">
        <ele>527.0</ele>
        <time>1970-01-01T00:00:00Z</time>
      </trkpt>
      <trkpt lat="39.440478" lon="-5.315238">
        <ele>527.0</ele>
        <time>1970-01-01T00:00:00Z</time>
      </trkpt>
      <trkpt lat="39.440484" lon="-5.315271">
        <ele>526.6</ele>
        <time>1970-01-01T00:00:00Z</time>
      </trkpt>
      <trkpt lat="39.440484" lon="-5.315271">
        <ele>526.6</ele>
        <time>1970-01-01T00:00:00Z</time>
      </trkpt>
      <trkpt lat="39.440484" lon="-5.315271">
        <ele>526.6</ele>
        <time>1970-01-01T00:00:00Z</time>
      </trkpt>
      <trkpt lat="39.440484" lon="-5.315271">
        <ele>526.6</ele>
        <time>1970-01-01T00:00:00Z</time>
      </trkpt>
      <trkpt lat="39.440400" lon="-5.315303">
        <ele>527.4</ele>
        <time>1970-01-01T00:00:00Z</time>
      </trkpt>
      <trkpt lat="39.440400" lon="-5.315303">
        <ele>527.4</ele>
        <time>1970-01-01T00:00:00Z</time>
      </trkpt>
      <trkpt lat="39.440400" lon="-5.315303">
        <ele>527.4</ele>
        <time>1970-01-01T00:00:00Z</time>
      </trkpt>
      <trkpt lat="39.440400" lon="-5.315303">
        <ele>527.4</ele>
        <time>1970-01-01T00:00:00Z</time>
      </trkpt>
      <trkpt lat="39.440340" lon="-5.315332">
        <ele>528.2</ele>
        <time>1970-01-01T00:00:00Z</time>
      </trkpt>
      <trkpt lat="39.440340" lon="-5.315332">
        <ele>528.2</ele>
        <time>1970-01-01T00:00:00Z</time>
      </trkpt>
      <trkpt lat="39.440340" lon="-5.315332">
        <ele>528.2</ele>
        <time>1970-01-01T00:00:00Z</time>
      </trkpt>
      <trkpt lat="39.440340" lon="-5.315332">
        <ele>528.2</ele>
        <time>1970-01-01T00:00:00Z</time>
      </trkpt>
      <trkpt lat="39.440322" lon="-5.315384">
        <ele>528.1</ele>
        <time>1970-01-01T00:00:00Z</time>
      </trkpt>
      <trkpt lat="39.440322" lon="-5.315384">
        <ele>528.1</ele>
        <time>1970-01-01T00:00:00Z</time>
      </trkpt>
      <trkpt lat="39.440322" lon="-5.315384">
        <ele>528.1</ele>
        <time>1970-01-01T00:00:00Z</time>
      </trkpt>
      <trkpt lat="39.440322" lon="-5.315384">
        <ele>528.1</ele>
        <time>1970-01-01T00:00:00Z</time>
      </trkpt>
      <trkpt lat="39.440278" lon="-5.315509">
        <ele>527.8</ele>
        <time>1970-01-01T00:00:00Z</time>
      </trkpt>
      <trkpt lat="39.440278" lon="-5.315509">
        <ele>527.8</ele>
        <time>1970-01-01T00:00:00Z</time>
      </trkpt>
      <trkpt lat="39.440278" lon="-5.315509">
        <ele>527.8</ele>
        <time>1970-01-01T00:00:00Z</time>
      </trkpt>
      <trkpt lat="39.440278" lon="-5.315509">
        <ele>527.8</ele>
        <time>1970-01-01T00:00:00Z</time>
      </trkpt>
      <trkpt lat="39.440240" lon="-5.315672">
        <ele>527.4</ele>
        <time>1970-01-01T00:00:00Z</time>
      </trkpt>
      <trkpt lat="39.440240" lon="-5.315672">
        <ele>527.4</ele>
        <time>1970-01-01T00:00:00Z</time>
      </trkpt>
      <trkpt lat="39.440240" lon="-5.315672">
        <ele>527.4</ele>
        <time>1970-01-01T00:00:00Z</time>
      </trkpt>
      <trkpt lat="39.440240" lon="-5.315672">
        <ele>527.4</ele>
        <time>1970-01-01T00:00:00Z</time>
      </trkpt>
      <trkpt lat="39.440212" lon="-5.315817">
        <ele>527.2</ele>
        <time>1970-01-01T00:00:00Z</time>
      </trkpt>
      <trkpt lat="39.440212" lon="-5.315817">
        <ele>527.2</ele>
        <time>1970-01-01T00:00:00Z</time>
      </trkpt>
      <trkpt lat="39.440212" lon="-5.315817">
        <ele>527.2</ele>
        <time>1970-01-01T00:00:00Z</time>
      </trkpt>
      <trkpt lat="39.440212" lon="-5.315817">
        <ele>527.2</ele>
        <time>1970-01-01T00:00:00Z</time>
      </trkpt>
      <trkpt lat="39.440212" lon="-5.315920">
        <ele>526.9</ele>
        <time>1970-01-01T00:00:00Z</time>
      </trkpt>
      <trkpt lat="39.440212" lon="-5.315920">
        <ele>526.9</ele>
        <time>1970-01-01T00:00:00Z</time>
      </trkpt>
      <trkpt lat="39.440212" lon="-5.315920">
        <ele>526.9</ele>
        <time>1970-01-01T00:00:00Z</time>
      </trkpt>
      <trkpt lat="39.440212" lon="-5.315920">
        <ele>526.9</ele>
        <time>1970-01-01T00:00:00Z</time>
      </trkpt>
      <trkpt lat="39.440220" lon="-5.315996">
        <ele>526.5</ele>
        <time>1970-01-01T00:00:00Z</time>
      </trkpt>
      <trkpt lat="39.440220" lon="-5.315996">
        <ele>526.5</ele>
        <time>1970-01-01T00:00:00Z</time>
      </trkpt>
      <trkpt lat="39.440220" lon="-5.315996">
        <ele>526.5</ele>
        <time>1970-01-01T00:00:00Z</time>
      </trkpt>
      <trkpt lat="39.440220" lon="-5.315996">
        <ele>526.5</ele>
        <time>1970-01-01T00:00:00Z</time>
      </trkpt>
      <trkpt lat="39.440244" lon="-5.316072">
        <ele>526.0</ele>
        <time>1970-01-01T00:00:00Z</time>
      </trkpt>
      <trkpt lat="39.440244" lon="-5.316072">
        <ele>526.0</ele>
        <time>1970-01-01T00:00:00Z</time>
      </trkpt>
      <trkpt lat="39.440244" lon="-5.316072">
        <ele>526.0</ele>
        <time>1970-01-01T00:00:00Z</time>
      </trkpt>
      <trkpt lat="39.440244" lon="-5.316072">
        <ele>526.0</ele>
        <time>1970-01-01T00:00:00Z</time>
      </trkpt>
      <trkpt lat="39.440329" lon="-5.316124">
        <ele>525.2</ele>
        <time>1970-01-01T00:00:00Z</time>
      </trkpt>
      <trkpt lat="39.440329" lon="-5.316124">
        <ele>525.2</ele>
        <time>1970-01-01T00:00:00Z</time>
      </trkpt>
      <trkpt lat="39.440329" lon="-5.316124">
        <ele>525.2</ele>
        <time>1970-01-01T00:00:00Z</time>
      </trkpt>
      <trkpt lat="39.440329" lon="-5.316124">
        <ele>525.2</ele>
        <time>1970-01-01T00:00:00Z</time>
      </trkpt>
      <trkpt lat="39.440485" lon="-5.316232">
        <ele>523.9</ele>
        <time>1970-01-01T00:00:00Z</time>
      </trkpt>
      <trkpt lat="39.440485" lon="-5.316232">
        <ele>523.9</ele>
        <time>1970-01-01T00:00:00Z</time>
      </trkpt>
      <trkpt lat="39.440485" lon="-5.316232">
        <ele>523.9</ele>
        <time>1970-01-01T00:00:00Z</time>
      </trkpt>
      <trkpt lat="39.440485" lon="-5.316232">
        <ele>523.9</ele>
        <time>1970-01-01T00:00:00Z</time>
      </trkpt>
      <trkpt lat="39.440794" lon="-5.316469">
        <ele>523.1</ele>
        <time>1970-01-01T00:00:00Z</time>
      </trkpt>
      <trkpt lat="39.440794" lon="-5.316469">
        <ele>523.1</ele>
        <time>1970-01-01T00:00:00Z</time>
      </trkpt>
      <trkpt lat="39.440794" lon="-5.316469">
        <ele>523.1</ele>
        <time>1970-01-01T00:00:00Z</time>
      </trkpt>
      <trkpt lat="39.440794" lon="-5.316469">
        <ele>523.1</ele>
        <time>1970-01-01T00:00:00Z</time>
      </trkpt>
      <trkpt lat="39.440905" lon="-5.316576">
        <ele>524.0</ele>
        <time>1970-01-01T00:00:00Z</time>
      </trkpt>
      <trkpt lat="39.440905" lon="-5.316576">
        <ele>524.0</ele>
        <time>1970-01-01T00:00:00Z</time>
      </trkpt>
      <trkpt lat="39.440905" lon="-5.316576">
        <ele>524.0</ele>
        <time>1970-01-01T00:00:00Z</time>
      </trkpt>
      <trkpt lat="39.440905" lon="-5.316576">
        <ele>524.0</ele>
        <time>1970-01-01T00:00:00Z</time>
      </trkpt>
      <trkpt lat="39.441064" lon="-5.316693">
        <ele>525.4</ele>
        <time>1970-01-01T00:00:00Z</time>
      </trkpt>
      <trkpt lat="39.441064" lon="-5.316693">
        <ele>525.4</ele>
        <time>1970-01-01T00:00:00Z</time>
      </trkpt>
      <trkpt lat="39.441064" lon="-5.316693">
        <ele>525.4</ele>
        <time>1970-01-01T00:00:00Z</time>
      </trkpt>
      <trkpt lat="39.441064" lon="-5.316693">
        <ele>525.4</ele>
        <time>1970-01-01T00:00:00Z</time>
      </trkpt>
      <trkpt lat="39.441285" lon="-5.316824">
        <ele>526.5</ele>
        <time>1970-01-01T00:00:00Z</time>
      </trkpt>
      <trkpt lat="39.441285" lon="-5.316824">
        <ele>526.5</ele>
        <time>1970-01-01T00:00:00Z</time>
      </trkpt>
      <trkpt lat="39.441285" lon="-5.316824">
        <ele>526.5</ele>
        <time>1970-01-01T00:00:00Z</time>
      </trkpt>
      <trkpt lat="39.441285" lon="-5.316824">
        <ele>526.5</ele>
        <time>1970-01-01T00:00:00Z</time>
      </trkpt>
      <trkpt lat="39.441481" lon="-5.316889">
        <ele>527.0</ele>
        <time>1970-01-01T00:00:00Z</time>
      </trkpt>
      <trkpt lat="39.441481" lon="-5.316889">
        <ele>527.0</ele>
        <time>1970-01-01T00:00:00Z</time>
      </trkpt>
      <trkpt lat="39.441481" lon="-5.316889">
        <ele>527.0</ele>
        <time>1970-01-01T00:00:00Z</time>
      </trkpt>
      <trkpt lat="39.441481" lon="-5.316889">
        <ele>527.0</ele>
        <time>1970-01-01T00:00:00Z</time>
      </trkpt>
      <trkpt lat="39.441752" lon="-5.316969">
        <ele>527.0</ele>
        <time>1970-01-01T00:00:00Z</time>
      </trkpt>
      <trkpt lat="39.441752" lon="-5.316969">
        <ele>527.0</ele>
        <time>1970-01-01T00:00:00Z</time>
      </trkpt>
      <trkpt lat="39.441752" lon="-5.316969">
        <ele>527.0</ele>
        <time>1970-01-01T00:00:00Z</time>
      </trkpt>
      <trkpt lat="39.441752" lon="-5.316969">
        <ele>527.0</ele>
        <time>1970-01-01T00:00:00Z</time>
      </trkpt>
      <trkpt lat="39.441975" lon="-5.317045">
        <ele>527.9</ele>
        <time>1970-01-01T00:00:00Z</time>
      </trkpt>
      <trkpt lat="39.441975" lon="-5.317045">
        <ele>527.9</ele>
        <time>1970-01-01T00:00:00Z</time>
      </trkpt>
      <trkpt lat="39.441975" lon="-5.317045">
        <ele>527.9</ele>
        <time>1970-01-01T00:00:00Z</time>
      </trkpt>
      <trkpt lat="39.441975" lon="-5.317045">
        <ele>527.9</ele>
        <time>1970-01-01T00:00:00Z</time>
      </trkpt>
      <trkpt lat="39.442173" lon="-5.317113">
        <ele>528.3</ele>
        <time>1970-01-01T00:00:00Z</time>
      </trkpt>
      <trkpt lat="39.442173" lon="-5.317113">
        <ele>528.3</ele>
        <time>1970-01-01T00:00:00Z</time>
      </trkpt>
      <trkpt lat="39.442173" lon="-5.317113">
        <ele>528.3</ele>
        <time>1970-01-01T00:00:00Z</time>
      </trkpt>
      <trkpt lat="39.442173" lon="-5.317113">
        <ele>528.3</ele>
        <time>1970-01-01T00:00:00Z</time>
      </trkpt>
      <trkpt lat="39.442349" lon="-5.317164">
        <ele>528.6</ele>
        <time>1970-01-01T00:00:00Z</time>
      </trkpt>
      <trkpt lat="39.442349" lon="-5.317164">
        <ele>528.6</ele>
        <time>1970-01-01T00:00:00Z</time>
      </trkpt>
      <trkpt lat="39.442349" lon="-5.317164">
        <ele>528.6</ele>
        <time>1970-01-01T00:00:00Z</time>
      </trkpt>
      <trkpt lat="39.442349" lon="-5.317164">
        <ele>528.6</ele>
        <time>1970-01-01T00:00:00Z</time>
      </trkpt>
      <trkpt lat="39.442491" lon="-5.317205">
        <ele>528.9</ele>
        <time>1970-01-01T00:00:00Z</time>
      </trkpt>
      <trkpt lat="39.442491" lon="-5.317205">
        <ele>528.9</ele>
        <time>1970-01-01T00:00:00Z</time>
      </trkpt>
      <trkpt lat="39.442491" lon="-5.317205">
        <ele>528.9</ele>
        <time>1970-01-01T00:00:00Z</time>
      </trkpt>
      <trkpt lat="39.442491" lon="-5.317205">
        <ele>528.9</ele>
        <time>1970-01-01T00:00:00Z</time>
      </trkpt>
      <trkpt lat="39.442550" lon="-5.317184">
        <ele>528.8</ele>
        <time>1970-01-01T00:00:00Z</time>
      </trkpt>
      <trkpt lat="39.442550" lon="-5.317184">
        <ele>528.8</ele>
        <time>1970-01-01T00:00:00Z</time>
      </trkpt>
      <trkpt lat="39.442550" lon="-5.317184">
        <ele>528.8</ele>
        <time>1970-01-01T00:00:00Z</time>
      </trkpt>
      <trkpt lat="39.442550" lon="-5.317184">
        <ele>528.8</ele>
        <time>1970-01-01T00:00:00Z</time>
      </trkpt>
      <trkpt lat="39.442586" lon="-5.317079">
        <ele>527.8</ele>
        <time>1970-01-01T00:00:00Z</time>
      </trkpt>
      <trkpt lat="39.442586" lon="-5.317079">
        <ele>527.8</ele>
        <time>1970-01-01T00:00:00Z</time>
      </trkpt>
      <trkpt lat="39.442586" lon="-5.317079">
        <ele>527.8</ele>
        <time>1970-01-01T00:00:00Z</time>
      </trkpt>
      <trkpt lat="39.442586" lon="-5.317079">
        <ele>527.8</ele>
        <time>1970-01-01T00:00:00Z</time>
      </trkpt>
      <trkpt lat="39.442622" lon="-5.317067">
        <ele>527.7</ele>
        <time>1970-01-01T00:00:00Z</time>
      </trkpt>
      <trkpt lat="39.442622" lon="-5.317067">
        <ele>527.7</ele>
        <time>1970-01-01T00:00:00Z</time>
      </trkpt>
      <trkpt lat="39.442622" lon="-5.317067">
        <ele>527.7</ele>
        <time>1970-01-01T00:00:00Z</time>
      </trkpt>
      <trkpt lat="39.442622" lon="-5.317067">
        <ele>527.7</ele>
        <time>1970-01-01T00:00:00Z</time>
      </trkpt>
      <trkpt lat="39.442717" lon="-5.317112">
        <ele>528.2</ele>
        <time>1970-01-01T00:00:00Z</time>
      </trkpt>
      <trkpt lat="39.442717" lon="-5.317112">
        <ele>528.2</ele>
        <time>1970-01-01T00:00:00Z</time>
      </trkpt>
      <trkpt lat="39.442717" lon="-5.317112">
        <ele>528.2</ele>
        <time>1970-01-01T00:00:00Z</time>
      </trkpt>
      <trkpt lat="39.442717" lon="-5.317112">
        <ele>528.2</ele>
        <time>1970-01-01T00:00:00Z</time>
      </trkpt>
      <trkpt lat="39.442817" lon="-5.317179">
        <ele>529.2</ele>
        <time>1970-01-01T00:00:00Z</time>
      </trkpt>
      <trkpt lat="39.442817" lon="-5.317179">
        <ele>529.2</ele>
        <time>1970-01-01T00:00:00Z</time>
      </trkpt>
      <trkpt lat="39.442817" lon="-5.317179">
        <ele>529.2</ele>
        <time>1970-01-01T00:00:00Z</time>
      </trkpt>
      <trkpt lat="39.442817" lon="-5.317179">
        <ele>529.2</ele>
        <time>1970-01-01T00:00:00Z</time>
      </trkpt>
      <trkpt lat="39.442907" lon="-5.317240">
        <ele>529.9</ele>
        <time>1970-01-01T00:00:00Z</time>
      </trkpt>
      <trkpt lat="39.442907" lon="-5.317240">
        <ele>529.9</ele>
        <time>1970-01-01T00:00:00Z</time>
      </trkpt>
      <trkpt lat="39.442907" lon="-5.317240">
        <ele>529.9</ele>
        <time>1970-01-01T00:00:00Z</time>
      </trkpt>
      <trkpt lat="39.442907" lon="-5.317240">
        <ele>529.9</ele>
        <time>1970-01-01T00:00:00Z</time>
      </trkpt>
      <trkpt lat="39.442979" lon="-5.317298">
        <ele>530.2</ele>
        <time>1970-01-01T00:00:00Z</time>
      </trkpt>
      <trkpt lat="39.442979" lon="-5.317298">
        <ele>530.2</ele>
        <time>1970-01-01T00:00:00Z</time>
      </trkpt>
      <trkpt lat="39.442979" lon="-5.317298">
        <ele>530.2</ele>
        <time>1970-01-01T00:00:00Z</time>
      </trkpt>
      <trkpt lat="39.442979" lon="-5.317298">
        <ele>530.2</ele>
        <time>1970-01-01T00:00:00Z</time>
      </trkpt>
      <trkpt lat="39.443064" lon="-5.317350">
        <ele>530.5</ele>
        <time>1970-01-01T00:00:00Z</time>
      </trkpt>
      <trkpt lat="39.443064" lon="-5.317350">
        <ele>530.5</ele>
        <time>1970-01-01T00:00:00Z</time>
      </trkpt>
      <trkpt lat="39.443064" lon="-5.317350">
        <ele>530.5</ele>
        <time>1970-01-01T00:00:00Z</time>
      </trkpt>
      <trkpt lat="39.443064" lon="-5.317350">
        <ele>530.5</ele>
        <time>1970-01-01T00:00:00Z</time>
      </trkpt>
      <trkpt lat="39.443121" lon="-5.317426">
        <ele>530.8</ele>
        <time>1970-01-01T00:00:00Z</time>
      </trkpt>
      <trkpt lat="39.443121" lon="-5.317426">
        <ele>530.8</ele>
        <time>1970-01-01T00:00:00Z</time>
      </trkpt>
      <trkpt lat="39.443121" lon="-5.317426">
        <ele>530.8</ele>
        <time>1970-01-01T00:00:00Z</time>
      </trkpt>
      <trkpt lat="39.443121" lon="-5.317426">
        <ele>530.8</ele>
        <time>1970-01-01T00:00:00Z</time>
      </trkpt>
      <trkpt lat="39.443212" lon="-5.317517">
        <ele>531.2</ele>
        <time>1970-01-01T00:00:00Z</time>
      </trkpt>
      <trkpt lat="39.443212" lon="-5.317517">
        <ele>531.2</ele>
        <time>1970-01-01T00:00:00Z</time>
      </trkpt>
      <trkpt lat="39.443212" lon="-5.317517">
        <ele>531.2</ele>
        <time>1970-01-01T00:00:00Z</time>
      </trkpt>
      <trkpt lat="39.443212" lon="-5.317517">
        <ele>531.2</ele>
        <time>1970-01-01T00:00:00Z</time>
      </trkpt>
      <trkpt lat="39.443282" lon="-5.317666">
        <ele>531.5</ele>
        <time>1970-01-01T00:00:00Z</time>
      </trkpt>
      <trkpt lat="39.443282" lon="-5.317666">
        <ele>531.5</ele>
        <time>1970-01-01T00:00:00Z</time>
      </trkpt>
      <trkpt lat="39.443282" lon="-5.317666">
        <ele>531.5</ele>
        <time>1970-01-01T00:00:00Z</time>
      </trkpt>
      <trkpt lat="39.443282" lon="-5.317666">
        <ele>531.5</ele>
        <time>1970-01-01T00:00:00Z</time>
      </trkpt>
      <trkpt lat="39.443389" lon="-5.317927">
        <ele>531.0</ele>
        <time>1970-01-01T00:00:00Z</time>
      </trkpt>
      <trkpt lat="39.443389" lon="-5.317927">
        <ele>531.0</ele>
        <time>1970-01-01T00:00:00Z</time>
      </trkpt>
      <trkpt lat="39.443389" lon="-5.317927">
        <ele>531.0</ele>
        <time>1970-01-01T00:00:00Z</time>
      </trkpt>
      <trkpt lat="39.443389" lon="-5.317927">
        <ele>531.0</ele>
        <time>1970-01-01T00:00:00Z</time>
      </trkpt>
      <trkpt lat="39.443531" lon="-5.318276">
        <ele>531.8</ele>
        <time>1970-01-01T00:00:00Z</time>
      </trkpt>
      <trkpt lat="39.443531" lon="-5.318276">
        <ele>531.8</ele>
        <time>1970-01-01T00:00:00Z</time>
      </trkpt>
      <trkpt lat="39.443531" lon="-5.318276">
        <ele>531.8</ele>
        <time>1970-01-01T00:00:00Z</time>
      </trkpt>
      <trkpt lat="39.443531" lon="-5.318276">
        <ele>531.8</ele>
        <time>1970-01-01T00:00:00Z</time>
      </trkpt>
      <trkpt lat="39.443588" lon="-5.318426">
        <ele>532.3</ele>
        <time>1970-01-01T00:00:00Z</time>
      </trkpt>
      <trkpt lat="39.443588" lon="-5.318426">
        <ele>532.3</ele>
        <time>1970-01-01T00:00:00Z</time>
      </trkpt>
      <trkpt lat="39.443588" lon="-5.318426">
        <ele>532.3</ele>
        <time>1970-01-01T00:00:00Z</time>
      </trkpt>
      <trkpt lat="39.443588" lon="-5.318426">
        <ele>532.3</ele>
        <time>1970-01-01T00:00:00Z</time>
      </trkpt>
      <trkpt lat="39.443585" lon="-5.318482">
        <ele>532.6</ele>
        <time>1970-01-01T00:00:00Z</time>
      </trkpt>
      <trkpt lat="39.443585" lon="-5.318482">
        <ele>532.6</ele>
        <time>1970-01-01T00:00:00Z</time>
      </trkpt>
      <trkpt lat="39.443585" lon="-5.318482">
        <ele>532.6</ele>
        <time>1970-01-01T00:00:00Z</time>
      </trkpt>
      <trkpt lat="39.443585" lon="-5.318482">
        <ele>532.6</ele>
        <time>1970-01-01T00:00:00Z</time>
      </trkpt>
      <trkpt lat="39.443583" lon="-5.318573">
        <ele>533.1</ele>
        <time>1970-01-01T00:00:00Z</time>
      </trkpt>
      <trkpt lat="39.443583" lon="-5.318573">
        <ele>533.1</ele>
        <time>1970-01-01T00:00:00Z</time>
      </trkpt>
      <trkpt lat="39.443583" lon="-5.318573">
        <ele>533.1</ele>
        <time>1970-01-01T00:00:00Z</time>
      </trkpt>
      <trkpt lat="39.443583" lon="-5.318573">
        <ele>533.1</ele>
        <time>1970-01-01T00:00:00Z</time>
      </trkpt>
      <trkpt lat="39.443569" lon="-5.318655">
        <ele>533.5</ele>
        <time>1970-01-01T00:00:00Z</time>
      </trkpt>
      <trkpt lat="39.443569" lon="-5.318655">
        <ele>533.5</ele>
        <time>1970-01-01T00:00:00Z</time>
      </trkpt>
      <trkpt lat="39.443569" lon="-5.318655">
        <ele>533.5</ele>
        <time>1970-01-01T00:00:00Z</time>
      </trkpt>
      <trkpt lat="39.443569" lon="-5.318655">
        <ele>533.5</ele>
        <time>1970-01-01T00:00:00Z</time>
      </trkpt>
      <trkpt lat="39.443543" lon="-5.318683">
        <ele>533.8</ele>
        <time>1970-01-01T00:00:00Z</time>
      </trkpt>
      <trkpt lat="39.443543" lon="-5.318683">
        <ele>533.8</ele>
        <time>1970-01-01T00:00:00Z</time>
      </trkpt>
      <trkpt lat="39.443543" lon="-5.318683">
        <ele>533.8</ele>
        <time>1970-01-01T00:00:00Z</time>
      </trkpt>
      <trkpt lat="39.443543" lon="-5.318683">
        <ele>533.8</ele>
        <time>1970-01-01T00:00:00Z</time>
      </trkpt>
      <trkpt lat="39.443495" lon="-5.318709">
        <ele>534.1</ele>
        <time>1970-01-01T00:00:00Z</time>
      </trkpt>
      <trkpt lat="39.443495" lon="-5.318709">
        <ele>534.1</ele>
        <time>1970-01-01T00:00:00Z</time>
      </trkpt>
      <trkpt lat="39.443495" lon="-5.318709">
        <ele>534.1</ele>
        <time>1970-01-01T00:00:00Z</time>
      </trkpt>
      <trkpt lat="39.443495" lon="-5.318709">
        <ele>534.1</ele>
        <time>1970-01-01T00:00:00Z</time>
      </trkpt>
      <trkpt lat="39.443555" lon="-5.318894">
        <ele>534.4</ele>
        <time>1970-01-01T00:00:00Z</time>
      </trkpt>
      <trkpt lat="39.443555" lon="-5.318894">
        <ele>534.4</ele>
        <time>1970-01-01T00:00:00Z</time>
      </trkpt>
      <trkpt lat="39.443555" lon="-5.318894">
        <ele>534.4</ele>
        <time>1970-01-01T00:00:00Z</time>
      </trkpt>
      <trkpt lat="39.443555" lon="-5.318894">
        <ele>534.4</ele>
        <time>1970-01-01T00:00:00Z</time>
      </trkpt>
      <trkpt lat="39.443602" lon="-5.319022">
        <ele>534.3</ele>
        <time>1970-01-01T00:00:00Z</time>
      </trkpt>
      <trkpt lat="39.443602" lon="-5.319022">
        <ele>534.3</ele>
        <time>1970-01-01T00:00:00Z</time>
      </trkpt>
      <trkpt lat="39.443602" lon="-5.319022">
        <ele>534.3</ele>
        <time>1970-01-01T00:00:00Z</time>
      </trkpt>
      <trkpt lat="39.443602" lon="-5.319022">
        <ele>534.3</ele>
        <time>1970-01-01T00:00:00Z</time>
      </trkpt>
      <trkpt lat="39.443637" lon="-5.319107">
        <ele>534.2</ele>
        <time>1970-01-01T00:00:00Z</time>
      </trkpt>
      <trkpt lat="39.443637" lon="-5.319107">
        <ele>534.2</ele>
        <time>1970-01-01T00:00:00Z</time>
      </trkpt>
      <trkpt lat="39.443637" lon="-5.319107">
        <ele>534.2</ele>
        <time>1970-01-01T00:00:00Z</time>
      </trkpt>
      <trkpt lat="39.443637" lon="-5.319107">
        <ele>534.2</ele>
        <time>1970-01-01T00:00:00Z</time>
      </trkpt>
      <trkpt lat="39.443683" lon="-5.319201">
        <ele>534.6</ele>
        <time>1970-01-01T00:00:00Z</time>
      </trkpt>
      <trkpt lat="39.443683" lon="-5.319201">
        <ele>534.6</ele>
        <time>1970-01-01T00:00:00Z</time>
      </trkpt>
      <trkpt lat="39.443683" lon="-5.319201">
        <ele>534.6</ele>
        <time>1970-01-01T00:00:00Z</time>
      </trkpt>
      <trkpt lat="39.443683" lon="-5.319201">
        <ele>534.6</ele>
        <time>1970-01-01T00:00:00Z</time>
      </trkpt>
      <trkpt lat="39.443730" lon="-5.319280">
        <ele>534.9</ele>
        <time>1970-01-01T00:00:00Z</time>
      </trkpt>
      <trkpt lat="39.443730" lon="-5.319280">
        <ele>534.9</ele>
        <time>1970-01-01T00:00:00Z</time>
      </trkpt>
      <trkpt lat="39.443730" lon="-5.319280">
        <ele>534.9</ele>
        <time>1970-01-01T00:00:00Z</time>
      </trkpt>
      <trkpt lat="39.443730" lon="-5.319280">
        <ele>534.9</ele>
        <time>1970-01-01T00:00:00Z</time>
      </trkpt>
      <trkpt lat="39.443818" lon="-5.319473">
        <ele>535.3</ele>
        <time>1970-01-01T00:00:00Z</time>
      </trkpt>
      <trkpt lat="39.443818" lon="-5.319473">
        <ele>535.3</ele>
        <time>1970-01-01T00:00:00Z</time>
      </trkpt>
      <trkpt lat="39.443818" lon="-5.319473">
        <ele>535.3</ele>
        <time>1970-01-01T00:00:00Z</time>
      </trkpt>
      <trkpt lat="39.443818" lon="-5.319473">
        <ele>535.3</ele>
        <time>1970-01-01T00:00:00Z</time>
      </trkpt>
      <trkpt lat="39.443850" lon="-5.319588">
        <ele>535.4</ele>
        <time>1970-01-01T00:00:00Z</time>
      </trkpt>
      <trkpt lat="39.443850" lon="-5.319588">
        <ele>535.4</ele>
        <time>1970-01-01T00:00:00Z</time>
      </trkpt>
      <trkpt lat="39.443850" lon="-5.319588">
        <ele>535.4</ele>
        <time>1970-01-01T00:00:00Z</time>
      </trkpt>
      <trkpt lat="39.443850" lon="-5.319588">
        <ele>535.4</ele>
        <time>1970-01-01T00:00:00Z</time>
      </trkpt>
      <trkpt lat="39.443905" lon="-5.319761">
        <ele>536.0</ele>
        <time>1970-01-01T00:00:00Z</time>
      </trkpt>
      <trkpt lat="39.443905" lon="-5.319761">
        <ele>536.0</ele>
        <time>1970-01-01T00:00:00Z</time>
      </trkpt>
      <trkpt lat="39.443905" lon="-5.319761">
        <ele>536.0</ele>
        <time>1970-01-01T00:00:00Z</time>
      </trkpt>
      <trkpt lat="39.443905" lon="-5.319761">
        <ele>536.0</ele>
        <time>1970-01-01T00:00:00Z</time>
      </trkpt>
      <trkpt lat="39.443968" lon="-5.319991">
        <ele>538.0</ele>
        <time>1970-01-01T00:00:00Z</time>
      </trkpt>
      <trkpt lat="39.443968" lon="-5.319991">
        <ele>538.0</ele>
        <time>1970-01-01T00:00:00Z</time>
      </trkpt>
      <trkpt lat="39.443968" lon="-5.319991">
        <ele>538.0</ele>
        <time>1970-01-01T00:00:00Z</time>
      </trkpt>
      <trkpt lat="39.443968" lon="-5.319991">
        <ele>538.0</ele>
        <time>1970-01-01T00:00:00Z</time>
      </trkpt>
      <trkpt lat="39.444071" lon="-5.320324">
        <ele>539.3</ele>
        <time>1970-01-01T00:00:00Z</time>
      </trkpt>
      <trkpt lat="39.444071" lon="-5.320324">
        <ele>539.3</ele>
        <time>1970-01-01T00:00:00Z</time>
      </trkpt>
      <trkpt lat="39.444071" lon="-5.320324">
        <ele>539.3</ele>
        <time>1970-01-01T00:00:00Z</time>
      </trkpt>
      <trkpt lat="39.444071" lon="-5.320324">
        <ele>539.3</ele>
        <time>1970-01-01T00:00:00Z</time>
      </trkpt>
      <trkpt lat="39.444144" lon="-5.320522">
        <ele>540.3</ele>
        <time>1970-01-01T00:00:00Z</time>
      </trkpt>
      <trkpt lat="39.444144" lon="-5.320522">
        <ele>540.3</ele>
        <time>1970-01-01T00:00:00Z</time>
      </trkpt>
      <trkpt lat="39.444144" lon="-5.320522">
        <ele>540.3</ele>
        <time>1970-01-01T00:00:00Z</time>
      </trkpt>
      <trkpt lat="39.444144" lon="-5.320522">
        <ele>540.3</ele>
        <time>1970-01-01T00:00:00Z</time>
      </trkpt>
      <trkpt lat="39.444230" lon="-5.320736">
        <ele>541.4</ele>
        <time>1970-01-01T00:00:00Z</time>
      </trkpt>
      <trkpt lat="39.444230" lon="-5.320736">
        <ele>541.4</ele>
        <time>1970-01-01T00:00:00Z</time>
      </trkpt>
      <trkpt lat="39.444230" lon="-5.320736">
        <ele>541.4</ele>
        <time>1970-01-01T00:00:00Z</time>
      </trkpt>
      <trkpt lat="39.444230" lon="-5.320736">
        <ele>541.4</ele>
        <time>1970-01-01T00:00:00Z</time>
      </trkpt>
      <trkpt lat="39.444311" lon="-5.320876">
        <ele>541.9</ele>
        <time>1970-01-01T00:00:00Z</time>
      </trkpt>
      <trkpt lat="39.444311" lon="-5.320876">
        <ele>541.9</ele>
        <time>1970-01-01T00:00:00Z</time>
      </trkpt>
      <trkpt lat="39.444311" lon="-5.320876">
        <ele>541.9</ele>
        <time>1970-01-01T00:00:00Z</time>
      </trkpt>
      <trkpt lat="39.444311" lon="-5.320876">
        <ele>541.9</ele>
        <time>1970-01-01T00:00:00Z</time>
      </trkpt>
      <trkpt lat="39.444371" lon="-5.320969">
        <ele>542.1</ele>
        <time>1970-01-01T00:00:00Z</time>
      </trkpt>
      <trkpt lat="39.444371" lon="-5.320969">
        <ele>542.1</ele>
        <time>1970-01-01T00:00:00Z</time>
      </trkpt>
      <trkpt lat="39.444371" lon="-5.320969">
        <ele>542.1</ele>
        <time>1970-01-01T00:00:00Z</time>
      </trkpt>
      <trkpt lat="39.444371" lon="-5.320969">
        <ele>542.1</ele>
        <time>1970-01-01T00:00:00Z</time>
      </trkpt>
      <trkpt lat="39.444394" lon="-5.321019">
        <ele>542.2</ele>
        <time>1970-01-01T00:00:00Z</time>
      </trkpt>
      <trkpt lat="39.444394" lon="-5.321019">
        <ele>542.2</ele>
        <time>1970-01-01T00:00:00Z</time>
      </trkpt>
      <trkpt lat="39.444394" lon="-5.321019">
        <ele>542.2</ele>
        <time>1970-01-01T00:00:00Z</time>
      </trkpt>
      <trkpt lat="39.444394" lon="-5.321019">
        <ele>542.2</ele>
        <time>1970-01-01T00:00:00Z</time>
      </trkpt>
      <trkpt lat="39.444482" lon="-5.321145">
        <ele>542.0</ele>
        <time>1970-01-01T00:00:00Z</time>
      </trkpt>
      <trkpt lat="39.444482" lon="-5.321145">
        <ele>542.0</ele>
        <time>1970-01-01T00:00:00Z</time>
      </trkpt>
      <trkpt lat="39.444482" lon="-5.321145">
        <ele>542.0</ele>
        <time>1970-01-01T00:00:00Z</time>
      </trkpt>
      <trkpt lat="39.444482" lon="-5.321145">
        <ele>542.0</ele>
        <time>1970-01-01T00:00:00Z</time>
      </trkpt>
      <trkpt lat="39.444530" lon="-5.321186">
        <ele>541.8</ele>
        <time>1970-01-01T00:00:00Z</time>
      </trkpt>
      <trkpt lat="39.444530" lon="-5.321186">
        <ele>541.8</ele>
        <time>1970-01-01T00:00:00Z</time>
      </trkpt>
      <trkpt lat="39.444530" lon="-5.321186">
        <ele>541.8</ele>
        <time>1970-01-01T00:00:00Z</time>
      </trkpt>
      <trkpt lat="39.444530" lon="-5.321186">
        <ele>541.8</ele>
        <time>1970-01-01T00:00:00Z</time>
      </trkpt>
      <trkpt lat="39.444578" lon="-5.321188">
        <ele>541.4</ele>
        <time>1970-01-01T00:00:00Z</time>
      </trkpt>
      <trkpt lat="39.444578" lon="-5.321188">
        <ele>541.4</ele>
        <time>1970-01-01T00:00:00Z</time>
      </trkpt>
      <trkpt lat="39.444578" lon="-5.321188">
        <ele>541.4</ele>
        <time>1970-01-01T00:00:00Z</time>
      </trkpt>
      <trkpt lat="39.444578" lon="-5.321188">
        <ele>541.4</ele>
        <time>1970-01-01T00:00:00Z</time>
      </trkpt>
      <trkpt lat="39.444606" lon="-5.321222">
        <ele>541.8</ele>
        <time>1970-01-01T00:00:00Z</time>
      </trkpt>
      <trkpt lat="39.444606" lon="-5.321222">
        <ele>541.8</ele>
        <time>1970-01-01T00:00:00Z</time>
      </trkpt>
      <trkpt lat="39.444606" lon="-5.321222">
        <ele>541.8</ele>
        <time>1970-01-01T00:00:00Z</time>
      </trkpt>
      <trkpt lat="39.444606" lon="-5.321222">
        <ele>541.8</ele>
        <time>1970-01-01T00:00:00Z</time>
      </trkpt>
      <trkpt lat="39.444695" lon="-5.321369">
        <ele>542.9</ele>
        <time>1970-01-01T00:00:00Z</time>
      </trkpt>
      <trkpt lat="39.444695" lon="-5.321369">
        <ele>542.9</ele>
        <time>1970-01-01T00:00:00Z</time>
      </trkpt>
      <trkpt lat="39.444695" lon="-5.321369">
        <ele>542.9</ele>
        <time>1970-01-01T00:00:00Z</time>
      </trkpt>
      <trkpt lat="39.444695" lon="-5.321369">
        <ele>542.9</ele>
        <time>1970-01-01T00:00:00Z</time>
      </trkpt>
      <trkpt lat="39.444847" lon="-5.321538">
        <ele>545.4</ele>
        <time>1970-01-01T00:00:00Z</time>
      </trkpt>
      <trkpt lat="39.444847" lon="-5.321538">
        <ele>545.4</ele>
        <time>1970-01-01T00:00:00Z</time>
      </trkpt>
      <trkpt lat="39.444847" lon="-5.321538">
        <ele>545.4</ele>
        <time>1970-01-01T00:00:00Z</time>
      </trkpt>
      <trkpt lat="39.444847" lon="-5.321538">
        <ele>545.4</ele>
        <time>1970-01-01T00:00:00Z</time>
      </trkpt>
      <trkpt lat="39.444993" lon="-5.321737">
        <ele>548.6</ele>
        <time>1970-01-01T00:00:00Z</time>
      </trkpt>
      <trkpt lat="39.444993" lon="-5.321737">
        <ele>548.6</ele>
        <time>1970-01-01T00:00:00Z</time>
      </trkpt>
      <trkpt lat="39.444993" lon="-5.321737">
        <ele>548.6</ele>
        <time>1970-01-01T00:00:00Z</time>
      </trkpt>
      <trkpt lat="39.444993" lon="-5.321737">
        <ele>548.6</ele>
        <time>1970-01-01T00:00:00Z</time>
      </trkpt>
      <trkpt lat="39.445169" lon="-5.321986">
        <ele>551.5</ele>
        <time>1970-01-01T00:00:00Z</time>
      </trkpt>
      <trkpt lat="39.445169" lon="-5.321986">
        <ele>551.5</ele>
        <time>1970-01-01T00:00:00Z</time>
      </trkpt>
      <trkpt lat="39.445169" lon="-5.321986">
        <ele>551.5</ele>
        <time>1970-01-01T00:00:00Z</time>
      </trkpt>
      <trkpt lat="39.445169" lon="-5.321986">
        <ele>551.5</ele>
        <time>1970-01-01T00:00:00Z</time>
      </trkpt>
      <trkpt lat="39.445351" lon="-5.322261">
        <ele>551.6</ele>
        <time>1970-01-01T00:00:00Z</time>
      </trkpt>
      <trkpt lat="39.445351" lon="-5.322261">
        <ele>551.6</ele>
        <time>1970-01-01T00:00:00Z</time>
      </trkpt>
      <trkpt lat="39.445351" lon="-5.322261">
        <ele>551.6</ele>
        <time>1970-01-01T00:00:00Z</time>
      </trkpt>
      <trkpt lat="39.445351" lon="-5.322261">
        <ele>551.6</ele>
        <time>1970-01-01T00:00:00Z</time>
      </trkpt>
      <trkpt lat="39.445504" lon="-5.322520">
        <ele>550.9</ele>
        <time>1970-01-01T00:00:00Z</time>
      </trkpt>
      <trkpt lat="39.445504" lon="-5.322520">
        <ele>550.9</ele>
        <time>1970-01-01T00:00:00Z</time>
      </trkpt>
      <trkpt lat="39.445504" lon="-5.322520">
        <ele>550.9</ele>
        <time>1970-01-01T00:00:00Z</time>
      </trkpt>
      <trkpt lat="39.445504" lon="-5.322520">
        <ele>550.9</ele>
        <time>1970-01-01T00:00:00Z</time>
      </trkpt>
      <trkpt lat="39.445725" lon="-5.322914">
        <ele>549.0</ele>
        <time>1970-01-01T00:00:00Z</time>
      </trkpt>
      <trkpt lat="39.445725" lon="-5.322914">
        <ele>549.0</ele>
        <time>1970-01-01T00:00:00Z</time>
      </trkpt>
      <trkpt lat="39.445725" lon="-5.322914">
        <ele>549.0</ele>
        <time>1970-01-01T00:00:00Z</time>
      </trkpt>
      <trkpt lat="39.445725" lon="-5.322914">
        <ele>549.0</ele>
        <time>1970-01-01T00:00:00Z</time>
      </trkpt>
      <trkpt lat="39.445828" lon="-5.323115">
        <ele>547.8</ele>
        <time>1970-01-01T00:00:00Z</time>
      </trkpt>
      <trkpt lat="39.445828" lon="-5.323115">
        <ele>547.8</ele>
        <time>1970-01-01T00:00:00Z</time>
      </trkpt>
      <trkpt lat="39.445828" lon="-5.323115">
        <ele>547.8</ele>
        <time>1970-01-01T00:00:00Z</time>
      </trkpt>
      <trkpt lat="39.445828" lon="-5.323115">
        <ele>547.8</ele>
        <time>1970-01-01T00:00:00Z</time>
      </trkpt>
      <trkpt lat="39.445885" lon="-5.323226">
        <ele>546.9</ele>
        <time>1970-01-01T00:00:00Z</time>
      </trkpt>
      <trkpt lat="39.445885" lon="-5.323226">
        <ele>546.9</ele>
        <time>1970-01-01T00:00:00Z</time>
      </trkpt>
      <trkpt lat="39.445885" lon="-5.323226">
        <ele>546.9</ele>
        <time>1970-01-01T00:00:00Z</time>
      </trkpt>
      <trkpt lat="39.445885" lon="-5.323226">
        <ele>546.9</ele>
        <time>1970-01-01T00:00:00Z</time>
      </trkpt>
      <trkpt lat="39.445977" lon="-5.323415">
        <ele>545.1</ele>
        <time>1970-01-01T00:00:00Z</time>
      </trkpt>
      <trkpt lat="39.445977" lon="-5.323415">
        <ele>545.1</ele>
        <time>1970-01-01T00:00:00Z</time>
      </trkpt>
      <trkpt lat="39.445977" lon="-5.323415">
        <ele>545.1</ele>
        <time>1970-01-01T00:00:00Z</time>
      </trkpt>
      <trkpt lat="39.445977" lon="-5.323415">
        <ele>545.1</ele>
        <time>1970-01-01T00:00:00Z</time>
      </trkpt>
      <trkpt lat="39.446090" lon="-5.323600">
        <ele>543.4</ele>
        <time>1970-01-01T00:00:00Z</time>
      </trkpt>
      <trkpt lat="39.446090" lon="-5.323600">
        <ele>543.4</ele>
        <time>1970-01-01T00:00:00Z</time>
      </trkpt>
      <trkpt lat="39.446090" lon="-5.323600">
        <ele>543.4</ele>
        <time>1970-01-01T00:00:00Z</time>
      </trkpt>
      <trkpt lat="39.446090" lon="-5.323600">
        <ele>543.4</ele>
        <time>1970-01-01T00:00:00Z</time>
      </trkpt>
      <trkpt lat="39.446213" lon="-5.323843">
        <ele>542.4</ele>
        <time>1970-01-01T00:00:00Z</time>
      </trkpt>
      <trkpt lat="39.446213" lon="-5.323843">
        <ele>542.4</ele>
        <time>1970-01-01T00:00:00Z</time>
      </trkpt>
      <trkpt lat="39.446213" lon="-5.323843">
        <ele>542.4</ele>
        <time>1970-01-01T00:00:00Z</time>
      </trkpt>
      <trkpt lat="39.446213" lon="-5.323843">
        <ele>542.4</ele>
        <time>1970-01-01T00:00:00Z</time>
      </trkpt>
      <trkpt lat="39.446307" lon="-5.324049">
        <ele>542.5</ele>
        <time>1970-01-01T00:00:00Z</time>
      </trkpt>
      <trkpt lat="39.446307" lon="-5.324049">
        <ele>542.5</ele>
        <time>1970-01-01T00:00:00Z</time>
      </trkpt>
      <trkpt lat="39.446307" lon="-5.324049">
        <ele>542.5</ele>
        <time>1970-01-01T00:00:00Z</time>
      </trkpt>
      <trkpt lat="39.446307" lon="-5.324049">
        <ele>542.5</ele>
        <time>1970-01-01T00:00:00Z</time>
      </trkpt>
      <trkpt lat="39.446356" lon="-5.324159">
        <ele>542.5</ele>
        <time>1970-01-01T00:00:00Z</time>
      </trkpt>
      <trkpt lat="39.446356" lon="-5.324159">
        <ele>542.5</ele>
        <time>1970-01-01T00:00:00Z</time>
      </trkpt>
      <trkpt lat="39.446356" lon="-5.324159">
        <ele>542.5</ele>
        <time>1970-01-01T00:00:00Z</time>
      </trkpt>
      <trkpt lat="39.446356" lon="-5.324159">
        <ele>542.5</ele>
        <time>1970-01-01T00:00:00Z</time>
      </trkpt>
      <trkpt lat="39.446356" lon="-5.324278">
        <ele>542.4</ele>
        <time>1970-01-01T00:00:00Z</time>
      </trkpt>
      <trkpt lat="39.446356" lon="-5.324278">
        <ele>542.4</ele>
        <time>1970-01-01T00:00:00Z</time>
      </trkpt>
      <trkpt lat="39.446356" lon="-5.324278">
        <ele>542.4</ele>
        <time>1970-01-01T00:00:00Z</time>
      </trkpt>
      <trkpt lat="39.446356" lon="-5.324278">
        <ele>542.4</ele>
        <time>1970-01-01T00:00:00Z</time>
      </trkpt>
      <trkpt lat="39.446365" lon="-5.324403">
        <ele>542.4</ele>
        <time>1970-01-01T00:00:00Z</time>
      </trkpt>
      <trkpt lat="39.446365" lon="-5.324403">
        <ele>542.4</ele>
        <time>1970-01-01T00:00:00Z</time>
      </trkpt>
      <trkpt lat="39.446365" lon="-5.324403">
        <ele>542.4</ele>
        <time>1970-01-01T00:00:00Z</time>
      </trkpt>
      <trkpt lat="39.446365" lon="-5.324403">
        <ele>542.4</ele>
        <time>1970-01-01T00:00:00Z</time>
      </trkpt>
      <trkpt lat="39.446370" lon="-5.324513">
        <ele>542.9</ele>
        <time>1970-01-01T00:00:00Z</time>
      </trkpt>
      <trkpt lat="39.446370" lon="-5.324513">
        <ele>542.9</ele>
        <time>1970-01-01T00:00:00Z</time>
      </trkpt>
      <trkpt lat="39.446370" lon="-5.324513">
        <ele>542.9</ele>
        <time>1970-01-01T00:00:00Z</time>
      </trkpt>
      <trkpt lat="39.446370" lon="-5.324513">
        <ele>542.9</ele>
        <time>1970-01-01T00:00:00Z</time>
      </trkpt>
      <trkpt lat="39.446350" lon="-5.324608">
        <ele>542.8</ele>
        <time>1970-01-01T00:00:00Z</time>
      </trkpt>
      <trkpt lat="39.446350" lon="-5.324608">
        <ele>542.8</ele>
        <time>1970-01-01T00:00:00Z</time>
      </trkpt>
      <trkpt lat="39.446350" lon="-5.324608">
        <ele>542.8</ele>
        <time>1970-01-01T00:00:00Z</time>
      </trkpt>
      <trkpt lat="39.446350" lon="-5.324608">
        <ele>542.8</ele>
        <time>1970-01-01T00:00:00Z</time>
      </trkpt>
      <trkpt lat="39.446338" lon="-5.324783">
        <ele>542.7</ele>
        <time>1970-01-01T00:00:00Z</time>
      </trkpt>
      <trkpt lat="39.446338" lon="-5.324783">
        <ele>542.7</ele>
        <time>1970-01-01T00:00:00Z</time>
      </trkpt>
      <trkpt lat="39.446338" lon="-5.324783">
        <ele>542.7</ele>
        <time>1970-01-01T00:00:00Z</time>
      </trkpt>
      <trkpt lat="39.446338" lon="-5.324783">
        <ele>542.7</ele>
        <time>1970-01-01T00:00:00Z</time>
      </trkpt>
      <trkpt lat="39.446325" lon="-5.324842">
        <ele>542.5</ele>
        <time>1970-01-01T00:00:00Z</time>
      </trkpt>
      <trkpt lat="39.446325" lon="-5.324842">
        <ele>542.5</ele>
        <time>1970-01-01T00:00:00Z</time>
      </trkpt>
      <trkpt lat="39.446325" lon="-5.324842">
        <ele>542.5</ele>
        <time>1970-01-01T00:00:00Z</time>
      </trkpt>
      <trkpt lat="39.446325" lon="-5.324842">
        <ele>542.5</ele>
        <time>1970-01-01T00:00:00Z</time>
      </trkpt>
      <trkpt lat="39.446260" lon="-5.324860">
        <ele>541.4</ele>
        <time>1970-01-01T00:00:00Z</time>
      </trkpt>
      <trkpt lat="39.446260" lon="-5.324860">
        <ele>541.4</ele>
        <time>1970-01-01T00:00:00Z</time>
      </trkpt>
      <trkpt lat="39.446260" lon="-5.324860">
        <ele>541.4</ele>
        <time>1970-01-01T00:00:00Z</time>
      </trkpt>
      <trkpt lat="39.446260" lon="-5.324860">
        <ele>541.4</ele>
        <time>1970-01-01T00:00:00Z</time>
      </trkpt>
      <trkpt lat="39.446178" lon="-5.324842">
        <ele>540.0</ele>
        <time>1970-01-01T00:00:00Z</time>
      </trkpt>
      <trkpt lat="39.446178" lon="-5.324842">
        <ele>540.0</ele>
        <time>1970-01-01T00:00:00Z</time>
      </trkpt>
      <trkpt lat="39.446178" lon="-5.324842">
        <ele>540.0</ele>
        <time>1970-01-01T00:00:00Z</time>
      </trkpt>
      <trkpt lat="39.446178" lon="-5.324842">
        <ele>540.0</ele>
        <time>1970-01-01T00:00:00Z</time>
      </trkpt>
      <trkpt lat="39.446126" lon="-5.324866">
        <ele>540.0</ele>
        <time>1970-01-01T00:00:00Z</time>
      </trkpt>
      <trkpt lat="39.446126" lon="-5.324866">
        <ele>540.0</ele>
        <time>1970-01-01T00:00:00Z</time>
      </trkpt>
      <trkpt lat="39.446126" lon="-5.324866">
        <ele>540.0</ele>
        <time>1970-01-01T00:00:00Z</time>
      </trkpt>
      <trkpt lat="39.446126" lon="-5.324866">
        <ele>540.0</ele>
        <time>1970-01-01T00:00:00Z</time>
      </trkpt>
      <trkpt lat="39.446068" lon="-5.324905">
        <ele>540.0</ele>
        <time>1970-01-01T00:00:00Z</time>
      </trkpt>
      <trkpt lat="39.446068" lon="-5.324905">
        <ele>540.0</ele>
        <time>1970-01-01T00:00:00Z</time>
      </trkpt>
      <trkpt lat="39.446068" lon="-5.324905">
        <ele>540.0</ele>
        <time>1970-01-01T00:00:00Z</time>
      </trkpt>
      <trkpt lat="39.446068" lon="-5.324905">
        <ele>540.0</ele>
        <time>1970-01-01T00:00:00Z</time>
      </trkpt>
      <trkpt lat="39.446002" lon="-5.324908">
        <ele>539.9</ele>
        <time>1970-01-01T00:00:00Z</time>
      </trkpt>
      <trkpt lat="39.446002" lon="-5.324908">
        <ele>539.9</ele>
        <time>1970-01-01T00:00:00Z</time>
      </trkpt>
      <trkpt lat="39.446002" lon="-5.324908">
        <ele>539.9</ele>
        <time>1970-01-01T00:00:00Z</time>
      </trkpt>
      <trkpt lat="39.446002" lon="-5.324908">
        <ele>539.9</ele>
        <time>1970-01-01T00:00:00Z</time>
      </trkpt>
      <trkpt lat="39.445919" lon="-5.324908">
        <ele>540.0</ele>
        <time>1970-01-01T00:00:00Z</time>
      </trkpt>
      <trkpt lat="39.445919" lon="-5.324908">
        <ele>540.0</ele>
        <time>1970-01-01T00:00:00Z</time>
      </trkpt>
      <trkpt lat="39.445919" lon="-5.324908">
        <ele>540.0</ele>
        <time>1970-01-01T00:00:00Z</time>
      </trkpt>
      <trkpt lat="39.445919" lon="-5.324908">
        <ele>540.0</ele>
        <time>1970-01-01T00:00:00Z</time>
      </trkpt>
      <trkpt lat="39.445864" lon="-5.324926">
        <ele>540.4</ele>
        <time>1970-01-01T00:00:00Z</time>
      </trkpt>
      <trkpt lat="39.445864" lon="-5.324926">
        <ele>540.4</ele>
        <time>1970-01-01T00:00:00Z</time>
      </trkpt>
      <trkpt lat="39.445864" lon="-5.324926">
        <ele>540.4</ele>
        <time>1970-01-01T00:00:00Z</time>
      </trkpt>
      <trkpt lat="39.445864" lon="-5.324926">
        <ele>540.4</ele>
        <time>1970-01-01T00:00:00Z</time>
      </trkpt>
      <trkpt lat="39.445794" lon="-5.324993">
        <ele>540.7</ele>
        <time>1970-01-01T00:00:00Z</time>
      </trkpt>
      <trkpt lat="39.445794" lon="-5.324993">
        <ele>540.7</ele>
        <time>1970-01-01T00:00:00Z</time>
      </trkpt>
      <trkpt lat="39.445794" lon="-5.324993">
        <ele>540.7</ele>
        <time>1970-01-01T00:00:00Z</time>
      </trkpt>
      <trkpt lat="39.445794" lon="-5.324993">
        <ele>540.7</ele>
        <time>1970-01-01T00:00:00Z</time>
      </trkpt>
      <trkpt lat="39.445751" lon="-5.325046">
        <ele>540.9</ele>
        <time>1970-01-01T00:00:00Z</time>
      </trkpt>
      <trkpt lat="39.445751" lon="-5.325046">
        <ele>540.9</ele>
        <time>1970-01-01T00:00:00Z</time>
      </trkpt>
      <trkpt lat="39.445751" lon="-5.325046">
        <ele>540.9</ele>
        <time>1970-01-01T00:00:00Z</time>
      </trkpt>
      <trkpt lat="39.445751" lon="-5.325046">
        <ele>540.9</ele>
        <time>1970-01-01T00:00:00Z</time>
      </trkpt>
      <trkpt lat="39.445747" lon="-5.325084">
        <ele>540.8</ele>
        <time>1970-01-01T00:00:00Z</time>
      </trkpt>
      <trkpt lat="39.445747" lon="-5.325084">
        <ele>540.8</ele>
        <time>1970-01-01T00:00:00Z</time>
      </trkpt>
      <trkpt lat="39.445747" lon="-5.325084">
        <ele>540.8</ele>
        <time>1970-01-01T00:00:00Z</time>
      </trkpt>
      <trkpt lat="39.445747" lon="-5.325084">
        <ele>540.8</ele>
        <time>1970-01-01T00:00:00Z</time>
      </trkpt>
      <trkpt lat="39.445829" lon="-5.325141">
        <ele>539.8</ele>
        <time>1970-01-01T00:00:00Z</time>
      </trkpt>
      <trkpt lat="39.445829" lon="-5.325141">
        <ele>539.8</ele>
        <time>1970-01-01T00:00:00Z</time>
      </trkpt>
      <trkpt lat="39.445829" lon="-5.325141">
        <ele>539.8</ele>
        <time>1970-01-01T00:00:00Z</time>
      </trkpt>
      <trkpt lat="39.445829" lon="-5.325141">
        <ele>539.8</ele>
        <time>1970-01-01T00:00:00Z</time>
      </trkpt>
      <trkpt lat="39.445854" lon="-5.325158">
        <ele>539.6</ele>
        <time>1970-01-01T00:00:00Z</time>
      </trkpt>
      <trkpt lat="39.445854" lon="-5.325158">
        <ele>539.6</ele>
        <time>1970-01-01T00:00:00Z</time>
      </trkpt>
      <trkpt lat="39.445854" lon="-5.325158">
        <ele>539.6</ele>
        <time>1970-01-01T00:00:00Z</time>
      </trkpt>
      <trkpt lat="39.445854" lon="-5.325158">
        <ele>539.6</ele>
        <time>1970-01-01T00:00:00Z</time>
      </trkpt>
      <trkpt lat="39.445887" lon="-5.325160">
        <ele>539.4</ele>
        <time>1970-01-01T00:00:00Z</time>
      </trkpt>
      <trkpt lat="39.445887" lon="-5.325160">
        <ele>539.4</ele>
        <time>1970-01-01T00:00:00Z</time>
      </trkpt>
      <trkpt lat="39.445887" lon="-5.325160">
        <ele>539.4</ele>
        <time>1970-01-01T00:00:00Z</time>
      </trkpt>
      <trkpt lat="39.445887" lon="-5.325160">
        <ele>539.4</ele>
        <time>1970-01-01T00:00:00Z</time>
      </trkpt>
      <trkpt lat="39.445919" lon="-5.325186">
        <ele>539.2</ele>
        <time>1970-01-01T00:00:00Z</time>
      </trkpt>
      <trkpt lat="39.445919" lon="-5.325186">
        <ele>539.2</ele>
        <time>1970-01-01T00:00:00Z</time>
      </trkpt>
      <trkpt lat="39.445919" lon="-5.325186">
        <ele>539.2</ele>
        <time>1970-01-01T00:00:00Z</time>
      </trkpt>
      <trkpt lat="39.445919" lon="-5.325186">
        <ele>539.2</ele>
        <time>1970-01-01T00:00:00Z</time>
      </trkpt>
      <trkpt lat="39.445937" lon="-5.325233">
        <ele>539.0</ele>
        <time>1970-01-01T00:00:00Z</time>
      </trkpt>
      <trkpt lat="39.445937" lon="-5.325233">
        <ele>539.0</ele>
        <time>1970-01-01T00:00:00Z</time>
      </trkpt>
      <trkpt lat="39.445937" lon="-5.325233">
        <ele>539.0</ele>
        <time>1970-01-01T00:00:00Z</time>
      </trkpt>
      <trkpt lat="39.445937" lon="-5.325233">
        <ele>539.0</ele>
        <time>1970-01-01T00:00:00Z</time>
      </trkpt>
      <trkpt lat="39.445942" lon="-5.325266">
        <ele>539.0</ele>
        <time>1970-01-01T00:00:00Z</time>
      </trkpt>
      <trkpt lat="39.445942" lon="-5.325266">
        <ele>539.0</ele>
        <time>1970-01-01T00:00:00Z</time>
      </trkpt>
      <trkpt lat="39.445942" lon="-5.325266">
        <ele>539.0</ele>
        <time>1970-01-01T00:00:00Z</time>
      </trkpt>
      <trkpt lat="39.445942" lon="-5.325266">
        <ele>539.0</ele>
        <time>1970-01-01T00:00:00Z</time>
      </trkpt>
      <trkpt lat="39.445943" lon="-5.325313">
        <ele>539.0</ele>
        <time>1970-01-01T00:00:00Z</time>
      </trkpt>
      <trkpt lat="39.445943" lon="-5.325313">
        <ele>539.0</ele>
        <time>1970-01-01T00:00:00Z</time>
      </trkpt>
      <trkpt lat="39.445943" lon="-5.325313">
        <ele>539.0</ele>
        <time>1970-01-01T00:00:00Z</time>
      </trkpt>
      <trkpt lat="39.445943" lon="-5.325313">
        <ele>539.0</ele>
        <time>1970-01-01T00:00:00Z</time>
      </trkpt>
      <trkpt lat="39.445928" lon="-5.325341">
        <ele>539.1</ele>
        <time>1970-01-01T00:00:00Z</time>
      </trkpt>
      <trkpt lat="39.445928" lon="-5.325341">
        <ele>539.1</ele>
        <time>1970-01-01T00:00:00Z</time>
      </trkpt>
      <trkpt lat="39.445928" lon="-5.325341">
        <ele>539.1</ele>
        <time>1970-01-01T00:00:00Z</time>
      </trkpt>
      <trkpt lat="39.445928" lon="-5.325341">
        <ele>539.1</ele>
        <time>1970-01-01T00:00:00Z</time>
      </trkpt>
      <trkpt lat="39.445901" lon="-5.325348">
        <ele>539.1</ele>
        <time>1970-01-01T00:00:00Z</time>
      </trkpt>
      <trkpt lat="39.445901" lon="-5.325348">
        <ele>539.1</ele>
        <time>1970-01-01T00:00:00Z</time>
      </trkpt>
      <trkpt lat="39.445901" lon="-5.325348">
        <ele>539.1</ele>
        <time>1970-01-01T00:00:00Z</time>
      </trkpt>
      <trkpt lat="39.445901" lon="-5.325348">
        <ele>539.1</ele>
        <time>1970-01-01T00:00:00Z</time>
      </trkpt>
      <trkpt lat="39.445871" lon="-5.325350">
        <ele>539.1</ele>
        <time>1970-01-01T00:00:00Z</time>
      </trkpt>
      <trkpt lat="39.445871" lon="-5.325350">
        <ele>539.1</ele>
        <time>1970-01-01T00:00:00Z</time>
      </trkpt>
      <trkpt lat="39.445871" lon="-5.325350">
        <ele>539.1</ele>
        <time>1970-01-01T00:00:00Z</time>
      </trkpt>
      <trkpt lat="39.445871" lon="-5.325350">
        <ele>539.1</ele>
        <time>1970-01-01T00:00:00Z</time>
      </trkpt>
      <trkpt lat="39.445853" lon="-5.325356">
        <ele>539.1</ele>
        <time>1970-01-01T00:00:00Z</time>
      </trkpt>
      <trkpt lat="39.445853" lon="-5.325356">
        <ele>539.1</ele>
        <time>1970-01-01T00:00:00Z</time>
      </trkpt>
      <trkpt lat="39.445853" lon="-5.325356">
        <ele>539.1</ele>
        <time>1970-01-01T00:00:00Z</time>
      </trkpt>
      <trkpt lat="39.445853" lon="-5.325356">
        <ele>539.1</ele>
        <time>1970-01-01T00:00:00Z</time>
      </trkpt>
      <trkpt lat="39.445823" lon="-5.325381">
        <ele>539.1</ele>
        <time>1970-01-01T00:00:00Z</time>
      </trkpt>
      <trkpt lat="39.445823" lon="-5.325381">
        <ele>539.1</ele>
        <time>1970-01-01T00:00:00Z</time>
      </trkpt>
      <trkpt lat="39.445823" lon="-5.325381">
        <ele>539.1</ele>
        <time>1970-01-01T00:00:00Z</time>
      </trkpt>
      <trkpt lat="39.445823" lon="-5.325381">
        <ele>539.1</ele>
        <time>1970-01-01T00:00:00Z</time>
      </trkpt>
      <trkpt lat="39.445820" lon="-5.325412">
        <ele>539.2</ele>
        <time>1970-01-01T00:00:00Z</time>
      </trkpt>
      <trkpt lat="39.445820" lon="-5.325412">
        <ele>539.2</ele>
        <time>1970-01-01T00:00:00Z</time>
      </trkpt>
      <trkpt lat="39.445820" lon="-5.325412">
        <ele>539.2</ele>
        <time>1970-01-01T00:00:00Z</time>
      </trkpt>
      <trkpt lat="39.445820" lon="-5.325412">
        <ele>539.2</ele>
        <time>1970-01-01T00:00:00Z</time>
      </trkpt>
      <trkpt lat="39.445827" lon="-5.325431">
        <ele>539.2</ele>
        <time>1970-01-01T00:00:00Z</time>
      </trkpt>
      <trkpt lat="39.445827" lon="-5.325431">
        <ele>539.2</ele>
        <time>1970-01-01T00:00:00Z</time>
      </trkpt>
      <trkpt lat="39.445827" lon="-5.325431">
        <ele>539.2</ele>
        <time>1970-01-01T00:00:00Z</time>
      </trkpt>
      <trkpt lat="39.445827" lon="-5.325431">
        <ele>539.2</ele>
        <time>1970-01-01T00:00:00Z</time>
      </trkpt>
      <trkpt lat="39.445853" lon="-5.325444">
        <ele>539.3</ele>
        <time>1970-01-01T00:00:00Z</time>
      </trkpt>
      <trkpt lat="39.445853" lon="-5.325444">
        <ele>539.3</ele>
        <time>1970-01-01T00:00:00Z</time>
      </trkpt>
      <trkpt lat="39.445853" lon="-5.325444">
        <ele>539.3</ele>
        <time>1970-01-01T00:00:00Z</time>
      </trkpt>
      <trkpt lat="39.445853" lon="-5.325444">
        <ele>539.3</ele>
        <time>1970-01-01T00:00:00Z</time>
      </trkpt>
      <trkpt lat="39.445887" lon="-5.325446">
        <ele>539.4</ele>
        <time>1970-01-01T00:00:00Z</time>
      </trkpt>
      <trkpt lat="39.445887" lon="-5.325446">
        <ele>539.4</ele>
        <time>1970-01-01T00:00:00Z</time>
      </trkpt>
      <trkpt lat="39.445887" lon="-5.325446">
        <ele>539.4</ele>
        <time>1970-01-01T00:00:00Z</time>
      </trkpt>
      <trkpt lat="39.445887" lon="-5.325446">
        <ele>539.4</ele>
        <time>1970-01-01T00:00:00Z</time>
      </trkpt>
      <trkpt lat="39.445911" lon="-5.325461">
        <ele>539.5</ele>
        <time>1970-01-01T00:00:00Z</time>
      </trkpt>
      <trkpt lat="39.445911" lon="-5.325461">
        <ele>539.5</ele>
        <time>1970-01-01T00:00:00Z</time>
      </trkpt>
      <trkpt lat="39.445911" lon="-5.325461">
        <ele>539.5</ele>
        <time>1970-01-01T00:00:00Z</time>
      </trkpt>
      <trkpt lat="39.445911" lon="-5.325461">
        <ele>539.5</ele>
        <time>1970-01-01T00:00:00Z</time>
      </trkpt>
      <trkpt lat="39.445939" lon="-5.325521">
        <ele>539.8</ele>
        <time>1970-01-01T00:00:00Z</time>
      </trkpt>
      <trkpt lat="39.445939" lon="-5.325521">
        <ele>539.8</ele>
        <time>1970-01-01T00:00:00Z</time>
      </trkpt>
      <trkpt lat="39.445939" lon="-5.325521">
        <ele>539.8</ele>
        <time>1970-01-01T00:00:00Z</time>
      </trkpt>
      <trkpt lat="39.445939" lon="-5.325521">
        <ele>539.8</ele>
        <time>1970-01-01T00:00:00Z</time>
      </trkpt>
      <trkpt lat="39.445962" lon="-5.325581">
        <ele>540.3</ele>
        <time>1970-01-01T00:00:00Z</time>
      </trkpt>
      <trkpt lat="39.445962" lon="-5.325581">
        <ele>540.3</ele>
        <time>1970-01-01T00:00:00Z</time>
      </trkpt>
      <trkpt lat="39.445962" lon="-5.325581">
        <ele>540.3</ele>
        <time>1970-01-01T00:00:00Z</time>
      </trkpt>
      <trkpt lat="39.445962" lon="-5.325581">
        <ele>540.3</ele>
        <time>1970-01-01T00:00:00Z</time>
      </trkpt>
      <trkpt lat="39.445996" lon="-5.325639">
        <ele>541.3</ele>
        <time>1970-01-01T00:00:00Z</time>
      </trkpt>
      <trkpt lat="39.445996" lon="-5.325639">
        <ele>541.3</ele>
        <time>1970-01-01T00:00:00Z</time>
      </trkpt>
      <trkpt lat="39.445996" lon="-5.325639">
        <ele>541.3</ele>
        <time>1970-01-01T00:00:00Z</time>
      </trkpt>
      <trkpt lat="39.445996" lon="-5.325639">
        <ele>541.3</ele>
        <time>1970-01-01T00:00:00Z</time>
      </trkpt>
      <trkpt lat="39.446020" lon="-5.325650">
        <ele>541.8</ele>
        <time>1970-01-01T00:00:00Z</time>
      </trkpt>
      <trkpt lat="39.446020" lon="-5.325650">
        <ele>541.8</ele>
        <time>1970-01-01T00:00:00Z</time>
      </trkpt>
      <trkpt lat="39.446020" lon="-5.325650">
        <ele>541.8</ele>
        <time>1970-01-01T00:00:00Z</time>
      </trkpt>
      <trkpt lat="39.446020" lon="-5.325650">
        <ele>541.8</ele>
        <time>1970-01-01T00:00:00Z</time>
      </trkpt>
      <trkpt lat="39.446060" lon="-5.325663">
        <ele>542.6</ele>
        <time>1970-01-01T00:00:00Z</time>
      </trkpt>
      <trkpt lat="39.446060" lon="-5.325663">
        <ele>542.6</ele>
        <time>1970-01-01T00:00:00Z</time>
      </trkpt>
      <trkpt lat="39.446060" lon="-5.325663">
        <ele>542.6</ele>
        <time>1970-01-01T00:00:00Z</time>
      </trkpt>
      <trkpt lat="39.446060" lon="-5.325663">
        <ele>542.6</ele>
        <time>1970-01-01T00:00:00Z</time>
      </trkpt>
      <trkpt lat="39.446090" lon="-5.325669">
        <ele>543.2</ele>
        <time>1970-01-01T00:00:00Z</time>
      </trkpt>
      <trkpt lat="39.446090" lon="-5.325669">
        <ele>543.2</ele>
        <time>1970-01-01T00:00:00Z</time>
      </trkpt>
      <trkpt lat="39.446090" lon="-5.325669">
        <ele>543.2</ele>
        <time>1970-01-01T00:00:00Z</time>
      </trkpt>
      <trkpt lat="39.446090" lon="-5.325669">
        <ele>543.2</ele>
        <time>1970-01-01T00:00:00Z</time>
      </trkpt>
      <trkpt lat="39.446116" lon="-5.325681">
        <ele>543.8</ele>
        <time>1970-01-01T00:00:00Z</time>
      </trkpt>
      <trkpt lat="39.446116" lon="-5.325681">
        <ele>543.8</ele>
        <time>1970-01-01T00:00:00Z</time>
      </trkpt>
      <trkpt lat="39.446116" lon="-5.325681">
        <ele>543.8</ele>
        <time>1970-01-01T00:00:00Z</time>
      </trkpt>
      <trkpt lat="39.446116" lon="-5.325681">
        <ele>543.8</ele>
        <time>1970-01-01T00:00:00Z</time>
      </trkpt>
      <trkpt lat="39.446150" lon="-5.325672">
        <ele>544.5</ele>
        <time>1970-01-01T00:00:00Z</time>
      </trkpt>
      <trkpt lat="39.446150" lon="-5.325672">
        <ele>544.5</ele>
        <time>1970-01-01T00:00:00Z</time>
      </trkpt>
      <trkpt lat="39.446150" lon="-5.325672">
        <ele>544.5</ele>
        <time>1970-01-01T00:00:00Z</time>
      </trkpt>
      <trkpt lat="39.446150" lon="-5.325672">
        <ele>544.5</ele>
        <time>1970-01-01T00:00:00Z</time>
      </trkpt>
      <trkpt lat="39.446172" lon="-5.325668">
        <ele>544.8</ele>
        <time>1970-01-01T00:00:00Z</time>
      </trkpt>
      <trkpt lat="39.446172" lon="-5.325668">
        <ele>544.8</ele>
        <time>1970-01-01T00:00:00Z</time>
      </trkpt>
      <trkpt lat="39.446172" lon="-5.325668">
        <ele>544.8</ele>
        <time>1970-01-01T00:00:00Z</time>
      </trkpt>
      <trkpt lat="39.446172" lon="-5.325668">
        <ele>544.8</ele>
        <time>1970-01-01T00:00:00Z</time>
      </trkpt>
      <trkpt lat="39.446208" lon="-5.325674">
        <ele>545.8</ele>
        <time>1970-01-01T00:00:00Z</time>
      </trkpt>
      <trkpt lat="39.446208" lon="-5.325674">
        <ele>545.8</ele>
        <time>1970-01-01T00:00:00Z</time>
      </trkpt>
      <trkpt lat="39.446208" lon="-5.325674">
        <ele>545.8</ele>
        <time>1970-01-01T00:00:00Z</time>
      </trkpt>
      <trkpt lat="39.446208" lon="-5.325674">
        <ele>545.8</ele>
        <time>1970-01-01T00:00:00Z</time>
      </trkpt>
      <trkpt lat="39.446230" lon="-5.325676">
        <ele>546.5</ele>
        <time>1970-01-01T00:00:00Z</time>
      </trkpt>
      <trkpt lat="39.446230" lon="-5.325676">
        <ele>546.5</ele>
        <time>1970-01-01T00:00:00Z</time>
      </trkpt>
      <trkpt lat="39.446230" lon="-5.325676">
        <ele>546.5</ele>
        <time>1970-01-01T00:00:00Z</time>
      </trkpt>
      <trkpt lat="39.446230" lon="-5.325676">
        <ele>546.5</ele>
        <time>1970-01-01T00:00:00Z</time>
      </trkpt>
      <trkpt lat="39.446242" lon="-5.325675">
        <ele>546.8</ele>
        <time>1970-01-01T00:00:00Z</time>
      </trkpt>
      <trkpt lat="39.446242" lon="-5.325675">
        <ele>546.8</ele>
        <time>1970-01-01T00:00:00Z</time>
      </trkpt>
      <trkpt lat="39.446242" lon="-5.325675">
        <ele>546.8</ele>
        <time>1970-01-01T00:00:00Z</time>
      </trkpt>
      <trkpt lat="39.446242" lon="-5.325675">
        <ele>546.8</ele>
        <time>1970-01-01T00:00:00Z</time>
      </trkpt>
      <trkpt lat="39.446252" lon="-5.325682">
        <ele>547.1</ele>
        <time>1970-01-01T00:00:00Z</time>
      </trkpt>
      <trkpt lat="39.446252" lon="-5.325682">
        <ele>547.1</ele>
        <time>1970-01-01T00:00:00Z</time>
      </trkpt>
      <trkpt lat="39.446252" lon="-5.325682">
        <ele>547.1</ele>
        <time>1970-01-01T00:00:00Z</time>
      </trkpt>
      <trkpt lat="39.446252" lon="-5.325682">
        <ele>547.1</ele>
        <time>1970-01-01T00:00:00Z</time>
      </trkpt>
      <trkpt lat="39.446260" lon="-5.325690">
        <ele>547.5</ele>
        <time>1970-01-01T00:00:00Z</time>
      </trkpt>
      <trkpt lat="39.446260" lon="-5.325690">
        <ele>547.5</ele>
        <time>1970-01-01T00:00:00Z</time>
      </trkpt>
      <trkpt lat="39.446260" lon="-5.325690">
        <ele>547.5</ele>
        <time>1970-01-01T00:00:00Z</time>
      </trkpt>
      <trkpt lat="39.446260" lon="-5.325690">
        <ele>547.5</ele>
        <time>1970-01-01T00:00:00Z</time>
      </trkpt>
      <trkpt lat="39.446256" lon="-5.325709">
        <ele>547.5</ele>
        <time>1970-01-01T00:00:00Z</time>
      </trkpt>
      <trkpt lat="39.446256" lon="-5.325709">
        <ele>547.5</ele>
        <time>1970-01-01T00:00:00Z</time>
      </trkpt>
      <trkpt lat="39.446256" lon="-5.325709">
        <ele>547.5</ele>
        <time>1970-01-01T00:00:00Z</time>
      </trkpt>
      <trkpt lat="39.446256" lon="-5.325709">
        <ele>547.5</ele>
        <time>1970-01-01T00:00:00Z</time>
      </trkpt>
      <trkpt lat="39.446227" lon="-5.325726">
        <ele>546.8</ele>
        <time>1970-01-01T00:00:00Z</time>
      </trkpt>
      <trkpt lat="39.446227" lon="-5.325726">
        <ele>546.8</ele>
        <time>1970-01-01T00:00:00Z</time>
      </trkpt>
      <trkpt lat="39.446227" lon="-5.325726">
        <ele>546.8</ele>
        <time>1970-01-01T00:00:00Z</time>
      </trkpt>
      <trkpt lat="39.446227" lon="-5.325726">
        <ele>546.8</ele>
        <time>1970-01-01T00:00:00Z</time>
      </trkpt>
      <trkpt lat="39.446185" lon="-5.325758">
        <ele>545.9</ele>
        <time>1970-01-01T00:00:00Z</time>
      </trkpt>
      <trkpt lat="39.446185" lon="-5.325758">
        <ele>545.9</ele>
        <time>1970-01-01T00:00:00Z</time>
      </trkpt>
      <trkpt lat="39.446185" lon="-5.325758">
        <ele>545.9</ele>
        <time>1970-01-01T00:00:00Z</time>
      </trkpt>
      <trkpt lat="39.446185" lon="-5.325758">
        <ele>545.9</ele>
        <time>1970-01-01T00:00:00Z</time>
      </trkpt>
      <trkpt lat="39.446161" lon="-5.325779">
        <ele>545.5</ele>
        <time>1970-01-01T00:00:00Z</time>
      </trkpt>
      <trkpt lat="39.446161" lon="-5.325779">
        <ele>545.5</ele>
        <time>1970-01-01T00:00:00Z</time>
      </trkpt>
      <trkpt lat="39.446161" lon="-5.325779">
        <ele>545.5</ele>
        <time>1970-01-01T00:00:00Z</time>
      </trkpt>
      <trkpt lat="39.446161" lon="-5.325779">
        <ele>545.5</ele>
        <time>1970-01-01T00:00:00Z</time>
      </trkpt>
      <trkpt lat="39.446130" lon="-5.325799">
        <ele>545.1</ele>
        <time>1970-01-01T00:00:00Z</time>
      </trkpt>
      <trkpt lat="39.446130" lon="-5.325799">
        <ele>545.1</ele>
        <time>1970-01-01T00:00:00Z</time>
      </trkpt>
      <trkpt lat="39.446130" lon="-5.325799">
        <ele>545.1</ele>
        <time>1970-01-01T00:00:00Z</time>
      </trkpt>
      <trkpt lat="39.446130" lon="-5.325799">
        <ele>545.1</ele>
        <time>1970-01-01T00:00:00Z</time>
      </trkpt>
      <trkpt lat="39.446105" lon="-5.325827">
        <ele>544.8</ele>
        <time>1970-01-01T00:00:00Z</time>
      </trkpt>
      <trkpt lat="39.446105" lon="-5.325827">
        <ele>544.8</ele>
        <time>1970-01-01T00:00:00Z</time>
      </trkpt>
      <trkpt lat="39.446105" lon="-5.325827">
        <ele>544.8</ele>
        <time>1970-01-01T00:00:00Z</time>
      </trkpt>
      <trkpt lat="39.446105" lon="-5.325827">
        <ele>544.8</ele>
        <time>1970-01-01T00:00:00Z</time>
      </trkpt>
      <trkpt lat="39.446084" lon="-5.325840">
        <ele>544.4</ele>
        <time>1970-01-01T00:00:00Z</time>
      </trkpt>
      <trkpt lat="39.446084" lon="-5.325840">
        <ele>544.4</ele>
        <time>1970-01-01T00:00:00Z</time>
      </trkpt>
      <trkpt lat="39.446084" lon="-5.325840">
        <ele>544.4</ele>
        <time>1970-01-01T00:00:00Z</time>
      </trkpt>
      <trkpt lat="39.446084" lon="-5.325840">
        <ele>544.4</ele>
        <time>1970-01-01T00:00:00Z</time>
      </trkpt>
      <trkpt lat="39.446064" lon="-5.325862">
        <ele>544.2</ele>
        <time>1970-01-01T00:00:00Z</time>
      </trkpt>
      <trkpt lat="39.446064" lon="-5.325862">
        <ele>544.2</ele>
        <time>1970-01-01T00:00:00Z</time>
      </trkpt>
      <trkpt lat="39.446064" lon="-5.325862">
        <ele>544.2</ele>
        <time>1970-01-01T00:00:00Z</time>
      </trkpt>
      <trkpt lat="39.446064" lon="-5.325862">
        <ele>544.2</ele>
        <time>1970-01-01T00:00:00Z</time>
      </trkpt>
      <trkpt lat="39.446045" lon="-5.325897">
        <ele>544.1</ele>
        <time>1970-01-01T00:00:00Z</time>
      </trkpt>
      <trkpt lat="39.446045" lon="-5.325897">
        <ele>544.1</ele>
        <time>1970-01-01T00:00:00Z</time>
      </trkpt>
      <trkpt lat="39.446045" lon="-5.325897">
        <ele>544.1</ele>
        <time>1970-01-01T00:00:00Z</time>
      </trkpt>
      <trkpt lat="39.446045" lon="-5.325897">
        <ele>544.1</ele>
        <time>1970-01-01T00:00:00Z</time>
      </trkpt>
      <trkpt lat="39.446030" lon="-5.325937">
        <ele>544.1</ele>
        <time>1970-01-01T00:00:00Z</time>
      </trkpt>
      <trkpt lat="39.446030" lon="-5.325937">
        <ele>544.1</ele>
        <time>1970-01-01T00:00:00Z</time>
      </trkpt>
      <trkpt lat="39.446030" lon="-5.325937">
        <ele>544.1</ele>
        <time>1970-01-01T00:00:00Z</time>
      </trkpt>
      <trkpt lat="39.446030" lon="-5.325937">
        <ele>544.1</ele>
        <time>1970-01-01T00:00:00Z</time>
      </trkpt>
      <trkpt lat="39.446036" lon="-5.326051">
        <ele>545.1</ele>
        <time>1970-01-01T00:00:00Z</time>
      </trkpt>
      <trkpt lat="39.446036" lon="-5.326051">
        <ele>545.1</ele>
        <time>1970-01-01T00:00:00Z</time>
      </trkpt>
      <trkpt lat="39.446036" lon="-5.326051">
        <ele>545.1</ele>
        <time>1970-01-01T00:00:00Z</time>
      </trkpt>
      <trkpt lat="39.446036" lon="-5.326051">
        <ele>545.1</ele>
        <time>1970-01-01T00:00:00Z</time>
      </trkpt>
      <trkpt lat="39.446041" lon="-5.326125">
        <ele>545.6</ele>
        <time>1970-01-01T00:00:00Z</time>
      </trkpt>
      <trkpt lat="39.446041" lon="-5.326125">
        <ele>545.6</ele>
        <time>1970-01-01T00:00:00Z</time>
      </trkpt>
      <trkpt lat="39.446041" lon="-5.326125">
        <ele>545.6</ele>
        <time>1970-01-01T00:00:00Z</time>
      </trkpt>
      <trkpt lat="39.446041" lon="-5.326125">
        <ele>545.6</ele>
        <time>1970-01-01T00:00:00Z</time>
      </trkpt>
      <trkpt lat="39.446039" lon="-5.326220">
        <ele>546.2</ele>
        <time>1970-01-01T00:00:00Z</time>
      </trkpt>
      <trkpt lat="39.446039" lon="-5.326220">
        <ele>546.2</ele>
        <time>1970-01-01T00:00:00Z</time>
      </trkpt>
      <trkpt lat="39.446039" lon="-5.326220">
        <ele>546.2</ele>
        <time>1970-01-01T00:00:00Z</time>
      </trkpt>
      <trkpt lat="39.446039" lon="-5.326220">
        <ele>546.2</ele>
        <time>1970-01-01T00:00:00Z</time>
      </trkpt>
      <trkpt lat="39.446042" lon="-5.326286">
        <ele>546.8</ele>
        <time>1970-01-01T00:00:00Z</time>
      </trkpt>
      <trkpt lat="39.446042" lon="-5.326286">
        <ele>546.8</ele>
        <time>1970-01-01T00:00:00Z</time>
      </trkpt>
      <trkpt lat="39.446042" lon="-5.326286">
        <ele>546.8</ele>
        <time>1970-01-01T00:00:00Z</time>
      </trkpt>
      <trkpt lat="39.446042" lon="-5.326286">
        <ele>546.8</ele>
        <time>1970-01-01T00:00:00Z</time>
      </trkpt>
      <trkpt lat="39.446032" lon="-5.326359">
        <ele>547.3</ele>
        <time>1970-01-01T00:00:00Z</time>
      </trkpt>
      <trkpt lat="39.446032" lon="-5.326359">
        <ele>547.3</ele>
        <time>1970-01-01T00:00:00Z</time>
      </trkpt>
      <trkpt lat="39.446032" lon="-5.326359">
        <ele>547.3</ele>
        <time>1970-01-01T00:00:00Z</time>
      </trkpt>
      <trkpt lat="39.446032" lon="-5.326359">
        <ele>547.3</ele>
        <time>1970-01-01T00:00:00Z</time>
      </trkpt>
      <trkpt lat="39.446013" lon="-5.326436">
        <ele>547.5</ele>
        <time>1970-01-01T00:00:00Z</time>
      </trkpt>
      <trkpt lat="39.446013" lon="-5.326436">
        <ele>547.5</ele>
        <time>1970-01-01T00:00:00Z</time>
      </trkpt>
      <trkpt lat="39.446013" lon="-5.326436">
        <ele>547.5</ele>
        <time>1970-01-01T00:00:00Z</time>
      </trkpt>
      <trkpt lat="39.446013" lon="-5.326436">
        <ele>547.5</ele>
        <time>1970-01-01T00:00:00Z</time>
      </trkpt>
      <trkpt lat="39.446008" lon="-5.326545">
        <ele>548.1</ele>
        <time>1970-01-01T00:00:00Z</time>
      </trkpt>
      <trkpt lat="39.446008" lon="-5.326545">
        <ele>548.1</ele>
        <time>1970-01-01T00:00:00Z</time>
      </trkpt>
      <trkpt lat="39.446008" lon="-5.326545">
        <ele>548.1</ele>
        <time>1970-01-01T00:00:00Z</time>
      </trkpt>
      <trkpt lat="39.446008" lon="-5.326545">
        <ele>548.1</ele>
        <time>1970-01-01T00:00:00Z</time>
      </trkpt>
      <trkpt lat="39.446005" lon="-5.326641">
        <ele>548.5</ele>
        <time>1970-01-01T00:00:00Z</time>
      </trkpt>
      <trkpt lat="39.446005" lon="-5.326641">
        <ele>548.5</ele>
        <time>1970-01-01T00:00:00Z</time>
      </trkpt>
      <trkpt lat="39.446005" lon="-5.326641">
        <ele>548.5</ele>
        <time>1970-01-01T00:00:00Z</time>
      </trkpt>
      <trkpt lat="39.446005" lon="-5.326641">
        <ele>548.5</ele>
        <time>1970-01-01T00:00:00Z</time>
      </trkpt>
      <trkpt lat="39.446022" lon="-5.326737">
        <ele>549.7</ele>
        <time>1970-01-01T00:00:00Z</time>
      </trkpt>
      <trkpt lat="39.446022" lon="-5.326737">
        <ele>549.7</ele>
        <time>1970-01-01T00:00:00Z</time>
      </trkpt>
      <trkpt lat="39.446022" lon="-5.326737">
        <ele>549.7</ele>
        <time>1970-01-01T00:00:00Z</time>
      </trkpt>
      <trkpt lat="39.446022" lon="-5.326737">
        <ele>549.7</ele>
        <time>1970-01-01T00:00:00Z</time>
      </trkpt>
      <trkpt lat="39.446041" lon="-5.326792">
        <ele>550.7</ele>
        <time>1970-01-01T00:00:00Z</time>
      </trkpt>
      <trkpt lat="39.446041" lon="-5.326792">
        <ele>550.7</ele>
        <time>1970-01-01T00:00:00Z</time>
      </trkpt>
      <trkpt lat="39.446041" lon="-5.326792">
        <ele>550.7</ele>
        <time>1970-01-01T00:00:00Z</time>
      </trkpt>
      <trkpt lat="39.446041" lon="-5.326792">
        <ele>550.7</ele>
        <time>1970-01-01T00:00:00Z</time>
      </trkpt>
      <trkpt lat="39.446064" lon="-5.326844">
        <ele>551.8</ele>
        <time>1970-01-01T00:00:00Z</time>
      </trkpt>
      <trkpt lat="39.446064" lon="-5.326844">
        <ele>551.8</ele>
        <time>1970-01-01T00:00:00Z</time>
      </trkpt>
      <trkpt lat="39.446064" lon="-5.326844">
        <ele>551.8</ele>
        <time>1970-01-01T00:00:00Z</time>
      </trkpt>
      <trkpt lat="39.446064" lon="-5.326844">
        <ele>551.8</ele>
        <time>1970-01-01T00:00:00Z</time>
      </trkpt>
      <trkpt lat="39.446101" lon="-5.326899">
        <ele>553.3</ele>
        <time>1970-01-01T00:00:00Z</time>
      </trkpt>
      <trkpt lat="39.446101" lon="-5.326899">
        <ele>553.3</ele>
        <time>1970-01-01T00:00:00Z</time>
      </trkpt>
      <trkpt lat="39.446101" lon="-5.326899">
        <ele>553.3</ele>
        <time>1970-01-01T00:00:00Z</time>
      </trkpt>
      <trkpt lat="39.446101" lon="-5.326899">
        <ele>553.3</ele>
        <time>1970-01-01T00:00:00Z</time>
      </trkpt>
      <trkpt lat="39.446193" lon="-5.326971">
        <ele>556.5</ele>
        <time>1970-01-01T00:00:00Z</time>
      </trkpt>
      <trkpt lat="39.446193" lon="-5.326971">
        <ele>556.5</ele>
        <time>1970-01-01T00:00:00Z</time>
      </trkpt>
      <trkpt lat="39.446193" lon="-5.326971">
        <ele>556.5</ele>
        <time>1970-01-01T00:00:00Z</time>
      </trkpt>
      <trkpt lat="39.446193" lon="-5.326971">
        <ele>556.5</ele>
        <time>1970-01-01T00:00:00Z</time>
      </trkpt>
      <trkpt lat="39.446234" lon="-5.327003">
        <ele>558.0</ele>
        <time>1970-01-01T00:00:00Z</time>
      </trkpt>
      <trkpt lat="39.446234" lon="-5.327003">
        <ele>558.0</ele>
        <time>1970-01-01T00:00:00Z</time>
      </trkpt>
      <trkpt lat="39.446234" lon="-5.327003">
        <ele>558.0</ele>
        <time>1970-01-01T00:00:00Z</time>
      </trkpt>
      <trkpt lat="39.446234" lon="-5.327003">
        <ele>558.0</ele>
        <time>1970-01-01T00:00:00Z</time>
      </trkpt>
      <trkpt lat="39.446352" lon="-5.327094">
        <ele>562.0</ele>
        <time>1970-01-01T00:00:00Z</time>
      </trkpt>
      <trkpt lat="39.446352" lon="-5.327094">
        <ele>562.0</ele>
        <time>1970-01-01T00:00:00Z</time>
      </trkpt>
      <trkpt lat="39.446352" lon="-5.327094">
        <ele>562.0</ele>
        <time>1970-01-01T00:00:00Z</time>
      </trkpt>
      <trkpt lat="39.446352" lon="-5.327094">
        <ele>562.0</ele>
        <time>1970-01-01T00:00:00Z</time>
      </trkpt>
      <trkpt lat="39.446428" lon="-5.327153">
        <ele>564.3</ele>
        <time>1970-01-01T00:00:00Z</time>
      </trkpt>
      <trkpt lat="39.446428" lon="-5.327153">
        <ele>564.3</ele>
        <time>1970-01-01T00:00:00Z</time>
      </trkpt>
      <trkpt lat="39.446428" lon="-5.327153">
        <ele>564.3</ele>
        <time>1970-01-01T00:00:00Z</time>
      </trkpt>
      <trkpt lat="39.446428" lon="-5.327153">
        <ele>564.3</ele>
        <time>1970-01-01T00:00:00Z</time>
      </trkpt>
      <trkpt lat="39.446542" lon="-5.327237">
        <ele>566.9</ele>
        <time>1970-01-01T00:00:00Z</time>
      </trkpt>
      <trkpt lat="39.446542" lon="-5.327237">
        <ele>566.9</ele>
        <time>1970-01-01T00:00:00Z</time>
      </trkpt>
      <trkpt lat="39.446542" lon="-5.327237">
        <ele>566.9</ele>
        <time>1970-01-01T00:00:00Z</time>
      </trkpt>
      <trkpt lat="39.446542" lon="-5.327237">
        <ele>566.9</ele>
        <time>1970-01-01T00:00:00Z</time>
      </trkpt>
      <trkpt lat="39.446636" lon="-5.327318">
        <ele>568.8</ele>
        <time>1970-01-01T00:00:00Z</time>
      </trkpt>
      <trkpt lat="39.446636" lon="-5.327318">
        <ele>568.8</ele>
        <time>1970-01-01T00:00:00Z</time>
      </trkpt>
      <trkpt lat="39.446636" lon="-5.327318">
        <ele>568.8</ele>
        <time>1970-01-01T00:00:00Z</time>
      </trkpt>
      <trkpt lat="39.446636" lon="-5.327318">
        <ele>568.8</ele>
        <time>1970-01-01T00:00:00Z</time>
      </trkpt>
      <trkpt lat="39.446725" lon="-5.327392">
        <ele>570.7</ele>
        <time>1970-01-01T00:00:00Z</time>
      </trkpt>
      <trkpt lat="39.446725" lon="-5.327392">
        <ele>570.7</ele>
        <time>1970-01-01T00:00:00Z</time>
      </trkpt>
      <trkpt lat="39.446725" lon="-5.327392">
        <ele>570.7</ele>
        <time>1970-01-01T00:00:00Z</time>
      </trkpt>
      <trkpt lat="39.446725" lon="-5.327392">
        <ele>570.7</ele>
        <time>1970-01-01T00:00:00Z</time>
      </trkpt>
      <trkpt lat="39.446789" lon="-5.327417">
        <ele>572.0</ele>
        <time>1970-01-01T00:00:00Z</time>
      </trkpt>
      <trkpt lat="39.446789" lon="-5.327417">
        <ele>572.0</ele>
        <time>1970-01-01T00:00:00Z</time>
      </trkpt>
      <trkpt lat="39.446789" lon="-5.327417">
        <ele>572.0</ele>
        <time>1970-01-01T00:00:00Z</time>
      </trkpt>
      <trkpt lat="39.446789" lon="-5.327417">
        <ele>572.0</ele>
        <time>1970-01-01T00:00:00Z</time>
      </trkpt>
      <trkpt lat="39.446860" lon="-5.327410">
        <ele>573.5</ele>
        <time>1970-01-01T00:00:00Z</time>
      </trkpt>
      <trkpt lat="39.446860" lon="-5.327410">
        <ele>573.5</ele>
        <time>1970-01-01T00:00:00Z</time>
      </trkpt>
      <trkpt lat="39.446860" lon="-5.327410">
        <ele>573.5</ele>
        <time>1970-01-01T00:00:00Z</time>
      </trkpt>
      <trkpt lat="39.446860" lon="-5.327410">
        <ele>573.5</ele>
        <time>1970-01-01T00:00:00Z</time>
      </trkpt>
      <trkpt lat="39.446945" lon="-5.327401">
        <ele>574.9</ele>
        <time>1970-01-01T00:00:00Z</time>
      </trkpt>
      <trkpt lat="39.446945" lon="-5.327401">
        <ele>574.9</ele>
        <time>1970-01-01T00:00:00Z</time>
      </trkpt>
      <trkpt lat="39.446945" lon="-5.327401">
        <ele>574.9</ele>
        <time>1970-01-01T00:00:00Z</time>
      </trkpt>
      <trkpt lat="39.446945" lon="-5.327401">
        <ele>574.9</ele>
        <time>1970-01-01T00:00:00Z</time>
      </trkpt>
      <trkpt lat="39.447036" lon="-5.327387">
        <ele>576.1</ele>
        <time>1970-01-01T00:00:00Z</time>
      </trkpt>
      <trkpt lat="39.447036" lon="-5.327387">
        <ele>576.1</ele>
        <time>1970-01-01T00:00:00Z</time>
      </trkpt>
      <trkpt lat="39.447036" lon="-5.327387">
        <ele>576.1</ele>
        <time>1970-01-01T00:00:00Z</time>
      </trkpt>
      <trkpt lat="39.447036" lon="-5.327387">
        <ele>576.1</ele>
        <time>1970-01-01T00:00:00Z</time>
      </trkpt>
      <trkpt lat="39.447120" lon="-5.327382">
        <ele>577.2</ele>
        <time>1970-01-01T00:00:00Z</time>
      </trkpt>
      <trkpt lat="39.447120" lon="-5.327382">
        <ele>577.2</ele>
        <time>1970-01-01T00:00:00Z</time>
      </trkpt>
      <trkpt lat="39.447120" lon="-5.327382">
        <ele>577.2</ele>
        <time>1970-01-01T00:00:00Z</time>
      </trkpt>
      <trkpt lat="39.447120" lon="-5.327382">
        <ele>577.2</ele>
        <time>1970-01-01T00:00:00Z</time>
      </trkpt>
      <trkpt lat="39.447187" lon="-5.327373">
        <ele>578.1</ele>
        <time>1970-01-01T00:00:00Z</time>
      </trkpt>
      <trkpt lat="39.447187" lon="-5.327373">
        <ele>578.1</ele>
        <time>1970-01-01T00:00:00Z</time>
      </trkpt>
      <trkpt lat="39.447187" lon="-5.327373">
        <ele>578.1</ele>
        <time>1970-01-01T00:00:00Z</time>
      </trkpt>
      <trkpt lat="39.447187" lon="-5.327373">
        <ele>578.1</ele>
        <time>1970-01-01T00:00:00Z</time>
      </trkpt>
      <trkpt lat="39.447267" lon="-5.327373">
        <ele>579.1</ele>
        <time>1970-01-01T00:00:00Z</time>
      </trkpt>
      <trkpt lat="39.447267" lon="-5.327373">
        <ele>579.1</ele>
        <time>1970-01-01T00:00:00Z</time>
      </trkpt>
      <trkpt lat="39.447267" lon="-5.327373">
        <ele>579.1</ele>
        <time>1970-01-01T00:00:00Z</time>
      </trkpt>
      <trkpt lat="39.447267" lon="-5.327373">
        <ele>579.1</ele>
        <time>1970-01-01T00:00:00Z</time>
      </trkpt>
      <trkpt lat="39.447362" lon="-5.327365">
        <ele>580.3</ele>
        <time>1970-01-01T00:00:00Z</time>
      </trkpt>
      <trkpt lat="39.447362" lon="-5.327365">
        <ele>580.3</ele>
        <time>1970-01-01T00:00:00Z</time>
      </trkpt>
      <trkpt lat="39.447362" lon="-5.327365">
        <ele>580.3</ele>
        <time>1970-01-01T00:00:00Z</time>
      </trkpt>
      <trkpt lat="39.447362" lon="-5.327365">
        <ele>580.3</ele>
        <time>1970-01-01T00:00:00Z</time>
      </trkpt>
      <trkpt lat="39.447422" lon="-5.327367">
        <ele>580.9</ele>
        <time>1970-01-01T00:00:00Z</time>
      </trkpt>
      <trkpt lat="39.447422" lon="-5.327367">
        <ele>580.9</ele>
        <time>1970-01-01T00:00:00Z</time>
      </trkpt>
      <trkpt lat="39.447422" lon="-5.327367">
        <ele>580.9</ele>
        <time>1970-01-01T00:00:00Z</time>
      </trkpt>
      <trkpt lat="39.447422" lon="-5.327367">
        <ele>580.9</ele>
        <time>1970-01-01T00:00:00Z</time>
      </trkpt>
      <trkpt lat="39.447497" lon="-5.327361">
        <ele>581.6</ele>
        <time>1970-01-01T00:00:00Z</time>
      </trkpt>
      <trkpt lat="39.447497" lon="-5.327361">
        <ele>581.6</ele>
        <time>1970-01-01T00:00:00Z</time>
      </trkpt>
      <trkpt lat="39.447497" lon="-5.327361">
        <ele>581.6</ele>
        <time>1970-01-01T00:00:00Z</time>
      </trkpt>
      <trkpt lat="39.447497" lon="-5.327361">
        <ele>581.6</ele>
        <time>1970-01-01T00:00:00Z</time>
      </trkpt>
      <trkpt lat="39.447578" lon="-5.327361">
        <ele>582.4</ele>
        <time>1970-01-01T00:00:00Z</time>
      </trkpt>
      <trkpt lat="39.447578" lon="-5.327361">
        <ele>582.4</ele>
        <time>1970-01-01T00:00:00Z</time>
      </trkpt>
      <trkpt lat="39.447578" lon="-5.327361">
        <ele>582.4</ele>
        <time>1970-01-01T00:00:00Z</time>
      </trkpt>
      <trkpt lat="39.447578" lon="-5.327361">
        <ele>582.4</ele>
        <time>1970-01-01T00:00:00Z</time>
      </trkpt>
      <trkpt lat="39.447633" lon="-5.327360">
        <ele>583.1</ele>
        <time>1970-01-01T00:00:00Z</time>
      </trkpt>
      <trkpt lat="39.447633" lon="-5.327360">
        <ele>583.1</ele>
        <time>1970-01-01T00:00:00Z</time>
      </trkpt>
      <trkpt lat="39.447633" lon="-5.327360">
        <ele>583.1</ele>
        <time>1970-01-01T00:00:00Z</time>
      </trkpt>
      <trkpt lat="39.447633" lon="-5.327360">
        <ele>583.1</ele>
        <time>1970-01-01T00:00:00Z</time>
      </trkpt>
      <trkpt lat="39.447673" lon="-5.327356">
        <ele>583.6</ele>
        <time>1970-01-01T00:00:00Z</time>
      </trkpt>
      <trkpt lat="39.447673" lon="-5.327356">
        <ele>583.6</ele>
        <time>1970-01-01T00:00:00Z</time>
      </trkpt>
      <trkpt lat="39.447673" lon="-5.327356">
        <ele>583.6</ele>
        <time>1970-01-01T00:00:00Z</time>
      </trkpt>
      <trkpt lat="39.447673" lon="-5.327356">
        <ele>583.6</ele>
        <time>1970-01-01T00:00:00Z</time>
      </trkpt>
      <trkpt lat="39.447738" lon="-5.327324">
        <ele>584.6</ele>
        <time>1970-01-01T00:00:00Z</time>
      </trkpt>
      <trkpt lat="39.447738" lon="-5.327324">
        <ele>584.6</ele>
        <time>1970-01-01T00:00:00Z</time>
      </trkpt>
      <trkpt lat="39.447738" lon="-5.327324">
        <ele>584.6</ele>
        <time>1970-01-01T00:00:00Z</time>
      </trkpt>
      <trkpt lat="39.447738" lon="-5.327324">
        <ele>584.6</ele>
        <time>1970-01-01T00:00:00Z</time>
      </trkpt>
      <trkpt lat="39.447790" lon="-5.327295">
        <ele>585.3</ele>
        <time>1970-01-01T00:00:00Z</time>
      </trkpt>
      <trkpt lat="39.447790" lon="-5.327295">
        <ele>585.3</ele>
        <time>1970-01-01T00:00:00Z</time>
      </trkpt>
      <trkpt lat="39.447790" lon="-5.327295">
        <ele>585.3</ele>
        <time>1970-01-01T00:00:00Z</time>
      </trkpt>
      <trkpt lat="39.447790" lon="-5.327295">
        <ele>585.3</ele>
        <time>1970-01-01T00:00:00Z</time>
      </trkpt>
      <trkpt lat="39.447819" lon="-5.327270">
        <ele>585.7</ele>
        <time>1970-01-01T00:00:00Z</time>
      </trkpt>
      <trkpt lat="39.447819" lon="-5.327270">
        <ele>585.7</ele>
        <time>1970-01-01T00:00:00Z</time>
      </trkpt>
      <trkpt lat="39.447819" lon="-5.327270">
        <ele>585.7</ele>
        <time>1970-01-01T00:00:00Z</time>
      </trkpt>
      <trkpt lat="39.447819" lon="-5.327270">
        <ele>585.7</ele>
        <time>1970-01-01T00:00:00Z</time>
      </trkpt>
      <trkpt lat="39.447864" lon="-5.327234">
        <ele>586.3</ele>
        <time>1970-01-01T00:00:00Z</time>
      </trkpt>
      <trkpt lat="39.447864" lon="-5.327234">
        <ele>586.3</ele>
        <time>1970-01-01T00:00:00Z</time>
      </trkpt>
      <trkpt lat="39.447864" lon="-5.327234">
        <ele>586.3</ele>
        <time>1970-01-01T00:00:00Z</time>
      </trkpt>
      <trkpt lat="39.447864" lon="-5.327234">
        <ele>586.3</ele>
        <time>1970-01-01T00:00:00Z</time>
      </trkpt>
      <trkpt lat="39.447898" lon="-5.327204">
        <ele>586.7</ele>
        <time>1970-01-01T00:00:00Z</time>
      </trkpt>
      <trkpt lat="39.447898" lon="-5.327204">
        <ele>586.7</ele>
        <time>1970-01-01T00:00:00Z</time>
      </trkpt>
      <trkpt lat="39.447898" lon="-5.327204">
        <ele>586.7</ele>
        <time>1970-01-01T00:00:00Z</time>
      </trkpt>
      <trkpt lat="39.447898" lon="-5.327204">
        <ele>586.7</ele>
        <time>1970-01-01T00:00:00Z</time>
      </trkpt>
      <trkpt lat="39.447923" lon="-5.327185">
        <ele>587.0</ele>
        <time>1970-01-01T00:00:00Z</time>
      </trkpt>
      <trkpt lat="39.447923" lon="-5.327185">
        <ele>587.0</ele>
        <time>1970-01-01T00:00:00Z</time>
      </trkpt>
      <trkpt lat="39.447923" lon="-5.327185">
        <ele>587.0</ele>
        <time>1970-01-01T00:00:00Z</time>
      </trkpt>
      <trkpt lat="39.447923" lon="-5.327185">
        <ele>587.0</ele>
        <time>1970-01-01T00:00:00Z</time>
      </trkpt>
      <trkpt lat="39.447961" lon="-5.327163">
        <ele>587.4</ele>
        <time>1970-01-01T00:00:00Z</time>
      </trkpt>
      <trkpt lat="39.447961" lon="-5.327163">
        <ele>587.4</ele>
        <time>1970-01-01T00:00:00Z</time>
      </trkpt>
      <trkpt lat="39.447961" lon="-5.327163">
        <ele>587.4</ele>
        <time>1970-01-01T00:00:00Z</time>
      </trkpt>
      <trkpt lat="39.447961" lon="-5.327163">
        <ele>587.4</ele>
        <time>1970-01-01T00:00:00Z</time>
      </trkpt>
      <trkpt lat="39.447997" lon="-5.327139">
        <ele>587.9</ele>
        <time>1970-01-01T00:00:00Z</time>
      </trkpt>
      <trkpt lat="39.447997" lon="-5.327139">
        <ele>587.9</ele>
        <time>1970-01-01T00:00:00Z</time>
      </trkpt>
      <trkpt lat="39.447997" lon="-5.327139">
        <ele>587.9</ele>
        <time>1970-01-01T00:00:00Z</time>
      </trkpt>
      <trkpt lat="39.447997" lon="-5.327139">
        <ele>587.9</ele>
        <time>1970-01-01T00:00:00Z</time>
      </trkpt>
      <trkpt lat="39.448022" lon="-5.327117">
        <ele>588.3</ele>
        <time>1970-01-01T00:00:00Z</time>
      </trkpt>
      <trkpt lat="39.448022" lon="-5.327117">
        <ele>588.3</ele>
        <time>1970-01-01T00:00:00Z</time>
      </trkpt>
      <trkpt lat="39.448022" lon="-5.327117">
        <ele>588.3</ele>
        <time>1970-01-01T00:00:00Z</time>
      </trkpt>
      <trkpt lat="39.448022" lon="-5.327117">
        <ele>588.3</ele>
        <time>1970-01-01T00:00:00Z</time>
      </trkpt>
      <trkpt lat="39.448049" lon="-5.327097">
        <ele>588.8</ele>
        <time>1970-01-01T00:00:00Z</time>
      </trkpt>
      <trkpt lat="39.448049" lon="-5.327097">
        <ele>588.8</ele>
        <time>1970-01-01T00:00:00Z</time>
      </trkpt>
      <trkpt lat="39.448049" lon="-5.327097">
        <ele>588.8</ele>
        <time>1970-01-01T00:00:00Z</time>
      </trkpt>
      <trkpt lat="39.448049" lon="-5.327097">
        <ele>588.8</ele>
        <time>1970-01-01T00:00:00Z</time>
      </trkpt>
      <trkpt lat="39.448080" lon="-5.327081">
        <ele>589.2</ele>
        <time>1970-01-01T00:00:00Z</time>
      </trkpt>
      <trkpt lat="39.448080" lon="-5.327081">
        <ele>589.2</ele>
        <time>1970-01-01T00:00:00Z</time>
      </trkpt>
      <trkpt lat="39.448080" lon="-5.327081">
        <ele>589.2</ele>
        <time>1970-01-01T00:00:00Z</time>
      </trkpt>
      <trkpt lat="39.448080" lon="-5.327081">
        <ele>589.2</ele>
        <time>1970-01-01T00:00:00Z</time>
      </trkpt>
      <trkpt lat="39.448264" lon="-5.326991">
        <ele>591.7</ele>
        <time>1970-01-01T00:00:00Z</time>
      </trkpt>
      <trkpt lat="39.448264" lon="-5.326991">
        <ele>591.7</ele>
        <time>1970-01-01T00:00:00Z</time>
      </trkpt>
      <trkpt lat="39.448264" lon="-5.326991">
        <ele>591.7</ele>
        <time>1970-01-01T00:00:00Z</time>
      </trkpt>
      <trkpt lat="39.448264" lon="-5.326991">
        <ele>591.7</ele>
        <time>1970-01-01T00:00:00Z</time>
      </trkpt>
      <trkpt lat="39.448356" lon="-5.326940">
        <ele>593.1</ele>
        <time>1970-01-01T00:00:00Z</time>
      </trkpt>
      <trkpt lat="39.448356" lon="-5.326940">
        <ele>593.1</ele>
        <time>1970-01-01T00:00:00Z</time>
      </trkpt>
      <trkpt lat="39.448356" lon="-5.326940">
        <ele>593.1</ele>
        <time>1970-01-01T00:00:00Z</time>
      </trkpt>
      <trkpt lat="39.448356" lon="-5.326940">
        <ele>593.1</ele>
        <time>1970-01-01T00:00:00Z</time>
      </trkpt>
      <trkpt lat="39.448448" lon="-5.326880">
        <ele>594.8</ele>
        <time>1970-01-01T00:00:00Z</time>
      </trkpt>
      <trkpt lat="39.448448" lon="-5.326880">
        <ele>594.8</ele>
        <time>1970-01-01T00:00:00Z</time>
      </trkpt>
      <trkpt lat="39.448448" lon="-5.326880">
        <ele>594.8</ele>
        <time>1970-01-01T00:00:00Z</time>
      </trkpt>
      <trkpt lat="39.448448" lon="-5.326880">
        <ele>594.8</ele>
        <time>1970-01-01T00:00:00Z</time>
      </trkpt>
      <trkpt lat="39.448539" lon="-5.326823">
        <ele>596.6</ele>
        <time>1970-01-01T00:00:00Z</time>
      </trkpt>
      <trkpt lat="39.448539" lon="-5.326823">
        <ele>596.6</ele>
        <time>1970-01-01T00:00:00Z</time>
      </trkpt>
      <trkpt lat="39.448539" lon="-5.326823">
        <ele>596.6</ele>
        <time>1970-01-01T00:00:00Z</time>
      </trkpt>
      <trkpt lat="39.448539" lon="-5.326823">
        <ele>596.6</ele>
        <time>1970-01-01T00:00:00Z</time>
      </trkpt>
      <trkpt lat="39.448654" lon="-5.326760">
        <ele>598.7</ele>
        <time>1970-01-01T00:00:00Z</time>
      </trkpt>
      <trkpt lat="39.448654" lon="-5.326760">
        <ele>598.7</ele>
        <time>1970-01-01T00:00:00Z</time>
      </trkpt>
      <trkpt lat="39.448654" lon="-5.326760">
        <ele>598.7</ele>
        <time>1970-01-01T00:00:00Z</time>
      </trkpt>
      <trkpt lat="39.448654" lon="-5.326760">
        <ele>598.7</ele>
        <time>1970-01-01T00:00:00Z</time>
      </trkpt>
      <trkpt lat="39.448741" lon="-5.326711">
        <ele>600.2</ele>
        <time>1970-01-01T00:00:00Z</time>
      </trkpt>
      <trkpt lat="39.448741" lon="-5.326711">
        <ele>600.2</ele>
        <time>1970-01-01T00:00:00Z</time>
      </trkpt>
      <trkpt lat="39.448741" lon="-5.326711">
        <ele>600.2</ele>
        <time>1970-01-01T00:00:00Z</time>
      </trkpt>
      <trkpt lat="39.448741" lon="-5.326711">
        <ele>600.2</ele>
        <time>1970-01-01T00:00:00Z</time>
      </trkpt>
      <trkpt lat="39.448811" lon="-5.326670">
        <ele>601.7</ele>
        <time>1970-01-01T00:00:00Z</time>
      </trkpt>
      <trkpt lat="39.448811" lon="-5.326670">
        <ele>601.7</ele>
        <time>1970-01-01T00:00:00Z</time>
      </trkpt>
      <trkpt lat="39.448811" lon="-5.326670">
        <ele>601.7</ele>
        <time>1970-01-01T00:00:00Z</time>
      </trkpt>
      <trkpt lat="39.448811" lon="-5.326670">
        <ele>601.7</ele>
        <time>1970-01-01T00:00:00Z</time>
      </trkpt>
      <trkpt lat="39.448899" lon="-5.326628">
        <ele>603.6</ele>
        <time>1970-01-01T00:00:00Z</time>
      </trkpt>
      <trkpt lat="39.448899" lon="-5.326628">
        <ele>603.6</ele>
        <time>1970-01-01T00:00:00Z</time>
      </trkpt>
      <trkpt lat="39.448899" lon="-5.326628">
        <ele>603.6</ele>
        <time>1970-01-01T00:00:00Z</time>
      </trkpt>
      <trkpt lat="39.448899" lon="-5.326628">
        <ele>603.6</ele>
        <time>1970-01-01T00:00:00Z</time>
      </trkpt>
      <trkpt lat="39.448969" lon="-5.326589">
        <ele>605.1</ele>
        <time>1970-01-01T00:00:00Z</time>
      </trkpt>
      <trkpt lat="39.448969" lon="-5.326589">
        <ele>605.1</ele>
        <time>1970-01-01T00:00:00Z</time>
      </trkpt>
      <trkpt lat="39.448969" lon="-5.326589">
        <ele>605.1</ele>
        <time>1970-01-01T00:00:00Z</time>
      </trkpt>
      <trkpt lat="39.448969" lon="-5.326589">
        <ele>605.1</ele>
        <time>1970-01-01T00:00:00Z</time>
      </trkpt>
      <trkpt lat="39.449032" lon="-5.326574">
        <ele>606.2</ele>
        <time>1970-01-01T00:00:00Z</time>
      </trkpt>
      <trkpt lat="39.449032" lon="-5.326574">
        <ele>606.2</ele>
        <time>1970-01-01T00:00:00Z</time>
      </trkpt>
      <trkpt lat="39.449032" lon="-5.326574">
        <ele>606.2</ele>
        <time>1970-01-01T00:00:00Z</time>
      </trkpt>
      <trkpt lat="39.449032" lon="-5.326574">
        <ele>606.2</ele>
        <time>1970-01-01T00:00:00Z</time>
      </trkpt>
      <trkpt lat="39.449052" lon="-5.326565">
        <ele>606.5</ele>
        <time>1970-01-01T00:00:00Z</time>
      </trkpt>
      <trkpt lat="39.449052" lon="-5.326565">
        <ele>606.5</ele>
        <time>1970-01-01T00:00:00Z</time>
      </trkpt>
      <trkpt lat="39.449052" lon="-5.326565">
        <ele>606.5</ele>
        <time>1970-01-01T00:00:00Z</time>
      </trkpt>
      <trkpt lat="39.449052" lon="-5.326565">
        <ele>606.5</ele>
        <time>1970-01-01T00:00:00Z</time>
      </trkpt>
    </trkseg>
    <trkseg>
      <trkpt lat="39.401355" lon="-5.278327">
        <ele>514.7</ele>
        <time>1970-01-01T00:00:00Z</time>
      </trkpt>
      <trkpt lat="39.401355" lon="-5.278327">
        <ele>514.7</ele>
        <time>1970-01-01T00:00:00Z</time>
      </trkpt>
      <trkpt lat="39.401355" lon="-5.278327">
        <ele>514.7</ele>
        <time>1970-01-01T00:00:00Z</time>
      </trkpt>
      <trkpt lat="39.401355" lon="-5.278327">
        <ele>514.7</ele>
        <time>1970-01-01T00:00:00Z</time>
      </trkpt>
      <trkpt lat="39.401379" lon="-5.278114">
        <ele>513.7</ele>
        <time>1970-01-01T00:00:00Z</time>
      </trkpt>
      <trkpt lat="39.401379" lon="-5.278114">
        <ele>513.7</ele>
        <time>1970-01-01T00:00:00Z</time>
      </trkpt>
      <trkpt lat="39.401379" lon="-5.278114">
        <ele>513.7</ele>
        <time>1970-01-01T00:00:00Z</time>
      </trkpt>
      <trkpt lat="39.401379" lon="-5.278114">
        <ele>513.7</ele>
        <time>1970-01-01T00:00:00Z</time>
      </trkpt>
      <trkpt lat="39.401383" lon="-5.277780">
        <ele>512.8</ele>
        <time>1970-01-01T00:00:00Z</time>
      </trkpt>
      <trkpt lat="39.401383" lon="-5.277780">
        <ele>512.8</ele>
        <time>1970-01-01T00:00:00Z</time>
      </trkpt>
      <trkpt lat="39.401383" lon="-5.277780">
        <ele>512.8</ele>
        <time>1970-01-01T00:00:00Z</time>
      </trkpt>
      <trkpt lat="39.401383" lon="-5.277780">
        <ele>512.8</ele>
        <time>1970-01-01T00:00:00Z</time>
      </trkpt>
      <trkpt lat="39.401391" lon="-5.277065">
        <ele>511.8</ele>
        <time>1970-01-01T00:00:00Z</time>
      </trkpt>
      <trkpt lat="39.401391" lon="-5.277065">
        <ele>511.8</ele>
        <time>1970-01-01T00:00:00Z</time>
      </trkpt>
      <trkpt lat="39.401391" lon="-5.277065">
        <ele>511.8</ele>
        <time>1970-01-01T00:00:00Z</time>
      </trkpt>
      <trkpt lat="39.401391" lon="-5.277065">
        <ele>511.8</ele>
        <time>1970-01-01T00:00:00Z</time>
      </trkpt>
      <trkpt lat="39.401425" lon="-5.276787">
        <ele>511.4</ele>
        <time>1970-01-01T00:00:00Z</time>
      </trkpt>
      <trkpt lat="39.401425" lon="-5.276787">
        <ele>511.4</ele>
        <time>1970-01-01T00:00:00Z</time>
      </trkpt>
      <trkpt lat="39.401425" lon="-5.276787">
        <ele>511.4</ele>
        <time>1970-01-01T00:00:00Z</time>
      </trkpt>
      <trkpt lat="39.401425" lon="-5.276787">
        <ele>511.4</ele>
        <time>1970-01-01T00:00:00Z</time>
      </trkpt>
      <trkpt lat="39.401478" lon="-5.276172">
        <ele>510.4</ele>
        <time>1970-01-01T00:00:00Z</time>
      </trkpt>
      <trkpt lat="39.401478" lon="-5.276172">
        <ele>510.4</ele>
        <time>1970-01-01T00:00:00Z</time>
      </trkpt>
      <trkpt lat="39.401478" lon="-5.276172">
        <ele>510.4</ele>
        <time>1970-01-01T00:00:00Z</time>
      </trkpt>
      <trkpt lat="39.401478" lon="-5.276172">
        <ele>510.4</ele>
        <time>1970-01-01T00:00:00Z</time>
      </trkpt>
      <trkpt lat="39.401504" lon="-5.275708">
        <ele>509.7</ele>
        <time>1970-01-01T00:00:00Z</time>
      </trkpt>
      <trkpt lat="39.401504" lon="-5.275708">
        <ele>509.7</ele>
        <time>1970-01-01T00:00:00Z</time>
      </trkpt>
      <trkpt lat="39.401504" lon="-5.275708">
        <ele>509.7</ele>
        <time>1970-01-01T00:00:00Z</time>
      </trkpt>
      <trkpt lat="39.401504" lon="-5.275708">
        <ele>509.7</ele>
        <time>1970-01-01T00:00:00Z</time>
      </trkpt>
      <trkpt lat="39.401500" lon="-5.275593">
        <ele>509.3</ele>
        <time>1970-01-01T00:00:00Z</time>
      </trkpt>
      <trkpt lat="39.401500" lon="-5.275593">
        <ele>509.3</ele>
        <time>1970-01-01T00:00:00Z</time>
      </trkpt>
      <trkpt lat="39.401500" lon="-5.275593">
        <ele>509.3</ele>
        <time>1970-01-01T00:00:00Z</time>
      </trkpt>
      <trkpt lat="39.401500" lon="-5.275593">
        <ele>509.3</ele>
        <time>1970-01-01T00:00:00Z</time>
      </trkpt>
      <trkpt lat="39.401460" lon="-5.275400">
        <ele>509.4</ele>
        <time>1970-01-01T00:00:00Z</time>
      </trkpt>
      <trkpt lat="39.401460" lon="-5.275400">
        <ele>509.4</ele>
        <time>1970-01-01T00:00:00Z</time>
      </trkpt>
      <trkpt lat="39.401460" lon="-5.275400">
        <ele>509.4</ele>
        <time>1970-01-01T00:00:00Z</time>
      </trkpt>
      <trkpt lat="39.401460" lon="-5.275400">
        <ele>509.4</ele>
        <time>1970-01-01T00:00:00Z</time>
      </trkpt>
      <trkpt lat="39.401425" lon="-5.275249">
        <ele>509.5</ele>
        <time>1970-01-01T00:00:00Z</time>
      </trkpt>
      <trkpt lat="39.401425" lon="-5.275249">
        <ele>509.5</ele>
        <time>1970-01-01T00:00:00Z</time>
      </trkpt>
      <trkpt lat="39.401425" lon="-5.275249">
        <ele>509.5</ele>
        <time>1970-01-01T00:00:00Z</time>
      </trkpt>
      <trkpt lat="39.401425" lon="-5.275249">
        <ele>509.5</ele>
        <time>1970-01-01T00:00:00Z</time>
      </trkpt>
      <trkpt lat="39.401395" lon="-5.274815">
        <ele>508.5</ele>
        <time>1970-01-01T00:00:00Z</time>
      </trkpt>
      <trkpt lat="39.401395" lon="-5.274815">
        <ele>508.5</ele>
        <time>1970-01-01T00:00:00Z</time>
      </trkpt>
      <trkpt lat="39.401395" lon="-5.274815">
        <ele>508.5</ele>
        <time>1970-01-01T00:00:00Z</time>
      </trkpt>
      <trkpt lat="39.401395" lon="-5.274815">
        <ele>508.5</ele>
        <time>1970-01-01T00:00:00Z</time>
      </trkpt>
      <trkpt lat="39.401376" lon="-5.274275">
        <ele>508.7</ele>
        <time>1970-01-01T00:00:00Z</time>
      </trkpt>
      <trkpt lat="39.401376" lon="-5.274275">
        <ele>508.7</ele>
        <time>1970-01-01T00:00:00Z</time>
      </trkpt>
      <trkpt lat="39.401376" lon="-5.274275">
        <ele>508.7</ele>
        <time>1970-01-01T00:00:00Z</time>
      </trkpt>
      <trkpt lat="39.401376" lon="-5.274275">
        <ele>508.7</ele>
        <time>1970-01-01T00:00:00Z</time>
      </trkpt>
      <trkpt lat="39.401381" lon="-5.273494">
        <ele>506.7</ele>
        <time>1970-01-01T00:00:00Z</time>
      </trkpt>
      <trkpt lat="39.401381" lon="-5.273494">
        <ele>506.7</ele>
        <time>1970-01-01T00:00:00Z</time>
      </trkpt>
      <trkpt lat="39.401381" lon="-5.273494">
        <ele>506.7</ele>
        <time>1970-01-01T00:00:00Z</time>
      </trkpt>
      <trkpt lat="39.401381" lon="-5.273494">
        <ele>506.7</ele>
        <time>1970-01-01T00:00:00Z</time>
      </trkpt>
      <trkpt lat="39.401380" lon="-5.273181">
        <ele>505.9</ele>
        <time>1970-01-01T00:00:00Z</time>
      </trkpt>
      <trkpt lat="39.401380" lon="-5.273181">
        <ele>505.9</ele>
        <time>1970-01-01T00:00:00Z</time>
      </trkpt>
      <trkpt lat="39.401380" lon="-5.273181">
        <ele>505.9</ele>
        <time>1970-01-01T00:00:00Z</time>
      </trkpt>
      <trkpt lat="39.401380" lon="-5.273181">
        <ele>505.9</ele>
        <time>1970-01-01T00:00:00Z</time>
      </trkpt>
      <trkpt lat="39.401361" lon="-5.272784">
        <ele>504.3</ele>
        <time>1970-01-01T00:00:00Z</time>
      </trkpt>
      <trkpt lat="39.401361" lon="-5.272784">
        <ele>504.3</ele>
        <time>1970-01-01T00:00:00Z</time>
      </trkpt>
      <trkpt lat="39.401361" lon="-5.272784">
        <ele>504.3</ele>
        <time>1970-01-01T00:00:00Z</time>
      </trkpt>
      <trkpt lat="39.401361" lon="-5.272784">
        <ele>504.3</ele>
        <time>1970-01-01T00:00:00Z</time>
      </trkpt>
      <trkpt lat="39.401304" lon="-5.272396">
        <ele>502.5</ele>
        <time>1970-01-01T00:00:00Z</time>
      </trkpt>
      <trkpt lat="39.401304" lon="-5.272396">
        <ele>502.5</ele>
        <time>1970-01-01T00:00:00Z</time>
      </trkpt>
      <trkpt lat="39.401304" lon="-5.272396">
        <ele>502.5</ele>
        <time>1970-01-01T00:00:00Z</time>
      </trkpt>
      <trkpt lat="39.401304" lon="-5.272396">
        <ele>502.5</ele>
        <time>1970-01-01T00:00:00Z</time>
      </trkpt>
      <trkpt lat="39.401215" lon="-5.271582">
        <ele>498.4</ele>
        <time>1970-01-01T00:00:00Z</time>
      </trkpt>
      <trkpt lat="39.401215" lon="-5.271582">
        <ele>498.4</ele>
        <time>1970-01-01T00:00:00Z</time>
      </trkpt>
      <trkpt lat="39.401215" lon="-5.271582">
        <ele>498.4</ele>
        <time>1970-01-01T00:00:00Z</time>
      </trkpt>
      <trkpt lat="39.401215" lon="-5.271582">
        <ele>498.4</ele>
        <time>1970-01-01T00:00:00Z</time>
      </trkpt>
      <trkpt lat="39.401163" lon="-5.270923">
        <ele>493.5</ele>
        <time>1970-01-01T00:00:00Z</time>
      </trkpt>
      <trkpt lat="39.401163" lon="-5.270923">
        <ele>493.5</ele>
        <time>1970-01-01T00:00:00Z</time>
      </trkpt>
      <trkpt lat="39.401163" lon="-5.270923">
        <ele>493.5</ele>
        <time>1970-01-01T00:00:00Z</time>
      </trkpt>
      <trkpt lat="39.401163" lon="-5.270923">
        <ele>493.5</ele>
        <time>1970-01-01T00:00:00Z</time>
      </trkpt>
      <trkpt lat="39.401180" lon="-5.270516">
        <ele>493.4</ele>
        <time>1970-01-01T00:00:00Z</time>
      </trkpt>
      <trkpt lat="39.401180" lon="-5.270516">
        <ele>493.4</ele>
        <time>1970-01-01T00:00:00Z</time>
      </trkpt>
      <trkpt lat="39.401180" lon="-5.270516">
        <ele>493.4</ele>
        <time>1970-01-01T00:00:00Z</time>
      </trkpt>
      <trkpt lat="39.401180" lon="-5.270516">
        <ele>493.4</ele>
        <time>1970-01-01T00:00:00Z</time>
      </trkpt>
      <trkpt lat="39.401195" lon="-5.270256">
        <ele>493.4</ele>
        <time>1970-01-01T00:00:00Z</time>
      </trkpt>
      <trkpt lat="39.401195" lon="-5.270256">
        <ele>493.4</ele>
        <time>1970-01-01T00:00:00Z</time>
      </trkpt>
      <trkpt lat="39.401195" lon="-5.270256">
        <ele>493.4</ele>
        <time>1970-01-01T00:00:00Z</time>
      </trkpt>
      <trkpt lat="39.401195" lon="-5.270256">
        <ele>493.4</ele>
        <time>1970-01-01T00:00:00Z</time>
      </trkpt>
      <trkpt lat="39.401234" lon="-5.270076">
        <ele>493.2</ele>
        <time>1970-01-01T00:00:00Z</time>
      </trkpt>
      <trkpt lat="39.401234" lon="-5.270076">
        <ele>493.2</ele>
        <time>1970-01-01T00:00:00Z</time>
      </trkpt>
      <trkpt lat="39.401234" lon="-5.270076">
        <ele>493.2</ele>
        <time>1970-01-01T00:00:00Z</time>
      </trkpt>
      <trkpt lat="39.401234" lon="-5.270076">
        <ele>493.2</ele>
        <time>1970-01-01T00:00:00Z</time>
      </trkpt>
      <trkpt lat="39.401242" lon="-5.269972">
        <ele>493.2</ele>
        <time>1970-01-01T00:00:00Z</time>
      </trkpt>
      <trkpt lat="39.401242" lon="-5.269972">
        <ele>493.2</ele>
        <time>1970-01-01T00:00:00Z</time>
      </trkpt>
      <trkpt lat="39.401242" lon="-5.269972">
        <ele>493.2</ele>
        <time>1970-01-01T00:00:00Z</time>
      </trkpt>
      <trkpt lat="39.401242" lon="-5.269972">
        <ele>493.2</ele>
        <time>1970-01-01T00:00:00Z</time>
      </trkpt>
      <trkpt lat="39.401167" lon="-5.269329">
        <ele>494.3</ele>
        <time>1970-01-01T00:00:00Z</time>
      </trkpt>
      <trkpt lat="39.401167" lon="-5.269329">
        <ele>494.3</ele>
        <time>1970-01-01T00:00:00Z</time>
      </trkpt>
      <trkpt lat="39.401167" lon="-5.269329">
        <ele>494.3</ele>
        <time>1970-01-01T00:00:00Z</time>
      </trkpt>
      <trkpt lat="39.401167" lon="-5.269329">
        <ele>494.3</ele>
        <time>1970-01-01T00:00:00Z</time>
      </trkpt>
      <trkpt lat="39.401155" lon="-5.269171">
        <ele>494.5</ele>
        <time>1970-01-01T00:00:00Z</time>
      </trkpt>
      <trkpt lat="39.401155" lon="-5.269171">
        <ele>494.5</ele>
        <time>1970-01-01T00:00:00Z</time>
      </trkpt>
      <trkpt lat="39.401155" lon="-5.269171">
        <ele>494.5</ele>
        <time>1970-01-01T00:00:00Z</time>
      </trkpt>
      <trkpt lat="39.401155" lon="-5.269171">
        <ele>494.5</ele>
        <time>1970-01-01T00:00:00Z</time>
      </trkpt>
      <trkpt lat="39.401140" lon="-5.268976">
        <ele>494.6</ele>
        <time>1970-01-01T00:00:00Z</time>
      </trkpt>
      <trkpt lat="39.401140" lon="-5.268976">
        <ele>494.6</ele>
        <time>1970-01-01T00:00:00Z</time>
      </trkpt>
      <trkpt lat="39.401140" lon="-5.268976">
        <ele>494.6</ele>
        <time>1970-01-01T00:00:00Z</time>
      </trkpt>
      <trkpt lat="39.401140" lon="-5.268976">
        <ele>494.6</ele>
        <time>1970-01-01T00:00:00Z</time>
      </trkpt>
      <trkpt lat="39.401106" lon="-5.268626">
        <ele>494.5</ele>
        <time>1970-01-01T00:00:00Z</time>
      </trkpt>
      <trkpt lat="39.401106" lon="-5.268626">
        <ele>494.5</ele>
        <time>1970-01-01T00:00:00Z</time>
      </trkpt>
      <trkpt lat="39.401106" lon="-5.268626">
        <ele>494.5</ele>
        <time>1970-01-01T00:00:00Z</time>
      </trkpt>
      <trkpt lat="39.401106" lon="-5.268626">
        <ele>494.5</ele>
        <time>1970-01-01T00:00:00Z</time>
      </trkpt>
      <trkpt lat="39.401048" lon="-5.267902">
        <ele>492.0</ele>
        <time>1970-01-01T00:00:00Z</time>
      </trkpt>
      <trkpt lat="39.401048" lon="-5.267902">
        <ele>492.0</ele>
        <time>1970-01-01T00:00:00Z</time>
      </trkpt>
      <trkpt lat="39.401048" lon="-5.267902">
        <ele>492.0</ele>
        <time>1970-01-01T00:00:00Z</time>
      </trkpt>
      <trkpt lat="39.401048" lon="-5.267902">
        <ele>492.0</ele>
        <time>1970-01-01T00:00:00Z</time>
      </trkpt>
      <trkpt lat="39.401019" lon="-5.267727">
        <ele>491.3</ele>
        <time>1970-01-01T00:00:00Z</time>
      </trkpt>
      <trkpt lat="39.401019" lon="-5.267727">
        <ele>491.3</ele>
        <time>1970-01-01T00:00:00Z</time>
      </trkpt>
      <trkpt lat="39.401019" lon="-5.267727">
        <ele>491.3</ele>
        <time>1970-01-01T00:00:00Z</time>
      </trkpt>
      <trkpt lat="39.401019" lon="-5.267727">
        <ele>491.3</ele>
        <time>1970-01-01T00:00:00Z</time>
      </trkpt>
      <trkpt lat="39.400989" lon="-5.267588">
        <ele>490.5</ele>
        <time>1970-01-01T00:00:00Z</time>
      </trkpt>
      <trkpt lat="39.400989" lon="-5.267588">
        <ele>490.5</ele>
        <time>1970-01-01T00:00:00Z</time>
      </trkpt>
      <trkpt lat="39.400989" lon="-5.267588">
        <ele>490.5</ele>
        <time>1970-01-01T00:00:00Z</time>
      </trkpt>
      <trkpt lat="39.400989" lon="-5.267588">
        <ele>490.5</ele>
        <time>1970-01-01T00:00:00Z</time>
      </trkpt>
      <trkpt lat="39.400934" lon="-5.267375">
        <ele>489.2</ele>
        <time>1970-01-01T00:00:00Z</time>
      </trkpt>
      <trkpt lat="39.400934" lon="-5.267375">
        <ele>489.2</ele>
        <time>1970-01-01T00:00:00Z</time>
      </trkpt>
      <trkpt lat="39.400934" lon="-5.267375">
        <ele>489.2</ele>
        <time>1970-01-01T00:00:00Z</time>
      </trkpt>
      <trkpt lat="39.400934" lon="-5.267375">
        <ele>489.2</ele>
        <time>1970-01-01T00:00:00Z</time>
      </trkpt>
      <trkpt lat="39.400829" lon="-5.267046">
        <ele>488.2</ele>
        <time>1970-01-01T00:00:00Z</time>
      </trkpt>
      <trkpt lat="39.400829" lon="-5.267046">
        <ele>488.2</ele>
        <time>1970-01-01T00:00:00Z</time>
      </trkpt>
      <trkpt lat="39.400829" lon="-5.267046">
        <ele>488.2</ele>
        <time>1970-01-01T00:00:00Z</time>
      </trkpt>
      <trkpt lat="39.400829" lon="-5.267046">
        <ele>488.2</ele>
        <time>1970-01-01T00:00:00Z</time>
      </trkpt>
      <trkpt lat="39.400761" lon="-5.266814">
        <ele>487.5</ele>
        <time>1970-01-01T00:00:00Z</time>
      </trkpt>
      <trkpt lat="39.400761" lon="-5.266814">
        <ele>487.5</ele>
        <time>1970-01-01T00:00:00Z</time>
      </trkpt>
      <trkpt lat="39.400761" lon="-5.266814">
        <ele>487.5</ele>
        <time>1970-01-01T00:00:00Z</time>
      </trkpt>
      <trkpt lat="39.400761" lon="-5.266814">
        <ele>487.5</ele>
        <time>1970-01-01T00:00:00Z</time>
      </trkpt>
      <trkpt lat="39.400680" lon="-5.266491">
        <ele>487.1</ele>
        <time>1970-01-01T00:00:00Z</time>
      </trkpt>
      <trkpt lat="39.400680" lon="-5.266491">
        <ele>487.1</ele>
        <time>1970-01-01T00:00:00Z</time>
      </trkpt>
      <trkpt lat="39.400680" lon="-5.266491">
        <ele>487.1</ele>
        <time>1970-01-01T00:00:00Z</time>
      </trkpt>
      <trkpt lat="39.400680" lon="-5.266491">
        <ele>487.1</ele>
        <time>1970-01-01T00:00:00Z</time>
      </trkpt>
      <trkpt lat="39.400559" lon="-5.265949">
        <ele>488.6</ele>
        <time>1970-01-01T00:00:00Z</time>
      </trkpt>
      <trkpt lat="39.400559" lon="-5.265949">
        <ele>488.6</ele>
        <time>1970-01-01T00:00:00Z</time>
      </trkpt>
      <trkpt lat="39.400559" lon="-5.265949">
        <ele>488.6</ele>
        <time>1970-01-01T00:00:00Z</time>
      </trkpt>
      <trkpt lat="39.400559" lon="-5.265949">
        <ele>488.6</ele>
        <time>1970-01-01T00:00:00Z</time>
      </trkpt>
      <trkpt lat="39.400432" lon="-5.265386">
        <ele>492.5</ele>
        <time>1970-01-01T00:00:00Z</time>
      </trkpt>
      <trkpt lat="39.400432" lon="-5.265386">
        <ele>492.5</ele>
        <time>1970-01-01T00:00:00Z</time>
      </trkpt>
      <trkpt lat="39.400432" lon="-5.265386">
        <ele>492.5</ele>
        <time>1970-01-01T00:00:00Z</time>
      </trkpt>
      <trkpt lat="39.400432" lon="-5.265386">
        <ele>492.5</ele>
        <time>1970-01-01T00:00:00Z</time>
      </trkpt>
      <trkpt lat="39.400391" lon="-5.265248">
        <ele>492.9</ele>
        <time>1970-01-01T00:00:00Z</time>
      </trkpt>
      <trkpt lat="39.400391" lon="-5.265248">
        <ele>492.9</ele>
        <time>1970-01-01T00:00:00Z</time>
      </trkpt>
      <trkpt lat="39.400391" lon="-5.265248">
        <ele>492.9</ele>
        <time>1970-01-01T00:00:00Z</time>
      </trkpt>
      <trkpt lat="39.400391" lon="-5.265248">
        <ele>492.9</ele>
        <time>1970-01-01T00:00:00Z</time>
      </trkpt>
      <trkpt lat="39.400328" lon="-5.265092">
        <ele>493.0</ele>
        <time>1970-01-01T00:00:00Z</time>
      </trkpt>
      <trkpt lat="39.400328" lon="-5.265092">
        <ele>493.0</ele>
        <time>1970-01-01T00:00:00Z</time>
      </trkpt>
      <trkpt lat="39.400328" lon="-5.265092">
        <ele>493.0</ele>
        <time>1970-01-01T00:00:00Z</time>
      </trkpt>
      <trkpt lat="39.400328" lon="-5.265092">
        <ele>493.0</ele>
        <time>1970-01-01T00:00:00Z</time>
      </trkpt>
      <trkpt lat="39.400106" lon="-5.264601">
        <ele>493.1</ele>
        <time>1970-01-01T00:00:00Z</time>
      </trkpt>
      <trkpt lat="39.400106" lon="-5.264601">
        <ele>493.1</ele>
        <time>1970-01-01T00:00:00Z</time>
      </trkpt>
      <trkpt lat="39.400106" lon="-5.264601">
        <ele>493.1</ele>
        <time>1970-01-01T00:00:00Z</time>
      </trkpt>
      <trkpt lat="39.400106" lon="-5.264601">
        <ele>493.1</ele>
        <time>1970-01-01T00:00:00Z</time>
      </trkpt>
      <trkpt lat="39.399848" lon="-5.264025">
        <ele>492.6</ele>
        <time>1970-01-01T00:00:00Z</time>
      </trkpt>
      <trkpt lat="39.399848" lon="-5.264025">
        <ele>492.6</ele>
        <time>1970-01-01T00:00:00Z</time>
      </trkpt>
      <trkpt lat="39.399848" lon="-5.264025">
        <ele>492.6</ele>
        <time>1970-01-01T00:00:00Z</time>
      </trkpt>
      <trkpt lat="39.399848" lon="-5.264025">
        <ele>492.6</ele>
        <time>1970-01-01T00:00:00Z</time>
      </trkpt>
      <trkpt lat="39.399771" lon="-5.263849">
        <ele>492.5</ele>
        <time>1970-01-01T00:00:00Z</time>
      </trkpt>
      <trkpt lat="39.399771" lon="-5.263849">
        <ele>492.5</ele>
        <time>1970-01-01T00:00:00Z</time>
      </trkpt>
      <trkpt lat="39.399771" lon="-5.263849">
        <ele>492.5</ele>
        <time>1970-01-01T00:00:00Z</time>
      </trkpt>
      <trkpt lat="39.399771" lon="-5.263849">
        <ele>492.5</ele>
        <time>1970-01-01T00:00:00Z</time>
      </trkpt>
      <trkpt lat="39.399612" lon="-5.263485">
        <ele>492.1</ele>
        <time>1970-01-01T00:00:00Z</time>
      </trkpt>
      <trkpt lat="39.399612" lon="-5.263485">
        <ele>492.1</ele>
        <time>1970-01-01T00:00:00Z</time>
      </trkpt>
      <trkpt lat="39.399612" lon="-5.263485">
        <ele>492.1</ele>
        <time>1970-01-01T00:00:00Z</time>
      </trkpt>
      <trkpt lat="39.399612" lon="-5.263485">
        <ele>492.1</ele>
        <time>1970-01-01T00:00:00Z</time>
      </trkpt>
      <trkpt lat="39.399474" lon="-5.263181">
        <ele>491.5</ele>
        <time>1970-01-01T00:00:00Z</time>
      </trkpt>
      <trkpt lat="39.399474" lon="-5.263181">
        <ele>491.5</ele>
        <time>1970-01-01T00:00:00Z</time>
      </trkpt>
      <trkpt lat="39.399474" lon="-5.263181">
        <ele>491.5</ele>
        <time>1970-01-01T00:00:00Z</time>
      </trkpt>
      <trkpt lat="39.399474" lon="-5.263181">
        <ele>491.5</ele>
        <time>1970-01-01T00:00:00Z</time>
      </trkpt>
      <trkpt lat="39.399410" lon="-5.263009">
        <ele>491.3</ele>
        <time>1970-01-01T00:00:00Z</time>
      </trkpt>
      <trkpt lat="39.399410" lon="-5.263009">
        <ele>491.3</ele>
        <time>1970-01-01T00:00:00Z</time>
      </trkpt>
      <trkpt lat="39.399410" lon="-5.263009">
        <ele>491.3</ele>
        <time>1970-01-01T00:00:00Z</time>
      </trkpt>
      <trkpt lat="39.399410" lon="-5.263009">
        <ele>491.3</ele>
        <time>1970-01-01T00:00:00Z</time>
      </trkpt>
      <trkpt lat="39.399380" lon="-5.262883">
        <ele>492.1</ele>
        <time>1970-01-01T00:00:00Z</time>
      </trkpt>
      <trkpt lat="39.399380" lon="-5.262883">
        <ele>492.1</ele>
        <time>1970-01-01T00:00:00Z</time>
      </trkpt>
      <trkpt lat="39.399380" lon="-5.262883">
        <ele>492.1</ele>
        <time>1970-01-01T00:00:00Z</time>
      </trkpt>
      <trkpt lat="39.399380" lon="-5.262883">
        <ele>492.1</ele>
        <time>1970-01-01T00:00:00Z</time>
      </trkpt>
      <trkpt lat="39.399390" lon="-5.262768">
        <ele>492.5</ele>
        <time>1970-01-01T00:00:00Z</time>
      </trkpt>
      <trkpt lat="39.399390" lon="-5.262768">
        <ele>492.5</ele>
        <time>1970-01-01T00:00:00Z</time>
      </trkpt>
      <trkpt lat="39.399390" lon="-5.262768">
        <ele>492.5</ele>
        <time>1970-01-01T00:00:00Z</time>
      </trkpt>
      <trkpt lat="39.399390" lon="-5.262768">
        <ele>492.5</ele>
        <time>1970-01-01T00:00:00Z</time>
      </trkpt>
      <trkpt lat="39.399418" lon="-5.262685">
        <ele>492.6</ele>
        <time>1970-01-01T00:00:00Z</time>
      </trkpt>
      <trkpt lat="39.399418" lon="-5.262685">
        <ele>492.6</ele>
        <time>1970-01-01T00:00:00Z</time>
      </trkpt>
      <trkpt lat="39.399418" lon="-5.262685">
        <ele>492.6</ele>
        <time>1970-01-01T00:00:00Z</time>
      </trkpt>
      <trkpt lat="39.399418" lon="-5.262685">
        <ele>492.6</ele>
        <time>1970-01-01T00:00:00Z</time>
      </trkpt>
      <trkpt lat="39.399470" lon="-5.262646">
        <ele>492.4</ele>
        <time>1970-01-01T00:00:00Z</time>
      </trkpt>
      <trkpt lat="39.399470" lon="-5.262646">
        <ele>492.4</ele>
        <time>1970-01-01T00:00:00Z</time>
      </trkpt>
      <trkpt lat="39.399470" lon="-5.262646">
        <ele>492.4</ele>
        <time>1970-01-01T00:00:00Z</time>
      </trkpt>
      <trkpt lat="39.399470" lon="-5.262646">
        <ele>492.4</ele>
        <time>1970-01-01T00:00:00Z</time>
      </trkpt>
      <trkpt lat="39.399568" lon="-5.262551">
        <ele>491.9</ele>
        <time>1970-01-01T00:00:00Z</time>
      </trkpt>
      <trkpt lat="39.399568" lon="-5.262551">
        <ele>491.9</ele>
        <time>1970-01-01T00:00:00Z</time>
      </trkpt>
      <trkpt lat="39.399568" lon="-5.262551">
        <ele>491.9</ele>
        <time>1970-01-01T00:00:00Z</time>
      </trkpt>
      <trkpt lat="39.399568" lon="-5.262551">
        <ele>491.9</ele>
        <time>1970-01-01T00:00:00Z</time>
      </trkpt>
      <trkpt lat="39.400084" lon="-5.262241">
        <ele>489.9</ele>
        <time>1970-01-01T00:00:00Z</time>
      </trkpt>
      <trkpt lat="39.400084" lon="-5.262241">
        <ele>489.9</ele>
        <time>1970-01-01T00:00:00Z</time>
      </trkpt>
      <trkpt lat="39.400084" lon="-5.262241">
        <ele>489.9</ele>
        <time>1970-01-01T00:00:00Z</time>
      </trkpt>
      <trkpt lat="39.400084" lon="-5.262241">
        <ele>489.9</ele>
        <time>1970-01-01T00:00:00Z</time>
      </trkpt>
      <trkpt lat="39.400387" lon="-5.262034">
        <ele>488.3</ele>
        <time>1970-01-01T00:00:00Z</time>
      </trkpt>
      <trkpt lat="39.400387" lon="-5.262034">
        <ele>488.3</ele>
        <time>1970-01-01T00:00:00Z</time>
      </trkpt>
      <trkpt lat="39.400387" lon="-5.262034">
        <ele>488.3</ele>
        <time>1970-01-01T00:00:00Z</time>
      </trkpt>
      <trkpt lat="39.400387" lon="-5.262034">
        <ele>488.3</ele>
        <time>1970-01-01T00:00:00Z</time>
      </trkpt>
      <trkpt lat="39.400742" lon="-5.261810">
        <ele>488.9</ele>
        <time>1970-01-01T00:00:00Z</time>
      </trkpt>
      <trkpt lat="39.400742" lon="-5.261810">
        <ele>488.9</ele>
        <time>1970-01-01T00:00:00Z</time>
      </trkpt>
      <trkpt lat="39.400742" lon="-5.261810">
        <ele>488.9</ele>
        <time>1970-01-01T00:00:00Z</time>
      </trkpt>
      <trkpt lat="39.400742" lon="-5.261810">
        <ele>488.9</ele>
        <time>1970-01-01T00:00:00Z</time>
      </trkpt>
      <trkpt lat="39.401187" lon="-5.261572">
        <ele>487.5</ele>
        <time>1970-01-01T00:00:00Z</time>
      </trkpt>
      <trkpt lat="39.401187" lon="-5.261572">
        <ele>487.5</ele>
        <time>1970-01-01T00:00:00Z</time>
      </trkpt>
      <trkpt lat="39.401187" lon="-5.261572">
        <ele>487.5</ele>
        <time>1970-01-01T00:00:00Z</time>
      </trkpt>
      <trkpt lat="39.401187" lon="-5.261572">
        <ele>487.5</ele>
        <time>1970-01-01T00:00:00Z</time>
      </trkpt>
      <trkpt lat="39.401644" lon="-5.261289">
        <ele>487.2</ele>
        <time>1970-01-01T00:00:00Z</time>
      </trkpt>
      <trkpt lat="39.401644" lon="-5.261289">
        <ele>487.2</ele>
        <time>1970-01-01T00:00:00Z</time>
      </trkpt>
      <trkpt lat="39.401644" lon="-5.261289">
        <ele>487.2</ele>
        <time>1970-01-01T00:00:00Z</time>
      </trkpt>
      <trkpt lat="39.401644" lon="-5.261289">
        <ele>487.2</ele>
        <time>1970-01-01T00:00:00Z</time>
      </trkpt>
      <trkpt lat="39.401906" lon="-5.261118">
        <ele>487.3</ele>
        <time>1970-01-01T00:00:00Z</time>
      </trkpt>
      <trkpt lat="39.401906" lon="-5.261118">
        <ele>487.3</ele>
        <time>1970-01-01T00:00:00Z</time>
      </trkpt>
      <trkpt lat="39.401906" lon="-5.261118">
        <ele>487.3</ele>
        <time>1970-01-01T00:00:00Z</time>
      </trkpt>
      <trkpt lat="39.401906" lon="-5.261118">
        <ele>487.3</ele>
        <time>1970-01-01T00:00:00Z</time>
      </trkpt>
      <trkpt lat="39.402063" lon="-5.261008">
        <ele>487.4</ele>
        <time>1970-01-01T00:00:00Z</time>
      </trkpt>
      <trkpt lat="39.402063" lon="-5.261008">
        <ele>487.4</ele>
        <time>1970-01-01T00:00:00Z</time>
      </trkpt>
      <trkpt lat="39.402063" lon="-5.261008">
        <ele>487.4</ele>
        <time>1970-01-01T00:00:00Z</time>
      </trkpt>
      <trkpt lat="39.402063" lon="-5.261008">
        <ele>487.4</ele>
        <time>1970-01-01T00:00:00Z</time>
      </trkpt>
      <trkpt lat="39.402264" lon="-5.260857">
        <ele>487.2</ele>
        <time>1970-01-01T00:00:00Z</time>
      </trkpt>
      <trkpt lat="39.402264" lon="-5.260857">
        <ele>487.2</ele>
        <time>1970-01-01T00:00:00Z</time>
      </trkpt>
      <trkpt lat="39.402264" lon="-5.260857">
        <ele>487.2</ele>
        <time>1970-01-01T00:00:00Z</time>
      </trkpt>
      <trkpt lat="39.402264" lon="-5.260857">
        <ele>487.2</ele>
        <time>1970-01-01T00:00:00Z</time>
      </trkpt>
      <trkpt lat="39.402457" lon="-5.260690">
        <ele>487.0</ele>
        <time>1970-01-01T00:00:00Z</time>
      </trkpt>
      <trkpt lat="39.402457" lon="-5.260690">
        <ele>487.0</ele>
        <time>1970-01-01T00:00:00Z</time>
      </trkpt>
      <trkpt lat="39.402457" lon="-5.260690">
        <ele>487.0</ele>
        <time>1970-01-01T00:00:00Z</time>
      </trkpt>
      <trkpt lat="39.402457" lon="-5.260690">
        <ele>487.0</ele>
        <time>1970-01-01T00:00:00Z</time>
      </trkpt>
      <trkpt lat="39.402559" lon="-5.260618">
        <ele>486.4</ele>
        <time>1970-01-01T00:00:00Z</time>
      </trkpt>
      <trkpt lat="39.402559" lon="-5.260618">
        <ele>486.4</ele>
        <time>1970-01-01T00:00:00Z</time>
      </trkpt>
      <trkpt lat="39.402559" lon="-5.260618">
        <ele>486.4</ele>
        <time>1970-01-01T00:00:00Z</time>
      </trkpt>
      <trkpt lat="39.402559" lon="-5.260618">
        <ele>486.4</ele>
        <time>1970-01-01T00:00:00Z</time>
      </trkpt>
      <trkpt lat="39.402825" lon="-5.260454">
        <ele>485.6</ele>
        <time>1970-01-01T00:00:00Z</time>
      </trkpt>
      <trkpt lat="39.402825" lon="-5.260454">
        <ele>485.6</ele>
        <time>1970-01-01T00:00:00Z</time>
      </trkpt>
      <trkpt lat="39.402825" lon="-5.260454">
        <ele>485.6</ele>
        <time>1970-01-01T00:00:00Z</time>
      </trkpt>
      <trkpt lat="39.402825" lon="-5.260454">
        <ele>485.6</ele>
        <time>1970-01-01T00:00:00Z</time>
      </trkpt>
      <trkpt lat="39.402873" lon="-5.260416">
        <ele>485.5</ele>
        <time>1970-01-01T00:00:00Z</time>
      </trkpt>
      <trkpt lat="39.402873" lon="-5.260416">
        <ele>485.5</ele>
        <time>1970-01-01T00:00:00Z</time>
      </trkpt>
      <trkpt lat="39.402873" lon="-5.260416">
        <ele>485.5</ele>
        <time>1970-01-01T00:00:00Z</time>
      </trkpt>
      <trkpt lat="39.402873" lon="-5.260416">
        <ele>485.5</ele>
        <time>1970-01-01T00:00:00Z</time>
      </trkpt>
      <trkpt lat="39.402959" lon="-5.260329">
        <ele>485.5</ele>
        <time>1970-01-01T00:00:00Z</time>
      </trkpt>
      <trkpt lat="39.402959" lon="-5.260329">
        <ele>485.5</ele>
        <time>1970-01-01T00:00:00Z</time>
      </trkpt>
      <trkpt lat="39.402959" lon="-5.260329">
        <ele>485.5</ele>
        <time>1970-01-01T00:00:00Z</time>
      </trkpt>
      <trkpt lat="39.402959" lon="-5.260329">
        <ele>485.5</ele>
        <time>1970-01-01T00:00:00Z</time>
      </trkpt>
      <trkpt lat="39.403311" lon="-5.259888">
        <ele>483.6</ele>
        <time>1970-01-01T00:00:00Z</time>
      </trkpt>
      <trkpt lat="39.403311" lon="-5.259888">
        <ele>483.6</ele>
        <time>1970-01-01T00:00:00Z</time>
      </trkpt>
      <trkpt lat="39.403311" lon="-5.259888">
        <ele>483.6</ele>
        <time>1970-01-01T00:00:00Z</time>
      </trkpt>
      <trkpt lat="39.403311" lon="-5.259888">
        <ele>483.6</ele>
        <time>1970-01-01T00:00:00Z</time>
      </trkpt>
      <trkpt lat="39.403463" lon="-5.259688">
        <ele>482.6</ele>
        <time>1970-01-01T00:00:00Z</time>
      </trkpt>
      <trkpt lat="39.403463" lon="-5.259688">
        <ele>482.6</ele>
        <time>1970-01-01T00:00:00Z</time>
      </trkpt>
      <trkpt lat="39.403463" lon="-5.259688">
        <ele>482.6</ele>
        <time>1970-01-01T00:00:00Z</time>
      </trkpt>
      <trkpt lat="39.403463" lon="-5.259688">
        <ele>482.6</ele>
        <time>1970-01-01T00:00:00Z</time>
      </trkpt>
      <trkpt lat="39.403592" lon="-5.259581">
        <ele>482.0</ele>
        <time>1970-01-01T00:00:00Z</time>
      </trkpt>
      <trkpt lat="39.403592" lon="-5.259581">
        <ele>482.0</ele>
        <time>1970-01-01T00:00:00Z</time>
      </trkpt>
      <trkpt lat="39.403592" lon="-5.259581">
        <ele>482.0</ele>
        <time>1970-01-01T00:00:00Z</time>
      </trkpt>
      <trkpt lat="39.403592" lon="-5.259581">
        <ele>482.0</ele>
        <time>1970-01-01T00:00:00Z</time>
      </trkpt>
      <trkpt lat="39.403778" lon="-5.259479">
        <ele>481.2</ele>
        <time>1970-01-01T00:00:00Z</time>
      </trkpt>
      <trkpt lat="39.403778" lon="-5.259479">
        <ele>481.2</ele>
        <time>1970-01-01T00:00:00Z</time>
      </trkpt>
      <trkpt lat="39.403778" lon="-5.259479">
        <ele>481.2</ele>
        <time>1970-01-01T00:00:00Z</time>
      </trkpt>
      <trkpt lat="39.403778" lon="-5.259479">
        <ele>481.2</ele>
        <time>1970-01-01T00:00:00Z</time>
      </trkpt>
      <trkpt lat="39.403982" lon="-5.259386">
        <ele>480.3</ele>
        <time>1970-01-01T00:00:00Z</time>
      </trkpt>
      <trkpt lat="39.403982" lon="-5.259386">
        <ele>480.3</ele>
        <time>1970-01-01T00:00:00Z</time>
      </trkpt>
      <trkpt lat="39.403982" lon="-5.259386">
        <ele>480.3</ele>
        <time>1970-01-01T00:00:00Z</time>
      </trkpt>
      <trkpt lat="39.403982" lon="-5.259386">
        <ele>480.3</ele>
        <time>1970-01-01T00:00:00Z</time>
      </trkpt>
      <trkpt lat="39.404180" lon="-5.259285">
        <ele>480.1</ele>
        <time>1970-01-01T00:00:00Z</time>
      </trkpt>
      <trkpt lat="39.404180" lon="-5.259285">
        <ele>480.1</ele>
        <time>1970-01-01T00:00:00Z</time>
      </trkpt>
      <trkpt lat="39.404180" lon="-5.259285">
        <ele>480.1</ele>
        <time>1970-01-01T00:00:00Z</time>
      </trkpt>
      <trkpt lat="39.404180" lon="-5.259285">
        <ele>480.1</ele>
        <time>1970-01-01T00:00:00Z</time>
      </trkpt>
      <trkpt lat="39.404299" lon="-5.259219">
        <ele>480.0</ele>
        <time>1970-01-01T00:00:00Z</time>
      </trkpt>
      <trkpt lat="39.404299" lon="-5.259219">
        <ele>480.0</ele>
        <time>1970-01-01T00:00:00Z</time>
      </trkpt>
      <trkpt lat="39.404299" lon="-5.259219">
        <ele>480.0</ele>
        <time>1970-01-01T00:00:00Z</time>
      </trkpt>
      <trkpt lat="39.404299" lon="-5.259219">
        <ele>480.0</ele>
        <time>1970-01-01T00:00:00Z</time>
      </trkpt>
      <trkpt lat="39.404802" lon="-5.258874">
        <ele>479.8</ele>
        <time>1970-01-01T00:00:00Z</time>
      </trkpt>
      <trkpt lat="39.404802" lon="-5.258874">
        <ele>479.8</ele>
        <time>1970-01-01T00:00:00Z</time>
      </trkpt>
      <trkpt lat="39.404802" lon="-5.258874">
        <ele>479.8</ele>
        <time>1970-01-01T00:00:00Z</time>
      </trkpt>
      <trkpt lat="39.404802" lon="-5.258874">
        <ele>479.8</ele>
        <time>1970-01-01T00:00:00Z</time>
      </trkpt>
      <trkpt lat="39.404922" lon="-5.258795">
        <ele>479.3</ele>
        <time>1970-01-01T00:00:00Z</time>
      </trkpt>
      <trkpt lat="39.404922" lon="-5.258795">
        <ele>479.3</ele>
        <time>1970-01-01T00:00:00Z</time>
      </trkpt>
      <trkpt lat="39.404922" lon="-5.258795">
        <ele>479.3</ele>
        <time>1970-01-01T00:00:00Z</time>
      </trkpt>
      <trkpt lat="39.404922" lon="-5.258795">
        <ele>479.3</ele>
        <time>1970-01-01T00:00:00Z</time>
      </trkpt>
      <trkpt lat="39.405083" lon="-5.258655">
        <ele>478.6</ele>
        <time>1970-01-01T00:00:00Z</time>
      </trkpt>
      <trkpt lat="39.405083" lon="-5.258655">
        <ele>478.6</ele>
        <time>1970-01-01T00:00:00Z</time>
      </trkpt>
      <trkpt lat="39.405083" lon="-5.258655">
        <ele>478.6</ele>
        <time>1970-01-01T00:00:00Z</time>
      </trkpt>
      <trkpt lat="39.405083" lon="-5.258655">
        <ele>478.6</ele>
        <time>1970-01-01T00:00:00Z</time>
      </trkpt>
      <trkpt lat="39.405148" lon="-5.258607">
        <ele>478.3</ele>
        <time>1970-01-01T00:00:00Z</time>
      </trkpt>
      <trkpt lat="39.405148" lon="-5.258607">
        <ele>478.3</ele>
        <time>1970-01-01T00:00:00Z</time>
      </trkpt>
      <trkpt lat="39.405148" lon="-5.258607">
        <ele>478.3</ele>
        <time>1970-01-01T00:00:00Z</time>
      </trkpt>
      <trkpt lat="39.405148" lon="-5.258607">
        <ele>478.3</ele>
        <time>1970-01-01T00:00:00Z</time>
      </trkpt>
      <trkpt lat="39.405218" lon="-5.258568">
        <ele>478.0</ele>
        <time>1970-01-01T00:00:00Z</time>
      </trkpt>
      <trkpt lat="39.405218" lon="-5.258568">
        <ele>478.0</ele>
        <time>1970-01-01T00:00:00Z</time>
      </trkpt>
      <trkpt lat="39.405218" lon="-5.258568">
        <ele>478.0</ele>
        <time>1970-01-01T00:00:00Z</time>
      </trkpt>
      <trkpt lat="39.405218" lon="-5.258568">
        <ele>478.0</ele>
        <time>1970-01-01T00:00:00Z</time>
      </trkpt>
      <trkpt lat="39.405440" lon="-5.258497">
        <ele>477.0</ele>
        <time>1970-01-01T00:00:00Z</time>
      </trkpt>
      <trkpt lat="39.405440" lon="-5.258497">
        <ele>477.0</ele>
        <time>1970-01-01T00:00:00Z</time>
      </trkpt>
      <trkpt lat="39.405440" lon="-5.258497">
        <ele>477.0</ele>
        <time>1970-01-01T00:00:00Z</time>
      </trkpt>
      <trkpt lat="39.405440" lon="-5.258497">
        <ele>477.0</ele>
        <time>1970-01-01T00:00:00Z</time>
      </trkpt>
      <trkpt lat="39.405546" lon="-5.258461">
        <ele>476.6</ele>
        <time>1970-01-01T00:00:00Z</time>
      </trkpt>
      <trkpt lat="39.405546" lon="-5.258461">
        <ele>476.6</ele>
        <time>1970-01-01T00:00:00Z</time>
      </trkpt>
      <trkpt lat="39.405546" lon="-5.258461">
        <ele>476.6</ele>
        <time>1970-01-01T00:00:00Z</time>
      </trkpt>
      <trkpt lat="39.405546" lon="-5.258461">
        <ele>476.6</ele>
        <time>1970-01-01T00:00:00Z</time>
      </trkpt>
      <trkpt lat="39.405766" lon="-5.258346">
        <ele>476.0</ele>
        <time>1970-01-01T00:00:00Z</time>
      </trkpt>
      <trkpt lat="39.405766" lon="-5.258346">
        <ele>476.0</ele>
        <time>1970-01-01T00:00:00Z</time>
      </trkpt>
      <trkpt lat="39.405766" lon="-5.258346">
        <ele>476.0</ele>
        <time>1970-01-01T00:00:00Z</time>
      </trkpt>
      <trkpt lat="39.405766" lon="-5.258346">
        <ele>476.0</ele>
        <time>1970-01-01T00:00:00Z</time>
      </trkpt>
      <trkpt lat="39.406112" lon="-5.258121">
        <ele>476.0</ele>
        <time>1970-01-01T00:00:00Z</time>
      </trkpt>
      <trkpt lat="39.406112" lon="-5.258121">
        <ele>476.0</ele>
        <time>1970-01-01T00:00:00Z</time>
      </trkpt>
      <trkpt lat="39.406112" lon="-5.258121">
        <ele>476.0</ele>
        <time>1970-01-01T00:00:00Z</time>
      </trkpt>
      <trkpt lat="39.406112" lon="-5.258121">
        <ele>476.0</ele>
        <time>1970-01-01T00:00:00Z</time>
      </trkpt>
      <trkpt lat="39.406449" lon="-5.257880">
        <ele>475.3</ele>
        <time>1970-01-01T00:00:00Z</time>
      </trkpt>
      <trkpt lat="39.406449" lon="-5.257880">
        <ele>475.3</ele>
        <time>1970-01-01T00:00:00Z</time>
      </trkpt>
      <trkpt lat="39.406449" lon="-5.257880">
        <ele>475.3</ele>
        <time>1970-01-01T00:00:00Z</time>
      </trkpt>
      <trkpt lat="39.406449" lon="-5.257880">
        <ele>475.3</ele>
        <time>1970-01-01T00:00:00Z</time>
      </trkpt>
      <trkpt lat="39.406723" lon="-5.257661">
        <ele>473.6</ele>
        <time>1970-01-01T00:00:00Z</time>
      </trkpt>
      <trkpt lat="39.406723" lon="-5.257661">
        <ele>473.6</ele>
        <time>1970-01-01T00:00:00Z</time>
      </trkpt>
      <trkpt lat="39.406723" lon="-5.257661">
        <ele>473.6</ele>
        <time>1970-01-01T00:00:00Z</time>
      </trkpt>
      <trkpt lat="39.406723" lon="-5.257661">
        <ele>473.6</ele>
        <time>1970-01-01T00:00:00Z</time>
      </trkpt>
      <trkpt lat="39.407047" lon="-5.257402">
        <ele>472.1</ele>
        <time>1970-01-01T00:00:00Z</time>
      </trkpt>
      <trkpt lat="39.407047" lon="-5.257402">
        <ele>472.1</ele>
        <time>1970-01-01T00:00:00Z</time>
      </trkpt>
      <trkpt lat="39.407047" lon="-5.257402">
        <ele>472.1</ele>
        <time>1970-01-01T00:00:00Z</time>
      </trkpt>
      <trkpt lat="39.407047" lon="-5.257402">
        <ele>472.1</ele>
        <time>1970-01-01T00:00:00Z</time>
      </trkpt>
      <trkpt lat="39.407265" lon="-5.257235">
        <ele>471.2</ele>
        <time>1970-01-01T00:00:00Z</time>
      </trkpt>
      <trkpt lat="39.407265" lon="-5.257235">
        <ele>471.2</ele>
        <time>1970-01-01T00:00:00Z</time>
      </trkpt>
      <trkpt lat="39.407265" lon="-5.257235">
        <ele>471.2</ele>
        <time>1970-01-01T00:00:00Z</time>
      </trkpt>
      <trkpt lat="39.407265" lon="-5.257235">
        <ele>471.2</ele>
        <time>1970-01-01T00:00:00Z</time>
      </trkpt>
      <trkpt lat="39.407418" lon="-5.257113">
        <ele>471.3</ele>
        <time>1970-01-01T00:00:00Z</time>
      </trkpt>
      <trkpt lat="39.407418" lon="-5.257113">
        <ele>471.3</ele>
        <time>1970-01-01T00:00:00Z</time>
      </trkpt>
      <trkpt lat="39.407418" lon="-5.257113">
        <ele>471.3</ele>
        <time>1970-01-01T00:00:00Z</time>
      </trkpt>
      <trkpt lat="39.407418" lon="-5.257113">
        <ele>471.3</ele>
        <time>1970-01-01T00:00:00Z</time>
      </trkpt>
      <trkpt lat="39.407646" lon="-5.256969">
        <ele>471.1</ele>
        <time>1970-01-01T00:00:00Z</time>
      </trkpt>
      <trkpt lat="39.407646" lon="-5.256969">
        <ele>471.1</ele>
        <time>1970-01-01T00:00:00Z</time>
      </trkpt>
      <trkpt lat="39.407646" lon="-5.256969">
        <ele>471.1</ele>
        <time>1970-01-01T00:00:00Z</time>
      </trkpt>
      <trkpt lat="39.407646" lon="-5.256969">
        <ele>471.1</ele>
        <time>1970-01-01T00:00:00Z</time>
      </trkpt>
      <trkpt lat="39.407756" lon="-5.256901">
        <ele>471.0</ele>
        <time>1970-01-01T00:00:00Z</time>
      </trkpt>
      <trkpt lat="39.407756" lon="-5.256901">
        <ele>471.0</ele>
        <time>1970-01-01T00:00:00Z</time>
      </trkpt>
      <trkpt lat="39.407756" lon="-5.256901">
        <ele>471.0</ele>
        <time>1970-01-01T00:00:00Z</time>
      </trkpt>
      <trkpt lat="39.407756" lon="-5.256901">
        <ele>471.0</ele>
        <time>1970-01-01T00:00:00Z</time>
      </trkpt>
      <trkpt lat="39.407917" lon="-5.256784">
        <ele>471.1</ele>
        <time>1970-01-01T00:00:00Z</time>
      </trkpt>
      <trkpt lat="39.407917" lon="-5.256784">
        <ele>471.1</ele>
        <time>1970-01-01T00:00:00Z</time>
      </trkpt>
      <trkpt lat="39.407917" lon="-5.256784">
        <ele>471.1</ele>
        <time>1970-01-01T00:00:00Z</time>
      </trkpt>
      <trkpt lat="39.407917" lon="-5.256784">
        <ele>471.1</ele>
        <time>1970-01-01T00:00:00Z</time>
      </trkpt>
      <trkpt lat="39.408033" lon="-5.256731">
        <ele>471.2</ele>
        <time>1970-01-01T00:00:00Z</time>
      </trkpt>
      <trkpt lat="39.408033" lon="-5.256731">
        <ele>471.2</ele>
        <time>1970-01-01T00:00:00Z</time>
      </trkpt>
      <trkpt lat="39.408033" lon="-5.256731">
        <ele>471.2</ele>
        <time>1970-01-01T00:00:00Z</time>
      </trkpt>
      <trkpt lat="39.408033" lon="-5.256731">
        <ele>471.2</ele>
        <time>1970-01-01T00:00:00Z</time>
      </trkpt>
      <trkpt lat="39.408471" lon="-5.256551">
        <ele>471.1</ele>
        <time>1970-01-01T00:00:00Z</time>
      </trkpt>
      <trkpt lat="39.408471" lon="-5.256551">
        <ele>471.1</ele>
        <time>1970-01-01T00:00:00Z</time>
      </trkpt>
      <trkpt lat="39.408471" lon="-5.256551">
        <ele>471.1</ele>
        <time>1970-01-01T00:00:00Z</time>
      </trkpt>
      <trkpt lat="39.408471" lon="-5.256551">
        <ele>471.1</ele>
        <time>1970-01-01T00:00:00Z</time>
      </trkpt>
      <trkpt lat="39.408569" lon="-5.256503">
        <ele>471.1</ele>
        <time>1970-01-01T00:00:00Z</time>
      </trkpt>
      <trkpt lat="39.408569" lon="-5.256503">
        <ele>471.1</ele>
        <time>1970-01-01T00:00:00Z</time>
      </trkpt>
      <trkpt lat="39.408569" lon="-5.256503">
        <ele>471.1</ele>
        <time>1970-01-01T00:00:00Z</time>
      </trkpt>
      <trkpt lat="39.408569" lon="-5.256503">
        <ele>471.1</ele>
        <time>1970-01-01T00:00:00Z</time>
      </trkpt>
      <trkpt lat="39.408605" lon="-5.256473">
        <ele>471.1</ele>
        <time>1970-01-01T00:00:00Z</time>
      </trkpt>
      <trkpt lat="39.408605" lon="-5.256473">
        <ele>471.1</ele>
        <time>1970-01-01T00:00:00Z</time>
      </trkpt>
      <trkpt lat="39.408605" lon="-5.256473">
        <ele>471.1</ele>
        <time>1970-01-01T00:00:00Z</time>
      </trkpt>
      <trkpt lat="39.408605" lon="-5.256473">
        <ele>471.1</ele>
        <time>1970-01-01T00:00:00Z</time>
      </trkpt>
      <trkpt lat="39.408701" lon="-5.256391">
        <ele>471.0</ele>
        <time>1970-01-01T00:00:00Z</time>
      </trkpt>
      <trkpt lat="39.408701" lon="-5.256391">
        <ele>471.0</ele>
        <time>1970-01-01T00:00:00Z</time>
      </trkpt>
      <trkpt lat="39.408701" lon="-5.256391">
        <ele>471.0</ele>
        <time>1970-01-01T00:00:00Z</time>
      </trkpt>
      <trkpt lat="39.408701" lon="-5.256391">
        <ele>471.0</ele>
        <time>1970-01-01T00:00:00Z</time>
      </trkpt>
      <trkpt lat="39.408946" lon="-5.256146">
        <ele>471.0</ele>
        <time>1970-01-01T00:00:00Z</time>
      </trkpt>
      <trkpt lat="39.408946" lon="-5.256146">
        <ele>471.0</ele>
        <time>1970-01-01T00:00:00Z</time>
      </trkpt>
      <trkpt lat="39.408946" lon="-5.256146">
        <ele>471.0</ele>
        <time>1970-01-01T00:00:00Z</time>
      </trkpt>
      <trkpt lat="39.408946" lon="-5.256146">
        <ele>471.0</ele>
        <time>1970-01-01T00:00:00Z</time>
      </trkpt>
      <trkpt lat="39.409067" lon="-5.255990">
        <ele>471.2</ele>
        <time>1970-01-01T00:00:00Z</time>
      </trkpt>
      <trkpt lat="39.409067" lon="-5.255990">
        <ele>471.2</ele>
        <time>1970-01-01T00:00:00Z</time>
      </trkpt>
      <trkpt lat="39.409067" lon="-5.255990">
        <ele>471.2</ele>
        <time>1970-01-01T00:00:00Z</time>
      </trkpt>
      <trkpt lat="39.409067" lon="-5.255990">
        <ele>471.2</ele>
        <time>1970-01-01T00:00:00Z</time>
      </trkpt>
      <trkpt lat="39.409248" lon="-5.255715">
        <ele>471.7</ele>
        <time>1970-01-01T00:00:00Z</time>
      </trkpt>
      <trkpt lat="39.409248" lon="-5.255715">
        <ele>471.7</ele>
        <time>1970-01-01T00:00:00Z</time>
      </trkpt>
      <trkpt lat="39.409248" lon="-5.255715">
        <ele>471.7</ele>
        <time>1970-01-01T00:00:00Z</time>
      </trkpt>
      <trkpt lat="39.409248" lon="-5.255715">
        <ele>471.7</ele>
        <time>1970-01-01T00:00:00Z</time>
      </trkpt>
      <trkpt lat="39.409364" lon="-5.255540">
        <ele>472.5</ele>
        <time>1970-01-01T00:00:00Z</time>
      </trkpt>
      <trkpt lat="39.409364" lon="-5.255540">
        <ele>472.5</ele>
        <time>1970-01-01T00:00:00Z</time>
      </trkpt>
      <trkpt lat="39.409364" lon="-5.255540">
        <ele>472.5</ele>
        <time>1970-01-01T00:00:00Z</time>
      </trkpt>
      <trkpt lat="39.409364" lon="-5.255540">
        <ele>472.5</ele>
        <time>1970-01-01T00:00:00Z</time>
      </trkpt>
      <trkpt lat="39.409508" lon="-5.255383">
        <ele>473.2</ele>
        <time>1970-01-01T00:00:00Z</time>
      </trkpt>
      <trkpt lat="39.409508" lon="-5.255383">
        <ele>473.2</ele>
        <time>1970-01-01T00:00:00Z</time>
      </trkpt>
      <trkpt lat="39.409508" lon="-5.255383">
        <ele>473.2</ele>
        <time>1970-01-01T00:00:00Z</time>
      </trkpt>
      <trkpt lat="39.409508" lon="-5.255383">
        <ele>473.2</ele>
        <time>1970-01-01T00:00:00Z</time>
      </trkpt>
      <trkpt lat="39.409601" lon="-5.255325">
        <ele>473.4</ele>
        <time>1970-01-01T00:00:00Z</time>
      </trkpt>
      <trkpt lat="39.409601" lon="-5.255325">
        <ele>473.4</ele>
        <time>1970-01-01T00:00:00Z</time>
      </trkpt>
      <trkpt lat="39.409601" lon="-5.255325">
        <ele>473.4</ele>
        <time>1970-01-01T00:00:00Z</time>
      </trkpt>
      <trkpt lat="39.409601" lon="-5.255325">
        <ele>473.4</ele>
        <time>1970-01-01T00:00:00Z</time>
      </trkpt>
      <trkpt lat="39.409939" lon="-5.255176">
        <ele>473.0</ele>
        <time>1970-01-01T00:00:00Z</time>
      </trkpt>
      <trkpt lat="39.409939" lon="-5.255176">
        <ele>473.0</ele>
        <time>1970-01-01T00:00:00Z</time>
      </trkpt>
      <trkpt lat="39.409939" lon="-5.255176">
        <ele>473.0</ele>
        <time>1970-01-01T00:00:00Z</time>
      </trkpt>
      <trkpt lat="39.409939" lon="-5.255176">
        <ele>473.0</ele>
        <time>1970-01-01T00:00:00Z</time>
      </trkpt>
      <trkpt lat="39.410072" lon="-5.255101">
        <ele>473.3</ele>
        <time>1970-01-01T00:00:00Z</time>
      </trkpt>
      <trkpt lat="39.410072" lon="-5.255101">
        <ele>473.3</ele>
        <time>1970-01-01T00:00:00Z</time>
      </trkpt>
      <trkpt lat="39.410072" lon="-5.255101">
        <ele>473.3</ele>
        <time>1970-01-01T00:00:00Z</time>
      </trkpt>
      <trkpt lat="39.410072" lon="-5.255101">
        <ele>473.3</ele>
        <time>1970-01-01T00:00:00Z</time>
      </trkpt>
      <trkpt lat="39.410161" lon="-5.255035">
        <ele>473.6</ele>
        <time>1970-01-01T00:00:00Z</time>
      </trkpt>
      <trkpt lat="39.410161" lon="-5.255035">
        <ele>473.6</ele>
        <time>1970-01-01T00:00:00Z</time>
      </trkpt>
      <trkpt lat="39.410161" lon="-5.255035">
        <ele>473.6</ele>
        <time>1970-01-01T00:00:00Z</time>
      </trkpt>
      <trkpt lat="39.410161" lon="-5.255035">
        <ele>473.6</ele>
        <time>1970-01-01T00:00:00Z</time>
      </trkpt>
      <trkpt lat="39.410269" lon="-5.254901">
        <ele>474.4</ele>
        <time>1970-01-01T00:00:00Z</time>
      </trkpt>
      <trkpt lat="39.410269" lon="-5.254901">
        <ele>474.4</ele>
        <time>1970-01-01T00:00:00Z</time>
      </trkpt>
      <trkpt lat="39.410269" lon="-5.254901">
        <ele>474.4</ele>
        <time>1970-01-01T00:00:00Z</time>
      </trkpt>
      <trkpt lat="39.410269" lon="-5.254901">
        <ele>474.4</ele>
        <time>1970-01-01T00:00:00Z</time>
      </trkpt>
      <trkpt lat="39.410543" lon="-5.254539">
        <ele>475.7</ele>
        <time>1970-01-01T00:00:00Z</time>
      </trkpt>
      <trkpt lat="39.410543" lon="-5.254539">
        <ele>475.7</ele>
        <time>1970-01-01T00:00:00Z</time>
      </trkpt>
      <trkpt lat="39.410543" lon="-5.254539">
        <ele>475.7</ele>
        <time>1970-01-01T00:00:00Z</time>
      </trkpt>
      <trkpt lat="39.410543" lon="-5.254539">
        <ele>475.7</ele>
        <time>1970-01-01T00:00:00Z</time>
      </trkpt>
      <trkpt lat="39.410749" lon="-5.254289">
        <ele>476.8</ele>
        <time>1970-01-01T00:00:00Z</time>
      </trkpt>
      <trkpt lat="39.410749" lon="-5.254289">
        <ele>476.8</ele>
        <time>1970-01-01T00:00:00Z</time>
      </trkpt>
      <trkpt lat="39.410749" lon="-5.254289">
        <ele>476.8</ele>
        <time>1970-01-01T00:00:00Z</time>
      </trkpt>
      <trkpt lat="39.410749" lon="-5.254289">
        <ele>476.8</ele>
        <time>1970-01-01T00:00:00Z</time>
      </trkpt>
      <trkpt lat="39.410892" lon="-5.254168">
        <ele>476.5</ele>
        <time>1970-01-01T00:00:00Z</time>
      </trkpt>
      <trkpt lat="39.410892" lon="-5.254168">
        <ele>476.5</ele>
        <time>1970-01-01T00:00:00Z</time>
      </trkpt>
      <trkpt lat="39.410892" lon="-5.254168">
        <ele>476.5</ele>
        <time>1970-01-01T00:00:00Z</time>
      </trkpt>
      <trkpt lat="39.410892" lon="-5.254168">
        <ele>476.5</ele>
        <time>1970-01-01T00:00:00Z</time>
      </trkpt>
      <trkpt lat="39.410982" lon="-5.254111">
        <ele>475.8</ele>
        <time>1970-01-01T00:00:00Z</time>
      </trkpt>
      <trkpt lat="39.410982" lon="-5.254111">
        <ele>475.8</ele>
        <time>1970-01-01T00:00:00Z</time>
      </trkpt>
      <trkpt lat="39.410982" lon="-5.254111">
        <ele>475.8</ele>
        <time>1970-01-01T00:00:00Z</time>
      </trkpt>
      <trkpt lat="39.410982" lon="-5.254111">
        <ele>475.8</ele>
        <time>1970-01-01T00:00:00Z</time>
      </trkpt>
      <trkpt lat="39.411094" lon="-5.254009">
        <ele>475.3</ele>
        <time>1970-01-01T00:00:00Z</time>
      </trkpt>
      <trkpt lat="39.411094" lon="-5.254009">
        <ele>475.3</ele>
        <time>1970-01-01T00:00:00Z</time>
      </trkpt>
      <trkpt lat="39.411094" lon="-5.254009">
        <ele>475.3</ele>
        <time>1970-01-01T00:00:00Z</time>
      </trkpt>
      <trkpt lat="39.411094" lon="-5.254009">
        <ele>475.3</ele>
        <time>1970-01-01T00:00:00Z</time>
      </trkpt>
      <trkpt lat="39.411361" lon="-5.253742">
        <ele>474.2</ele>
        <time>1970-01-01T00:00:00Z</time>
      </trkpt>
      <trkpt lat="39.411361" lon="-5.253742">
        <ele>474.2</ele>
        <time>1970-01-01T00:00:00Z</time>
      </trkpt>
      <trkpt lat="39.411361" lon="-5.253742">
        <ele>474.2</ele>
        <time>1970-01-01T00:00:00Z</time>
      </trkpt>
      <trkpt lat="39.411361" lon="-5.253742">
        <ele>474.2</ele>
        <time>1970-01-01T00:00:00Z</time>
      </trkpt>
      <trkpt lat="39.411782" lon="-5.253354">
        <ele>471.2</ele>
        <time>1970-01-01T00:00:00Z</time>
      </trkpt>
      <trkpt lat="39.411782" lon="-5.253354">
        <ele>471.2</ele>
        <time>1970-01-01T00:00:00Z</time>
      </trkpt>
      <trkpt lat="39.411782" lon="-5.253354">
        <ele>471.2</ele>
        <time>1970-01-01T00:00:00Z</time>
      </trkpt>
      <trkpt lat="39.411782" lon="-5.253354">
        <ele>471.2</ele>
        <time>1970-01-01T00:00:00Z</time>
      </trkpt>
      <trkpt lat="39.412156" lon="-5.253012">
        <ele>469.0</ele>
        <time>1970-01-01T00:00:00Z</time>
      </trkpt>
      <trkpt lat="39.412156" lon="-5.253012">
        <ele>469.0</ele>
        <time>1970-01-01T00:00:00Z</time>
      </trkpt>
      <trkpt lat="39.412156" lon="-5.253012">
        <ele>469.0</ele>
        <time>1970-01-01T00:00:00Z</time>
      </trkpt>
      <trkpt lat="39.412156" lon="-5.253012">
        <ele>469.0</ele>
        <time>1970-01-01T00:00:00Z</time>
      </trkpt>
      <trkpt lat="39.412337" lon="-5.252873">
        <ele>467.5</ele>
        <time>1970-01-01T00:00:00Z</time>
      </trkpt>
      <trkpt lat="39.412337" lon="-5.252873">
        <ele>467.5</ele>
        <time>1970-01-01T00:00:00Z</time>
      </trkpt>
      <trkpt lat="39.412337" lon="-5.252873">
        <ele>467.5</ele>
        <time>1970-01-01T00:00:00Z</time>
      </trkpt>
      <trkpt lat="39.412337" lon="-5.252873">
        <ele>467.5</ele>
        <time>1970-01-01T00:00:00Z</time>
      </trkpt>
      <trkpt lat="39.412551" lon="-5.252698">
        <ele>467.0</ele>
        <time>1970-01-01T00:00:00Z</time>
      </trkpt>
      <trkpt lat="39.412551" lon="-5.252698">
        <ele>467.0</ele>
        <time>1970-01-01T00:00:00Z</time>
      </trkpt>
      <trkpt lat="39.412551" lon="-5.252698">
        <ele>467.0</ele>
        <time>1970-01-01T00:00:00Z</time>
      </trkpt>
      <trkpt lat="39.412551" lon="-5.252698">
        <ele>467.0</ele>
        <time>1970-01-01T00:00:00Z</time>
      </trkpt>
      <trkpt lat="39.412675" lon="-5.252562">
        <ele>467.2</ele>
        <time>1970-01-01T00:00:00Z</time>
      </trkpt>
      <trkpt lat="39.412675" lon="-5.252562">
        <ele>467.2</ele>
        <time>1970-01-01T00:00:00Z</time>
      </trkpt>
      <trkpt lat="39.412675" lon="-5.252562">
        <ele>467.2</ele>
        <time>1970-01-01T00:00:00Z</time>
      </trkpt>
      <trkpt lat="39.412675" lon="-5.252562">
        <ele>467.2</ele>
        <time>1970-01-01T00:00:00Z</time>
      </trkpt>
      <trkpt lat="39.412790" lon="-5.252403">
        <ele>467.3</ele>
        <time>1970-01-01T00:00:00Z</time>
      </trkpt>
      <trkpt lat="39.412790" lon="-5.252403">
        <ele>467.3</ele>
        <time>1970-01-01T00:00:00Z</time>
      </trkpt>
      <trkpt lat="39.412790" lon="-5.252403">
        <ele>467.3</ele>
        <time>1970-01-01T00:00:00Z</time>
      </trkpt>
      <trkpt lat="39.412790" lon="-5.252403">
        <ele>467.3</ele>
        <time>1970-01-01T00:00:00Z</time>
      </trkpt>
      <trkpt lat="39.412895" lon="-5.252236">
        <ele>466.9</ele>
        <time>1970-01-01T00:00:00Z</time>
      </trkpt>
      <trkpt lat="39.412895" lon="-5.252236">
        <ele>466.9</ele>
        <time>1970-01-01T00:00:00Z</time>
      </trkpt>
      <trkpt lat="39.412895" lon="-5.252236">
        <ele>466.9</ele>
        <time>1970-01-01T00:00:00Z</time>
      </trkpt>
      <trkpt lat="39.412895" lon="-5.252236">
        <ele>466.9</ele>
        <time>1970-01-01T00:00:00Z</time>
      </trkpt>
      <trkpt lat="39.412980" lon="-5.252084">
        <ele>467.0</ele>
        <time>1970-01-01T00:00:00Z</time>
      </trkpt>
      <trkpt lat="39.412980" lon="-5.252084">
        <ele>467.0</ele>
        <time>1970-01-01T00:00:00Z</time>
      </trkpt>
      <trkpt lat="39.412980" lon="-5.252084">
        <ele>467.0</ele>
        <time>1970-01-01T00:00:00Z</time>
      </trkpt>
      <trkpt lat="39.412980" lon="-5.252084">
        <ele>467.0</ele>
        <time>1970-01-01T00:00:00Z</time>
      </trkpt>
      <trkpt lat="39.413031" lon="-5.251969">
        <ele>467.3</ele>
        <time>1970-01-01T00:00:00Z</time>
      </trkpt>
      <trkpt lat="39.413031" lon="-5.251969">
        <ele>467.3</ele>
        <time>1970-01-01T00:00:00Z</time>
      </trkpt>
      <trkpt lat="39.413031" lon="-5.251969">
        <ele>467.3</ele>
        <time>1970-01-01T00:00:00Z</time>
      </trkpt>
      <trkpt lat="39.413031" lon="-5.251969">
        <ele>467.3</ele>
        <time>1970-01-01T00:00:00Z</time>
      </trkpt>
      <trkpt lat="39.413063" lon="-5.251863">
        <ele>467.8</ele>
        <time>1970-01-01T00:00:00Z</time>
      </trkpt>
      <trkpt lat="39.413063" lon="-5.251863">
        <ele>467.8</ele>
        <time>1970-01-01T00:00:00Z</time>
      </trkpt>
      <trkpt lat="39.413063" lon="-5.251863">
        <ele>467.8</ele>
        <time>1970-01-01T00:00:00Z</time>
      </trkpt>
      <trkpt lat="39.413063" lon="-5.251863">
        <ele>467.8</ele>
        <time>1970-01-01T00:00:00Z</time>
      </trkpt>
      <trkpt lat="39.413132" lon="-5.251634">
        <ele>468.6</ele>
        <time>1970-01-01T00:00:00Z</time>
      </trkpt>
      <trkpt lat="39.413132" lon="-5.251634">
        <ele>468.6</ele>
        <time>1970-01-01T00:00:00Z</time>
      </trkpt>
      <trkpt lat="39.413132" lon="-5.251634">
        <ele>468.6</ele>
        <time>1970-01-01T00:00:00Z</time>
      </trkpt>
      <trkpt lat="39.413132" lon="-5.251634">
        <ele>468.6</ele>
        <time>1970-01-01T00:00:00Z</time>
      </trkpt>
      <trkpt lat="39.413206" lon="-5.251449">
        <ele>468.5</ele>
        <time>1970-01-01T00:00:00Z</time>
      </trkpt>
      <trkpt lat="39.413206" lon="-5.251449">
        <ele>468.5</ele>
        <time>1970-01-01T00:00:00Z</time>
      </trkpt>
      <trkpt lat="39.413206" lon="-5.251449">
        <ele>468.5</ele>
        <time>1970-01-01T00:00:00Z</time>
      </trkpt>
      <trkpt lat="39.413206" lon="-5.251449">
        <ele>468.5</ele>
        <time>1970-01-01T00:00:00Z</time>
      </trkpt>
      <trkpt lat="39.413421" lon="-5.251041">
        <ele>466.1</ele>
        <time>1970-01-01T00:00:00Z</time>
      </trkpt>
      <trkpt lat="39.413421" lon="-5.251041">
        <ele>466.1</ele>
        <time>1970-01-01T00:00:00Z</time>
      </trkpt>
      <trkpt lat="39.413421" lon="-5.251041">
        <ele>466.1</ele>
        <time>1970-01-01T00:00:00Z</time>
      </trkpt>
      <trkpt lat="39.413421" lon="-5.251041">
        <ele>466.1</ele>
        <time>1970-01-01T00:00:00Z</time>
      </trkpt>
      <trkpt lat="39.413462" lon="-5.250956">
        <ele>466.0</ele>
        <time>1970-01-01T00:00:00Z</time>
      </trkpt>
      <trkpt lat="39.413462" lon="-5.250956">
        <ele>466.0</ele>
        <time>1970-01-01T00:00:00Z</time>
      </trkpt>
      <trkpt lat="39.413462" lon="-5.250956">
        <ele>466.0</ele>
        <time>1970-01-01T00:00:00Z</time>
      </trkpt>
      <trkpt lat="39.413462" lon="-5.250956">
        <ele>466.0</ele>
        <time>1970-01-01T00:00:00Z</time>
      </trkpt>
      <trkpt lat="39.413516" lon="-5.250834">
        <ele>466.0</ele>
        <time>1970-01-01T00:00:00Z</time>
      </trkpt>
      <trkpt lat="39.413516" lon="-5.250834">
        <ele>466.0</ele>
        <time>1970-01-01T00:00:00Z</time>
      </trkpt>
      <trkpt lat="39.413516" lon="-5.250834">
        <ele>466.0</ele>
        <time>1970-01-01T00:00:00Z</time>
      </trkpt>
      <trkpt lat="39.413516" lon="-5.250834">
        <ele>466.0</ele>
        <time>1970-01-01T00:00:00Z</time>
      </trkpt>
      <trkpt lat="39.413578" lon="-5.250675">
        <ele>465.7</ele>
        <time>1970-01-01T00:00:00Z</time>
      </trkpt>
      <trkpt lat="39.413578" lon="-5.250675">
        <ele>465.7</ele>
        <time>1970-01-01T00:00:00Z</time>
      </trkpt>
      <trkpt lat="39.413578" lon="-5.250675">
        <ele>465.7</ele>
        <time>1970-01-01T00:00:00Z</time>
      </trkpt>
      <trkpt lat="39.413578" lon="-5.250675">
        <ele>465.7</ele>
        <time>1970-01-01T00:00:00Z</time>
      </trkpt>
      <trkpt lat="39.413776" lon="-5.250177">
        <ele>464.6</ele>
        <time>1970-01-01T00:00:00Z</time>
      </trkpt>
      <trkpt lat="39.413776" lon="-5.250177">
        <ele>464.6</ele>
        <time>1970-01-01T00:00:00Z</time>
      </trkpt>
      <trkpt lat="39.413776" lon="-5.250177">
        <ele>464.6</ele>
        <time>1970-01-01T00:00:00Z</time>
      </trkpt>
      <trkpt lat="39.413776" lon="-5.250177">
        <ele>464.6</ele>
        <time>1970-01-01T00:00:00Z</time>
      </trkpt>
      <trkpt lat="39.413837" lon="-5.250007">
        <ele>465.1</ele>
        <time>1970-01-01T00:00:00Z</time>
      </trkpt>
      <trkpt lat="39.413837" lon="-5.250007">
        <ele>465.1</ele>
        <time>1970-01-01T00:00:00Z</time>
      </trkpt>
      <trkpt lat="39.413837" lon="-5.250007">
        <ele>465.1</ele>
        <time>1970-01-01T00:00:00Z</time>
      </trkpt>
      <trkpt lat="39.413837" lon="-5.250007">
        <ele>465.1</ele>
        <time>1970-01-01T00:00:00Z</time>
      </trkpt>
      <trkpt lat="39.413890" lon="-5.249830">
        <ele>465.8</ele>
        <time>1970-01-01T00:00:00Z</time>
      </trkpt>
      <trkpt lat="39.413890" lon="-5.249830">
        <ele>465.8</ele>
        <time>1970-01-01T00:00:00Z</time>
      </trkpt>
      <trkpt lat="39.413890" lon="-5.249830">
        <ele>465.8</ele>
        <time>1970-01-01T00:00:00Z</time>
      </trkpt>
      <trkpt lat="39.413890" lon="-5.249830">
        <ele>465.8</ele>
        <time>1970-01-01T00:00:00Z</time>
      </trkpt>
      <trkpt lat="39.413932" lon="-5.249601">
        <ele>467.1</ele>
        <time>1970-01-01T00:00:00Z</time>
      </trkpt>
      <trkpt lat="39.413932" lon="-5.249601">
        <ele>467.1</ele>
        <time>1970-01-01T00:00:00Z</time>
      </trkpt>
      <trkpt lat="39.413932" lon="-5.249601">
        <ele>467.1</ele>
        <time>1970-01-01T00:00:00Z</time>
      </trkpt>
      <trkpt lat="39.413932" lon="-5.249601">
        <ele>467.1</ele>
        <time>1970-01-01T00:00:00Z</time>
      </trkpt>
      <trkpt lat="39.413983" lon="-5.249146">
        <ele>469.6</ele>
        <time>1970-01-01T00:00:00Z</time>
      </trkpt>
      <trkpt lat="39.413983" lon="-5.249146">
        <ele>469.6</ele>
        <time>1970-01-01T00:00:00Z</time>
      </trkpt>
      <trkpt lat="39.413983" lon="-5.249146">
        <ele>469.6</ele>
        <time>1970-01-01T00:00:00Z</time>
      </trkpt>
      <trkpt lat="39.413983" lon="-5.249146">
        <ele>469.6</ele>
        <time>1970-01-01T00:00:00Z</time>
      </trkpt>
      <trkpt lat="39.414002" lon="-5.248763">
        <ele>473.5</ele>
        <time>1970-01-01T00:00:00Z</time>
      </trkpt>
      <trkpt lat="39.414002" lon="-5.248763">
        <ele>473.5</ele>
        <time>1970-01-01T00:00:00Z</time>
      </trkpt>
      <trkpt lat="39.414002" lon="-5.248763">
        <ele>473.5</ele>
        <time>1970-01-01T00:00:00Z</time>
      </trkpt>
      <trkpt lat="39.414002" lon="-5.248763">
        <ele>473.5</ele>
        <time>1970-01-01T00:00:00Z</time>
      </trkpt>
      <trkpt lat="39.414031" lon="-5.248533">
        <ele>474.3</ele>
        <time>1970-01-01T00:00:00Z</time>
      </trkpt>
      <trkpt lat="39.414031" lon="-5.248533">
        <ele>474.3</ele>
        <time>1970-01-01T00:00:00Z</time>
      </trkpt>
      <trkpt lat="39.414031" lon="-5.248533">
        <ele>474.3</ele>
        <time>1970-01-01T00:00:00Z</time>
      </trkpt>
      <trkpt lat="39.414031" lon="-5.248533">
        <ele>474.3</ele>
        <time>1970-01-01T00:00:00Z</time>
      </trkpt>
      <trkpt lat="39.414110" lon="-5.248093">
        <ele>474.6</ele>
        <time>1970-01-01T00:00:00Z</time>
      </trkpt>
      <trkpt lat="39.414110" lon="-5.248093">
        <ele>474.6</ele>
        <time>1970-01-01T00:00:00Z</time>
      </trkpt>
      <trkpt lat="39.414110" lon="-5.248093">
        <ele>474.6</ele>
        <time>1970-01-01T00:00:00Z</time>
      </trkpt>
      <trkpt lat="39.414110" lon="-5.248093">
        <ele>474.6</ele>
        <time>1970-01-01T00:00:00Z</time>
      </trkpt>
      <trkpt lat="39.414223" lon="-5.247501">
        <ele>474.5</ele>
        <time>1970-01-01T00:00:00Z</time>
      </trkpt>
      <trkpt lat="39.414223" lon="-5.247501">
        <ele>474.5</ele>
        <time>1970-01-01T00:00:00Z</time>
      </trkpt>
      <trkpt lat="39.414223" lon="-5.247501">
        <ele>474.5</ele>
        <time>1970-01-01T00:00:00Z</time>
      </trkpt>
      <trkpt lat="39.414223" lon="-5.247501">
        <ele>474.5</ele>
        <time>1970-01-01T00:00:00Z</time>
      </trkpt>
      <trkpt lat="39.414359" lon="-5.246939">
        <ele>472.4</ele>
        <time>1970-01-01T00:00:00Z</time>
      </trkpt>
      <trkpt lat="39.414359" lon="-5.246939">
        <ele>472.4</ele>
        <time>1970-01-01T00:00:00Z</time>
      </trkpt>
      <trkpt lat="39.414359" lon="-5.246939">
        <ele>472.4</ele>
        <time>1970-01-01T00:00:00Z</time>
      </trkpt>
      <trkpt lat="39.414359" lon="-5.246939">
        <ele>472.4</ele>
        <time>1970-01-01T00:00:00Z</time>
      </trkpt>
      <trkpt lat="39.414534" lon="-5.246288">
        <ele>469.2</ele>
        <time>1970-01-01T00:00:00Z</time>
      </trkpt>
      <trkpt lat="39.414534" lon="-5.246288">
        <ele>469.2</ele>
        <time>1970-01-01T00:00:00Z</time>
      </trkpt>
      <trkpt lat="39.414534" lon="-5.246288">
        <ele>469.2</ele>
        <time>1970-01-01T00:00:00Z</time>
      </trkpt>
      <trkpt lat="39.414534" lon="-5.246288">
        <ele>469.2</ele>
        <time>1970-01-01T00:00:00Z</time>
      </trkpt>
      <trkpt lat="39.414656" lon="-5.245898">
        <ele>467.1</ele>
        <time>1970-01-01T00:00:00Z</time>
      </trkpt>
      <trkpt lat="39.414656" lon="-5.245898">
        <ele>467.1</ele>
        <time>1970-01-01T00:00:00Z</time>
      </trkpt>
      <trkpt lat="39.414656" lon="-5.245898">
        <ele>467.1</ele>
        <time>1970-01-01T00:00:00Z</time>
      </trkpt>
      <trkpt lat="39.414656" lon="-5.245898">
        <ele>467.1</ele>
        <time>1970-01-01T00:00:00Z</time>
      </trkpt>
      <trkpt lat="39.414762" lon="-5.245582">
        <ele>465.8</ele>
        <time>1970-01-01T00:00:00Z</time>
      </trkpt>
      <trkpt lat="39.414762" lon="-5.245582">
        <ele>465.8</ele>
        <time>1970-01-01T00:00:00Z</time>
      </trkpt>
      <trkpt lat="39.414762" lon="-5.245582">
        <ele>465.8</ele>
        <time>1970-01-01T00:00:00Z</time>
      </trkpt>
      <trkpt lat="39.414762" lon="-5.245582">
        <ele>465.8</ele>
        <time>1970-01-01T00:00:00Z</time>
      </trkpt>
      <trkpt lat="39.414837" lon="-5.245381">
        <ele>465.1</ele>
        <time>1970-01-01T00:00:00Z</time>
      </trkpt>
      <trkpt lat="39.414837" lon="-5.245381">
        <ele>465.1</ele>
        <time>1970-01-01T00:00:00Z</time>
      </trkpt>
      <trkpt lat="39.414837" lon="-5.245381">
        <ele>465.1</ele>
        <time>1970-01-01T00:00:00Z</time>
      </trkpt>
      <trkpt lat="39.414837" lon="-5.245381">
        <ele>465.1</ele>
        <time>1970-01-01T00:00:00Z</time>
      </trkpt>
      <trkpt lat="39.414944" lon="-5.245173">
        <ele>464.1</ele>
        <time>1970-01-01T00:00:00Z</time>
      </trkpt>
      <trkpt lat="39.414944" lon="-5.245173">
        <ele>464.1</ele>
        <time>1970-01-01T00:00:00Z</time>
      </trkpt>
      <trkpt lat="39.414944" lon="-5.245173">
        <ele>464.1</ele>
        <time>1970-01-01T00:00:00Z</time>
      </trkpt>
      <trkpt lat="39.414944" lon="-5.245173">
        <ele>464.1</ele>
        <time>1970-01-01T00:00:00Z</time>
      </trkpt>
      <trkpt lat="39.415023" lon="-5.245043">
        <ele>463.0</ele>
        <time>1970-01-01T00:00:00Z</time>
      </trkpt>
      <trkpt lat="39.415023" lon="-5.245043">
        <ele>463.0</ele>
        <time>1970-01-01T00:00:00Z</time>
      </trkpt>
      <trkpt lat="39.415023" lon="-5.245043">
        <ele>463.0</ele>
        <time>1970-01-01T00:00:00Z</time>
      </trkpt>
      <trkpt lat="39.415023" lon="-5.245043">
        <ele>463.0</ele>
        <time>1970-01-01T00:00:00Z</time>
      </trkpt>
      <trkpt lat="39.415084" lon="-5.244931">
        <ele>462.0</ele>
        <time>1970-01-01T00:00:00Z</time>
      </trkpt>
      <trkpt lat="39.415084" lon="-5.244931">
        <ele>462.0</ele>
        <time>1970-01-01T00:00:00Z</time>
      </trkpt>
      <trkpt lat="39.415084" lon="-5.244931">
        <ele>462.0</ele>
        <time>1970-01-01T00:00:00Z</time>
      </trkpt>
      <trkpt lat="39.415084" lon="-5.244931">
        <ele>462.0</ele>
        <time>1970-01-01T00:00:00Z</time>
      </trkpt>
      <trkpt lat="39.415203" lon="-5.244648">
        <ele>460.9</ele>
        <time>1970-01-01T00:00:00Z</time>
      </trkpt>
      <trkpt lat="39.415203" lon="-5.244648">
        <ele>460.9</ele>
        <time>1970-01-01T00:00:00Z</time>
      </trkpt>
      <trkpt lat="39.415203" lon="-5.244648">
        <ele>460.9</ele>
        <time>1970-01-01T00:00:00Z</time>
      </trkpt>
      <trkpt lat="39.415203" lon="-5.244648">
        <ele>460.9</ele>
        <time>1970-01-01T00:00:00Z</time>
      </trkpt>
      <trkpt lat="39.415439" lon="-5.244028">
        <ele>459.9</ele>
        <time>1970-01-01T00:00:00Z</time>
      </trkpt>
      <trkpt lat="39.415439" lon="-5.244028">
        <ele>459.9</ele>
        <time>1970-01-01T00:00:00Z</time>
      </trkpt>
      <trkpt lat="39.415439" lon="-5.244028">
        <ele>459.9</ele>
        <time>1970-01-01T00:00:00Z</time>
      </trkpt>
      <trkpt lat="39.415439" lon="-5.244028">
        <ele>459.9</ele>
        <time>1970-01-01T00:00:00Z</time>
      </trkpt>
      <trkpt lat="39.415481" lon="-5.243851">
        <ele>460.8</ele>
        <time>1970-01-01T00:00:00Z</time>
      </trkpt>
      <trkpt lat="39.415481" lon="-5.243851">
        <ele>460.8</ele>
        <time>1970-01-01T00:00:00Z</time>
      </trkpt>
      <trkpt lat="39.415481" lon="-5.243851">
        <ele>460.8</ele>
        <time>1970-01-01T00:00:00Z</time>
      </trkpt>
      <trkpt lat="39.415481" lon="-5.243851">
        <ele>460.8</ele>
        <time>1970-01-01T00:00:00Z</time>
      </trkpt>
      <trkpt lat="39.415495" lon="-5.243624">
        <ele>462.0</ele>
        <time>1970-01-01T00:00:00Z</time>
      </trkpt>
      <trkpt lat="39.415495" lon="-5.243624">
        <ele>462.0</ele>
        <time>1970-01-01T00:00:00Z</time>
      </trkpt>
      <trkpt lat="39.415495" lon="-5.243624">
        <ele>462.0</ele>
        <time>1970-01-01T00:00:00Z</time>
      </trkpt>
      <trkpt lat="39.415495" lon="-5.243624">
        <ele>462.0</ele>
        <time>1970-01-01T00:00:00Z</time>
      </trkpt>
      <trkpt lat="39.415491" lon="-5.243389">
        <ele>463.7</ele>
        <time>1970-01-01T00:00:00Z</time>
      </trkpt>
      <trkpt lat="39.415491" lon="-5.243389">
        <ele>463.7</ele>
        <time>1970-01-01T00:00:00Z</time>
      </trkpt>
      <trkpt lat="39.415491" lon="-5.243389">
        <ele>463.7</ele>
        <time>1970-01-01T00:00:00Z</time>
      </trkpt>
      <trkpt lat="39.415491" lon="-5.243389">
        <ele>463.7</ele>
        <time>1970-01-01T00:00:00Z</time>
      </trkpt>
      <trkpt lat="39.415503" lon="-5.243151">
        <ele>465.0</ele>
        <time>1970-01-01T00:00:00Z</time>
      </trkpt>
      <trkpt lat="39.415503" lon="-5.243151">
        <ele>465.0</ele>
        <time>1970-01-01T00:00:00Z</time>
      </trkpt>
      <trkpt lat="39.415503" lon="-5.243151">
        <ele>465.0</ele>
        <time>1970-01-01T00:00:00Z</time>
      </trkpt>
      <trkpt lat="39.415503" lon="-5.243151">
        <ele>465.0</ele>
        <time>1970-01-01T00:00:00Z</time>
      </trkpt>
      <trkpt lat="39.415556" lon="-5.242896">
        <ele>466.4</ele>
        <time>1970-01-01T00:00:00Z</time>
      </trkpt>
      <trkpt lat="39.415556" lon="-5.242896">
        <ele>466.4</ele>
        <time>1970-01-01T00:00:00Z</time>
      </trkpt>
      <trkpt lat="39.415556" lon="-5.242896">
        <ele>466.4</ele>
        <time>1970-01-01T00:00:00Z</time>
      </trkpt>
      <trkpt lat="39.415556" lon="-5.242896">
        <ele>466.4</ele>
        <time>1970-01-01T00:00:00Z</time>
      </trkpt>
      <trkpt lat="39.415601" lon="-5.242725">
        <ele>466.8</ele>
        <time>1970-01-01T00:00:00Z</time>
      </trkpt>
      <trkpt lat="39.415601" lon="-5.242725">
        <ele>466.8</ele>
        <time>1970-01-01T00:00:00Z</time>
      </trkpt>
      <trkpt lat="39.415601" lon="-5.242725">
        <ele>466.8</ele>
        <time>1970-01-01T00:00:00Z</time>
      </trkpt>
      <trkpt lat="39.415601" lon="-5.242725">
        <ele>466.8</ele>
        <time>1970-01-01T00:00:00Z</time>
      </trkpt>
      <trkpt lat="39.415648" lon="-5.242609">
        <ele>466.7</ele>
        <time>1970-01-01T00:00:00Z</time>
      </trkpt>
      <trkpt lat="39.415648" lon="-5.242609">
        <ele>466.7</ele>
        <time>1970-01-01T00:00:00Z</time>
      </trkpt>
      <trkpt lat="39.415648" lon="-5.242609">
        <ele>466.7</ele>
        <time>1970-01-01T00:00:00Z</time>
      </trkpt>
      <trkpt lat="39.415648" lon="-5.242609">
        <ele>466.7</ele>
        <time>1970-01-01T00:00:00Z</time>
      </trkpt>
      <trkpt lat="39.415745" lon="-5.242412">
        <ele>467.0</ele>
        <time>1970-01-01T00:00:00Z</time>
      </trkpt>
      <trkpt lat="39.415745" lon="-5.242412">
        <ele>467.0</ele>
        <time>1970-01-01T00:00:00Z</time>
      </trkpt>
      <trkpt lat="39.415745" lon="-5.242412">
        <ele>467.0</ele>
        <time>1970-01-01T00:00:00Z</time>
      </trkpt>
      <trkpt lat="39.415745" lon="-5.242412">
        <ele>467.0</ele>
        <time>1970-01-01T00:00:00Z</time>
      </trkpt>
      <trkpt lat="39.415875" lon="-5.242192">
        <ele>467.1</ele>
        <time>1970-01-01T00:00:00Z</time>
      </trkpt>
      <trkpt lat="39.415875" lon="-5.242192">
        <ele>467.1</ele>
        <time>1970-01-01T00:00:00Z</time>
      </trkpt>
      <trkpt lat="39.415875" lon="-5.242192">
        <ele>467.1</ele>
        <time>1970-01-01T00:00:00Z</time>
      </trkpt>
      <trkpt lat="39.415875" lon="-5.242192">
        <ele>467.1</ele>
        <time>1970-01-01T00:00:00Z</time>
      </trkpt>
      <trkpt lat="39.416028" lon="-5.241951">
        <ele>467.6</ele>
        <time>1970-01-01T00:00:00Z</time>
      </trkpt>
      <trkpt lat="39.416028" lon="-5.241951">
        <ele>467.6</ele>
        <time>1970-01-01T00:00:00Z</time>
      </trkpt>
      <trkpt lat="39.416028" lon="-5.241951">
        <ele>467.6</ele>
        <time>1970-01-01T00:00:00Z</time>
      </trkpt>
      <trkpt lat="39.416028" lon="-5.241951">
        <ele>467.6</ele>
        <time>1970-01-01T00:00:00Z</time>
      </trkpt>
      <trkpt lat="39.416232" lon="-5.241598">
        <ele>465.9</ele>
        <time>1970-01-01T00:00:00Z</time>
      </trkpt>
      <trkpt lat="39.416232" lon="-5.241598">
        <ele>465.9</ele>
        <time>1970-01-01T00:00:00Z</time>
      </trkpt>
      <trkpt lat="39.416232" lon="-5.241598">
        <ele>465.9</ele>
        <time>1970-01-01T00:00:00Z</time>
      </trkpt>
      <trkpt lat="39.416232" lon="-5.241598">
        <ele>465.9</ele>
        <time>1970-01-01T00:00:00Z</time>
      </trkpt>
      <trkpt lat="39.416425" lon="-5.241366">
        <ele>464.5</ele>
        <time>1970-01-01T00:00:00Z</time>
      </trkpt>
      <trkpt lat="39.416425" lon="-5.241366">
        <ele>464.5</ele>
        <time>1970-01-01T00:00:00Z</time>
      </trkpt>
      <trkpt lat="39.416425" lon="-5.241366">
        <ele>464.5</ele>
        <time>1970-01-01T00:00:00Z</time>
      </trkpt>
      <trkpt lat="39.416425" lon="-5.241366">
        <ele>464.5</ele>
        <time>1970-01-01T00:00:00Z</time>
      </trkpt>
      <trkpt lat="39.416556" lon="-5.241235">
        <ele>463.5</ele>
        <time>1970-01-01T00:00:00Z</time>
      </trkpt>
      <trkpt lat="39.416556" lon="-5.241235">
        <ele>463.5</ele>
        <time>1970-01-01T00:00:00Z</time>
      </trkpt>
      <trkpt lat="39.416556" lon="-5.241235">
        <ele>463.5</ele>
        <time>1970-01-01T00:00:00Z</time>
      </trkpt>
      <trkpt lat="39.416556" lon="-5.241235">
        <ele>463.5</ele>
        <time>1970-01-01T00:00:00Z</time>
      </trkpt>
      <trkpt lat="39.416727" lon="-5.241115">
        <ele>462.5</ele>
        <time>1970-01-01T00:00:00Z</time>
      </trkpt>
      <trkpt lat="39.416727" lon="-5.241115">
        <ele>462.5</ele>
        <time>1970-01-01T00:00:00Z</time>
      </trkpt>
      <trkpt lat="39.416727" lon="-5.241115">
        <ele>462.5</ele>
        <time>1970-01-01T00:00:00Z</time>
      </trkpt>
      <trkpt lat="39.416727" lon="-5.241115">
        <ele>462.5</ele>
        <time>1970-01-01T00:00:00Z</time>
      </trkpt>
      <trkpt lat="39.416927" lon="-5.241011">
        <ele>461.1</ele>
        <time>1970-01-01T00:00:00Z</time>
      </trkpt>
      <trkpt lat="39.416927" lon="-5.241011">
        <ele>461.1</ele>
        <time>1970-01-01T00:00:00Z</time>
      </trkpt>
      <trkpt lat="39.416927" lon="-5.241011">
        <ele>461.1</ele>
        <time>1970-01-01T00:00:00Z</time>
      </trkpt>
      <trkpt lat="39.416927" lon="-5.241011">
        <ele>461.1</ele>
        <time>1970-01-01T00:00:00Z</time>
      </trkpt>
      <trkpt lat="39.417070" lon="-5.240902">
        <ele>460.1</ele>
        <time>1970-01-01T00:00:00Z</time>
      </trkpt>
      <trkpt lat="39.417070" lon="-5.240902">
        <ele>460.1</ele>
        <time>1970-01-01T00:00:00Z</time>
      </trkpt>
      <trkpt lat="39.417070" lon="-5.240902">
        <ele>460.1</ele>
        <time>1970-01-01T00:00:00Z</time>
      </trkpt>
      <trkpt lat="39.417070" lon="-5.240902">
        <ele>460.1</ele>
        <time>1970-01-01T00:00:00Z</time>
      </trkpt>
      <trkpt lat="39.417133" lon="-5.240826">
        <ele>459.5</ele>
        <time>1970-01-01T00:00:00Z</time>
      </trkpt>
      <trkpt lat="39.417133" lon="-5.240826">
        <ele>459.5</ele>
        <time>1970-01-01T00:00:00Z</time>
      </trkpt>
      <trkpt lat="39.417133" lon="-5.240826">
        <ele>459.5</ele>
        <time>1970-01-01T00:00:00Z</time>
      </trkpt>
      <trkpt lat="39.417133" lon="-5.240826">
        <ele>459.5</ele>
        <time>1970-01-01T00:00:00Z</time>
      </trkpt>
      <trkpt lat="39.417393" lon="-5.240451">
        <ele>457.4</ele>
        <time>1970-01-01T00:00:00Z</time>
      </trkpt>
      <trkpt lat="39.417393" lon="-5.240451">
        <ele>457.4</ele>
        <time>1970-01-01T00:00:00Z</time>
      </trkpt>
      <trkpt lat="39.417393" lon="-5.240451">
        <ele>457.4</ele>
        <time>1970-01-01T00:00:00Z</time>
      </trkpt>
      <trkpt lat="39.417393" lon="-5.240451">
        <ele>457.4</ele>
        <time>1970-01-01T00:00:00Z</time>
      </trkpt>
      <trkpt lat="39.417433" lon="-5.240357">
        <ele>457.2</ele>
        <time>1970-01-01T00:00:00Z</time>
      </trkpt>
      <trkpt lat="39.417433" lon="-5.240357">
        <ele>457.2</ele>
        <time>1970-01-01T00:00:00Z</time>
      </trkpt>
      <trkpt lat="39.417433" lon="-5.240357">
        <ele>457.2</ele>
        <time>1970-01-01T00:00:00Z</time>
      </trkpt>
      <trkpt lat="39.417433" lon="-5.240357">
        <ele>457.2</ele>
        <time>1970-01-01T00:00:00Z</time>
      </trkpt>
      <trkpt lat="39.417477" lon="-5.240297">
        <ele>457.3</ele>
        <time>1970-01-01T00:00:00Z</time>
      </trkpt>
      <trkpt lat="39.417477" lon="-5.240297">
        <ele>457.3</ele>
        <time>1970-01-01T00:00:00Z</time>
      </trkpt>
      <trkpt lat="39.417477" lon="-5.240297">
        <ele>457.3</ele>
        <time>1970-01-01T00:00:00Z</time>
      </trkpt>
      <trkpt lat="39.417477" lon="-5.240297">
        <ele>457.3</ele>
        <time>1970-01-01T00:00:00Z</time>
      </trkpt>
      <trkpt lat="39.417591" lon="-5.240202">
        <ele>456.9</ele>
        <time>1970-01-01T00:00:00Z</time>
      </trkpt>
      <trkpt lat="39.417591" lon="-5.240202">
        <ele>456.9</ele>
        <time>1970-01-01T00:00:00Z</time>
      </trkpt>
      <trkpt lat="39.417591" lon="-5.240202">
        <ele>456.9</ele>
        <time>1970-01-01T00:00:00Z</time>
      </trkpt>
      <trkpt lat="39.417591" lon="-5.240202">
        <ele>456.9</ele>
        <time>1970-01-01T00:00:00Z</time>
      </trkpt>
      <trkpt lat="39.417697" lon="-5.240158">
        <ele>456.1</ele>
        <time>1970-01-01T00:00:00Z</time>
      </trkpt>
      <trkpt lat="39.417697" lon="-5.240158">
        <ele>456.1</ele>
        <time>1970-01-01T00:00:00Z</time>
      </trkpt>
      <trkpt lat="39.417697" lon="-5.240158">
        <ele>456.1</ele>
        <time>1970-01-01T00:00:00Z</time>
      </trkpt>
      <trkpt lat="39.417697" lon="-5.240158">
        <ele>456.1</ele>
        <time>1970-01-01T00:00:00Z</time>
      </trkpt>
      <trkpt lat="39.417814" lon="-5.240142">
        <ele>455.1</ele>
        <time>1970-01-01T00:00:00Z</time>
      </trkpt>
      <trkpt lat="39.417814" lon="-5.240142">
        <ele>455.1</ele>
        <time>1970-01-01T00:00:00Z</time>
      </trkpt>
      <trkpt lat="39.417814" lon="-5.240142">
        <ele>455.1</ele>
        <time>1970-01-01T00:00:00Z</time>
      </trkpt>
      <trkpt lat="39.417814" lon="-5.240142">
        <ele>455.1</ele>
        <time>1970-01-01T00:00:00Z</time>
      </trkpt>
      <trkpt lat="39.417998" lon="-5.240138">
        <ele>453.3</ele>
        <time>1970-01-01T00:00:00Z</time>
      </trkpt>
      <trkpt lat="39.417998" lon="-5.240138">
        <ele>453.3</ele>
        <time>1970-01-01T00:00:00Z</time>
      </trkpt>
      <trkpt lat="39.417998" lon="-5.240138">
        <ele>453.3</ele>
        <time>1970-01-01T00:00:00Z</time>
      </trkpt>
      <trkpt lat="39.417998" lon="-5.240138">
        <ele>453.3</ele>
        <time>1970-01-01T00:00:00Z</time>
      </trkpt>
      <trkpt lat="39.418120" lon="-5.240118">
        <ele>451.8</ele>
        <time>1970-01-01T00:00:00Z</time>
      </trkpt>
      <trkpt lat="39.418120" lon="-5.240118">
        <ele>451.8</ele>
        <time>1970-01-01T00:00:00Z</time>
      </trkpt>
      <trkpt lat="39.418120" lon="-5.240118">
        <ele>451.8</ele>
        <time>1970-01-01T00:00:00Z</time>
      </trkpt>
      <trkpt lat="39.418120" lon="-5.240118">
        <ele>451.8</ele>
        <time>1970-01-01T00:00:00Z</time>
      </trkpt>
      <trkpt lat="39.418252" lon="-5.240064">
        <ele>450.3</ele>
        <time>1970-01-01T00:00:00Z</time>
      </trkpt>
      <trkpt lat="39.418252" lon="-5.240064">
        <ele>450.3</ele>
        <time>1970-01-01T00:00:00Z</time>
      </trkpt>
      <trkpt lat="39.418252" lon="-5.240064">
        <ele>450.3</ele>
        <time>1970-01-01T00:00:00Z</time>
      </trkpt>
      <trkpt lat="39.418252" lon="-5.240064">
        <ele>450.3</ele>
        <time>1970-01-01T00:00:00Z</time>
      </trkpt>
      <trkpt lat="39.418313" lon="-5.239999">
        <ele>449.8</ele>
        <time>1970-01-01T00:00:00Z</time>
      </trkpt>
      <trkpt lat="39.418313" lon="-5.239999">
        <ele>449.8</ele>
        <time>1970-01-01T00:00:00Z</time>
      </trkpt>
      <trkpt lat="39.418313" lon="-5.239999">
        <ele>449.8</ele>
        <time>1970-01-01T00:00:00Z</time>
      </trkpt>
      <trkpt lat="39.418313" lon="-5.239999">
        <ele>449.8</ele>
        <time>1970-01-01T00:00:00Z</time>
      </trkpt>
      <trkpt lat="39.418482" lon="-5.239754">
        <ele>448.8</ele>
        <time>1970-01-01T00:00:00Z</time>
      </trkpt>
      <trkpt lat="39.418482" lon="-5.239754">
        <ele>448.8</ele>
        <time>1970-01-01T00:00:00Z</time>
      </trkpt>
      <trkpt lat="39.418482" lon="-5.239754">
        <ele>448.8</ele>
        <time>1970-01-01T00:00:00Z</time>
      </trkpt>
      <trkpt lat="39.418482" lon="-5.239754">
        <ele>448.8</ele>
        <time>1970-01-01T00:00:00Z</time>
      </trkpt>
      <trkpt lat="39.418654" lon="-5.239575">
        <ele>447.3</ele>
        <time>1970-01-01T00:00:00Z</time>
      </trkpt>
      <trkpt lat="39.418654" lon="-5.239575">
        <ele>447.3</ele>
        <time>1970-01-01T00:00:00Z</time>
      </trkpt>
      <trkpt lat="39.418654" lon="-5.239575">
        <ele>447.3</ele>
        <time>1970-01-01T00:00:00Z</time>
      </trkpt>
      <trkpt lat="39.418654" lon="-5.239575">
        <ele>447.3</ele>
        <time>1970-01-01T00:00:00Z</time>
      </trkpt>
      <trkpt lat="39.418806" lon="-5.239390">
        <ele>446.8</ele>
        <time>1970-01-01T00:00:00Z</time>
      </trkpt>
      <trkpt lat="39.418806" lon="-5.239390">
        <ele>446.8</ele>
        <time>1970-01-01T00:00:00Z</time>
      </trkpt>
      <trkpt lat="39.418806" lon="-5.239390">
        <ele>446.8</ele>
        <time>1970-01-01T00:00:00Z</time>
      </trkpt>
      <trkpt lat="39.418806" lon="-5.239390">
        <ele>446.8</ele>
        <time>1970-01-01T00:00:00Z</time>
      </trkpt>
      <trkpt lat="39.419008" lon="-5.239144">
        <ele>445.9</ele>
        <time>1970-01-01T00:00:00Z</time>
      </trkpt>
      <trkpt lat="39.419008" lon="-5.239144">
        <ele>445.9</ele>
        <time>1970-01-01T00:00:00Z</time>
      </trkpt>
      <trkpt lat="39.419008" lon="-5.239144">
        <ele>445.9</ele>
        <time>1970-01-01T00:00:00Z</time>
      </trkpt>
      <trkpt lat="39.419008" lon="-5.239144">
        <ele>445.9</ele>
        <time>1970-01-01T00:00:00Z</time>
      </trkpt>
      <trkpt lat="39.419129" lon="-5.238960">
        <ele>444.9</ele>
        <time>1970-01-01T00:00:00Z</time>
      </trkpt>
      <trkpt lat="39.419129" lon="-5.238960">
        <ele>444.9</ele>
        <time>1970-01-01T00:00:00Z</time>
      </trkpt>
      <trkpt lat="39.419129" lon="-5.238960">
        <ele>444.9</ele>
        <time>1970-01-01T00:00:00Z</time>
      </trkpt>
      <trkpt lat="39.419129" lon="-5.238960">
        <ele>444.9</ele>
        <time>1970-01-01T00:00:00Z</time>
      </trkpt>
      <trkpt lat="39.419237" lon="-5.238767">
        <ele>444.8</ele>
        <time>1970-01-01T00:00:00Z</time>
      </trkpt>
      <trkpt lat="39.419237" lon="-5.238767">
        <ele>444.8</ele>
        <time>1970-01-01T00:00:00Z</time>
      </trkpt>
      <trkpt lat="39.419237" lon="-5.238767">
        <ele>444.8</ele>
        <time>1970-01-01T00:00:00Z</time>
      </trkpt>
      <trkpt lat="39.419237" lon="-5.238767">
        <ele>444.8</ele>
        <time>1970-01-01T00:00:00Z</time>
      </trkpt>
      <trkpt lat="39.419379" lon="-5.238502">
        <ele>444.6</ele>
        <time>1970-01-01T00:00:00Z</time>
      </trkpt>
      <trkpt lat="39.419379" lon="-5.238502">
        <ele>444.6</ele>
        <time>1970-01-01T00:00:00Z</time>
      </trkpt>
      <trkpt lat="39.419379" lon="-5.238502">
        <ele>444.6</ele>
        <time>1970-01-01T00:00:00Z</time>
      </trkpt>
      <trkpt lat="39.419379" lon="-5.238502">
        <ele>444.6</ele>
        <time>1970-01-01T00:00:00Z</time>
      </trkpt>
      <trkpt lat="39.419563" lon="-5.238214">
        <ele>443.0</ele>
        <time>1970-01-01T00:00:00Z</time>
      </trkpt>
      <trkpt lat="39.419563" lon="-5.238214">
        <ele>443.0</ele>
        <time>1970-01-01T00:00:00Z</time>
      </trkpt>
      <trkpt lat="39.419563" lon="-5.238214">
        <ele>443.0</ele>
        <time>1970-01-01T00:00:00Z</time>
      </trkpt>
      <trkpt lat="39.419563" lon="-5.238214">
        <ele>443.0</ele>
        <time>1970-01-01T00:00:00Z</time>
      </trkpt>
      <trkpt lat="39.419765" lon="-5.237971">
        <ele>442.2</ele>
        <time>1970-01-01T00:00:00Z</time>
      </trkpt>
      <trkpt lat="39.419765" lon="-5.237971">
        <ele>442.2</ele>
        <time>1970-01-01T00:00:00Z</time>
      </trkpt>
      <trkpt lat="39.419765" lon="-5.237971">
        <ele>442.2</ele>
        <time>1970-01-01T00:00:00Z</time>
      </trkpt>
      <trkpt lat="39.419765" lon="-5.237971">
        <ele>442.2</ele>
        <time>1970-01-01T00:00:00Z</time>
      </trkpt>
      <trkpt lat="39.420033" lon="-5.237705">
        <ele>441.4</ele>
        <time>1970-01-01T00:00:00Z</time>
      </trkpt>
      <trkpt lat="39.420033" lon="-5.237705">
        <ele>441.4</ele>
        <time>1970-01-01T00:00:00Z</time>
      </trkpt>
      <trkpt lat="39.420033" lon="-5.237705">
        <ele>441.4</ele>
        <time>1970-01-01T00:00:00Z</time>
      </trkpt>
      <trkpt lat="39.420033" lon="-5.237705">
        <ele>441.4</ele>
        <time>1970-01-01T00:00:00Z</time>
      </trkpt>
      <trkpt lat="39.420361" lon="-5.237384">
        <ele>440.4</ele>
        <time>1970-01-01T00:00:00Z</time>
      </trkpt>
      <trkpt lat="39.420361" lon="-5.237384">
        <ele>440.4</ele>
        <time>1970-01-01T00:00:00Z</time>
      </trkpt>
      <trkpt lat="39.420361" lon="-5.237384">
        <ele>440.4</ele>
        <time>1970-01-01T00:00:00Z</time>
      </trkpt>
      <trkpt lat="39.420361" lon="-5.237384">
        <ele>440.4</ele>
        <time>1970-01-01T00:00:00Z</time>
      </trkpt>
      <trkpt lat="39.420648" lon="-5.237045">
        <ele>439.7</ele>
        <time>1970-01-01T00:00:00Z</time>
      </trkpt>
      <trkpt lat="39.420648" lon="-5.237045">
        <ele>439.7</ele>
        <time>1970-01-01T00:00:00Z</time>
      </trkpt>
      <trkpt lat="39.420648" lon="-5.237045">
        <ele>439.7</ele>
        <time>1970-01-01T00:00:00Z</time>
      </trkpt>
      <trkpt lat="39.420648" lon="-5.237045">
        <ele>439.7</ele>
        <time>1970-01-01T00:00:00Z</time>
      </trkpt>
      <trkpt lat="39.420805" lon="-5.236841">
        <ele>438.8</ele>
        <time>1970-01-01T00:00:00Z</time>
      </trkpt>
      <trkpt lat="39.420805" lon="-5.236841">
        <ele>438.8</ele>
        <time>1970-01-01T00:00:00Z</time>
      </trkpt>
      <trkpt lat="39.420805" lon="-5.236841">
        <ele>438.8</ele>
        <time>1970-01-01T00:00:00Z</time>
      </trkpt>
      <trkpt lat="39.420805" lon="-5.236841">
        <ele>438.8</ele>
        <time>1970-01-01T00:00:00Z</time>
      </trkpt>
      <trkpt lat="39.421011" lon="-5.236538">
        <ele>437.9</ele>
        <time>1970-01-01T00:00:00Z</time>
      </trkpt>
      <trkpt lat="39.421011" lon="-5.236538">
        <ele>437.9</ele>
        <time>1970-01-01T00:00:00Z</time>
      </trkpt>
      <trkpt lat="39.421011" lon="-5.236538">
        <ele>437.9</ele>
        <time>1970-01-01T00:00:00Z</time>
      </trkpt>
      <trkpt lat="39.421011" lon="-5.236538">
        <ele>437.9</ele>
        <time>1970-01-01T00:00:00Z</time>
      </trkpt>
      <trkpt lat="39.421212" lon="-5.236234">
        <ele>435.8</ele>
        <time>1970-01-01T00:00:00Z</time>
      </trkpt>
      <trkpt lat="39.421212" lon="-5.236234">
        <ele>435.8</ele>
        <time>1970-01-01T00:00:00Z</time>
      </trkpt>
      <trkpt lat="39.421212" lon="-5.236234">
        <ele>435.8</ele>
        <time>1970-01-01T00:00:00Z</time>
      </trkpt>
      <trkpt lat="39.421212" lon="-5.236234">
        <ele>435.8</ele>
        <time>1970-01-01T00:00:00Z</time>
      </trkpt>
      <trkpt lat="39.421530" lon="-5.235795">
        <ele>434.0</ele>
        <time>1970-01-01T00:00:00Z</time>
      </trkpt>
      <trkpt lat="39.421530" lon="-5.235795">
        <ele>434.0</ele>
        <time>1970-01-01T00:00:00Z</time>
      </trkpt>
      <trkpt lat="39.421530" lon="-5.235795">
        <ele>434.0</ele>
        <time>1970-01-01T00:00:00Z</time>
      </trkpt>
      <trkpt lat="39.421530" lon="-5.235795">
        <ele>434.0</ele>
        <time>1970-01-01T00:00:00Z</time>
      </trkpt>
      <trkpt lat="39.421648" lon="-5.235639">
        <ele>434.0</ele>
        <time>1970-01-01T00:00:00Z</time>
      </trkpt>
      <trkpt lat="39.421648" lon="-5.235639">
        <ele>434.0</ele>
        <time>1970-01-01T00:00:00Z</time>
      </trkpt>
      <trkpt lat="39.421648" lon="-5.235639">
        <ele>434.0</ele>
        <time>1970-01-01T00:00:00Z</time>
      </trkpt>
      <trkpt lat="39.421648" lon="-5.235639">
        <ele>434.0</ele>
        <time>1970-01-01T00:00:00Z</time>
      </trkpt>
      <trkpt lat="39.421749" lon="-5.235518">
        <ele>433.6</ele>
        <time>1970-01-01T00:00:00Z</time>
      </trkpt>
      <trkpt lat="39.421749" lon="-5.235518">
        <ele>433.6</ele>
        <time>1970-01-01T00:00:00Z</time>
      </trkpt>
      <trkpt lat="39.421749" lon="-5.235518">
        <ele>433.6</ele>
        <time>1970-01-01T00:00:00Z</time>
      </trkpt>
      <trkpt lat="39.421749" lon="-5.235518">
        <ele>433.6</ele>
        <time>1970-01-01T00:00:00Z</time>
      </trkpt>
      <trkpt lat="39.421945" lon="-5.235326">
        <ele>433.3</ele>
        <time>1970-01-01T00:00:00Z</time>
      </trkpt>
      <trkpt lat="39.421945" lon="-5.235326">
        <ele>433.3</ele>
        <time>1970-01-01T00:00:00Z</time>
      </trkpt>
      <trkpt lat="39.421945" lon="-5.235326">
        <ele>433.3</ele>
        <time>1970-01-01T00:00:00Z</time>
      </trkpt>
      <trkpt lat="39.421945" lon="-5.235326">
        <ele>433.3</ele>
        <time>1970-01-01T00:00:00Z</time>
      </trkpt>
      <trkpt lat="39.422178" lon="-5.235101">
        <ele>433.6</ele>
        <time>1970-01-01T00:00:00Z</time>
      </trkpt>
      <trkpt lat="39.422178" lon="-5.235101">
        <ele>433.6</ele>
        <time>1970-01-01T00:00:00Z</time>
      </trkpt>
      <trkpt lat="39.422178" lon="-5.235101">
        <ele>433.6</ele>
        <time>1970-01-01T00:00:00Z</time>
      </trkpt>
      <trkpt lat="39.422178" lon="-5.235101">
        <ele>433.6</ele>
        <time>1970-01-01T00:00:00Z</time>
      </trkpt>
      <trkpt lat="39.422337" lon="-5.234968">
        <ele>433.7</ele>
        <time>1970-01-01T00:00:00Z</time>
      </trkpt>
      <trkpt lat="39.422337" lon="-5.234968">
        <ele>433.7</ele>
        <time>1970-01-01T00:00:00Z</time>
      </trkpt>
      <trkpt lat="39.422337" lon="-5.234968">
        <ele>433.7</ele>
        <time>1970-01-01T00:00:00Z</time>
      </trkpt>
      <trkpt lat="39.422337" lon="-5.234968">
        <ele>433.7</ele>
        <time>1970-01-01T00:00:00Z</time>
      </trkpt>
      <trkpt lat="39.422444" lon="-5.234806">
        <ele>433.4</ele>
        <time>1970-01-01T00:00:00Z</time>
      </trkpt>
      <trkpt lat="39.422444" lon="-5.234806">
        <ele>433.4</ele>
        <time>1970-01-01T00:00:00Z</time>
      </trkpt>
      <trkpt lat="39.422444" lon="-5.234806">
        <ele>433.4</ele>
        <time>1970-01-01T00:00:00Z</time>
      </trkpt>
      <trkpt lat="39.422444" lon="-5.234806">
        <ele>433.4</ele>
        <time>1970-01-01T00:00:00Z</time>
      </trkpt>
      <trkpt lat="39.422670" lon="-5.234480">
        <ele>434.1</ele>
        <time>1970-01-01T00:00:00Z</time>
      </trkpt>
      <trkpt lat="39.422670" lon="-5.234480">
        <ele>434.1</ele>
        <time>1970-01-01T00:00:00Z</time>
      </trkpt>
      <trkpt lat="39.422670" lon="-5.234480">
        <ele>434.1</ele>
        <time>1970-01-01T00:00:00Z</time>
      </trkpt>
      <trkpt lat="39.422670" lon="-5.234480">
        <ele>434.1</ele>
        <time>1970-01-01T00:00:00Z</time>
      </trkpt>
      <trkpt lat="39.422787" lon="-5.234317">
        <ele>434.7</ele>
        <time>1970-01-01T00:00:00Z</time>
      </trkpt>
      <trkpt lat="39.422787" lon="-5.234317">
        <ele>434.7</ele>
        <time>1970-01-01T00:00:00Z</time>
      </trkpt>
      <trkpt lat="39.422787" lon="-5.234317">
        <ele>434.7</ele>
        <time>1970-01-01T00:00:00Z</time>
      </trkpt>
      <trkpt lat="39.422787" lon="-5.234317">
        <ele>434.7</ele>
        <time>1970-01-01T00:00:00Z</time>
      </trkpt>
      <trkpt lat="39.422826" lon="-5.234248">
        <ele>434.8</ele>
        <time>1970-01-01T00:00:00Z</time>
      </trkpt>
      <trkpt lat="39.422826" lon="-5.234248">
        <ele>434.8</ele>
        <time>1970-01-01T00:00:00Z</time>
      </trkpt>
      <trkpt lat="39.422826" lon="-5.234248">
        <ele>434.8</ele>
        <time>1970-01-01T00:00:00Z</time>
      </trkpt>
      <trkpt lat="39.422826" lon="-5.234248">
        <ele>434.8</ele>
        <time>1970-01-01T00:00:00Z</time>
      </trkpt>
      <trkpt lat="39.422884" lon="-5.234206">
        <ele>435.1</ele>
        <time>1970-01-01T00:00:00Z</time>
      </trkpt>
      <trkpt lat="39.422884" lon="-5.234206">
        <ele>435.1</ele>
        <time>1970-01-01T00:00:00Z</time>
      </trkpt>
      <trkpt lat="39.422884" lon="-5.234206">
        <ele>435.1</ele>
        <time>1970-01-01T00:00:00Z</time>
      </trkpt>
      <trkpt lat="39.422884" lon="-5.234206">
        <ele>435.1</ele>
        <time>1970-01-01T00:00:00Z</time>
      </trkpt>
      <trkpt lat="39.422961" lon="-5.234173">
        <ele>435.6</ele>
        <time>1970-01-01T00:00:00Z</time>
      </trkpt>
      <trkpt lat="39.422961" lon="-5.234173">
        <ele>435.6</ele>
        <time>1970-01-01T00:00:00Z</time>
      </trkpt>
      <trkpt lat="39.422961" lon="-5.234173">
        <ele>435.6</ele>
        <time>1970-01-01T00:00:00Z</time>
      </trkpt>
      <trkpt lat="39.422961" lon="-5.234173">
        <ele>435.6</ele>
        <time>1970-01-01T00:00:00Z</time>
      </trkpt>
      <trkpt lat="39.423002" lon="-5.234127">
        <ele>435.8</ele>
        <time>1970-01-01T00:00:00Z</time>
      </trkpt>
      <trkpt lat="39.423002" lon="-5.234127">
        <ele>435.8</ele>
        <time>1970-01-01T00:00:00Z</time>
      </trkpt>
      <trkpt lat="39.423002" lon="-5.234127">
        <ele>435.8</ele>
        <time>1970-01-01T00:00:00Z</time>
      </trkpt>
      <trkpt lat="39.423002" lon="-5.234127">
        <ele>435.8</ele>
        <time>1970-01-01T00:00:00Z</time>
      </trkpt>
      <trkpt lat="39.423101" lon="-5.233814">
        <ele>435.5</ele>
        <time>1970-01-01T00:00:00Z</time>
      </trkpt>
      <trkpt lat="39.423101" lon="-5.233814">
        <ele>435.5</ele>
        <time>1970-01-01T00:00:00Z</time>
      </trkpt>
      <trkpt lat="39.423101" lon="-5.233814">
        <ele>435.5</ele>
        <time>1970-01-01T00:00:00Z</time>
      </trkpt>
      <trkpt lat="39.423101" lon="-5.233814">
        <ele>435.5</ele>
        <time>1970-01-01T00:00:00Z</time>
      </trkpt>
      <trkpt lat="39.423160" lon="-5.233658">
        <ele>435.1</ele>
        <time>1970-01-01T00:00:00Z</time>
      </trkpt>
      <trkpt lat="39.423160" lon="-5.233658">
        <ele>435.1</ele>
        <time>1970-01-01T00:00:00Z</time>
      </trkpt>
      <trkpt lat="39.423160" lon="-5.233658">
        <ele>435.1</ele>
        <time>1970-01-01T00:00:00Z</time>
      </trkpt>
      <trkpt lat="39.423160" lon="-5.233658">
        <ele>435.1</ele>
        <time>1970-01-01T00:00:00Z</time>
      </trkpt>
      <trkpt lat="39.423202" lon="-5.233433">
        <ele>434.5</ele>
        <time>1970-01-01T00:00:00Z</time>
      </trkpt>
      <trkpt lat="39.423202" lon="-5.233433">
        <ele>434.5</ele>
        <time>1970-01-01T00:00:00Z</time>
      </trkpt>
      <trkpt lat="39.423202" lon="-5.233433">
        <ele>434.5</ele>
        <time>1970-01-01T00:00:00Z</time>
      </trkpt>
      <trkpt lat="39.423202" lon="-5.233433">
        <ele>434.5</ele>
        <time>1970-01-01T00:00:00Z</time>
      </trkpt>
      <trkpt lat="39.423308" lon="-5.233153">
        <ele>434.3</ele>
        <time>1970-01-01T00:00:00Z</time>
      </trkpt>
      <trkpt lat="39.423308" lon="-5.233153">
        <ele>434.3</ele>
        <time>1970-01-01T00:00:00Z</time>
      </trkpt>
      <trkpt lat="39.423308" lon="-5.233153">
        <ele>434.3</ele>
        <time>1970-01-01T00:00:00Z</time>
      </trkpt>
      <trkpt lat="39.423308" lon="-5.233153">
        <ele>434.3</ele>
        <time>1970-01-01T00:00:00Z</time>
      </trkpt>
      <trkpt lat="39.423486" lon="-5.232784">
        <ele>434.9</ele>
        <time>1970-01-01T00:00:00Z</time>
      </trkpt>
      <trkpt lat="39.423486" lon="-5.232784">
        <ele>434.9</ele>
        <time>1970-01-01T00:00:00Z</time>
      </trkpt>
      <trkpt lat="39.423486" lon="-5.232784">
        <ele>434.9</ele>
        <time>1970-01-01T00:00:00Z</time>
      </trkpt>
      <trkpt lat="39.423486" lon="-5.232784">
        <ele>434.9</ele>
        <time>1970-01-01T00:00:00Z</time>
      </trkpt>
      <trkpt lat="39.423562" lon="-5.232648">
        <ele>434.9</ele>
        <time>1970-01-01T00:00:00Z</time>
      </trkpt>
      <trkpt lat="39.423562" lon="-5.232648">
        <ele>434.9</ele>
        <time>1970-01-01T00:00:00Z</time>
      </trkpt>
      <trkpt lat="39.423562" lon="-5.232648">
        <ele>434.9</ele>
        <time>1970-01-01T00:00:00Z</time>
      </trkpt>
      <trkpt lat="39.423562" lon="-5.232648">
        <ele>434.9</ele>
        <time>1970-01-01T00:00:00Z</time>
      </trkpt>
      <trkpt lat="39.423683" lon="-5.232459">
        <ele>434.7</ele>
        <time>1970-01-01T00:00:00Z</time>
      </trkpt>
      <trkpt lat="39.423683" lon="-5.232459">
        <ele>434.7</ele>
        <time>1970-01-01T00:00:00Z</time>
      </trkpt>
      <trkpt lat="39.423683" lon="-5.232459">
        <ele>434.7</ele>
        <time>1970-01-01T00:00:00Z</time>
      </trkpt>
      <trkpt lat="39.423683" lon="-5.232459">
        <ele>434.7</ele>
        <time>1970-01-01T00:00:00Z</time>
      </trkpt>
      <trkpt lat="39.423748" lon="-5.232355">
        <ele>434.5</ele>
        <time>1970-01-01T00:00:00Z</time>
      </trkpt>
      <trkpt lat="39.423748" lon="-5.232355">
        <ele>434.5</ele>
        <time>1970-01-01T00:00:00Z</time>
      </trkpt>
      <trkpt lat="39.423748" lon="-5.232355">
        <ele>434.5</ele>
        <time>1970-01-01T00:00:00Z</time>
      </trkpt>
      <trkpt lat="39.423748" lon="-5.232355">
        <ele>434.5</ele>
        <time>1970-01-01T00:00:00Z</time>
      </trkpt>
      <trkpt lat="39.423779" lon="-5.232284">
        <ele>434.3</ele>
        <time>1970-01-01T00:00:00Z</time>
      </trkpt>
      <trkpt lat="39.423779" lon="-5.232284">
        <ele>434.3</ele>
        <time>1970-01-01T00:00:00Z</time>
      </trkpt>
      <trkpt lat="39.423779" lon="-5.232284">
        <ele>434.3</ele>
        <time>1970-01-01T00:00:00Z</time>
      </trkpt>
      <trkpt lat="39.423779" lon="-5.232284">
        <ele>434.3</ele>
        <time>1970-01-01T00:00:00Z</time>
      </trkpt>
      <trkpt lat="39.423872" lon="-5.232040">
        <ele>435.0</ele>
        <time>1970-01-01T00:00:00Z</time>
      </trkpt>
      <trkpt lat="39.423872" lon="-5.232040">
        <ele>435.0</ele>
        <time>1970-01-01T00:00:00Z</time>
      </trkpt>
      <trkpt lat="39.423872" lon="-5.232040">
        <ele>435.0</ele>
        <time>1970-01-01T00:00:00Z</time>
      </trkpt>
      <trkpt lat="39.423872" lon="-5.232040">
        <ele>435.0</ele>
        <time>1970-01-01T00:00:00Z</time>
      </trkpt>
      <trkpt lat="39.424076" lon="-5.231740">
        <ele>435.0</ele>
        <time>1970-01-01T00:00:00Z</time>
      </trkpt>
      <trkpt lat="39.424076" lon="-5.231740">
        <ele>435.0</ele>
        <time>1970-01-01T00:00:00Z</time>
      </trkpt>
      <trkpt lat="39.424076" lon="-5.231740">
        <ele>435.0</ele>
        <time>1970-01-01T00:00:00Z</time>
      </trkpt>
      <trkpt lat="39.424076" lon="-5.231740">
        <ele>435.0</ele>
        <time>1970-01-01T00:00:00Z</time>
      </trkpt>
      <trkpt lat="39.424215" lon="-5.231550">
        <ele>435.2</ele>
        <time>1970-01-01T00:00:00Z</time>
      </trkpt>
      <trkpt lat="39.424215" lon="-5.231550">
        <ele>435.2</ele>
        <time>1970-01-01T00:00:00Z</time>
      </trkpt>
      <trkpt lat="39.424215" lon="-5.231550">
        <ele>435.2</ele>
        <time>1970-01-01T00:00:00Z</time>
      </trkpt>
      <trkpt lat="39.424215" lon="-5.231550">
        <ele>435.2</ele>
        <time>1970-01-01T00:00:00Z</time>
      </trkpt>
      <trkpt lat="39.424348" lon="-5.231318">
        <ele>436.8</ele>
        <time>1970-01-01T00:00:00Z</time>
      </trkpt>
      <trkpt lat="39.424348" lon="-5.231318">
        <ele>436.8</ele>
        <time>1970-01-01T00:00:00Z</time>
      </trkpt>
      <trkpt lat="39.424348" lon="-5.231318">
        <ele>436.8</ele>
        <time>1970-01-01T00:00:00Z</time>
      </trkpt>
      <trkpt lat="39.424348" lon="-5.231318">
        <ele>436.8</ele>
        <time>1970-01-01T00:00:00Z</time>
      </trkpt>
      <trkpt lat="39.424549" lon="-5.231048">
        <ele>438.3</ele>
        <time>1970-01-01T00:00:00Z</time>
      </trkpt>
      <trkpt lat="39.424549" lon="-5.231048">
        <ele>438.3</ele>
        <time>1970-01-01T00:00:00Z</time>
      </trkpt>
      <trkpt lat="39.424549" lon="-5.231048">
        <ele>438.3</ele>
        <time>1970-01-01T00:00:00Z</time>
      </trkpt>
      <trkpt lat="39.424549" lon="-5.231048">
        <ele>438.3</ele>
        <time>1970-01-01T00:00:00Z</time>
      </trkpt>
      <trkpt lat="39.424700" lon="-5.230874">
        <ele>440.2</ele>
        <time>1970-01-01T00:00:00Z</time>
      </trkpt>
      <trkpt lat="39.424700" lon="-5.230874">
        <ele>440.2</ele>
        <time>1970-01-01T00:00:00Z</time>
      </trkpt>
      <trkpt lat="39.424700" lon="-5.230874">
        <ele>440.2</ele>
        <time>1970-01-01T00:00:00Z</time>
      </trkpt>
      <trkpt lat="39.424700" lon="-5.230874">
        <ele>440.2</ele>
        <time>1970-01-01T00:00:00Z</time>
      </trkpt>
      <trkpt lat="39.424974" lon="-5.230613">
        <ele>442.5</ele>
        <time>1970-01-01T00:00:00Z</time>
      </trkpt>
      <trkpt lat="39.424974" lon="-5.230613">
        <ele>442.5</ele>
        <time>1970-01-01T00:00:00Z</time>
      </trkpt>
      <trkpt lat="39.424974" lon="-5.230613">
        <ele>442.5</ele>
        <time>1970-01-01T00:00:00Z</time>
      </trkpt>
      <trkpt lat="39.424974" lon="-5.230613">
        <ele>442.5</ele>
        <time>1970-01-01T00:00:00Z</time>
      </trkpt>
      <trkpt lat="39.425445" lon="-5.230206">
        <ele>447.8</ele>
        <time>1970-01-01T00:00:00Z</time>
      </trkpt>
      <trkpt lat="39.425445" lon="-5.230206">
        <ele>447.8</ele>
        <time>1970-01-01T00:00:00Z</time>
      </trkpt>
      <trkpt lat="39.425445" lon="-5.230206">
        <ele>447.8</ele>
        <time>1970-01-01T00:00:00Z</time>
      </trkpt>
      <trkpt lat="39.425445" lon="-5.230206">
        <ele>447.8</ele>
        <time>1970-01-01T00:00:00Z</time>
      </trkpt>
      <trkpt lat="39.425713" lon="-5.230007">
        <ele>448.7</ele>
        <time>1970-01-01T00:00:00Z</time>
      </trkpt>
      <trkpt lat="39.425713" lon="-5.230007">
        <ele>448.7</ele>
        <time>1970-01-01T00:00:00Z</time>
      </trkpt>
      <trkpt lat="39.425713" lon="-5.230007">
        <ele>448.7</ele>
        <time>1970-01-01T00:00:00Z</time>
      </trkpt>
      <trkpt lat="39.425713" lon="-5.230007">
        <ele>448.7</ele>
        <time>1970-01-01T00:00:00Z</time>
      </trkpt>
      <trkpt lat="39.425882" lon="-5.229874">
        <ele>448.7</ele>
        <time>1970-01-01T00:00:00Z</time>
      </trkpt>
      <trkpt lat="39.425882" lon="-5.229874">
        <ele>448.7</ele>
        <time>1970-01-01T00:00:00Z</time>
      </trkpt>
      <trkpt lat="39.425882" lon="-5.229874">
        <ele>448.7</ele>
        <time>1970-01-01T00:00:00Z</time>
      </trkpt>
      <trkpt lat="39.425882" lon="-5.229874">
        <ele>448.7</ele>
        <time>1970-01-01T00:00:00Z</time>
      </trkpt>
      <trkpt lat="39.425985" lon="-5.229775">
        <ele>448.3</ele>
        <time>1970-01-01T00:00:00Z</time>
      </trkpt>
      <trkpt lat="39.425985" lon="-5.229775">
        <ele>448.3</ele>
        <time>1970-01-01T00:00:00Z</time>
      </trkpt>
      <trkpt lat="39.425985" lon="-5.229775">
        <ele>448.3</ele>
        <time>1970-01-01T00:00:00Z</time>
      </trkpt>
      <trkpt lat="39.425985" lon="-5.229775">
        <ele>448.3</ele>
        <time>1970-01-01T00:00:00Z</time>
      </trkpt>
      <trkpt lat="39.426046" lon="-5.229686">
        <ele>448.3</ele>
        <time>1970-01-01T00:00:00Z</time>
      </trkpt>
      <trkpt lat="39.426046" lon="-5.229686">
        <ele>448.3</ele>
        <time>1970-01-01T00:00:00Z</time>
      </trkpt>
      <trkpt lat="39.426046" lon="-5.229686">
        <ele>448.3</ele>
        <time>1970-01-01T00:00:00Z</time>
      </trkpt>
      <trkpt lat="39.426046" lon="-5.229686">
        <ele>448.3</ele>
        <time>1970-01-01T00:00:00Z</time>
      </trkpt>
      <trkpt lat="39.426119" lon="-5.229580">
        <ele>449.2</ele>
        <time>1970-01-01T00:00:00Z</time>
      </trkpt>
      <trkpt lat="39.426119" lon="-5.229580">
        <ele>449.2</ele>
        <time>1970-01-01T00:00:00Z</time>
      </trkpt>
      <trkpt lat="39.426119" lon="-5.229580">
        <ele>449.2</ele>
        <time>1970-01-01T00:00:00Z</time>
      </trkpt>
      <trkpt lat="39.426119" lon="-5.229580">
        <ele>449.2</ele>
        <time>1970-01-01T00:00:00Z</time>
      </trkpt>
      <trkpt lat="39.426249" lon="-5.229455">
        <ele>450.3</ele>
        <time>1970-01-01T00:00:00Z</time>
      </trkpt>
      <trkpt lat="39.426249" lon="-5.229455">
        <ele>450.3</ele>
        <time>1970-01-01T00:00:00Z</time>
      </trkpt>
      <trkpt lat="39.426249" lon="-5.229455">
        <ele>450.3</ele>
        <time>1970-01-01T00:00:00Z</time>
      </trkpt>
      <trkpt lat="39.426249" lon="-5.229455">
        <ele>450.3</ele>
        <time>1970-01-01T00:00:00Z</time>
      </trkpt>
      <trkpt lat="39.426354" lon="-5.229384">
        <ele>450.9</ele>
        <time>1970-01-01T00:00:00Z</time>
      </trkpt>
      <trkpt lat="39.426354" lon="-5.229384">
        <ele>450.9</ele>
        <time>1970-01-01T00:00:00Z</time>
      </trkpt>
      <trkpt lat="39.426354" lon="-5.229384">
        <ele>450.9</ele>
        <time>1970-01-01T00:00:00Z</time>
      </trkpt>
      <trkpt lat="39.426354" lon="-5.229384">
        <ele>450.9</ele>
        <time>1970-01-01T00:00:00Z</time>
      </trkpt>
      <trkpt lat="39.426545" lon="-5.229249">
        <ele>452.1</ele>
        <time>1970-01-01T00:00:00Z</time>
      </trkpt>
      <trkpt lat="39.426545" lon="-5.229249">
        <ele>452.1</ele>
        <time>1970-01-01T00:00:00Z</time>
      </trkpt>
      <trkpt lat="39.426545" lon="-5.229249">
        <ele>452.1</ele>
        <time>1970-01-01T00:00:00Z</time>
      </trkpt>
      <trkpt lat="39.426545" lon="-5.229249">
        <ele>452.1</ele>
        <time>1970-01-01T00:00:00Z</time>
      </trkpt>
      <trkpt lat="39.426666" lon="-5.229188">
        <ele>452.8</ele>
        <time>1970-01-01T00:00:00Z</time>
      </trkpt>
      <trkpt lat="39.426666" lon="-5.229188">
        <ele>452.8</ele>
        <time>1970-01-01T00:00:00Z</time>
      </trkpt>
      <trkpt lat="39.426666" lon="-5.229188">
        <ele>452.8</ele>
        <time>1970-01-01T00:00:00Z</time>
      </trkpt>
      <trkpt lat="39.426666" lon="-5.229188">
        <ele>452.8</ele>
        <time>1970-01-01T00:00:00Z</time>
      </trkpt>
      <trkpt lat="39.426929" lon="-5.229096">
        <ele>454.1</ele>
        <time>1970-01-01T00:00:00Z</time>
      </trkpt>
      <trkpt lat="39.426929" lon="-5.229096">
        <ele>454.1</ele>
        <time>1970-01-01T00:00:00Z</time>
      </trkpt>
      <trkpt lat="39.426929" lon="-5.229096">
        <ele>454.1</ele>
        <time>1970-01-01T00:00:00Z</time>
      </trkpt>
      <trkpt lat="39.426929" lon="-5.229096">
        <ele>454.1</ele>
        <time>1970-01-01T00:00:00Z</time>
      </trkpt>
      <trkpt lat="39.427101" lon="-5.229036">
        <ele>455.4</ele>
        <time>1970-01-01T00:00:00Z</time>
      </trkpt>
      <trkpt lat="39.427101" lon="-5.229036">
        <ele>455.4</ele>
        <time>1970-01-01T00:00:00Z</time>
      </trkpt>
      <trkpt lat="39.427101" lon="-5.229036">
        <ele>455.4</ele>
        <time>1970-01-01T00:00:00Z</time>
      </trkpt>
      <trkpt lat="39.427101" lon="-5.229036">
        <ele>455.4</ele>
        <time>1970-01-01T00:00:00Z</time>
      </trkpt>
      <trkpt lat="39.427303" lon="-5.228934">
        <ele>457.2</ele>
        <time>1970-01-01T00:00:00Z</time>
      </trkpt>
      <trkpt lat="39.427303" lon="-5.228934">
        <ele>457.2</ele>
        <time>1970-01-01T00:00:00Z</time>
      </trkpt>
      <trkpt lat="39.427303" lon="-5.228934">
        <ele>457.2</ele>
        <time>1970-01-01T00:00:00Z</time>
      </trkpt>
      <trkpt lat="39.427303" lon="-5.228934">
        <ele>457.2</ele>
        <time>1970-01-01T00:00:00Z</time>
      </trkpt>
      <trkpt lat="39.427743" lon="-5.228678">
        <ele>459.8</ele>
        <time>1970-01-01T00:00:00Z</time>
      </trkpt>
      <trkpt lat="39.427743" lon="-5.228678">
        <ele>459.8</ele>
        <time>1970-01-01T00:00:00Z</time>
      </trkpt>
      <trkpt lat="39.427743" lon="-5.228678">
        <ele>459.8</ele>
        <time>1970-01-01T00:00:00Z</time>
      </trkpt>
      <trkpt lat="39.427743" lon="-5.228678">
        <ele>459.8</ele>
        <time>1970-01-01T00:00:00Z</time>
      </trkpt>
      <trkpt lat="39.428042" lon="-5.228500">
        <ele>463.2</ele>
        <time>1970-01-01T00:00:00Z</time>
      </trkpt>
      <trkpt lat="39.428042" lon="-5.228500">
        <ele>463.2</ele>
        <time>1970-01-01T00:00:00Z</time>
      </trkpt>
      <trkpt lat="39.428042" lon="-5.228500">
        <ele>463.2</ele>
        <time>1970-01-01T00:00:00Z</time>
      </trkpt>
      <trkpt lat="39.428042" lon="-5.228500">
        <ele>463.2</ele>
        <time>1970-01-01T00:00:00Z</time>
      </trkpt>
      <trkpt lat="39.428401" lon="-5.228300">
        <ele>466.5</ele>
        <time>1970-01-01T00:00:00Z</time>
      </trkpt>
      <trkpt lat="39.428401" lon="-5.228300">
        <ele>466.5</ele>
        <time>1970-01-01T00:00:00Z</time>
      </trkpt>
      <trkpt lat="39.428401" lon="-5.228300">
        <ele>466.5</ele>
        <time>1970-01-01T00:00:00Z</time>
      </trkpt>
      <trkpt lat="39.428401" lon="-5.228300">
        <ele>466.5</ele>
        <time>1970-01-01T00:00:00Z</time>
      </trkpt>
      <trkpt lat="39.428463" lon="-5.228270">
        <ele>467.0</ele>
        <time>1970-01-01T00:00:00Z</time>
      </trkpt>
      <trkpt lat="39.428463" lon="-5.228270">
        <ele>467.0</ele>
        <time>1970-01-01T00:00:00Z</time>
      </trkpt>
      <trkpt lat="39.428463" lon="-5.228270">
        <ele>467.0</ele>
        <time>1970-01-01T00:00:00Z</time>
      </trkpt>
      <trkpt lat="39.428463" lon="-5.228270">
        <ele>467.0</ele>
        <time>1970-01-01T00:00:00Z</time>
      </trkpt>
      <trkpt lat="39.428799" lon="-5.228119">
        <ele>468.9</ele>
        <time>1970-01-01T00:00:00Z</time>
      </trkpt>
      <trkpt lat="39.428799" lon="-5.228119">
        <ele>468.9</ele>
        <time>1970-01-01T00:00:00Z</time>
      </trkpt>
      <trkpt lat="39.428799" lon="-5.228119">
        <ele>468.9</ele>
        <time>1970-01-01T00:00:00Z</time>
      </trkpt>
      <trkpt lat="39.428799" lon="-5.228119">
        <ele>468.9</ele>
        <time>1970-01-01T00:00:00Z</time>
      </trkpt>
      <trkpt lat="39.428919" lon="-5.228040">
        <ele>469.3</ele>
        <time>1970-01-01T00:00:00Z</time>
      </trkpt>
      <trkpt lat="39.428919" lon="-5.228040">
        <ele>469.3</ele>
        <time>1970-01-01T00:00:00Z</time>
      </trkpt>
      <trkpt lat="39.428919" lon="-5.228040">
        <ele>469.3</ele>
        <time>1970-01-01T00:00:00Z</time>
      </trkpt>
      <trkpt lat="39.428919" lon="-5.228040">
        <ele>469.3</ele>
        <time>1970-01-01T00:00:00Z</time>
      </trkpt>
      <trkpt lat="39.429011" lon="-5.227965">
        <ele>469.4</ele>
        <time>1970-01-01T00:00:00Z</time>
      </trkpt>
      <trkpt lat="39.429011" lon="-5.227965">
        <ele>469.4</ele>
        <time>1970-01-01T00:00:00Z</time>
      </trkpt>
      <trkpt lat="39.429011" lon="-5.227965">
        <ele>469.4</ele>
        <time>1970-01-01T00:00:00Z</time>
      </trkpt>
      <trkpt lat="39.429011" lon="-5.227965">
        <ele>469.4</ele>
        <time>1970-01-01T00:00:00Z</time>
      </trkpt>
      <trkpt lat="39.429287" lon="-5.227689">
        <ele>467.5</ele>
        <time>1970-01-01T00:00:00Z</time>
      </trkpt>
      <trkpt lat="39.429287" lon="-5.227689">
        <ele>467.5</ele>
        <time>1970-01-01T00:00:00Z</time>
      </trkpt>
      <trkpt lat="39.429287" lon="-5.227689">
        <ele>467.5</ele>
        <time>1970-01-01T00:00:00Z</time>
      </trkpt>
      <trkpt lat="39.429287" lon="-5.227689">
        <ele>467.5</ele>
        <time>1970-01-01T00:00:00Z</time>
      </trkpt>
      <trkpt lat="39.429456" lon="-5.227461">
        <ele>465.0</ele>
        <time>1970-01-01T00:00:00Z</time>
      </trkpt>
      <trkpt lat="39.429456" lon="-5.227461">
        <ele>465.0</ele>
        <time>1970-01-01T00:00:00Z</time>
      </trkpt>
      <trkpt lat="39.429456" lon="-5.227461">
        <ele>465.0</ele>
        <time>1970-01-01T00:00:00Z</time>
      </trkpt>
      <trkpt lat="39.429456" lon="-5.227461">
        <ele>465.0</ele>
        <time>1970-01-01T00:00:00Z</time>
      </trkpt>
      <trkpt lat="39.429589" lon="-5.227249">
        <ele>462.9</ele>
        <time>1970-01-01T00:00:00Z</time>
      </trkpt>
      <trkpt lat="39.429589" lon="-5.227249">
        <ele>462.9</ele>
        <time>1970-01-01T00:00:00Z</time>
      </trkpt>
      <trkpt lat="39.429589" lon="-5.227249">
        <ele>462.9</ele>
        <time>1970-01-01T00:00:00Z</time>
      </trkpt>
      <trkpt lat="39.429589" lon="-5.227249">
        <ele>462.9</ele>
        <time>1970-01-01T00:00:00Z</time>
      </trkpt>
      <trkpt lat="39.429625" lon="-5.227171">
        <ele>462.0</ele>
        <time>1970-01-01T00:00:00Z</time>
      </trkpt>
      <trkpt lat="39.429625" lon="-5.227171">
        <ele>462.0</ele>
        <time>1970-01-01T00:00:00Z</time>
      </trkpt>
      <trkpt lat="39.429625" lon="-5.227171">
        <ele>462.0</ele>
        <time>1970-01-01T00:00:00Z</time>
      </trkpt>
      <trkpt lat="39.429625" lon="-5.227171">
        <ele>462.0</ele>
        <time>1970-01-01T00:00:00Z</time>
      </trkpt>
      <trkpt lat="39.429645" lon="-5.227111">
        <ele>461.2</ele>
        <time>1970-01-01T00:00:00Z</time>
      </trkpt>
      <trkpt lat="39.429645" lon="-5.227111">
        <ele>461.2</ele>
        <time>1970-01-01T00:00:00Z</time>
      </trkpt>
      <trkpt lat="39.429645" lon="-5.227111">
        <ele>461.2</ele>
        <time>1970-01-01T00:00:00Z</time>
      </trkpt>
      <trkpt lat="39.429645" lon="-5.227111">
        <ele>461.2</ele>
        <time>1970-01-01T00:00:00Z</time>
      </trkpt>
      <trkpt lat="39.429687" lon="-5.226983">
        <ele>459.6</ele>
        <time>1970-01-01T00:00:00Z</time>
      </trkpt>
      <trkpt lat="39.429687" lon="-5.226983">
        <ele>459.6</ele>
        <time>1970-01-01T00:00:00Z</time>
      </trkpt>
      <trkpt lat="39.429687" lon="-5.226983">
        <ele>459.6</ele>
        <time>1970-01-01T00:00:00Z</time>
      </trkpt>
      <trkpt lat="39.429687" lon="-5.226983">
        <ele>459.6</ele>
        <time>1970-01-01T00:00:00Z</time>
      </trkpt>
      <trkpt lat="39.429692" lon="-5.226856">
        <ele>458.0</ele>
        <time>1970-01-01T00:00:00Z</time>
      </trkpt>
      <trkpt lat="39.429692" lon="-5.226856">
        <ele>458.0</ele>
        <time>1970-01-01T00:00:00Z</time>
      </trkpt>
      <trkpt lat="39.429692" lon="-5.226856">
        <ele>458.0</ele>
        <time>1970-01-01T00:00:00Z</time>
      </trkpt>
      <trkpt lat="39.429692" lon="-5.226856">
        <ele>458.0</ele>
        <time>1970-01-01T00:00:00Z</time>
      </trkpt>
      <trkpt lat="39.429674" lon="-5.226724">
        <ele>456.5</ele>
        <time>1970-01-01T00:00:00Z</time>
      </trkpt>
      <trkpt lat="39.429674" lon="-5.226724">
        <ele>456.5</ele>
        <time>1970-01-01T00:00:00Z</time>
      </trkpt>
      <trkpt lat="39.429674" lon="-5.226724">
        <ele>456.5</ele>
        <time>1970-01-01T00:00:00Z</time>
      </trkpt>
      <trkpt lat="39.429674" lon="-5.226724">
        <ele>456.5</ele>
        <time>1970-01-01T00:00:00Z</time>
      </trkpt>
      <trkpt lat="39.429651" lon="-5.226607">
        <ele>455.4</ele>
        <time>1970-01-01T00:00:00Z</time>
      </trkpt>
      <trkpt lat="39.429651" lon="-5.226607">
        <ele>455.4</ele>
        <time>1970-01-01T00:00:00Z</time>
      </trkpt>
      <trkpt lat="39.429651" lon="-5.226607">
        <ele>455.4</ele>
        <time>1970-01-01T00:00:00Z</time>
      </trkpt>
      <trkpt lat="39.429651" lon="-5.226607">
        <ele>455.4</ele>
        <time>1970-01-01T00:00:00Z</time>
      </trkpt>
      <trkpt lat="39.429647" lon="-5.226542">
        <ele>454.7</ele>
        <time>1970-01-01T00:00:00Z</time>
      </trkpt>
      <trkpt lat="39.429647" lon="-5.226542">
        <ele>454.7</ele>
        <time>1970-01-01T00:00:00Z</time>
      </trkpt>
      <trkpt lat="39.429647" lon="-5.226542">
        <ele>454.7</ele>
        <time>1970-01-01T00:00:00Z</time>
      </trkpt>
      <trkpt lat="39.429647" lon="-5.226542">
        <ele>454.7</ele>
        <time>1970-01-01T00:00:00Z</time>
      </trkpt>
      <trkpt lat="39.429659" lon="-5.226471">
        <ele>453.9</ele>
        <time>1970-01-01T00:00:00Z</time>
      </trkpt>
      <trkpt lat="39.429659" lon="-5.226471">
        <ele>453.9</ele>
        <time>1970-01-01T00:00:00Z</time>
      </trkpt>
      <trkpt lat="39.429659" lon="-5.226471">
        <ele>453.9</ele>
        <time>1970-01-01T00:00:00Z</time>
      </trkpt>
      <trkpt lat="39.429659" lon="-5.226471">
        <ele>453.9</ele>
        <time>1970-01-01T00:00:00Z</time>
      </trkpt>
      <trkpt lat="39.429687" lon="-5.226415">
        <ele>453.3</ele>
        <time>1970-01-01T00:00:00Z</time>
      </trkpt>
      <trkpt lat="39.429687" lon="-5.226415">
        <ele>453.3</ele>
        <time>1970-01-01T00:00:00Z</time>
      </trkpt>
      <trkpt lat="39.429687" lon="-5.226415">
        <ele>453.3</ele>
        <time>1970-01-01T00:00:00Z</time>
      </trkpt>
      <trkpt lat="39.429687" lon="-5.226415">
        <ele>453.3</ele>
        <time>1970-01-01T00:00:00Z</time>
      </trkpt>
      <trkpt lat="39.429724" lon="-5.226350">
        <ele>452.4</ele>
        <time>1970-01-01T00:00:00Z</time>
      </trkpt>
      <trkpt lat="39.429724" lon="-5.226350">
        <ele>452.4</ele>
        <time>1970-01-01T00:00:00Z</time>
      </trkpt>
      <trkpt lat="39.429724" lon="-5.226350">
        <ele>452.4</ele>
        <time>1970-01-01T00:00:00Z</time>
      </trkpt>
      <trkpt lat="39.429724" lon="-5.226350">
        <ele>452.4</ele>
        <time>1970-01-01T00:00:00Z</time>
      </trkpt>
      <trkpt lat="39.429773" lon="-5.226278">
        <ele>451.6</ele>
        <time>1970-01-01T00:00:00Z</time>
      </trkpt>
      <trkpt lat="39.429773" lon="-5.226278">
        <ele>451.6</ele>
        <time>1970-01-01T00:00:00Z</time>
      </trkpt>
      <trkpt lat="39.429773" lon="-5.226278">
        <ele>451.6</ele>
        <time>1970-01-01T00:00:00Z</time>
      </trkpt>
      <trkpt lat="39.429773" lon="-5.226278">
        <ele>451.6</ele>
        <time>1970-01-01T00:00:00Z</time>
      </trkpt>
      <trkpt lat="39.429861" lon="-5.226161">
        <ele>451.3</ele>
        <time>1970-01-01T00:00:00Z</time>
      </trkpt>
      <trkpt lat="39.429861" lon="-5.226161">
        <ele>451.3</ele>
        <time>1970-01-01T00:00:00Z</time>
      </trkpt>
      <trkpt lat="39.429861" lon="-5.226161">
        <ele>451.3</ele>
        <time>1970-01-01T00:00:00Z</time>
      </trkpt>
      <trkpt lat="39.429861" lon="-5.226161">
        <ele>451.3</ele>
        <time>1970-01-01T00:00:00Z</time>
      </trkpt>
      <trkpt lat="39.429943" lon="-5.226055">
        <ele>450.5</ele>
        <time>1970-01-01T00:00:00Z</time>
      </trkpt>
      <trkpt lat="39.429943" lon="-5.226055">
        <ele>450.5</ele>
        <time>1970-01-01T00:00:00Z</time>
      </trkpt>
      <trkpt lat="39.429943" lon="-5.226055">
        <ele>450.5</ele>
        <time>1970-01-01T00:00:00Z</time>
      </trkpt>
      <trkpt lat="39.429943" lon="-5.226055">
        <ele>450.5</ele>
        <time>1970-01-01T00:00:00Z</time>
      </trkpt>
      <trkpt lat="39.430081" lon="-5.225744">
        <ele>448.6</ele>
        <time>1970-01-01T00:00:00Z</time>
      </trkpt>
      <trkpt lat="39.430081" lon="-5.225744">
        <ele>448.6</ele>
        <time>1970-01-01T00:00:00Z</time>
      </trkpt>
      <trkpt lat="39.430081" lon="-5.225744">
        <ele>448.6</ele>
        <time>1970-01-01T00:00:00Z</time>
      </trkpt>
      <trkpt lat="39.430081" lon="-5.225744">
        <ele>448.6</ele>
        <time>1970-01-01T00:00:00Z</time>
      </trkpt>
      <trkpt lat="39.430171" lon="-5.225483">
        <ele>447.2</ele>
        <time>1970-01-01T00:00:00Z</time>
      </trkpt>
      <trkpt lat="39.430171" lon="-5.225483">
        <ele>447.2</ele>
        <time>1970-01-01T00:00:00Z</time>
      </trkpt>
      <trkpt lat="39.430171" lon="-5.225483">
        <ele>447.2</ele>
        <time>1970-01-01T00:00:00Z</time>
      </trkpt>
      <trkpt lat="39.430171" lon="-5.225483">
        <ele>447.2</ele>
        <time>1970-01-01T00:00:00Z</time>
      </trkpt>
      <trkpt lat="39.430296" lon="-5.225124">
        <ele>445.0</ele>
        <time>1970-01-01T00:00:00Z</time>
      </trkpt>
      <trkpt lat="39.430296" lon="-5.225124">
        <ele>445.0</ele>
        <time>1970-01-01T00:00:00Z</time>
      </trkpt>
      <trkpt lat="39.430296" lon="-5.225124">
        <ele>445.0</ele>
        <time>1970-01-01T00:00:00Z</time>
      </trkpt>
      <trkpt lat="39.430296" lon="-5.225124">
        <ele>445.0</ele>
        <time>1970-01-01T00:00:00Z</time>
      </trkpt>
      <trkpt lat="39.430413" lon="-5.224740">
        <ele>444.8</ele>
        <time>1970-01-01T00:00:00Z</time>
      </trkpt>
      <trkpt lat="39.430413" lon="-5.224740">
        <ele>444.8</ele>
        <time>1970-01-01T00:00:00Z</time>
      </trkpt>
      <trkpt lat="39.430413" lon="-5.224740">
        <ele>444.8</ele>
        <time>1970-01-01T00:00:00Z</time>
      </trkpt>
      <trkpt lat="39.430413" lon="-5.224740">
        <ele>444.8</ele>
        <time>1970-01-01T00:00:00Z</time>
      </trkpt>
      <trkpt lat="39.430591" lon="-5.224220">
        <ele>444.6</ele>
        <time>1970-01-01T00:00:00Z</time>
      </trkpt>
      <trkpt lat="39.430591" lon="-5.224220">
        <ele>444.6</ele>
        <time>1970-01-01T00:00:00Z</time>
      </trkpt>
      <trkpt lat="39.430591" lon="-5.224220">
        <ele>444.6</ele>
        <time>1970-01-01T00:00:00Z</time>
      </trkpt>
      <trkpt lat="39.430591" lon="-5.224220">
        <ele>444.6</ele>
        <time>1970-01-01T00:00:00Z</time>
      </trkpt>
      <trkpt lat="39.430667" lon="-5.224013">
        <ele>445.0</ele>
        <time>1970-01-01T00:00:00Z</time>
      </trkpt>
      <trkpt lat="39.430667" lon="-5.224013">
        <ele>445.0</ele>
        <time>1970-01-01T00:00:00Z</time>
      </trkpt>
      <trkpt lat="39.430667" lon="-5.224013">
        <ele>445.0</ele>
        <time>1970-01-01T00:00:00Z</time>
      </trkpt>
      <trkpt lat="39.430667" lon="-5.224013">
        <ele>445.0</ele>
        <time>1970-01-01T00:00:00Z</time>
      </trkpt>
      <trkpt lat="39.430733" lon="-5.223866">
        <ele>444.7</ele>
        <time>1970-01-01T00:00:00Z</time>
      </trkpt>
      <trkpt lat="39.430733" lon="-5.223866">
        <ele>444.7</ele>
        <time>1970-01-01T00:00:00Z</time>
      </trkpt>
      <trkpt lat="39.430733" lon="-5.223866">
        <ele>444.7</ele>
        <time>1970-01-01T00:00:00Z</time>
      </trkpt>
      <trkpt lat="39.430733" lon="-5.223866">
        <ele>444.7</ele>
        <time>1970-01-01T00:00:00Z</time>
      </trkpt>
      <trkpt lat="39.430851" lon="-5.223688">
        <ele>444.0</ele>
        <time>1970-01-01T00:00:00Z</time>
      </trkpt>
      <trkpt lat="39.430851" lon="-5.223688">
        <ele>444.0</ele>
        <time>1970-01-01T00:00:00Z</time>
      </trkpt>
      <trkpt lat="39.430851" lon="-5.223688">
        <ele>444.0</ele>
        <time>1970-01-01T00:00:00Z</time>
      </trkpt>
      <trkpt lat="39.430851" lon="-5.223688">
        <ele>444.0</ele>
        <time>1970-01-01T00:00:00Z</time>
      </trkpt>
      <trkpt lat="39.431026" lon="-5.223475">
        <ele>444.0</ele>
        <time>1970-01-01T00:00:00Z</time>
      </trkpt>
      <trkpt lat="39.431026" lon="-5.223475">
        <ele>444.0</ele>
        <time>1970-01-01T00:00:00Z</time>
      </trkpt>
      <trkpt lat="39.431026" lon="-5.223475">
        <ele>444.0</ele>
        <time>1970-01-01T00:00:00Z</time>
      </trkpt>
      <trkpt lat="39.431026" lon="-5.223475">
        <ele>444.0</ele>
        <time>1970-01-01T00:00:00Z</time>
      </trkpt>
      <trkpt lat="39.431141" lon="-5.223408">
        <ele>444.3</ele>
        <time>1970-01-01T00:00:00Z</time>
      </trkpt>
      <trkpt lat="39.431141" lon="-5.223408">
        <ele>444.3</ele>
        <time>1970-01-01T00:00:00Z</time>
      </trkpt>
      <trkpt lat="39.431141" lon="-5.223408">
        <ele>444.3</ele>
        <time>1970-01-01T00:00:00Z</time>
      </trkpt>
      <trkpt lat="39.431141" lon="-5.223408">
        <ele>444.3</ele>
        <time>1970-01-01T00:00:00Z</time>
      </trkpt>
      <trkpt lat="39.431188" lon="-5.223351">
        <ele>444.6</ele>
        <time>1970-01-01T00:00:00Z</time>
      </trkpt>
      <trkpt lat="39.431188" lon="-5.223351">
        <ele>444.6</ele>
        <time>1970-01-01T00:00:00Z</time>
      </trkpt>
      <trkpt lat="39.431188" lon="-5.223351">
        <ele>444.6</ele>
        <time>1970-01-01T00:00:00Z</time>
      </trkpt>
      <trkpt lat="39.431188" lon="-5.223351">
        <ele>444.6</ele>
        <time>1970-01-01T00:00:00Z</time>
      </trkpt>
      <trkpt lat="39.431245" lon="-5.223233">
        <ele>445.0</ele>
        <time>1970-01-01T00:00:00Z</time>
      </trkpt>
      <trkpt lat="39.431245" lon="-5.223233">
        <ele>445.0</ele>
        <time>1970-01-01T00:00:00Z</time>
      </trkpt>
      <trkpt lat="39.431245" lon="-5.223233">
        <ele>445.0</ele>
        <time>1970-01-01T00:00:00Z</time>
      </trkpt>
      <trkpt lat="39.431245" lon="-5.223233">
        <ele>445.0</ele>
        <time>1970-01-01T00:00:00Z</time>
      </trkpt>
      <trkpt lat="39.431307" lon="-5.223087">
        <ele>446.1</ele>
        <time>1970-01-01T00:00:00Z</time>
      </trkpt>
      <trkpt lat="39.431307" lon="-5.223087">
        <ele>446.1</ele>
        <time>1970-01-01T00:00:00Z</time>
      </trkpt>
      <trkpt lat="39.431307" lon="-5.223087">
        <ele>446.1</ele>
        <time>1970-01-01T00:00:00Z</time>
      </trkpt>
      <trkpt lat="39.431307" lon="-5.223087">
        <ele>446.1</ele>
        <time>1970-01-01T00:00:00Z</time>
      </trkpt>
      <trkpt lat="39.431346" lon="-5.222925">
        <ele>447.2</ele>
        <time>1970-01-01T00:00:00Z</time>
      </trkpt>
      <trkpt lat="39.431346" lon="-5.222925">
        <ele>447.2</ele>
        <time>1970-01-01T00:00:00Z</time>
      </trkpt>
      <trkpt lat="39.431346" lon="-5.222925">
        <ele>447.2</ele>
        <time>1970-01-01T00:00:00Z</time>
      </trkpt>
      <trkpt lat="39.431346" lon="-5.222925">
        <ele>447.2</ele>
        <time>1970-01-01T00:00:00Z</time>
      </trkpt>
      <trkpt lat="39.431384" lon="-5.222707">
        <ele>448.4</ele>
        <time>1970-01-01T00:00:00Z</time>
      </trkpt>
      <trkpt lat="39.431384" lon="-5.222707">
        <ele>448.4</ele>
        <time>1970-01-01T00:00:00Z</time>
      </trkpt>
      <trkpt lat="39.431384" lon="-5.222707">
        <ele>448.4</ele>
        <time>1970-01-01T00:00:00Z</time>
      </trkpt>
      <trkpt lat="39.431384" lon="-5.222707">
        <ele>448.4</ele>
        <time>1970-01-01T00:00:00Z</time>
      </trkpt>
      <trkpt lat="39.431403" lon="-5.222602">
        <ele>449.0</ele>
        <time>1970-01-01T00:00:00Z</time>
      </trkpt>
      <trkpt lat="39.431403" lon="-5.222602">
        <ele>449.0</ele>
        <time>1970-01-01T00:00:00Z</time>
      </trkpt>
      <trkpt lat="39.431403" lon="-5.222602">
        <ele>449.0</ele>
        <time>1970-01-01T00:00:00Z</time>
      </trkpt>
      <trkpt lat="39.431403" lon="-5.222602">
        <ele>449.0</ele>
        <time>1970-01-01T00:00:00Z</time>
      </trkpt>
      <trkpt lat="39.431429" lon="-5.222521">
        <ele>449.7</ele>
        <time>1970-01-01T00:00:00Z</time>
      </trkpt>
      <trkpt lat="39.431429" lon="-5.222521">
        <ele>449.7</ele>
        <time>1970-01-01T00:00:00Z</time>
      </trkpt>
      <trkpt lat="39.431429" lon="-5.222521">
        <ele>449.7</ele>
        <time>1970-01-01T00:00:00Z</time>
      </trkpt>
      <trkpt lat="39.431429" lon="-5.222521">
        <ele>449.7</ele>
        <time>1970-01-01T00:00:00Z</time>
      </trkpt>
      <trkpt lat="39.431493" lon="-5.222466">
        <ele>450.7</ele>
        <time>1970-01-01T00:00:00Z</time>
      </trkpt>
      <trkpt lat="39.431493" lon="-5.222466">
        <ele>450.7</ele>
        <time>1970-01-01T00:00:00Z</time>
      </trkpt>
      <trkpt lat="39.431493" lon="-5.222466">
        <ele>450.7</ele>
        <time>1970-01-01T00:00:00Z</time>
      </trkpt>
      <trkpt lat="39.431493" lon="-5.222466">
        <ele>450.7</ele>
        <time>1970-01-01T00:00:00Z</time>
      </trkpt>
      <trkpt lat="39.431586" lon="-5.222470">
        <ele>451.5</ele>
        <time>1970-01-01T00:00:00Z</time>
      </trkpt>
      <trkpt lat="39.431586" lon="-5.222470">
        <ele>451.5</ele>
        <time>1970-01-01T00:00:00Z</time>
      </trkpt>
      <trkpt lat="39.431586" lon="-5.222470">
        <ele>451.5</ele>
        <time>1970-01-01T00:00:00Z</time>
      </trkpt>
      <trkpt lat="39.431586" lon="-5.222470">
        <ele>451.5</ele>
        <time>1970-01-01T00:00:00Z</time>
      </trkpt>
      <trkpt lat="39.431662" lon="-5.222474">
        <ele>452.2</ele>
        <time>1970-01-01T00:00:00Z</time>
      </trkpt>
      <trkpt lat="39.431662" lon="-5.222474">
        <ele>452.2</ele>
        <time>1970-01-01T00:00:00Z</time>
      </trkpt>
      <trkpt lat="39.431662" lon="-5.222474">
        <ele>452.2</ele>
        <time>1970-01-01T00:00:00Z</time>
      </trkpt>
      <trkpt lat="39.431662" lon="-5.222474">
        <ele>452.2</ele>
        <time>1970-01-01T00:00:00Z</time>
      </trkpt>
      <trkpt lat="39.431774" lon="-5.222497">
        <ele>453.0</ele>
        <time>1970-01-01T00:00:00Z</time>
      </trkpt>
      <trkpt lat="39.431774" lon="-5.222497">
        <ele>453.0</ele>
        <time>1970-01-01T00:00:00Z</time>
      </trkpt>
      <trkpt lat="39.431774" lon="-5.222497">
        <ele>453.0</ele>
        <time>1970-01-01T00:00:00Z</time>
      </trkpt>
      <trkpt lat="39.431774" lon="-5.222497">
        <ele>453.0</ele>
        <time>1970-01-01T00:00:00Z</time>
      </trkpt>
      <trkpt lat="39.431974" lon="-5.222516">
        <ele>455.2</ele>
        <time>1970-01-01T00:00:00Z</time>
      </trkpt>
      <trkpt lat="39.431974" lon="-5.222516">
        <ele>455.2</ele>
        <time>1970-01-01T00:00:00Z</time>
      </trkpt>
      <trkpt lat="39.431974" lon="-5.222516">
        <ele>455.2</ele>
        <time>1970-01-01T00:00:00Z</time>
      </trkpt>
      <trkpt lat="39.431974" lon="-5.222516">
        <ele>455.2</ele>
        <time>1970-01-01T00:00:00Z</time>
      </trkpt>
      <trkpt lat="39.432126" lon="-5.222528">
        <ele>457.2</ele>
        <time>1970-01-01T00:00:00Z</time>
      </trkpt>
      <trkpt lat="39.432126" lon="-5.222528">
        <ele>457.2</ele>
        <time>1970-01-01T00:00:00Z</time>
      </trkpt>
      <trkpt lat="39.432126" lon="-5.222528">
        <ele>457.2</ele>
        <time>1970-01-01T00:00:00Z</time>
      </trkpt>
      <trkpt lat="39.432126" lon="-5.222528">
        <ele>457.2</ele>
        <time>1970-01-01T00:00:00Z</time>
      </trkpt>
      <trkpt lat="39.432317" lon="-5.222529">
        <ele>460.5</ele>
        <time>1970-01-01T00:00:00Z</time>
      </trkpt>
      <trkpt lat="39.432317" lon="-5.222529">
        <ele>460.5</ele>
        <time>1970-01-01T00:00:00Z</time>
      </trkpt>
      <trkpt lat="39.432317" lon="-5.222529">
        <ele>460.5</ele>
        <time>1970-01-01T00:00:00Z</time>
      </trkpt>
      <trkpt lat="39.432317" lon="-5.222529">
        <ele>460.5</ele>
        <time>1970-01-01T00:00:00Z</time>
      </trkpt>
      <trkpt lat="39.432397" lon="-5.222523">
        <ele>461.9</ele>
        <time>1970-01-01T00:00:00Z</time>
      </trkpt>
      <trkpt lat="39.432397" lon="-5.222523">
        <ele>461.9</ele>
        <time>1970-01-01T00:00:00Z</time>
      </trkpt>
      <trkpt lat="39.432397" lon="-5.222523">
        <ele>461.9</ele>
        <time>1970-01-01T00:00:00Z</time>
      </trkpt>
      <trkpt lat="39.432397" lon="-5.222523">
        <ele>461.9</ele>
        <time>1970-01-01T00:00:00Z</time>
      </trkpt>
      <trkpt lat="39.432521" lon="-5.222538">
        <ele>463.9</ele>
        <time>1970-01-01T00:00:00Z</time>
      </trkpt>
      <trkpt lat="39.432521" lon="-5.222538">
        <ele>463.9</ele>
        <time>1970-01-01T00:00:00Z</time>
      </trkpt>
      <trkpt lat="39.432521" lon="-5.222538">
        <ele>463.9</ele>
        <time>1970-01-01T00:00:00Z</time>
      </trkpt>
      <trkpt lat="39.432521" lon="-5.222538">
        <ele>463.9</ele>
        <time>1970-01-01T00:00:00Z</time>
      </trkpt>
      <trkpt lat="39.432617" lon="-5.222586">
        <ele>465.0</ele>
        <time>1970-01-01T00:00:00Z</time>
      </trkpt>
      <trkpt lat="39.432617" lon="-5.222586">
        <ele>465.0</ele>
        <time>1970-01-01T00:00:00Z</time>
      </trkpt>
      <trkpt lat="39.432617" lon="-5.222586">
        <ele>465.0</ele>
        <time>1970-01-01T00:00:00Z</time>
      </trkpt>
      <trkpt lat="39.432617" lon="-5.222586">
        <ele>465.0</ele>
        <time>1970-01-01T00:00:00Z</time>
      </trkpt>
      <trkpt lat="39.432759" lon="-5.222691">
        <ele>466.4</ele>
        <time>1970-01-01T00:00:00Z</time>
      </trkpt>
      <trkpt lat="39.432759" lon="-5.222691">
        <ele>466.4</ele>
        <time>1970-01-01T00:00:00Z</time>
      </trkpt>
      <trkpt lat="39.432759" lon="-5.222691">
        <ele>466.4</ele>
        <time>1970-01-01T00:00:00Z</time>
      </trkpt>
      <trkpt lat="39.432759" lon="-5.222691">
        <ele>466.4</ele>
        <time>1970-01-01T00:00:00Z</time>
      </trkpt>
      <trkpt lat="39.432853" lon="-5.222748">
        <ele>467.4</ele>
        <time>1970-01-01T00:00:00Z</time>
      </trkpt>
      <trkpt lat="39.432853" lon="-5.222748">
        <ele>467.4</ele>
        <time>1970-01-01T00:00:00Z</time>
      </trkpt>
      <trkpt lat="39.432853" lon="-5.222748">
        <ele>467.4</ele>
        <time>1970-01-01T00:00:00Z</time>
      </trkpt>
      <trkpt lat="39.432853" lon="-5.222748">
        <ele>467.4</ele>
        <time>1970-01-01T00:00:00Z</time>
      </trkpt>
      <trkpt lat="39.432978" lon="-5.222813">
        <ele>468.5</ele>
        <time>1970-01-01T00:00:00Z</time>
      </trkpt>
      <trkpt lat="39.432978" lon="-5.222813">
        <ele>468.5</ele>
        <time>1970-01-01T00:00:00Z</time>
      </trkpt>
      <trkpt lat="39.432978" lon="-5.222813">
        <ele>468.5</ele>
        <time>1970-01-01T00:00:00Z</time>
      </trkpt>
      <trkpt lat="39.432978" lon="-5.222813">
        <ele>468.5</ele>
        <time>1970-01-01T00:00:00Z</time>
      </trkpt>
      <trkpt lat="39.433061" lon="-5.222833">
        <ele>469.4</ele>
        <time>1970-01-01T00:00:00Z</time>
      </trkpt>
      <trkpt lat="39.433061" lon="-5.222833">
        <ele>469.4</ele>
        <time>1970-01-01T00:00:00Z</time>
      </trkpt>
      <trkpt lat="39.433061" lon="-5.222833">
        <ele>469.4</ele>
        <time>1970-01-01T00:00:00Z</time>
      </trkpt>
      <trkpt lat="39.433061" lon="-5.222833">
        <ele>469.4</ele>
        <time>1970-01-01T00:00:00Z</time>
      </trkpt>
      <trkpt lat="39.433192" lon="-5.222834">
        <ele>471.1</ele>
        <time>1970-01-01T00:00:00Z</time>
      </trkpt>
      <trkpt lat="39.433192" lon="-5.222834">
        <ele>471.1</ele>
        <time>1970-01-01T00:00:00Z</time>
      </trkpt>
      <trkpt lat="39.433192" lon="-5.222834">
        <ele>471.1</ele>
        <time>1970-01-01T00:00:00Z</time>
      </trkpt>
      <trkpt lat="39.433192" lon="-5.222834">
        <ele>471.1</ele>
        <time>1970-01-01T00:00:00Z</time>
      </trkpt>
      <trkpt lat="39.433375" lon="-5.222807">
        <ele>474.4</ele>
        <time>1970-01-01T00:00:00Z</time>
      </trkpt>
      <trkpt lat="39.433375" lon="-5.222807">
        <ele>474.4</ele>
        <time>1970-01-01T00:00:00Z</time>
      </trkpt>
      <trkpt lat="39.433375" lon="-5.222807">
        <ele>474.4</ele>
        <time>1970-01-01T00:00:00Z</time>
      </trkpt>
      <trkpt lat="39.433375" lon="-5.222807">
        <ele>474.4</ele>
        <time>1970-01-01T00:00:00Z</time>
      </trkpt>
      <trkpt lat="39.433566" lon="-5.222821">
        <ele>477.4</ele>
        <time>1970-01-01T00:00:00Z</time>
      </trkpt>
      <trkpt lat="39.433566" lon="-5.222821">
        <ele>477.4</ele>
        <time>1970-01-01T00:00:00Z</time>
      </trkpt>
      <trkpt lat="39.433566" lon="-5.222821">
        <ele>477.4</ele>
        <time>1970-01-01T00:00:00Z</time>
      </trkpt>
      <trkpt lat="39.433566" lon="-5.222821">
        <ele>477.4</ele>
        <time>1970-01-01T00:00:00Z</time>
      </trkpt>
      <trkpt lat="39.433625" lon="-5.222811">
        <ele>478.5</ele>
        <time>1970-01-01T00:00:00Z</time>
      </trkpt>
      <trkpt lat="39.433625" lon="-5.222811">
        <ele>478.5</ele>
        <time>1970-01-01T00:00:00Z</time>
      </trkpt>
      <trkpt lat="39.433625" lon="-5.222811">
        <ele>478.5</ele>
        <time>1970-01-01T00:00:00Z</time>
      </trkpt>
      <trkpt lat="39.433625" lon="-5.222811">
        <ele>478.5</ele>
        <time>1970-01-01T00:00:00Z</time>
      </trkpt>
      <trkpt lat="39.433682" lon="-5.222800">
        <ele>479.6</ele>
        <time>1970-01-01T00:00:00Z</time>
      </trkpt>
      <trkpt lat="39.433682" lon="-5.222800">
        <ele>479.6</ele>
        <time>1970-01-01T00:00:00Z</time>
      </trkpt>
      <trkpt lat="39.433682" lon="-5.222800">
        <ele>479.6</ele>
        <time>1970-01-01T00:00:00Z</time>
      </trkpt>
      <trkpt lat="39.433682" lon="-5.222800">
        <ele>479.6</ele>
        <time>1970-01-01T00:00:00Z</time>
      </trkpt>
      <trkpt lat="39.433737" lon="-5.222762">
        <ele>480.8</ele>
        <time>1970-01-01T00:00:00Z</time>
      </trkpt>
      <trkpt lat="39.433737" lon="-5.222762">
        <ele>480.8</ele>
        <time>1970-01-01T00:00:00Z</time>
      </trkpt>
      <trkpt lat="39.433737" lon="-5.222762">
        <ele>480.8</ele>
        <time>1970-01-01T00:00:00Z</time>
      </trkpt>
      <trkpt lat="39.433737" lon="-5.222762">
        <ele>480.8</ele>
        <time>1970-01-01T00:00:00Z</time>
      </trkpt>
      <trkpt lat="39.433763" lon="-5.222726">
        <ele>481.5</ele>
        <time>1970-01-01T00:00:00Z</time>
      </trkpt>
      <trkpt lat="39.433763" lon="-5.222726">
        <ele>481.5</ele>
        <time>1970-01-01T00:00:00Z</time>
      </trkpt>
      <trkpt lat="39.433763" lon="-5.222726">
        <ele>481.5</ele>
        <time>1970-01-01T00:00:00Z</time>
      </trkpt>
      <trkpt lat="39.433763" lon="-5.222726">
        <ele>481.5</ele>
        <time>1970-01-01T00:00:00Z</time>
      </trkpt>
      <trkpt lat="39.433868" lon="-5.222519">
        <ele>485.5</ele>
        <time>1970-01-01T00:00:00Z</time>
      </trkpt>
      <trkpt lat="39.433868" lon="-5.222519">
        <ele>485.5</ele>
        <time>1970-01-01T00:00:00Z</time>
      </trkpt>
      <trkpt lat="39.433868" lon="-5.222519">
        <ele>485.5</ele>
        <time>1970-01-01T00:00:00Z</time>
      </trkpt>
      <trkpt lat="39.433868" lon="-5.222519">
        <ele>485.5</ele>
        <time>1970-01-01T00:00:00Z</time>
      </trkpt>
      <trkpt lat="39.433968" lon="-5.222363">
        <ele>489.0</ele>
        <time>1970-01-01T00:00:00Z</time>
      </trkpt>
      <trkpt lat="39.433968" lon="-5.222363">
        <ele>489.0</ele>
        <time>1970-01-01T00:00:00Z</time>
      </trkpt>
      <trkpt lat="39.433968" lon="-5.222363">
        <ele>489.0</ele>
        <time>1970-01-01T00:00:00Z</time>
      </trkpt>
      <trkpt lat="39.433968" lon="-5.222363">
        <ele>489.0</ele>
        <time>1970-01-01T00:00:00Z</time>
      </trkpt>
      <trkpt lat="39.434097" lon="-5.222171">
        <ele>492.0</ele>
        <time>1970-01-01T00:00:00Z</time>
      </trkpt>
      <trkpt lat="39.434097" lon="-5.222171">
        <ele>492.0</ele>
        <time>1970-01-01T00:00:00Z</time>
      </trkpt>
      <trkpt lat="39.434097" lon="-5.222171">
        <ele>492.0</ele>
        <time>1970-01-01T00:00:00Z</time>
      </trkpt>
      <trkpt lat="39.434097" lon="-5.222171">
        <ele>492.0</ele>
        <time>1970-01-01T00:00:00Z</time>
      </trkpt>
      <trkpt lat="39.434305" lon="-5.221925">
        <ele>496.4</ele>
        <time>1970-01-01T00:00:00Z</time>
      </trkpt>
      <trkpt lat="39.434305" lon="-5.221925">
        <ele>496.4</ele>
        <time>1970-01-01T00:00:00Z</time>
      </trkpt>
      <trkpt lat="39.434305" lon="-5.221925">
        <ele>496.4</ele>
        <time>1970-01-01T00:00:00Z</time>
      </trkpt>
      <trkpt lat="39.434305" lon="-5.221925">
        <ele>496.4</ele>
        <time>1970-01-01T00:00:00Z</time>
      </trkpt>
      <trkpt lat="39.434557" lon="-5.221700">
        <ele>501.7</ele>
        <time>1970-01-01T00:00:00Z</time>
      </trkpt>
      <trkpt lat="39.434557" lon="-5.221700">
        <ele>501.7</ele>
        <time>1970-01-01T00:00:00Z</time>
      </trkpt>
      <trkpt lat="39.434557" lon="-5.221700">
        <ele>501.7</ele>
        <time>1970-01-01T00:00:00Z</time>
      </trkpt>
      <trkpt lat="39.434557" lon="-5.221700">
        <ele>501.7</ele>
        <time>1970-01-01T00:00:00Z</time>
      </trkpt>
      <trkpt lat="39.434663" lon="-5.221624">
        <ele>503.7</ele>
        <time>1970-01-01T00:00:00Z</time>
      </trkpt>
      <trkpt lat="39.434663" lon="-5.221624">
        <ele>503.7</ele>
        <time>1970-01-01T00:00:00Z</time>
      </trkpt>
      <trkpt lat="39.434663" lon="-5.221624">
        <ele>503.7</ele>
        <time>1970-01-01T00:00:00Z</time>
      </trkpt>
      <trkpt lat="39.434663" lon="-5.221624">
        <ele>503.7</ele>
        <time>1970-01-01T00:00:00Z</time>
      </trkpt>
      <trkpt lat="39.434765" lon="-5.221537">
        <ele>505.4</ele>
        <time>1970-01-01T00:00:00Z</time>
      </trkpt>
      <trkpt lat="39.434765" lon="-5.221537">
        <ele>505.4</ele>
        <time>1970-01-01T00:00:00Z</time>
      </trkpt>
      <trkpt lat="39.434765" lon="-5.221537">
        <ele>505.4</ele>
        <time>1970-01-01T00:00:00Z</time>
      </trkpt>
      <trkpt lat="39.434765" lon="-5.221537">
        <ele>505.4</ele>
        <time>1970-01-01T00:00:00Z</time>
      </trkpt>
      <trkpt lat="39.434855" lon="-5.221460">
        <ele>506.9</ele>
        <time>1970-01-01T00:00:00Z</time>
      </trkpt>
      <trkpt lat="39.434855" lon="-5.221460">
        <ele>506.9</ele>
        <time>1970-01-01T00:00:00Z</time>
      </trkpt>
      <trkpt lat="39.434855" lon="-5.221460">
        <ele>506.9</ele>
        <time>1970-01-01T00:00:00Z</time>
      </trkpt>
      <trkpt lat="39.434855" lon="-5.221460">
        <ele>506.9</ele>
        <time>1970-01-01T00:00:00Z</time>
      </trkpt>
      <trkpt lat="39.434974" lon="-5.221317">
        <ele>508.7</ele>
        <time>1970-01-01T00:00:00Z</time>
      </trkpt>
      <trkpt lat="39.434974" lon="-5.221317">
        <ele>508.7</ele>
        <time>1970-01-01T00:00:00Z</time>
      </trkpt>
      <trkpt lat="39.434974" lon="-5.221317">
        <ele>508.7</ele>
        <time>1970-01-01T00:00:00Z</time>
      </trkpt>
      <trkpt lat="39.434974" lon="-5.221317">
        <ele>508.7</ele>
        <time>1970-01-01T00:00:00Z</time>
      </trkpt>
      <trkpt lat="39.435067" lon="-5.221231">
        <ele>509.9</ele>
        <time>1970-01-01T00:00:00Z</time>
      </trkpt>
      <trkpt lat="39.435067" lon="-5.221231">
        <ele>509.9</ele>
        <time>1970-01-01T00:00:00Z</time>
      </trkpt>
      <trkpt lat="39.435067" lon="-5.221231">
        <ele>509.9</ele>
        <time>1970-01-01T00:00:00Z</time>
      </trkpt>
      <trkpt lat="39.435067" lon="-5.221231">
        <ele>509.9</ele>
        <time>1970-01-01T00:00:00Z</time>
      </trkpt>
      <trkpt lat="39.435239" lon="-5.221093">
        <ele>512.7</ele>
        <time>1970-01-01T00:00:00Z</time>
      </trkpt>
      <trkpt lat="39.435239" lon="-5.221093">
        <ele>512.7</ele>
        <time>1970-01-01T00:00:00Z</time>
      </trkpt>
      <trkpt lat="39.435239" lon="-5.221093">
        <ele>512.7</ele>
        <time>1970-01-01T00:00:00Z</time>
      </trkpt>
      <trkpt lat="39.435239" lon="-5.221093">
        <ele>512.7</ele>
        <time>1970-01-01T00:00:00Z</time>
      </trkpt>
      <trkpt lat="39.435405" lon="-5.220987">
        <ele>514.6</ele>
        <time>1970-01-01T00:00:00Z</time>
      </trkpt>
      <trkpt lat="39.435405" lon="-5.220987">
        <ele>514.6</ele>
        <time>1970-01-01T00:00:00Z</time>
      </trkpt>
      <trkpt lat="39.435405" lon="-5.220987">
        <ele>514.6</ele>
        <time>1970-01-01T00:00:00Z</time>
      </trkpt>
      <trkpt lat="39.435405" lon="-5.220987">
        <ele>514.6</ele>
        <time>1970-01-01T00:00:00Z</time>
      </trkpt>
      <trkpt lat="39.435638" lon="-5.220801">
        <ele>517.3</ele>
        <time>1970-01-01T00:00:00Z</time>
      </trkpt>
      <trkpt lat="39.435638" lon="-5.220801">
        <ele>517.3</ele>
        <time>1970-01-01T00:00:00Z</time>
      </trkpt>
      <trkpt lat="39.435638" lon="-5.220801">
        <ele>517.3</ele>
        <time>1970-01-01T00:00:00Z</time>
      </trkpt>
      <trkpt lat="39.435638" lon="-5.220801">
        <ele>517.3</ele>
        <time>1970-01-01T00:00:00Z</time>
      </trkpt>
      <trkpt lat="39.435812" lon="-5.220599">
        <ele>519.4</ele>
        <time>1970-01-01T00:00:00Z</time>
      </trkpt>
      <trkpt lat="39.435812" lon="-5.220599">
        <ele>519.4</ele>
        <time>1970-01-01T00:00:00Z</time>
      </trkpt>
      <trkpt lat="39.435812" lon="-5.220599">
        <ele>519.4</ele>
        <time>1970-01-01T00:00:00Z</time>
      </trkpt>
      <trkpt lat="39.435812" lon="-5.220599">
        <ele>519.4</ele>
        <time>1970-01-01T00:00:00Z</time>
      </trkpt>
      <trkpt lat="39.435962" lon="-5.220415">
        <ele>520.8</ele>
        <time>1970-01-01T00:00:00Z</time>
      </trkpt>
      <trkpt lat="39.435962" lon="-5.220415">
        <ele>520.8</ele>
        <time>1970-01-01T00:00:00Z</time>
      </trkpt>
      <trkpt lat="39.435962" lon="-5.220415">
        <ele>520.8</ele>
        <time>1970-01-01T00:00:00Z</time>
      </trkpt>
      <trkpt lat="39.435962" lon="-5.220415">
        <ele>520.8</ele>
        <time>1970-01-01T00:00:00Z</time>
      </trkpt>
      <trkpt lat="39.436168" lon="-5.220248">
        <ele>524.1</ele>
        <time>1970-01-01T00:00:00Z</time>
      </trkpt>
      <trkpt lat="39.436168" lon="-5.220248">
        <ele>524.1</ele>
        <time>1970-01-01T00:00:00Z</time>
      </trkpt>
      <trkpt lat="39.436168" lon="-5.220248">
        <ele>524.1</ele>
        <time>1970-01-01T00:00:00Z</time>
      </trkpt>
      <trkpt lat="39.436168" lon="-5.220248">
        <ele>524.1</ele>
        <time>1970-01-01T00:00:00Z</time>
      </trkpt>
      <trkpt lat="39.436426" lon="-5.220080">
        <ele>526.7</ele>
        <time>1970-01-01T00:00:00Z</time>
      </trkpt>
      <trkpt lat="39.436426" lon="-5.220080">
        <ele>526.7</ele>
        <time>1970-01-01T00:00:00Z</time>
      </trkpt>
      <trkpt lat="39.436426" lon="-5.220080">
        <ele>526.7</ele>
        <time>1970-01-01T00:00:00Z</time>
      </trkpt>
      <trkpt lat="39.436426" lon="-5.220080">
        <ele>526.7</ele>
        <time>1970-01-01T00:00:00Z</time>
      </trkpt>
      <trkpt lat="39.436623" lon="-5.219973">
        <ele>528.3</ele>
        <time>1970-01-01T00:00:00Z</time>
      </trkpt>
      <trkpt lat="39.436623" lon="-5.219973">
        <ele>528.3</ele>
        <time>1970-01-01T00:00:00Z</time>
      </trkpt>
      <trkpt lat="39.436623" lon="-5.219973">
        <ele>528.3</ele>
        <time>1970-01-01T00:00:00Z</time>
      </trkpt>
      <trkpt lat="39.436623" lon="-5.219973">
        <ele>528.3</ele>
        <time>1970-01-01T00:00:00Z</time>
      </trkpt>
      <trkpt lat="39.436768" lon="-5.219925">
        <ele>528.8</ele>
        <time>1970-01-01T00:00:00Z</time>
      </trkpt>
      <trkpt lat="39.436768" lon="-5.219925">
        <ele>528.8</ele>
        <time>1970-01-01T00:00:00Z</time>
      </trkpt>
      <trkpt lat="39.436768" lon="-5.219925">
        <ele>528.8</ele>
        <time>1970-01-01T00:00:00Z</time>
      </trkpt>
      <trkpt lat="39.436768" lon="-5.219925">
        <ele>528.8</ele>
        <time>1970-01-01T00:00:00Z</time>
      </trkpt>
      <trkpt lat="39.436821" lon="-5.219913">
        <ele>528.8</ele>
        <time>1970-01-01T00:00:00Z</time>
      </trkpt>
      <trkpt lat="39.436821" lon="-5.219913">
        <ele>528.8</ele>
        <time>1970-01-01T00:00:00Z</time>
      </trkpt>
      <trkpt lat="39.436821" lon="-5.219913">
        <ele>528.8</ele>
        <time>1970-01-01T00:00:00Z</time>
      </trkpt>
      <trkpt lat="39.436821" lon="-5.219913">
        <ele>528.8</ele>
        <time>1970-01-01T00:00:00Z</time>
      </trkpt>
      <trkpt lat="39.436911" lon="-5.219912">
        <ele>529.0</ele>
        <time>1970-01-01T00:00:00Z</time>
      </trkpt>
      <trkpt lat="39.436911" lon="-5.219912">
        <ele>529.0</ele>
        <time>1970-01-01T00:00:00Z</time>
      </trkpt>
      <trkpt lat="39.436911" lon="-5.219912">
        <ele>529.0</ele>
        <time>1970-01-01T00:00:00Z</time>
      </trkpt>
      <trkpt lat="39.436911" lon="-5.219912">
        <ele>529.0</ele>
        <time>1970-01-01T00:00:00Z</time>
      </trkpt>
      <trkpt lat="39.437127" lon="-5.219933">
        <ele>529.9</ele>
        <time>1970-01-01T00:00:00Z</time>
      </trkpt>
      <trkpt lat="39.437127" lon="-5.219933">
        <ele>529.9</ele>
        <time>1970-01-01T00:00:00Z</time>
      </trkpt>
      <trkpt lat="39.437127" lon="-5.219933">
        <ele>529.9</ele>
        <time>1970-01-01T00:00:00Z</time>
      </trkpt>
      <trkpt lat="39.437127" lon="-5.219933">
        <ele>529.9</ele>
        <time>1970-01-01T00:00:00Z</time>
      </trkpt>
      <trkpt lat="39.437263" lon="-5.219949">
        <ele>530.1</ele>
        <time>1970-01-01T00:00:00Z</time>
      </trkpt>
      <trkpt lat="39.437263" lon="-5.219949">
        <ele>530.1</ele>
        <time>1970-01-01T00:00:00Z</time>
      </trkpt>
      <trkpt lat="39.437263" lon="-5.219949">
        <ele>530.1</ele>
        <time>1970-01-01T00:00:00Z</time>
      </trkpt>
      <trkpt lat="39.437263" lon="-5.219949">
        <ele>530.1</ele>
        <time>1970-01-01T00:00:00Z</time>
      </trkpt>
      <trkpt lat="39.437366" lon="-5.219994">
        <ele>530.0</ele>
        <time>1970-01-01T00:00:00Z</time>
      </trkpt>
      <trkpt lat="39.437366" lon="-5.219994">
        <ele>530.0</ele>
        <time>1970-01-01T00:00:00Z</time>
      </trkpt>
      <trkpt lat="39.437366" lon="-5.219994">
        <ele>530.0</ele>
        <time>1970-01-01T00:00:00Z</time>
      </trkpt>
      <trkpt lat="39.437366" lon="-5.219994">
        <ele>530.0</ele>
        <time>1970-01-01T00:00:00Z</time>
      </trkpt>
      <trkpt lat="39.437425" lon="-5.219999">
        <ele>530.2</ele>
        <time>1970-01-01T00:00:00Z</time>
      </trkpt>
      <trkpt lat="39.437425" lon="-5.219999">
        <ele>530.2</ele>
        <time>1970-01-01T00:00:00Z</time>
      </trkpt>
      <trkpt lat="39.437425" lon="-5.219999">
        <ele>530.2</ele>
        <time>1970-01-01T00:00:00Z</time>
      </trkpt>
      <trkpt lat="39.437425" lon="-5.219999">
        <ele>530.2</ele>
        <time>1970-01-01T00:00:00Z</time>
      </trkpt>
      <trkpt lat="39.437506" lon="-5.219992">
        <ele>530.5</ele>
        <time>1970-01-01T00:00:00Z</time>
      </trkpt>
      <trkpt lat="39.437506" lon="-5.219992">
        <ele>530.5</ele>
        <time>1970-01-01T00:00:00Z</time>
      </trkpt>
      <trkpt lat="39.437506" lon="-5.219992">
        <ele>530.5</ele>
        <time>1970-01-01T00:00:00Z</time>
      </trkpt>
      <trkpt lat="39.437506" lon="-5.219992">
        <ele>530.5</ele>
        <time>1970-01-01T00:00:00Z</time>
      </trkpt>
      <trkpt lat="39.437713" lon="-5.219930">
        <ele>531.7</ele>
        <time>1970-01-01T00:00:00Z</time>
      </trkpt>
      <trkpt lat="39.437713" lon="-5.219930">
        <ele>531.7</ele>
        <time>1970-01-01T00:00:00Z</time>
      </trkpt>
      <trkpt lat="39.437713" lon="-5.219930">
        <ele>531.7</ele>
        <time>1970-01-01T00:00:00Z</time>
      </trkpt>
      <trkpt lat="39.437713" lon="-5.219930">
        <ele>531.7</ele>
        <time>1970-01-01T00:00:00Z</time>
      </trkpt>
      <trkpt lat="39.437834" lon="-5.219906">
        <ele>532.3</ele>
        <time>1970-01-01T00:00:00Z</time>
      </trkpt>
      <trkpt lat="39.437834" lon="-5.219906">
        <ele>532.3</ele>
        <time>1970-01-01T00:00:00Z</time>
      </trkpt>
      <trkpt lat="39.437834" lon="-5.219906">
        <ele>532.3</ele>
        <time>1970-01-01T00:00:00Z</time>
      </trkpt>
      <trkpt lat="39.437834" lon="-5.219906">
        <ele>532.3</ele>
        <time>1970-01-01T00:00:00Z</time>
      </trkpt>
      <trkpt lat="39.437987" lon="-5.219894">
        <ele>533.0</ele>
        <time>1970-01-01T00:00:00Z</time>
      </trkpt>
      <trkpt lat="39.437987" lon="-5.219894">
        <ele>533.0</ele>
        <time>1970-01-01T00:00:00Z</time>
      </trkpt>
      <trkpt lat="39.437987" lon="-5.219894">
        <ele>533.0</ele>
        <time>1970-01-01T00:00:00Z</time>
      </trkpt>
      <trkpt lat="39.437987" lon="-5.219894">
        <ele>533.0</ele>
        <time>1970-01-01T00:00:00Z</time>
      </trkpt>
      <trkpt lat="39.438113" lon="-5.219901">
        <ele>533.5</ele>
        <time>1970-01-01T00:00:00Z</time>
      </trkpt>
      <trkpt lat="39.438113" lon="-5.219901">
        <ele>533.5</ele>
        <time>1970-01-01T00:00:00Z</time>
      </trkpt>
      <trkpt lat="39.438113" lon="-5.219901">
        <ele>533.5</ele>
        <time>1970-01-01T00:00:00Z</time>
      </trkpt>
      <trkpt lat="39.438113" lon="-5.219901">
        <ele>533.5</ele>
        <time>1970-01-01T00:00:00Z</time>
      </trkpt>
      <trkpt lat="39.438234" lon="-5.219930">
        <ele>533.5</ele>
        <time>1970-01-01T00:00:00Z</time>
      </trkpt>
      <trkpt lat="39.438234" lon="-5.219930">
        <ele>533.5</ele>
        <time>1970-01-01T00:00:00Z</time>
      </trkpt>
      <trkpt lat="39.438234" lon="-5.219930">
        <ele>533.5</ele>
        <time>1970-01-01T00:00:00Z</time>
      </trkpt>
      <trkpt lat="39.438234" lon="-5.219930">
        <ele>533.5</ele>
        <time>1970-01-01T00:00:00Z</time>
      </trkpt>
      <trkpt lat="39.438543" lon="-5.220039">
        <ele>533.4</ele>
        <time>1970-01-01T00:00:00Z</time>
      </trkpt>
      <trkpt lat="39.438543" lon="-5.220039">
        <ele>533.4</ele>
        <time>1970-01-01T00:00:00Z</time>
      </trkpt>
      <trkpt lat="39.438543" lon="-5.220039">
        <ele>533.4</ele>
        <time>1970-01-01T00:00:00Z</time>
      </trkpt>
      <trkpt lat="39.438543" lon="-5.220039">
        <ele>533.4</ele>
        <time>1970-01-01T00:00:00Z</time>
      </trkpt>
      <trkpt lat="39.438705" lon="-5.220051">
        <ele>534.0</ele>
        <time>1970-01-01T00:00:00Z</time>
      </trkpt>
      <trkpt lat="39.438705" lon="-5.220051">
        <ele>534.0</ele>
        <time>1970-01-01T00:00:00Z</time>
      </trkpt>
      <trkpt lat="39.438705" lon="-5.220051">
        <ele>534.0</ele>
        <time>1970-01-01T00:00:00Z</time>
      </trkpt>
      <trkpt lat="39.438705" lon="-5.220051">
        <ele>534.0</ele>
        <time>1970-01-01T00:00:00Z</time>
      </trkpt>
      <trkpt lat="39.438812" lon="-5.220023">
        <ele>534.6</ele>
        <time>1970-01-01T00:00:00Z</time>
      </trkpt>
      <trkpt lat="39.438812" lon="-5.220023">
        <ele>534.6</ele>
        <time>1970-01-01T00:00:00Z</time>
      </trkpt>
      <trkpt lat="39.438812" lon="-5.220023">
        <ele>534.6</ele>
        <time>1970-01-01T00:00:00Z</time>
      </trkpt>
      <trkpt lat="39.438812" lon="-5.220023">
        <ele>534.6</ele>
        <time>1970-01-01T00:00:00Z</time>
      </trkpt>
      <trkpt lat="39.439020" lon="-5.219954">
        <ele>535.4</ele>
        <time>1970-01-01T00:00:00Z</time>
      </trkpt>
      <trkpt lat="39.439020" lon="-5.219954">
        <ele>535.4</ele>
        <time>1970-01-01T00:00:00Z</time>
      </trkpt>
      <trkpt lat="39.439020" lon="-5.219954">
        <ele>535.4</ele>
        <time>1970-01-01T00:00:00Z</time>
      </trkpt>
      <trkpt lat="39.439020" lon="-5.219954">
        <ele>535.4</ele>
        <time>1970-01-01T00:00:00Z</time>
      </trkpt>
      <trkpt lat="39.439160" lon="-5.219930">
        <ele>535.6</ele>
        <time>1970-01-01T00:00:00Z</time>
      </trkpt>
      <trkpt lat="39.439160" lon="-5.219930">
        <ele>535.6</ele>
        <time>1970-01-01T00:00:00Z</time>
      </trkpt>
      <trkpt lat="39.439160" lon="-5.219930">
        <ele>535.6</ele>
        <time>1970-01-01T00:00:00Z</time>
      </trkpt>
      <trkpt lat="39.439160" lon="-5.219930">
        <ele>535.6</ele>
        <time>1970-01-01T00:00:00Z</time>
      </trkpt>
      <trkpt lat="39.439395" lon="-5.219887">
        <ele>535.3</ele>
        <time>1970-01-01T00:00:00Z</time>
      </trkpt>
      <trkpt lat="39.439395" lon="-5.219887">
        <ele>535.3</ele>
        <time>1970-01-01T00:00:00Z</time>
      </trkpt>
      <trkpt lat="39.439395" lon="-5.219887">
        <ele>535.3</ele>
        <time>1970-01-01T00:00:00Z</time>
      </trkpt>
      <trkpt lat="39.439395" lon="-5.219887">
        <ele>535.3</ele>
        <time>1970-01-01T00:00:00Z</time>
      </trkpt>
      <trkpt lat="39.439532" lon="-5.219842">
        <ele>535.1</ele>
        <time>1970-01-01T00:00:00Z</time>
      </trkpt>
      <trkpt lat="39.439532" lon="-5.219842">
        <ele>535.1</ele>
        <time>1970-01-01T00:00:00Z</time>
      </trkpt>
      <trkpt lat="39.439532" lon="-5.219842">
        <ele>535.1</ele>
        <time>1970-01-01T00:00:00Z</time>
      </trkpt>
      <trkpt lat="39.439532" lon="-5.219842">
        <ele>535.1</ele>
        <time>1970-01-01T00:00:00Z</time>
      </trkpt>
      <trkpt lat="39.439660" lon="-5.219772">
        <ele>535.1</ele>
        <time>1970-01-01T00:00:00Z</time>
      </trkpt>
      <trkpt lat="39.439660" lon="-5.219772">
        <ele>535.1</ele>
        <time>1970-01-01T00:00:00Z</time>
      </trkpt>
      <trkpt lat="39.439660" lon="-5.219772">
        <ele>535.1</ele>
        <time>1970-01-01T00:00:00Z</time>
      </trkpt>
      <trkpt lat="39.439660" lon="-5.219772">
        <ele>535.1</ele>
        <time>1970-01-01T00:00:00Z</time>
      </trkpt>
      <trkpt lat="39.439793" lon="-5.219653">
        <ele>535.8</ele>
        <time>1970-01-01T00:00:00Z</time>
      </trkpt>
      <trkpt lat="39.439793" lon="-5.219653">
        <ele>535.8</ele>
        <time>1970-01-01T00:00:00Z</time>
      </trkpt>
      <trkpt lat="39.439793" lon="-5.219653">
        <ele>535.8</ele>
        <time>1970-01-01T00:00:00Z</time>
      </trkpt>
      <trkpt lat="39.439793" lon="-5.219653">
        <ele>535.8</ele>
        <time>1970-01-01T00:00:00Z</time>
      </trkpt>
      <trkpt lat="39.439932" lon="-5.219513">
        <ele>536.2</ele>
        <time>1970-01-01T00:00:00Z</time>
      </trkpt>
      <trkpt lat="39.439932" lon="-5.219513">
        <ele>536.2</ele>
        <time>1970-01-01T00:00:00Z</time>
      </trkpt>
      <trkpt lat="39.439932" lon="-5.219513">
        <ele>536.2</ele>
        <time>1970-01-01T00:00:00Z</time>
      </trkpt>
      <trkpt lat="39.439932" lon="-5.219513">
        <ele>536.2</ele>
        <time>1970-01-01T00:00:00Z</time>
      </trkpt>
      <trkpt lat="39.440066" lon="-5.219421">
        <ele>535.5</ele>
        <time>1970-01-01T00:00:00Z</time>
      </trkpt>
      <trkpt lat="39.440066" lon="-5.219421">
        <ele>535.5</ele>
        <time>1970-01-01T00:00:00Z</time>
      </trkpt>
      <trkpt lat="39.440066" lon="-5.219421">
        <ele>535.5</ele>
        <time>1970-01-01T00:00:00Z</time>
      </trkpt>
      <trkpt lat="39.440066" lon="-5.219421">
        <ele>535.5</ele>
        <time>1970-01-01T00:00:00Z</time>
      </trkpt>
      <trkpt lat="39.440248" lon="-5.219311">
        <ele>534.6</ele>
        <time>1970-01-01T00:00:00Z</time>
      </trkpt>
      <trkpt lat="39.440248" lon="-5.219311">
        <ele>534.6</ele>
        <time>1970-01-01T00:00:00Z</time>
      </trkpt>
      <trkpt lat="39.440248" lon="-5.219311">
        <ele>534.6</ele>
        <time>1970-01-01T00:00:00Z</time>
      </trkpt>
      <trkpt lat="39.440248" lon="-5.219311">
        <ele>534.6</ele>
        <time>1970-01-01T00:00:00Z</time>
      </trkpt>
      <trkpt lat="39.440488" lon="-5.219149">
        <ele>533.5</ele>
        <time>1970-01-01T00:00:00Z</time>
      </trkpt>
      <trkpt lat="39.440488" lon="-5.219149">
        <ele>533.5</ele>
        <time>1970-01-01T00:00:00Z</time>
      </trkpt>
      <trkpt lat="39.440488" lon="-5.219149">
        <ele>533.5</ele>
        <time>1970-01-01T00:00:00Z</time>
      </trkpt>
      <trkpt lat="39.440488" lon="-5.219149">
        <ele>533.5</ele>
        <time>1970-01-01T00:00:00Z</time>
      </trkpt>
      <trkpt lat="39.440564" lon="-5.219083">
        <ele>532.8</ele>
        <time>1970-01-01T00:00:00Z</time>
      </trkpt>
      <trkpt lat="39.440564" lon="-5.219083">
        <ele>532.8</ele>
        <time>1970-01-01T00:00:00Z</time>
      </trkpt>
      <trkpt lat="39.440564" lon="-5.219083">
        <ele>532.8</ele>
        <time>1970-01-01T00:00:00Z</time>
      </trkpt>
      <trkpt lat="39.440564" lon="-5.219083">
        <ele>532.8</ele>
        <time>1970-01-01T00:00:00Z</time>
      </trkpt>
      <trkpt lat="39.440611" lon="-5.219033">
        <ele>532.4</ele>
        <time>1970-01-01T00:00:00Z</time>
      </trkpt>
      <trkpt lat="39.440611" lon="-5.219033">
        <ele>532.4</ele>
        <time>1970-01-01T00:00:00Z</time>
      </trkpt>
      <trkpt lat="39.440611" lon="-5.219033">
        <ele>532.4</ele>
        <time>1970-01-01T00:00:00Z</time>
      </trkpt>
      <trkpt lat="39.440611" lon="-5.219033">
        <ele>532.4</ele>
        <time>1970-01-01T00:00:00Z</time>
      </trkpt>
      <trkpt lat="39.440698" lon="-5.218907">
        <ele>532.3</ele>
        <time>1970-01-01T00:00:00Z</time>
      </trkpt>
      <trkpt lat="39.440698" lon="-5.218907">
        <ele>532.3</ele>
        <time>1970-01-01T00:00:00Z</time>
      </trkpt>
      <trkpt lat="39.440698" lon="-5.218907">
        <ele>532.3</ele>
        <time>1970-01-01T00:00:00Z</time>
      </trkpt>
      <trkpt lat="39.440698" lon="-5.218907">
        <ele>532.3</ele>
        <time>1970-01-01T00:00:00Z</time>
      </trkpt>
      <trkpt lat="39.440811" lon="-5.218727">
        <ele>533.2</ele>
        <time>1970-01-01T00:00:00Z</time>
      </trkpt>
      <trkpt lat="39.440811" lon="-5.218727">
        <ele>533.2</ele>
        <time>1970-01-01T00:00:00Z</time>
      </trkpt>
      <trkpt lat="39.440811" lon="-5.218727">
        <ele>533.2</ele>
        <time>1970-01-01T00:00:00Z</time>
      </trkpt>
      <trkpt lat="39.440811" lon="-5.218727">
        <ele>533.2</ele>
        <time>1970-01-01T00:00:00Z</time>
      </trkpt>
      <trkpt lat="39.440866" lon="-5.218633">
        <ele>533.7</ele>
        <time>1970-01-01T00:00:00Z</time>
      </trkpt>
      <trkpt lat="39.440866" lon="-5.218633">
        <ele>533.7</ele>
        <time>1970-01-01T00:00:00Z</time>
      </trkpt>
      <trkpt lat="39.440866" lon="-5.218633">
        <ele>533.7</ele>
        <time>1970-01-01T00:00:00Z</time>
      </trkpt>
      <trkpt lat="39.440866" lon="-5.218633">
        <ele>533.7</ele>
        <time>1970-01-01T00:00:00Z</time>
      </trkpt>
      <trkpt lat="39.440955" lon="-5.218578">
        <ele>533.8</ele>
        <time>1970-01-01T00:00:00Z</time>
      </trkpt>
      <trkpt lat="39.440955" lon="-5.218578">
        <ele>533.8</ele>
        <time>1970-01-01T00:00:00Z</time>
      </trkpt>
      <trkpt lat="39.440955" lon="-5.218578">
        <ele>533.8</ele>
        <time>1970-01-01T00:00:00Z</time>
      </trkpt>
      <trkpt lat="39.440955" lon="-5.218578">
        <ele>533.8</ele>
        <time>1970-01-01T00:00:00Z</time>
      </trkpt>
      <trkpt lat="39.441048" lon="-5.218547">
        <ele>533.6</ele>
        <time>1970-01-01T00:00:00Z</time>
      </trkpt>
      <trkpt lat="39.441048" lon="-5.218547">
        <ele>533.6</ele>
        <time>1970-01-01T00:00:00Z</time>
      </trkpt>
      <trkpt lat="39.441048" lon="-5.218547">
        <ele>533.6</ele>
        <time>1970-01-01T00:00:00Z</time>
      </trkpt>
      <trkpt lat="39.441048" lon="-5.218547">
        <ele>533.6</ele>
        <time>1970-01-01T00:00:00Z</time>
      </trkpt>
      <trkpt lat="39.441141" lon="-5.218559">
        <ele>533.4</ele>
        <time>1970-01-01T00:00:00Z</time>
      </trkpt>
      <trkpt lat="39.441141" lon="-5.218559">
        <ele>533.4</ele>
        <time>1970-01-01T00:00:00Z</time>
      </trkpt>
      <trkpt lat="39.441141" lon="-5.218559">
        <ele>533.4</ele>
        <time>1970-01-01T00:00:00Z</time>
      </trkpt>
      <trkpt lat="39.441141" lon="-5.218559">
        <ele>533.4</ele>
        <time>1970-01-01T00:00:00Z</time>
      </trkpt>
      <trkpt lat="39.441318" lon="-5.218593">
        <ele>533.1</ele>
        <time>1970-01-01T00:00:00Z</time>
      </trkpt>
      <trkpt lat="39.441318" lon="-5.218593">
        <ele>533.1</ele>
        <time>1970-01-01T00:00:00Z</time>
      </trkpt>
      <trkpt lat="39.441318" lon="-5.218593">
        <ele>533.1</ele>
        <time>1970-01-01T00:00:00Z</time>
      </trkpt>
      <trkpt lat="39.441318" lon="-5.218593">
        <ele>533.1</ele>
        <time>1970-01-01T00:00:00Z</time>
      </trkpt>
      <trkpt lat="39.441473" lon="-5.218624">
        <ele>533.5</ele>
        <time>1970-01-01T00:00:00Z</time>
      </trkpt>
      <trkpt lat="39.441473" lon="-5.218624">
        <ele>533.5</ele>
        <time>1970-01-01T00:00:00Z</time>
      </trkpt>
      <trkpt lat="39.441473" lon="-5.218624">
        <ele>533.5</ele>
        <time>1970-01-01T00:00:00Z</time>
      </trkpt>
      <trkpt lat="39.441473" lon="-5.218624">
        <ele>533.5</ele>
        <time>1970-01-01T00:00:00Z</time>
      </trkpt>
      <trkpt lat="39.441649" lon="-5.218645">
        <ele>534.1</ele>
        <time>1970-01-01T00:00:00Z</time>
      </trkpt>
      <trkpt lat="39.441649" lon="-5.218645">
        <ele>534.1</ele>
        <time>1970-01-01T00:00:00Z</time>
      </trkpt>
      <trkpt lat="39.441649" lon="-5.218645">
        <ele>534.1</ele>
        <time>1970-01-01T00:00:00Z</time>
      </trkpt>
      <trkpt lat="39.441649" lon="-5.218645">
        <ele>534.1</ele>
        <time>1970-01-01T00:00:00Z</time>
      </trkpt>
      <trkpt lat="39.441748" lon="-5.218637">
        <ele>534.6</ele>
        <time>1970-01-01T00:00:00Z</time>
      </trkpt>
      <trkpt lat="39.441748" lon="-5.218637">
        <ele>534.6</ele>
        <time>1970-01-01T00:00:00Z</time>
      </trkpt>
      <trkpt lat="39.441748" lon="-5.218637">
        <ele>534.6</ele>
        <time>1970-01-01T00:00:00Z</time>
      </trkpt>
      <trkpt lat="39.441748" lon="-5.218637">
        <ele>534.6</ele>
        <time>1970-01-01T00:00:00Z</time>
      </trkpt>
      <trkpt lat="39.441858" lon="-5.218619">
        <ele>535.2</ele>
        <time>1970-01-01T00:00:00Z</time>
      </trkpt>
      <trkpt lat="39.441858" lon="-5.218619">
        <ele>535.2</ele>
        <time>1970-01-01T00:00:00Z</time>
      </trkpt>
      <trkpt lat="39.441858" lon="-5.218619">
        <ele>535.2</ele>
        <time>1970-01-01T00:00:00Z</time>
      </trkpt>
      <trkpt lat="39.441858" lon="-5.218619">
        <ele>535.2</ele>
        <time>1970-01-01T00:00:00Z</time>
      </trkpt>
      <trkpt lat="39.441920" lon="-5.218591">
        <ele>535.7</ele>
        <time>1970-01-01T00:00:00Z</time>
      </trkpt>
      <trkpt lat="39.441920" lon="-5.218591">
        <ele>535.7</ele>
        <time>1970-01-01T00:00:00Z</time>
      </trkpt>
      <trkpt lat="39.441920" lon="-5.218591">
        <ele>535.7</ele>
        <time>1970-01-01T00:00:00Z</time>
      </trkpt>
      <trkpt lat="39.441920" lon="-5.218591">
        <ele>535.7</ele>
        <time>1970-01-01T00:00:00Z</time>
      </trkpt>
      <trkpt lat="39.442059" lon="-5.218489">
        <ele>536.7</ele>
        <time>1970-01-01T00:00:00Z</time>
      </trkpt>
      <trkpt lat="39.442059" lon="-5.218489">
        <ele>536.7</ele>
        <time>1970-01-01T00:00:00Z</time>
      </trkpt>
      <trkpt lat="39.442059" lon="-5.218489">
        <ele>536.7</ele>
        <time>1970-01-01T00:00:00Z</time>
      </trkpt>
      <trkpt lat="39.442059" lon="-5.218489">
        <ele>536.7</ele>
        <time>1970-01-01T00:00:00Z</time>
      </trkpt>
      <trkpt lat="39.442296" lon="-5.218252">
        <ele>539.3</ele>
        <time>1970-01-01T00:00:00Z</time>
      </trkpt>
      <trkpt lat="39.442296" lon="-5.218252">
        <ele>539.3</ele>
        <time>1970-01-01T00:00:00Z</time>
      </trkpt>
      <trkpt lat="39.442296" lon="-5.218252">
        <ele>539.3</ele>
        <time>1970-01-01T00:00:00Z</time>
      </trkpt>
      <trkpt lat="39.442296" lon="-5.218252">
        <ele>539.3</ele>
        <time>1970-01-01T00:00:00Z</time>
      </trkpt>
      <trkpt lat="39.442337" lon="-5.218188">
        <ele>540.0</ele>
        <time>1970-01-01T00:00:00Z</time>
      </trkpt>
      <trkpt lat="39.442337" lon="-5.218188">
        <ele>540.0</ele>
        <time>1970-01-01T00:00:00Z</time>
      </trkpt>
      <trkpt lat="39.442337" lon="-5.218188">
        <ele>540.0</ele>
        <time>1970-01-01T00:00:00Z</time>
      </trkpt>
      <trkpt lat="39.442337" lon="-5.218188">
        <ele>540.0</ele>
        <time>1970-01-01T00:00:00Z</time>
      </trkpt>
      <trkpt lat="39.442350" lon="-5.218127">
        <ele>540.6</ele>
        <time>1970-01-01T00:00:00Z</time>
      </trkpt>
      <trkpt lat="39.442350" lon="-5.218127">
        <ele>540.6</ele>
        <time>1970-01-01T00:00:00Z</time>
      </trkpt>
      <trkpt lat="39.442350" lon="-5.218127">
        <ele>540.6</ele>
        <time>1970-01-01T00:00:00Z</time>
      </trkpt>
      <trkpt lat="39.442350" lon="-5.218127">
        <ele>540.6</ele>
        <time>1970-01-01T00:00:00Z</time>
      </trkpt>
      <trkpt lat="39.442347" lon="-5.218058">
        <ele>541.0</ele>
        <time>1970-01-01T00:00:00Z</time>
      </trkpt>
      <trkpt lat="39.442347" lon="-5.218058">
        <ele>541.0</ele>
        <time>1970-01-01T00:00:00Z</time>
      </trkpt>
      <trkpt lat="39.442347" lon="-5.218058">
        <ele>541.0</ele>
        <time>1970-01-01T00:00:00Z</time>
      </trkpt>
      <trkpt lat="39.442347" lon="-5.218058">
        <ele>541.0</ele>
        <time>1970-01-01T00:00:00Z</time>
      </trkpt>
      <trkpt lat="39.442343" lon="-5.217967">
        <ele>541.6</ele>
        <time>1970-01-01T00:00:00Z</time>
      </trkpt>
      <trkpt lat="39.442343" lon="-5.217967">
        <ele>541.6</ele>
        <time>1970-01-01T00:00:00Z</time>
      </trkpt>
      <trkpt lat="39.442343" lon="-5.217967">
        <ele>541.6</ele>
        <time>1970-01-01T00:00:00Z</time>
      </trkpt>
      <trkpt lat="39.442343" lon="-5.217967">
        <ele>541.6</ele>
        <time>1970-01-01T00:00:00Z</time>
      </trkpt>
    </trkseg>
    <trkseg>
      <trkpt lat="39.442343" lon="-5.217967">
        <ele>541.6</ele>
        <time>1970-01-01T00:00:00Z</time>
      </trkpt>
      <trkpt lat="39.442343" lon="-5.217967">
        <ele>541.6</ele>
        <time>1970-01-01T00:00:00Z</time>
      </trkpt>
      <trkpt lat="39.442343" lon="-5.217967">
        <ele>541.6</ele>
        <time>1970-01-01T00:00:00Z</time>
      </trkpt>
      <trkpt lat="39.442343" lon="-5.217967">
        <ele>541.6</ele>
        <time>1970-01-01T00:00:00Z</time>
      </trkpt>
      <trkpt lat="39.442347" lon="-5.218058">
        <ele>541.0</ele>
        <time>1970-01-01T00:00:00Z</time>
      </trkpt>
      <trkpt lat="39.442347" lon="-5.218058">
        <ele>541.0</ele>
        <time>1970-01-01T00:00:00Z</time>
      </trkpt>
      <trkpt lat="39.442347" lon="-5.218058">
        <ele>541.0</ele>
        <time>1970-01-01T00:00:00Z</time>
      </trkpt>
      <trkpt lat="39.442347" lon="-5.218058">
        <ele>541.0</ele>
        <time>1970-01-01T00:00:00Z</time>
      </trkpt>
      <trkpt lat="39.442350" lon="-5.218127">
        <ele>540.6</ele>
        <time>1970-01-01T00:00:00Z</time>
      </trkpt>
      <trkpt lat="39.442350" lon="-5.218127">
        <ele>540.6</ele>
        <time>1970-01-01T00:00:00Z</time>
      </trkpt>
      <trkpt lat="39.442350" lon="-5.218127">
        <ele>540.6</ele>
        <time>1970-01-01T00:00:00Z</time>
      </trkpt>
      <trkpt lat="39.442350" lon="-5.218127">
        <ele>540.6</ele>
        <time>1970-01-01T00:00:00Z</time>
      </trkpt>
      <trkpt lat="39.442403" lon="-5.218138">
        <ele>540.7</ele>
        <time>1970-01-01T00:00:00Z</time>
      </trkpt>
      <trkpt lat="39.442403" lon="-5.218138">
        <ele>540.7</ele>
        <time>1970-01-01T00:00:00Z</time>
      </trkpt>
      <trkpt lat="39.442403" lon="-5.218138">
        <ele>540.7</ele>
        <time>1970-01-01T00:00:00Z</time>
      </trkpt>
      <trkpt lat="39.442403" lon="-5.218138">
        <ele>540.7</ele>
        <time>1970-01-01T00:00:00Z</time>
      </trkpt>
      <trkpt lat="39.442527" lon="-5.218112">
        <ele>541.1</ele>
        <time>1970-01-01T00:00:00Z</time>
      </trkpt>
      <trkpt lat="39.442527" lon="-5.218112">
        <ele>541.1</ele>
        <time>1970-01-01T00:00:00Z</time>
      </trkpt>
      <trkpt lat="39.442527" lon="-5.218112">
        <ele>541.1</ele>
        <time>1970-01-01T00:00:00Z</time>
      </trkpt>
      <trkpt lat="39.442527" lon="-5.218112">
        <ele>541.1</ele>
        <time>1970-01-01T00:00:00Z</time>
      </trkpt>
      <trkpt lat="39.442826" lon="-5.218015">
        <ele>542.1</ele>
        <time>1970-01-01T00:00:00Z</time>
      </trkpt>
      <trkpt lat="39.442826" lon="-5.218015">
        <ele>542.1</ele>
        <time>1970-01-01T00:00:00Z</time>
      </trkpt>
      <trkpt lat="39.442826" lon="-5.218015">
        <ele>542.1</ele>
        <time>1970-01-01T00:00:00Z</time>
      </trkpt>
      <trkpt lat="39.442826" lon="-5.218015">
        <ele>542.1</ele>
        <time>1970-01-01T00:00:00Z</time>
      </trkpt>
      <trkpt lat="39.442943" lon="-5.217986">
        <ele>542.7</ele>
        <time>1970-01-01T00:00:00Z</time>
      </trkpt>
      <trkpt lat="39.442943" lon="-5.217986">
        <ele>542.7</ele>
        <time>1970-01-01T00:00:00Z</time>
      </trkpt>
      <trkpt lat="39.442943" lon="-5.217986">
        <ele>542.7</ele>
        <time>1970-01-01T00:00:00Z</time>
      </trkpt>
      <trkpt lat="39.442943" lon="-5.217986">
        <ele>542.7</ele>
        <time>1970-01-01T00:00:00Z</time>
      </trkpt>
      <trkpt lat="39.443045" lon="-5.217940">
        <ele>543.3</ele>
        <time>1970-01-01T00:00:00Z</time>
      </trkpt>
      <trkpt lat="39.443045" lon="-5.217940">
        <ele>543.3</ele>
        <time>1970-01-01T00:00:00Z</time>
      </trkpt>
      <trkpt lat="39.443045" lon="-5.217940">
        <ele>543.3</ele>
        <time>1970-01-01T00:00:00Z</time>
      </trkpt>
      <trkpt lat="39.443045" lon="-5.217940">
        <ele>543.3</ele>
        <time>1970-01-01T00:00:00Z</time>
      </trkpt>
      <trkpt lat="39.443155" lon="-5.217898">
        <ele>544.0</ele>
        <time>1970-01-01T00:00:00Z</time>
      </trkpt>
      <trkpt lat="39.443155" lon="-5.217898">
        <ele>544.0</ele>
        <time>1970-01-01T00:00:00Z</time>
      </trkpt>
      <trkpt lat="39.443155" lon="-5.217898">
        <ele>544.0</ele>
        <time>1970-01-01T00:00:00Z</time>
      </trkpt>
      <trkpt lat="39.443155" lon="-5.217898">
        <ele>544.0</ele>
        <time>1970-01-01T00:00:00Z</time>
      </trkpt>
      <trkpt lat="39.443271" lon="-5.217869">
        <ele>544.5</ele>
        <time>1970-01-01T00:00:00Z</time>
      </trkpt>
      <trkpt lat="39.443271" lon="-5.217869">
        <ele>544.5</ele>
        <time>1970-01-01T00:00:00Z</time>
      </trkpt>
      <trkpt lat="39.443271" lon="-5.217869">
        <ele>544.5</ele>
        <time>1970-01-01T00:00:00Z</time>
      </trkpt>
      <trkpt lat="39.443271" lon="-5.217869">
        <ele>544.5</ele>
        <time>1970-01-01T00:00:00Z</time>
      </trkpt>
      <trkpt lat="39.443692" lon="-5.217810">
        <ele>546.1</ele>
        <time>1970-01-01T00:00:00Z</time>
      </trkpt>
      <trkpt lat="39.443692" lon="-5.217810">
        <ele>546.1</ele>
        <time>1970-01-01T00:00:00Z</time>
      </trkpt>
      <trkpt lat="39.443692" lon="-5.217810">
        <ele>546.1</ele>
        <time>1970-01-01T00:00:00Z</time>
      </trkpt>
      <trkpt lat="39.443692" lon="-5.217810">
        <ele>546.1</ele>
        <time>1970-01-01T00:00:00Z</time>
      </trkpt>
      <trkpt lat="39.443763" lon="-5.217781">
        <ele>546.3</ele>
        <time>1970-01-01T00:00:00Z</time>
      </trkpt>
      <trkpt lat="39.443763" lon="-5.217781">
        <ele>546.3</ele>
        <time>1970-01-01T00:00:00Z</time>
      </trkpt>
      <trkpt lat="39.443763" lon="-5.217781">
        <ele>546.3</ele>
        <time>1970-01-01T00:00:00Z</time>
      </trkpt>
      <trkpt lat="39.443763" lon="-5.217781">
        <ele>546.3</ele>
        <time>1970-01-01T00:00:00Z</time>
      </trkpt>
      <trkpt lat="39.443893" lon="-5.217717">
        <ele>546.9</ele>
        <time>1970-01-01T00:00:00Z</time>
      </trkpt>
      <trkpt lat="39.443893" lon="-5.217717">
        <ele>546.9</ele>
        <time>1970-01-01T00:00:00Z</time>
      </trkpt>
      <trkpt lat="39.443893" lon="-5.217717">
        <ele>546.9</ele>
        <time>1970-01-01T00:00:00Z</time>
      </trkpt>
      <trkpt lat="39.443893" lon="-5.217717">
        <ele>546.9</ele>
        <time>1970-01-01T00:00:00Z</time>
      </trkpt>
      <trkpt lat="39.443959" lon="-5.217681">
        <ele>547.4</ele>
        <time>1970-01-01T00:00:00Z</time>
      </trkpt>
      <trkpt lat="39.443959" lon="-5.217681">
        <ele>547.4</ele>
        <time>1970-01-01T00:00:00Z</time>
      </trkpt>
      <trkpt lat="39.443959" lon="-5.217681">
        <ele>547.4</ele>
        <time>1970-01-01T00:00:00Z</time>
      </trkpt>
      <trkpt lat="39.443959" lon="-5.217681">
        <ele>547.4</ele>
        <time>1970-01-01T00:00:00Z</time>
      </trkpt>
      <trkpt lat="39.444154" lon="-5.217636">
        <ele>548.4</ele>
        <time>1970-01-01T00:00:00Z</time>
      </trkpt>
      <trkpt lat="39.444154" lon="-5.217636">
        <ele>548.4</ele>
        <time>1970-01-01T00:00:00Z</time>
      </trkpt>
      <trkpt lat="39.444154" lon="-5.217636">
        <ele>548.4</ele>
        <time>1970-01-01T00:00:00Z</time>
      </trkpt>
      <trkpt lat="39.444154" lon="-5.217636">
        <ele>548.4</ele>
        <time>1970-01-01T00:00:00Z</time>
      </trkpt>
      <trkpt lat="39.444247" lon="-5.217603">
        <ele>549.0</ele>
        <time>1970-01-01T00:00:00Z</time>
      </trkpt>
      <trkpt lat="39.444247" lon="-5.217603">
        <ele>549.0</ele>
        <time>1970-01-01T00:00:00Z</time>
      </trkpt>
      <trkpt lat="39.444247" lon="-5.217603">
        <ele>549.0</ele>
        <time>1970-01-01T00:00:00Z</time>
      </trkpt>
      <trkpt lat="39.444247" lon="-5.217603">
        <ele>549.0</ele>
        <time>1970-01-01T00:00:00Z</time>
      </trkpt>
      <trkpt lat="39.444385" lon="-5.217555">
        <ele>550.0</ele>
        <time>1970-01-01T00:00:00Z</time>
      </trkpt>
      <trkpt lat="39.444385" lon="-5.217555">
        <ele>550.0</ele>
        <time>1970-01-01T00:00:00Z</time>
      </trkpt>
      <trkpt lat="39.444385" lon="-5.217555">
        <ele>550.0</ele>
        <time>1970-01-01T00:00:00Z</time>
      </trkpt>
      <trkpt lat="39.444385" lon="-5.217555">
        <ele>550.0</ele>
        <time>1970-01-01T00:00:00Z</time>
      </trkpt>
      <trkpt lat="39.444751" lon="-5.217422">
        <ele>553.6</ele>
        <time>1970-01-01T00:00:00Z</time>
      </trkpt>
      <trkpt lat="39.444751" lon="-5.217422">
        <ele>553.6</ele>
        <time>1970-01-01T00:00:00Z</time>
      </trkpt>
      <trkpt lat="39.444751" lon="-5.217422">
        <ele>553.6</ele>
        <time>1970-01-01T00:00:00Z</time>
      </trkpt>
      <trkpt lat="39.444751" lon="-5.217422">
        <ele>553.6</ele>
        <time>1970-01-01T00:00:00Z</time>
      </trkpt>
      <trkpt lat="39.444879" lon="-5.217415">
        <ele>554.7</ele>
        <time>1970-01-01T00:00:00Z</time>
      </trkpt>
      <trkpt lat="39.444879" lon="-5.217415">
        <ele>554.7</ele>
        <time>1970-01-01T00:00:00Z</time>
      </trkpt>
      <trkpt lat="39.444879" lon="-5.217415">
        <ele>554.7</ele>
        <time>1970-01-01T00:00:00Z</time>
      </trkpt>
      <trkpt lat="39.444879" lon="-5.217415">
        <ele>554.7</ele>
        <time>1970-01-01T00:00:00Z</time>
      </trkpt>
      <trkpt lat="39.444983" lon="-5.217429">
        <ele>555.6</ele>
        <time>1970-01-01T00:00:00Z</time>
      </trkpt>
      <trkpt lat="39.444983" lon="-5.217429">
        <ele>555.6</ele>
        <time>1970-01-01T00:00:00Z</time>
      </trkpt>
      <trkpt lat="39.444983" lon="-5.217429">
        <ele>555.6</ele>
        <time>1970-01-01T00:00:00Z</time>
      </trkpt>
      <trkpt lat="39.444983" lon="-5.217429">
        <ele>555.6</ele>
        <time>1970-01-01T00:00:00Z</time>
      </trkpt>
      <trkpt lat="39.445051" lon="-5.217423">
        <ele>556.1</ele>
        <time>1970-01-01T00:00:00Z</time>
      </trkpt>
      <trkpt lat="39.445051" lon="-5.217423">
        <ele>556.1</ele>
        <time>1970-01-01T00:00:00Z</time>
      </trkpt>
      <trkpt lat="39.445051" lon="-5.217423">
        <ele>556.1</ele>
        <time>1970-01-01T00:00:00Z</time>
      </trkpt>
      <trkpt lat="39.445051" lon="-5.217423">
        <ele>556.1</ele>
        <time>1970-01-01T00:00:00Z</time>
      </trkpt>
      <trkpt lat="39.445192" lon="-5.217326">
        <ele>557.1</ele>
        <time>1970-01-01T00:00:00Z</time>
      </trkpt>
      <trkpt lat="39.445192" lon="-5.217326">
        <ele>557.1</ele>
        <time>1970-01-01T00:00:00Z</time>
      </trkpt>
      <trkpt lat="39.445192" lon="-5.217326">
        <ele>557.1</ele>
        <time>1970-01-01T00:00:00Z</time>
      </trkpt>
      <trkpt lat="39.445192" lon="-5.217326">
        <ele>557.1</ele>
        <time>1970-01-01T00:00:00Z</time>
      </trkpt>
      <trkpt lat="39.445377" lon="-5.217223">
        <ele>558.0</ele>
        <time>1970-01-01T00:00:00Z</time>
      </trkpt>
      <trkpt lat="39.445377" lon="-5.217223">
        <ele>558.0</ele>
        <time>1970-01-01T00:00:00Z</time>
      </trkpt>
      <trkpt lat="39.445377" lon="-5.217223">
        <ele>558.0</ele>
        <time>1970-01-01T00:00:00Z</time>
      </trkpt>
      <trkpt lat="39.445377" lon="-5.217223">
        <ele>558.0</ele>
        <time>1970-01-01T00:00:00Z</time>
      </trkpt>
      <trkpt lat="39.445501" lon="-5.217144">
        <ele>558.7</ele>
        <time>1970-01-01T00:00:00Z</time>
      </trkpt>
      <trkpt lat="39.445501" lon="-5.217144">
        <ele>558.7</ele>
        <time>1970-01-01T00:00:00Z</time>
      </trkpt>
      <trkpt lat="39.445501" lon="-5.217144">
        <ele>558.7</ele>
        <time>1970-01-01T00:00:00Z</time>
      </trkpt>
      <trkpt lat="39.445501" lon="-5.217144">
        <ele>558.7</ele>
        <time>1970-01-01T00:00:00Z</time>
      </trkpt>
      <trkpt lat="39.445596" lon="-5.217133">
        <ele>559.0</ele>
        <time>1970-01-01T00:00:00Z</time>
      </trkpt>
      <trkpt lat="39.445596" lon="-5.217133">
        <ele>559.0</ele>
        <time>1970-01-01T00:00:00Z</time>
      </trkpt>
      <trkpt lat="39.445596" lon="-5.217133">
        <ele>559.0</ele>
        <time>1970-01-01T00:00:00Z</time>
      </trkpt>
      <trkpt lat="39.445596" lon="-5.217133">
        <ele>559.0</ele>
        <time>1970-01-01T00:00:00Z</time>
      </trkpt>
      <trkpt lat="39.445620" lon="-5.217082">
        <ele>559.4</ele>
        <time>1970-01-01T00:00:00Z</time>
      </trkpt>
      <trkpt lat="39.445620" lon="-5.217082">
        <ele>559.4</ele>
        <time>1970-01-01T00:00:00Z</time>
      </trkpt>
      <trkpt lat="39.445620" lon="-5.217082">
        <ele>559.4</ele>
        <time>1970-01-01T00:00:00Z</time>
      </trkpt>
      <trkpt lat="39.445620" lon="-5.217082">
        <ele>559.4</ele>
        <time>1970-01-01T00:00:00Z</time>
      </trkpt>
      <trkpt lat="39.445646" lon="-5.217027">
        <ele>559.8</ele>
        <time>1970-01-01T00:00:00Z</time>
      </trkpt>
      <trkpt lat="39.445646" lon="-5.217027">
        <ele>559.8</ele>
        <time>1970-01-01T00:00:00Z</time>
      </trkpt>
      <trkpt lat="39.445646" lon="-5.217027">
        <ele>559.8</ele>
        <time>1970-01-01T00:00:00Z</time>
      </trkpt>
      <trkpt lat="39.445646" lon="-5.217027">
        <ele>559.8</ele>
        <time>1970-01-01T00:00:00Z</time>
      </trkpt>
      <trkpt lat="39.445680" lon="-5.217010">
        <ele>559.9</ele>
        <time>1970-01-01T00:00:00Z</time>
      </trkpt>
      <trkpt lat="39.445680" lon="-5.217010">
        <ele>559.9</ele>
        <time>1970-01-01T00:00:00Z</time>
      </trkpt>
      <trkpt lat="39.445680" lon="-5.217010">
        <ele>559.9</ele>
        <time>1970-01-01T00:00:00Z</time>
      </trkpt>
      <trkpt lat="39.445680" lon="-5.217010">
        <ele>559.9</ele>
        <time>1970-01-01T00:00:00Z</time>
      </trkpt>
      <trkpt lat="39.445738" lon="-5.217006">
        <ele>560.0</ele>
        <time>1970-01-01T00:00:00Z</time>
      </trkpt>
      <trkpt lat="39.445738" lon="-5.217006">
        <ele>560.0</ele>
        <time>1970-01-01T00:00:00Z</time>
      </trkpt>
      <trkpt lat="39.445738" lon="-5.217006">
        <ele>560.0</ele>
        <time>1970-01-01T00:00:00Z</time>
      </trkpt>
      <trkpt lat="39.445738" lon="-5.217006">
        <ele>560.0</ele>
        <time>1970-01-01T00:00:00Z</time>
      </trkpt>
      <trkpt lat="39.445837" lon="-5.216997">
        <ele>560.5</ele>
        <time>1970-01-01T00:00:00Z</time>
      </trkpt>
      <trkpt lat="39.445837" lon="-5.216997">
        <ele>560.5</ele>
        <time>1970-01-01T00:00:00Z</time>
      </trkpt>
      <trkpt lat="39.445837" lon="-5.216997">
        <ele>560.5</ele>
        <time>1970-01-01T00:00:00Z</time>
      </trkpt>
      <trkpt lat="39.445837" lon="-5.216997">
        <ele>560.5</ele>
        <time>1970-01-01T00:00:00Z</time>
      </trkpt>
      <trkpt lat="39.445882" lon="-5.216993">
        <ele>560.7</ele>
        <time>1970-01-01T00:00:00Z</time>
      </trkpt>
      <trkpt lat="39.445882" lon="-5.216993">
        <ele>560.7</ele>
        <time>1970-01-01T00:00:00Z</time>
      </trkpt>
      <trkpt lat="39.445882" lon="-5.216993">
        <ele>560.7</ele>
        <time>1970-01-01T00:00:00Z</time>
      </trkpt>
      <trkpt lat="39.445882" lon="-5.216993">
        <ele>560.7</ele>
        <time>1970-01-01T00:00:00Z</time>
      </trkpt>
      <trkpt lat="39.445933" lon="-5.216982">
        <ele>560.9</ele>
        <time>1970-01-01T00:00:00Z</time>
      </trkpt>
      <trkpt lat="39.445933" lon="-5.216982">
        <ele>560.9</ele>
        <time>1970-01-01T00:00:00Z</time>
      </trkpt>
      <trkpt lat="39.445933" lon="-5.216982">
        <ele>560.9</ele>
        <time>1970-01-01T00:00:00Z</time>
      </trkpt>
      <trkpt lat="39.445933" lon="-5.216982">
        <ele>560.9</ele>
        <time>1970-01-01T00:00:00Z</time>
      </trkpt>
      <trkpt lat="39.445934" lon="-5.216981">
        <ele>560.9</ele>
        <time>1970-01-01T00:00:00Z</time>
      </trkpt>
      <trkpt lat="39.445934" lon="-5.216981">
        <ele>560.9</ele>
        <time>1970-01-01T00:00:00Z</time>
      </trkpt>
      <trkpt lat="39.445934" lon="-5.216981">
        <ele>560.9</ele>
        <time>1970-01-01T00:00:00Z</time>
      </trkpt>
      <trkpt lat="39.445934" lon="-5.216981">
        <ele>560.9</ele>
        <time>1970-01-01T00:00:00Z</time>
      </trkpt>
      <trkpt lat="39.445937" lon="-5.216981">
        <ele>561.0</ele>
        <time>1970-01-01T00:00:00Z</time>
      </trkpt>
      <trkpt lat="39.445937" lon="-5.216981">
        <ele>561.0</ele>
        <time>1970-01-01T00:00:00Z</time>
      </trkpt>
      <trkpt lat="39.445937" lon="-5.216981">
        <ele>561.0</ele>
        <time>1970-01-01T00:00:00Z</time>
      </trkpt>
      <trkpt lat="39.445937" lon="-5.216981">
        <ele>561.0</ele>
        <time>1970-01-01T00:00:00Z</time>
      </trkpt>
      <trkpt lat="39.445951" lon="-5.216978">
        <ele>561.0</ele>
        <time>1970-01-01T00:00:00Z</time>
      </trkpt>
      <trkpt lat="39.445951" lon="-5.216978">
        <ele>561.0</ele>
        <time>1970-01-01T00:00:00Z</time>
      </trkpt>
      <trkpt lat="39.445951" lon="-5.216978">
        <ele>561.0</ele>
        <time>1970-01-01T00:00:00Z</time>
      </trkpt>
      <trkpt lat="39.445951" lon="-5.216978">
        <ele>561.0</ele>
        <time>1970-01-01T00:00:00Z</time>
      </trkpt>
      <trkpt lat="39.445959" lon="-5.216976">
        <ele>561.1</ele>
        <time>1970-01-01T00:00:00Z</time>
      </trkpt>
      <trkpt lat="39.445959" lon="-5.216976">
        <ele>561.1</ele>
        <time>1970-01-01T00:00:00Z</time>
      </trkpt>
      <trkpt lat="39.445959" lon="-5.216976">
        <ele>561.1</ele>
        <time>1970-01-01T00:00:00Z</time>
      </trkpt>
      <trkpt lat="39.445959" lon="-5.216976">
        <ele>561.1</ele>
        <time>1970-01-01T00:00:00Z</time>
      </trkpt>
      <trkpt lat="39.445997" lon="-5.216968">
        <ele>561.4</ele>
        <time>1970-01-01T00:00:00Z</time>
      </trkpt>
      <trkpt lat="39.445997" lon="-5.216968">
        <ele>561.4</ele>
        <time>1970-01-01T00:00:00Z</time>
      </trkpt>
      <trkpt lat="39.445997" lon="-5.216968">
        <ele>561.4</ele>
        <time>1970-01-01T00:00:00Z</time>
      </trkpt>
      <trkpt lat="39.445997" lon="-5.216968">
        <ele>561.4</ele>
        <time>1970-01-01T00:00:00Z</time>
      </trkpt>
      <trkpt lat="39.446009" lon="-5.216965">
        <ele>561.5</ele>
        <time>1970-01-01T00:00:00Z</time>
      </trkpt>
      <trkpt lat="39.446009" lon="-5.216965">
        <ele>561.5</ele>
        <time>1970-01-01T00:00:00Z</time>
      </trkpt>
      <trkpt lat="39.446009" lon="-5.216965">
        <ele>561.5</ele>
        <time>1970-01-01T00:00:00Z</time>
      </trkpt>
      <trkpt lat="39.446009" lon="-5.216965">
        <ele>561.5</ele>
        <time>1970-01-01T00:00:00Z</time>
      </trkpt>
      <trkpt lat="39.446119" lon="-5.216939">
        <ele>562.4</ele>
        <time>1970-01-01T00:00:00Z</time>
      </trkpt>
      <trkpt lat="39.446119" lon="-5.216939">
        <ele>562.4</ele>
        <time>1970-01-01T00:00:00Z</time>
      </trkpt>
      <trkpt lat="39.446119" lon="-5.216939">
        <ele>562.4</ele>
        <time>1970-01-01T00:00:00Z</time>
      </trkpt>
      <trkpt lat="39.446119" lon="-5.216939">
        <ele>562.4</ele>
        <time>1970-01-01T00:00:00Z</time>
      </trkpt>
      <trkpt lat="39.446193" lon="-5.216939">
        <ele>562.9</ele>
        <time>1970-01-01T00:00:00Z</time>
      </trkpt>
      <trkpt lat="39.446193" lon="-5.216939">
        <ele>562.9</ele>
        <time>1970-01-01T00:00:00Z</time>
      </trkpt>
      <trkpt lat="39.446193" lon="-5.216939">
        <ele>562.9</ele>
        <time>1970-01-01T00:00:00Z</time>
      </trkpt>
      <trkpt lat="39.446193" lon="-5.216939">
        <ele>562.9</ele>
        <time>1970-01-01T00:00:00Z</time>
      </trkpt>
      <trkpt lat="39.446247" lon="-5.216948">
        <ele>563.2</ele>
        <time>1970-01-01T00:00:00Z</time>
      </trkpt>
      <trkpt lat="39.446247" lon="-5.216948">
        <ele>563.2</ele>
        <time>1970-01-01T00:00:00Z</time>
      </trkpt>
      <trkpt lat="39.446247" lon="-5.216948">
        <ele>563.2</ele>
        <time>1970-01-01T00:00:00Z</time>
      </trkpt>
      <trkpt lat="39.446247" lon="-5.216948">
        <ele>563.2</ele>
        <time>1970-01-01T00:00:00Z</time>
      </trkpt>
      <trkpt lat="39.446312" lon="-5.216966">
        <ele>563.5</ele>
        <time>1970-01-01T00:00:00Z</time>
      </trkpt>
      <trkpt lat="39.446312" lon="-5.216966">
        <ele>563.5</ele>
        <time>1970-01-01T00:00:00Z</time>
      </trkpt>
      <trkpt lat="39.446312" lon="-5.216966">
        <ele>563.5</ele>
        <time>1970-01-01T00:00:00Z</time>
      </trkpt>
      <trkpt lat="39.446312" lon="-5.216966">
        <ele>563.5</ele>
        <time>1970-01-01T00:00:00Z</time>
      </trkpt>
      <trkpt lat="39.446370" lon="-5.216988">
        <ele>563.8</ele>
        <time>1970-01-01T00:00:00Z</time>
      </trkpt>
      <trkpt lat="39.446370" lon="-5.216988">
        <ele>563.8</ele>
        <time>1970-01-01T00:00:00Z</time>
      </trkpt>
      <trkpt lat="39.446370" lon="-5.216988">
        <ele>563.8</ele>
        <time>1970-01-01T00:00:00Z</time>
      </trkpt>
      <trkpt lat="39.446370" lon="-5.216988">
        <ele>563.8</ele>
        <time>1970-01-01T00:00:00Z</time>
      </trkpt>
      <trkpt lat="39.446418" lon="-5.217007">
        <ele>563.9</ele>
        <time>1970-01-01T00:00:00Z</time>
      </trkpt>
      <trkpt lat="39.446418" lon="-5.217007">
        <ele>563.9</ele>
        <time>1970-01-01T00:00:00Z</time>
      </trkpt>
      <trkpt lat="39.446418" lon="-5.217007">
        <ele>563.9</ele>
        <time>1970-01-01T00:00:00Z</time>
      </trkpt>
      <trkpt lat="39.446418" lon="-5.217007">
        <ele>563.9</ele>
        <time>1970-01-01T00:00:00Z</time>
      </trkpt>
      <trkpt lat="39.446467" lon="-5.217025">
        <ele>564.1</ele>
        <time>1970-01-01T00:00:00Z</time>
      </trkpt>
      <trkpt lat="39.446467" lon="-5.217025">
        <ele>564.1</ele>
        <time>1970-01-01T00:00:00Z</time>
      </trkpt>
      <trkpt lat="39.446467" lon="-5.217025">
        <ele>564.1</ele>
        <time>1970-01-01T00:00:00Z</time>
      </trkpt>
      <trkpt lat="39.446467" lon="-5.217025">
        <ele>564.1</ele>
        <time>1970-01-01T00:00:00Z</time>
      </trkpt>
      <trkpt lat="39.446492" lon="-5.217035">
        <ele>564.1</ele>
        <time>1970-01-01T00:00:00Z</time>
      </trkpt>
      <trkpt lat="39.446492" lon="-5.217035">
        <ele>564.1</ele>
        <time>1970-01-01T00:00:00Z</time>
      </trkpt>
      <trkpt lat="39.446492" lon="-5.217035">
        <ele>564.1</ele>
        <time>1970-01-01T00:00:00Z</time>
      </trkpt>
      <trkpt lat="39.446492" lon="-5.217035">
        <ele>564.1</ele>
        <time>1970-01-01T00:00:00Z</time>
      </trkpt>
      <trkpt lat="39.446564" lon="-5.217042">
        <ele>564.4</ele>
        <time>1970-01-01T00:00:00Z</time>
      </trkpt>
      <trkpt lat="39.446564" lon="-5.217042">
        <ele>564.4</ele>
        <time>1970-01-01T00:00:00Z</time>
      </trkpt>
      <trkpt lat="39.446564" lon="-5.217042">
        <ele>564.4</ele>
        <time>1970-01-01T00:00:00Z</time>
      </trkpt>
      <trkpt lat="39.446564" lon="-5.217042">
        <ele>564.4</ele>
        <time>1970-01-01T00:00:00Z</time>
      </trkpt>
      <trkpt lat="39.446653" lon="-5.217030">
        <ele>564.8</ele>
        <time>1970-01-01T00:00:00Z</time>
      </trkpt>
      <trkpt lat="39.446653" lon="-5.217030">
        <ele>564.8</ele>
        <time>1970-01-01T00:00:00Z</time>
      </trkpt>
      <trkpt lat="39.446653" lon="-5.217030">
        <ele>564.8</ele>
        <time>1970-01-01T00:00:00Z</time>
      </trkpt>
      <trkpt lat="39.446653" lon="-5.217030">
        <ele>564.8</ele>
        <time>1970-01-01T00:00:00Z</time>
      </trkpt>
      <trkpt lat="39.446695" lon="-5.217024">
        <ele>565.0</ele>
        <time>1970-01-01T00:00:00Z</time>
      </trkpt>
      <trkpt lat="39.446695" lon="-5.217024">
        <ele>565.0</ele>
        <time>1970-01-01T00:00:00Z</time>
      </trkpt>
      <trkpt lat="39.446695" lon="-5.217024">
        <ele>565.0</ele>
        <time>1970-01-01T00:00:00Z</time>
      </trkpt>
      <trkpt lat="39.446695" lon="-5.217024">
        <ele>565.0</ele>
        <time>1970-01-01T00:00:00Z</time>
      </trkpt>
      <trkpt lat="39.446717" lon="-5.217021">
        <ele>565.2</ele>
        <time>1970-01-01T00:00:00Z</time>
      </trkpt>
      <trkpt lat="39.446717" lon="-5.217021">
        <ele>565.2</ele>
        <time>1970-01-01T00:00:00Z</time>
      </trkpt>
      <trkpt lat="39.446717" lon="-5.217021">
        <ele>565.2</ele>
        <time>1970-01-01T00:00:00Z</time>
      </trkpt>
      <trkpt lat="39.446717" lon="-5.217021">
        <ele>565.2</ele>
        <time>1970-01-01T00:00:00Z</time>
      </trkpt>
      <trkpt lat="39.446745" lon="-5.217021">
        <ele>565.3</ele>
        <time>1970-01-01T00:00:00Z</time>
      </trkpt>
      <trkpt lat="39.446745" lon="-5.217021">
        <ele>565.3</ele>
        <time>1970-01-01T00:00:00Z</time>
      </trkpt>
      <trkpt lat="39.446745" lon="-5.217021">
        <ele>565.3</ele>
        <time>1970-01-01T00:00:00Z</time>
      </trkpt>
      <trkpt lat="39.446745" lon="-5.217021">
        <ele>565.3</ele>
        <time>1970-01-01T00:00:00Z</time>
      </trkpt>
      <trkpt lat="39.446784" lon="-5.217021">
        <ele>565.4</ele>
        <time>1970-01-01T00:00:00Z</time>
      </trkpt>
      <trkpt lat="39.446784" lon="-5.217021">
        <ele>565.4</ele>
        <time>1970-01-01T00:00:00Z</time>
      </trkpt>
      <trkpt lat="39.446784" lon="-5.217021">
        <ele>565.4</ele>
        <time>1970-01-01T00:00:00Z</time>
      </trkpt>
      <trkpt lat="39.446784" lon="-5.217021">
        <ele>565.4</ele>
        <time>1970-01-01T00:00:00Z</time>
      </trkpt>
      <trkpt lat="39.446813" lon="-5.217020">
        <ele>565.6</ele>
        <time>1970-01-01T00:00:00Z</time>
      </trkpt>
      <trkpt lat="39.446813" lon="-5.217020">
        <ele>565.6</ele>
        <time>1970-01-01T00:00:00Z</time>
      </trkpt>
      <trkpt lat="39.446813" lon="-5.217020">
        <ele>565.6</ele>
        <time>1970-01-01T00:00:00Z</time>
      </trkpt>
      <trkpt lat="39.446813" lon="-5.217020">
        <ele>565.6</ele>
        <time>1970-01-01T00:00:00Z</time>
      </trkpt>
      <trkpt lat="39.446843" lon="-5.217017">
        <ele>565.7</ele>
        <time>1970-01-01T00:00:00Z</time>
      </trkpt>
      <trkpt lat="39.446843" lon="-5.217017">
        <ele>565.7</ele>
        <time>1970-01-01T00:00:00Z</time>
      </trkpt>
      <trkpt lat="39.446843" lon="-5.217017">
        <ele>565.7</ele>
        <time>1970-01-01T00:00:00Z</time>
      </trkpt>
      <trkpt lat="39.446843" lon="-5.217017">
        <ele>565.7</ele>
        <time>1970-01-01T00:00:00Z</time>
      </trkpt>
      <trkpt lat="39.446919" lon="-5.217009">
        <ele>566.3</ele>
        <time>1970-01-01T00:00:00Z</time>
      </trkpt>
      <trkpt lat="39.446919" lon="-5.217009">
        <ele>566.3</ele>
        <time>1970-01-01T00:00:00Z</time>
      </trkpt>
      <trkpt lat="39.446919" lon="-5.217009">
        <ele>566.3</ele>
        <time>1970-01-01T00:00:00Z</time>
      </trkpt>
      <trkpt lat="39.446919" lon="-5.217009">
        <ele>566.3</ele>
        <time>1970-01-01T00:00:00Z</time>
      </trkpt>
      <trkpt lat="39.446983" lon="-5.217001">
        <ele>566.9</ele>
        <time>1970-01-01T00:00:00Z</time>
      </trkpt>
      <trkpt lat="39.446983" lon="-5.217001">
        <ele>566.9</ele>
        <time>1970-01-01T00:00:00Z</time>
      </trkpt>
      <trkpt lat="39.446983" lon="-5.217001">
        <ele>566.9</ele>
        <time>1970-01-01T00:00:00Z</time>
      </trkpt>
      <trkpt lat="39.446983" lon="-5.217001">
        <ele>566.9</ele>
        <time>1970-01-01T00:00:00Z</time>
      </trkpt>
      <trkpt lat="39.447013" lon="-5.216992">
        <ele>567.1</ele>
        <time>1970-01-01T00:00:00Z</time>
      </trkpt>
      <trkpt lat="39.447013" lon="-5.216992">
        <ele>567.1</ele>
        <time>1970-01-01T00:00:00Z</time>
      </trkpt>
      <trkpt lat="39.447013" lon="-5.216992">
        <ele>567.1</ele>
        <time>1970-01-01T00:00:00Z</time>
      </trkpt>
      <trkpt lat="39.447013" lon="-5.216992">
        <ele>567.1</ele>
        <time>1970-01-01T00:00:00Z</time>
      </trkpt>
      <trkpt lat="39.447063" lon="-5.216976">
        <ele>567.6</ele>
        <time>1970-01-01T00:00:00Z</time>
      </trkpt>
      <trkpt lat="39.447063" lon="-5.216976">
        <ele>567.6</ele>
        <time>1970-01-01T00:00:00Z</time>
      </trkpt>
      <trkpt lat="39.447063" lon="-5.216976">
        <ele>567.6</ele>
        <time>1970-01-01T00:00:00Z</time>
      </trkpt>
      <trkpt lat="39.447063" lon="-5.216976">
        <ele>567.6</ele>
        <time>1970-01-01T00:00:00Z</time>
      </trkpt>
      <trkpt lat="39.447100" lon="-5.216964">
        <ele>567.9</ele>
        <time>1970-01-01T00:00:00Z</time>
      </trkpt>
      <trkpt lat="39.447100" lon="-5.216964">
        <ele>567.9</ele>
        <time>1970-01-01T00:00:00Z</time>
      </trkpt>
      <trkpt lat="39.447100" lon="-5.216964">
        <ele>567.9</ele>
        <time>1970-01-01T00:00:00Z</time>
      </trkpt>
      <trkpt lat="39.447100" lon="-5.216964">
        <ele>567.9</ele>
        <time>1970-01-01T00:00:00Z</time>
      </trkpt>
      <trkpt lat="39.447118" lon="-5.216958">
        <ele>568.1</ele>
        <time>1970-01-01T00:00:00Z</time>
      </trkpt>
      <trkpt lat="39.447118" lon="-5.216958">
        <ele>568.1</ele>
        <time>1970-01-01T00:00:00Z</time>
      </trkpt>
      <trkpt lat="39.447118" lon="-5.216958">
        <ele>568.1</ele>
        <time>1970-01-01T00:00:00Z</time>
      </trkpt>
      <trkpt lat="39.447118" lon="-5.216958">
        <ele>568.1</ele>
        <time>1970-01-01T00:00:00Z</time>
      </trkpt>
      <trkpt lat="39.447120" lon="-5.216958">
        <ele>568.1</ele>
        <time>1970-01-01T00:00:00Z</time>
      </trkpt>
      <trkpt lat="39.447120" lon="-5.216958">
        <ele>568.1</ele>
        <time>1970-01-01T00:00:00Z</time>
      </trkpt>
      <trkpt lat="39.447120" lon="-5.216958">
        <ele>568.1</ele>
        <time>1970-01-01T00:00:00Z</time>
      </trkpt>
      <trkpt lat="39.447120" lon="-5.216958">
        <ele>568.1</ele>
        <time>1970-01-01T00:00:00Z</time>
      </trkpt>
      <trkpt lat="39.447121" lon="-5.216957">
        <ele>568.1</ele>
        <time>1970-01-01T00:00:00Z</time>
      </trkpt>
      <trkpt lat="39.447121" lon="-5.216957">
        <ele>568.1</ele>
        <time>1970-01-01T00:00:00Z</time>
      </trkpt>
      <trkpt lat="39.447121" lon="-5.216957">
        <ele>568.1</ele>
        <time>1970-01-01T00:00:00Z</time>
      </trkpt>
      <trkpt lat="39.447121" lon="-5.216957">
        <ele>568.1</ele>
        <time>1970-01-01T00:00:00Z</time>
      </trkpt>
      <trkpt lat="39.447149" lon="-5.216949">
        <ele>568.4</ele>
        <time>1970-01-01T00:00:00Z</time>
      </trkpt>
      <trkpt lat="39.447149" lon="-5.216949">
        <ele>568.4</ele>
        <time>1970-01-01T00:00:00Z</time>
      </trkpt>
      <trkpt lat="39.447149" lon="-5.216949">
        <ele>568.4</ele>
        <time>1970-01-01T00:00:00Z</time>
      </trkpt>
      <trkpt lat="39.447149" lon="-5.216949">
        <ele>568.4</ele>
        <time>1970-01-01T00:00:00Z</time>
      </trkpt>
      <trkpt lat="39.447198" lon="-5.216933">
        <ele>568.9</ele>
        <time>1970-01-01T00:00:00Z</time>
      </trkpt>
      <trkpt lat="39.447198" lon="-5.216933">
        <ele>568.9</ele>
        <time>1970-01-01T00:00:00Z</time>
      </trkpt>
      <trkpt lat="39.447198" lon="-5.216933">
        <ele>568.9</ele>
        <time>1970-01-01T00:00:00Z</time>
      </trkpt>
      <trkpt lat="39.447198" lon="-5.216933">
        <ele>568.9</ele>
        <time>1970-01-01T00:00:00Z</time>
      </trkpt>
      <trkpt lat="39.447229" lon="-5.216929">
        <ele>569.2</ele>
        <time>1970-01-01T00:00:00Z</time>
      </trkpt>
      <trkpt lat="39.447229" lon="-5.216929">
        <ele>569.2</ele>
        <time>1970-01-01T00:00:00Z</time>
      </trkpt>
      <trkpt lat="39.447229" lon="-5.216929">
        <ele>569.2</ele>
        <time>1970-01-01T00:00:00Z</time>
      </trkpt>
      <trkpt lat="39.447229" lon="-5.216929">
        <ele>569.2</ele>
        <time>1970-01-01T00:00:00Z</time>
      </trkpt>
      <trkpt lat="39.447287" lon="-5.216923">
        <ele>569.7</ele>
        <time>1970-01-01T00:00:00Z</time>
      </trkpt>
      <trkpt lat="39.447287" lon="-5.216923">
        <ele>569.7</ele>
        <time>1970-01-01T00:00:00Z</time>
      </trkpt>
      <trkpt lat="39.447287" lon="-5.216923">
        <ele>569.7</ele>
        <time>1970-01-01T00:00:00Z</time>
      </trkpt>
      <trkpt lat="39.447287" lon="-5.216923">
        <ele>569.7</ele>
        <time>1970-01-01T00:00:00Z</time>
      </trkpt>
      <trkpt lat="39.447295" lon="-5.216922">
        <ele>569.8</ele>
        <time>1970-01-01T00:00:00Z</time>
      </trkpt>
      <trkpt lat="39.447295" lon="-5.216922">
        <ele>569.8</ele>
        <time>1970-01-01T00:00:00Z</time>
      </trkpt>
      <trkpt lat="39.447295" lon="-5.216922">
        <ele>569.8</ele>
        <time>1970-01-01T00:00:00Z</time>
      </trkpt>
      <trkpt lat="39.447295" lon="-5.216922">
        <ele>569.8</ele>
        <time>1970-01-01T00:00:00Z</time>
      </trkpt>
      <trkpt lat="39.447300" lon="-5.216904">
        <ele>569.9</ele>
        <time>1970-01-01T00:00:00Z</time>
      </trkpt>
      <trkpt lat="39.447300" lon="-5.216904">
        <ele>569.9</ele>
        <time>1970-01-01T00:00:00Z</time>
      </trkpt>
      <trkpt lat="39.447300" lon="-5.216904">
        <ele>569.9</ele>
        <time>1970-01-01T00:00:00Z</time>
      </trkpt>
      <trkpt lat="39.447300" lon="-5.216904">
        <ele>569.9</ele>
        <time>1970-01-01T00:00:00Z</time>
      </trkpt>
      <trkpt lat="39.447327" lon="-5.216850">
        <ele>570.4</ele>
        <time>1970-01-01T00:00:00Z</time>
      </trkpt>
      <trkpt lat="39.447327" lon="-5.216850">
        <ele>570.4</ele>
        <time>1970-01-01T00:00:00Z</time>
      </trkpt>
      <trkpt lat="39.447327" lon="-5.216850">
        <ele>570.4</ele>
        <time>1970-01-01T00:00:00Z</time>
      </trkpt>
      <trkpt lat="39.447327" lon="-5.216850">
        <ele>570.4</ele>
        <time>1970-01-01T00:00:00Z</time>
      </trkpt>
      <trkpt lat="39.447350" lon="-5.216794">
        <ele>570.9</ele>
        <time>1970-01-01T00:00:00Z</time>
      </trkpt>
      <trkpt lat="39.447350" lon="-5.216794">
        <ele>570.9</ele>
        <time>1970-01-01T00:00:00Z</time>
      </trkpt>
      <trkpt lat="39.447350" lon="-5.216794">
        <ele>570.9</ele>
        <time>1970-01-01T00:00:00Z</time>
      </trkpt>
      <trkpt lat="39.447350" lon="-5.216794">
        <ele>570.9</ele>
        <time>1970-01-01T00:00:00Z</time>
      </trkpt>
      <trkpt lat="39.447353" lon="-5.216786">
        <ele>571.0</ele>
        <time>1970-01-01T00:00:00Z</time>
      </trkpt>
      <trkpt lat="39.447353" lon="-5.216786">
        <ele>571.0</ele>
        <time>1970-01-01T00:00:00Z</time>
      </trkpt>
      <trkpt lat="39.447353" lon="-5.216786">
        <ele>571.0</ele>
        <time>1970-01-01T00:00:00Z</time>
      </trkpt>
      <trkpt lat="39.447353" lon="-5.216786">
        <ele>571.0</ele>
        <time>1970-01-01T00:00:00Z</time>
      </trkpt>
      <trkpt lat="39.447357" lon="-5.216771">
        <ele>571.1</ele>
        <time>1970-01-01T00:00:00Z</time>
      </trkpt>
      <trkpt lat="39.447357" lon="-5.216771">
        <ele>571.1</ele>
        <time>1970-01-01T00:00:00Z</time>
      </trkpt>
      <trkpt lat="39.447357" lon="-5.216771">
        <ele>571.1</ele>
        <time>1970-01-01T00:00:00Z</time>
      </trkpt>
      <trkpt lat="39.447357" lon="-5.216771">
        <ele>571.1</ele>
        <time>1970-01-01T00:00:00Z</time>
      </trkpt>
      <trkpt lat="39.447363" lon="-5.216752">
        <ele>571.2</ele>
        <time>1970-01-01T00:00:00Z</time>
      </trkpt>
      <trkpt lat="39.447363" lon="-5.216752">
        <ele>571.2</ele>
        <time>1970-01-01T00:00:00Z</time>
      </trkpt>
      <trkpt lat="39.447363" lon="-5.216752">
        <ele>571.2</ele>
        <time>1970-01-01T00:00:00Z</time>
      </trkpt>
      <trkpt lat="39.447363" lon="-5.216752">
        <ele>571.2</ele>
        <time>1970-01-01T00:00:00Z</time>
      </trkpt>
      <trkpt lat="39.447368" lon="-5.216733">
        <ele>571.2</ele>
        <time>1970-01-01T00:00:00Z</time>
      </trkpt>
      <trkpt lat="39.447368" lon="-5.216733">
        <ele>571.2</ele>
        <time>1970-01-01T00:00:00Z</time>
      </trkpt>
      <trkpt lat="39.447368" lon="-5.216733">
        <ele>571.2</ele>
        <time>1970-01-01T00:00:00Z</time>
      </trkpt>
      <trkpt lat="39.447368" lon="-5.216733">
        <ele>571.2</ele>
        <time>1970-01-01T00:00:00Z</time>
      </trkpt>
      <trkpt lat="39.447373" lon="-5.216718">
        <ele>571.3</ele>
        <time>1970-01-01T00:00:00Z</time>
      </trkpt>
      <trkpt lat="39.447373" lon="-5.216718">
        <ele>571.3</ele>
        <time>1970-01-01T00:00:00Z</time>
      </trkpt>
      <trkpt lat="39.447373" lon="-5.216718">
        <ele>571.3</ele>
        <time>1970-01-01T00:00:00Z</time>
      </trkpt>
      <trkpt lat="39.447373" lon="-5.216718">
        <ele>571.3</ele>
        <time>1970-01-01T00:00:00Z</time>
      </trkpt>
      <trkpt lat="39.447373" lon="-5.216716">
        <ele>571.3</ele>
        <time>1970-01-01T00:00:00Z</time>
      </trkpt>
      <trkpt lat="39.447373" lon="-5.216716">
        <ele>571.3</ele>
        <time>1970-01-01T00:00:00Z</time>
      </trkpt>
      <trkpt lat="39.447373" lon="-5.216716">
        <ele>571.3</ele>
        <time>1970-01-01T00:00:00Z</time>
      </trkpt>
      <trkpt lat="39.447373" lon="-5.216716">
        <ele>571.3</ele>
        <time>1970-01-01T00:00:00Z</time>
      </trkpt>
      <trkpt lat="39.447381" lon="-5.216708">
        <ele>571.4</ele>
        <time>1970-01-01T00:00:00Z</time>
      </trkpt>
      <trkpt lat="39.447381" lon="-5.216708">
        <ele>571.4</ele>
        <time>1970-01-01T00:00:00Z</time>
      </trkpt>
      <trkpt lat="39.447381" lon="-5.216708">
        <ele>571.4</ele>
        <time>1970-01-01T00:00:00Z</time>
      </trkpt>
      <trkpt lat="39.447381" lon="-5.216708">
        <ele>571.4</ele>
        <time>1970-01-01T00:00:00Z</time>
      </trkpt>
      <trkpt lat="39.447390" lon="-5.216698">
        <ele>571.4</ele>
        <time>1970-01-01T00:00:00Z</time>
      </trkpt>
      <trkpt lat="39.447390" lon="-5.216698">
        <ele>571.4</ele>
        <time>1970-01-01T00:00:00Z</time>
      </trkpt>
      <trkpt lat="39.447390" lon="-5.216698">
        <ele>571.4</ele>
        <time>1970-01-01T00:00:00Z</time>
      </trkpt>
      <trkpt lat="39.447390" lon="-5.216698">
        <ele>571.4</ele>
        <time>1970-01-01T00:00:00Z</time>
      </trkpt>
      <trkpt lat="39.447404" lon="-5.216681">
        <ele>571.6</ele>
        <time>1970-01-01T00:00:00Z</time>
      </trkpt>
      <trkpt lat="39.447404" lon="-5.216681">
        <ele>571.6</ele>
        <time>1970-01-01T00:00:00Z</time>
      </trkpt>
      <trkpt lat="39.447404" lon="-5.216681">
        <ele>571.6</ele>
        <time>1970-01-01T00:00:00Z</time>
      </trkpt>
      <trkpt lat="39.447404" lon="-5.216681">
        <ele>571.6</ele>
        <time>1970-01-01T00:00:00Z</time>
      </trkpt>
      <trkpt lat="39.447413" lon="-5.216671">
        <ele>571.6</ele>
        <time>1970-01-01T00:00:00Z</time>
      </trkpt>
      <trkpt lat="39.447413" lon="-5.216671">
        <ele>571.6</ele>
        <time>1970-01-01T00:00:00Z</time>
      </trkpt>
      <trkpt lat="39.447413" lon="-5.216671">
        <ele>571.6</ele>
        <time>1970-01-01T00:00:00Z</time>
      </trkpt>
      <trkpt lat="39.447413" lon="-5.216671">
        <ele>571.6</ele>
        <time>1970-01-01T00:00:00Z</time>
      </trkpt>
      <trkpt lat="39.447426" lon="-5.216675">
        <ele>571.7</ele>
        <time>1970-01-01T00:00:00Z</time>
      </trkpt>
      <trkpt lat="39.447426" lon="-5.216675">
        <ele>571.7</ele>
        <time>1970-01-01T00:00:00Z</time>
      </trkpt>
      <trkpt lat="39.447426" lon="-5.216675">
        <ele>571.7</ele>
        <time>1970-01-01T00:00:00Z</time>
      </trkpt>
      <trkpt lat="39.447426" lon="-5.216675">
        <ele>571.7</ele>
        <time>1970-01-01T00:00:00Z</time>
      </trkpt>
      <trkpt lat="39.447438" lon="-5.216678">
        <ele>571.8</ele>
        <time>1970-01-01T00:00:00Z</time>
      </trkpt>
      <trkpt lat="39.447438" lon="-5.216678">
        <ele>571.8</ele>
        <time>1970-01-01T00:00:00Z</time>
      </trkpt>
      <trkpt lat="39.447438" lon="-5.216678">
        <ele>571.8</ele>
        <time>1970-01-01T00:00:00Z</time>
      </trkpt>
      <trkpt lat="39.447438" lon="-5.216678">
        <ele>571.8</ele>
        <time>1970-01-01T00:00:00Z</time>
      </trkpt>
      <trkpt lat="39.447446" lon="-5.216680">
        <ele>571.9</ele>
        <time>1970-01-01T00:00:00Z</time>
      </trkpt>
      <trkpt lat="39.447446" lon="-5.216680">
        <ele>571.9</ele>
        <time>1970-01-01T00:00:00Z</time>
      </trkpt>
      <trkpt lat="39.447446" lon="-5.216680">
        <ele>571.9</ele>
        <time>1970-01-01T00:00:00Z</time>
      </trkpt>
      <trkpt lat="39.447446" lon="-5.216680">
        <ele>571.9</ele>
        <time>1970-01-01T00:00:00Z</time>
      </trkpt>
      <trkpt lat="39.447451" lon="-5.216682">
        <ele>572.0</ele>
        <time>1970-01-01T00:00:00Z</time>
      </trkpt>
      <trkpt lat="39.447451" lon="-5.216682">
        <ele>572.0</ele>
        <time>1970-01-01T00:00:00Z</time>
      </trkpt>
      <trkpt lat="39.447451" lon="-5.216682">
        <ele>572.0</ele>
        <time>1970-01-01T00:00:00Z</time>
      </trkpt>
      <trkpt lat="39.447451" lon="-5.216682">
        <ele>572.0</ele>
        <time>1970-01-01T00:00:00Z</time>
      </trkpt>
      <trkpt lat="39.447454" lon="-5.216682">
        <ele>572.0</ele>
        <time>1970-01-01T00:00:00Z</time>
      </trkpt>
      <trkpt lat="39.447454" lon="-5.216682">
        <ele>572.0</ele>
        <time>1970-01-01T00:00:00Z</time>
      </trkpt>
      <trkpt lat="39.447454" lon="-5.216682">
        <ele>572.0</ele>
        <time>1970-01-01T00:00:00Z</time>
      </trkpt>
      <trkpt lat="39.447454" lon="-5.216682">
        <ele>572.0</ele>
        <time>1970-01-01T00:00:00Z</time>
      </trkpt>
      <trkpt lat="39.447457" lon="-5.216683">
        <ele>572.0</ele>
        <time>1970-01-01T00:00:00Z</time>
      </trkpt>
      <trkpt lat="39.447457" lon="-5.216683">
        <ele>572.0</ele>
        <time>1970-01-01T00:00:00Z</time>
      </trkpt>
      <trkpt lat="39.447457" lon="-5.216683">
        <ele>572.0</ele>
        <time>1970-01-01T00:00:00Z</time>
      </trkpt>
      <trkpt lat="39.447457" lon="-5.216683">
        <ele>572.0</ele>
        <time>1970-01-01T00:00:00Z</time>
      </trkpt>
      <trkpt lat="39.447459" lon="-5.216684">
        <ele>572.0</ele>
        <time>1970-01-01T00:00:00Z</time>
      </trkpt>
      <trkpt lat="39.447459" lon="-5.216684">
        <ele>572.0</ele>
        <time>1970-01-01T00:00:00Z</time>
      </trkpt>
      <trkpt lat="39.447459" lon="-5.216684">
        <ele>572.0</ele>
        <time>1970-01-01T00:00:00Z</time>
      </trkpt>
      <trkpt lat="39.447459" lon="-5.216684">
        <ele>572.0</ele>
        <time>1970-01-01T00:00:00Z</time>
      </trkpt>
      <trkpt lat="39.447462" lon="-5.216685">
        <ele>572.0</ele>
        <time>1970-01-01T00:00:00Z</time>
      </trkpt>
      <trkpt lat="39.447462" lon="-5.216685">
        <ele>572.0</ele>
        <time>1970-01-01T00:00:00Z</time>
      </trkpt>
      <trkpt lat="39.447462" lon="-5.216685">
        <ele>572.0</ele>
        <time>1970-01-01T00:00:00Z</time>
      </trkpt>
      <trkpt lat="39.447462" lon="-5.216685">
        <ele>572.0</ele>
        <time>1970-01-01T00:00:00Z</time>
      </trkpt>
      <trkpt lat="39.447464" lon="-5.216685">
        <ele>572.1</ele>
        <time>1970-01-01T00:00:00Z</time>
      </trkpt>
      <trkpt lat="39.447464" lon="-5.216685">
        <ele>572.1</ele>
        <time>1970-01-01T00:00:00Z</time>
      </trkpt>
      <trkpt lat="39.447464" lon="-5.216685">
        <ele>572.1</ele>
        <time>1970-01-01T00:00:00Z</time>
      </trkpt>
      <trkpt lat="39.447464" lon="-5.216685">
        <ele>572.1</ele>
        <time>1970-01-01T00:00:00Z</time>
      </trkpt>
      <trkpt lat="39.447466" lon="-5.216686">
        <ele>572.1</ele>
        <time>1970-01-01T00:00:00Z</time>
      </trkpt>
      <trkpt lat="39.447466" lon="-5.216686">
        <ele>572.1</ele>
        <time>1970-01-01T00:00:00Z</time>
      </trkpt>
      <trkpt lat="39.447466" lon="-5.216686">
        <ele>572.1</ele>
        <time>1970-01-01T00:00:00Z</time>
      </trkpt>
      <trkpt lat="39.447466" lon="-5.216686">
        <ele>572.1</ele>
        <time>1970-01-01T00:00:00Z</time>
      </trkpt>
      <trkpt lat="39.447467" lon="-5.216686">
        <ele>572.1</ele>
        <time>1970-01-01T00:00:00Z</time>
      </trkpt>
      <trkpt lat="39.447467" lon="-5.216686">
        <ele>572.1</ele>
        <time>1970-01-01T00:00:00Z</time>
      </trkpt>
      <trkpt lat="39.447467" lon="-5.216686">
        <ele>572.1</ele>
        <time>1970-01-01T00:00:00Z</time>
      </trkpt>
      <trkpt lat="39.447467" lon="-5.216686">
        <ele>572.1</ele>
        <time>1970-01-01T00:00:00Z</time>
      </trkpt>
      <trkpt lat="39.447469" lon="-5.216686">
        <ele>572.1</ele>
        <time>1970-01-01T00:00:00Z</time>
      </trkpt>
      <trkpt lat="39.447469" lon="-5.216686">
        <ele>572.1</ele>
        <time>1970-01-01T00:00:00Z</time>
      </trkpt>
      <trkpt lat="39.447469" lon="-5.216686">
        <ele>572.1</ele>
        <time>1970-01-01T00:00:00Z</time>
      </trkpt>
      <trkpt lat="39.447469" lon="-5.216686">
        <ele>572.1</ele>
        <time>1970-01-01T00:00:00Z</time>
      </trkpt>
      <trkpt lat="39.447469" lon="-5.216687">
        <ele>572.1</ele>
        <time>1970-01-01T00:00:00Z</time>
      </trkpt>
      <trkpt lat="39.447469" lon="-5.216687">
        <ele>572.1</ele>
        <time>1970-01-01T00:00:00Z</time>
      </trkpt>
      <trkpt lat="39.447469" lon="-5.216687">
        <ele>572.1</ele>
        <time>1970-01-01T00:00:00Z</time>
      </trkpt>
      <trkpt lat="39.447469" lon="-5.216687">
        <ele>572.1</ele>
        <time>1970-01-01T00:00:00Z</time>
      </trkpt>
      <trkpt lat="39.447471" lon="-5.216687">
        <ele>572.1</ele>
        <time>1970-01-01T00:00:00Z</time>
      </trkpt>
      <trkpt lat="39.447471" lon="-5.216687">
        <ele>572.1</ele>
        <time>1970-01-01T00:00:00Z</time>
      </trkpt>
      <trkpt lat="39.447471" lon="-5.216687">
        <ele>572.1</ele>
        <time>1970-01-01T00:00:00Z</time>
      </trkpt>
      <trkpt lat="39.447471" lon="-5.216687">
        <ele>572.1</ele>
        <time>1970-01-01T00:00:00Z</time>
      </trkpt>
      <trkpt lat="39.447472" lon="-5.216687">
        <ele>572.1</ele>
        <time>1970-01-01T00:00:00Z</time>
      </trkpt>
      <trkpt lat="39.447472" lon="-5.216687">
        <ele>572.1</ele>
        <time>1970-01-01T00:00:00Z</time>
      </trkpt>
      <trkpt lat="39.447472" lon="-5.216687">
        <ele>572.1</ele>
        <time>1970-01-01T00:00:00Z</time>
      </trkpt>
      <trkpt lat="39.447472" lon="-5.216687">
        <ele>572.1</ele>
        <time>1970-01-01T00:00:00Z</time>
      </trkpt>
      <trkpt lat="39.447494" lon="-5.216694">
        <ele>572.3</ele>
        <time>1970-01-01T00:00:00Z</time>
      </trkpt>
      <trkpt lat="39.447494" lon="-5.216694">
        <ele>572.3</ele>
        <time>1970-01-01T00:00:00Z</time>
      </trkpt>
      <trkpt lat="39.447494" lon="-5.216694">
        <ele>572.3</ele>
        <time>1970-01-01T00:00:00Z</time>
      </trkpt>
      <trkpt lat="39.447494" lon="-5.216694">
        <ele>572.3</ele>
        <time>1970-01-01T00:00:00Z</time>
      </trkpt>
      <trkpt lat="39.447496" lon="-5.216694">
        <ele>572.3</ele>
        <time>1970-01-01T00:00:00Z</time>
      </trkpt>
      <trkpt lat="39.447496" lon="-5.216694">
        <ele>572.3</ele>
        <time>1970-01-01T00:00:00Z</time>
      </trkpt>
      <trkpt lat="39.447496" lon="-5.216694">
        <ele>572.3</ele>
        <time>1970-01-01T00:00:00Z</time>
      </trkpt>
      <trkpt lat="39.447496" lon="-5.216694">
        <ele>572.3</ele>
        <time>1970-01-01T00:00:00Z</time>
      </trkpt>
      <trkpt lat="39.447497" lon="-5.216694">
        <ele>572.4</ele>
        <time>1970-01-01T00:00:00Z</time>
      </trkpt>
      <trkpt lat="39.447497" lon="-5.216694">
        <ele>572.4</ele>
        <time>1970-01-01T00:00:00Z</time>
      </trkpt>
      <trkpt lat="39.447497" lon="-5.216694">
        <ele>572.4</ele>
        <time>1970-01-01T00:00:00Z</time>
      </trkpt>
      <trkpt lat="39.447497" lon="-5.216694">
        <ele>572.4</ele>
        <time>1970-01-01T00:00:00Z</time>
      </trkpt>
      <trkpt lat="39.447500" lon="-5.216695">
        <ele>572.4</ele>
        <time>1970-01-01T00:00:00Z</time>
      </trkpt>
      <trkpt lat="39.447500" lon="-5.216695">
        <ele>572.4</ele>
        <time>1970-01-01T00:00:00Z</time>
      </trkpt>
      <trkpt lat="39.447500" lon="-5.216695">
        <ele>572.4</ele>
        <time>1970-01-01T00:00:00Z</time>
      </trkpt>
      <trkpt lat="39.447500" lon="-5.216695">
        <ele>572.4</ele>
        <time>1970-01-01T00:00:00Z</time>
      </trkpt>
      <trkpt lat="39.447519" lon="-5.216700">
        <ele>572.5</ele>
        <time>1970-01-01T00:00:00Z</time>
      </trkpt>
      <trkpt lat="39.447519" lon="-5.216700">
        <ele>572.5</ele>
        <time>1970-01-01T00:00:00Z</time>
      </trkpt>
      <trkpt lat="39.447519" lon="-5.216700">
        <ele>572.5</ele>
        <time>1970-01-01T00:00:00Z</time>
      </trkpt>
      <trkpt lat="39.447519" lon="-5.216700">
        <ele>572.5</ele>
        <time>1970-01-01T00:00:00Z</time>
      </trkpt>
      <trkpt lat="39.447531" lon="-5.216695">
        <ele>572.7</ele>
        <time>1970-01-01T00:00:00Z</time>
      </trkpt>
      <trkpt lat="39.447531" lon="-5.216695">
        <ele>572.7</ele>
        <time>1970-01-01T00:00:00Z</time>
      </trkpt>
      <trkpt lat="39.447531" lon="-5.216695">
        <ele>572.7</ele>
        <time>1970-01-01T00:00:00Z</time>
      </trkpt>
      <trkpt lat="39.447531" lon="-5.216695">
        <ele>572.7</ele>
        <time>1970-01-01T00:00:00Z</time>
      </trkpt>
      <trkpt lat="39.447599" lon="-5.216714">
        <ele>573.2</ele>
        <time>1970-01-01T00:00:00Z</time>
      </trkpt>
      <trkpt lat="39.447599" lon="-5.216714">
        <ele>573.2</ele>
        <time>1970-01-01T00:00:00Z</time>
      </trkpt>
      <trkpt lat="39.447599" lon="-5.216714">
        <ele>573.2</ele>
        <time>1970-01-01T00:00:00Z</time>
      </trkpt>
      <trkpt lat="39.447599" lon="-5.216714">
        <ele>573.2</ele>
        <time>1970-01-01T00:00:00Z</time>
      </trkpt>
      <trkpt lat="39.447614" lon="-5.216718">
        <ele>573.4</ele>
        <time>1970-01-01T00:00:00Z</time>
      </trkpt>
      <trkpt lat="39.447614" lon="-5.216718">
        <ele>573.4</ele>
        <time>1970-01-01T00:00:00Z</time>
      </trkpt>
      <trkpt lat="39.447614" lon="-5.216718">
        <ele>573.4</ele>
        <time>1970-01-01T00:00:00Z</time>
      </trkpt>
      <trkpt lat="39.447614" lon="-5.216718">
        <ele>573.4</ele>
        <time>1970-01-01T00:00:00Z</time>
      </trkpt>
      <trkpt lat="39.447627" lon="-5.216698">
        <ele>573.5</ele>
        <time>1970-01-01T00:00:00Z</time>
      </trkpt>
      <trkpt lat="39.447627" lon="-5.216698">
        <ele>573.5</ele>
        <time>1970-01-01T00:00:00Z</time>
      </trkpt>
      <trkpt lat="39.447627" lon="-5.216698">
        <ele>573.5</ele>
        <time>1970-01-01T00:00:00Z</time>
      </trkpt>
      <trkpt lat="39.447627" lon="-5.216698">
        <ele>573.5</ele>
        <time>1970-01-01T00:00:00Z</time>
      </trkpt>
      <trkpt lat="39.447643" lon="-5.216672">
        <ele>573.6</ele>
        <time>1970-01-01T00:00:00Z</time>
      </trkpt>
      <trkpt lat="39.447643" lon="-5.216672">
        <ele>573.6</ele>
        <time>1970-01-01T00:00:00Z</time>
      </trkpt>
      <trkpt lat="39.447643" lon="-5.216672">
        <ele>573.6</ele>
        <time>1970-01-01T00:00:00Z</time>
      </trkpt>
      <trkpt lat="39.447643" lon="-5.216672">
        <ele>573.6</ele>
        <time>1970-01-01T00:00:00Z</time>
      </trkpt>
      <trkpt lat="39.447687" lon="-5.216603">
        <ele>574.0</ele>
        <time>1970-01-01T00:00:00Z</time>
      </trkpt>
      <trkpt lat="39.447687" lon="-5.216603">
        <ele>574.0</ele>
        <time>1970-01-01T00:00:00Z</time>
      </trkpt>
      <trkpt lat="39.447687" lon="-5.216603">
        <ele>574.0</ele>
        <time>1970-01-01T00:00:00Z</time>
      </trkpt>
      <trkpt lat="39.447687" lon="-5.216603">
        <ele>574.0</ele>
        <time>1970-01-01T00:00:00Z</time>
      </trkpt>
      <trkpt lat="39.447702" lon="-5.216578">
        <ele>574.1</ele>
        <time>1970-01-01T00:00:00Z</time>
      </trkpt>
      <trkpt lat="39.447702" lon="-5.216578">
        <ele>574.1</ele>
        <time>1970-01-01T00:00:00Z</time>
      </trkpt>
      <trkpt lat="39.447702" lon="-5.216578">
        <ele>574.1</ele>
        <time>1970-01-01T00:00:00Z</time>
      </trkpt>
      <trkpt lat="39.447702" lon="-5.216578">
        <ele>574.1</ele>
        <time>1970-01-01T00:00:00Z</time>
      </trkpt>
      <trkpt lat="39.447708" lon="-5.216569">
        <ele>574.2</ele>
        <time>1970-01-01T00:00:00Z</time>
      </trkpt>
      <trkpt lat="39.447708" lon="-5.216569">
        <ele>574.2</ele>
        <time>1970-01-01T00:00:00Z</time>
      </trkpt>
      <trkpt lat="39.447708" lon="-5.216569">
        <ele>574.2</ele>
        <time>1970-01-01T00:00:00Z</time>
      </trkpt>
      <trkpt lat="39.447708" lon="-5.216569">
        <ele>574.2</ele>
        <time>1970-01-01T00:00:00Z</time>
      </trkpt>
      <trkpt lat="39.447713" lon="-5.216562">
        <ele>574.2</ele>
        <time>1970-01-01T00:00:00Z</time>
      </trkpt>
      <trkpt lat="39.447713" lon="-5.216562">
        <ele>574.2</ele>
        <time>1970-01-01T00:00:00Z</time>
      </trkpt>
      <trkpt lat="39.447713" lon="-5.216562">
        <ele>574.2</ele>
        <time>1970-01-01T00:00:00Z</time>
      </trkpt>
      <trkpt lat="39.447713" lon="-5.216562">
        <ele>574.2</ele>
        <time>1970-01-01T00:00:00Z</time>
      </trkpt>
      <trkpt lat="39.447726" lon="-5.216545">
        <ele>574.3</ele>
        <time>1970-01-01T00:00:00Z</time>
      </trkpt>
      <trkpt lat="39.447726" lon="-5.216545">
        <ele>574.3</ele>
        <time>1970-01-01T00:00:00Z</time>
      </trkpt>
      <trkpt lat="39.447726" lon="-5.216545">
        <ele>574.3</ele>
        <time>1970-01-01T00:00:00Z</time>
      </trkpt>
      <trkpt lat="39.447726" lon="-5.216545">
        <ele>574.3</ele>
        <time>1970-01-01T00:00:00Z</time>
      </trkpt>
      <trkpt lat="39.447753" lon="-5.216511">
        <ele>574.6</ele>
        <time>1970-01-01T00:00:00Z</time>
      </trkpt>
      <trkpt lat="39.447753" lon="-5.216511">
        <ele>574.6</ele>
        <time>1970-01-01T00:00:00Z</time>
      </trkpt>
      <trkpt lat="39.447753" lon="-5.216511">
        <ele>574.6</ele>
        <time>1970-01-01T00:00:00Z</time>
      </trkpt>
      <trkpt lat="39.447753" lon="-5.216511">
        <ele>574.6</ele>
        <time>1970-01-01T00:00:00Z</time>
      </trkpt>
      <trkpt lat="39.447776" lon="-5.216483">
        <ele>574.8</ele>
        <time>1970-01-01T00:00:00Z</time>
      </trkpt>
      <trkpt lat="39.447776" lon="-5.216483">
        <ele>574.8</ele>
        <time>1970-01-01T00:00:00Z</time>
      </trkpt>
      <trkpt lat="39.447776" lon="-5.216483">
        <ele>574.8</ele>
        <time>1970-01-01T00:00:00Z</time>
      </trkpt>
      <trkpt lat="39.447776" lon="-5.216483">
        <ele>574.8</ele>
        <time>1970-01-01T00:00:00Z</time>
      </trkpt>
      <trkpt lat="39.447776" lon="-5.216482">
        <ele>574.8</ele>
        <time>1970-01-01T00:00:00Z</time>
      </trkpt>
      <trkpt lat="39.447776" lon="-5.216482">
        <ele>574.8</ele>
        <time>1970-01-01T00:00:00Z</time>
      </trkpt>
      <trkpt lat="39.447776" lon="-5.216482">
        <ele>574.8</ele>
        <time>1970-01-01T00:00:00Z</time>
      </trkpt>
      <trkpt lat="39.447776" lon="-5.216482">
        <ele>574.8</ele>
        <time>1970-01-01T00:00:00Z</time>
      </trkpt>
      <trkpt lat="39.447776" lon="-5.216482">
        <ele>574.8</ele>
        <time>1970-01-01T00:00:00Z</time>
      </trkpt>
      <trkpt lat="39.447776" lon="-5.216482">
        <ele>574.8</ele>
        <time>1970-01-01T00:00:00Z</time>
      </trkpt>
      <trkpt lat="39.447776" lon="-5.216482">
        <ele>574.8</ele>
        <time>1970-01-01T00:00:00Z</time>
      </trkpt>
      <trkpt lat="39.447776" lon="-5.216482">
        <ele>574.8</ele>
        <time>1970-01-01T00:00:00Z</time>
      </trkpt>
      <trkpt lat="39.447802" lon="-5.216449">
        <ele>575.0</ele>
        <time>1970-01-01T00:00:00Z</time>
      </trkpt>
      <trkpt lat="39.447802" lon="-5.216449">
        <ele>575.0</ele>
        <time>1970-01-01T00:00:00Z</time>
      </trkpt>
      <trkpt lat="39.447802" lon="-5.216449">
        <ele>575.0</ele>
        <time>1970-01-01T00:00:00Z</time>
      </trkpt>
      <trkpt lat="39.447802" lon="-5.216449">
        <ele>575.0</ele>
        <time>1970-01-01T00:00:00Z</time>
      </trkpt>
      <trkpt lat="39.447841" lon="-5.216401">
        <ele>575.1</ele>
        <time>1970-01-01T00:00:00Z</time>
      </trkpt>
      <trkpt lat="39.447841" lon="-5.216401">
        <ele>575.1</ele>
        <time>1970-01-01T00:00:00Z</time>
      </trkpt>
      <trkpt lat="39.447841" lon="-5.216401">
        <ele>575.1</ele>
        <time>1970-01-01T00:00:00Z</time>
      </trkpt>
      <trkpt lat="39.447841" lon="-5.216401">
        <ele>575.1</ele>
        <time>1970-01-01T00:00:00Z</time>
      </trkpt>
      <trkpt lat="39.447849" lon="-5.216389">
        <ele>575.1</ele>
        <time>1970-01-01T00:00:00Z</time>
      </trkpt>
      <trkpt lat="39.447849" lon="-5.216389">
        <ele>575.1</ele>
        <time>1970-01-01T00:00:00Z</time>
      </trkpt>
      <trkpt lat="39.447849" lon="-5.216389">
        <ele>575.1</ele>
        <time>1970-01-01T00:00:00Z</time>
      </trkpt>
      <trkpt lat="39.447849" lon="-5.216389">
        <ele>575.1</ele>
        <time>1970-01-01T00:00:00Z</time>
      </trkpt>
      <trkpt lat="39.447849" lon="-5.216388">
        <ele>575.1</ele>
        <time>1970-01-01T00:00:00Z</time>
      </trkpt>
      <trkpt lat="39.447849" lon="-5.216388">
        <ele>575.1</ele>
        <time>1970-01-01T00:00:00Z</time>
      </trkpt>
      <trkpt lat="39.447849" lon="-5.216388">
        <ele>575.1</ele>
        <time>1970-01-01T00:00:00Z</time>
      </trkpt>
      <trkpt lat="39.447849" lon="-5.216388">
        <ele>575.1</ele>
        <time>1970-01-01T00:00:00Z</time>
      </trkpt>
      <trkpt lat="39.447861" lon="-5.216370">
        <ele>575.1</ele>
        <time>1970-01-01T00:00:00Z</time>
      </trkpt>
      <trkpt lat="39.447861" lon="-5.216370">
        <ele>575.1</ele>
        <time>1970-01-01T00:00:00Z</time>
      </trkpt>
      <trkpt lat="39.447861" lon="-5.216370">
        <ele>575.1</ele>
        <time>1970-01-01T00:00:00Z</time>
      </trkpt>
      <trkpt lat="39.447861" lon="-5.216370">
        <ele>575.1</ele>
        <time>1970-01-01T00:00:00Z</time>
      </trkpt>
      <trkpt lat="39.447887" lon="-5.216332">
        <ele>575.1</ele>
        <time>1970-01-01T00:00:00Z</time>
      </trkpt>
      <trkpt lat="39.447887" lon="-5.216332">
        <ele>575.1</ele>
        <time>1970-01-01T00:00:00Z</time>
      </trkpt>
      <trkpt lat="39.447887" lon="-5.216332">
        <ele>575.1</ele>
        <time>1970-01-01T00:00:00Z</time>
      </trkpt>
      <trkpt lat="39.447887" lon="-5.216332">
        <ele>575.1</ele>
        <time>1970-01-01T00:00:00Z</time>
      </trkpt>
      <trkpt lat="39.447894" lon="-5.216321">
        <ele>575.0</ele>
        <time>1970-01-01T00:00:00Z</time>
      </trkpt>
      <trkpt lat="39.447894" lon="-5.216321">
        <ele>575.0</ele>
        <time>1970-01-01T00:00:00Z</time>
      </trkpt>
      <trkpt lat="39.447894" lon="-5.216321">
        <ele>575.0</ele>
        <time>1970-01-01T00:00:00Z</time>
      </trkpt>
      <trkpt lat="39.447894" lon="-5.216321">
        <ele>575.0</ele>
        <time>1970-01-01T00:00:00Z</time>
      </trkpt>
      <trkpt lat="39.447908" lon="-5.216299">
        <ele>575.0</ele>
        <time>1970-01-01T00:00:00Z</time>
      </trkpt>
      <trkpt lat="39.447908" lon="-5.216299">
        <ele>575.0</ele>
        <time>1970-01-01T00:00:00Z</time>
      </trkpt>
      <trkpt lat="39.447908" lon="-5.216299">
        <ele>575.0</ele>
        <time>1970-01-01T00:00:00Z</time>
      </trkpt>
      <trkpt lat="39.447908" lon="-5.216299">
        <ele>575.0</ele>
        <time>1970-01-01T00:00:00Z</time>
      </trkpt>
      <trkpt lat="39.447941" lon="-5.216250">
        <ele>574.9</ele>
        <time>1970-01-01T00:00:00Z</time>
      </trkpt>
      <trkpt lat="39.447941" lon="-5.216250">
        <ele>574.9</ele>
        <time>1970-01-01T00:00:00Z</time>
      </trkpt>
      <trkpt lat="39.447941" lon="-5.216250">
        <ele>574.9</ele>
        <time>1970-01-01T00:00:00Z</time>
      </trkpt>
      <trkpt lat="39.447941" lon="-5.216250">
        <ele>574.9</ele>
        <time>1970-01-01T00:00:00Z</time>
      </trkpt>
      <trkpt lat="39.447945" lon="-5.216245">
        <ele>574.8</ele>
        <time>1970-01-01T00:00:00Z</time>
      </trkpt>
      <trkpt lat="39.447945" lon="-5.216245">
        <ele>574.8</ele>
        <time>1970-01-01T00:00:00Z</time>
      </trkpt>
      <trkpt lat="39.447945" lon="-5.216245">
        <ele>574.8</ele>
        <time>1970-01-01T00:00:00Z</time>
      </trkpt>
      <trkpt lat="39.447945" lon="-5.216245">
        <ele>574.8</ele>
        <time>1970-01-01T00:00:00Z</time>
      </trkpt>
      <trkpt lat="39.447946" lon="-5.216243">
        <ele>574.8</ele>
        <time>1970-01-01T00:00:00Z</time>
      </trkpt>
      <trkpt lat="39.447946" lon="-5.216243">
        <ele>574.8</ele>
        <time>1970-01-01T00:00:00Z</time>
      </trkpt>
      <trkpt lat="39.447946" lon="-5.216243">
        <ele>574.8</ele>
        <time>1970-01-01T00:00:00Z</time>
      </trkpt>
      <trkpt lat="39.447946" lon="-5.216243">
        <ele>574.8</ele>
        <time>1970-01-01T00:00:00Z</time>
      </trkpt>
      <trkpt lat="39.447967" lon="-5.216211">
        <ele>574.8</ele>
        <time>1970-01-01T00:00:00Z</time>
      </trkpt>
      <trkpt lat="39.447967" lon="-5.216211">
        <ele>574.8</ele>
        <time>1970-01-01T00:00:00Z</time>
      </trkpt>
      <trkpt lat="39.447967" lon="-5.216211">
        <ele>574.8</ele>
        <time>1970-01-01T00:00:00Z</time>
      </trkpt>
      <trkpt lat="39.447967" lon="-5.216211">
        <ele>574.8</ele>
        <time>1970-01-01T00:00:00Z</time>
      </trkpt>
      <trkpt lat="39.447970" lon="-5.216207">
        <ele>574.8</ele>
        <time>1970-01-01T00:00:00Z</time>
      </trkpt>
      <trkpt lat="39.447970" lon="-5.216207">
        <ele>574.8</ele>
        <time>1970-01-01T00:00:00Z</time>
      </trkpt>
      <trkpt lat="39.447970" lon="-5.216207">
        <ele>574.8</ele>
        <time>1970-01-01T00:00:00Z</time>
      </trkpt>
      <trkpt lat="39.447970" lon="-5.216207">
        <ele>574.8</ele>
        <time>1970-01-01T00:00:00Z</time>
      </trkpt>
      <trkpt lat="39.448010" lon="-5.216176">
        <ele>574.9</ele>
        <time>1970-01-01T00:00:00Z</time>
      </trkpt>
      <trkpt lat="39.448010" lon="-5.216176">
        <ele>574.9</ele>
        <time>1970-01-01T00:00:00Z</time>
      </trkpt>
      <trkpt lat="39.448010" lon="-5.216176">
        <ele>574.9</ele>
        <time>1970-01-01T00:00:00Z</time>
      </trkpt>
      <trkpt lat="39.448010" lon="-5.216176">
        <ele>574.9</ele>
        <time>1970-01-01T00:00:00Z</time>
      </trkpt>
      <trkpt lat="39.448028" lon="-5.216150">
        <ele>575.0</ele>
        <time>1970-01-01T00:00:00Z</time>
      </trkpt>
      <trkpt lat="39.448028" lon="-5.216150">
        <ele>575.0</ele>
        <time>1970-01-01T00:00:00Z</time>
      </trkpt>
      <trkpt lat="39.448028" lon="-5.216150">
        <ele>575.0</ele>
        <time>1970-01-01T00:00:00Z</time>
      </trkpt>
      <trkpt lat="39.448028" lon="-5.216150">
        <ele>575.0</ele>
        <time>1970-01-01T00:00:00Z</time>
      </trkpt>
      <trkpt lat="39.448035" lon="-5.216123">
        <ele>575.0</ele>
        <time>1970-01-01T00:00:00Z</time>
      </trkpt>
      <trkpt lat="39.448035" lon="-5.216123">
        <ele>575.0</ele>
        <time>1970-01-01T00:00:00Z</time>
      </trkpt>
      <trkpt lat="39.448035" lon="-5.216123">
        <ele>575.0</ele>
        <time>1970-01-01T00:00:00Z</time>
      </trkpt>
      <trkpt lat="39.448035" lon="-5.216123">
        <ele>575.0</ele>
        <time>1970-01-01T00:00:00Z</time>
      </trkpt>
      <trkpt lat="39.448043" lon="-5.216096">
        <ele>575.0</ele>
        <time>1970-01-01T00:00:00Z</time>
      </trkpt>
      <trkpt lat="39.448043" lon="-5.216096">
        <ele>575.0</ele>
        <time>1970-01-01T00:00:00Z</time>
      </trkpt>
      <trkpt lat="39.448043" lon="-5.216096">
        <ele>575.0</ele>
        <time>1970-01-01T00:00:00Z</time>
      </trkpt>
      <trkpt lat="39.448043" lon="-5.216096">
        <ele>575.0</ele>
        <time>1970-01-01T00:00:00Z</time>
      </trkpt>
      <trkpt lat="39.448050" lon="-5.216072">
        <ele>575.0</ele>
        <time>1970-01-01T00:00:00Z</time>
      </trkpt>
      <trkpt lat="39.448050" lon="-5.216072">
        <ele>575.0</ele>
        <time>1970-01-01T00:00:00Z</time>
      </trkpt>
      <trkpt lat="39.448050" lon="-5.216072">
        <ele>575.0</ele>
        <time>1970-01-01T00:00:00Z</time>
      </trkpt>
      <trkpt lat="39.448050" lon="-5.216072">
        <ele>575.0</ele>
        <time>1970-01-01T00:00:00Z</time>
      </trkpt>
      <trkpt lat="39.448056" lon="-5.216051">
        <ele>574.9</ele>
        <time>1970-01-01T00:00:00Z</time>
      </trkpt>
      <trkpt lat="39.448056" lon="-5.216051">
        <ele>574.9</ele>
        <time>1970-01-01T00:00:00Z</time>
      </trkpt>
      <trkpt lat="39.448056" lon="-5.216051">
        <ele>574.9</ele>
        <time>1970-01-01T00:00:00Z</time>
      </trkpt>
      <trkpt lat="39.448056" lon="-5.216051">
        <ele>574.9</ele>
        <time>1970-01-01T00:00:00Z</time>
      </trkpt>
      <trkpt lat="39.448077" lon="-5.215990">
        <ele>574.3</ele>
        <time>1970-01-01T00:00:00Z</time>
      </trkpt>
      <trkpt lat="39.448077" lon="-5.215990">
        <ele>574.3</ele>
        <time>1970-01-01T00:00:00Z</time>
      </trkpt>
      <trkpt lat="39.448077" lon="-5.215990">
        <ele>574.3</ele>
        <time>1970-01-01T00:00:00Z</time>
      </trkpt>
      <trkpt lat="39.448077" lon="-5.215990">
        <ele>574.3</ele>
        <time>1970-01-01T00:00:00Z</time>
      </trkpt>
      <trkpt lat="39.448130" lon="-5.215843">
        <ele>572.7</ele>
        <time>1970-01-01T00:00:00Z</time>
      </trkpt>
      <trkpt lat="39.448130" lon="-5.215843">
        <ele>572.7</ele>
        <time>1970-01-01T00:00:00Z</time>
      </trkpt>
      <trkpt lat="39.448130" lon="-5.215843">
        <ele>572.7</ele>
        <time>1970-01-01T00:00:00Z</time>
      </trkpt>
      <trkpt lat="39.448130" lon="-5.215843">
        <ele>572.7</ele>
        <time>1970-01-01T00:00:00Z</time>
      </trkpt>
      <trkpt lat="39.448161" lon="-5.215756">
        <ele>571.7</ele>
        <time>1970-01-01T00:00:00Z</time>
      </trkpt>
      <trkpt lat="39.448161" lon="-5.215756">
        <ele>571.7</ele>
        <time>1970-01-01T00:00:00Z</time>
      </trkpt>
      <trkpt lat="39.448161" lon="-5.215756">
        <ele>571.7</ele>
        <time>1970-01-01T00:00:00Z</time>
      </trkpt>
      <trkpt lat="39.448161" lon="-5.215756">
        <ele>571.7</ele>
        <time>1970-01-01T00:00:00Z</time>
      </trkpt>
      <trkpt lat="39.448171" lon="-5.215718">
        <ele>571.3</ele>
        <time>1970-01-01T00:00:00Z</time>
      </trkpt>
      <trkpt lat="39.448171" lon="-5.215718">
        <ele>571.3</ele>
        <time>1970-01-01T00:00:00Z</time>
      </trkpt>
      <trkpt lat="39.448171" lon="-5.215718">
        <ele>571.3</ele>
        <time>1970-01-01T00:00:00Z</time>
      </trkpt>
      <trkpt lat="39.448171" lon="-5.215718">
        <ele>571.3</ele>
        <time>1970-01-01T00:00:00Z</time>
      </trkpt>
      <trkpt lat="39.448174" lon="-5.215708">
        <ele>571.1</ele>
        <time>1970-01-01T00:00:00Z</time>
      </trkpt>
      <trkpt lat="39.448174" lon="-5.215708">
        <ele>571.1</ele>
        <time>1970-01-01T00:00:00Z</time>
      </trkpt>
      <trkpt lat="39.448174" lon="-5.215708">
        <ele>571.1</ele>
        <time>1970-01-01T00:00:00Z</time>
      </trkpt>
      <trkpt lat="39.448174" lon="-5.215708">
        <ele>571.1</ele>
        <time>1970-01-01T00:00:00Z</time>
      </trkpt>
      <trkpt lat="39.448178" lon="-5.215690">
        <ele>571.0</ele>
        <time>1970-01-01T00:00:00Z</time>
      </trkpt>
      <trkpt lat="39.448178" lon="-5.215690">
        <ele>571.0</ele>
        <time>1970-01-01T00:00:00Z</time>
      </trkpt>
      <trkpt lat="39.448178" lon="-5.215690">
        <ele>571.0</ele>
        <time>1970-01-01T00:00:00Z</time>
      </trkpt>
      <trkpt lat="39.448178" lon="-5.215690">
        <ele>571.0</ele>
        <time>1970-01-01T00:00:00Z</time>
      </trkpt>
      <trkpt lat="39.448195" lon="-5.215629">
        <ele>570.3</ele>
        <time>1970-01-01T00:00:00Z</time>
      </trkpt>
      <trkpt lat="39.448195" lon="-5.215629">
        <ele>570.3</ele>
        <time>1970-01-01T00:00:00Z</time>
      </trkpt>
      <trkpt lat="39.448195" lon="-5.215629">
        <ele>570.3</ele>
        <time>1970-01-01T00:00:00Z</time>
      </trkpt>
      <trkpt lat="39.448195" lon="-5.215629">
        <ele>570.3</ele>
        <time>1970-01-01T00:00:00Z</time>
      </trkpt>
      <trkpt lat="39.448195" lon="-5.215628">
        <ele>570.3</ele>
        <time>1970-01-01T00:00:00Z</time>
      </trkpt>
      <trkpt lat="39.448195" lon="-5.215628">
        <ele>570.3</ele>
        <time>1970-01-01T00:00:00Z</time>
      </trkpt>
      <trkpt lat="39.448195" lon="-5.215628">
        <ele>570.3</ele>
        <time>1970-01-01T00:00:00Z</time>
      </trkpt>
      <trkpt lat="39.448195" lon="-5.215628">
        <ele>570.3</ele>
        <time>1970-01-01T00:00:00Z</time>
      </trkpt>
      <trkpt lat="39.448205" lon="-5.215552">
        <ele>569.4</ele>
        <time>1970-01-01T00:00:00Z</time>
      </trkpt>
      <trkpt lat="39.448205" lon="-5.215552">
        <ele>569.4</ele>
        <time>1970-01-01T00:00:00Z</time>
      </trkpt>
      <trkpt lat="39.448205" lon="-5.215552">
        <ele>569.4</ele>
        <time>1970-01-01T00:00:00Z</time>
      </trkpt>
      <trkpt lat="39.448205" lon="-5.215552">
        <ele>569.4</ele>
        <time>1970-01-01T00:00:00Z</time>
      </trkpt>
      <trkpt lat="39.448204" lon="-5.215507">
        <ele>568.8</ele>
        <time>1970-01-01T00:00:00Z</time>
      </trkpt>
      <trkpt lat="39.448204" lon="-5.215507">
        <ele>568.8</ele>
        <time>1970-01-01T00:00:00Z</time>
      </trkpt>
      <trkpt lat="39.448204" lon="-5.215507">
        <ele>568.8</ele>
        <time>1970-01-01T00:00:00Z</time>
      </trkpt>
      <trkpt lat="39.448204" lon="-5.215507">
        <ele>568.8</ele>
        <time>1970-01-01T00:00:00Z</time>
      </trkpt>
      <trkpt lat="39.448205" lon="-5.215452">
        <ele>568.1</ele>
        <time>1970-01-01T00:00:00Z</time>
      </trkpt>
      <trkpt lat="39.448205" lon="-5.215452">
        <ele>568.1</ele>
        <time>1970-01-01T00:00:00Z</time>
      </trkpt>
      <trkpt lat="39.448205" lon="-5.215452">
        <ele>568.1</ele>
        <time>1970-01-01T00:00:00Z</time>
      </trkpt>
      <trkpt lat="39.448205" lon="-5.215452">
        <ele>568.1</ele>
        <time>1970-01-01T00:00:00Z</time>
      </trkpt>
      <trkpt lat="39.448224" lon="-5.215364">
        <ele>567.0</ele>
        <time>1970-01-01T00:00:00Z</time>
      </trkpt>
      <trkpt lat="39.448224" lon="-5.215364">
        <ele>567.0</ele>
        <time>1970-01-01T00:00:00Z</time>
      </trkpt>
      <trkpt lat="39.448224" lon="-5.215364">
        <ele>567.0</ele>
        <time>1970-01-01T00:00:00Z</time>
      </trkpt>
      <trkpt lat="39.448224" lon="-5.215364">
        <ele>567.0</ele>
        <time>1970-01-01T00:00:00Z</time>
      </trkpt>
      <trkpt lat="39.448260" lon="-5.215091">
        <ele>563.6</ele>
        <time>1970-01-01T00:00:00Z</time>
      </trkpt>
      <trkpt lat="39.448260" lon="-5.215091">
        <ele>563.6</ele>
        <time>1970-01-01T00:00:00Z</time>
      </trkpt>
      <trkpt lat="39.448260" lon="-5.215091">
        <ele>563.6</ele>
        <time>1970-01-01T00:00:00Z</time>
      </trkpt>
      <trkpt lat="39.448260" lon="-5.215091">
        <ele>563.6</ele>
        <time>1970-01-01T00:00:00Z</time>
      </trkpt>
      <trkpt lat="39.448320" lon="-5.214919">
        <ele>561.9</ele>
        <time>1970-01-01T00:00:00Z</time>
      </trkpt>
      <trkpt lat="39.448320" lon="-5.214919">
        <ele>561.9</ele>
        <time>1970-01-01T00:00:00Z</time>
      </trkpt>
      <trkpt lat="39.448320" lon="-5.214919">
        <ele>561.9</ele>
        <time>1970-01-01T00:00:00Z</time>
      </trkpt>
      <trkpt lat="39.448320" lon="-5.214919">
        <ele>561.9</ele>
        <time>1970-01-01T00:00:00Z</time>
      </trkpt>
      <trkpt lat="39.448320" lon="-5.214917">
        <ele>561.9</ele>
        <time>1970-01-01T00:00:00Z</time>
      </trkpt>
      <trkpt lat="39.448320" lon="-5.214917">
        <ele>561.9</ele>
        <time>1970-01-01T00:00:00Z</time>
      </trkpt>
      <trkpt lat="39.448320" lon="-5.214917">
        <ele>561.9</ele>
        <time>1970-01-01T00:00:00Z</time>
      </trkpt>
      <trkpt lat="39.448320" lon="-5.214917">
        <ele>561.9</ele>
        <time>1970-01-01T00:00:00Z</time>
      </trkpt>
      <trkpt lat="39.448351" lon="-5.214846">
        <ele>561.0</ele>
        <time>1970-01-01T00:00:00Z</time>
      </trkpt>
      <trkpt lat="39.448351" lon="-5.214846">
        <ele>561.0</ele>
        <time>1970-01-01T00:00:00Z</time>
      </trkpt>
      <trkpt lat="39.448351" lon="-5.214846">
        <ele>561.0</ele>
        <time>1970-01-01T00:00:00Z</time>
      </trkpt>
      <trkpt lat="39.448351" lon="-5.214846">
        <ele>561.0</ele>
        <time>1970-01-01T00:00:00Z</time>
      </trkpt>
      <trkpt lat="39.448365" lon="-5.214828">
        <ele>560.7</ele>
        <time>1970-01-01T00:00:00Z</time>
      </trkpt>
      <trkpt lat="39.448365" lon="-5.214828">
        <ele>560.7</ele>
        <time>1970-01-01T00:00:00Z</time>
      </trkpt>
      <trkpt lat="39.448365" lon="-5.214828">
        <ele>560.7</ele>
        <time>1970-01-01T00:00:00Z</time>
      </trkpt>
      <trkpt lat="39.448365" lon="-5.214828">
        <ele>560.7</ele>
        <time>1970-01-01T00:00:00Z</time>
      </trkpt>
      <trkpt lat="39.448426" lon="-5.214688">
        <ele>559.2</ele>
        <time>1970-01-01T00:00:00Z</time>
      </trkpt>
      <trkpt lat="39.448426" lon="-5.214688">
        <ele>559.2</ele>
        <time>1970-01-01T00:00:00Z</time>
      </trkpt>
      <trkpt lat="39.448426" lon="-5.214688">
        <ele>559.2</ele>
        <time>1970-01-01T00:00:00Z</time>
      </trkpt>
      <trkpt lat="39.448426" lon="-5.214688">
        <ele>559.2</ele>
        <time>1970-01-01T00:00:00Z</time>
      </trkpt>
      <trkpt lat="39.448430" lon="-5.214615">
        <ele>558.3</ele>
        <time>1970-01-01T00:00:00Z</time>
      </trkpt>
      <trkpt lat="39.448430" lon="-5.214615">
        <ele>558.3</ele>
        <time>1970-01-01T00:00:00Z</time>
      </trkpt>
      <trkpt lat="39.448430" lon="-5.214615">
        <ele>558.3</ele>
        <time>1970-01-01T00:00:00Z</time>
      </trkpt>
      <trkpt lat="39.448430" lon="-5.214615">
        <ele>558.3</ele>
        <time>1970-01-01T00:00:00Z</time>
      </trkpt>
      <trkpt lat="39.448429" lon="-5.214484">
        <ele>556.6</ele>
        <time>1970-01-01T00:00:00Z</time>
      </trkpt>
      <trkpt lat="39.448429" lon="-5.214484">
        <ele>556.6</ele>
        <time>1970-01-01T00:00:00Z</time>
      </trkpt>
      <trkpt lat="39.448429" lon="-5.214484">
        <ele>556.6</ele>
        <time>1970-01-01T00:00:00Z</time>
      </trkpt>
      <trkpt lat="39.448429" lon="-5.214484">
        <ele>556.6</ele>
        <time>1970-01-01T00:00:00Z</time>
      </trkpt>
      <trkpt lat="39.448429" lon="-5.214483">
        <ele>556.6</ele>
        <time>1970-01-01T00:00:00Z</time>
      </trkpt>
      <trkpt lat="39.448429" lon="-5.214483">
        <ele>556.6</ele>
        <time>1970-01-01T00:00:00Z</time>
      </trkpt>
      <trkpt lat="39.448429" lon="-5.214483">
        <ele>556.6</ele>
        <time>1970-01-01T00:00:00Z</time>
      </trkpt>
      <trkpt lat="39.448429" lon="-5.214483">
        <ele>556.6</ele>
        <time>1970-01-01T00:00:00Z</time>
      </trkpt>
      <trkpt lat="39.448431" lon="-5.214343">
        <ele>555.2</ele>
        <time>1970-01-01T00:00:00Z</time>
      </trkpt>
      <trkpt lat="39.448431" lon="-5.214343">
        <ele>555.2</ele>
        <time>1970-01-01T00:00:00Z</time>
      </trkpt>
      <trkpt lat="39.448431" lon="-5.214343">
        <ele>555.2</ele>
        <time>1970-01-01T00:00:00Z</time>
      </trkpt>
      <trkpt lat="39.448431" lon="-5.214343">
        <ele>555.2</ele>
        <time>1970-01-01T00:00:00Z</time>
      </trkpt>
      <trkpt lat="39.448438" lon="-5.214253">
        <ele>554.4</ele>
        <time>1970-01-01T00:00:00Z</time>
      </trkpt>
      <trkpt lat="39.448438" lon="-5.214253">
        <ele>554.4</ele>
        <time>1970-01-01T00:00:00Z</time>
      </trkpt>
      <trkpt lat="39.448438" lon="-5.214253">
        <ele>554.4</ele>
        <time>1970-01-01T00:00:00Z</time>
      </trkpt>
      <trkpt lat="39.448438" lon="-5.214253">
        <ele>554.4</ele>
        <time>1970-01-01T00:00:00Z</time>
      </trkpt>
      <trkpt lat="39.448452" lon="-5.214172">
        <ele>553.7</ele>
        <time>1970-01-01T00:00:00Z</time>
      </trkpt>
      <trkpt lat="39.448452" lon="-5.214172">
        <ele>553.7</ele>
        <time>1970-01-01T00:00:00Z</time>
      </trkpt>
      <trkpt lat="39.448452" lon="-5.214172">
        <ele>553.7</ele>
        <time>1970-01-01T00:00:00Z</time>
      </trkpt>
      <trkpt lat="39.448452" lon="-5.214172">
        <ele>553.7</ele>
        <time>1970-01-01T00:00:00Z</time>
      </trkpt>
      <trkpt lat="39.448485" lon="-5.213991">
        <ele>552.1</ele>
        <time>1970-01-01T00:00:00Z</time>
      </trkpt>
      <trkpt lat="39.448485" lon="-5.213991">
        <ele>552.1</ele>
        <time>1970-01-01T00:00:00Z</time>
      </trkpt>
      <trkpt lat="39.448485" lon="-5.213991">
        <ele>552.1</ele>
        <time>1970-01-01T00:00:00Z</time>
      </trkpt>
      <trkpt lat="39.448485" lon="-5.213991">
        <ele>552.1</ele>
        <time>1970-01-01T00:00:00Z</time>
      </trkpt>
      <trkpt lat="39.448528" lon="-5.213817">
        <ele>549.9</ele>
        <time>1970-01-01T00:00:00Z</time>
      </trkpt>
      <trkpt lat="39.448528" lon="-5.213817">
        <ele>549.9</ele>
        <time>1970-01-01T00:00:00Z</time>
      </trkpt>
      <trkpt lat="39.448528" lon="-5.213817">
        <ele>549.9</ele>
        <time>1970-01-01T00:00:00Z</time>
      </trkpt>
      <trkpt lat="39.448528" lon="-5.213817">
        <ele>549.9</ele>
        <time>1970-01-01T00:00:00Z</time>
      </trkpt>
      <trkpt lat="39.448547" lon="-5.213736">
        <ele>549.0</ele>
        <time>1970-01-01T00:00:00Z</time>
      </trkpt>
      <trkpt lat="39.448547" lon="-5.213736">
        <ele>549.0</ele>
        <time>1970-01-01T00:00:00Z</time>
      </trkpt>
      <trkpt lat="39.448547" lon="-5.213736">
        <ele>549.0</ele>
        <time>1970-01-01T00:00:00Z</time>
      </trkpt>
      <trkpt lat="39.448547" lon="-5.213736">
        <ele>549.0</ele>
        <time>1970-01-01T00:00:00Z</time>
      </trkpt>
      <trkpt lat="39.448581" lon="-5.213615">
        <ele>548.4</ele>
        <time>1970-01-01T00:00:00Z</time>
      </trkpt>
      <trkpt lat="39.448581" lon="-5.213615">
        <ele>548.4</ele>
        <time>1970-01-01T00:00:00Z</time>
      </trkpt>
      <trkpt lat="39.448581" lon="-5.213615">
        <ele>548.4</ele>
        <time>1970-01-01T00:00:00Z</time>
      </trkpt>
      <trkpt lat="39.448581" lon="-5.213615">
        <ele>548.4</ele>
        <time>1970-01-01T00:00:00Z</time>
      </trkpt>
      <trkpt lat="39.448609" lon="-5.213553">
        <ele>548.2</ele>
        <time>1970-01-01T00:00:00Z</time>
      </trkpt>
      <trkpt lat="39.448609" lon="-5.213553">
        <ele>548.2</ele>
        <time>1970-01-01T00:00:00Z</time>
      </trkpt>
      <trkpt lat="39.448609" lon="-5.213553">
        <ele>548.2</ele>
        <time>1970-01-01T00:00:00Z</time>
      </trkpt>
      <trkpt lat="39.448609" lon="-5.213553">
        <ele>548.2</ele>
        <time>1970-01-01T00:00:00Z</time>
      </trkpt>
      <trkpt lat="39.448640" lon="-5.213489">
        <ele>547.8</ele>
        <time>1970-01-01T00:00:00Z</time>
      </trkpt>
      <trkpt lat="39.448640" lon="-5.213489">
        <ele>547.8</ele>
        <time>1970-01-01T00:00:00Z</time>
      </trkpt>
      <trkpt lat="39.448640" lon="-5.213489">
        <ele>547.8</ele>
        <time>1970-01-01T00:00:00Z</time>
      </trkpt>
      <trkpt lat="39.448640" lon="-5.213489">
        <ele>547.8</ele>
        <time>1970-01-01T00:00:00Z</time>
      </trkpt>
      <trkpt lat="39.448656" lon="-5.213468">
        <ele>547.6</ele>
        <time>1970-01-01T00:00:00Z</time>
      </trkpt>
      <trkpt lat="39.448656" lon="-5.213468">
        <ele>547.6</ele>
        <time>1970-01-01T00:00:00Z</time>
      </trkpt>
      <trkpt lat="39.448656" lon="-5.213468">
        <ele>547.6</ele>
        <time>1970-01-01T00:00:00Z</time>
      </trkpt>
      <trkpt lat="39.448656" lon="-5.213468">
        <ele>547.6</ele>
        <time>1970-01-01T00:00:00Z</time>
      </trkpt>
      <trkpt lat="39.448696" lon="-5.213383">
        <ele>546.9</ele>
        <time>1970-01-01T00:00:00Z</time>
      </trkpt>
      <trkpt lat="39.448696" lon="-5.213383">
        <ele>546.9</ele>
        <time>1970-01-01T00:00:00Z</time>
      </trkpt>
      <trkpt lat="39.448696" lon="-5.213383">
        <ele>546.9</ele>
        <time>1970-01-01T00:00:00Z</time>
      </trkpt>
      <trkpt lat="39.448696" lon="-5.213383">
        <ele>546.9</ele>
        <time>1970-01-01T00:00:00Z</time>
      </trkpt>
      <trkpt lat="39.448753" lon="-5.213228">
        <ele>545.5</ele>
        <time>1970-01-01T00:00:00Z</time>
      </trkpt>
      <trkpt lat="39.448753" lon="-5.213228">
        <ele>545.5</ele>
        <time>1970-01-01T00:00:00Z</time>
      </trkpt>
      <trkpt lat="39.448753" lon="-5.213228">
        <ele>545.5</ele>
        <time>1970-01-01T00:00:00Z</time>
      </trkpt>
      <trkpt lat="39.448753" lon="-5.213228">
        <ele>545.5</ele>
        <time>1970-01-01T00:00:00Z</time>
      </trkpt>
      <trkpt lat="39.448773" lon="-5.213153">
        <ele>544.9</ele>
        <time>1970-01-01T00:00:00Z</time>
      </trkpt>
      <trkpt lat="39.448773" lon="-5.213153">
        <ele>544.9</ele>
        <time>1970-01-01T00:00:00Z</time>
      </trkpt>
      <trkpt lat="39.448773" lon="-5.213153">
        <ele>544.9</ele>
        <time>1970-01-01T00:00:00Z</time>
      </trkpt>
      <trkpt lat="39.448773" lon="-5.213153">
        <ele>544.9</ele>
        <time>1970-01-01T00:00:00Z</time>
      </trkpt>
      <trkpt lat="39.448801" lon="-5.213080">
        <ele>544.2</ele>
        <time>1970-01-01T00:00:00Z</time>
      </trkpt>
      <trkpt lat="39.448801" lon="-5.213080">
        <ele>544.2</ele>
        <time>1970-01-01T00:00:00Z</time>
      </trkpt>
      <trkpt lat="39.448801" lon="-5.213080">
        <ele>544.2</ele>
        <time>1970-01-01T00:00:00Z</time>
      </trkpt>
      <trkpt lat="39.448801" lon="-5.213080">
        <ele>544.2</ele>
        <time>1970-01-01T00:00:00Z</time>
      </trkpt>
      <trkpt lat="39.448810" lon="-5.213023">
        <ele>543.8</ele>
        <time>1970-01-01T00:00:00Z</time>
      </trkpt>
      <trkpt lat="39.448810" lon="-5.213023">
        <ele>543.8</ele>
        <time>1970-01-01T00:00:00Z</time>
      </trkpt>
      <trkpt lat="39.448810" lon="-5.213023">
        <ele>543.8</ele>
        <time>1970-01-01T00:00:00Z</time>
      </trkpt>
      <trkpt lat="39.448810" lon="-5.213023">
        <ele>543.8</ele>
        <time>1970-01-01T00:00:00Z</time>
      </trkpt>
      <trkpt lat="39.448824" lon="-5.212980">
        <ele>543.4</ele>
        <time>1970-01-01T00:00:00Z</time>
      </trkpt>
      <trkpt lat="39.448824" lon="-5.212980">
        <ele>543.4</ele>
        <time>1970-01-01T00:00:00Z</time>
      </trkpt>
      <trkpt lat="39.448824" lon="-5.212980">
        <ele>543.4</ele>
        <time>1970-01-01T00:00:00Z</time>
      </trkpt>
      <trkpt lat="39.448824" lon="-5.212980">
        <ele>543.4</ele>
        <time>1970-01-01T00:00:00Z</time>
      </trkpt>
      <trkpt lat="39.448830" lon="-5.212948">
        <ele>543.1</ele>
        <time>1970-01-01T00:00:00Z</time>
      </trkpt>
      <trkpt lat="39.448830" lon="-5.212948">
        <ele>543.1</ele>
        <time>1970-01-01T00:00:00Z</time>
      </trkpt>
      <trkpt lat="39.448830" lon="-5.212948">
        <ele>543.1</ele>
        <time>1970-01-01T00:00:00Z</time>
      </trkpt>
      <trkpt lat="39.448830" lon="-5.212948">
        <ele>543.1</ele>
        <time>1970-01-01T00:00:00Z</time>
      </trkpt>
      <trkpt lat="39.448841" lon="-5.212919">
        <ele>542.9</ele>
        <time>1970-01-01T00:00:00Z</time>
      </trkpt>
      <trkpt lat="39.448841" lon="-5.212919">
        <ele>542.9</ele>
        <time>1970-01-01T00:00:00Z</time>
      </trkpt>
      <trkpt lat="39.448841" lon="-5.212919">
        <ele>542.9</ele>
        <time>1970-01-01T00:00:00Z</time>
      </trkpt>
      <trkpt lat="39.448841" lon="-5.212919">
        <ele>542.9</ele>
        <time>1970-01-01T00:00:00Z</time>
      </trkpt>
      <trkpt lat="39.448861" lon="-5.212831">
        <ele>542.1</ele>
        <time>1970-01-01T00:00:00Z</time>
      </trkpt>
      <trkpt lat="39.448861" lon="-5.212831">
        <ele>542.1</ele>
        <time>1970-01-01T00:00:00Z</time>
      </trkpt>
      <trkpt lat="39.448861" lon="-5.212831">
        <ele>542.1</ele>
        <time>1970-01-01T00:00:00Z</time>
      </trkpt>
      <trkpt lat="39.448861" lon="-5.212831">
        <ele>542.1</ele>
        <time>1970-01-01T00:00:00Z</time>
      </trkpt>
      <trkpt lat="39.448881" lon="-5.212790">
        <ele>541.7</ele>
        <time>1970-01-01T00:00:00Z</time>
      </trkpt>
      <trkpt lat="39.448881" lon="-5.212790">
        <ele>541.7</ele>
        <time>1970-01-01T00:00:00Z</time>
      </trkpt>
      <trkpt lat="39.448881" lon="-5.212790">
        <ele>541.7</ele>
        <time>1970-01-01T00:00:00Z</time>
      </trkpt>
      <trkpt lat="39.448881" lon="-5.212790">
        <ele>541.7</ele>
        <time>1970-01-01T00:00:00Z</time>
      </trkpt>
      <trkpt lat="39.448907" lon="-5.212753">
        <ele>541.4</ele>
        <time>1970-01-01T00:00:00Z</time>
      </trkpt>
      <trkpt lat="39.448907" lon="-5.212753">
        <ele>541.4</ele>
        <time>1970-01-01T00:00:00Z</time>
      </trkpt>
      <trkpt lat="39.448907" lon="-5.212753">
        <ele>541.4</ele>
        <time>1970-01-01T00:00:00Z</time>
      </trkpt>
      <trkpt lat="39.448907" lon="-5.212753">
        <ele>541.4</ele>
        <time>1970-01-01T00:00:00Z</time>
      </trkpt>
      <trkpt lat="39.448956" lon="-5.212670">
        <ele>540.7</ele>
        <time>1970-01-01T00:00:00Z</time>
      </trkpt>
      <trkpt lat="39.448956" lon="-5.212670">
        <ele>540.7</ele>
        <time>1970-01-01T00:00:00Z</time>
      </trkpt>
      <trkpt lat="39.448956" lon="-5.212670">
        <ele>540.7</ele>
        <time>1970-01-01T00:00:00Z</time>
      </trkpt>
      <trkpt lat="39.448956" lon="-5.212670">
        <ele>540.7</ele>
        <time>1970-01-01T00:00:00Z</time>
      </trkpt>
      <trkpt lat="39.448995" lon="-5.212627">
        <ele>540.3</ele>
        <time>1970-01-01T00:00:00Z</time>
      </trkpt>
      <trkpt lat="39.448995" lon="-5.212627">
        <ele>540.3</ele>
        <time>1970-01-01T00:00:00Z</time>
      </trkpt>
      <trkpt lat="39.448995" lon="-5.212627">
        <ele>540.3</ele>
        <time>1970-01-01T00:00:00Z</time>
      </trkpt>
      <trkpt lat="39.448995" lon="-5.212627">
        <ele>540.3</ele>
        <time>1970-01-01T00:00:00Z</time>
      </trkpt>
      <trkpt lat="39.449011" lon="-5.212605">
        <ele>540.1</ele>
        <time>1970-01-01T00:00:00Z</time>
      </trkpt>
      <trkpt lat="39.449011" lon="-5.212605">
        <ele>540.1</ele>
        <time>1970-01-01T00:00:00Z</time>
      </trkpt>
      <trkpt lat="39.449011" lon="-5.212605">
        <ele>540.1</ele>
        <time>1970-01-01T00:00:00Z</time>
      </trkpt>
      <trkpt lat="39.449011" lon="-5.212605">
        <ele>540.1</ele>
        <time>1970-01-01T00:00:00Z</time>
      </trkpt>
      <trkpt lat="39.449035" lon="-5.212571">
        <ele>540.0</ele>
        <time>1970-01-01T00:00:00Z</time>
      </trkpt>
      <trkpt lat="39.449035" lon="-5.212571">
        <ele>540.0</ele>
        <time>1970-01-01T00:00:00Z</time>
      </trkpt>
      <trkpt lat="39.449035" lon="-5.212571">
        <ele>540.0</ele>
        <time>1970-01-01T00:00:00Z</time>
      </trkpt>
      <trkpt lat="39.449035" lon="-5.212571">
        <ele>540.0</ele>
        <time>1970-01-01T00:00:00Z</time>
      </trkpt>
      <trkpt lat="39.449057" lon="-5.212540">
        <ele>540.0</ele>
        <time>1970-01-01T00:00:00Z</time>
      </trkpt>
      <trkpt lat="39.449057" lon="-5.212540">
        <ele>540.0</ele>
        <time>1970-01-01T00:00:00Z</time>
      </trkpt>
      <trkpt lat="39.449057" lon="-5.212540">
        <ele>540.0</ele>
        <time>1970-01-01T00:00:00Z</time>
      </trkpt>
      <trkpt lat="39.449057" lon="-5.212540">
        <ele>540.0</ele>
        <time>1970-01-01T00:00:00Z</time>
      </trkpt>
      <trkpt lat="39.449069" lon="-5.212524">
        <ele>540.0</ele>
        <time>1970-01-01T00:00:00Z</time>
      </trkpt>
      <trkpt lat="39.449069" lon="-5.212524">
        <ele>540.0</ele>
        <time>1970-01-01T00:00:00Z</time>
      </trkpt>
      <trkpt lat="39.449069" lon="-5.212524">
        <ele>540.0</ele>
        <time>1970-01-01T00:00:00Z</time>
      </trkpt>
      <trkpt lat="39.449069" lon="-5.212524">
        <ele>540.0</ele>
        <time>1970-01-01T00:00:00Z</time>
      </trkpt>
      <trkpt lat="39.449099" lon="-5.212482">
        <ele>540.0</ele>
        <time>1970-01-01T00:00:00Z</time>
      </trkpt>
      <trkpt lat="39.449099" lon="-5.212482">
        <ele>540.0</ele>
        <time>1970-01-01T00:00:00Z</time>
      </trkpt>
      <trkpt lat="39.449099" lon="-5.212482">
        <ele>540.0</ele>
        <time>1970-01-01T00:00:00Z</time>
      </trkpt>
      <trkpt lat="39.449099" lon="-5.212482">
        <ele>540.0</ele>
        <time>1970-01-01T00:00:00Z</time>
      </trkpt>
      <trkpt lat="39.449114" lon="-5.212462">
        <ele>540.0</ele>
        <time>1970-01-01T00:00:00Z</time>
      </trkpt>
      <trkpt lat="39.449114" lon="-5.212462">
        <ele>540.0</ele>
        <time>1970-01-01T00:00:00Z</time>
      </trkpt>
      <trkpt lat="39.449114" lon="-5.212462">
        <ele>540.0</ele>
        <time>1970-01-01T00:00:00Z</time>
      </trkpt>
      <trkpt lat="39.449114" lon="-5.212462">
        <ele>540.0</ele>
        <time>1970-01-01T00:00:00Z</time>
      </trkpt>
      <trkpt lat="39.449154" lon="-5.212406">
        <ele>540.0</ele>
        <time>1970-01-01T00:00:00Z</time>
      </trkpt>
      <trkpt lat="39.449154" lon="-5.212406">
        <ele>540.0</ele>
        <time>1970-01-01T00:00:00Z</time>
      </trkpt>
      <trkpt lat="39.449154" lon="-5.212406">
        <ele>540.0</ele>
        <time>1970-01-01T00:00:00Z</time>
      </trkpt>
      <trkpt lat="39.449154" lon="-5.212406">
        <ele>540.0</ele>
        <time>1970-01-01T00:00:00Z</time>
      </trkpt>
      <trkpt lat="39.449188" lon="-5.212341">
        <ele>539.9</ele>
        <time>1970-01-01T00:00:00Z</time>
      </trkpt>
      <trkpt lat="39.449188" lon="-5.212341">
        <ele>539.9</ele>
        <time>1970-01-01T00:00:00Z</time>
      </trkpt>
      <trkpt lat="39.449188" lon="-5.212341">
        <ele>539.9</ele>
        <time>1970-01-01T00:00:00Z</time>
      </trkpt>
      <trkpt lat="39.449188" lon="-5.212341">
        <ele>539.9</ele>
        <time>1970-01-01T00:00:00Z</time>
      </trkpt>
      <trkpt lat="39.449274" lon="-5.212188">
        <ele>539.3</ele>
        <time>1970-01-01T00:00:00Z</time>
      </trkpt>
      <trkpt lat="39.449274" lon="-5.212188">
        <ele>539.3</ele>
        <time>1970-01-01T00:00:00Z</time>
      </trkpt>
      <trkpt lat="39.449274" lon="-5.212188">
        <ele>539.3</ele>
        <time>1970-01-01T00:00:00Z</time>
      </trkpt>
      <trkpt lat="39.449274" lon="-5.212188">
        <ele>539.3</ele>
        <time>1970-01-01T00:00:00Z</time>
      </trkpt>
      <trkpt lat="39.449387" lon="-5.212032">
        <ele>538.9</ele>
        <time>1970-01-01T00:00:00Z</time>
      </trkpt>
      <trkpt lat="39.449387" lon="-5.212032">
        <ele>538.9</ele>
        <time>1970-01-01T00:00:00Z</time>
      </trkpt>
      <trkpt lat="39.449387" lon="-5.212032">
        <ele>538.9</ele>
        <time>1970-01-01T00:00:00Z</time>
      </trkpt>
      <trkpt lat="39.449387" lon="-5.212032">
        <ele>538.9</ele>
        <time>1970-01-01T00:00:00Z</time>
      </trkpt>
      <trkpt lat="39.449440" lon="-5.211959">
        <ele>539.0</ele>
        <time>1970-01-01T00:00:00Z</time>
      </trkpt>
      <trkpt lat="39.449440" lon="-5.211959">
        <ele>539.0</ele>
        <time>1970-01-01T00:00:00Z</time>
      </trkpt>
      <trkpt lat="39.449440" lon="-5.211959">
        <ele>539.0</ele>
        <time>1970-01-01T00:00:00Z</time>
      </trkpt>
      <trkpt lat="39.449440" lon="-5.211959">
        <ele>539.0</ele>
        <time>1970-01-01T00:00:00Z</time>
      </trkpt>
      <trkpt lat="39.449504" lon="-5.211905">
        <ele>539.0</ele>
        <time>1970-01-01T00:00:00Z</time>
      </trkpt>
      <trkpt lat="39.449504" lon="-5.211905">
        <ele>539.0</ele>
        <time>1970-01-01T00:00:00Z</time>
      </trkpt>
      <trkpt lat="39.449504" lon="-5.211905">
        <ele>539.0</ele>
        <time>1970-01-01T00:00:00Z</time>
      </trkpt>
      <trkpt lat="39.449504" lon="-5.211905">
        <ele>539.0</ele>
        <time>1970-01-01T00:00:00Z</time>
      </trkpt>
      <trkpt lat="39.449578" lon="-5.211876">
        <ele>539.0</ele>
        <time>1970-01-01T00:00:00Z</time>
      </trkpt>
      <trkpt lat="39.449578" lon="-5.211876">
        <ele>539.0</ele>
        <time>1970-01-01T00:00:00Z</time>
      </trkpt>
      <trkpt lat="39.449578" lon="-5.211876">
        <ele>539.0</ele>
        <time>1970-01-01T00:00:00Z</time>
      </trkpt>
      <trkpt lat="39.449578" lon="-5.211876">
        <ele>539.0</ele>
        <time>1970-01-01T00:00:00Z</time>
      </trkpt>
      <trkpt lat="39.449625" lon="-5.211878">
        <ele>539.0</ele>
        <time>1970-01-01T00:00:00Z</time>
      </trkpt>
      <trkpt lat="39.449625" lon="-5.211878">
        <ele>539.0</ele>
        <time>1970-01-01T00:00:00Z</time>
      </trkpt>
      <trkpt lat="39.449625" lon="-5.211878">
        <ele>539.0</ele>
        <time>1970-01-01T00:00:00Z</time>
      </trkpt>
      <trkpt lat="39.449625" lon="-5.211878">
        <ele>539.0</ele>
        <time>1970-01-01T00:00:00Z</time>
      </trkpt>
      <trkpt lat="39.449661" lon="-5.211880">
        <ele>539.0</ele>
        <time>1970-01-01T00:00:00Z</time>
      </trkpt>
      <trkpt lat="39.449661" lon="-5.211880">
        <ele>539.0</ele>
        <time>1970-01-01T00:00:00Z</time>
      </trkpt>
      <trkpt lat="39.449661" lon="-5.211880">
        <ele>539.0</ele>
        <time>1970-01-01T00:00:00Z</time>
      </trkpt>
      <trkpt lat="39.449661" lon="-5.211880">
        <ele>539.0</ele>
        <time>1970-01-01T00:00:00Z</time>
      </trkpt>
      <trkpt lat="39.449674" lon="-5.211881">
        <ele>539.1</ele>
        <time>1970-01-01T00:00:00Z</time>
      </trkpt>
      <trkpt lat="39.449674" lon="-5.211881">
        <ele>539.1</ele>
        <time>1970-01-01T00:00:00Z</time>
      </trkpt>
      <trkpt lat="39.449674" lon="-5.211881">
        <ele>539.1</ele>
        <time>1970-01-01T00:00:00Z</time>
      </trkpt>
      <trkpt lat="39.449674" lon="-5.211881">
        <ele>539.1</ele>
        <time>1970-01-01T00:00:00Z</time>
      </trkpt>
      <trkpt lat="39.449741" lon="-5.211883">
        <ele>539.4</ele>
        <time>1970-01-01T00:00:00Z</time>
      </trkpt>
      <trkpt lat="39.449741" lon="-5.211883">
        <ele>539.4</ele>
        <time>1970-01-01T00:00:00Z</time>
      </trkpt>
      <trkpt lat="39.449741" lon="-5.211883">
        <ele>539.4</ele>
        <time>1970-01-01T00:00:00Z</time>
      </trkpt>
      <trkpt lat="39.449741" lon="-5.211883">
        <ele>539.4</ele>
        <time>1970-01-01T00:00:00Z</time>
      </trkpt>
      <trkpt lat="39.449836" lon="-5.211891">
        <ele>539.8</ele>
        <time>1970-01-01T00:00:00Z</time>
      </trkpt>
      <trkpt lat="39.449836" lon="-5.211891">
        <ele>539.8</ele>
        <time>1970-01-01T00:00:00Z</time>
      </trkpt>
      <trkpt lat="39.449836" lon="-5.211891">
        <ele>539.8</ele>
        <time>1970-01-01T00:00:00Z</time>
      </trkpt>
      <trkpt lat="39.449836" lon="-5.211891">
        <ele>539.8</ele>
        <time>1970-01-01T00:00:00Z</time>
      </trkpt>
      <trkpt lat="39.449861" lon="-5.211892">
        <ele>539.9</ele>
        <time>1970-01-01T00:00:00Z</time>
      </trkpt>
      <trkpt lat="39.449861" lon="-5.211892">
        <ele>539.9</ele>
        <time>1970-01-01T00:00:00Z</time>
      </trkpt>
      <trkpt lat="39.449861" lon="-5.211892">
        <ele>539.9</ele>
        <time>1970-01-01T00:00:00Z</time>
      </trkpt>
      <trkpt lat="39.449861" lon="-5.211892">
        <ele>539.9</ele>
        <time>1970-01-01T00:00:00Z</time>
      </trkpt>
      <trkpt lat="39.449886" lon="-5.211893">
        <ele>540.0</ele>
        <time>1970-01-01T00:00:00Z</time>
      </trkpt>
      <trkpt lat="39.449886" lon="-5.211893">
        <ele>540.0</ele>
        <time>1970-01-01T00:00:00Z</time>
      </trkpt>
      <trkpt lat="39.449886" lon="-5.211893">
        <ele>540.0</ele>
        <time>1970-01-01T00:00:00Z</time>
      </trkpt>
      <trkpt lat="39.449886" lon="-5.211893">
        <ele>540.0</ele>
        <time>1970-01-01T00:00:00Z</time>
      </trkpt>
      <trkpt lat="39.449951" lon="-5.211902">
        <ele>540.0</ele>
        <time>1970-01-01T00:00:00Z</time>
      </trkpt>
      <trkpt lat="39.449951" lon="-5.211902">
        <ele>540.0</ele>
        <time>1970-01-01T00:00:00Z</time>
      </trkpt>
      <trkpt lat="39.449951" lon="-5.211902">
        <ele>540.0</ele>
        <time>1970-01-01T00:00:00Z</time>
      </trkpt>
      <trkpt lat="39.449951" lon="-5.211902">
        <ele>540.0</ele>
        <time>1970-01-01T00:00:00Z</time>
      </trkpt>
      <trkpt lat="39.449990" lon="-5.211905">
        <ele>540.0</ele>
        <time>1970-01-01T00:00:00Z</time>
      </trkpt>
      <trkpt lat="39.449990" lon="-5.211905">
        <ele>540.0</ele>
        <time>1970-01-01T00:00:00Z</time>
      </trkpt>
      <trkpt lat="39.449990" lon="-5.211905">
        <ele>540.0</ele>
        <time>1970-01-01T00:00:00Z</time>
      </trkpt>
      <trkpt lat="39.449990" lon="-5.211905">
        <ele>540.0</ele>
        <time>1970-01-01T00:00:00Z</time>
      </trkpt>
      <trkpt lat="39.450021" lon="-5.211899">
        <ele>540.0</ele>
        <time>1970-01-01T00:00:00Z</time>
      </trkpt>
      <trkpt lat="39.450021" lon="-5.211899">
        <ele>540.0</ele>
        <time>1970-01-01T00:00:00Z</time>
      </trkpt>
      <trkpt lat="39.450021" lon="-5.211899">
        <ele>540.0</ele>
        <time>1970-01-01T00:00:00Z</time>
      </trkpt>
      <trkpt lat="39.450021" lon="-5.211899">
        <ele>540.0</ele>
        <time>1970-01-01T00:00:00Z</time>
      </trkpt>
      <trkpt lat="39.450053" lon="-5.211902">
        <ele>540.0</ele>
        <time>1970-01-01T00:00:00Z</time>
      </trkpt>
      <trkpt lat="39.450053" lon="-5.211902">
        <ele>540.0</ele>
        <time>1970-01-01T00:00:00Z</time>
      </trkpt>
      <trkpt lat="39.450053" lon="-5.211902">
        <ele>540.0</ele>
        <time>1970-01-01T00:00:00Z</time>
      </trkpt>
      <trkpt lat="39.450053" lon="-5.211902">
        <ele>540.0</ele>
        <time>1970-01-01T00:00:00Z</time>
      </trkpt>
      <trkpt lat="39.450097" lon="-5.211894">
        <ele>540.0</ele>
        <time>1970-01-01T00:00:00Z</time>
      </trkpt>
      <trkpt lat="39.450097" lon="-5.211894">
        <ele>540.0</ele>
        <time>1970-01-01T00:00:00Z</time>
      </trkpt>
      <trkpt lat="39.450097" lon="-5.211894">
        <ele>540.0</ele>
        <time>1970-01-01T00:00:00Z</time>
      </trkpt>
      <trkpt lat="39.450097" lon="-5.211894">
        <ele>540.0</ele>
        <time>1970-01-01T00:00:00Z</time>
      </trkpt>
      <trkpt lat="39.450156" lon="-5.211871">
        <ele>540.2</ele>
        <time>1970-01-01T00:00:00Z</time>
      </trkpt>
      <trkpt lat="39.450156" lon="-5.211871">
        <ele>540.2</ele>
        <time>1970-01-01T00:00:00Z</time>
      </trkpt>
      <trkpt lat="39.450156" lon="-5.211871">
        <ele>540.2</ele>
        <time>1970-01-01T00:00:00Z</time>
      </trkpt>
      <trkpt lat="39.450156" lon="-5.211871">
        <ele>540.2</ele>
        <time>1970-01-01T00:00:00Z</time>
      </trkpt>
      <trkpt lat="39.450183" lon="-5.211860">
        <ele>540.3</ele>
        <time>1970-01-01T00:00:00Z</time>
      </trkpt>
      <trkpt lat="39.450183" lon="-5.211860">
        <ele>540.3</ele>
        <time>1970-01-01T00:00:00Z</time>
      </trkpt>
      <trkpt lat="39.450183" lon="-5.211860">
        <ele>540.3</ele>
        <time>1970-01-01T00:00:00Z</time>
      </trkpt>
      <trkpt lat="39.450183" lon="-5.211860">
        <ele>540.3</ele>
        <time>1970-01-01T00:00:00Z</time>
      </trkpt>
      <trkpt lat="39.450208" lon="-5.211839">
        <ele>540.4</ele>
        <time>1970-01-01T00:00:00Z</time>
      </trkpt>
      <trkpt lat="39.450208" lon="-5.211839">
        <ele>540.4</ele>
        <time>1970-01-01T00:00:00Z</time>
      </trkpt>
      <trkpt lat="39.450208" lon="-5.211839">
        <ele>540.4</ele>
        <time>1970-01-01T00:00:00Z</time>
      </trkpt>
      <trkpt lat="39.450208" lon="-5.211839">
        <ele>540.4</ele>
        <time>1970-01-01T00:00:00Z</time>
      </trkpt>
      <trkpt lat="39.450230" lon="-5.211830">
        <ele>540.5</ele>
        <time>1970-01-01T00:00:00Z</time>
      </trkpt>
      <trkpt lat="39.450230" lon="-5.211830">
        <ele>540.5</ele>
        <time>1970-01-01T00:00:00Z</time>
      </trkpt>
      <trkpt lat="39.450230" lon="-5.211830">
        <ele>540.5</ele>
        <time>1970-01-01T00:00:00Z</time>
      </trkpt>
      <trkpt lat="39.450230" lon="-5.211830">
        <ele>540.5</ele>
        <time>1970-01-01T00:00:00Z</time>
      </trkpt>
      <trkpt lat="39.450242" lon="-5.211822">
        <ele>540.5</ele>
        <time>1970-01-01T00:00:00Z</time>
      </trkpt>
      <trkpt lat="39.450242" lon="-5.211822">
        <ele>540.5</ele>
        <time>1970-01-01T00:00:00Z</time>
      </trkpt>
      <trkpt lat="39.450242" lon="-5.211822">
        <ele>540.5</ele>
        <time>1970-01-01T00:00:00Z</time>
      </trkpt>
      <trkpt lat="39.450242" lon="-5.211822">
        <ele>540.5</ele>
        <time>1970-01-01T00:00:00Z</time>
      </trkpt>
      <trkpt lat="39.450337" lon="-5.211753">
        <ele>540.9</ele>
        <time>1970-01-01T00:00:00Z</time>
      </trkpt>
      <trkpt lat="39.450337" lon="-5.211753">
        <ele>540.9</ele>
        <time>1970-01-01T00:00:00Z</time>
      </trkpt>
      <trkpt lat="39.450337" lon="-5.211753">
        <ele>540.9</ele>
        <time>1970-01-01T00:00:00Z</time>
      </trkpt>
      <trkpt lat="39.450337" lon="-5.211753">
        <ele>540.9</ele>
        <time>1970-01-01T00:00:00Z</time>
      </trkpt>
      <trkpt lat="39.450339" lon="-5.211752">
        <ele>541.0</ele>
        <time>1970-01-01T00:00:00Z</time>
      </trkpt>
      <trkpt lat="39.450339" lon="-5.211752">
        <ele>541.0</ele>
        <time>1970-01-01T00:00:00Z</time>
      </trkpt>
      <trkpt lat="39.450339" lon="-5.211752">
        <ele>541.0</ele>
        <time>1970-01-01T00:00:00Z</time>
      </trkpt>
      <trkpt lat="39.450339" lon="-5.211752">
        <ele>541.0</ele>
        <time>1970-01-01T00:00:00Z</time>
      </trkpt>
      <trkpt lat="39.450355" lon="-5.211740">
        <ele>541.0</ele>
        <time>1970-01-01T00:00:00Z</time>
      </trkpt>
      <trkpt lat="39.450355" lon="-5.211740">
        <ele>541.0</ele>
        <time>1970-01-01T00:00:00Z</time>
      </trkpt>
      <trkpt lat="39.450355" lon="-5.211740">
        <ele>541.0</ele>
        <time>1970-01-01T00:00:00Z</time>
      </trkpt>
      <trkpt lat="39.450355" lon="-5.211740">
        <ele>541.0</ele>
        <time>1970-01-01T00:00:00Z</time>
      </trkpt>
      <trkpt lat="39.450520" lon="-5.211621">
        <ele>542.7</ele>
        <time>1970-01-01T00:00:00Z</time>
      </trkpt>
      <trkpt lat="39.450520" lon="-5.211621">
        <ele>542.7</ele>
        <time>1970-01-01T00:00:00Z</time>
      </trkpt>
      <trkpt lat="39.450520" lon="-5.211621">
        <ele>542.7</ele>
        <time>1970-01-01T00:00:00Z</time>
      </trkpt>
      <trkpt lat="39.450520" lon="-5.211621">
        <ele>542.7</ele>
        <time>1970-01-01T00:00:00Z</time>
      </trkpt>
      <trkpt lat="39.450535" lon="-5.211610">
        <ele>542.8</ele>
        <time>1970-01-01T00:00:00Z</time>
      </trkpt>
      <trkpt lat="39.450535" lon="-5.211610">
        <ele>542.8</ele>
        <time>1970-01-01T00:00:00Z</time>
      </trkpt>
      <trkpt lat="39.450535" lon="-5.211610">
        <ele>542.8</ele>
        <time>1970-01-01T00:00:00Z</time>
      </trkpt>
      <trkpt lat="39.450535" lon="-5.211610">
        <ele>542.8</ele>
        <time>1970-01-01T00:00:00Z</time>
      </trkpt>
      <trkpt lat="39.450576" lon="-5.211581">
        <ele>543.3</ele>
        <time>1970-01-01T00:00:00Z</time>
      </trkpt>
      <trkpt lat="39.450576" lon="-5.211581">
        <ele>543.3</ele>
        <time>1970-01-01T00:00:00Z</time>
      </trkpt>
      <trkpt lat="39.450576" lon="-5.211581">
        <ele>543.3</ele>
        <time>1970-01-01T00:00:00Z</time>
      </trkpt>
      <trkpt lat="39.450576" lon="-5.211581">
        <ele>543.3</ele>
        <time>1970-01-01T00:00:00Z</time>
      </trkpt>
      <trkpt lat="39.450593" lon="-5.211567">
        <ele>543.5</ele>
        <time>1970-01-01T00:00:00Z</time>
      </trkpt>
      <trkpt lat="39.450593" lon="-5.211567">
        <ele>543.5</ele>
        <time>1970-01-01T00:00:00Z</time>
      </trkpt>
      <trkpt lat="39.450593" lon="-5.211567">
        <ele>543.5</ele>
        <time>1970-01-01T00:00:00Z</time>
      </trkpt>
      <trkpt lat="39.450593" lon="-5.211567">
        <ele>543.5</ele>
        <time>1970-01-01T00:00:00Z</time>
      </trkpt>
      <trkpt lat="39.450602" lon="-5.211560">
        <ele>543.7</ele>
        <time>1970-01-01T00:00:00Z</time>
      </trkpt>
      <trkpt lat="39.450602" lon="-5.211560">
        <ele>543.7</ele>
        <time>1970-01-01T00:00:00Z</time>
      </trkpt>
      <trkpt lat="39.450602" lon="-5.211560">
        <ele>543.7</ele>
        <time>1970-01-01T00:00:00Z</time>
      </trkpt>
      <trkpt lat="39.450602" lon="-5.211560">
        <ele>543.7</ele>
        <time>1970-01-01T00:00:00Z</time>
      </trkpt>
      <trkpt lat="39.450615" lon="-5.211549">
        <ele>543.9</ele>
        <time>1970-01-01T00:00:00Z</time>
      </trkpt>
      <trkpt lat="39.450615" lon="-5.211549">
        <ele>543.9</ele>
        <time>1970-01-01T00:00:00Z</time>
      </trkpt>
      <trkpt lat="39.450615" lon="-5.211549">
        <ele>543.9</ele>
        <time>1970-01-01T00:00:00Z</time>
      </trkpt>
      <trkpt lat="39.450615" lon="-5.211549">
        <ele>543.9</ele>
        <time>1970-01-01T00:00:00Z</time>
      </trkpt>
      <trkpt lat="39.450747" lon="-5.211443">
        <ele>546.1</ele>
        <time>1970-01-01T00:00:00Z</time>
      </trkpt>
      <trkpt lat="39.450747" lon="-5.211443">
        <ele>546.1</ele>
        <time>1970-01-01T00:00:00Z</time>
      </trkpt>
      <trkpt lat="39.450747" lon="-5.211443">
        <ele>546.1</ele>
        <time>1970-01-01T00:00:00Z</time>
      </trkpt>
      <trkpt lat="39.450747" lon="-5.211443">
        <ele>546.1</ele>
        <time>1970-01-01T00:00:00Z</time>
      </trkpt>
      <trkpt lat="39.450794" lon="-5.211405">
        <ele>546.9</ele>
        <time>1970-01-01T00:00:00Z</time>
      </trkpt>
      <trkpt lat="39.450794" lon="-5.211405">
        <ele>546.9</ele>
        <time>1970-01-01T00:00:00Z</time>
      </trkpt>
      <trkpt lat="39.450794" lon="-5.211405">
        <ele>546.9</ele>
        <time>1970-01-01T00:00:00Z</time>
      </trkpt>
      <trkpt lat="39.450794" lon="-5.211405">
        <ele>546.9</ele>
        <time>1970-01-01T00:00:00Z</time>
      </trkpt>
      <trkpt lat="39.450830" lon="-5.211378">
        <ele>547.4</ele>
        <time>1970-01-01T00:00:00Z</time>
      </trkpt>
      <trkpt lat="39.450830" lon="-5.211378">
        <ele>547.4</ele>
        <time>1970-01-01T00:00:00Z</time>
      </trkpt>
      <trkpt lat="39.450830" lon="-5.211378">
        <ele>547.4</ele>
        <time>1970-01-01T00:00:00Z</time>
      </trkpt>
      <trkpt lat="39.450830" lon="-5.211378">
        <ele>547.4</ele>
        <time>1970-01-01T00:00:00Z</time>
      </trkpt>
      <trkpt lat="39.450879" lon="-5.211340">
        <ele>548.0</ele>
        <time>1970-01-01T00:00:00Z</time>
      </trkpt>
      <trkpt lat="39.450879" lon="-5.211340">
        <ele>548.0</ele>
        <time>1970-01-01T00:00:00Z</time>
      </trkpt>
      <trkpt lat="39.450879" lon="-5.211340">
        <ele>548.0</ele>
        <time>1970-01-01T00:00:00Z</time>
      </trkpt>
      <trkpt lat="39.450879" lon="-5.211340">
        <ele>548.0</ele>
        <time>1970-01-01T00:00:00Z</time>
      </trkpt>
      <trkpt lat="39.450907" lon="-5.211318">
        <ele>548.3</ele>
        <time>1970-01-01T00:00:00Z</time>
      </trkpt>
      <trkpt lat="39.450907" lon="-5.211318">
        <ele>548.3</ele>
        <time>1970-01-01T00:00:00Z</time>
      </trkpt>
      <trkpt lat="39.450907" lon="-5.211318">
        <ele>548.3</ele>
        <time>1970-01-01T00:00:00Z</time>
      </trkpt>
      <trkpt lat="39.450907" lon="-5.211318">
        <ele>548.3</ele>
        <time>1970-01-01T00:00:00Z</time>
      </trkpt>
      <trkpt lat="39.450937" lon="-5.211294">
        <ele>548.7</ele>
        <time>1970-01-01T00:00:00Z</time>
      </trkpt>
      <trkpt lat="39.450937" lon="-5.211294">
        <ele>548.7</ele>
        <time>1970-01-01T00:00:00Z</time>
      </trkpt>
      <trkpt lat="39.450937" lon="-5.211294">
        <ele>548.7</ele>
        <time>1970-01-01T00:00:00Z</time>
      </trkpt>
      <trkpt lat="39.450937" lon="-5.211294">
        <ele>548.7</ele>
        <time>1970-01-01T00:00:00Z</time>
      </trkpt>
      <trkpt lat="39.451084" lon="-5.211181">
        <ele>550.6</ele>
        <time>1970-01-01T00:00:00Z</time>
      </trkpt>
      <trkpt lat="39.451084" lon="-5.211181">
        <ele>550.6</ele>
        <time>1970-01-01T00:00:00Z</time>
      </trkpt>
      <trkpt lat="39.451084" lon="-5.211181">
        <ele>550.6</ele>
        <time>1970-01-01T00:00:00Z</time>
      </trkpt>
      <trkpt lat="39.451084" lon="-5.211181">
        <ele>550.6</ele>
        <time>1970-01-01T00:00:00Z</time>
      </trkpt>
      <trkpt lat="39.451091" lon="-5.211176">
        <ele>550.7</ele>
        <time>1970-01-01T00:00:00Z</time>
      </trkpt>
      <trkpt lat="39.451091" lon="-5.211176">
        <ele>550.7</ele>
        <time>1970-01-01T00:00:00Z</time>
      </trkpt>
      <trkpt lat="39.451091" lon="-5.211176">
        <ele>550.7</ele>
        <time>1970-01-01T00:00:00Z</time>
      </trkpt>
      <trkpt lat="39.451091" lon="-5.211176">
        <ele>550.7</ele>
        <time>1970-01-01T00:00:00Z</time>
      </trkpt>
      <trkpt lat="39.451181" lon="-5.211093">
        <ele>552.2</ele>
        <time>1970-01-01T00:00:00Z</time>
      </trkpt>
      <trkpt lat="39.451181" lon="-5.211093">
        <ele>552.2</ele>
        <time>1970-01-01T00:00:00Z</time>
      </trkpt>
      <trkpt lat="39.451181" lon="-5.211093">
        <ele>552.2</ele>
        <time>1970-01-01T00:00:00Z</time>
      </trkpt>
      <trkpt lat="39.451181" lon="-5.211093">
        <ele>552.2</ele>
        <time>1970-01-01T00:00:00Z</time>
      </trkpt>
      <trkpt lat="39.451276" lon="-5.211006">
        <ele>553.8</ele>
        <time>1970-01-01T00:00:00Z</time>
      </trkpt>
      <trkpt lat="39.451276" lon="-5.211006">
        <ele>553.8</ele>
        <time>1970-01-01T00:00:00Z</time>
      </trkpt>
      <trkpt lat="39.451276" lon="-5.211006">
        <ele>553.8</ele>
        <time>1970-01-01T00:00:00Z</time>
      </trkpt>
      <trkpt lat="39.451276" lon="-5.211006">
        <ele>553.8</ele>
        <time>1970-01-01T00:00:00Z</time>
      </trkpt>
      <trkpt lat="39.451314" lon="-5.210971">
        <ele>554.3</ele>
        <time>1970-01-01T00:00:00Z</time>
      </trkpt>
      <trkpt lat="39.451314" lon="-5.210971">
        <ele>554.3</ele>
        <time>1970-01-01T00:00:00Z</time>
      </trkpt>
      <trkpt lat="39.451314" lon="-5.210971">
        <ele>554.3</ele>
        <time>1970-01-01T00:00:00Z</time>
      </trkpt>
      <trkpt lat="39.451314" lon="-5.210971">
        <ele>554.3</ele>
        <time>1970-01-01T00:00:00Z</time>
      </trkpt>
      <trkpt lat="39.451358" lon="-5.210939">
        <ele>554.8</ele>
        <time>1970-01-01T00:00:00Z</time>
      </trkpt>
      <trkpt lat="39.451358" lon="-5.210939">
        <ele>554.8</ele>
        <time>1970-01-01T00:00:00Z</time>
      </trkpt>
      <trkpt lat="39.451358" lon="-5.210939">
        <ele>554.8</ele>
        <time>1970-01-01T00:00:00Z</time>
      </trkpt>
      <trkpt lat="39.451358" lon="-5.210939">
        <ele>554.8</ele>
        <time>1970-01-01T00:00:00Z</time>
      </trkpt>
      <trkpt lat="39.451426" lon="-5.210888">
        <ele>555.6</ele>
        <time>1970-01-01T00:00:00Z</time>
      </trkpt>
      <trkpt lat="39.451426" lon="-5.210888">
        <ele>555.6</ele>
        <time>1970-01-01T00:00:00Z</time>
      </trkpt>
      <trkpt lat="39.451426" lon="-5.210888">
        <ele>555.6</ele>
        <time>1970-01-01T00:00:00Z</time>
      </trkpt>
      <trkpt lat="39.451426" lon="-5.210888">
        <ele>555.6</ele>
        <time>1970-01-01T00:00:00Z</time>
      </trkpt>
      <trkpt lat="39.451558" lon="-5.210787">
        <ele>557.2</ele>
        <time>1970-01-01T00:00:00Z</time>
      </trkpt>
      <trkpt lat="39.451558" lon="-5.210787">
        <ele>557.2</ele>
        <time>1970-01-01T00:00:00Z</time>
      </trkpt>
      <trkpt lat="39.451558" lon="-5.210787">
        <ele>557.2</ele>
        <time>1970-01-01T00:00:00Z</time>
      </trkpt>
      <trkpt lat="39.451558" lon="-5.210787">
        <ele>557.2</ele>
        <time>1970-01-01T00:00:00Z</time>
      </trkpt>
      <trkpt lat="39.451751" lon="-5.210639">
        <ele>559.5</ele>
        <time>1970-01-01T00:00:00Z</time>
      </trkpt>
      <trkpt lat="39.451751" lon="-5.210639">
        <ele>559.5</ele>
        <time>1970-01-01T00:00:00Z</time>
      </trkpt>
      <trkpt lat="39.451751" lon="-5.210639">
        <ele>559.5</ele>
        <time>1970-01-01T00:00:00Z</time>
      </trkpt>
      <trkpt lat="39.451751" lon="-5.210639">
        <ele>559.5</ele>
        <time>1970-01-01T00:00:00Z</time>
      </trkpt>
      <trkpt lat="39.451779" lon="-5.210620">
        <ele>559.9</ele>
        <time>1970-01-01T00:00:00Z</time>
      </trkpt>
      <trkpt lat="39.451779" lon="-5.210620">
        <ele>559.9</ele>
        <time>1970-01-01T00:00:00Z</time>
      </trkpt>
      <trkpt lat="39.451779" lon="-5.210620">
        <ele>559.9</ele>
        <time>1970-01-01T00:00:00Z</time>
      </trkpt>
      <trkpt lat="39.451779" lon="-5.210620">
        <ele>559.9</ele>
        <time>1970-01-01T00:00:00Z</time>
      </trkpt>
      <trkpt lat="39.451849" lon="-5.210570">
        <ele>560.7</ele>
        <time>1970-01-01T00:00:00Z</time>
      </trkpt>
      <trkpt lat="39.451849" lon="-5.210570">
        <ele>560.7</ele>
        <time>1970-01-01T00:00:00Z</time>
      </trkpt>
      <trkpt lat="39.451849" lon="-5.210570">
        <ele>560.7</ele>
        <time>1970-01-01T00:00:00Z</time>
      </trkpt>
      <trkpt lat="39.451849" lon="-5.210570">
        <ele>560.7</ele>
        <time>1970-01-01T00:00:00Z</time>
      </trkpt>
      <trkpt lat="39.451871" lon="-5.210555">
        <ele>560.9</ele>
        <time>1970-01-01T00:00:00Z</time>
      </trkpt>
      <trkpt lat="39.451871" lon="-5.210555">
        <ele>560.9</ele>
        <time>1970-01-01T00:00:00Z</time>
      </trkpt>
      <trkpt lat="39.451871" lon="-5.210555">
        <ele>560.9</ele>
        <time>1970-01-01T00:00:00Z</time>
      </trkpt>
      <trkpt lat="39.451871" lon="-5.210555">
        <ele>560.9</ele>
        <time>1970-01-01T00:00:00Z</time>
      </trkpt>
      <trkpt lat="39.451893" lon="-5.210539">
        <ele>561.2</ele>
        <time>1970-01-01T00:00:00Z</time>
      </trkpt>
      <trkpt lat="39.451893" lon="-5.210539">
        <ele>561.2</ele>
        <time>1970-01-01T00:00:00Z</time>
      </trkpt>
      <trkpt lat="39.451893" lon="-5.210539">
        <ele>561.2</ele>
        <time>1970-01-01T00:00:00Z</time>
      </trkpt>
      <trkpt lat="39.451893" lon="-5.210539">
        <ele>561.2</ele>
        <time>1970-01-01T00:00:00Z</time>
      </trkpt>
      <trkpt lat="39.452063" lon="-5.210423">
        <ele>562.5</ele>
        <time>1970-01-01T00:00:00Z</time>
      </trkpt>
      <trkpt lat="39.452063" lon="-5.210423">
        <ele>562.5</ele>
        <time>1970-01-01T00:00:00Z</time>
      </trkpt>
      <trkpt lat="39.452063" lon="-5.210423">
        <ele>562.5</ele>
        <time>1970-01-01T00:00:00Z</time>
      </trkpt>
      <trkpt lat="39.452063" lon="-5.210423">
        <ele>562.5</ele>
        <time>1970-01-01T00:00:00Z</time>
      </trkpt>
      <trkpt lat="39.452182" lon="-5.210344">
        <ele>563.6</ele>
        <time>1970-01-01T00:00:00Z</time>
      </trkpt>
      <trkpt lat="39.452182" lon="-5.210344">
        <ele>563.6</ele>
        <time>1970-01-01T00:00:00Z</time>
      </trkpt>
      <trkpt lat="39.452182" lon="-5.210344">
        <ele>563.6</ele>
        <time>1970-01-01T00:00:00Z</time>
      </trkpt>
      <trkpt lat="39.452182" lon="-5.210344">
        <ele>563.6</ele>
        <time>1970-01-01T00:00:00Z</time>
      </trkpt>
      <trkpt lat="39.452261" lon="-5.210290">
        <ele>564.2</ele>
        <time>1970-01-01T00:00:00Z</time>
      </trkpt>
      <trkpt lat="39.452261" lon="-5.210290">
        <ele>564.2</ele>
        <time>1970-01-01T00:00:00Z</time>
      </trkpt>
      <trkpt lat="39.452261" lon="-5.210290">
        <ele>564.2</ele>
        <time>1970-01-01T00:00:00Z</time>
      </trkpt>
      <trkpt lat="39.452261" lon="-5.210290">
        <ele>564.2</ele>
        <time>1970-01-01T00:00:00Z</time>
      </trkpt>
      <trkpt lat="39.452465" lon="-5.210165">
        <ele>565.1</ele>
        <time>1970-01-01T00:00:00Z</time>
      </trkpt>
      <trkpt lat="39.452465" lon="-5.210165">
        <ele>565.1</ele>
        <time>1970-01-01T00:00:00Z</time>
      </trkpt>
      <trkpt lat="39.452465" lon="-5.210165">
        <ele>565.1</ele>
        <time>1970-01-01T00:00:00Z</time>
      </trkpt>
      <trkpt lat="39.452465" lon="-5.210165">
        <ele>565.1</ele>
        <time>1970-01-01T00:00:00Z</time>
      </trkpt>
      <trkpt lat="39.452488" lon="-5.210150">
        <ele>565.3</ele>
        <time>1970-01-01T00:00:00Z</time>
      </trkpt>
      <trkpt lat="39.452488" lon="-5.210150">
        <ele>565.3</ele>
        <time>1970-01-01T00:00:00Z</time>
      </trkpt>
      <trkpt lat="39.452488" lon="-5.210150">
        <ele>565.3</ele>
        <time>1970-01-01T00:00:00Z</time>
      </trkpt>
      <trkpt lat="39.452488" lon="-5.210150">
        <ele>565.3</ele>
        <time>1970-01-01T00:00:00Z</time>
      </trkpt>
      <trkpt lat="39.452544" lon="-5.210112">
        <ele>565.7</ele>
        <time>1970-01-01T00:00:00Z</time>
      </trkpt>
      <trkpt lat="39.452544" lon="-5.210112">
        <ele>565.7</ele>
        <time>1970-01-01T00:00:00Z</time>
      </trkpt>
      <trkpt lat="39.452544" lon="-5.210112">
        <ele>565.7</ele>
        <time>1970-01-01T00:00:00Z</time>
      </trkpt>
      <trkpt lat="39.452544" lon="-5.210112">
        <ele>565.7</ele>
        <time>1970-01-01T00:00:00Z</time>
      </trkpt>
      <trkpt lat="39.452568" lon="-5.210095">
        <ele>565.9</ele>
        <time>1970-01-01T00:00:00Z</time>
      </trkpt>
      <trkpt lat="39.452568" lon="-5.210095">
        <ele>565.9</ele>
        <time>1970-01-01T00:00:00Z</time>
      </trkpt>
      <trkpt lat="39.452568" lon="-5.210095">
        <ele>565.9</ele>
        <time>1970-01-01T00:00:00Z</time>
      </trkpt>
      <trkpt lat="39.452568" lon="-5.210095">
        <ele>565.9</ele>
        <time>1970-01-01T00:00:00Z</time>
      </trkpt>
      <trkpt lat="39.452611" lon="-5.210063">
        <ele>566.4</ele>
        <time>1970-01-01T00:00:00Z</time>
      </trkpt>
      <trkpt lat="39.452611" lon="-5.210063">
        <ele>566.4</ele>
        <time>1970-01-01T00:00:00Z</time>
      </trkpt>
      <trkpt lat="39.452611" lon="-5.210063">
        <ele>566.4</ele>
        <time>1970-01-01T00:00:00Z</time>
      </trkpt>
      <trkpt lat="39.452611" lon="-5.210063">
        <ele>566.4</ele>
        <time>1970-01-01T00:00:00Z</time>
      </trkpt>
      <trkpt lat="39.452639" lon="-5.210042">
        <ele>566.8</ele>
        <time>1970-01-01T00:00:00Z</time>
      </trkpt>
      <trkpt lat="39.452639" lon="-5.210042">
        <ele>566.8</ele>
        <time>1970-01-01T00:00:00Z</time>
      </trkpt>
      <trkpt lat="39.452639" lon="-5.210042">
        <ele>566.8</ele>
        <time>1970-01-01T00:00:00Z</time>
      </trkpt>
      <trkpt lat="39.452639" lon="-5.210042">
        <ele>566.8</ele>
        <time>1970-01-01T00:00:00Z</time>
      </trkpt>
      <trkpt lat="39.452669" lon="-5.210020">
        <ele>567.1</ele>
        <time>1970-01-01T00:00:00Z</time>
      </trkpt>
      <trkpt lat="39.452669" lon="-5.210020">
        <ele>567.1</ele>
        <time>1970-01-01T00:00:00Z</time>
      </trkpt>
      <trkpt lat="39.452669" lon="-5.210020">
        <ele>567.1</ele>
        <time>1970-01-01T00:00:00Z</time>
      </trkpt>
      <trkpt lat="39.452669" lon="-5.210020">
        <ele>567.1</ele>
        <time>1970-01-01T00:00:00Z</time>
      </trkpt>
      <trkpt lat="39.452699" lon="-5.209998">
        <ele>567.3</ele>
        <time>1970-01-01T00:00:00Z</time>
      </trkpt>
      <trkpt lat="39.452699" lon="-5.209998">
        <ele>567.3</ele>
        <time>1970-01-01T00:00:00Z</time>
      </trkpt>
      <trkpt lat="39.452699" lon="-5.209998">
        <ele>567.3</ele>
        <time>1970-01-01T00:00:00Z</time>
      </trkpt>
      <trkpt lat="39.452699" lon="-5.209998">
        <ele>567.3</ele>
        <time>1970-01-01T00:00:00Z</time>
      </trkpt>
      <trkpt lat="39.452718" lon="-5.209984">
        <ele>567.5</ele>
        <time>1970-01-01T00:00:00Z</time>
      </trkpt>
      <trkpt lat="39.452718" lon="-5.209984">
        <ele>567.5</ele>
        <time>1970-01-01T00:00:00Z</time>
      </trkpt>
      <trkpt lat="39.452718" lon="-5.209984">
        <ele>567.5</ele>
        <time>1970-01-01T00:00:00Z</time>
      </trkpt>
      <trkpt lat="39.452718" lon="-5.209984">
        <ele>567.5</ele>
        <time>1970-01-01T00:00:00Z</time>
      </trkpt>
      <trkpt lat="39.452749" lon="-5.209961">
        <ele>567.7</ele>
        <time>1970-01-01T00:00:00Z</time>
      </trkpt>
      <trkpt lat="39.452749" lon="-5.209961">
        <ele>567.7</ele>
        <time>1970-01-01T00:00:00Z</time>
      </trkpt>
      <trkpt lat="39.452749" lon="-5.209961">
        <ele>567.7</ele>
        <time>1970-01-01T00:00:00Z</time>
      </trkpt>
      <trkpt lat="39.452749" lon="-5.209961">
        <ele>567.7</ele>
        <time>1970-01-01T00:00:00Z</time>
      </trkpt>
      <trkpt lat="39.452761" lon="-5.209952">
        <ele>567.8</ele>
        <time>1970-01-01T00:00:00Z</time>
      </trkpt>
      <trkpt lat="39.452761" lon="-5.209952">
        <ele>567.8</ele>
        <time>1970-01-01T00:00:00Z</time>
      </trkpt>
      <trkpt lat="39.452761" lon="-5.209952">
        <ele>567.8</ele>
        <time>1970-01-01T00:00:00Z</time>
      </trkpt>
      <trkpt lat="39.452761" lon="-5.209952">
        <ele>567.8</ele>
        <time>1970-01-01T00:00:00Z</time>
      </trkpt>
      <trkpt lat="39.452799" lon="-5.209924">
        <ele>568.1</ele>
        <time>1970-01-01T00:00:00Z</time>
      </trkpt>
      <trkpt lat="39.452799" lon="-5.209924">
        <ele>568.1</ele>
        <time>1970-01-01T00:00:00Z</time>
      </trkpt>
      <trkpt lat="39.452799" lon="-5.209924">
        <ele>568.1</ele>
        <time>1970-01-01T00:00:00Z</time>
      </trkpt>
      <trkpt lat="39.452799" lon="-5.209924">
        <ele>568.1</ele>
        <time>1970-01-01T00:00:00Z</time>
      </trkpt>
      <trkpt lat="39.452805" lon="-5.209919">
        <ele>568.1</ele>
        <time>1970-01-01T00:00:00Z</time>
      </trkpt>
      <trkpt lat="39.452805" lon="-5.209919">
        <ele>568.1</ele>
        <time>1970-01-01T00:00:00Z</time>
      </trkpt>
      <trkpt lat="39.452805" lon="-5.209919">
        <ele>568.1</ele>
        <time>1970-01-01T00:00:00Z</time>
      </trkpt>
      <trkpt lat="39.452805" lon="-5.209919">
        <ele>568.1</ele>
        <time>1970-01-01T00:00:00Z</time>
      </trkpt>
      <trkpt lat="39.452844" lon="-5.209886">
        <ele>568.5</ele>
        <time>1970-01-01T00:00:00Z</time>
      </trkpt>
      <trkpt lat="39.452844" lon="-5.209886">
        <ele>568.5</ele>
        <time>1970-01-01T00:00:00Z</time>
      </trkpt>
      <trkpt lat="39.452844" lon="-5.209886">
        <ele>568.5</ele>
        <time>1970-01-01T00:00:00Z</time>
      </trkpt>
      <trkpt lat="39.452844" lon="-5.209886">
        <ele>568.5</ele>
        <time>1970-01-01T00:00:00Z</time>
      </trkpt>
      <trkpt lat="39.452985" lon="-5.209768">
        <ele>569.7</ele>
        <time>1970-01-01T00:00:00Z</time>
      </trkpt>
      <trkpt lat="39.452985" lon="-5.209768">
        <ele>569.7</ele>
        <time>1970-01-01T00:00:00Z</time>
      </trkpt>
      <trkpt lat="39.452985" lon="-5.209768">
        <ele>569.7</ele>
        <time>1970-01-01T00:00:00Z</time>
      </trkpt>
      <trkpt lat="39.452985" lon="-5.209768">
        <ele>569.7</ele>
        <time>1970-01-01T00:00:00Z</time>
      </trkpt>
      <trkpt lat="39.453094" lon="-5.209668">
        <ele>571.1</ele>
        <time>1970-01-01T00:00:00Z</time>
      </trkpt>
      <trkpt lat="39.453094" lon="-5.209668">
        <ele>571.1</ele>
        <time>1970-01-01T00:00:00Z</time>
      </trkpt>
      <trkpt lat="39.453094" lon="-5.209668">
        <ele>571.1</ele>
        <time>1970-01-01T00:00:00Z</time>
      </trkpt>
      <trkpt lat="39.453094" lon="-5.209668">
        <ele>571.1</ele>
        <time>1970-01-01T00:00:00Z</time>
      </trkpt>
      <trkpt lat="39.453217" lon="-5.209544">
        <ele>572.5</ele>
        <time>1970-01-01T00:00:00Z</time>
      </trkpt>
      <trkpt lat="39.453217" lon="-5.209544">
        <ele>572.5</ele>
        <time>1970-01-01T00:00:00Z</time>
      </trkpt>
      <trkpt lat="39.453217" lon="-5.209544">
        <ele>572.5</ele>
        <time>1970-01-01T00:00:00Z</time>
      </trkpt>
      <trkpt lat="39.453217" lon="-5.209544">
        <ele>572.5</ele>
        <time>1970-01-01T00:00:00Z</time>
      </trkpt>
      <trkpt lat="39.453281" lon="-5.209487">
        <ele>573.1</ele>
        <time>1970-01-01T00:00:00Z</time>
      </trkpt>
      <trkpt lat="39.453281" lon="-5.209487">
        <ele>573.1</ele>
        <time>1970-01-01T00:00:00Z</time>
      </trkpt>
      <trkpt lat="39.453281" lon="-5.209487">
        <ele>573.1</ele>
        <time>1970-01-01T00:00:00Z</time>
      </trkpt>
      <trkpt lat="39.453281" lon="-5.209487">
        <ele>573.1</ele>
        <time>1970-01-01T00:00:00Z</time>
      </trkpt>
      <trkpt lat="39.453326" lon="-5.209448">
        <ele>573.4</ele>
        <time>1970-01-01T00:00:00Z</time>
      </trkpt>
      <trkpt lat="39.453326" lon="-5.209448">
        <ele>573.4</ele>
        <time>1970-01-01T00:00:00Z</time>
      </trkpt>
      <trkpt lat="39.453326" lon="-5.209448">
        <ele>573.4</ele>
        <time>1970-01-01T00:00:00Z</time>
      </trkpt>
      <trkpt lat="39.453326" lon="-5.209448">
        <ele>573.4</ele>
        <time>1970-01-01T00:00:00Z</time>
      </trkpt>
      <trkpt lat="39.453401" lon="-5.209369">
        <ele>574.1</ele>
        <time>1970-01-01T00:00:00Z</time>
      </trkpt>
      <trkpt lat="39.453401" lon="-5.209369">
        <ele>574.1</ele>
        <time>1970-01-01T00:00:00Z</time>
      </trkpt>
      <trkpt lat="39.453401" lon="-5.209369">
        <ele>574.1</ele>
        <time>1970-01-01T00:00:00Z</time>
      </trkpt>
      <trkpt lat="39.453401" lon="-5.209369">
        <ele>574.1</ele>
        <time>1970-01-01T00:00:00Z</time>
      </trkpt>
      <trkpt lat="39.453423" lon="-5.209349">
        <ele>574.3</ele>
        <time>1970-01-01T00:00:00Z</time>
      </trkpt>
      <trkpt lat="39.453423" lon="-5.209349">
        <ele>574.3</ele>
        <time>1970-01-01T00:00:00Z</time>
      </trkpt>
      <trkpt lat="39.453423" lon="-5.209349">
        <ele>574.3</ele>
        <time>1970-01-01T00:00:00Z</time>
      </trkpt>
      <trkpt lat="39.453423" lon="-5.209349">
        <ele>574.3</ele>
        <time>1970-01-01T00:00:00Z</time>
      </trkpt>
      <trkpt lat="39.453458" lon="-5.209319">
        <ele>574.7</ele>
        <time>1970-01-01T00:00:00Z</time>
      </trkpt>
      <trkpt lat="39.453458" lon="-5.209319">
        <ele>574.7</ele>
        <time>1970-01-01T00:00:00Z</time>
      </trkpt>
      <trkpt lat="39.453458" lon="-5.209319">
        <ele>574.7</ele>
        <time>1970-01-01T00:00:00Z</time>
      </trkpt>
      <trkpt lat="39.453458" lon="-5.209319">
        <ele>574.7</ele>
        <time>1970-01-01T00:00:00Z</time>
      </trkpt>
      <trkpt lat="39.453562" lon="-5.209251">
        <ele>575.7</ele>
        <time>1970-01-01T00:00:00Z</time>
      </trkpt>
      <trkpt lat="39.453562" lon="-5.209251">
        <ele>575.7</ele>
        <time>1970-01-01T00:00:00Z</time>
      </trkpt>
      <trkpt lat="39.453562" lon="-5.209251">
        <ele>575.7</ele>
        <time>1970-01-01T00:00:00Z</time>
      </trkpt>
      <trkpt lat="39.453562" lon="-5.209251">
        <ele>575.7</ele>
        <time>1970-01-01T00:00:00Z</time>
      </trkpt>
      <trkpt lat="39.453628" lon="-5.209208">
        <ele>576.5</ele>
        <time>1970-01-01T00:00:00Z</time>
      </trkpt>
      <trkpt lat="39.453628" lon="-5.209208">
        <ele>576.5</ele>
        <time>1970-01-01T00:00:00Z</time>
      </trkpt>
      <trkpt lat="39.453628" lon="-5.209208">
        <ele>576.5</ele>
        <time>1970-01-01T00:00:00Z</time>
      </trkpt>
      <trkpt lat="39.453628" lon="-5.209208">
        <ele>576.5</ele>
        <time>1970-01-01T00:00:00Z</time>
      </trkpt>
      <trkpt lat="39.453717" lon="-5.209150">
        <ele>577.8</ele>
        <time>1970-01-01T00:00:00Z</time>
      </trkpt>
      <trkpt lat="39.453717" lon="-5.209150">
        <ele>577.8</ele>
        <time>1970-01-01T00:00:00Z</time>
      </trkpt>
      <trkpt lat="39.453717" lon="-5.209150">
        <ele>577.8</ele>
        <time>1970-01-01T00:00:00Z</time>
      </trkpt>
      <trkpt lat="39.453717" lon="-5.209150">
        <ele>577.8</ele>
        <time>1970-01-01T00:00:00Z</time>
      </trkpt>
      <trkpt lat="39.453759" lon="-5.209122">
        <ele>578.4</ele>
        <time>1970-01-01T00:00:00Z</time>
      </trkpt>
      <trkpt lat="39.453759" lon="-5.209122">
        <ele>578.4</ele>
        <time>1970-01-01T00:00:00Z</time>
      </trkpt>
      <trkpt lat="39.453759" lon="-5.209122">
        <ele>578.4</ele>
        <time>1970-01-01T00:00:00Z</time>
      </trkpt>
      <trkpt lat="39.453759" lon="-5.209122">
        <ele>578.4</ele>
        <time>1970-01-01T00:00:00Z</time>
      </trkpt>
      <trkpt lat="39.453851" lon="-5.209062">
        <ele>579.8</ele>
        <time>1970-01-01T00:00:00Z</time>
      </trkpt>
      <trkpt lat="39.453851" lon="-5.209062">
        <ele>579.8</ele>
        <time>1970-01-01T00:00:00Z</time>
      </trkpt>
      <trkpt lat="39.453851" lon="-5.209062">
        <ele>579.8</ele>
        <time>1970-01-01T00:00:00Z</time>
      </trkpt>
      <trkpt lat="39.453851" lon="-5.209062">
        <ele>579.8</ele>
        <time>1970-01-01T00:00:00Z</time>
      </trkpt>
      <trkpt lat="39.453894" lon="-5.209034">
        <ele>580.4</ele>
        <time>1970-01-01T00:00:00Z</time>
      </trkpt>
      <trkpt lat="39.453894" lon="-5.209034">
        <ele>580.4</ele>
        <time>1970-01-01T00:00:00Z</time>
      </trkpt>
      <trkpt lat="39.453894" lon="-5.209034">
        <ele>580.4</ele>
        <time>1970-01-01T00:00:00Z</time>
      </trkpt>
      <trkpt lat="39.453894" lon="-5.209034">
        <ele>580.4</ele>
        <time>1970-01-01T00:00:00Z</time>
      </trkpt>
      <trkpt lat="39.453945" lon="-5.209002">
        <ele>581.0</ele>
        <time>1970-01-01T00:00:00Z</time>
      </trkpt>
      <trkpt lat="39.453945" lon="-5.209002">
        <ele>581.0</ele>
        <time>1970-01-01T00:00:00Z</time>
      </trkpt>
      <trkpt lat="39.453945" lon="-5.209002">
        <ele>581.0</ele>
        <time>1970-01-01T00:00:00Z</time>
      </trkpt>
      <trkpt lat="39.453945" lon="-5.209002">
        <ele>581.0</ele>
        <time>1970-01-01T00:00:00Z</time>
      </trkpt>
      <trkpt lat="39.454017" lon="-5.208969">
        <ele>581.7</ele>
        <time>1970-01-01T00:00:00Z</time>
      </trkpt>
      <trkpt lat="39.454017" lon="-5.208969">
        <ele>581.7</ele>
        <time>1970-01-01T00:00:00Z</time>
      </trkpt>
      <trkpt lat="39.454017" lon="-5.208969">
        <ele>581.7</ele>
        <time>1970-01-01T00:00:00Z</time>
      </trkpt>
      <trkpt lat="39.454017" lon="-5.208969">
        <ele>581.7</ele>
        <time>1970-01-01T00:00:00Z</time>
      </trkpt>
      <trkpt lat="39.454186" lon="-5.208866">
        <ele>583.3</ele>
        <time>1970-01-01T00:00:00Z</time>
      </trkpt>
      <trkpt lat="39.454186" lon="-5.208866">
        <ele>583.3</ele>
        <time>1970-01-01T00:00:00Z</time>
      </trkpt>
      <trkpt lat="39.454186" lon="-5.208866">
        <ele>583.3</ele>
        <time>1970-01-01T00:00:00Z</time>
      </trkpt>
      <trkpt lat="39.454186" lon="-5.208866">
        <ele>583.3</ele>
        <time>1970-01-01T00:00:00Z</time>
      </trkpt>
      <trkpt lat="39.454237" lon="-5.208837">
        <ele>583.8</ele>
        <time>1970-01-01T00:00:00Z</time>
      </trkpt>
      <trkpt lat="39.454237" lon="-5.208837">
        <ele>583.8</ele>
        <time>1970-01-01T00:00:00Z</time>
      </trkpt>
      <trkpt lat="39.454237" lon="-5.208837">
        <ele>583.8</ele>
        <time>1970-01-01T00:00:00Z</time>
      </trkpt>
      <trkpt lat="39.454237" lon="-5.208837">
        <ele>583.8</ele>
        <time>1970-01-01T00:00:00Z</time>
      </trkpt>
      <trkpt lat="39.454298" lon="-5.208803">
        <ele>584.4</ele>
        <time>1970-01-01T00:00:00Z</time>
      </trkpt>
      <trkpt lat="39.454298" lon="-5.208803">
        <ele>584.4</ele>
        <time>1970-01-01T00:00:00Z</time>
      </trkpt>
      <trkpt lat="39.454298" lon="-5.208803">
        <ele>584.4</ele>
        <time>1970-01-01T00:00:00Z</time>
      </trkpt>
      <trkpt lat="39.454298" lon="-5.208803">
        <ele>584.4</ele>
        <time>1970-01-01T00:00:00Z</time>
      </trkpt>
      <trkpt lat="39.454433" lon="-5.208726">
        <ele>585.7</ele>
        <time>1970-01-01T00:00:00Z</time>
      </trkpt>
      <trkpt lat="39.454433" lon="-5.208726">
        <ele>585.7</ele>
        <time>1970-01-01T00:00:00Z</time>
      </trkpt>
      <trkpt lat="39.454433" lon="-5.208726">
        <ele>585.7</ele>
        <time>1970-01-01T00:00:00Z</time>
      </trkpt>
      <trkpt lat="39.454433" lon="-5.208726">
        <ele>585.7</ele>
        <time>1970-01-01T00:00:00Z</time>
      </trkpt>
      <trkpt lat="39.454468" lon="-5.208707">
        <ele>586.1</ele>
        <time>1970-01-01T00:00:00Z</time>
      </trkpt>
      <trkpt lat="39.454468" lon="-5.208707">
        <ele>586.1</ele>
        <time>1970-01-01T00:00:00Z</time>
      </trkpt>
      <trkpt lat="39.454468" lon="-5.208707">
        <ele>586.1</ele>
        <time>1970-01-01T00:00:00Z</time>
      </trkpt>
      <trkpt lat="39.454468" lon="-5.208707">
        <ele>586.1</ele>
        <time>1970-01-01T00:00:00Z</time>
      </trkpt>
      <trkpt lat="39.454558" lon="-5.208656">
        <ele>586.9</ele>
        <time>1970-01-01T00:00:00Z</time>
      </trkpt>
      <trkpt lat="39.454558" lon="-5.208656">
        <ele>586.9</ele>
        <time>1970-01-01T00:00:00Z</time>
      </trkpt>
      <trkpt lat="39.454558" lon="-5.208656">
        <ele>586.9</ele>
        <time>1970-01-01T00:00:00Z</time>
      </trkpt>
      <trkpt lat="39.454558" lon="-5.208656">
        <ele>586.9</ele>
        <time>1970-01-01T00:00:00Z</time>
      </trkpt>
      <trkpt lat="39.454583" lon="-5.208642">
        <ele>587.2</ele>
        <time>1970-01-01T00:00:00Z</time>
      </trkpt>
      <trkpt lat="39.454583" lon="-5.208642">
        <ele>587.2</ele>
        <time>1970-01-01T00:00:00Z</time>
      </trkpt>
      <trkpt lat="39.454583" lon="-5.208642">
        <ele>587.2</ele>
        <time>1970-01-01T00:00:00Z</time>
      </trkpt>
      <trkpt lat="39.454583" lon="-5.208642">
        <ele>587.2</ele>
        <time>1970-01-01T00:00:00Z</time>
      </trkpt>
      <trkpt lat="39.454605" lon="-5.208630">
        <ele>587.5</ele>
        <time>1970-01-01T00:00:00Z</time>
      </trkpt>
      <trkpt lat="39.454605" lon="-5.208630">
        <ele>587.5</ele>
        <time>1970-01-01T00:00:00Z</time>
      </trkpt>
      <trkpt lat="39.454605" lon="-5.208630">
        <ele>587.5</ele>
        <time>1970-01-01T00:00:00Z</time>
      </trkpt>
      <trkpt lat="39.454605" lon="-5.208630">
        <ele>587.5</ele>
        <time>1970-01-01T00:00:00Z</time>
      </trkpt>
      <trkpt lat="39.454662" lon="-5.208593">
        <ele>588.3</ele>
        <time>1970-01-01T00:00:00Z</time>
      </trkpt>
      <trkpt lat="39.454662" lon="-5.208593">
        <ele>588.3</ele>
        <time>1970-01-01T00:00:00Z</time>
      </trkpt>
      <trkpt lat="39.454662" lon="-5.208593">
        <ele>588.3</ele>
        <time>1970-01-01T00:00:00Z</time>
      </trkpt>
      <trkpt lat="39.454662" lon="-5.208593">
        <ele>588.3</ele>
        <time>1970-01-01T00:00:00Z</time>
      </trkpt>
      <trkpt lat="39.454811" lon="-5.208498">
        <ele>590.3</ele>
        <time>1970-01-01T00:00:00Z</time>
      </trkpt>
      <trkpt lat="39.454811" lon="-5.208498">
        <ele>590.3</ele>
        <time>1970-01-01T00:00:00Z</time>
      </trkpt>
      <trkpt lat="39.454811" lon="-5.208498">
        <ele>590.3</ele>
        <time>1970-01-01T00:00:00Z</time>
      </trkpt>
      <trkpt lat="39.454811" lon="-5.208498">
        <ele>590.3</ele>
        <time>1970-01-01T00:00:00Z</time>
      </trkpt>
      <trkpt lat="39.454865" lon="-5.208464">
        <ele>591.1</ele>
        <time>1970-01-01T00:00:00Z</time>
      </trkpt>
      <trkpt lat="39.454865" lon="-5.208464">
        <ele>591.1</ele>
        <time>1970-01-01T00:00:00Z</time>
      </trkpt>
      <trkpt lat="39.454865" lon="-5.208464">
        <ele>591.1</ele>
        <time>1970-01-01T00:00:00Z</time>
      </trkpt>
      <trkpt lat="39.454865" lon="-5.208464">
        <ele>591.1</ele>
        <time>1970-01-01T00:00:00Z</time>
      </trkpt>
      <trkpt lat="39.454951" lon="-5.208409">
        <ele>592.3</ele>
        <time>1970-01-01T00:00:00Z</time>
      </trkpt>
      <trkpt lat="39.454951" lon="-5.208409">
        <ele>592.3</ele>
        <time>1970-01-01T00:00:00Z</time>
      </trkpt>
      <trkpt lat="39.454951" lon="-5.208409">
        <ele>592.3</ele>
        <time>1970-01-01T00:00:00Z</time>
      </trkpt>
      <trkpt lat="39.454951" lon="-5.208409">
        <ele>592.3</ele>
        <time>1970-01-01T00:00:00Z</time>
      </trkpt>
      <trkpt lat="39.455006" lon="-5.208374">
        <ele>593.0</ele>
        <time>1970-01-01T00:00:00Z</time>
      </trkpt>
      <trkpt lat="39.455006" lon="-5.208374">
        <ele>593.0</ele>
        <time>1970-01-01T00:00:00Z</time>
      </trkpt>
      <trkpt lat="39.455006" lon="-5.208374">
        <ele>593.0</ele>
        <time>1970-01-01T00:00:00Z</time>
      </trkpt>
      <trkpt lat="39.455006" lon="-5.208374">
        <ele>593.0</ele>
        <time>1970-01-01T00:00:00Z</time>
      </trkpt>
      <trkpt lat="39.455061" lon="-5.208339">
        <ele>593.8</ele>
        <time>1970-01-01T00:00:00Z</time>
      </trkpt>
      <trkpt lat="39.455061" lon="-5.208339">
        <ele>593.8</ele>
        <time>1970-01-01T00:00:00Z</time>
      </trkpt>
      <trkpt lat="39.455061" lon="-5.208339">
        <ele>593.8</ele>
        <time>1970-01-01T00:00:00Z</time>
      </trkpt>
      <trkpt lat="39.455061" lon="-5.208339">
        <ele>593.8</ele>
        <time>1970-01-01T00:00:00Z</time>
      </trkpt>
      <trkpt lat="39.455161" lon="-5.208275">
        <ele>595.2</ele>
        <time>1970-01-01T00:00:00Z</time>
      </trkpt>
      <trkpt lat="39.455161" lon="-5.208275">
        <ele>595.2</ele>
        <time>1970-01-01T00:00:00Z</time>
      </trkpt>
      <trkpt lat="39.455161" lon="-5.208275">
        <ele>595.2</ele>
        <time>1970-01-01T00:00:00Z</time>
      </trkpt>
      <trkpt lat="39.455161" lon="-5.208275">
        <ele>595.2</ele>
        <time>1970-01-01T00:00:00Z</time>
      </trkpt>
      <trkpt lat="39.455201" lon="-5.208250">
        <ele>595.7</ele>
        <time>1970-01-01T00:00:00Z</time>
      </trkpt>
      <trkpt lat="39.455201" lon="-5.208250">
        <ele>595.7</ele>
        <time>1970-01-01T00:00:00Z</time>
      </trkpt>
      <trkpt lat="39.455201" lon="-5.208250">
        <ele>595.7</ele>
        <time>1970-01-01T00:00:00Z</time>
      </trkpt>
      <trkpt lat="39.455201" lon="-5.208250">
        <ele>595.7</ele>
        <time>1970-01-01T00:00:00Z</time>
      </trkpt>
      <trkpt lat="39.455306" lon="-5.208183">
        <ele>597.6</ele>
        <time>1970-01-01T00:00:00Z</time>
      </trkpt>
      <trkpt lat="39.455306" lon="-5.208183">
        <ele>597.6</ele>
        <time>1970-01-01T00:00:00Z</time>
      </trkpt>
      <trkpt lat="39.455306" lon="-5.208183">
        <ele>597.6</ele>
        <time>1970-01-01T00:00:00Z</time>
      </trkpt>
      <trkpt lat="39.455306" lon="-5.208183">
        <ele>597.6</ele>
        <time>1970-01-01T00:00:00Z</time>
      </trkpt>
      <trkpt lat="39.455364" lon="-5.208146">
        <ele>598.6</ele>
        <time>1970-01-01T00:00:00Z</time>
      </trkpt>
      <trkpt lat="39.455364" lon="-5.208146">
        <ele>598.6</ele>
        <time>1970-01-01T00:00:00Z</time>
      </trkpt>
      <trkpt lat="39.455364" lon="-5.208146">
        <ele>598.6</ele>
        <time>1970-01-01T00:00:00Z</time>
      </trkpt>
      <trkpt lat="39.455364" lon="-5.208146">
        <ele>598.6</ele>
        <time>1970-01-01T00:00:00Z</time>
      </trkpt>
      <trkpt lat="39.455390" lon="-5.208129">
        <ele>599.1</ele>
        <time>1970-01-01T00:00:00Z</time>
      </trkpt>
      <trkpt lat="39.455390" lon="-5.208129">
        <ele>599.1</ele>
        <time>1970-01-01T00:00:00Z</time>
      </trkpt>
      <trkpt lat="39.455390" lon="-5.208129">
        <ele>599.1</ele>
        <time>1970-01-01T00:00:00Z</time>
      </trkpt>
      <trkpt lat="39.455390" lon="-5.208129">
        <ele>599.1</ele>
        <time>1970-01-01T00:00:00Z</time>
      </trkpt>
      <trkpt lat="39.455406" lon="-5.208119">
        <ele>599.4</ele>
        <time>1970-01-01T00:00:00Z</time>
      </trkpt>
      <trkpt lat="39.455406" lon="-5.208119">
        <ele>599.4</ele>
        <time>1970-01-01T00:00:00Z</time>
      </trkpt>
      <trkpt lat="39.455406" lon="-5.208119">
        <ele>599.4</ele>
        <time>1970-01-01T00:00:00Z</time>
      </trkpt>
      <trkpt lat="39.455406" lon="-5.208119">
        <ele>599.4</ele>
        <time>1970-01-01T00:00:00Z</time>
      </trkpt>
      <trkpt lat="39.455462" lon="-5.208084">
        <ele>600.3</ele>
        <time>1970-01-01T00:00:00Z</time>
      </trkpt>
      <trkpt lat="39.455462" lon="-5.208084">
        <ele>600.3</ele>
        <time>1970-01-01T00:00:00Z</time>
      </trkpt>
      <trkpt lat="39.455462" lon="-5.208084">
        <ele>600.3</ele>
        <time>1970-01-01T00:00:00Z</time>
      </trkpt>
      <trkpt lat="39.455462" lon="-5.208084">
        <ele>600.3</ele>
        <time>1970-01-01T00:00:00Z</time>
      </trkpt>
      <trkpt lat="39.455520" lon="-5.208049">
        <ele>601.2</ele>
        <time>1970-01-01T00:00:00Z</time>
      </trkpt>
      <trkpt lat="39.455520" lon="-5.208049">
        <ele>601.2</ele>
        <time>1970-01-01T00:00:00Z</time>
      </trkpt>
      <trkpt lat="39.455520" lon="-5.208049">
        <ele>601.2</ele>
        <time>1970-01-01T00:00:00Z</time>
      </trkpt>
      <trkpt lat="39.455520" lon="-5.208049">
        <ele>601.2</ele>
        <time>1970-01-01T00:00:00Z</time>
      </trkpt>
      <trkpt lat="39.455620" lon="-5.207988">
        <ele>602.5</ele>
        <time>1970-01-01T00:00:00Z</time>
      </trkpt>
      <trkpt lat="39.455620" lon="-5.207988">
        <ele>602.5</ele>
        <time>1970-01-01T00:00:00Z</time>
      </trkpt>
      <trkpt lat="39.455620" lon="-5.207988">
        <ele>602.5</ele>
        <time>1970-01-01T00:00:00Z</time>
      </trkpt>
      <trkpt lat="39.455620" lon="-5.207988">
        <ele>602.5</ele>
        <time>1970-01-01T00:00:00Z</time>
      </trkpt>
      <trkpt lat="39.455741" lon="-5.207914">
        <ele>603.9</ele>
        <time>1970-01-01T00:00:00Z</time>
      </trkpt>
      <trkpt lat="39.455741" lon="-5.207914">
        <ele>603.9</ele>
        <time>1970-01-01T00:00:00Z</time>
      </trkpt>
      <trkpt lat="39.455741" lon="-5.207914">
        <ele>603.9</ele>
        <time>1970-01-01T00:00:00Z</time>
      </trkpt>
      <trkpt lat="39.455741" lon="-5.207914">
        <ele>603.9</ele>
        <time>1970-01-01T00:00:00Z</time>
      </trkpt>
      <trkpt lat="39.455800" lon="-5.207879">
        <ele>604.5</ele>
        <time>1970-01-01T00:00:00Z</time>
      </trkpt>
      <trkpt lat="39.455800" lon="-5.207879">
        <ele>604.5</ele>
        <time>1970-01-01T00:00:00Z</time>
      </trkpt>
      <trkpt lat="39.455800" lon="-5.207879">
        <ele>604.5</ele>
        <time>1970-01-01T00:00:00Z</time>
      </trkpt>
      <trkpt lat="39.455800" lon="-5.207879">
        <ele>604.5</ele>
        <time>1970-01-01T00:00:00Z</time>
      </trkpt>
      <trkpt lat="39.455884" lon="-5.207828">
        <ele>605.3</ele>
        <time>1970-01-01T00:00:00Z</time>
      </trkpt>
      <trkpt lat="39.455884" lon="-5.207828">
        <ele>605.3</ele>
        <time>1970-01-01T00:00:00Z</time>
      </trkpt>
      <trkpt lat="39.455884" lon="-5.207828">
        <ele>605.3</ele>
        <time>1970-01-01T00:00:00Z</time>
      </trkpt>
      <trkpt lat="39.455884" lon="-5.207828">
        <ele>605.3</ele>
        <time>1970-01-01T00:00:00Z</time>
      </trkpt>
      <trkpt lat="39.455923" lon="-5.207804">
        <ele>605.6</ele>
        <time>1970-01-01T00:00:00Z</time>
      </trkpt>
      <trkpt lat="39.455923" lon="-5.207804">
        <ele>605.6</ele>
        <time>1970-01-01T00:00:00Z</time>
      </trkpt>
      <trkpt lat="39.455923" lon="-5.207804">
        <ele>605.6</ele>
        <time>1970-01-01T00:00:00Z</time>
      </trkpt>
      <trkpt lat="39.455923" lon="-5.207804">
        <ele>605.6</ele>
        <time>1970-01-01T00:00:00Z</time>
      </trkpt>
      <trkpt lat="39.456047" lon="-5.207729">
        <ele>606.4</ele>
        <time>1970-01-01T00:00:00Z</time>
      </trkpt>
      <trkpt lat="39.456047" lon="-5.207729">
        <ele>606.4</ele>
        <time>1970-01-01T00:00:00Z</time>
      </trkpt>
      <trkpt lat="39.456047" lon="-5.207729">
        <ele>606.4</ele>
        <time>1970-01-01T00:00:00Z</time>
      </trkpt>
      <trkpt lat="39.456047" lon="-5.207729">
        <ele>606.4</ele>
        <time>1970-01-01T00:00:00Z</time>
      </trkpt>
      <trkpt lat="39.456090" lon="-5.207703">
        <ele>606.6</ele>
        <time>1970-01-01T00:00:00Z</time>
      </trkpt>
      <trkpt lat="39.456090" lon="-5.207703">
        <ele>606.6</ele>
        <time>1970-01-01T00:00:00Z</time>
      </trkpt>
      <trkpt lat="39.456090" lon="-5.207703">
        <ele>606.6</ele>
        <time>1970-01-01T00:00:00Z</time>
      </trkpt>
      <trkpt lat="39.456090" lon="-5.207703">
        <ele>606.6</ele>
        <time>1970-01-01T00:00:00Z</time>
      </trkpt>
      <trkpt lat="39.456131" lon="-5.207678">
        <ele>606.9</ele>
        <time>1970-01-01T00:00:00Z</time>
      </trkpt>
      <trkpt lat="39.456131" lon="-5.207678">
        <ele>606.9</ele>
        <time>1970-01-01T00:00:00Z</time>
      </trkpt>
      <trkpt lat="39.456131" lon="-5.207678">
        <ele>606.9</ele>
        <time>1970-01-01T00:00:00Z</time>
      </trkpt>
      <trkpt lat="39.456131" lon="-5.207678">
        <ele>606.9</ele>
        <time>1970-01-01T00:00:00Z</time>
      </trkpt>
      <trkpt lat="39.456172" lon="-5.207648">
        <ele>607.3</ele>
        <time>1970-01-01T00:00:00Z</time>
      </trkpt>
      <trkpt lat="39.456172" lon="-5.207648">
        <ele>607.3</ele>
        <time>1970-01-01T00:00:00Z</time>
      </trkpt>
      <trkpt lat="39.456172" lon="-5.207648">
        <ele>607.3</ele>
        <time>1970-01-01T00:00:00Z</time>
      </trkpt>
      <trkpt lat="39.456172" lon="-5.207648">
        <ele>607.3</ele>
        <time>1970-01-01T00:00:00Z</time>
      </trkpt>
      <trkpt lat="39.456201" lon="-5.207627">
        <ele>607.6</ele>
        <time>1970-01-01T00:00:00Z</time>
      </trkpt>
      <trkpt lat="39.456201" lon="-5.207627">
        <ele>607.6</ele>
        <time>1970-01-01T00:00:00Z</time>
      </trkpt>
      <trkpt lat="39.456201" lon="-5.207627">
        <ele>607.6</ele>
        <time>1970-01-01T00:00:00Z</time>
      </trkpt>
      <trkpt lat="39.456201" lon="-5.207627">
        <ele>607.6</ele>
        <time>1970-01-01T00:00:00Z</time>
      </trkpt>
      <trkpt lat="39.456260" lon="-5.207584">
        <ele>608.1</ele>
        <time>1970-01-01T00:00:00Z</time>
      </trkpt>
      <trkpt lat="39.456260" lon="-5.207584">
        <ele>608.1</ele>
        <time>1970-01-01T00:00:00Z</time>
      </trkpt>
      <trkpt lat="39.456260" lon="-5.207584">
        <ele>608.1</ele>
        <time>1970-01-01T00:00:00Z</time>
      </trkpt>
      <trkpt lat="39.456260" lon="-5.207584">
        <ele>608.1</ele>
        <time>1970-01-01T00:00:00Z</time>
      </trkpt>
      <trkpt lat="39.456281" lon="-5.207561">
        <ele>608.4</ele>
        <time>1970-01-01T00:00:00Z</time>
      </trkpt>
      <trkpt lat="39.456281" lon="-5.207561">
        <ele>608.4</ele>
        <time>1970-01-01T00:00:00Z</time>
      </trkpt>
      <trkpt lat="39.456281" lon="-5.207561">
        <ele>608.4</ele>
        <time>1970-01-01T00:00:00Z</time>
      </trkpt>
      <trkpt lat="39.456281" lon="-5.207561">
        <ele>608.4</ele>
        <time>1970-01-01T00:00:00Z</time>
      </trkpt>
      <trkpt lat="39.456323" lon="-5.207515">
        <ele>608.9</ele>
        <time>1970-01-01T00:00:00Z</time>
      </trkpt>
      <trkpt lat="39.456323" lon="-5.207515">
        <ele>608.9</ele>
        <time>1970-01-01T00:00:00Z</time>
      </trkpt>
      <trkpt lat="39.456323" lon="-5.207515">
        <ele>608.9</ele>
        <time>1970-01-01T00:00:00Z</time>
      </trkpt>
      <trkpt lat="39.456323" lon="-5.207515">
        <ele>608.9</ele>
        <time>1970-01-01T00:00:00Z</time>
      </trkpt>
      <trkpt lat="39.456349" lon="-5.207486">
        <ele>609.2</ele>
        <time>1970-01-01T00:00:00Z</time>
      </trkpt>
      <trkpt lat="39.456349" lon="-5.207486">
        <ele>609.2</ele>
        <time>1970-01-01T00:00:00Z</time>
      </trkpt>
      <trkpt lat="39.456349" lon="-5.207486">
        <ele>609.2</ele>
        <time>1970-01-01T00:00:00Z</time>
      </trkpt>
      <trkpt lat="39.456349" lon="-5.207486">
        <ele>609.2</ele>
        <time>1970-01-01T00:00:00Z</time>
      </trkpt>
      <trkpt lat="39.456373" lon="-5.207460">
        <ele>609.6</ele>
        <time>1970-01-01T00:00:00Z</time>
      </trkpt>
      <trkpt lat="39.456373" lon="-5.207460">
        <ele>609.6</ele>
        <time>1970-01-01T00:00:00Z</time>
      </trkpt>
      <trkpt lat="39.456373" lon="-5.207460">
        <ele>609.6</ele>
        <time>1970-01-01T00:00:00Z</time>
      </trkpt>
      <trkpt lat="39.456373" lon="-5.207460">
        <ele>609.6</ele>
        <time>1970-01-01T00:00:00Z</time>
      </trkpt>
      <trkpt lat="39.456386" lon="-5.207441">
        <ele>609.9</ele>
        <time>1970-01-01T00:00:00Z</time>
      </trkpt>
      <trkpt lat="39.456386" lon="-5.207441">
        <ele>609.9</ele>
        <time>1970-01-01T00:00:00Z</time>
      </trkpt>
      <trkpt lat="39.456386" lon="-5.207441">
        <ele>609.9</ele>
        <time>1970-01-01T00:00:00Z</time>
      </trkpt>
      <trkpt lat="39.456386" lon="-5.207441">
        <ele>609.9</ele>
        <time>1970-01-01T00:00:00Z</time>
      </trkpt>
      <trkpt lat="39.456405" lon="-5.207415">
        <ele>610.2</ele>
        <time>1970-01-01T00:00:00Z</time>
      </trkpt>
      <trkpt lat="39.456405" lon="-5.207415">
        <ele>610.2</ele>
        <time>1970-01-01T00:00:00Z</time>
      </trkpt>
      <trkpt lat="39.456405" lon="-5.207415">
        <ele>610.2</ele>
        <time>1970-01-01T00:00:00Z</time>
      </trkpt>
      <trkpt lat="39.456405" lon="-5.207415">
        <ele>610.2</ele>
        <time>1970-01-01T00:00:00Z</time>
      </trkpt>
      <trkpt lat="39.456455" lon="-5.207342">
        <ele>611.3</ele>
        <time>1970-01-01T00:00:00Z</time>
      </trkpt>
      <trkpt lat="39.456455" lon="-5.207342">
        <ele>611.3</ele>
        <time>1970-01-01T00:00:00Z</time>
      </trkpt>
      <trkpt lat="39.456455" lon="-5.207342">
        <ele>611.3</ele>
        <time>1970-01-01T00:00:00Z</time>
      </trkpt>
      <trkpt lat="39.456455" lon="-5.207342">
        <ele>611.3</ele>
        <time>1970-01-01T00:00:00Z</time>
      </trkpt>
      <trkpt lat="39.456472" lon="-5.207319">
        <ele>611.6</ele>
        <time>1970-01-01T00:00:00Z</time>
      </trkpt>
      <trkpt lat="39.456472" lon="-5.207319">
        <ele>611.6</ele>
        <time>1970-01-01T00:00:00Z</time>
      </trkpt>
      <trkpt lat="39.456472" lon="-5.207319">
        <ele>611.6</ele>
        <time>1970-01-01T00:00:00Z</time>
      </trkpt>
      <trkpt lat="39.456472" lon="-5.207319">
        <ele>611.6</ele>
        <time>1970-01-01T00:00:00Z</time>
      </trkpt>
      <trkpt lat="39.456486" lon="-5.207291">
        <ele>612.0</ele>
        <time>1970-01-01T00:00:00Z</time>
      </trkpt>
      <trkpt lat="39.456486" lon="-5.207291">
        <ele>612.0</ele>
        <time>1970-01-01T00:00:00Z</time>
      </trkpt>
      <trkpt lat="39.456486" lon="-5.207291">
        <ele>612.0</ele>
        <time>1970-01-01T00:00:00Z</time>
      </trkpt>
      <trkpt lat="39.456486" lon="-5.207291">
        <ele>612.0</ele>
        <time>1970-01-01T00:00:00Z</time>
      </trkpt>
      <trkpt lat="39.456523" lon="-5.207216">
        <ele>613.2</ele>
        <time>1970-01-01T00:00:00Z</time>
      </trkpt>
      <trkpt lat="39.456523" lon="-5.207216">
        <ele>613.2</ele>
        <time>1970-01-01T00:00:00Z</time>
      </trkpt>
      <trkpt lat="39.456523" lon="-5.207216">
        <ele>613.2</ele>
        <time>1970-01-01T00:00:00Z</time>
      </trkpt>
      <trkpt lat="39.456523" lon="-5.207216">
        <ele>613.2</ele>
        <time>1970-01-01T00:00:00Z</time>
      </trkpt>
      <trkpt lat="39.456542" lon="-5.207179">
        <ele>613.8</ele>
        <time>1970-01-01T00:00:00Z</time>
      </trkpt>
      <trkpt lat="39.456542" lon="-5.207179">
        <ele>613.8</ele>
        <time>1970-01-01T00:00:00Z</time>
      </trkpt>
      <trkpt lat="39.456542" lon="-5.207179">
        <ele>613.8</ele>
        <time>1970-01-01T00:00:00Z</time>
      </trkpt>
      <trkpt lat="39.456542" lon="-5.207179">
        <ele>613.8</ele>
        <time>1970-01-01T00:00:00Z</time>
      </trkpt>
      <trkpt lat="39.456571" lon="-5.207122">
        <ele>614.7</ele>
        <time>1970-01-01T00:00:00Z</time>
      </trkpt>
      <trkpt lat="39.456571" lon="-5.207122">
        <ele>614.7</ele>
        <time>1970-01-01T00:00:00Z</time>
      </trkpt>
      <trkpt lat="39.456571" lon="-5.207122">
        <ele>614.7</ele>
        <time>1970-01-01T00:00:00Z</time>
      </trkpt>
      <trkpt lat="39.456571" lon="-5.207122">
        <ele>614.7</ele>
        <time>1970-01-01T00:00:00Z</time>
      </trkpt>
      <trkpt lat="39.456591" lon="-5.207080">
        <ele>615.2</ele>
        <time>1970-01-01T00:00:00Z</time>
      </trkpt>
      <trkpt lat="39.456591" lon="-5.207080">
        <ele>615.2</ele>
        <time>1970-01-01T00:00:00Z</time>
      </trkpt>
      <trkpt lat="39.456591" lon="-5.207080">
        <ele>615.2</ele>
        <time>1970-01-01T00:00:00Z</time>
      </trkpt>
      <trkpt lat="39.456591" lon="-5.207080">
        <ele>615.2</ele>
        <time>1970-01-01T00:00:00Z</time>
      </trkpt>
      <trkpt lat="39.456642" lon="-5.206979">
        <ele>616.6</ele>
        <time>1970-01-01T00:00:00Z</time>
      </trkpt>
      <trkpt lat="39.456642" lon="-5.206979">
        <ele>616.6</ele>
        <time>1970-01-01T00:00:00Z</time>
      </trkpt>
      <trkpt lat="39.456642" lon="-5.206979">
        <ele>616.6</ele>
        <time>1970-01-01T00:00:00Z</time>
      </trkpt>
      <trkpt lat="39.456642" lon="-5.206979">
        <ele>616.6</ele>
        <time>1970-01-01T00:00:00Z</time>
      </trkpt>
      <trkpt lat="39.456683" lon="-5.206897">
        <ele>617.6</ele>
        <time>1970-01-01T00:00:00Z</time>
      </trkpt>
      <trkpt lat="39.456683" lon="-5.206897">
        <ele>617.6</ele>
        <time>1970-01-01T00:00:00Z</time>
      </trkpt>
      <trkpt lat="39.456683" lon="-5.206897">
        <ele>617.6</ele>
        <time>1970-01-01T00:00:00Z</time>
      </trkpt>
      <trkpt lat="39.456683" lon="-5.206897">
        <ele>617.6</ele>
        <time>1970-01-01T00:00:00Z</time>
      </trkpt>
      <trkpt lat="39.456741" lon="-5.206782">
        <ele>619.0</ele>
        <time>1970-01-01T00:00:00Z</time>
      </trkpt>
      <trkpt lat="39.456741" lon="-5.206782">
        <ele>619.0</ele>
        <time>1970-01-01T00:00:00Z</time>
      </trkpt>
      <trkpt lat="39.456741" lon="-5.206782">
        <ele>619.0</ele>
        <time>1970-01-01T00:00:00Z</time>
      </trkpt>
      <trkpt lat="39.456741" lon="-5.206782">
        <ele>619.0</ele>
        <time>1970-01-01T00:00:00Z</time>
      </trkpt>
      <trkpt lat="39.456752" lon="-5.206759">
        <ele>619.2</ele>
        <time>1970-01-01T00:00:00Z</time>
      </trkpt>
      <trkpt lat="39.456752" lon="-5.206759">
        <ele>619.2</ele>
        <time>1970-01-01T00:00:00Z</time>
      </trkpt>
      <trkpt lat="39.456752" lon="-5.206759">
        <ele>619.2</ele>
        <time>1970-01-01T00:00:00Z</time>
      </trkpt>
      <trkpt lat="39.456752" lon="-5.206759">
        <ele>619.2</ele>
        <time>1970-01-01T00:00:00Z</time>
      </trkpt>
      <trkpt lat="39.456795" lon="-5.206681">
        <ele>619.9</ele>
        <time>1970-01-01T00:00:00Z</time>
      </trkpt>
      <trkpt lat="39.456795" lon="-5.206681">
        <ele>619.9</ele>
        <time>1970-01-01T00:00:00Z</time>
      </trkpt>
      <trkpt lat="39.456795" lon="-5.206681">
        <ele>619.9</ele>
        <time>1970-01-01T00:00:00Z</time>
      </trkpt>
      <trkpt lat="39.456795" lon="-5.206681">
        <ele>619.9</ele>
        <time>1970-01-01T00:00:00Z</time>
      </trkpt>
      <trkpt lat="39.456829" lon="-5.206620">
        <ele>620.4</ele>
        <time>1970-01-01T00:00:00Z</time>
      </trkpt>
      <trkpt lat="39.456829" lon="-5.206620">
        <ele>620.4</ele>
        <time>1970-01-01T00:00:00Z</time>
      </trkpt>
      <trkpt lat="39.456829" lon="-5.206620">
        <ele>620.4</ele>
        <time>1970-01-01T00:00:00Z</time>
      </trkpt>
      <trkpt lat="39.456829" lon="-5.206620">
        <ele>620.4</ele>
        <time>1970-01-01T00:00:00Z</time>
      </trkpt>
      <trkpt lat="39.456844" lon="-5.206593">
        <ele>620.6</ele>
        <time>1970-01-01T00:00:00Z</time>
      </trkpt>
      <trkpt lat="39.456844" lon="-5.206593">
        <ele>620.6</ele>
        <time>1970-01-01T00:00:00Z</time>
      </trkpt>
      <trkpt lat="39.456844" lon="-5.206593">
        <ele>620.6</ele>
        <time>1970-01-01T00:00:00Z</time>
      </trkpt>
      <trkpt lat="39.456844" lon="-5.206593">
        <ele>620.6</ele>
        <time>1970-01-01T00:00:00Z</time>
      </trkpt>
      <trkpt lat="39.456882" lon="-5.206524">
        <ele>620.9</ele>
        <time>1970-01-01T00:00:00Z</time>
      </trkpt>
      <trkpt lat="39.456882" lon="-5.206524">
        <ele>620.9</ele>
        <time>1970-01-01T00:00:00Z</time>
      </trkpt>
      <trkpt lat="39.456882" lon="-5.206524">
        <ele>620.9</ele>
        <time>1970-01-01T00:00:00Z</time>
      </trkpt>
      <trkpt lat="39.456882" lon="-5.206524">
        <ele>620.9</ele>
        <time>1970-01-01T00:00:00Z</time>
      </trkpt>
      <trkpt lat="39.456908" lon="-5.206478">
        <ele>621.1</ele>
        <time>1970-01-01T00:00:00Z</time>
      </trkpt>
      <trkpt lat="39.456908" lon="-5.206478">
        <ele>621.1</ele>
        <time>1970-01-01T00:00:00Z</time>
      </trkpt>
      <trkpt lat="39.456908" lon="-5.206478">
        <ele>621.1</ele>
        <time>1970-01-01T00:00:00Z</time>
      </trkpt>
      <trkpt lat="39.456908" lon="-5.206478">
        <ele>621.1</ele>
        <time>1970-01-01T00:00:00Z</time>
      </trkpt>
      <trkpt lat="39.456924" lon="-5.206448">
        <ele>621.2</ele>
        <time>1970-01-01T00:00:00Z</time>
      </trkpt>
      <trkpt lat="39.456924" lon="-5.206448">
        <ele>621.2</ele>
        <time>1970-01-01T00:00:00Z</time>
      </trkpt>
      <trkpt lat="39.456924" lon="-5.206448">
        <ele>621.2</ele>
        <time>1970-01-01T00:00:00Z</time>
      </trkpt>
      <trkpt lat="39.456924" lon="-5.206448">
        <ele>621.2</ele>
        <time>1970-01-01T00:00:00Z</time>
      </trkpt>
      <trkpt lat="39.456934" lon="-5.206435">
        <ele>621.3</ele>
        <time>1970-01-01T00:00:00Z</time>
      </trkpt>
      <trkpt lat="39.456934" lon="-5.206435">
        <ele>621.3</ele>
        <time>1970-01-01T00:00:00Z</time>
      </trkpt>
      <trkpt lat="39.456934" lon="-5.206435">
        <ele>621.3</ele>
        <time>1970-01-01T00:00:00Z</time>
      </trkpt>
      <trkpt lat="39.456934" lon="-5.206435">
        <ele>621.3</ele>
        <time>1970-01-01T00:00:00Z</time>
      </trkpt>
      <trkpt lat="39.456940" lon="-5.206426">
        <ele>621.3</ele>
        <time>1970-01-01T00:00:00Z</time>
      </trkpt>
      <trkpt lat="39.456940" lon="-5.206426">
        <ele>621.3</ele>
        <time>1970-01-01T00:00:00Z</time>
      </trkpt>
      <trkpt lat="39.456940" lon="-5.206426">
        <ele>621.3</ele>
        <time>1970-01-01T00:00:00Z</time>
      </trkpt>
      <trkpt lat="39.456940" lon="-5.206426">
        <ele>621.3</ele>
        <time>1970-01-01T00:00:00Z</time>
      </trkpt>
      <trkpt lat="39.456946" lon="-5.206418">
        <ele>621.3</ele>
        <time>1970-01-01T00:00:00Z</time>
      </trkpt>
      <trkpt lat="39.456946" lon="-5.206418">
        <ele>621.3</ele>
        <time>1970-01-01T00:00:00Z</time>
      </trkpt>
      <trkpt lat="39.456946" lon="-5.206418">
        <ele>621.3</ele>
        <time>1970-01-01T00:00:00Z</time>
      </trkpt>
      <trkpt lat="39.456946" lon="-5.206418">
        <ele>621.3</ele>
        <time>1970-01-01T00:00:00Z</time>
      </trkpt>
      <trkpt lat="39.457017" lon="-5.206322">
        <ele>621.6</ele>
        <time>1970-01-01T00:00:00Z</time>
      </trkpt>
      <trkpt lat="39.457017" lon="-5.206322">
        <ele>621.6</ele>
        <time>1970-01-01T00:00:00Z</time>
      </trkpt>
      <trkpt lat="39.457017" lon="-5.206322">
        <ele>621.6</ele>
        <time>1970-01-01T00:00:00Z</time>
      </trkpt>
      <trkpt lat="39.457017" lon="-5.206322">
        <ele>621.6</ele>
        <time>1970-01-01T00:00:00Z</time>
      </trkpt>
      <trkpt lat="39.457035" lon="-5.206297">
        <ele>621.8</ele>
        <time>1970-01-01T00:00:00Z</time>
      </trkpt>
      <trkpt lat="39.457035" lon="-5.206297">
        <ele>621.8</ele>
        <time>1970-01-01T00:00:00Z</time>
      </trkpt>
      <trkpt lat="39.457035" lon="-5.206297">
        <ele>621.8</ele>
        <time>1970-01-01T00:00:00Z</time>
      </trkpt>
      <trkpt lat="39.457035" lon="-5.206297">
        <ele>621.8</ele>
        <time>1970-01-01T00:00:00Z</time>
      </trkpt>
      <trkpt lat="39.457075" lon="-5.206241">
        <ele>622.1</ele>
        <time>1970-01-01T00:00:00Z</time>
      </trkpt>
      <trkpt lat="39.457075" lon="-5.206241">
        <ele>622.1</ele>
        <time>1970-01-01T00:00:00Z</time>
      </trkpt>
      <trkpt lat="39.457075" lon="-5.206241">
        <ele>622.1</ele>
        <time>1970-01-01T00:00:00Z</time>
      </trkpt>
      <trkpt lat="39.457075" lon="-5.206241">
        <ele>622.1</ele>
        <time>1970-01-01T00:00:00Z</time>
      </trkpt>
      <trkpt lat="39.457087" lon="-5.206229">
        <ele>622.2</ele>
        <time>1970-01-01T00:00:00Z</time>
      </trkpt>
      <trkpt lat="39.457087" lon="-5.206229">
        <ele>622.2</ele>
        <time>1970-01-01T00:00:00Z</time>
      </trkpt>
      <trkpt lat="39.457087" lon="-5.206229">
        <ele>622.2</ele>
        <time>1970-01-01T00:00:00Z</time>
      </trkpt>
      <trkpt lat="39.457087" lon="-5.206229">
        <ele>622.2</ele>
        <time>1970-01-01T00:00:00Z</time>
      </trkpt>
      <trkpt lat="39.457107" lon="-5.206207">
        <ele>622.3</ele>
        <time>1970-01-01T00:00:00Z</time>
      </trkpt>
      <trkpt lat="39.457107" lon="-5.206207">
        <ele>622.3</ele>
        <time>1970-01-01T00:00:00Z</time>
      </trkpt>
      <trkpt lat="39.457107" lon="-5.206207">
        <ele>622.3</ele>
        <time>1970-01-01T00:00:00Z</time>
      </trkpt>
      <trkpt lat="39.457107" lon="-5.206207">
        <ele>622.3</ele>
        <time>1970-01-01T00:00:00Z</time>
      </trkpt>
      <trkpt lat="39.457184" lon="-5.206125">
        <ele>622.7</ele>
        <time>1970-01-01T00:00:00Z</time>
      </trkpt>
      <trkpt lat="39.457184" lon="-5.206125">
        <ele>622.7</ele>
        <time>1970-01-01T00:00:00Z</time>
      </trkpt>
      <trkpt lat="39.457184" lon="-5.206125">
        <ele>622.7</ele>
        <time>1970-01-01T00:00:00Z</time>
      </trkpt>
      <trkpt lat="39.457184" lon="-5.206125">
        <ele>622.7</ele>
        <time>1970-01-01T00:00:00Z</time>
      </trkpt>
      <trkpt lat="39.457189" lon="-5.206120">
        <ele>622.7</ele>
        <time>1970-01-01T00:00:00Z</time>
      </trkpt>
      <trkpt lat="39.457189" lon="-5.206120">
        <ele>622.7</ele>
        <time>1970-01-01T00:00:00Z</time>
      </trkpt>
      <trkpt lat="39.457189" lon="-5.206120">
        <ele>622.7</ele>
        <time>1970-01-01T00:00:00Z</time>
      </trkpt>
      <trkpt lat="39.457189" lon="-5.206120">
        <ele>622.7</ele>
        <time>1970-01-01T00:00:00Z</time>
      </trkpt>
      <trkpt lat="39.457274" lon="-5.206059">
        <ele>622.8</ele>
        <time>1970-01-01T00:00:00Z</time>
      </trkpt>
      <trkpt lat="39.457274" lon="-5.206059">
        <ele>622.8</ele>
        <time>1970-01-01T00:00:00Z</time>
      </trkpt>
      <trkpt lat="39.457274" lon="-5.206059">
        <ele>622.8</ele>
        <time>1970-01-01T00:00:00Z</time>
      </trkpt>
      <trkpt lat="39.457274" lon="-5.206059">
        <ele>622.8</ele>
        <time>1970-01-01T00:00:00Z</time>
      </trkpt>
      <trkpt lat="39.457391" lon="-5.205974">
        <ele>624.0</ele>
        <time>1970-01-01T00:00:00Z</time>
      </trkpt>
      <trkpt lat="39.457391" lon="-5.205974">
        <ele>624.0</ele>
        <time>1970-01-01T00:00:00Z</time>
      </trkpt>
      <trkpt lat="39.457391" lon="-5.205974">
        <ele>624.0</ele>
        <time>1970-01-01T00:00:00Z</time>
      </trkpt>
      <trkpt lat="39.457391" lon="-5.205974">
        <ele>624.0</ele>
        <time>1970-01-01T00:00:00Z</time>
      </trkpt>
      <trkpt lat="39.457421" lon="-5.205952">
        <ele>624.4</ele>
        <time>1970-01-01T00:00:00Z</time>
      </trkpt>
      <trkpt lat="39.457421" lon="-5.205952">
        <ele>624.4</ele>
        <time>1970-01-01T00:00:00Z</time>
      </trkpt>
      <trkpt lat="39.457421" lon="-5.205952">
        <ele>624.4</ele>
        <time>1970-01-01T00:00:00Z</time>
      </trkpt>
      <trkpt lat="39.457421" lon="-5.205952">
        <ele>624.4</ele>
        <time>1970-01-01T00:00:00Z</time>
      </trkpt>
      <trkpt lat="39.457469" lon="-5.205925">
        <ele>625.0</ele>
        <time>1970-01-01T00:00:00Z</time>
      </trkpt>
      <trkpt lat="39.457469" lon="-5.205925">
        <ele>625.0</ele>
        <time>1970-01-01T00:00:00Z</time>
      </trkpt>
      <trkpt lat="39.457469" lon="-5.205925">
        <ele>625.0</ele>
        <time>1970-01-01T00:00:00Z</time>
      </trkpt>
      <trkpt lat="39.457469" lon="-5.205925">
        <ele>625.0</ele>
        <time>1970-01-01T00:00:00Z</time>
      </trkpt>
      <trkpt lat="39.457605" lon="-5.205847">
        <ele>627.1</ele>
        <time>1970-01-01T00:00:00Z</time>
      </trkpt>
      <trkpt lat="39.457605" lon="-5.205847">
        <ele>627.1</ele>
        <time>1970-01-01T00:00:00Z</time>
      </trkpt>
      <trkpt lat="39.457605" lon="-5.205847">
        <ele>627.1</ele>
        <time>1970-01-01T00:00:00Z</time>
      </trkpt>
      <trkpt lat="39.457605" lon="-5.205847">
        <ele>627.1</ele>
        <time>1970-01-01T00:00:00Z</time>
      </trkpt>
      <trkpt lat="39.457650" lon="-5.205821">
        <ele>627.9</ele>
        <time>1970-01-01T00:00:00Z</time>
      </trkpt>
      <trkpt lat="39.457650" lon="-5.205821">
        <ele>627.9</ele>
        <time>1970-01-01T00:00:00Z</time>
      </trkpt>
      <trkpt lat="39.457650" lon="-5.205821">
        <ele>627.9</ele>
        <time>1970-01-01T00:00:00Z</time>
      </trkpt>
      <trkpt lat="39.457650" lon="-5.205821">
        <ele>627.9</ele>
        <time>1970-01-01T00:00:00Z</time>
      </trkpt>
      <trkpt lat="39.457688" lon="-5.205799">
        <ele>628.6</ele>
        <time>1970-01-01T00:00:00Z</time>
      </trkpt>
      <trkpt lat="39.457688" lon="-5.205799">
        <ele>628.6</ele>
        <time>1970-01-01T00:00:00Z</time>
      </trkpt>
      <trkpt lat="39.457688" lon="-5.205799">
        <ele>628.6</ele>
        <time>1970-01-01T00:00:00Z</time>
      </trkpt>
      <trkpt lat="39.457688" lon="-5.205799">
        <ele>628.6</ele>
        <time>1970-01-01T00:00:00Z</time>
      </trkpt>
      <trkpt lat="39.457713" lon="-5.205790">
        <ele>629.0</ele>
        <time>1970-01-01T00:00:00Z</time>
      </trkpt>
      <trkpt lat="39.457713" lon="-5.205790">
        <ele>629.0</ele>
        <time>1970-01-01T00:00:00Z</time>
      </trkpt>
      <trkpt lat="39.457713" lon="-5.205790">
        <ele>629.0</ele>
        <time>1970-01-01T00:00:00Z</time>
      </trkpt>
      <trkpt lat="39.457713" lon="-5.205790">
        <ele>629.0</ele>
        <time>1970-01-01T00:00:00Z</time>
      </trkpt>
      <trkpt lat="39.457722" lon="-5.205787">
        <ele>629.2</ele>
        <time>1970-01-01T00:00:00Z</time>
      </trkpt>
      <trkpt lat="39.457722" lon="-5.205787">
        <ele>629.2</ele>
        <time>1970-01-01T00:00:00Z</time>
      </trkpt>
      <trkpt lat="39.457722" lon="-5.205787">
        <ele>629.2</ele>
        <time>1970-01-01T00:00:00Z</time>
      </trkpt>
      <trkpt lat="39.457722" lon="-5.205787">
        <ele>629.2</ele>
        <time>1970-01-01T00:00:00Z</time>
      </trkpt>
      <trkpt lat="39.457789" lon="-5.205762">
        <ele>630.3</ele>
        <time>1970-01-01T00:00:00Z</time>
      </trkpt>
      <trkpt lat="39.457789" lon="-5.205762">
        <ele>630.3</ele>
        <time>1970-01-01T00:00:00Z</time>
      </trkpt>
      <trkpt lat="39.457789" lon="-5.205762">
        <ele>630.3</ele>
        <time>1970-01-01T00:00:00Z</time>
      </trkpt>
      <trkpt lat="39.457789" lon="-5.205762">
        <ele>630.3</ele>
        <time>1970-01-01T00:00:00Z</time>
      </trkpt>
      <trkpt lat="39.457968" lon="-5.205695">
        <ele>633.1</ele>
        <time>1970-01-01T00:00:00Z</time>
      </trkpt>
      <trkpt lat="39.457968" lon="-5.205695">
        <ele>633.1</ele>
        <time>1970-01-01T00:00:00Z</time>
      </trkpt>
      <trkpt lat="39.457968" lon="-5.205695">
        <ele>633.1</ele>
        <time>1970-01-01T00:00:00Z</time>
      </trkpt>
      <trkpt lat="39.457968" lon="-5.205695">
        <ele>633.1</ele>
        <time>1970-01-01T00:00:00Z</time>
      </trkpt>
      <trkpt lat="39.458042" lon="-5.205667">
        <ele>633.9</ele>
        <time>1970-01-01T00:00:00Z</time>
      </trkpt>
      <trkpt lat="39.458042" lon="-5.205667">
        <ele>633.9</ele>
        <time>1970-01-01T00:00:00Z</time>
      </trkpt>
      <trkpt lat="39.458042" lon="-5.205667">
        <ele>633.9</ele>
        <time>1970-01-01T00:00:00Z</time>
      </trkpt>
      <trkpt lat="39.458042" lon="-5.205667">
        <ele>633.9</ele>
        <time>1970-01-01T00:00:00Z</time>
      </trkpt>
      <trkpt lat="39.458301" lon="-5.205563">
        <ele>636.4</ele>
        <time>1970-01-01T00:00:00Z</time>
      </trkpt>
      <trkpt lat="39.458301" lon="-5.205563">
        <ele>636.4</ele>
        <time>1970-01-01T00:00:00Z</time>
      </trkpt>
      <trkpt lat="39.458301" lon="-5.205563">
        <ele>636.4</ele>
        <time>1970-01-01T00:00:00Z</time>
      </trkpt>
      <trkpt lat="39.458301" lon="-5.205563">
        <ele>636.4</ele>
        <time>1970-01-01T00:00:00Z</time>
      </trkpt>
      <trkpt lat="39.458448" lon="-5.205503">
        <ele>638.2</ele>
        <time>1970-01-01T00:00:00Z</time>
      </trkpt>
      <trkpt lat="39.458448" lon="-5.205503">
        <ele>638.2</ele>
        <time>1970-01-01T00:00:00Z</time>
      </trkpt>
      <trkpt lat="39.458448" lon="-5.205503">
        <ele>638.2</ele>
        <time>1970-01-01T00:00:00Z</time>
      </trkpt>
      <trkpt lat="39.458448" lon="-5.205503">
        <ele>638.2</ele>
        <time>1970-01-01T00:00:00Z</time>
      </trkpt>
      <trkpt lat="39.458466" lon="-5.205496">
        <ele>638.5</ele>
        <time>1970-01-01T00:00:00Z</time>
      </trkpt>
      <trkpt lat="39.458466" lon="-5.205496">
        <ele>638.5</ele>
        <time>1970-01-01T00:00:00Z</time>
      </trkpt>
      <trkpt lat="39.458466" lon="-5.205496">
        <ele>638.5</ele>
        <time>1970-01-01T00:00:00Z</time>
      </trkpt>
      <trkpt lat="39.458466" lon="-5.205496">
        <ele>638.5</ele>
        <time>1970-01-01T00:00:00Z</time>
      </trkpt>
      <trkpt lat="39.458669" lon="-5.205383">
        <ele>641.8</ele>
        <time>1970-01-01T00:00:00Z</time>
      </trkpt>
      <trkpt lat="39.458669" lon="-5.205383">
        <ele>641.8</ele>
        <time>1970-01-01T00:00:00Z</time>
      </trkpt>
      <trkpt lat="39.458669" lon="-5.205383">
        <ele>641.8</ele>
        <time>1970-01-01T00:00:00Z</time>
      </trkpt>
      <trkpt lat="39.458669" lon="-5.205383">
        <ele>641.8</ele>
        <time>1970-01-01T00:00:00Z</time>
      </trkpt>
      <trkpt lat="39.458836" lon="-5.205270">
        <ele>643.7</ele>
        <time>1970-01-01T00:00:00Z</time>
      </trkpt>
      <trkpt lat="39.458836" lon="-5.205270">
        <ele>643.7</ele>
        <time>1970-01-01T00:00:00Z</time>
      </trkpt>
      <trkpt lat="39.458836" lon="-5.205270">
        <ele>643.7</ele>
        <time>1970-01-01T00:00:00Z</time>
      </trkpt>
      <trkpt lat="39.458836" lon="-5.205270">
        <ele>643.7</ele>
        <time>1970-01-01T00:00:00Z</time>
      </trkpt>
      <trkpt lat="39.458862" lon="-5.205253">
        <ele>644.1</ele>
        <time>1970-01-01T00:00:00Z</time>
      </trkpt>
      <trkpt lat="39.458862" lon="-5.205253">
        <ele>644.1</ele>
        <time>1970-01-01T00:00:00Z</time>
      </trkpt>
      <trkpt lat="39.458862" lon="-5.205253">
        <ele>644.1</ele>
        <time>1970-01-01T00:00:00Z</time>
      </trkpt>
      <trkpt lat="39.458862" lon="-5.205253">
        <ele>644.1</ele>
        <time>1970-01-01T00:00:00Z</time>
      </trkpt>
      <trkpt lat="39.459012" lon="-5.205105">
        <ele>646.6</ele>
        <time>1970-01-01T00:00:00Z</time>
      </trkpt>
      <trkpt lat="39.459012" lon="-5.205105">
        <ele>646.6</ele>
        <time>1970-01-01T00:00:00Z</time>
      </trkpt>
      <trkpt lat="39.459012" lon="-5.205105">
        <ele>646.6</ele>
        <time>1970-01-01T00:00:00Z</time>
      </trkpt>
      <trkpt lat="39.459012" lon="-5.205105">
        <ele>646.6</ele>
        <time>1970-01-01T00:00:00Z</time>
      </trkpt>
      <trkpt lat="39.459117" lon="-5.204985">
        <ele>648.5</ele>
        <time>1970-01-01T00:00:00Z</time>
      </trkpt>
      <trkpt lat="39.459117" lon="-5.204985">
        <ele>648.5</ele>
        <time>1970-01-01T00:00:00Z</time>
      </trkpt>
      <trkpt lat="39.459117" lon="-5.204985">
        <ele>648.5</ele>
        <time>1970-01-01T00:00:00Z</time>
      </trkpt>
      <trkpt lat="39.459117" lon="-5.204985">
        <ele>648.5</ele>
        <time>1970-01-01T00:00:00Z</time>
      </trkpt>
      <trkpt lat="39.459233" lon="-5.204852">
        <ele>649.5</ele>
        <time>1970-01-01T00:00:00Z</time>
      </trkpt>
      <trkpt lat="39.459233" lon="-5.204852">
        <ele>649.5</ele>
        <time>1970-01-01T00:00:00Z</time>
      </trkpt>
      <trkpt lat="39.459233" lon="-5.204852">
        <ele>649.5</ele>
        <time>1970-01-01T00:00:00Z</time>
      </trkpt>
      <trkpt lat="39.459233" lon="-5.204852">
        <ele>649.5</ele>
        <time>1970-01-01T00:00:00Z</time>
      </trkpt>
      <trkpt lat="39.459298" lon="-5.204777">
        <ele>650.1</ele>
        <time>1970-01-01T00:00:00Z</time>
      </trkpt>
      <trkpt lat="39.459298" lon="-5.204777">
        <ele>650.1</ele>
        <time>1970-01-01T00:00:00Z</time>
      </trkpt>
      <trkpt lat="39.459298" lon="-5.204777">
        <ele>650.1</ele>
        <time>1970-01-01T00:00:00Z</time>
      </trkpt>
      <trkpt lat="39.459298" lon="-5.204777">
        <ele>650.1</ele>
        <time>1970-01-01T00:00:00Z</time>
      </trkpt>
      <trkpt lat="39.459305" lon="-5.204769">
        <ele>650.1</ele>
        <time>1970-01-01T00:00:00Z</time>
      </trkpt>
      <trkpt lat="39.459305" lon="-5.204769">
        <ele>650.1</ele>
        <time>1970-01-01T00:00:00Z</time>
      </trkpt>
      <trkpt lat="39.459305" lon="-5.204769">
        <ele>650.1</ele>
        <time>1970-01-01T00:00:00Z</time>
      </trkpt>
      <trkpt lat="39.459305" lon="-5.204769">
        <ele>650.1</ele>
        <time>1970-01-01T00:00:00Z</time>
      </trkpt>
      <trkpt lat="39.459374" lon="-5.204690">
        <ele>650.8</ele>
        <time>1970-01-01T00:00:00Z</time>
      </trkpt>
      <trkpt lat="39.459374" lon="-5.204690">
        <ele>650.8</ele>
        <time>1970-01-01T00:00:00Z</time>
      </trkpt>
      <trkpt lat="39.459374" lon="-5.204690">
        <ele>650.8</ele>
        <time>1970-01-01T00:00:00Z</time>
      </trkpt>
      <trkpt lat="39.459374" lon="-5.204690">
        <ele>650.8</ele>
        <time>1970-01-01T00:00:00Z</time>
      </trkpt>
      <trkpt lat="39.459388" lon="-5.204674">
        <ele>650.9</ele>
        <time>1970-01-01T00:00:00Z</time>
      </trkpt>
      <trkpt lat="39.459388" lon="-5.204674">
        <ele>650.9</ele>
        <time>1970-01-01T00:00:00Z</time>
      </trkpt>
      <trkpt lat="39.459388" lon="-5.204674">
        <ele>650.9</ele>
        <time>1970-01-01T00:00:00Z</time>
      </trkpt>
      <trkpt lat="39.459388" lon="-5.204674">
        <ele>650.9</ele>
        <time>1970-01-01T00:00:00Z</time>
      </trkpt>
      <trkpt lat="39.459451" lon="-5.204601">
        <ele>651.3</ele>
        <time>1970-01-01T00:00:00Z</time>
      </trkpt>
      <trkpt lat="39.459451" lon="-5.204601">
        <ele>651.3</ele>
        <time>1970-01-01T00:00:00Z</time>
      </trkpt>
      <trkpt lat="39.459451" lon="-5.204601">
        <ele>651.3</ele>
        <time>1970-01-01T00:00:00Z</time>
      </trkpt>
      <trkpt lat="39.459451" lon="-5.204601">
        <ele>651.3</ele>
        <time>1970-01-01T00:00:00Z</time>
      </trkpt>
      <trkpt lat="39.459465" lon="-5.204586">
        <ele>651.4</ele>
        <time>1970-01-01T00:00:00Z</time>
      </trkpt>
      <trkpt lat="39.459465" lon="-5.204586">
        <ele>651.4</ele>
        <time>1970-01-01T00:00:00Z</time>
      </trkpt>
      <trkpt lat="39.459465" lon="-5.204586">
        <ele>651.4</ele>
        <time>1970-01-01T00:00:00Z</time>
      </trkpt>
      <trkpt lat="39.459465" lon="-5.204586">
        <ele>651.4</ele>
        <time>1970-01-01T00:00:00Z</time>
      </trkpt>
      <trkpt lat="39.459505" lon="-5.204540">
        <ele>651.5</ele>
        <time>1970-01-01T00:00:00Z</time>
      </trkpt>
      <trkpt lat="39.459505" lon="-5.204540">
        <ele>651.5</ele>
        <time>1970-01-01T00:00:00Z</time>
      </trkpt>
      <trkpt lat="39.459505" lon="-5.204540">
        <ele>651.5</ele>
        <time>1970-01-01T00:00:00Z</time>
      </trkpt>
      <trkpt lat="39.459505" lon="-5.204540">
        <ele>651.5</ele>
        <time>1970-01-01T00:00:00Z</time>
      </trkpt>
      <trkpt lat="39.459540" lon="-5.204504">
        <ele>651.5</ele>
        <time>1970-01-01T00:00:00Z</time>
      </trkpt>
      <trkpt lat="39.459540" lon="-5.204504">
        <ele>651.5</ele>
        <time>1970-01-01T00:00:00Z</time>
      </trkpt>
      <trkpt lat="39.459540" lon="-5.204504">
        <ele>651.5</ele>
        <time>1970-01-01T00:00:00Z</time>
      </trkpt>
      <trkpt lat="39.459540" lon="-5.204504">
        <ele>651.5</ele>
        <time>1970-01-01T00:00:00Z</time>
      </trkpt>
      <trkpt lat="39.459564" lon="-5.204480">
        <ele>651.6</ele>
        <time>1970-01-01T00:00:00Z</time>
      </trkpt>
      <trkpt lat="39.459564" lon="-5.204480">
        <ele>651.6</ele>
        <time>1970-01-01T00:00:00Z</time>
      </trkpt>
      <trkpt lat="39.459564" lon="-5.204480">
        <ele>651.6</ele>
        <time>1970-01-01T00:00:00Z</time>
      </trkpt>
      <trkpt lat="39.459564" lon="-5.204480">
        <ele>651.6</ele>
        <time>1970-01-01T00:00:00Z</time>
      </trkpt>
      <trkpt lat="39.459663" lon="-5.204380">
        <ele>651.9</ele>
        <time>1970-01-01T00:00:00Z</time>
      </trkpt>
      <trkpt lat="39.459663" lon="-5.204380">
        <ele>651.9</ele>
        <time>1970-01-01T00:00:00Z</time>
      </trkpt>
      <trkpt lat="39.459663" lon="-5.204380">
        <ele>651.9</ele>
        <time>1970-01-01T00:00:00Z</time>
      </trkpt>
      <trkpt lat="39.459663" lon="-5.204380">
        <ele>651.9</ele>
        <time>1970-01-01T00:00:00Z</time>
      </trkpt>
      <trkpt lat="39.459699" lon="-5.204344">
        <ele>652.2</ele>
        <time>1970-01-01T00:00:00Z</time>
      </trkpt>
      <trkpt lat="39.459699" lon="-5.204344">
        <ele>652.2</ele>
        <time>1970-01-01T00:00:00Z</time>
      </trkpt>
      <trkpt lat="39.459699" lon="-5.204344">
        <ele>652.2</ele>
        <time>1970-01-01T00:00:00Z</time>
      </trkpt>
      <trkpt lat="39.459699" lon="-5.204344">
        <ele>652.2</ele>
        <time>1970-01-01T00:00:00Z</time>
      </trkpt>
      <trkpt lat="39.459799" lon="-5.204244">
        <ele>653.2</ele>
        <time>1970-01-01T00:00:00Z</time>
      </trkpt>
      <trkpt lat="39.459799" lon="-5.204244">
        <ele>653.2</ele>
        <time>1970-01-01T00:00:00Z</time>
      </trkpt>
      <trkpt lat="39.459799" lon="-5.204244">
        <ele>653.2</ele>
        <time>1970-01-01T00:00:00Z</time>
      </trkpt>
      <trkpt lat="39.459799" lon="-5.204244">
        <ele>653.2</ele>
        <time>1970-01-01T00:00:00Z</time>
      </trkpt>
      <trkpt lat="39.459848" lon="-5.204195">
        <ele>653.6</ele>
        <time>1970-01-01T00:00:00Z</time>
      </trkpt>
      <trkpt lat="39.459848" lon="-5.204195">
        <ele>653.6</ele>
        <time>1970-01-01T00:00:00Z</time>
      </trkpt>
      <trkpt lat="39.459848" lon="-5.204195">
        <ele>653.6</ele>
        <time>1970-01-01T00:00:00Z</time>
      </trkpt>
      <trkpt lat="39.459848" lon="-5.204195">
        <ele>653.6</ele>
        <time>1970-01-01T00:00:00Z</time>
      </trkpt>
      <trkpt lat="39.459924" lon="-5.204118">
        <ele>653.9</ele>
        <time>1970-01-01T00:00:00Z</time>
      </trkpt>
      <trkpt lat="39.459924" lon="-5.204118">
        <ele>653.9</ele>
        <time>1970-01-01T00:00:00Z</time>
      </trkpt>
      <trkpt lat="39.459924" lon="-5.204118">
        <ele>653.9</ele>
        <time>1970-01-01T00:00:00Z</time>
      </trkpt>
      <trkpt lat="39.459924" lon="-5.204118">
        <ele>653.9</ele>
        <time>1970-01-01T00:00:00Z</time>
      </trkpt>
      <trkpt lat="39.459958" lon="-5.204084">
        <ele>654.1</ele>
        <time>1970-01-01T00:00:00Z</time>
      </trkpt>
      <trkpt lat="39.459958" lon="-5.204084">
        <ele>654.1</ele>
        <time>1970-01-01T00:00:00Z</time>
      </trkpt>
      <trkpt lat="39.459958" lon="-5.204084">
        <ele>654.1</ele>
        <time>1970-01-01T00:00:00Z</time>
      </trkpt>
      <trkpt lat="39.459958" lon="-5.204084">
        <ele>654.1</ele>
        <time>1970-01-01T00:00:00Z</time>
      </trkpt>
      <trkpt lat="39.460041" lon="-5.203980">
        <ele>654.6</ele>
        <time>1970-01-01T00:00:00Z</time>
      </trkpt>
      <trkpt lat="39.460041" lon="-5.203980">
        <ele>654.6</ele>
        <time>1970-01-01T00:00:00Z</time>
      </trkpt>
      <trkpt lat="39.460041" lon="-5.203980">
        <ele>654.6</ele>
        <time>1970-01-01T00:00:00Z</time>
      </trkpt>
      <trkpt lat="39.460041" lon="-5.203980">
        <ele>654.6</ele>
        <time>1970-01-01T00:00:00Z</time>
      </trkpt>
      <trkpt lat="39.460091" lon="-5.203918">
        <ele>655.2</ele>
        <time>1970-01-01T00:00:00Z</time>
      </trkpt>
      <trkpt lat="39.460091" lon="-5.203918">
        <ele>655.2</ele>
        <time>1970-01-01T00:00:00Z</time>
      </trkpt>
      <trkpt lat="39.460091" lon="-5.203918">
        <ele>655.2</ele>
        <time>1970-01-01T00:00:00Z</time>
      </trkpt>
      <trkpt lat="39.460091" lon="-5.203918">
        <ele>655.2</ele>
        <time>1970-01-01T00:00:00Z</time>
      </trkpt>
      <trkpt lat="39.460164" lon="-5.203826">
        <ele>655.9</ele>
        <time>1970-01-01T00:00:00Z</time>
      </trkpt>
      <trkpt lat="39.460164" lon="-5.203826">
        <ele>655.9</ele>
        <time>1970-01-01T00:00:00Z</time>
      </trkpt>
      <trkpt lat="39.460164" lon="-5.203826">
        <ele>655.9</ele>
        <time>1970-01-01T00:00:00Z</time>
      </trkpt>
      <trkpt lat="39.460164" lon="-5.203826">
        <ele>655.9</ele>
        <time>1970-01-01T00:00:00Z</time>
      </trkpt>
      <trkpt lat="39.460191" lon="-5.203782">
        <ele>656.0</ele>
        <time>1970-01-01T00:00:00Z</time>
      </trkpt>
      <trkpt lat="39.460191" lon="-5.203782">
        <ele>656.0</ele>
        <time>1970-01-01T00:00:00Z</time>
      </trkpt>
      <trkpt lat="39.460191" lon="-5.203782">
        <ele>656.0</ele>
        <time>1970-01-01T00:00:00Z</time>
      </trkpt>
      <trkpt lat="39.460191" lon="-5.203782">
        <ele>656.0</ele>
        <time>1970-01-01T00:00:00Z</time>
      </trkpt>
      <trkpt lat="39.460239" lon="-5.203708">
        <ele>656.1</ele>
        <time>1970-01-01T00:00:00Z</time>
      </trkpt>
      <trkpt lat="39.460239" lon="-5.203708">
        <ele>656.1</ele>
        <time>1970-01-01T00:00:00Z</time>
      </trkpt>
      <trkpt lat="39.460239" lon="-5.203708">
        <ele>656.1</ele>
        <time>1970-01-01T00:00:00Z</time>
      </trkpt>
      <trkpt lat="39.460239" lon="-5.203708">
        <ele>656.1</ele>
        <time>1970-01-01T00:00:00Z</time>
      </trkpt>
      <trkpt lat="39.460293" lon="-5.203623">
        <ele>656.2</ele>
        <time>1970-01-01T00:00:00Z</time>
      </trkpt>
      <trkpt lat="39.460293" lon="-5.203623">
        <ele>656.2</ele>
        <time>1970-01-01T00:00:00Z</time>
      </trkpt>
      <trkpt lat="39.460293" lon="-5.203623">
        <ele>656.2</ele>
        <time>1970-01-01T00:00:00Z</time>
      </trkpt>
      <trkpt lat="39.460293" lon="-5.203623">
        <ele>656.2</ele>
        <time>1970-01-01T00:00:00Z</time>
      </trkpt>
      <trkpt lat="39.460303" lon="-5.203608">
        <ele>656.2</ele>
        <time>1970-01-01T00:00:00Z</time>
      </trkpt>
      <trkpt lat="39.460303" lon="-5.203608">
        <ele>656.2</ele>
        <time>1970-01-01T00:00:00Z</time>
      </trkpt>
      <trkpt lat="39.460303" lon="-5.203608">
        <ele>656.2</ele>
        <time>1970-01-01T00:00:00Z</time>
      </trkpt>
      <trkpt lat="39.460303" lon="-5.203608">
        <ele>656.2</ele>
        <time>1970-01-01T00:00:00Z</time>
      </trkpt>
      <trkpt lat="39.460330" lon="-5.203554">
        <ele>656.4</ele>
        <time>1970-01-01T00:00:00Z</time>
      </trkpt>
      <trkpt lat="39.460330" lon="-5.203554">
        <ele>656.4</ele>
        <time>1970-01-01T00:00:00Z</time>
      </trkpt>
      <trkpt lat="39.460330" lon="-5.203554">
        <ele>656.4</ele>
        <time>1970-01-01T00:00:00Z</time>
      </trkpt>
      <trkpt lat="39.460330" lon="-5.203554">
        <ele>656.4</ele>
        <time>1970-01-01T00:00:00Z</time>
      </trkpt>
      <trkpt lat="39.460348" lon="-5.203517">
        <ele>656.6</ele>
        <time>1970-01-01T00:00:00Z</time>
      </trkpt>
      <trkpt lat="39.460348" lon="-5.203517">
        <ele>656.6</ele>
        <time>1970-01-01T00:00:00Z</time>
      </trkpt>
      <trkpt lat="39.460348" lon="-5.203517">
        <ele>656.6</ele>
        <time>1970-01-01T00:00:00Z</time>
      </trkpt>
      <trkpt lat="39.460348" lon="-5.203517">
        <ele>656.6</ele>
        <time>1970-01-01T00:00:00Z</time>
      </trkpt>
      <trkpt lat="39.460422" lon="-5.203367">
        <ele>657.5</ele>
        <time>1970-01-01T00:00:00Z</time>
      </trkpt>
      <trkpt lat="39.460422" lon="-5.203367">
        <ele>657.5</ele>
        <time>1970-01-01T00:00:00Z</time>
      </trkpt>
      <trkpt lat="39.460422" lon="-5.203367">
        <ele>657.5</ele>
        <time>1970-01-01T00:00:00Z</time>
      </trkpt>
      <trkpt lat="39.460422" lon="-5.203367">
        <ele>657.5</ele>
        <time>1970-01-01T00:00:00Z</time>
      </trkpt>
      <trkpt lat="39.460428" lon="-5.203351">
        <ele>657.6</ele>
        <time>1970-01-01T00:00:00Z</time>
      </trkpt>
      <trkpt lat="39.460428" lon="-5.203351">
        <ele>657.6</ele>
        <time>1970-01-01T00:00:00Z</time>
      </trkpt>
      <trkpt lat="39.460428" lon="-5.203351">
        <ele>657.6</ele>
        <time>1970-01-01T00:00:00Z</time>
      </trkpt>
      <trkpt lat="39.460428" lon="-5.203351">
        <ele>657.6</ele>
        <time>1970-01-01T00:00:00Z</time>
      </trkpt>
      <trkpt lat="39.460439" lon="-5.203320">
        <ele>657.8</ele>
        <time>1970-01-01T00:00:00Z</time>
      </trkpt>
      <trkpt lat="39.460439" lon="-5.203320">
        <ele>657.8</ele>
        <time>1970-01-01T00:00:00Z</time>
      </trkpt>
      <trkpt lat="39.460439" lon="-5.203320">
        <ele>657.8</ele>
        <time>1970-01-01T00:00:00Z</time>
      </trkpt>
      <trkpt lat="39.460439" lon="-5.203320">
        <ele>657.8</ele>
        <time>1970-01-01T00:00:00Z</time>
      </trkpt>
      <trkpt lat="39.460458" lon="-5.203270">
        <ele>657.9</ele>
        <time>1970-01-01T00:00:00Z</time>
      </trkpt>
      <trkpt lat="39.460458" lon="-5.203270">
        <ele>657.9</ele>
        <time>1970-01-01T00:00:00Z</time>
      </trkpt>
      <trkpt lat="39.460458" lon="-5.203270">
        <ele>657.9</ele>
        <time>1970-01-01T00:00:00Z</time>
      </trkpt>
      <trkpt lat="39.460458" lon="-5.203270">
        <ele>657.9</ele>
        <time>1970-01-01T00:00:00Z</time>
      </trkpt>
      <trkpt lat="39.460486" lon="-5.203196">
        <ele>658.3</ele>
        <time>1970-01-01T00:00:00Z</time>
      </trkpt>
      <trkpt lat="39.460486" lon="-5.203196">
        <ele>658.3</ele>
        <time>1970-01-01T00:00:00Z</time>
      </trkpt>
      <trkpt lat="39.460486" lon="-5.203196">
        <ele>658.3</ele>
        <time>1970-01-01T00:00:00Z</time>
      </trkpt>
      <trkpt lat="39.460486" lon="-5.203196">
        <ele>658.3</ele>
        <time>1970-01-01T00:00:00Z</time>
      </trkpt>
      <trkpt lat="39.460494" lon="-5.203165">
        <ele>658.4</ele>
        <time>1970-01-01T00:00:00Z</time>
      </trkpt>
      <trkpt lat="39.460494" lon="-5.203165">
        <ele>658.4</ele>
        <time>1970-01-01T00:00:00Z</time>
      </trkpt>
      <trkpt lat="39.460494" lon="-5.203165">
        <ele>658.4</ele>
        <time>1970-01-01T00:00:00Z</time>
      </trkpt>
      <trkpt lat="39.460494" lon="-5.203165">
        <ele>658.4</ele>
        <time>1970-01-01T00:00:00Z</time>
      </trkpt>
      <trkpt lat="39.460510" lon="-5.203099">
        <ele>658.6</ele>
        <time>1970-01-01T00:00:00Z</time>
      </trkpt>
      <trkpt lat="39.460510" lon="-5.203099">
        <ele>658.6</ele>
        <time>1970-01-01T00:00:00Z</time>
      </trkpt>
      <trkpt lat="39.460510" lon="-5.203099">
        <ele>658.6</ele>
        <time>1970-01-01T00:00:00Z</time>
      </trkpt>
      <trkpt lat="39.460510" lon="-5.203099">
        <ele>658.6</ele>
        <time>1970-01-01T00:00:00Z</time>
      </trkpt>
      <trkpt lat="39.460536" lon="-5.202991">
        <ele>658.6</ele>
        <time>1970-01-01T00:00:00Z</time>
      </trkpt>
      <trkpt lat="39.460536" lon="-5.202991">
        <ele>658.6</ele>
        <time>1970-01-01T00:00:00Z</time>
      </trkpt>
      <trkpt lat="39.460536" lon="-5.202991">
        <ele>658.6</ele>
        <time>1970-01-01T00:00:00Z</time>
      </trkpt>
      <trkpt lat="39.460536" lon="-5.202991">
        <ele>658.6</ele>
        <time>1970-01-01T00:00:00Z</time>
      </trkpt>
      <trkpt lat="39.460553" lon="-5.202923">
        <ele>658.6</ele>
        <time>1970-01-01T00:00:00Z</time>
      </trkpt>
      <trkpt lat="39.460553" lon="-5.202923">
        <ele>658.6</ele>
        <time>1970-01-01T00:00:00Z</time>
      </trkpt>
      <trkpt lat="39.460553" lon="-5.202923">
        <ele>658.6</ele>
        <time>1970-01-01T00:00:00Z</time>
      </trkpt>
      <trkpt lat="39.460553" lon="-5.202923">
        <ele>658.6</ele>
        <time>1970-01-01T00:00:00Z</time>
      </trkpt>
      <trkpt lat="39.460562" lon="-5.202859">
        <ele>658.5</ele>
        <time>1970-01-01T00:00:00Z</time>
      </trkpt>
      <trkpt lat="39.460562" lon="-5.202859">
        <ele>658.5</ele>
        <time>1970-01-01T00:00:00Z</time>
      </trkpt>
      <trkpt lat="39.460562" lon="-5.202859">
        <ele>658.5</ele>
        <time>1970-01-01T00:00:00Z</time>
      </trkpt>
      <trkpt lat="39.460562" lon="-5.202859">
        <ele>658.5</ele>
        <time>1970-01-01T00:00:00Z</time>
      </trkpt>
      <trkpt lat="39.460578" lon="-5.202737">
        <ele>658.9</ele>
        <time>1970-01-01T00:00:00Z</time>
      </trkpt>
      <trkpt lat="39.460578" lon="-5.202737">
        <ele>658.9</ele>
        <time>1970-01-01T00:00:00Z</time>
      </trkpt>
      <trkpt lat="39.460578" lon="-5.202737">
        <ele>658.9</ele>
        <time>1970-01-01T00:00:00Z</time>
      </trkpt>
      <trkpt lat="39.460578" lon="-5.202737">
        <ele>658.9</ele>
        <time>1970-01-01T00:00:00Z</time>
      </trkpt>
      <trkpt lat="39.460589" lon="-5.202455">
        <ele>660.0</ele>
        <time>1970-01-01T00:00:00Z</time>
      </trkpt>
      <trkpt lat="39.460589" lon="-5.202455">
        <ele>660.0</ele>
        <time>1970-01-01T00:00:00Z</time>
      </trkpt>
      <trkpt lat="39.460589" lon="-5.202455">
        <ele>660.0</ele>
        <time>1970-01-01T00:00:00Z</time>
      </trkpt>
      <trkpt lat="39.460589" lon="-5.202455">
        <ele>660.0</ele>
        <time>1970-01-01T00:00:00Z</time>
      </trkpt>
      <trkpt lat="39.460588" lon="-5.202408">
        <ele>660.1</ele>
        <time>1970-01-01T00:00:00Z</time>
      </trkpt>
      <trkpt lat="39.460588" lon="-5.202408">
        <ele>660.1</ele>
        <time>1970-01-01T00:00:00Z</time>
      </trkpt>
      <trkpt lat="39.460588" lon="-5.202408">
        <ele>660.1</ele>
        <time>1970-01-01T00:00:00Z</time>
      </trkpt>
      <trkpt lat="39.460588" lon="-5.202408">
        <ele>660.1</ele>
        <time>1970-01-01T00:00:00Z</time>
      </trkpt>
      <trkpt lat="39.460587" lon="-5.202358">
        <ele>660.1</ele>
        <time>1970-01-01T00:00:00Z</time>
      </trkpt>
      <trkpt lat="39.460587" lon="-5.202358">
        <ele>660.1</ele>
        <time>1970-01-01T00:00:00Z</time>
      </trkpt>
      <trkpt lat="39.460587" lon="-5.202358">
        <ele>660.1</ele>
        <time>1970-01-01T00:00:00Z</time>
      </trkpt>
      <trkpt lat="39.460587" lon="-5.202358">
        <ele>660.1</ele>
        <time>1970-01-01T00:00:00Z</time>
      </trkpt>
      <trkpt lat="39.460586" lon="-5.202323">
        <ele>660.0</ele>
        <time>1970-01-01T00:00:00Z</time>
      </trkpt>
      <trkpt lat="39.460586" lon="-5.202323">
        <ele>660.0</ele>
        <time>1970-01-01T00:00:00Z</time>
      </trkpt>
      <trkpt lat="39.460586" lon="-5.202323">
        <ele>660.0</ele>
        <time>1970-01-01T00:00:00Z</time>
      </trkpt>
      <trkpt lat="39.460586" lon="-5.202323">
        <ele>660.0</ele>
        <time>1970-01-01T00:00:00Z</time>
      </trkpt>
      <trkpt lat="39.460585" lon="-5.202251">
        <ele>659.9</ele>
        <time>1970-01-01T00:00:00Z</time>
      </trkpt>
      <trkpt lat="39.460585" lon="-5.202251">
        <ele>659.9</ele>
        <time>1970-01-01T00:00:00Z</time>
      </trkpt>
      <trkpt lat="39.460585" lon="-5.202251">
        <ele>659.9</ele>
        <time>1970-01-01T00:00:00Z</time>
      </trkpt>
      <trkpt lat="39.460585" lon="-5.202251">
        <ele>659.9</ele>
        <time>1970-01-01T00:00:00Z</time>
      </trkpt>
      <trkpt lat="39.460582" lon="-5.202096">
        <ele>660.1</ele>
        <time>1970-01-01T00:00:00Z</time>
      </trkpt>
      <trkpt lat="39.460582" lon="-5.202096">
        <ele>660.1</ele>
        <time>1970-01-01T00:00:00Z</time>
      </trkpt>
      <trkpt lat="39.460582" lon="-5.202096">
        <ele>660.1</ele>
        <time>1970-01-01T00:00:00Z</time>
      </trkpt>
      <trkpt lat="39.460582" lon="-5.202096">
        <ele>660.1</ele>
        <time>1970-01-01T00:00:00Z</time>
      </trkpt>
      <trkpt lat="39.460580" lon="-5.201994">
        <ele>660.6</ele>
        <time>1970-01-01T00:00:00Z</time>
      </trkpt>
      <trkpt lat="39.460580" lon="-5.201994">
        <ele>660.6</ele>
        <time>1970-01-01T00:00:00Z</time>
      </trkpt>
      <trkpt lat="39.460580" lon="-5.201994">
        <ele>660.6</ele>
        <time>1970-01-01T00:00:00Z</time>
      </trkpt>
      <trkpt lat="39.460580" lon="-5.201994">
        <ele>660.6</ele>
        <time>1970-01-01T00:00:00Z</time>
      </trkpt>
      <trkpt lat="39.460572" lon="-5.201590">
        <ele>661.7</ele>
        <time>1970-01-01T00:00:00Z</time>
      </trkpt>
      <trkpt lat="39.460572" lon="-5.201590">
        <ele>661.7</ele>
        <time>1970-01-01T00:00:00Z</time>
      </trkpt>
      <trkpt lat="39.460572" lon="-5.201590">
        <ele>661.7</ele>
        <time>1970-01-01T00:00:00Z</time>
      </trkpt>
      <trkpt lat="39.460572" lon="-5.201590">
        <ele>661.7</ele>
        <time>1970-01-01T00:00:00Z</time>
      </trkpt>
      <trkpt lat="39.460573" lon="-5.201433">
        <ele>661.9</ele>
        <time>1970-01-01T00:00:00Z</time>
      </trkpt>
      <trkpt lat="39.460573" lon="-5.201433">
        <ele>661.9</ele>
        <time>1970-01-01T00:00:00Z</time>
      </trkpt>
      <trkpt lat="39.460573" lon="-5.201433">
        <ele>661.9</ele>
        <time>1970-01-01T00:00:00Z</time>
      </trkpt>
      <trkpt lat="39.460573" lon="-5.201433">
        <ele>661.9</ele>
        <time>1970-01-01T00:00:00Z</time>
      </trkpt>
      <trkpt lat="39.460574" lon="-5.201313">
        <ele>662.0</ele>
        <time>1970-01-01T00:00:00Z</time>
      </trkpt>
      <trkpt lat="39.460574" lon="-5.201313">
        <ele>662.0</ele>
        <time>1970-01-01T00:00:00Z</time>
      </trkpt>
      <trkpt lat="39.460574" lon="-5.201313">
        <ele>662.0</ele>
        <time>1970-01-01T00:00:00Z</time>
      </trkpt>
      <trkpt lat="39.460574" lon="-5.201313">
        <ele>662.0</ele>
        <time>1970-01-01T00:00:00Z</time>
      </trkpt>
      <trkpt lat="39.460574" lon="-5.201305">
        <ele>662.0</ele>
        <time>1970-01-01T00:00:00Z</time>
      </trkpt>
      <trkpt lat="39.460574" lon="-5.201305">
        <ele>662.0</ele>
        <time>1970-01-01T00:00:00Z</time>
      </trkpt>
      <trkpt lat="39.460574" lon="-5.201305">
        <ele>662.0</ele>
        <time>1970-01-01T00:00:00Z</time>
      </trkpt>
      <trkpt lat="39.460574" lon="-5.201305">
        <ele>662.0</ele>
        <time>1970-01-01T00:00:00Z</time>
      </trkpt>
      <trkpt lat="39.460576" lon="-5.201291">
        <ele>662.0</ele>
        <time>1970-01-01T00:00:00Z</time>
      </trkpt>
      <trkpt lat="39.460576" lon="-5.201291">
        <ele>662.0</ele>
        <time>1970-01-01T00:00:00Z</time>
      </trkpt>
      <trkpt lat="39.460576" lon="-5.201291">
        <ele>662.0</ele>
        <time>1970-01-01T00:00:00Z</time>
      </trkpt>
      <trkpt lat="39.460576" lon="-5.201291">
        <ele>662.0</ele>
        <time>1970-01-01T00:00:00Z</time>
      </trkpt>
      <trkpt lat="39.460582" lon="-5.201240">
        <ele>662.3</ele>
        <time>1970-01-01T00:00:00Z</time>
      </trkpt>
      <trkpt lat="39.460582" lon="-5.201240">
        <ele>662.3</ele>
        <time>1970-01-01T00:00:00Z</time>
      </trkpt>
      <trkpt lat="39.460582" lon="-5.201240">
        <ele>662.3</ele>
        <time>1970-01-01T00:00:00Z</time>
      </trkpt>
      <trkpt lat="39.460582" lon="-5.201240">
        <ele>662.3</ele>
        <time>1970-01-01T00:00:00Z</time>
      </trkpt>
      <trkpt lat="39.460589" lon="-5.201184">
        <ele>662.6</ele>
        <time>1970-01-01T00:00:00Z</time>
      </trkpt>
      <trkpt lat="39.460589" lon="-5.201184">
        <ele>662.6</ele>
        <time>1970-01-01T00:00:00Z</time>
      </trkpt>
      <trkpt lat="39.460589" lon="-5.201184">
        <ele>662.6</ele>
        <time>1970-01-01T00:00:00Z</time>
      </trkpt>
      <trkpt lat="39.460589" lon="-5.201184">
        <ele>662.6</ele>
        <time>1970-01-01T00:00:00Z</time>
      </trkpt>
      <trkpt lat="39.460601" lon="-5.201085">
        <ele>663.0</ele>
        <time>1970-01-01T00:00:00Z</time>
      </trkpt>
      <trkpt lat="39.460601" lon="-5.201085">
        <ele>663.0</ele>
        <time>1970-01-01T00:00:00Z</time>
      </trkpt>
      <trkpt lat="39.460601" lon="-5.201085">
        <ele>663.0</ele>
        <time>1970-01-01T00:00:00Z</time>
      </trkpt>
      <trkpt lat="39.460601" lon="-5.201085">
        <ele>663.0</ele>
        <time>1970-01-01T00:00:00Z</time>
      </trkpt>
      <trkpt lat="39.460609" lon="-5.201019">
        <ele>663.3</ele>
        <time>1970-01-01T00:00:00Z</time>
      </trkpt>
      <trkpt lat="39.460609" lon="-5.201019">
        <ele>663.3</ele>
        <time>1970-01-01T00:00:00Z</time>
      </trkpt>
      <trkpt lat="39.460609" lon="-5.201019">
        <ele>663.3</ele>
        <time>1970-01-01T00:00:00Z</time>
      </trkpt>
      <trkpt lat="39.460609" lon="-5.201019">
        <ele>663.3</ele>
        <time>1970-01-01T00:00:00Z</time>
      </trkpt>
      <trkpt lat="39.460621" lon="-5.200915">
        <ele>663.9</ele>
        <time>1970-01-01T00:00:00Z</time>
      </trkpt>
      <trkpt lat="39.460621" lon="-5.200915">
        <ele>663.9</ele>
        <time>1970-01-01T00:00:00Z</time>
      </trkpt>
      <trkpt lat="39.460621" lon="-5.200915">
        <ele>663.9</ele>
        <time>1970-01-01T00:00:00Z</time>
      </trkpt>
      <trkpt lat="39.460621" lon="-5.200915">
        <ele>663.9</ele>
        <time>1970-01-01T00:00:00Z</time>
      </trkpt>
      <trkpt lat="39.460636" lon="-5.200796">
        <ele>664.7</ele>
        <time>1970-01-01T00:00:00Z</time>
      </trkpt>
      <trkpt lat="39.460636" lon="-5.200796">
        <ele>664.7</ele>
        <time>1970-01-01T00:00:00Z</time>
      </trkpt>
      <trkpt lat="39.460636" lon="-5.200796">
        <ele>664.7</ele>
        <time>1970-01-01T00:00:00Z</time>
      </trkpt>
      <trkpt lat="39.460636" lon="-5.200796">
        <ele>664.7</ele>
        <time>1970-01-01T00:00:00Z</time>
      </trkpt>
      <trkpt lat="39.460685" lon="-5.200398">
        <ele>667.3</ele>
        <time>1970-01-01T00:00:00Z</time>
      </trkpt>
      <trkpt lat="39.460685" lon="-5.200398">
        <ele>667.3</ele>
        <time>1970-01-01T00:00:00Z</time>
      </trkpt>
      <trkpt lat="39.460685" lon="-5.200398">
        <ele>667.3</ele>
        <time>1970-01-01T00:00:00Z</time>
      </trkpt>
      <trkpt lat="39.460685" lon="-5.200398">
        <ele>667.3</ele>
        <time>1970-01-01T00:00:00Z</time>
      </trkpt>
      <trkpt lat="39.460688" lon="-5.200373">
        <ele>667.4</ele>
        <time>1970-01-01T00:00:00Z</time>
      </trkpt>
      <trkpt lat="39.460688" lon="-5.200373">
        <ele>667.4</ele>
        <time>1970-01-01T00:00:00Z</time>
      </trkpt>
      <trkpt lat="39.460688" lon="-5.200373">
        <ele>667.4</ele>
        <time>1970-01-01T00:00:00Z</time>
      </trkpt>
      <trkpt lat="39.460688" lon="-5.200373">
        <ele>667.4</ele>
        <time>1970-01-01T00:00:00Z</time>
      </trkpt>
      <trkpt lat="39.460692" lon="-5.200336">
        <ele>667.7</ele>
        <time>1970-01-01T00:00:00Z</time>
      </trkpt>
      <trkpt lat="39.460692" lon="-5.200336">
        <ele>667.7</ele>
        <time>1970-01-01T00:00:00Z</time>
      </trkpt>
      <trkpt lat="39.460692" lon="-5.200336">
        <ele>667.7</ele>
        <time>1970-01-01T00:00:00Z</time>
      </trkpt>
      <trkpt lat="39.460692" lon="-5.200336">
        <ele>667.7</ele>
        <time>1970-01-01T00:00:00Z</time>
      </trkpt>
      <trkpt lat="39.460698" lon="-5.200290">
        <ele>668.0</ele>
        <time>1970-01-01T00:00:00Z</time>
      </trkpt>
      <trkpt lat="39.460698" lon="-5.200290">
        <ele>668.0</ele>
        <time>1970-01-01T00:00:00Z</time>
      </trkpt>
      <trkpt lat="39.460698" lon="-5.200290">
        <ele>668.0</ele>
        <time>1970-01-01T00:00:00Z</time>
      </trkpt>
      <trkpt lat="39.460698" lon="-5.200290">
        <ele>668.0</ele>
        <time>1970-01-01T00:00:00Z</time>
      </trkpt>
      <trkpt lat="39.460711" lon="-5.200181">
        <ele>669.1</ele>
        <time>1970-01-01T00:00:00Z</time>
      </trkpt>
      <trkpt lat="39.460711" lon="-5.200181">
        <ele>669.1</ele>
        <time>1970-01-01T00:00:00Z</time>
      </trkpt>
      <trkpt lat="39.460711" lon="-5.200181">
        <ele>669.1</ele>
        <time>1970-01-01T00:00:00Z</time>
      </trkpt>
      <trkpt lat="39.460711" lon="-5.200181">
        <ele>669.1</ele>
        <time>1970-01-01T00:00:00Z</time>
      </trkpt>
      <trkpt lat="39.460734" lon="-5.199988">
        <ele>671.2</ele>
        <time>1970-01-01T00:00:00Z</time>
      </trkpt>
      <trkpt lat="39.460734" lon="-5.199988">
        <ele>671.2</ele>
        <time>1970-01-01T00:00:00Z</time>
      </trkpt>
      <trkpt lat="39.460734" lon="-5.199988">
        <ele>671.2</ele>
        <time>1970-01-01T00:00:00Z</time>
      </trkpt>
      <trkpt lat="39.460734" lon="-5.199988">
        <ele>671.2</ele>
        <time>1970-01-01T00:00:00Z</time>
      </trkpt>
      <trkpt lat="39.460764" lon="-5.199711">
        <ele>673.6</ele>
        <time>1970-01-01T00:00:00Z</time>
      </trkpt>
      <trkpt lat="39.460764" lon="-5.199711">
        <ele>673.6</ele>
        <time>1970-01-01T00:00:00Z</time>
      </trkpt>
      <trkpt lat="39.460764" lon="-5.199711">
        <ele>673.6</ele>
        <time>1970-01-01T00:00:00Z</time>
      </trkpt>
      <trkpt lat="39.460764" lon="-5.199711">
        <ele>673.6</ele>
        <time>1970-01-01T00:00:00Z</time>
      </trkpt>
      <trkpt lat="39.460772" lon="-5.199635">
        <ele>674.1</ele>
        <time>1970-01-01T00:00:00Z</time>
      </trkpt>
      <trkpt lat="39.460772" lon="-5.199635">
        <ele>674.1</ele>
        <time>1970-01-01T00:00:00Z</time>
      </trkpt>
      <trkpt lat="39.460772" lon="-5.199635">
        <ele>674.1</ele>
        <time>1970-01-01T00:00:00Z</time>
      </trkpt>
      <trkpt lat="39.460772" lon="-5.199635">
        <ele>674.1</ele>
        <time>1970-01-01T00:00:00Z</time>
      </trkpt>
      <trkpt lat="39.460776" lon="-5.199599">
        <ele>674.3</ele>
        <time>1970-01-01T00:00:00Z</time>
      </trkpt>
      <trkpt lat="39.460776" lon="-5.199599">
        <ele>674.3</ele>
        <time>1970-01-01T00:00:00Z</time>
      </trkpt>
      <trkpt lat="39.460776" lon="-5.199599">
        <ele>674.3</ele>
        <time>1970-01-01T00:00:00Z</time>
      </trkpt>
      <trkpt lat="39.460776" lon="-5.199599">
        <ele>674.3</ele>
        <time>1970-01-01T00:00:00Z</time>
      </trkpt>
      <trkpt lat="39.460782" lon="-5.199544">
        <ele>674.7</ele>
        <time>1970-01-01T00:00:00Z</time>
      </trkpt>
      <trkpt lat="39.460782" lon="-5.199544">
        <ele>674.7</ele>
        <time>1970-01-01T00:00:00Z</time>
      </trkpt>
      <trkpt lat="39.460782" lon="-5.199544">
        <ele>674.7</ele>
        <time>1970-01-01T00:00:00Z</time>
      </trkpt>
      <trkpt lat="39.460782" lon="-5.199544">
        <ele>674.7</ele>
        <time>1970-01-01T00:00:00Z</time>
      </trkpt>
      <trkpt lat="39.460795" lon="-5.199421">
        <ele>675.5</ele>
        <time>1970-01-01T00:00:00Z</time>
      </trkpt>
      <trkpt lat="39.460795" lon="-5.199421">
        <ele>675.5</ele>
        <time>1970-01-01T00:00:00Z</time>
      </trkpt>
      <trkpt lat="39.460795" lon="-5.199421">
        <ele>675.5</ele>
        <time>1970-01-01T00:00:00Z</time>
      </trkpt>
      <trkpt lat="39.460795" lon="-5.199421">
        <ele>675.5</ele>
        <time>1970-01-01T00:00:00Z</time>
      </trkpt>
      <trkpt lat="39.460825" lon="-5.199227">
        <ele>676.8</ele>
        <time>1970-01-01T00:00:00Z</time>
      </trkpt>
      <trkpt lat="39.460825" lon="-5.199227">
        <ele>676.8</ele>
        <time>1970-01-01T00:00:00Z</time>
      </trkpt>
      <trkpt lat="39.460825" lon="-5.199227">
        <ele>676.8</ele>
        <time>1970-01-01T00:00:00Z</time>
      </trkpt>
      <trkpt lat="39.460825" lon="-5.199227">
        <ele>676.8</ele>
        <time>1970-01-01T00:00:00Z</time>
      </trkpt>
      <trkpt lat="39.460834" lon="-5.199177">
        <ele>677.1</ele>
        <time>1970-01-01T00:00:00Z</time>
      </trkpt>
      <trkpt lat="39.460834" lon="-5.199177">
        <ele>677.1</ele>
        <time>1970-01-01T00:00:00Z</time>
      </trkpt>
      <trkpt lat="39.460834" lon="-5.199177">
        <ele>677.1</ele>
        <time>1970-01-01T00:00:00Z</time>
      </trkpt>
      <trkpt lat="39.460834" lon="-5.199177">
        <ele>677.1</ele>
        <time>1970-01-01T00:00:00Z</time>
      </trkpt>
      <trkpt lat="39.460886" lon="-5.198844">
        <ele>680.1</ele>
        <time>1970-01-01T00:00:00Z</time>
      </trkpt>
      <trkpt lat="39.460886" lon="-5.198844">
        <ele>680.1</ele>
        <time>1970-01-01T00:00:00Z</time>
      </trkpt>
      <trkpt lat="39.460886" lon="-5.198844">
        <ele>680.1</ele>
        <time>1970-01-01T00:00:00Z</time>
      </trkpt>
      <trkpt lat="39.460886" lon="-5.198844">
        <ele>680.1</ele>
        <time>1970-01-01T00:00:00Z</time>
      </trkpt>
      <trkpt lat="39.460895" lon="-5.198789">
        <ele>680.6</ele>
        <time>1970-01-01T00:00:00Z</time>
      </trkpt>
      <trkpt lat="39.460895" lon="-5.198789">
        <ele>680.6</ele>
        <time>1970-01-01T00:00:00Z</time>
      </trkpt>
      <trkpt lat="39.460895" lon="-5.198789">
        <ele>680.6</ele>
        <time>1970-01-01T00:00:00Z</time>
      </trkpt>
      <trkpt lat="39.460895" lon="-5.198789">
        <ele>680.6</ele>
        <time>1970-01-01T00:00:00Z</time>
      </trkpt>
      <trkpt lat="39.460898" lon="-5.198771">
        <ele>680.7</ele>
        <time>1970-01-01T00:00:00Z</time>
      </trkpt>
      <trkpt lat="39.460898" lon="-5.198771">
        <ele>680.7</ele>
        <time>1970-01-01T00:00:00Z</time>
      </trkpt>
      <trkpt lat="39.460898" lon="-5.198771">
        <ele>680.7</ele>
        <time>1970-01-01T00:00:00Z</time>
      </trkpt>
      <trkpt lat="39.460898" lon="-5.198771">
        <ele>680.7</ele>
        <time>1970-01-01T00:00:00Z</time>
      </trkpt>
      <trkpt lat="39.460899" lon="-5.198759">
        <ele>680.8</ele>
        <time>1970-01-01T00:00:00Z</time>
      </trkpt>
      <trkpt lat="39.460899" lon="-5.198759">
        <ele>680.8</ele>
        <time>1970-01-01T00:00:00Z</time>
      </trkpt>
      <trkpt lat="39.460899" lon="-5.198759">
        <ele>680.8</ele>
        <time>1970-01-01T00:00:00Z</time>
      </trkpt>
      <trkpt lat="39.460899" lon="-5.198759">
        <ele>680.8</ele>
        <time>1970-01-01T00:00:00Z</time>
      </trkpt>
      <trkpt lat="39.460911" lon="-5.198705">
        <ele>681.2</ele>
        <time>1970-01-01T00:00:00Z</time>
      </trkpt>
      <trkpt lat="39.460911" lon="-5.198705">
        <ele>681.2</ele>
        <time>1970-01-01T00:00:00Z</time>
      </trkpt>
      <trkpt lat="39.460911" lon="-5.198705">
        <ele>681.2</ele>
        <time>1970-01-01T00:00:00Z</time>
      </trkpt>
      <trkpt lat="39.460911" lon="-5.198705">
        <ele>681.2</ele>
        <time>1970-01-01T00:00:00Z</time>
      </trkpt>
      <trkpt lat="39.460924" lon="-5.198649">
        <ele>681.7</ele>
        <time>1970-01-01T00:00:00Z</time>
      </trkpt>
      <trkpt lat="39.460924" lon="-5.198649">
        <ele>681.7</ele>
        <time>1970-01-01T00:00:00Z</time>
      </trkpt>
      <trkpt lat="39.460924" lon="-5.198649">
        <ele>681.7</ele>
        <time>1970-01-01T00:00:00Z</time>
      </trkpt>
      <trkpt lat="39.460924" lon="-5.198649">
        <ele>681.7</ele>
        <time>1970-01-01T00:00:00Z</time>
      </trkpt>
      <trkpt lat="39.460935" lon="-5.198595">
        <ele>682.0</ele>
        <time>1970-01-01T00:00:00Z</time>
      </trkpt>
      <trkpt lat="39.460935" lon="-5.198595">
        <ele>682.0</ele>
        <time>1970-01-01T00:00:00Z</time>
      </trkpt>
      <trkpt lat="39.460935" lon="-5.198595">
        <ele>682.0</ele>
        <time>1970-01-01T00:00:00Z</time>
      </trkpt>
      <trkpt lat="39.460935" lon="-5.198595">
        <ele>682.0</ele>
        <time>1970-01-01T00:00:00Z</time>
      </trkpt>
      <trkpt lat="39.460952" lon="-5.198520">
        <ele>682.5</ele>
        <time>1970-01-01T00:00:00Z</time>
      </trkpt>
      <trkpt lat="39.460952" lon="-5.198520">
        <ele>682.5</ele>
        <time>1970-01-01T00:00:00Z</time>
      </trkpt>
      <trkpt lat="39.460952" lon="-5.198520">
        <ele>682.5</ele>
        <time>1970-01-01T00:00:00Z</time>
      </trkpt>
      <trkpt lat="39.460952" lon="-5.198520">
        <ele>682.5</ele>
        <time>1970-01-01T00:00:00Z</time>
      </trkpt>
      <trkpt lat="39.460966" lon="-5.198458">
        <ele>683.0</ele>
        <time>1970-01-01T00:00:00Z</time>
      </trkpt>
      <trkpt lat="39.460966" lon="-5.198458">
        <ele>683.0</ele>
        <time>1970-01-01T00:00:00Z</time>
      </trkpt>
      <trkpt lat="39.460966" lon="-5.198458">
        <ele>683.0</ele>
        <time>1970-01-01T00:00:00Z</time>
      </trkpt>
      <trkpt lat="39.460966" lon="-5.198458">
        <ele>683.0</ele>
        <time>1970-01-01T00:00:00Z</time>
      </trkpt>
      <trkpt lat="39.461020" lon="-5.198212">
        <ele>685.1</ele>
        <time>1970-01-01T00:00:00Z</time>
      </trkpt>
      <trkpt lat="39.461020" lon="-5.198212">
        <ele>685.1</ele>
        <time>1970-01-01T00:00:00Z</time>
      </trkpt>
      <trkpt lat="39.461020" lon="-5.198212">
        <ele>685.1</ele>
        <time>1970-01-01T00:00:00Z</time>
      </trkpt>
      <trkpt lat="39.461020" lon="-5.198212">
        <ele>685.1</ele>
        <time>1970-01-01T00:00:00Z</time>
      </trkpt>
      <trkpt lat="39.461036" lon="-5.198163">
        <ele>685.2</ele>
        <time>1970-01-01T00:00:00Z</time>
      </trkpt>
      <trkpt lat="39.461036" lon="-5.198163">
        <ele>685.2</ele>
        <time>1970-01-01T00:00:00Z</time>
      </trkpt>
      <trkpt lat="39.461036" lon="-5.198163">
        <ele>685.2</ele>
        <time>1970-01-01T00:00:00Z</time>
      </trkpt>
      <trkpt lat="39.461036" lon="-5.198163">
        <ele>685.2</ele>
        <time>1970-01-01T00:00:00Z</time>
      </trkpt>
      <trkpt lat="39.461060" lon="-5.198090">
        <ele>685.4</ele>
        <time>1970-01-01T00:00:00Z</time>
      </trkpt>
      <trkpt lat="39.461060" lon="-5.198090">
        <ele>685.4</ele>
        <time>1970-01-01T00:00:00Z</time>
      </trkpt>
      <trkpt lat="39.461060" lon="-5.198090">
        <ele>685.4</ele>
        <time>1970-01-01T00:00:00Z</time>
      </trkpt>
      <trkpt lat="39.461060" lon="-5.198090">
        <ele>685.4</ele>
        <time>1970-01-01T00:00:00Z</time>
      </trkpt>
      <trkpt lat="39.461146" lon="-5.197826">
        <ele>686.8</ele>
        <time>1970-01-01T00:00:00Z</time>
      </trkpt>
      <trkpt lat="39.461146" lon="-5.197826">
        <ele>686.8</ele>
        <time>1970-01-01T00:00:00Z</time>
      </trkpt>
      <trkpt lat="39.461146" lon="-5.197826">
        <ele>686.8</ele>
        <time>1970-01-01T00:00:00Z</time>
      </trkpt>
      <trkpt lat="39.461146" lon="-5.197826">
        <ele>686.8</ele>
        <time>1970-01-01T00:00:00Z</time>
      </trkpt>
      <trkpt lat="39.461155" lon="-5.197800">
        <ele>686.9</ele>
        <time>1970-01-01T00:00:00Z</time>
      </trkpt>
      <trkpt lat="39.461155" lon="-5.197800">
        <ele>686.9</ele>
        <time>1970-01-01T00:00:00Z</time>
      </trkpt>
      <trkpt lat="39.461155" lon="-5.197800">
        <ele>686.9</ele>
        <time>1970-01-01T00:00:00Z</time>
      </trkpt>
      <trkpt lat="39.461155" lon="-5.197800">
        <ele>686.9</ele>
        <time>1970-01-01T00:00:00Z</time>
      </trkpt>
      <trkpt lat="39.461160" lon="-5.197783">
        <ele>687.0</ele>
        <time>1970-01-01T00:00:00Z</time>
      </trkpt>
      <trkpt lat="39.461160" lon="-5.197783">
        <ele>687.0</ele>
        <time>1970-01-01T00:00:00Z</time>
      </trkpt>
      <trkpt lat="39.461160" lon="-5.197783">
        <ele>687.0</ele>
        <time>1970-01-01T00:00:00Z</time>
      </trkpt>
      <trkpt lat="39.461160" lon="-5.197783">
        <ele>687.0</ele>
        <time>1970-01-01T00:00:00Z</time>
      </trkpt>
      <trkpt lat="39.461162" lon="-5.197778">
        <ele>687.0</ele>
        <time>1970-01-01T00:00:00Z</time>
      </trkpt>
      <trkpt lat="39.461162" lon="-5.197778">
        <ele>687.0</ele>
        <time>1970-01-01T00:00:00Z</time>
      </trkpt>
      <trkpt lat="39.461162" lon="-5.197778">
        <ele>687.0</ele>
        <time>1970-01-01T00:00:00Z</time>
      </trkpt>
      <trkpt lat="39.461162" lon="-5.197778">
        <ele>687.0</ele>
        <time>1970-01-01T00:00:00Z</time>
      </trkpt>
      <trkpt lat="39.461222" lon="-5.197599">
        <ele>686.3</ele>
        <time>1970-01-01T00:00:00Z</time>
      </trkpt>
      <trkpt lat="39.461222" lon="-5.197599">
        <ele>686.3</ele>
        <time>1970-01-01T00:00:00Z</time>
      </trkpt>
      <trkpt lat="39.461222" lon="-5.197599">
        <ele>686.3</ele>
        <time>1970-01-01T00:00:00Z</time>
      </trkpt>
      <trkpt lat="39.461222" lon="-5.197599">
        <ele>686.3</ele>
        <time>1970-01-01T00:00:00Z</time>
      </trkpt>
      <trkpt lat="39.461227" lon="-5.197583">
        <ele>686.2</ele>
        <time>1970-01-01T00:00:00Z</time>
      </trkpt>
      <trkpt lat="39.461227" lon="-5.197583">
        <ele>686.2</ele>
        <time>1970-01-01T00:00:00Z</time>
      </trkpt>
      <trkpt lat="39.461227" lon="-5.197583">
        <ele>686.2</ele>
        <time>1970-01-01T00:00:00Z</time>
      </trkpt>
      <trkpt lat="39.461227" lon="-5.197583">
        <ele>686.2</ele>
        <time>1970-01-01T00:00:00Z</time>
      </trkpt>
      <trkpt lat="39.461252" lon="-5.197509">
        <ele>685.8</ele>
        <time>1970-01-01T00:00:00Z</time>
      </trkpt>
      <trkpt lat="39.461252" lon="-5.197509">
        <ele>685.8</ele>
        <time>1970-01-01T00:00:00Z</time>
      </trkpt>
      <trkpt lat="39.461252" lon="-5.197509">
        <ele>685.8</ele>
        <time>1970-01-01T00:00:00Z</time>
      </trkpt>
      <trkpt lat="39.461252" lon="-5.197509">
        <ele>685.8</ele>
        <time>1970-01-01T00:00:00Z</time>
      </trkpt>
      <trkpt lat="39.461270" lon="-5.197455">
        <ele>685.6</ele>
        <time>1970-01-01T00:00:00Z</time>
      </trkpt>
      <trkpt lat="39.461270" lon="-5.197455">
        <ele>685.6</ele>
        <time>1970-01-01T00:00:00Z</time>
      </trkpt>
      <trkpt lat="39.461270" lon="-5.197455">
        <ele>685.6</ele>
        <time>1970-01-01T00:00:00Z</time>
      </trkpt>
      <trkpt lat="39.461270" lon="-5.197455">
        <ele>685.6</ele>
        <time>1970-01-01T00:00:00Z</time>
      </trkpt>
      <trkpt lat="39.461285" lon="-5.197408">
        <ele>685.4</ele>
        <time>1970-01-01T00:00:00Z</time>
      </trkpt>
      <trkpt lat="39.461285" lon="-5.197408">
        <ele>685.4</ele>
        <time>1970-01-01T00:00:00Z</time>
      </trkpt>
      <trkpt lat="39.461285" lon="-5.197408">
        <ele>685.4</ele>
        <time>1970-01-01T00:00:00Z</time>
      </trkpt>
      <trkpt lat="39.461285" lon="-5.197408">
        <ele>685.4</ele>
        <time>1970-01-01T00:00:00Z</time>
      </trkpt>
      <trkpt lat="39.461289" lon="-5.197399">
        <ele>685.3</ele>
        <time>1970-01-01T00:00:00Z</time>
      </trkpt>
      <trkpt lat="39.461289" lon="-5.197399">
        <ele>685.3</ele>
        <time>1970-01-01T00:00:00Z</time>
      </trkpt>
      <trkpt lat="39.461289" lon="-5.197399">
        <ele>685.3</ele>
        <time>1970-01-01T00:00:00Z</time>
      </trkpt>
      <trkpt lat="39.461289" lon="-5.197399">
        <ele>685.3</ele>
        <time>1970-01-01T00:00:00Z</time>
      </trkpt>
      <trkpt lat="39.461310" lon="-5.197334">
        <ele>685.0</ele>
        <time>1970-01-01T00:00:00Z</time>
      </trkpt>
      <trkpt lat="39.461310" lon="-5.197334">
        <ele>685.0</ele>
        <time>1970-01-01T00:00:00Z</time>
      </trkpt>
      <trkpt lat="39.461310" lon="-5.197334">
        <ele>685.0</ele>
        <time>1970-01-01T00:00:00Z</time>
      </trkpt>
      <trkpt lat="39.461310" lon="-5.197334">
        <ele>685.0</ele>
        <time>1970-01-01T00:00:00Z</time>
      </trkpt>
      <trkpt lat="39.461425" lon="-5.197026">
        <ele>682.2</ele>
        <time>1970-01-01T00:00:00Z</time>
      </trkpt>
      <trkpt lat="39.461425" lon="-5.197026">
        <ele>682.2</ele>
        <time>1970-01-01T00:00:00Z</time>
      </trkpt>
      <trkpt lat="39.461425" lon="-5.197026">
        <ele>682.2</ele>
        <time>1970-01-01T00:00:00Z</time>
      </trkpt>
      <trkpt lat="39.461425" lon="-5.197026">
        <ele>682.2</ele>
        <time>1970-01-01T00:00:00Z</time>
      </trkpt>
      <trkpt lat="39.461476" lon="-5.196890">
        <ele>680.9</ele>
        <time>1970-01-01T00:00:00Z</time>
      </trkpt>
      <trkpt lat="39.461476" lon="-5.196890">
        <ele>680.9</ele>
        <time>1970-01-01T00:00:00Z</time>
      </trkpt>
      <trkpt lat="39.461476" lon="-5.196890">
        <ele>680.9</ele>
        <time>1970-01-01T00:00:00Z</time>
      </trkpt>
      <trkpt lat="39.461476" lon="-5.196890">
        <ele>680.9</ele>
        <time>1970-01-01T00:00:00Z</time>
      </trkpt>
      <trkpt lat="39.461515" lon="-5.196787">
        <ele>679.7</ele>
        <time>1970-01-01T00:00:00Z</time>
      </trkpt>
      <trkpt lat="39.461515" lon="-5.196787">
        <ele>679.7</ele>
        <time>1970-01-01T00:00:00Z</time>
      </trkpt>
      <trkpt lat="39.461515" lon="-5.196787">
        <ele>679.7</ele>
        <time>1970-01-01T00:00:00Z</time>
      </trkpt>
      <trkpt lat="39.461515" lon="-5.196787">
        <ele>679.7</ele>
        <time>1970-01-01T00:00:00Z</time>
      </trkpt>
      <trkpt lat="39.461537" lon="-5.196727">
        <ele>679.0</ele>
        <time>1970-01-01T00:00:00Z</time>
      </trkpt>
      <trkpt lat="39.461537" lon="-5.196727">
        <ele>679.0</ele>
        <time>1970-01-01T00:00:00Z</time>
      </trkpt>
      <trkpt lat="39.461537" lon="-5.196727">
        <ele>679.0</ele>
        <time>1970-01-01T00:00:00Z</time>
      </trkpt>
      <trkpt lat="39.461537" lon="-5.196727">
        <ele>679.0</ele>
        <time>1970-01-01T00:00:00Z</time>
      </trkpt>
      <trkpt lat="39.461557" lon="-5.196672">
        <ele>678.2</ele>
        <time>1970-01-01T00:00:00Z</time>
      </trkpt>
      <trkpt lat="39.461557" lon="-5.196672">
        <ele>678.2</ele>
        <time>1970-01-01T00:00:00Z</time>
      </trkpt>
      <trkpt lat="39.461557" lon="-5.196672">
        <ele>678.2</ele>
        <time>1970-01-01T00:00:00Z</time>
      </trkpt>
      <trkpt lat="39.461557" lon="-5.196672">
        <ele>678.2</ele>
        <time>1970-01-01T00:00:00Z</time>
      </trkpt>
      <trkpt lat="39.461581" lon="-5.196610">
        <ele>677.4</ele>
        <time>1970-01-01T00:00:00Z</time>
      </trkpt>
      <trkpt lat="39.461581" lon="-5.196610">
        <ele>677.4</ele>
        <time>1970-01-01T00:00:00Z</time>
      </trkpt>
      <trkpt lat="39.461581" lon="-5.196610">
        <ele>677.4</ele>
        <time>1970-01-01T00:00:00Z</time>
      </trkpt>
      <trkpt lat="39.461581" lon="-5.196610">
        <ele>677.4</ele>
        <time>1970-01-01T00:00:00Z</time>
      </trkpt>
      <trkpt lat="39.461598" lon="-5.196564">
        <ele>676.8</ele>
        <time>1970-01-01T00:00:00Z</time>
      </trkpt>
      <trkpt lat="39.461598" lon="-5.196564">
        <ele>676.8</ele>
        <time>1970-01-01T00:00:00Z</time>
      </trkpt>
      <trkpt lat="39.461598" lon="-5.196564">
        <ele>676.8</ele>
        <time>1970-01-01T00:00:00Z</time>
      </trkpt>
      <trkpt lat="39.461598" lon="-5.196564">
        <ele>676.8</ele>
        <time>1970-01-01T00:00:00Z</time>
      </trkpt>
      <trkpt lat="39.461617" lon="-5.196512">
        <ele>676.2</ele>
        <time>1970-01-01T00:00:00Z</time>
      </trkpt>
      <trkpt lat="39.461617" lon="-5.196512">
        <ele>676.2</ele>
        <time>1970-01-01T00:00:00Z</time>
      </trkpt>
      <trkpt lat="39.461617" lon="-5.196512">
        <ele>676.2</ele>
        <time>1970-01-01T00:00:00Z</time>
      </trkpt>
      <trkpt lat="39.461617" lon="-5.196512">
        <ele>676.2</ele>
        <time>1970-01-01T00:00:00Z</time>
      </trkpt>
      <trkpt lat="39.461643" lon="-5.196444">
        <ele>675.3</ele>
        <time>1970-01-01T00:00:00Z</time>
      </trkpt>
      <trkpt lat="39.461643" lon="-5.196444">
        <ele>675.3</ele>
        <time>1970-01-01T00:00:00Z</time>
      </trkpt>
      <trkpt lat="39.461643" lon="-5.196444">
        <ele>675.3</ele>
        <time>1970-01-01T00:00:00Z</time>
      </trkpt>
      <trkpt lat="39.461643" lon="-5.196444">
        <ele>675.3</ele>
        <time>1970-01-01T00:00:00Z</time>
      </trkpt>
      <trkpt lat="39.461735" lon="-5.196197">
        <ele>672.6</ele>
        <time>1970-01-01T00:00:00Z</time>
      </trkpt>
      <trkpt lat="39.461735" lon="-5.196197">
        <ele>672.6</ele>
        <time>1970-01-01T00:00:00Z</time>
      </trkpt>
      <trkpt lat="39.461735" lon="-5.196197">
        <ele>672.6</ele>
        <time>1970-01-01T00:00:00Z</time>
      </trkpt>
      <trkpt lat="39.461735" lon="-5.196197">
        <ele>672.6</ele>
        <time>1970-01-01T00:00:00Z</time>
      </trkpt>
      <trkpt lat="39.461742" lon="-5.196177">
        <ele>672.4</ele>
        <time>1970-01-01T00:00:00Z</time>
      </trkpt>
      <trkpt lat="39.461742" lon="-5.196177">
        <ele>672.4</ele>
        <time>1970-01-01T00:00:00Z</time>
      </trkpt>
      <trkpt lat="39.461742" lon="-5.196177">
        <ele>672.4</ele>
        <time>1970-01-01T00:00:00Z</time>
      </trkpt>
      <trkpt lat="39.461742" lon="-5.196177">
        <ele>672.4</ele>
        <time>1970-01-01T00:00:00Z</time>
      </trkpt>
      <trkpt lat="39.461765" lon="-5.196115">
        <ele>672.0</ele>
        <time>1970-01-01T00:00:00Z</time>
      </trkpt>
      <trkpt lat="39.461765" lon="-5.196115">
        <ele>672.0</ele>
        <time>1970-01-01T00:00:00Z</time>
      </trkpt>
      <trkpt lat="39.461765" lon="-5.196115">
        <ele>672.0</ele>
        <time>1970-01-01T00:00:00Z</time>
      </trkpt>
      <trkpt lat="39.461765" lon="-5.196115">
        <ele>672.0</ele>
        <time>1970-01-01T00:00:00Z</time>
      </trkpt>
      <trkpt lat="39.461821" lon="-5.195966">
        <ele>670.9</ele>
        <time>1970-01-01T00:00:00Z</time>
      </trkpt>
      <trkpt lat="39.461821" lon="-5.195966">
        <ele>670.9</ele>
        <time>1970-01-01T00:00:00Z</time>
      </trkpt>
      <trkpt lat="39.461821" lon="-5.195966">
        <ele>670.9</ele>
        <time>1970-01-01T00:00:00Z</time>
      </trkpt>
      <trkpt lat="39.461821" lon="-5.195966">
        <ele>670.9</ele>
        <time>1970-01-01T00:00:00Z</time>
      </trkpt>
      <trkpt lat="39.461876" lon="-5.195818">
        <ele>669.3</ele>
        <time>1970-01-01T00:00:00Z</time>
      </trkpt>
      <trkpt lat="39.461876" lon="-5.195818">
        <ele>669.3</ele>
        <time>1970-01-01T00:00:00Z</time>
      </trkpt>
      <trkpt lat="39.461876" lon="-5.195818">
        <ele>669.3</ele>
        <time>1970-01-01T00:00:00Z</time>
      </trkpt>
      <trkpt lat="39.461876" lon="-5.195818">
        <ele>669.3</ele>
        <time>1970-01-01T00:00:00Z</time>
      </trkpt>
      <trkpt lat="39.461943" lon="-5.195638">
        <ele>667.3</ele>
        <time>1970-01-01T00:00:00Z</time>
      </trkpt>
      <trkpt lat="39.461943" lon="-5.195638">
        <ele>667.3</ele>
        <time>1970-01-01T00:00:00Z</time>
      </trkpt>
      <trkpt lat="39.461943" lon="-5.195638">
        <ele>667.3</ele>
        <time>1970-01-01T00:00:00Z</time>
      </trkpt>
      <trkpt lat="39.461943" lon="-5.195638">
        <ele>667.3</ele>
        <time>1970-01-01T00:00:00Z</time>
      </trkpt>
      <trkpt lat="39.461982" lon="-5.195533">
        <ele>666.0</ele>
        <time>1970-01-01T00:00:00Z</time>
      </trkpt>
      <trkpt lat="39.461982" lon="-5.195533">
        <ele>666.0</ele>
        <time>1970-01-01T00:00:00Z</time>
      </trkpt>
      <trkpt lat="39.461982" lon="-5.195533">
        <ele>666.0</ele>
        <time>1970-01-01T00:00:00Z</time>
      </trkpt>
      <trkpt lat="39.461982" lon="-5.195533">
        <ele>666.0</ele>
        <time>1970-01-01T00:00:00Z</time>
      </trkpt>
      <trkpt lat="39.461992" lon="-5.195499">
        <ele>665.7</ele>
        <time>1970-01-01T00:00:00Z</time>
      </trkpt>
      <trkpt lat="39.461992" lon="-5.195499">
        <ele>665.7</ele>
        <time>1970-01-01T00:00:00Z</time>
      </trkpt>
      <trkpt lat="39.461992" lon="-5.195499">
        <ele>665.7</ele>
        <time>1970-01-01T00:00:00Z</time>
      </trkpt>
      <trkpt lat="39.461992" lon="-5.195499">
        <ele>665.7</ele>
        <time>1970-01-01T00:00:00Z</time>
      </trkpt>
      <trkpt lat="39.462008" lon="-5.195450">
        <ele>665.3</ele>
        <time>1970-01-01T00:00:00Z</time>
      </trkpt>
      <trkpt lat="39.462008" lon="-5.195450">
        <ele>665.3</ele>
        <time>1970-01-01T00:00:00Z</time>
      </trkpt>
      <trkpt lat="39.462008" lon="-5.195450">
        <ele>665.3</ele>
        <time>1970-01-01T00:00:00Z</time>
      </trkpt>
      <trkpt lat="39.462008" lon="-5.195450">
        <ele>665.3</ele>
        <time>1970-01-01T00:00:00Z</time>
      </trkpt>
      <trkpt lat="39.462036" lon="-5.195361">
        <ele>665.0</ele>
        <time>1970-01-01T00:00:00Z</time>
      </trkpt>
      <trkpt lat="39.462036" lon="-5.195361">
        <ele>665.0</ele>
        <time>1970-01-01T00:00:00Z</time>
      </trkpt>
      <trkpt lat="39.462036" lon="-5.195361">
        <ele>665.0</ele>
        <time>1970-01-01T00:00:00Z</time>
      </trkpt>
      <trkpt lat="39.462036" lon="-5.195361">
        <ele>665.0</ele>
        <time>1970-01-01T00:00:00Z</time>
      </trkpt>
      <trkpt lat="39.462173" lon="-5.194921">
        <ele>661.3</ele>
        <time>1970-01-01T00:00:00Z</time>
      </trkpt>
      <trkpt lat="39.462173" lon="-5.194921">
        <ele>661.3</ele>
        <time>1970-01-01T00:00:00Z</time>
      </trkpt>
      <trkpt lat="39.462173" lon="-5.194921">
        <ele>661.3</ele>
        <time>1970-01-01T00:00:00Z</time>
      </trkpt>
      <trkpt lat="39.462173" lon="-5.194921">
        <ele>661.3</ele>
        <time>1970-01-01T00:00:00Z</time>
      </trkpt>
      <trkpt lat="39.462210" lon="-5.194804">
        <ele>660.3</ele>
        <time>1970-01-01T00:00:00Z</time>
      </trkpt>
      <trkpt lat="39.462210" lon="-5.194804">
        <ele>660.3</ele>
        <time>1970-01-01T00:00:00Z</time>
      </trkpt>
      <trkpt lat="39.462210" lon="-5.194804">
        <ele>660.3</ele>
        <time>1970-01-01T00:00:00Z</time>
      </trkpt>
      <trkpt lat="39.462210" lon="-5.194804">
        <ele>660.3</ele>
        <time>1970-01-01T00:00:00Z</time>
      </trkpt>
      <trkpt lat="39.462228" lon="-5.194746">
        <ele>659.8</ele>
        <time>1970-01-01T00:00:00Z</time>
      </trkpt>
      <trkpt lat="39.462228" lon="-5.194746">
        <ele>659.8</ele>
        <time>1970-01-01T00:00:00Z</time>
      </trkpt>
      <trkpt lat="39.462228" lon="-5.194746">
        <ele>659.8</ele>
        <time>1970-01-01T00:00:00Z</time>
      </trkpt>
      <trkpt lat="39.462228" lon="-5.194746">
        <ele>659.8</ele>
        <time>1970-01-01T00:00:00Z</time>
      </trkpt>
      <trkpt lat="39.462331" lon="-5.194453">
        <ele>657.4</ele>
        <time>1970-01-01T00:00:00Z</time>
      </trkpt>
      <trkpt lat="39.462331" lon="-5.194453">
        <ele>657.4</ele>
        <time>1970-01-01T00:00:00Z</time>
      </trkpt>
      <trkpt lat="39.462331" lon="-5.194453">
        <ele>657.4</ele>
        <time>1970-01-01T00:00:00Z</time>
      </trkpt>
      <trkpt lat="39.462331" lon="-5.194453">
        <ele>657.4</ele>
        <time>1970-01-01T00:00:00Z</time>
      </trkpt>
      <trkpt lat="39.462515" lon="-5.194104">
        <ele>654.3</ele>
        <time>1970-01-01T00:00:00Z</time>
      </trkpt>
      <trkpt lat="39.462515" lon="-5.194104">
        <ele>654.3</ele>
        <time>1970-01-01T00:00:00Z</time>
      </trkpt>
      <trkpt lat="39.462515" lon="-5.194104">
        <ele>654.3</ele>
        <time>1970-01-01T00:00:00Z</time>
      </trkpt>
      <trkpt lat="39.462515" lon="-5.194104">
        <ele>654.3</ele>
        <time>1970-01-01T00:00:00Z</time>
      </trkpt>
      <trkpt lat="39.462518" lon="-5.194099">
        <ele>654.3</ele>
        <time>1970-01-01T00:00:00Z</time>
      </trkpt>
      <trkpt lat="39.462518" lon="-5.194099">
        <ele>654.3</ele>
        <time>1970-01-01T00:00:00Z</time>
      </trkpt>
      <trkpt lat="39.462518" lon="-5.194099">
        <ele>654.3</ele>
        <time>1970-01-01T00:00:00Z</time>
      </trkpt>
      <trkpt lat="39.462518" lon="-5.194099">
        <ele>654.3</ele>
        <time>1970-01-01T00:00:00Z</time>
      </trkpt>
      <trkpt lat="39.462526" lon="-5.194086">
        <ele>654.1</ele>
        <time>1970-01-01T00:00:00Z</time>
      </trkpt>
      <trkpt lat="39.462526" lon="-5.194086">
        <ele>654.1</ele>
        <time>1970-01-01T00:00:00Z</time>
      </trkpt>
      <trkpt lat="39.462526" lon="-5.194086">
        <ele>654.1</ele>
        <time>1970-01-01T00:00:00Z</time>
      </trkpt>
      <trkpt lat="39.462526" lon="-5.194086">
        <ele>654.1</ele>
        <time>1970-01-01T00:00:00Z</time>
      </trkpt>
      <trkpt lat="39.462650" lon="-5.193886">
        <ele>652.3</ele>
        <time>1970-01-01T00:00:00Z</time>
      </trkpt>
      <trkpt lat="39.462650" lon="-5.193886">
        <ele>652.3</ele>
        <time>1970-01-01T00:00:00Z</time>
      </trkpt>
      <trkpt lat="39.462650" lon="-5.193886">
        <ele>652.3</ele>
        <time>1970-01-01T00:00:00Z</time>
      </trkpt>
      <trkpt lat="39.462650" lon="-5.193886">
        <ele>652.3</ele>
        <time>1970-01-01T00:00:00Z</time>
      </trkpt>
      <trkpt lat="39.462695" lon="-5.193814">
        <ele>651.4</ele>
        <time>1970-01-01T00:00:00Z</time>
      </trkpt>
      <trkpt lat="39.462695" lon="-5.193814">
        <ele>651.4</ele>
        <time>1970-01-01T00:00:00Z</time>
      </trkpt>
      <trkpt lat="39.462695" lon="-5.193814">
        <ele>651.4</ele>
        <time>1970-01-01T00:00:00Z</time>
      </trkpt>
      <trkpt lat="39.462695" lon="-5.193814">
        <ele>651.4</ele>
        <time>1970-01-01T00:00:00Z</time>
      </trkpt>
      <trkpt lat="39.462702" lon="-5.193803">
        <ele>651.3</ele>
        <time>1970-01-01T00:00:00Z</time>
      </trkpt>
      <trkpt lat="39.462702" lon="-5.193803">
        <ele>651.3</ele>
        <time>1970-01-01T00:00:00Z</time>
      </trkpt>
      <trkpt lat="39.462702" lon="-5.193803">
        <ele>651.3</ele>
        <time>1970-01-01T00:00:00Z</time>
      </trkpt>
      <trkpt lat="39.462702" lon="-5.193803">
        <ele>651.3</ele>
        <time>1970-01-01T00:00:00Z</time>
      </trkpt>
      <trkpt lat="39.462721" lon="-5.193772">
        <ele>651.0</ele>
        <time>1970-01-01T00:00:00Z</time>
      </trkpt>
      <trkpt lat="39.462721" lon="-5.193772">
        <ele>651.0</ele>
        <time>1970-01-01T00:00:00Z</time>
      </trkpt>
      <trkpt lat="39.462721" lon="-5.193772">
        <ele>651.0</ele>
        <time>1970-01-01T00:00:00Z</time>
      </trkpt>
      <trkpt lat="39.462721" lon="-5.193772">
        <ele>651.0</ele>
        <time>1970-01-01T00:00:00Z</time>
      </trkpt>
      <trkpt lat="39.462764" lon="-5.193703">
        <ele>650.2</ele>
        <time>1970-01-01T00:00:00Z</time>
      </trkpt>
      <trkpt lat="39.462764" lon="-5.193703">
        <ele>650.2</ele>
        <time>1970-01-01T00:00:00Z</time>
      </trkpt>
      <trkpt lat="39.462764" lon="-5.193703">
        <ele>650.2</ele>
        <time>1970-01-01T00:00:00Z</time>
      </trkpt>
      <trkpt lat="39.462764" lon="-5.193703">
        <ele>650.2</ele>
        <time>1970-01-01T00:00:00Z</time>
      </trkpt>
      <trkpt lat="39.462788" lon="-5.193664">
        <ele>649.7</ele>
        <time>1970-01-01T00:00:00Z</time>
      </trkpt>
      <trkpt lat="39.462788" lon="-5.193664">
        <ele>649.7</ele>
        <time>1970-01-01T00:00:00Z</time>
      </trkpt>
      <trkpt lat="39.462788" lon="-5.193664">
        <ele>649.7</ele>
        <time>1970-01-01T00:00:00Z</time>
      </trkpt>
      <trkpt lat="39.462788" lon="-5.193664">
        <ele>649.7</ele>
        <time>1970-01-01T00:00:00Z</time>
      </trkpt>
      <trkpt lat="39.462832" lon="-5.193593">
        <ele>648.9</ele>
        <time>1970-01-01T00:00:00Z</time>
      </trkpt>
      <trkpt lat="39.462832" lon="-5.193593">
        <ele>648.9</ele>
        <time>1970-01-01T00:00:00Z</time>
      </trkpt>
      <trkpt lat="39.462832" lon="-5.193593">
        <ele>648.9</ele>
        <time>1970-01-01T00:00:00Z</time>
      </trkpt>
      <trkpt lat="39.462832" lon="-5.193593">
        <ele>648.9</ele>
        <time>1970-01-01T00:00:00Z</time>
      </trkpt>
      <trkpt lat="39.463063" lon="-5.193223">
        <ele>643.1</ele>
        <time>1970-01-01T00:00:00Z</time>
      </trkpt>
      <trkpt lat="39.463063" lon="-5.193223">
        <ele>643.1</ele>
        <time>1970-01-01T00:00:00Z</time>
      </trkpt>
      <trkpt lat="39.463063" lon="-5.193223">
        <ele>643.1</ele>
        <time>1970-01-01T00:00:00Z</time>
      </trkpt>
      <trkpt lat="39.463063" lon="-5.193223">
        <ele>643.1</ele>
        <time>1970-01-01T00:00:00Z</time>
      </trkpt>
      <trkpt lat="39.463070" lon="-5.193210">
        <ele>642.9</ele>
        <time>1970-01-01T00:00:00Z</time>
      </trkpt>
      <trkpt lat="39.463070" lon="-5.193210">
        <ele>642.9</ele>
        <time>1970-01-01T00:00:00Z</time>
      </trkpt>
      <trkpt lat="39.463070" lon="-5.193210">
        <ele>642.9</ele>
        <time>1970-01-01T00:00:00Z</time>
      </trkpt>
      <trkpt lat="39.463070" lon="-5.193210">
        <ele>642.9</ele>
        <time>1970-01-01T00:00:00Z</time>
      </trkpt>
      <trkpt lat="39.463109" lon="-5.193142">
        <ele>642.0</ele>
        <time>1970-01-01T00:00:00Z</time>
      </trkpt>
      <trkpt lat="39.463109" lon="-5.193142">
        <ele>642.0</ele>
        <time>1970-01-01T00:00:00Z</time>
      </trkpt>
      <trkpt lat="39.463109" lon="-5.193142">
        <ele>642.0</ele>
        <time>1970-01-01T00:00:00Z</time>
      </trkpt>
      <trkpt lat="39.463109" lon="-5.193142">
        <ele>642.0</ele>
        <time>1970-01-01T00:00:00Z</time>
      </trkpt>
      <trkpt lat="39.463190" lon="-5.193001">
        <ele>640.5</ele>
        <time>1970-01-01T00:00:00Z</time>
      </trkpt>
      <trkpt lat="39.463190" lon="-5.193001">
        <ele>640.5</ele>
        <time>1970-01-01T00:00:00Z</time>
      </trkpt>
      <trkpt lat="39.463190" lon="-5.193001">
        <ele>640.5</ele>
        <time>1970-01-01T00:00:00Z</time>
      </trkpt>
      <trkpt lat="39.463190" lon="-5.193001">
        <ele>640.5</ele>
        <time>1970-01-01T00:00:00Z</time>
      </trkpt>
      <trkpt lat="39.463278" lon="-5.192846">
        <ele>638.5</ele>
        <time>1970-01-01T00:00:00Z</time>
      </trkpt>
      <trkpt lat="39.463278" lon="-5.192846">
        <ele>638.5</ele>
        <time>1970-01-01T00:00:00Z</time>
      </trkpt>
      <trkpt lat="39.463278" lon="-5.192846">
        <ele>638.5</ele>
        <time>1970-01-01T00:00:00Z</time>
      </trkpt>
      <trkpt lat="39.463278" lon="-5.192846">
        <ele>638.5</ele>
        <time>1970-01-01T00:00:00Z</time>
      </trkpt>
      <trkpt lat="39.463291" lon="-5.192815">
        <ele>638.2</ele>
        <time>1970-01-01T00:00:00Z</time>
      </trkpt>
      <trkpt lat="39.463291" lon="-5.192815">
        <ele>638.2</ele>
        <time>1970-01-01T00:00:00Z</time>
      </trkpt>
      <trkpt lat="39.463291" lon="-5.192815">
        <ele>638.2</ele>
        <time>1970-01-01T00:00:00Z</time>
      </trkpt>
      <trkpt lat="39.463291" lon="-5.192815">
        <ele>638.2</ele>
        <time>1970-01-01T00:00:00Z</time>
      </trkpt>
      <trkpt lat="39.463303" lon="-5.192787">
        <ele>637.9</ele>
        <time>1970-01-01T00:00:00Z</time>
      </trkpt>
      <trkpt lat="39.463303" lon="-5.192787">
        <ele>637.9</ele>
        <time>1970-01-01T00:00:00Z</time>
      </trkpt>
      <trkpt lat="39.463303" lon="-5.192787">
        <ele>637.9</ele>
        <time>1970-01-01T00:00:00Z</time>
      </trkpt>
      <trkpt lat="39.463303" lon="-5.192787">
        <ele>637.9</ele>
        <time>1970-01-01T00:00:00Z</time>
      </trkpt>
      <trkpt lat="39.463308" lon="-5.192776">
        <ele>637.8</ele>
        <time>1970-01-01T00:00:00Z</time>
      </trkpt>
      <trkpt lat="39.463308" lon="-5.192776">
        <ele>637.8</ele>
        <time>1970-01-01T00:00:00Z</time>
      </trkpt>
      <trkpt lat="39.463308" lon="-5.192776">
        <ele>637.8</ele>
        <time>1970-01-01T00:00:00Z</time>
      </trkpt>
      <trkpt lat="39.463308" lon="-5.192776">
        <ele>637.8</ele>
        <time>1970-01-01T00:00:00Z</time>
      </trkpt>
      <trkpt lat="39.463313" lon="-5.192764">
        <ele>637.7</ele>
        <time>1970-01-01T00:00:00Z</time>
      </trkpt>
      <trkpt lat="39.463313" lon="-5.192764">
        <ele>637.7</ele>
        <time>1970-01-01T00:00:00Z</time>
      </trkpt>
      <trkpt lat="39.463313" lon="-5.192764">
        <ele>637.7</ele>
        <time>1970-01-01T00:00:00Z</time>
      </trkpt>
      <trkpt lat="39.463313" lon="-5.192764">
        <ele>637.7</ele>
        <time>1970-01-01T00:00:00Z</time>
      </trkpt>
      <trkpt lat="39.463351" lon="-5.192672">
        <ele>636.9</ele>
        <time>1970-01-01T00:00:00Z</time>
      </trkpt>
      <trkpt lat="39.463351" lon="-5.192672">
        <ele>636.9</ele>
        <time>1970-01-01T00:00:00Z</time>
      </trkpt>
      <trkpt lat="39.463351" lon="-5.192672">
        <ele>636.9</ele>
        <time>1970-01-01T00:00:00Z</time>
      </trkpt>
      <trkpt lat="39.463351" lon="-5.192672">
        <ele>636.9</ele>
        <time>1970-01-01T00:00:00Z</time>
      </trkpt>
      <trkpt lat="39.463409" lon="-5.192536">
        <ele>635.7</ele>
        <time>1970-01-01T00:00:00Z</time>
      </trkpt>
      <trkpt lat="39.463409" lon="-5.192536">
        <ele>635.7</ele>
        <time>1970-01-01T00:00:00Z</time>
      </trkpt>
      <trkpt lat="39.463409" lon="-5.192536">
        <ele>635.7</ele>
        <time>1970-01-01T00:00:00Z</time>
      </trkpt>
      <trkpt lat="39.463409" lon="-5.192536">
        <ele>635.7</ele>
        <time>1970-01-01T00:00:00Z</time>
      </trkpt>
      <trkpt lat="39.463411" lon="-5.192532">
        <ele>635.7</ele>
        <time>1970-01-01T00:00:00Z</time>
      </trkpt>
      <trkpt lat="39.463411" lon="-5.192532">
        <ele>635.7</ele>
        <time>1970-01-01T00:00:00Z</time>
      </trkpt>
      <trkpt lat="39.463411" lon="-5.192532">
        <ele>635.7</ele>
        <time>1970-01-01T00:00:00Z</time>
      </trkpt>
      <trkpt lat="39.463411" lon="-5.192532">
        <ele>635.7</ele>
        <time>1970-01-01T00:00:00Z</time>
      </trkpt>
      <trkpt lat="39.463499" lon="-5.192280">
        <ele>633.7</ele>
        <time>1970-01-01T00:00:00Z</time>
      </trkpt>
      <trkpt lat="39.463499" lon="-5.192280">
        <ele>633.7</ele>
        <time>1970-01-01T00:00:00Z</time>
      </trkpt>
      <trkpt lat="39.463499" lon="-5.192280">
        <ele>633.7</ele>
        <time>1970-01-01T00:00:00Z</time>
      </trkpt>
      <trkpt lat="39.463499" lon="-5.192280">
        <ele>633.7</ele>
        <time>1970-01-01T00:00:00Z</time>
      </trkpt>
      <trkpt lat="39.463527" lon="-5.192201">
        <ele>632.9</ele>
        <time>1970-01-01T00:00:00Z</time>
      </trkpt>
      <trkpt lat="39.463527" lon="-5.192201">
        <ele>632.9</ele>
        <time>1970-01-01T00:00:00Z</time>
      </trkpt>
      <trkpt lat="39.463527" lon="-5.192201">
        <ele>632.9</ele>
        <time>1970-01-01T00:00:00Z</time>
      </trkpt>
      <trkpt lat="39.463527" lon="-5.192201">
        <ele>632.9</ele>
        <time>1970-01-01T00:00:00Z</time>
      </trkpt>
      <trkpt lat="39.463531" lon="-5.192188">
        <ele>632.8</ele>
        <time>1970-01-01T00:00:00Z</time>
      </trkpt>
      <trkpt lat="39.463531" lon="-5.192188">
        <ele>632.8</ele>
        <time>1970-01-01T00:00:00Z</time>
      </trkpt>
      <trkpt lat="39.463531" lon="-5.192188">
        <ele>632.8</ele>
        <time>1970-01-01T00:00:00Z</time>
      </trkpt>
      <trkpt lat="39.463531" lon="-5.192188">
        <ele>632.8</ele>
        <time>1970-01-01T00:00:00Z</time>
      </trkpt>
      <trkpt lat="39.463634" lon="-5.191895">
        <ele>630.2</ele>
        <time>1970-01-01T00:00:00Z</time>
      </trkpt>
      <trkpt lat="39.463634" lon="-5.191895">
        <ele>630.2</ele>
        <time>1970-01-01T00:00:00Z</time>
      </trkpt>
      <trkpt lat="39.463634" lon="-5.191895">
        <ele>630.2</ele>
        <time>1970-01-01T00:00:00Z</time>
      </trkpt>
      <trkpt lat="39.463634" lon="-5.191895">
        <ele>630.2</ele>
        <time>1970-01-01T00:00:00Z</time>
      </trkpt>
      <trkpt lat="39.463682" lon="-5.191741">
        <ele>628.9</ele>
        <time>1970-01-01T00:00:00Z</time>
      </trkpt>
      <trkpt lat="39.463682" lon="-5.191741">
        <ele>628.9</ele>
        <time>1970-01-01T00:00:00Z</time>
      </trkpt>
      <trkpt lat="39.463682" lon="-5.191741">
        <ele>628.9</ele>
        <time>1970-01-01T00:00:00Z</time>
      </trkpt>
      <trkpt lat="39.463682" lon="-5.191741">
        <ele>628.9</ele>
        <time>1970-01-01T00:00:00Z</time>
      </trkpt>
      <trkpt lat="39.463707" lon="-5.191660">
        <ele>628.6</ele>
        <time>1970-01-01T00:00:00Z</time>
      </trkpt>
      <trkpt lat="39.463707" lon="-5.191660">
        <ele>628.6</ele>
        <time>1970-01-01T00:00:00Z</time>
      </trkpt>
      <trkpt lat="39.463707" lon="-5.191660">
        <ele>628.6</ele>
        <time>1970-01-01T00:00:00Z</time>
      </trkpt>
      <trkpt lat="39.463707" lon="-5.191660">
        <ele>628.6</ele>
        <time>1970-01-01T00:00:00Z</time>
      </trkpt>
      <trkpt lat="39.463738" lon="-5.191560">
        <ele>628.2</ele>
        <time>1970-01-01T00:00:00Z</time>
      </trkpt>
      <trkpt lat="39.463738" lon="-5.191560">
        <ele>628.2</ele>
        <time>1970-01-01T00:00:00Z</time>
      </trkpt>
      <trkpt lat="39.463738" lon="-5.191560">
        <ele>628.2</ele>
        <time>1970-01-01T00:00:00Z</time>
      </trkpt>
      <trkpt lat="39.463738" lon="-5.191560">
        <ele>628.2</ele>
        <time>1970-01-01T00:00:00Z</time>
      </trkpt>
      <trkpt lat="39.463739" lon="-5.191553">
        <ele>628.1</ele>
        <time>1970-01-01T00:00:00Z</time>
      </trkpt>
      <trkpt lat="39.463739" lon="-5.191553">
        <ele>628.1</ele>
        <time>1970-01-01T00:00:00Z</time>
      </trkpt>
      <trkpt lat="39.463739" lon="-5.191553">
        <ele>628.1</ele>
        <time>1970-01-01T00:00:00Z</time>
      </trkpt>
      <trkpt lat="39.463739" lon="-5.191553">
        <ele>628.1</ele>
        <time>1970-01-01T00:00:00Z</time>
      </trkpt>
      <trkpt lat="39.463877" lon="-5.191107">
        <ele>625.2</ele>
        <time>1970-01-01T00:00:00Z</time>
      </trkpt>
      <trkpt lat="39.463877" lon="-5.191107">
        <ele>625.2</ele>
        <time>1970-01-01T00:00:00Z</time>
      </trkpt>
      <trkpt lat="39.463877" lon="-5.191107">
        <ele>625.2</ele>
        <time>1970-01-01T00:00:00Z</time>
      </trkpt>
      <trkpt lat="39.463877" lon="-5.191107">
        <ele>625.2</ele>
        <time>1970-01-01T00:00:00Z</time>
      </trkpt>
      <trkpt lat="39.463921" lon="-5.190956">
        <ele>624.5</ele>
        <time>1970-01-01T00:00:00Z</time>
      </trkpt>
      <trkpt lat="39.463921" lon="-5.190956">
        <ele>624.5</ele>
        <time>1970-01-01T00:00:00Z</time>
      </trkpt>
      <trkpt lat="39.463921" lon="-5.190956">
        <ele>624.5</ele>
        <time>1970-01-01T00:00:00Z</time>
      </trkpt>
      <trkpt lat="39.463921" lon="-5.190956">
        <ele>624.5</ele>
        <time>1970-01-01T00:00:00Z</time>
      </trkpt>
      <trkpt lat="39.463935" lon="-5.190909">
        <ele>624.3</ele>
        <time>1970-01-01T00:00:00Z</time>
      </trkpt>
      <trkpt lat="39.463935" lon="-5.190909">
        <ele>624.3</ele>
        <time>1970-01-01T00:00:00Z</time>
      </trkpt>
      <trkpt lat="39.463935" lon="-5.190909">
        <ele>624.3</ele>
        <time>1970-01-01T00:00:00Z</time>
      </trkpt>
      <trkpt lat="39.463935" lon="-5.190909">
        <ele>624.3</ele>
        <time>1970-01-01T00:00:00Z</time>
      </trkpt>
      <trkpt lat="39.463960" lon="-5.190822">
        <ele>623.9</ele>
        <time>1970-01-01T00:00:00Z</time>
      </trkpt>
      <trkpt lat="39.463960" lon="-5.190822">
        <ele>623.9</ele>
        <time>1970-01-01T00:00:00Z</time>
      </trkpt>
      <trkpt lat="39.463960" lon="-5.190822">
        <ele>623.9</ele>
        <time>1970-01-01T00:00:00Z</time>
      </trkpt>
      <trkpt lat="39.463960" lon="-5.190822">
        <ele>623.9</ele>
        <time>1970-01-01T00:00:00Z</time>
      </trkpt>
      <trkpt lat="39.463970" lon="-5.190789">
        <ele>623.7</ele>
        <time>1970-01-01T00:00:00Z</time>
      </trkpt>
      <trkpt lat="39.463970" lon="-5.190789">
        <ele>623.7</ele>
        <time>1970-01-01T00:00:00Z</time>
      </trkpt>
      <trkpt lat="39.463970" lon="-5.190789">
        <ele>623.7</ele>
        <time>1970-01-01T00:00:00Z</time>
      </trkpt>
      <trkpt lat="39.463970" lon="-5.190789">
        <ele>623.7</ele>
        <time>1970-01-01T00:00:00Z</time>
      </trkpt>
      <trkpt lat="39.463987" lon="-5.190728">
        <ele>623.2</ele>
        <time>1970-01-01T00:00:00Z</time>
      </trkpt>
      <trkpt lat="39.463987" lon="-5.190728">
        <ele>623.2</ele>
        <time>1970-01-01T00:00:00Z</time>
      </trkpt>
      <trkpt lat="39.463987" lon="-5.190728">
        <ele>623.2</ele>
        <time>1970-01-01T00:00:00Z</time>
      </trkpt>
      <trkpt lat="39.463987" lon="-5.190728">
        <ele>623.2</ele>
        <time>1970-01-01T00:00:00Z</time>
      </trkpt>
      <trkpt lat="39.464014" lon="-5.190637">
        <ele>622.3</ele>
        <time>1970-01-01T00:00:00Z</time>
      </trkpt>
      <trkpt lat="39.464014" lon="-5.190637">
        <ele>622.3</ele>
        <time>1970-01-01T00:00:00Z</time>
      </trkpt>
      <trkpt lat="39.464014" lon="-5.190637">
        <ele>622.3</ele>
        <time>1970-01-01T00:00:00Z</time>
      </trkpt>
      <trkpt lat="39.464014" lon="-5.190637">
        <ele>622.3</ele>
        <time>1970-01-01T00:00:00Z</time>
      </trkpt>
      <trkpt lat="39.464044" lon="-5.190535">
        <ele>621.7</ele>
        <time>1970-01-01T00:00:00Z</time>
      </trkpt>
      <trkpt lat="39.464044" lon="-5.190535">
        <ele>621.7</ele>
        <time>1970-01-01T00:00:00Z</time>
      </trkpt>
      <trkpt lat="39.464044" lon="-5.190535">
        <ele>621.7</ele>
        <time>1970-01-01T00:00:00Z</time>
      </trkpt>
      <trkpt lat="39.464044" lon="-5.190535">
        <ele>621.7</ele>
        <time>1970-01-01T00:00:00Z</time>
      </trkpt>
      <trkpt lat="39.464109" lon="-5.190311">
        <ele>620.3</ele>
        <time>1970-01-01T00:00:00Z</time>
      </trkpt>
      <trkpt lat="39.464109" lon="-5.190311">
        <ele>620.3</ele>
        <time>1970-01-01T00:00:00Z</time>
      </trkpt>
      <trkpt lat="39.464109" lon="-5.190311">
        <ele>620.3</ele>
        <time>1970-01-01T00:00:00Z</time>
      </trkpt>
      <trkpt lat="39.464109" lon="-5.190311">
        <ele>620.3</ele>
        <time>1970-01-01T00:00:00Z</time>
      </trkpt>
      <trkpt lat="39.464135" lon="-5.190222">
        <ele>619.8</ele>
        <time>1970-01-01T00:00:00Z</time>
      </trkpt>
      <trkpt lat="39.464135" lon="-5.190222">
        <ele>619.8</ele>
        <time>1970-01-01T00:00:00Z</time>
      </trkpt>
      <trkpt lat="39.464135" lon="-5.190222">
        <ele>619.8</ele>
        <time>1970-01-01T00:00:00Z</time>
      </trkpt>
      <trkpt lat="39.464135" lon="-5.190222">
        <ele>619.8</ele>
        <time>1970-01-01T00:00:00Z</time>
      </trkpt>
      <trkpt lat="39.464141" lon="-5.190203">
        <ele>619.7</ele>
        <time>1970-01-01T00:00:00Z</time>
      </trkpt>
      <trkpt lat="39.464141" lon="-5.190203">
        <ele>619.7</ele>
        <time>1970-01-01T00:00:00Z</time>
      </trkpt>
      <trkpt lat="39.464141" lon="-5.190203">
        <ele>619.7</ele>
        <time>1970-01-01T00:00:00Z</time>
      </trkpt>
      <trkpt lat="39.464141" lon="-5.190203">
        <ele>619.7</ele>
        <time>1970-01-01T00:00:00Z</time>
      </trkpt>
      <trkpt lat="39.464215" lon="-5.189949">
        <ele>617.6</ele>
        <time>1970-01-01T00:00:00Z</time>
      </trkpt>
      <trkpt lat="39.464215" lon="-5.189949">
        <ele>617.6</ele>
        <time>1970-01-01T00:00:00Z</time>
      </trkpt>
      <trkpt lat="39.464215" lon="-5.189949">
        <ele>617.6</ele>
        <time>1970-01-01T00:00:00Z</time>
      </trkpt>
      <trkpt lat="39.464215" lon="-5.189949">
        <ele>617.6</ele>
        <time>1970-01-01T00:00:00Z</time>
      </trkpt>
      <trkpt lat="39.464227" lon="-5.189907">
        <ele>617.1</ele>
        <time>1970-01-01T00:00:00Z</time>
      </trkpt>
      <trkpt lat="39.464227" lon="-5.189907">
        <ele>617.1</ele>
        <time>1970-01-01T00:00:00Z</time>
      </trkpt>
      <trkpt lat="39.464227" lon="-5.189907">
        <ele>617.1</ele>
        <time>1970-01-01T00:00:00Z</time>
      </trkpt>
      <trkpt lat="39.464227" lon="-5.189907">
        <ele>617.1</ele>
        <time>1970-01-01T00:00:00Z</time>
      </trkpt>
      <trkpt lat="39.464252" lon="-5.189823">
        <ele>616.6</ele>
        <time>1970-01-01T00:00:00Z</time>
      </trkpt>
      <trkpt lat="39.464252" lon="-5.189823">
        <ele>616.6</ele>
        <time>1970-01-01T00:00:00Z</time>
      </trkpt>
      <trkpt lat="39.464252" lon="-5.189823">
        <ele>616.6</ele>
        <time>1970-01-01T00:00:00Z</time>
      </trkpt>
      <trkpt lat="39.464252" lon="-5.189823">
        <ele>616.6</ele>
        <time>1970-01-01T00:00:00Z</time>
      </trkpt>
      <trkpt lat="39.464275" lon="-5.189741">
        <ele>616.2</ele>
        <time>1970-01-01T00:00:00Z</time>
      </trkpt>
      <trkpt lat="39.464275" lon="-5.189741">
        <ele>616.2</ele>
        <time>1970-01-01T00:00:00Z</time>
      </trkpt>
      <trkpt lat="39.464275" lon="-5.189741">
        <ele>616.2</ele>
        <time>1970-01-01T00:00:00Z</time>
      </trkpt>
      <trkpt lat="39.464275" lon="-5.189741">
        <ele>616.2</ele>
        <time>1970-01-01T00:00:00Z</time>
      </trkpt>
      <trkpt lat="39.464280" lon="-5.189725">
        <ele>616.1</ele>
        <time>1970-01-01T00:00:00Z</time>
      </trkpt>
      <trkpt lat="39.464280" lon="-5.189725">
        <ele>616.1</ele>
        <time>1970-01-01T00:00:00Z</time>
      </trkpt>
      <trkpt lat="39.464280" lon="-5.189725">
        <ele>616.1</ele>
        <time>1970-01-01T00:00:00Z</time>
      </trkpt>
      <trkpt lat="39.464280" lon="-5.189725">
        <ele>616.1</ele>
        <time>1970-01-01T00:00:00Z</time>
      </trkpt>
      <trkpt lat="39.464281" lon="-5.189722">
        <ele>616.1</ele>
        <time>1970-01-01T00:00:00Z</time>
      </trkpt>
      <trkpt lat="39.464281" lon="-5.189722">
        <ele>616.1</ele>
        <time>1970-01-01T00:00:00Z</time>
      </trkpt>
      <trkpt lat="39.464281" lon="-5.189722">
        <ele>616.1</ele>
        <time>1970-01-01T00:00:00Z</time>
      </trkpt>
      <trkpt lat="39.464281" lon="-5.189722">
        <ele>616.1</ele>
        <time>1970-01-01T00:00:00Z</time>
      </trkpt>
      <trkpt lat="39.464305" lon="-5.189640">
        <ele>615.6</ele>
        <time>1970-01-01T00:00:00Z</time>
      </trkpt>
      <trkpt lat="39.464305" lon="-5.189640">
        <ele>615.6</ele>
        <time>1970-01-01T00:00:00Z</time>
      </trkpt>
      <trkpt lat="39.464305" lon="-5.189640">
        <ele>615.6</ele>
        <time>1970-01-01T00:00:00Z</time>
      </trkpt>
      <trkpt lat="39.464305" lon="-5.189640">
        <ele>615.6</ele>
        <time>1970-01-01T00:00:00Z</time>
      </trkpt>
      <trkpt lat="39.464330" lon="-5.189552">
        <ele>615.1</ele>
        <time>1970-01-01T00:00:00Z</time>
      </trkpt>
      <trkpt lat="39.464330" lon="-5.189552">
        <ele>615.1</ele>
        <time>1970-01-01T00:00:00Z</time>
      </trkpt>
      <trkpt lat="39.464330" lon="-5.189552">
        <ele>615.1</ele>
        <time>1970-01-01T00:00:00Z</time>
      </trkpt>
      <trkpt lat="39.464330" lon="-5.189552">
        <ele>615.1</ele>
        <time>1970-01-01T00:00:00Z</time>
      </trkpt>
      <trkpt lat="39.464352" lon="-5.189478">
        <ele>614.7</ele>
        <time>1970-01-01T00:00:00Z</time>
      </trkpt>
      <trkpt lat="39.464352" lon="-5.189478">
        <ele>614.7</ele>
        <time>1970-01-01T00:00:00Z</time>
      </trkpt>
      <trkpt lat="39.464352" lon="-5.189478">
        <ele>614.7</ele>
        <time>1970-01-01T00:00:00Z</time>
      </trkpt>
      <trkpt lat="39.464352" lon="-5.189478">
        <ele>614.7</ele>
        <time>1970-01-01T00:00:00Z</time>
      </trkpt>
      <trkpt lat="39.464369" lon="-5.189421">
        <ele>614.3</ele>
        <time>1970-01-01T00:00:00Z</time>
      </trkpt>
      <trkpt lat="39.464369" lon="-5.189421">
        <ele>614.3</ele>
        <time>1970-01-01T00:00:00Z</time>
      </trkpt>
      <trkpt lat="39.464369" lon="-5.189421">
        <ele>614.3</ele>
        <time>1970-01-01T00:00:00Z</time>
      </trkpt>
      <trkpt lat="39.464369" lon="-5.189421">
        <ele>614.3</ele>
        <time>1970-01-01T00:00:00Z</time>
      </trkpt>
      <trkpt lat="39.464376" lon="-5.189398">
        <ele>614.2</ele>
        <time>1970-01-01T00:00:00Z</time>
      </trkpt>
      <trkpt lat="39.464376" lon="-5.189398">
        <ele>614.2</ele>
        <time>1970-01-01T00:00:00Z</time>
      </trkpt>
      <trkpt lat="39.464376" lon="-5.189398">
        <ele>614.2</ele>
        <time>1970-01-01T00:00:00Z</time>
      </trkpt>
      <trkpt lat="39.464376" lon="-5.189398">
        <ele>614.2</ele>
        <time>1970-01-01T00:00:00Z</time>
      </trkpt>
      <trkpt lat="39.464408" lon="-5.189287">
        <ele>613.6</ele>
        <time>1970-01-01T00:00:00Z</time>
      </trkpt>
      <trkpt lat="39.464408" lon="-5.189287">
        <ele>613.6</ele>
        <time>1970-01-01T00:00:00Z</time>
      </trkpt>
      <trkpt lat="39.464408" lon="-5.189287">
        <ele>613.6</ele>
        <time>1970-01-01T00:00:00Z</time>
      </trkpt>
      <trkpt lat="39.464408" lon="-5.189287">
        <ele>613.6</ele>
        <time>1970-01-01T00:00:00Z</time>
      </trkpt>
      <trkpt lat="39.464465" lon="-5.189094">
        <ele>612.5</ele>
        <time>1970-01-01T00:00:00Z</time>
      </trkpt>
      <trkpt lat="39.464465" lon="-5.189094">
        <ele>612.5</ele>
        <time>1970-01-01T00:00:00Z</time>
      </trkpt>
      <trkpt lat="39.464465" lon="-5.189094">
        <ele>612.5</ele>
        <time>1970-01-01T00:00:00Z</time>
      </trkpt>
      <trkpt lat="39.464465" lon="-5.189094">
        <ele>612.5</ele>
        <time>1970-01-01T00:00:00Z</time>
      </trkpt>
      <trkpt lat="39.464474" lon="-5.189066">
        <ele>612.4</ele>
        <time>1970-01-01T00:00:00Z</time>
      </trkpt>
      <trkpt lat="39.464474" lon="-5.189066">
        <ele>612.4</ele>
        <time>1970-01-01T00:00:00Z</time>
      </trkpt>
      <trkpt lat="39.464474" lon="-5.189066">
        <ele>612.4</ele>
        <time>1970-01-01T00:00:00Z</time>
      </trkpt>
      <trkpt lat="39.464474" lon="-5.189066">
        <ele>612.4</ele>
        <time>1970-01-01T00:00:00Z</time>
      </trkpt>
      <trkpt lat="39.464507" lon="-5.188953">
        <ele>611.9</ele>
        <time>1970-01-01T00:00:00Z</time>
      </trkpt>
      <trkpt lat="39.464507" lon="-5.188953">
        <ele>611.9</ele>
        <time>1970-01-01T00:00:00Z</time>
      </trkpt>
      <trkpt lat="39.464507" lon="-5.188953">
        <ele>611.9</ele>
        <time>1970-01-01T00:00:00Z</time>
      </trkpt>
      <trkpt lat="39.464507" lon="-5.188953">
        <ele>611.9</ele>
        <time>1970-01-01T00:00:00Z</time>
      </trkpt>
      <trkpt lat="39.464595" lon="-5.188660">
        <ele>610.8</ele>
        <time>1970-01-01T00:00:00Z</time>
      </trkpt>
      <trkpt lat="39.464595" lon="-5.188660">
        <ele>610.8</ele>
        <time>1970-01-01T00:00:00Z</time>
      </trkpt>
      <trkpt lat="39.464595" lon="-5.188660">
        <ele>610.8</ele>
        <time>1970-01-01T00:00:00Z</time>
      </trkpt>
      <trkpt lat="39.464595" lon="-5.188660">
        <ele>610.8</ele>
        <time>1970-01-01T00:00:00Z</time>
      </trkpt>
      <trkpt lat="39.464649" lon="-5.188419">
        <ele>610.1</ele>
        <time>1970-01-01T00:00:00Z</time>
      </trkpt>
      <trkpt lat="39.464649" lon="-5.188419">
        <ele>610.1</ele>
        <time>1970-01-01T00:00:00Z</time>
      </trkpt>
      <trkpt lat="39.464649" lon="-5.188419">
        <ele>610.1</ele>
        <time>1970-01-01T00:00:00Z</time>
      </trkpt>
      <trkpt lat="39.464649" lon="-5.188419">
        <ele>610.1</ele>
        <time>1970-01-01T00:00:00Z</time>
      </trkpt>
      <trkpt lat="39.464670" lon="-5.188324">
        <ele>610.0</ele>
        <time>1970-01-01T00:00:00Z</time>
      </trkpt>
      <trkpt lat="39.464670" lon="-5.188324">
        <ele>610.0</ele>
        <time>1970-01-01T00:00:00Z</time>
      </trkpt>
      <trkpt lat="39.464670" lon="-5.188324">
        <ele>610.0</ele>
        <time>1970-01-01T00:00:00Z</time>
      </trkpt>
      <trkpt lat="39.464670" lon="-5.188324">
        <ele>610.0</ele>
        <time>1970-01-01T00:00:00Z</time>
      </trkpt>
      <trkpt lat="39.464673" lon="-5.188302">
        <ele>610.0</ele>
        <time>1970-01-01T00:00:00Z</time>
      </trkpt>
      <trkpt lat="39.464673" lon="-5.188302">
        <ele>610.0</ele>
        <time>1970-01-01T00:00:00Z</time>
      </trkpt>
      <trkpt lat="39.464673" lon="-5.188302">
        <ele>610.0</ele>
        <time>1970-01-01T00:00:00Z</time>
      </trkpt>
      <trkpt lat="39.464673" lon="-5.188302">
        <ele>610.0</ele>
        <time>1970-01-01T00:00:00Z</time>
      </trkpt>
      <trkpt lat="39.464681" lon="-5.188237">
        <ele>610.0</ele>
        <time>1970-01-01T00:00:00Z</time>
      </trkpt>
      <trkpt lat="39.464681" lon="-5.188237">
        <ele>610.0</ele>
        <time>1970-01-01T00:00:00Z</time>
      </trkpt>
      <trkpt lat="39.464681" lon="-5.188237">
        <ele>610.0</ele>
        <time>1970-01-01T00:00:00Z</time>
      </trkpt>
      <trkpt lat="39.464681" lon="-5.188237">
        <ele>610.0</ele>
        <time>1970-01-01T00:00:00Z</time>
      </trkpt>
      <trkpt lat="39.464687" lon="-5.188189">
        <ele>610.0</ele>
        <time>1970-01-01T00:00:00Z</time>
      </trkpt>
      <trkpt lat="39.464687" lon="-5.188189">
        <ele>610.0</ele>
        <time>1970-01-01T00:00:00Z</time>
      </trkpt>
      <trkpt lat="39.464687" lon="-5.188189">
        <ele>610.0</ele>
        <time>1970-01-01T00:00:00Z</time>
      </trkpt>
      <trkpt lat="39.464687" lon="-5.188189">
        <ele>610.0</ele>
        <time>1970-01-01T00:00:00Z</time>
      </trkpt>
      <trkpt lat="39.464689" lon="-5.188173">
        <ele>610.0</ele>
        <time>1970-01-01T00:00:00Z</time>
      </trkpt>
      <trkpt lat="39.464689" lon="-5.188173">
        <ele>610.0</ele>
        <time>1970-01-01T00:00:00Z</time>
      </trkpt>
      <trkpt lat="39.464689" lon="-5.188173">
        <ele>610.0</ele>
        <time>1970-01-01T00:00:00Z</time>
      </trkpt>
      <trkpt lat="39.464689" lon="-5.188173">
        <ele>610.0</ele>
        <time>1970-01-01T00:00:00Z</time>
      </trkpt>
      <trkpt lat="39.464705" lon="-5.188045">
        <ele>610.0</ele>
        <time>1970-01-01T00:00:00Z</time>
      </trkpt>
      <trkpt lat="39.464705" lon="-5.188045">
        <ele>610.0</ele>
        <time>1970-01-01T00:00:00Z</time>
      </trkpt>
      <trkpt lat="39.464705" lon="-5.188045">
        <ele>610.0</ele>
        <time>1970-01-01T00:00:00Z</time>
      </trkpt>
      <trkpt lat="39.464705" lon="-5.188045">
        <ele>610.0</ele>
        <time>1970-01-01T00:00:00Z</time>
      </trkpt>
      <trkpt lat="39.464709" lon="-5.188012">
        <ele>609.8</ele>
        <time>1970-01-01T00:00:00Z</time>
      </trkpt>
      <trkpt lat="39.464709" lon="-5.188012">
        <ele>609.8</ele>
        <time>1970-01-01T00:00:00Z</time>
      </trkpt>
      <trkpt lat="39.464709" lon="-5.188012">
        <ele>609.8</ele>
        <time>1970-01-01T00:00:00Z</time>
      </trkpt>
      <trkpt lat="39.464709" lon="-5.188012">
        <ele>609.8</ele>
        <time>1970-01-01T00:00:00Z</time>
      </trkpt>
      <trkpt lat="39.464713" lon="-5.187979">
        <ele>609.7</ele>
        <time>1970-01-01T00:00:00Z</time>
      </trkpt>
      <trkpt lat="39.464713" lon="-5.187979">
        <ele>609.7</ele>
        <time>1970-01-01T00:00:00Z</time>
      </trkpt>
      <trkpt lat="39.464713" lon="-5.187979">
        <ele>609.7</ele>
        <time>1970-01-01T00:00:00Z</time>
      </trkpt>
      <trkpt lat="39.464713" lon="-5.187979">
        <ele>609.7</ele>
        <time>1970-01-01T00:00:00Z</time>
      </trkpt>
      <trkpt lat="39.464713" lon="-5.187965">
        <ele>609.6</ele>
        <time>1970-01-01T00:00:00Z</time>
      </trkpt>
      <trkpt lat="39.464713" lon="-5.187965">
        <ele>609.6</ele>
        <time>1970-01-01T00:00:00Z</time>
      </trkpt>
      <trkpt lat="39.464713" lon="-5.187965">
        <ele>609.6</ele>
        <time>1970-01-01T00:00:00Z</time>
      </trkpt>
      <trkpt lat="39.464713" lon="-5.187965">
        <ele>609.6</ele>
        <time>1970-01-01T00:00:00Z</time>
      </trkpt>
      <trkpt lat="39.464714" lon="-5.187939">
        <ele>609.5</ele>
        <time>1970-01-01T00:00:00Z</time>
      </trkpt>
      <trkpt lat="39.464714" lon="-5.187939">
        <ele>609.5</ele>
        <time>1970-01-01T00:00:00Z</time>
      </trkpt>
      <trkpt lat="39.464714" lon="-5.187939">
        <ele>609.5</ele>
        <time>1970-01-01T00:00:00Z</time>
      </trkpt>
      <trkpt lat="39.464714" lon="-5.187939">
        <ele>609.5</ele>
        <time>1970-01-01T00:00:00Z</time>
      </trkpt>
      <trkpt lat="39.464717" lon="-5.187851">
        <ele>609.2</ele>
        <time>1970-01-01T00:00:00Z</time>
      </trkpt>
      <trkpt lat="39.464717" lon="-5.187851">
        <ele>609.2</ele>
        <time>1970-01-01T00:00:00Z</time>
      </trkpt>
      <trkpt lat="39.464717" lon="-5.187851">
        <ele>609.2</ele>
        <time>1970-01-01T00:00:00Z</time>
      </trkpt>
      <trkpt lat="39.464717" lon="-5.187851">
        <ele>609.2</ele>
        <time>1970-01-01T00:00:00Z</time>
      </trkpt>
      <trkpt lat="39.464720" lon="-5.187708">
        <ele>608.6</ele>
        <time>1970-01-01T00:00:00Z</time>
      </trkpt>
      <trkpt lat="39.464720" lon="-5.187708">
        <ele>608.6</ele>
        <time>1970-01-01T00:00:00Z</time>
      </trkpt>
      <trkpt lat="39.464720" lon="-5.187708">
        <ele>608.6</ele>
        <time>1970-01-01T00:00:00Z</time>
      </trkpt>
      <trkpt lat="39.464720" lon="-5.187708">
        <ele>608.6</ele>
        <time>1970-01-01T00:00:00Z</time>
      </trkpt>
      <trkpt lat="39.464721" lon="-5.187668">
        <ele>608.4</ele>
        <time>1970-01-01T00:00:00Z</time>
      </trkpt>
      <trkpt lat="39.464721" lon="-5.187668">
        <ele>608.4</ele>
        <time>1970-01-01T00:00:00Z</time>
      </trkpt>
      <trkpt lat="39.464721" lon="-5.187668">
        <ele>608.4</ele>
        <time>1970-01-01T00:00:00Z</time>
      </trkpt>
      <trkpt lat="39.464721" lon="-5.187668">
        <ele>608.4</ele>
        <time>1970-01-01T00:00:00Z</time>
      </trkpt>
      <trkpt lat="39.464722" lon="-5.187662">
        <ele>608.3</ele>
        <time>1970-01-01T00:00:00Z</time>
      </trkpt>
      <trkpt lat="39.464722" lon="-5.187662">
        <ele>608.3</ele>
        <time>1970-01-01T00:00:00Z</time>
      </trkpt>
      <trkpt lat="39.464722" lon="-5.187662">
        <ele>608.3</ele>
        <time>1970-01-01T00:00:00Z</time>
      </trkpt>
      <trkpt lat="39.464722" lon="-5.187662">
        <ele>608.3</ele>
        <time>1970-01-01T00:00:00Z</time>
      </trkpt>
      <trkpt lat="39.464721" lon="-5.187638">
        <ele>608.2</ele>
        <time>1970-01-01T00:00:00Z</time>
      </trkpt>
      <trkpt lat="39.464721" lon="-5.187638">
        <ele>608.2</ele>
        <time>1970-01-01T00:00:00Z</time>
      </trkpt>
      <trkpt lat="39.464721" lon="-5.187638">
        <ele>608.2</ele>
        <time>1970-01-01T00:00:00Z</time>
      </trkpt>
      <trkpt lat="39.464721" lon="-5.187638">
        <ele>608.2</ele>
        <time>1970-01-01T00:00:00Z</time>
      </trkpt>
      <trkpt lat="39.464717" lon="-5.187562">
        <ele>607.9</ele>
        <time>1970-01-01T00:00:00Z</time>
      </trkpt>
      <trkpt lat="39.464717" lon="-5.187562">
        <ele>607.9</ele>
        <time>1970-01-01T00:00:00Z</time>
      </trkpt>
      <trkpt lat="39.464717" lon="-5.187562">
        <ele>607.9</ele>
        <time>1970-01-01T00:00:00Z</time>
      </trkpt>
      <trkpt lat="39.464717" lon="-5.187562">
        <ele>607.9</ele>
        <time>1970-01-01T00:00:00Z</time>
      </trkpt>
      <trkpt lat="39.464714" lon="-5.187525">
        <ele>607.7</ele>
        <time>1970-01-01T00:00:00Z</time>
      </trkpt>
      <trkpt lat="39.464714" lon="-5.187525">
        <ele>607.7</ele>
        <time>1970-01-01T00:00:00Z</time>
      </trkpt>
      <trkpt lat="39.464714" lon="-5.187525">
        <ele>607.7</ele>
        <time>1970-01-01T00:00:00Z</time>
      </trkpt>
      <trkpt lat="39.464714" lon="-5.187525">
        <ele>607.7</ele>
        <time>1970-01-01T00:00:00Z</time>
      </trkpt>
      <trkpt lat="39.464711" lon="-5.187487">
        <ele>607.6</ele>
        <time>1970-01-01T00:00:00Z</time>
      </trkpt>
      <trkpt lat="39.464711" lon="-5.187487">
        <ele>607.6</ele>
        <time>1970-01-01T00:00:00Z</time>
      </trkpt>
      <trkpt lat="39.464711" lon="-5.187487">
        <ele>607.6</ele>
        <time>1970-01-01T00:00:00Z</time>
      </trkpt>
      <trkpt lat="39.464711" lon="-5.187487">
        <ele>607.6</ele>
        <time>1970-01-01T00:00:00Z</time>
      </trkpt>
      <trkpt lat="39.464710" lon="-5.187471">
        <ele>607.5</ele>
        <time>1970-01-01T00:00:00Z</time>
      </trkpt>
      <trkpt lat="39.464710" lon="-5.187471">
        <ele>607.5</ele>
        <time>1970-01-01T00:00:00Z</time>
      </trkpt>
      <trkpt lat="39.464710" lon="-5.187471">
        <ele>607.5</ele>
        <time>1970-01-01T00:00:00Z</time>
      </trkpt>
      <trkpt lat="39.464710" lon="-5.187471">
        <ele>607.5</ele>
        <time>1970-01-01T00:00:00Z</time>
      </trkpt>
      <trkpt lat="39.464709" lon="-5.187453">
        <ele>607.4</ele>
        <time>1970-01-01T00:00:00Z</time>
      </trkpt>
      <trkpt lat="39.464709" lon="-5.187453">
        <ele>607.4</ele>
        <time>1970-01-01T00:00:00Z</time>
      </trkpt>
      <trkpt lat="39.464709" lon="-5.187453">
        <ele>607.4</ele>
        <time>1970-01-01T00:00:00Z</time>
      </trkpt>
      <trkpt lat="39.464709" lon="-5.187453">
        <ele>607.4</ele>
        <time>1970-01-01T00:00:00Z</time>
      </trkpt>
      <trkpt lat="39.464707" lon="-5.187430">
        <ele>607.3</ele>
        <time>1970-01-01T00:00:00Z</time>
      </trkpt>
      <trkpt lat="39.464707" lon="-5.187430">
        <ele>607.3</ele>
        <time>1970-01-01T00:00:00Z</time>
      </trkpt>
      <trkpt lat="39.464707" lon="-5.187430">
        <ele>607.3</ele>
        <time>1970-01-01T00:00:00Z</time>
      </trkpt>
      <trkpt lat="39.464707" lon="-5.187430">
        <ele>607.3</ele>
        <time>1970-01-01T00:00:00Z</time>
      </trkpt>
      <trkpt lat="39.464703" lon="-5.187376">
        <ele>607.1</ele>
        <time>1970-01-01T00:00:00Z</time>
      </trkpt>
      <trkpt lat="39.464703" lon="-5.187376">
        <ele>607.1</ele>
        <time>1970-01-01T00:00:00Z</time>
      </trkpt>
      <trkpt lat="39.464703" lon="-5.187376">
        <ele>607.1</ele>
        <time>1970-01-01T00:00:00Z</time>
      </trkpt>
      <trkpt lat="39.464703" lon="-5.187376">
        <ele>607.1</ele>
        <time>1970-01-01T00:00:00Z</time>
      </trkpt>
      <trkpt lat="39.464700" lon="-5.187339">
        <ele>606.9</ele>
        <time>1970-01-01T00:00:00Z</time>
      </trkpt>
      <trkpt lat="39.464700" lon="-5.187339">
        <ele>606.9</ele>
        <time>1970-01-01T00:00:00Z</time>
      </trkpt>
      <trkpt lat="39.464700" lon="-5.187339">
        <ele>606.9</ele>
        <time>1970-01-01T00:00:00Z</time>
      </trkpt>
      <trkpt lat="39.464700" lon="-5.187339">
        <ele>606.9</ele>
        <time>1970-01-01T00:00:00Z</time>
      </trkpt>
      <trkpt lat="39.464696" lon="-5.187292">
        <ele>606.7</ele>
        <time>1970-01-01T00:00:00Z</time>
      </trkpt>
      <trkpt lat="39.464696" lon="-5.187292">
        <ele>606.7</ele>
        <time>1970-01-01T00:00:00Z</time>
      </trkpt>
      <trkpt lat="39.464696" lon="-5.187292">
        <ele>606.7</ele>
        <time>1970-01-01T00:00:00Z</time>
      </trkpt>
      <trkpt lat="39.464696" lon="-5.187292">
        <ele>606.7</ele>
        <time>1970-01-01T00:00:00Z</time>
      </trkpt>
      <trkpt lat="39.464689" lon="-5.187207">
        <ele>606.3</ele>
        <time>1970-01-01T00:00:00Z</time>
      </trkpt>
      <trkpt lat="39.464689" lon="-5.187207">
        <ele>606.3</ele>
        <time>1970-01-01T00:00:00Z</time>
      </trkpt>
      <trkpt lat="39.464689" lon="-5.187207">
        <ele>606.3</ele>
        <time>1970-01-01T00:00:00Z</time>
      </trkpt>
      <trkpt lat="39.464689" lon="-5.187207">
        <ele>606.3</ele>
        <time>1970-01-01T00:00:00Z</time>
      </trkpt>
      <trkpt lat="39.464688" lon="-5.187193">
        <ele>606.3</ele>
        <time>1970-01-01T00:00:00Z</time>
      </trkpt>
      <trkpt lat="39.464688" lon="-5.187193">
        <ele>606.3</ele>
        <time>1970-01-01T00:00:00Z</time>
      </trkpt>
      <trkpt lat="39.464688" lon="-5.187193">
        <ele>606.3</ele>
        <time>1970-01-01T00:00:00Z</time>
      </trkpt>
      <trkpt lat="39.464688" lon="-5.187193">
        <ele>606.3</ele>
        <time>1970-01-01T00:00:00Z</time>
      </trkpt>
      <trkpt lat="39.464688" lon="-5.187190">
        <ele>606.3</ele>
        <time>1970-01-01T00:00:00Z</time>
      </trkpt>
      <trkpt lat="39.464688" lon="-5.187190">
        <ele>606.3</ele>
        <time>1970-01-01T00:00:00Z</time>
      </trkpt>
      <trkpt lat="39.464688" lon="-5.187190">
        <ele>606.3</ele>
        <time>1970-01-01T00:00:00Z</time>
      </trkpt>
      <trkpt lat="39.464688" lon="-5.187190">
        <ele>606.3</ele>
        <time>1970-01-01T00:00:00Z</time>
      </trkpt>
      <trkpt lat="39.464679" lon="-5.187107">
        <ele>605.8</ele>
        <time>1970-01-01T00:00:00Z</time>
      </trkpt>
      <trkpt lat="39.464679" lon="-5.187107">
        <ele>605.8</ele>
        <time>1970-01-01T00:00:00Z</time>
      </trkpt>
      <trkpt lat="39.464679" lon="-5.187107">
        <ele>605.8</ele>
        <time>1970-01-01T00:00:00Z</time>
      </trkpt>
      <trkpt lat="39.464679" lon="-5.187107">
        <ele>605.8</ele>
        <time>1970-01-01T00:00:00Z</time>
      </trkpt>
      <trkpt lat="39.464677" lon="-5.187092">
        <ele>605.7</ele>
        <time>1970-01-01T00:00:00Z</time>
      </trkpt>
      <trkpt lat="39.464677" lon="-5.187092">
        <ele>605.7</ele>
        <time>1970-01-01T00:00:00Z</time>
      </trkpt>
      <trkpt lat="39.464677" lon="-5.187092">
        <ele>605.7</ele>
        <time>1970-01-01T00:00:00Z</time>
      </trkpt>
      <trkpt lat="39.464677" lon="-5.187092">
        <ele>605.7</ele>
        <time>1970-01-01T00:00:00Z</time>
      </trkpt>
      <trkpt lat="39.464676" lon="-5.187085">
        <ele>605.7</ele>
        <time>1970-01-01T00:00:00Z</time>
      </trkpt>
      <trkpt lat="39.464676" lon="-5.187085">
        <ele>605.7</ele>
        <time>1970-01-01T00:00:00Z</time>
      </trkpt>
      <trkpt lat="39.464676" lon="-5.187085">
        <ele>605.7</ele>
        <time>1970-01-01T00:00:00Z</time>
      </trkpt>
      <trkpt lat="39.464676" lon="-5.187085">
        <ele>605.7</ele>
        <time>1970-01-01T00:00:00Z</time>
      </trkpt>
      <trkpt lat="39.464666" lon="-5.187029">
        <ele>605.2</ele>
        <time>1970-01-01T00:00:00Z</time>
      </trkpt>
      <trkpt lat="39.464666" lon="-5.187029">
        <ele>605.2</ele>
        <time>1970-01-01T00:00:00Z</time>
      </trkpt>
      <trkpt lat="39.464666" lon="-5.187029">
        <ele>605.2</ele>
        <time>1970-01-01T00:00:00Z</time>
      </trkpt>
      <trkpt lat="39.464666" lon="-5.187029">
        <ele>605.2</ele>
        <time>1970-01-01T00:00:00Z</time>
      </trkpt>
      <trkpt lat="39.464656" lon="-5.186984">
        <ele>604.9</ele>
        <time>1970-01-01T00:00:00Z</time>
      </trkpt>
      <trkpt lat="39.464656" lon="-5.186984">
        <ele>604.9</ele>
        <time>1970-01-01T00:00:00Z</time>
      </trkpt>
      <trkpt lat="39.464656" lon="-5.186984">
        <ele>604.9</ele>
        <time>1970-01-01T00:00:00Z</time>
      </trkpt>
      <trkpt lat="39.464656" lon="-5.186984">
        <ele>604.9</ele>
        <time>1970-01-01T00:00:00Z</time>
      </trkpt>
      <trkpt lat="39.464649" lon="-5.186930">
        <ele>604.5</ele>
        <time>1970-01-01T00:00:00Z</time>
      </trkpt>
      <trkpt lat="39.464649" lon="-5.186930">
        <ele>604.5</ele>
        <time>1970-01-01T00:00:00Z</time>
      </trkpt>
      <trkpt lat="39.464649" lon="-5.186930">
        <ele>604.5</ele>
        <time>1970-01-01T00:00:00Z</time>
      </trkpt>
      <trkpt lat="39.464649" lon="-5.186930">
        <ele>604.5</ele>
        <time>1970-01-01T00:00:00Z</time>
      </trkpt>
      <trkpt lat="39.464643" lon="-5.186895">
        <ele>604.2</ele>
        <time>1970-01-01T00:00:00Z</time>
      </trkpt>
      <trkpt lat="39.464643" lon="-5.186895">
        <ele>604.2</ele>
        <time>1970-01-01T00:00:00Z</time>
      </trkpt>
      <trkpt lat="39.464643" lon="-5.186895">
        <ele>604.2</ele>
        <time>1970-01-01T00:00:00Z</time>
      </trkpt>
      <trkpt lat="39.464643" lon="-5.186895">
        <ele>604.2</ele>
        <time>1970-01-01T00:00:00Z</time>
      </trkpt>
      <trkpt lat="39.464639" lon="-5.186869">
        <ele>604.1</ele>
        <time>1970-01-01T00:00:00Z</time>
      </trkpt>
      <trkpt lat="39.464639" lon="-5.186869">
        <ele>604.1</ele>
        <time>1970-01-01T00:00:00Z</time>
      </trkpt>
      <trkpt lat="39.464639" lon="-5.186869">
        <ele>604.1</ele>
        <time>1970-01-01T00:00:00Z</time>
      </trkpt>
      <trkpt lat="39.464639" lon="-5.186869">
        <ele>604.1</ele>
        <time>1970-01-01T00:00:00Z</time>
      </trkpt>
      <trkpt lat="39.464636" lon="-5.186847">
        <ele>604.0</ele>
        <time>1970-01-01T00:00:00Z</time>
      </trkpt>
      <trkpt lat="39.464636" lon="-5.186847">
        <ele>604.0</ele>
        <time>1970-01-01T00:00:00Z</time>
      </trkpt>
      <trkpt lat="39.464636" lon="-5.186847">
        <ele>604.0</ele>
        <time>1970-01-01T00:00:00Z</time>
      </trkpt>
      <trkpt lat="39.464636" lon="-5.186847">
        <ele>604.0</ele>
        <time>1970-01-01T00:00:00Z</time>
      </trkpt>
      <trkpt lat="39.464632" lon="-5.186814">
        <ele>603.8</ele>
        <time>1970-01-01T00:00:00Z</time>
      </trkpt>
      <trkpt lat="39.464632" lon="-5.186814">
        <ele>603.8</ele>
        <time>1970-01-01T00:00:00Z</time>
      </trkpt>
      <trkpt lat="39.464632" lon="-5.186814">
        <ele>603.8</ele>
        <time>1970-01-01T00:00:00Z</time>
      </trkpt>
      <trkpt lat="39.464632" lon="-5.186814">
        <ele>603.8</ele>
        <time>1970-01-01T00:00:00Z</time>
      </trkpt>
      <trkpt lat="39.464631" lon="-5.186800">
        <ele>603.8</ele>
        <time>1970-01-01T00:00:00Z</time>
      </trkpt>
      <trkpt lat="39.464631" lon="-5.186800">
        <ele>603.8</ele>
        <time>1970-01-01T00:00:00Z</time>
      </trkpt>
      <trkpt lat="39.464631" lon="-5.186800">
        <ele>603.8</ele>
        <time>1970-01-01T00:00:00Z</time>
      </trkpt>
      <trkpt lat="39.464631" lon="-5.186800">
        <ele>603.8</ele>
        <time>1970-01-01T00:00:00Z</time>
      </trkpt>
      <trkpt lat="39.464629" lon="-5.186766">
        <ele>603.6</ele>
        <time>1970-01-01T00:00:00Z</time>
      </trkpt>
      <trkpt lat="39.464629" lon="-5.186766">
        <ele>603.6</ele>
        <time>1970-01-01T00:00:00Z</time>
      </trkpt>
      <trkpt lat="39.464629" lon="-5.186766">
        <ele>603.6</ele>
        <time>1970-01-01T00:00:00Z</time>
      </trkpt>
      <trkpt lat="39.464629" lon="-5.186766">
        <ele>603.6</ele>
        <time>1970-01-01T00:00:00Z</time>
      </trkpt>
      <trkpt lat="39.464627" lon="-5.186728">
        <ele>603.4</ele>
        <time>1970-01-01T00:00:00Z</time>
      </trkpt>
      <trkpt lat="39.464627" lon="-5.186728">
        <ele>603.4</ele>
        <time>1970-01-01T00:00:00Z</time>
      </trkpt>
      <trkpt lat="39.464627" lon="-5.186728">
        <ele>603.4</ele>
        <time>1970-01-01T00:00:00Z</time>
      </trkpt>
      <trkpt lat="39.464627" lon="-5.186728">
        <ele>603.4</ele>
        <time>1970-01-01T00:00:00Z</time>
      </trkpt>
      <trkpt lat="39.464629" lon="-5.186647">
        <ele>602.9</ele>
        <time>1970-01-01T00:00:00Z</time>
      </trkpt>
      <trkpt lat="39.464629" lon="-5.186647">
        <ele>602.9</ele>
        <time>1970-01-01T00:00:00Z</time>
      </trkpt>
      <trkpt lat="39.464629" lon="-5.186647">
        <ele>602.9</ele>
        <time>1970-01-01T00:00:00Z</time>
      </trkpt>
      <trkpt lat="39.464629" lon="-5.186647">
        <ele>602.9</ele>
        <time>1970-01-01T00:00:00Z</time>
      </trkpt>
      <trkpt lat="39.464631" lon="-5.186633">
        <ele>602.9</ele>
        <time>1970-01-01T00:00:00Z</time>
      </trkpt>
      <trkpt lat="39.464631" lon="-5.186633">
        <ele>602.9</ele>
        <time>1970-01-01T00:00:00Z</time>
      </trkpt>
      <trkpt lat="39.464631" lon="-5.186633">
        <ele>602.9</ele>
        <time>1970-01-01T00:00:00Z</time>
      </trkpt>
      <trkpt lat="39.464631" lon="-5.186633">
        <ele>602.9</ele>
        <time>1970-01-01T00:00:00Z</time>
      </trkpt>
      <trkpt lat="39.464635" lon="-5.186528">
        <ele>602.4</ele>
        <time>1970-01-01T00:00:00Z</time>
      </trkpt>
      <trkpt lat="39.464635" lon="-5.186528">
        <ele>602.4</ele>
        <time>1970-01-01T00:00:00Z</time>
      </trkpt>
      <trkpt lat="39.464635" lon="-5.186528">
        <ele>602.4</ele>
        <time>1970-01-01T00:00:00Z</time>
      </trkpt>
      <trkpt lat="39.464635" lon="-5.186528">
        <ele>602.4</ele>
        <time>1970-01-01T00:00:00Z</time>
      </trkpt>
      <trkpt lat="39.464645" lon="-5.186465">
        <ele>602.1</ele>
        <time>1970-01-01T00:00:00Z</time>
      </trkpt>
      <trkpt lat="39.464645" lon="-5.186465">
        <ele>602.1</ele>
        <time>1970-01-01T00:00:00Z</time>
      </trkpt>
      <trkpt lat="39.464645" lon="-5.186465">
        <ele>602.1</ele>
        <time>1970-01-01T00:00:00Z</time>
      </trkpt>
      <trkpt lat="39.464645" lon="-5.186465">
        <ele>602.1</ele>
        <time>1970-01-01T00:00:00Z</time>
      </trkpt>
      <trkpt lat="39.464649" lon="-5.186434">
        <ele>602.0</ele>
        <time>1970-01-01T00:00:00Z</time>
      </trkpt>
      <trkpt lat="39.464649" lon="-5.186434">
        <ele>602.0</ele>
        <time>1970-01-01T00:00:00Z</time>
      </trkpt>
      <trkpt lat="39.464649" lon="-5.186434">
        <ele>602.0</ele>
        <time>1970-01-01T00:00:00Z</time>
      </trkpt>
      <trkpt lat="39.464649" lon="-5.186434">
        <ele>602.0</ele>
        <time>1970-01-01T00:00:00Z</time>
      </trkpt>
      <trkpt lat="39.464670" lon="-5.186352">
        <ele>601.4</ele>
        <time>1970-01-01T00:00:00Z</time>
      </trkpt>
      <trkpt lat="39.464670" lon="-5.186352">
        <ele>601.4</ele>
        <time>1970-01-01T00:00:00Z</time>
      </trkpt>
      <trkpt lat="39.464670" lon="-5.186352">
        <ele>601.4</ele>
        <time>1970-01-01T00:00:00Z</time>
      </trkpt>
      <trkpt lat="39.464670" lon="-5.186352">
        <ele>601.4</ele>
        <time>1970-01-01T00:00:00Z</time>
      </trkpt>
      <trkpt lat="39.464700" lon="-5.186273">
        <ele>600.6</ele>
        <time>1970-01-01T00:00:00Z</time>
      </trkpt>
      <trkpt lat="39.464700" lon="-5.186273">
        <ele>600.6</ele>
        <time>1970-01-01T00:00:00Z</time>
      </trkpt>
      <trkpt lat="39.464700" lon="-5.186273">
        <ele>600.6</ele>
        <time>1970-01-01T00:00:00Z</time>
      </trkpt>
      <trkpt lat="39.464700" lon="-5.186273">
        <ele>600.6</ele>
        <time>1970-01-01T00:00:00Z</time>
      </trkpt>
      <trkpt lat="39.464704" lon="-5.186262">
        <ele>600.5</ele>
        <time>1970-01-01T00:00:00Z</time>
      </trkpt>
      <trkpt lat="39.464704" lon="-5.186262">
        <ele>600.5</ele>
        <time>1970-01-01T00:00:00Z</time>
      </trkpt>
      <trkpt lat="39.464704" lon="-5.186262">
        <ele>600.5</ele>
        <time>1970-01-01T00:00:00Z</time>
      </trkpt>
      <trkpt lat="39.464704" lon="-5.186262">
        <ele>600.5</ele>
        <time>1970-01-01T00:00:00Z</time>
      </trkpt>
      <trkpt lat="39.464710" lon="-5.186246">
        <ele>600.4</ele>
        <time>1970-01-01T00:00:00Z</time>
      </trkpt>
      <trkpt lat="39.464710" lon="-5.186246">
        <ele>600.4</ele>
        <time>1970-01-01T00:00:00Z</time>
      </trkpt>
      <trkpt lat="39.464710" lon="-5.186246">
        <ele>600.4</ele>
        <time>1970-01-01T00:00:00Z</time>
      </trkpt>
      <trkpt lat="39.464710" lon="-5.186246">
        <ele>600.4</ele>
        <time>1970-01-01T00:00:00Z</time>
      </trkpt>
      <trkpt lat="39.464782" lon="-5.186089">
        <ele>598.9</ele>
        <time>1970-01-01T00:00:00Z</time>
      </trkpt>
      <trkpt lat="39.464782" lon="-5.186089">
        <ele>598.9</ele>
        <time>1970-01-01T00:00:00Z</time>
      </trkpt>
      <trkpt lat="39.464782" lon="-5.186089">
        <ele>598.9</ele>
        <time>1970-01-01T00:00:00Z</time>
      </trkpt>
      <trkpt lat="39.464782" lon="-5.186089">
        <ele>598.9</ele>
        <time>1970-01-01T00:00:00Z</time>
      </trkpt>
      <trkpt lat="39.464786" lon="-5.186081">
        <ele>598.8</ele>
        <time>1970-01-01T00:00:00Z</time>
      </trkpt>
      <trkpt lat="39.464786" lon="-5.186081">
        <ele>598.8</ele>
        <time>1970-01-01T00:00:00Z</time>
      </trkpt>
      <trkpt lat="39.464786" lon="-5.186081">
        <ele>598.8</ele>
        <time>1970-01-01T00:00:00Z</time>
      </trkpt>
      <trkpt lat="39.464786" lon="-5.186081">
        <ele>598.8</ele>
        <time>1970-01-01T00:00:00Z</time>
      </trkpt>
      <trkpt lat="39.464797" lon="-5.186060">
        <ele>598.5</ele>
        <time>1970-01-01T00:00:00Z</time>
      </trkpt>
      <trkpt lat="39.464797" lon="-5.186060">
        <ele>598.5</ele>
        <time>1970-01-01T00:00:00Z</time>
      </trkpt>
      <trkpt lat="39.464797" lon="-5.186060">
        <ele>598.5</ele>
        <time>1970-01-01T00:00:00Z</time>
      </trkpt>
      <trkpt lat="39.464797" lon="-5.186060">
        <ele>598.5</ele>
        <time>1970-01-01T00:00:00Z</time>
      </trkpt>
      <trkpt lat="39.464802" lon="-5.186051">
        <ele>598.4</ele>
        <time>1970-01-01T00:00:00Z</time>
      </trkpt>
      <trkpt lat="39.464802" lon="-5.186051">
        <ele>598.4</ele>
        <time>1970-01-01T00:00:00Z</time>
      </trkpt>
      <trkpt lat="39.464802" lon="-5.186051">
        <ele>598.4</ele>
        <time>1970-01-01T00:00:00Z</time>
      </trkpt>
      <trkpt lat="39.464802" lon="-5.186051">
        <ele>598.4</ele>
        <time>1970-01-01T00:00:00Z</time>
      </trkpt>
      <trkpt lat="39.464851" lon="-5.185981">
        <ele>597.5</ele>
        <time>1970-01-01T00:00:00Z</time>
      </trkpt>
      <trkpt lat="39.464851" lon="-5.185981">
        <ele>597.5</ele>
        <time>1970-01-01T00:00:00Z</time>
      </trkpt>
      <trkpt lat="39.464851" lon="-5.185981">
        <ele>597.5</ele>
        <time>1970-01-01T00:00:00Z</time>
      </trkpt>
      <trkpt lat="39.464851" lon="-5.185981">
        <ele>597.5</ele>
        <time>1970-01-01T00:00:00Z</time>
      </trkpt>
      <trkpt lat="39.464857" lon="-5.185971">
        <ele>597.4</ele>
        <time>1970-01-01T00:00:00Z</time>
      </trkpt>
      <trkpt lat="39.464857" lon="-5.185971">
        <ele>597.4</ele>
        <time>1970-01-01T00:00:00Z</time>
      </trkpt>
      <trkpt lat="39.464857" lon="-5.185971">
        <ele>597.4</ele>
        <time>1970-01-01T00:00:00Z</time>
      </trkpt>
      <trkpt lat="39.464857" lon="-5.185971">
        <ele>597.4</ele>
        <time>1970-01-01T00:00:00Z</time>
      </trkpt>
      <trkpt lat="39.464870" lon="-5.185946">
        <ele>597.2</ele>
        <time>1970-01-01T00:00:00Z</time>
      </trkpt>
      <trkpt lat="39.464870" lon="-5.185946">
        <ele>597.2</ele>
        <time>1970-01-01T00:00:00Z</time>
      </trkpt>
      <trkpt lat="39.464870" lon="-5.185946">
        <ele>597.2</ele>
        <time>1970-01-01T00:00:00Z</time>
      </trkpt>
      <trkpt lat="39.464870" lon="-5.185946">
        <ele>597.2</ele>
        <time>1970-01-01T00:00:00Z</time>
      </trkpt>
      <trkpt lat="39.464877" lon="-5.185931">
        <ele>597.1</ele>
        <time>1970-01-01T00:00:00Z</time>
      </trkpt>
      <trkpt lat="39.464877" lon="-5.185931">
        <ele>597.1</ele>
        <time>1970-01-01T00:00:00Z</time>
      </trkpt>
      <trkpt lat="39.464877" lon="-5.185931">
        <ele>597.1</ele>
        <time>1970-01-01T00:00:00Z</time>
      </trkpt>
      <trkpt lat="39.464877" lon="-5.185931">
        <ele>597.1</ele>
        <time>1970-01-01T00:00:00Z</time>
      </trkpt>
      <trkpt lat="39.464930" lon="-5.185839">
        <ele>596.5</ele>
        <time>1970-01-01T00:00:00Z</time>
      </trkpt>
      <trkpt lat="39.464930" lon="-5.185839">
        <ele>596.5</ele>
        <time>1970-01-01T00:00:00Z</time>
      </trkpt>
      <trkpt lat="39.464930" lon="-5.185839">
        <ele>596.5</ele>
        <time>1970-01-01T00:00:00Z</time>
      </trkpt>
      <trkpt lat="39.464930" lon="-5.185839">
        <ele>596.5</ele>
        <time>1970-01-01T00:00:00Z</time>
      </trkpt>
      <trkpt lat="39.464959" lon="-5.185789">
        <ele>596.3</ele>
        <time>1970-01-01T00:00:00Z</time>
      </trkpt>
      <trkpt lat="39.464959" lon="-5.185789">
        <ele>596.3</ele>
        <time>1970-01-01T00:00:00Z</time>
      </trkpt>
      <trkpt lat="39.464959" lon="-5.185789">
        <ele>596.3</ele>
        <time>1970-01-01T00:00:00Z</time>
      </trkpt>
      <trkpt lat="39.464959" lon="-5.185789">
        <ele>596.3</ele>
        <time>1970-01-01T00:00:00Z</time>
      </trkpt>
      <trkpt lat="39.464981" lon="-5.185750">
        <ele>596.1</ele>
        <time>1970-01-01T00:00:00Z</time>
      </trkpt>
      <trkpt lat="39.464981" lon="-5.185750">
        <ele>596.1</ele>
        <time>1970-01-01T00:00:00Z</time>
      </trkpt>
      <trkpt lat="39.464981" lon="-5.185750">
        <ele>596.1</ele>
        <time>1970-01-01T00:00:00Z</time>
      </trkpt>
      <trkpt lat="39.464981" lon="-5.185750">
        <ele>596.1</ele>
        <time>1970-01-01T00:00:00Z</time>
      </trkpt>
      <trkpt lat="39.465089" lon="-5.185570">
        <ele>594.1</ele>
        <time>1970-01-01T00:00:00Z</time>
      </trkpt>
      <trkpt lat="39.465089" lon="-5.185570">
        <ele>594.1</ele>
        <time>1970-01-01T00:00:00Z</time>
      </trkpt>
      <trkpt lat="39.465089" lon="-5.185570">
        <ele>594.1</ele>
        <time>1970-01-01T00:00:00Z</time>
      </trkpt>
      <trkpt lat="39.465089" lon="-5.185570">
        <ele>594.1</ele>
        <time>1970-01-01T00:00:00Z</time>
      </trkpt>
      <trkpt lat="39.465164" lon="-5.185438">
        <ele>592.4</ele>
        <time>1970-01-01T00:00:00Z</time>
      </trkpt>
      <trkpt lat="39.465164" lon="-5.185438">
        <ele>592.4</ele>
        <time>1970-01-01T00:00:00Z</time>
      </trkpt>
      <trkpt lat="39.465164" lon="-5.185438">
        <ele>592.4</ele>
        <time>1970-01-01T00:00:00Z</time>
      </trkpt>
      <trkpt lat="39.465164" lon="-5.185438">
        <ele>592.4</ele>
        <time>1970-01-01T00:00:00Z</time>
      </trkpt>
      <trkpt lat="39.465173" lon="-5.185422">
        <ele>592.4</ele>
        <time>1970-01-01T00:00:00Z</time>
      </trkpt>
      <trkpt lat="39.465173" lon="-5.185422">
        <ele>592.4</ele>
        <time>1970-01-01T00:00:00Z</time>
      </trkpt>
      <trkpt lat="39.465173" lon="-5.185422">
        <ele>592.4</ele>
        <time>1970-01-01T00:00:00Z</time>
      </trkpt>
      <trkpt lat="39.465173" lon="-5.185422">
        <ele>592.4</ele>
        <time>1970-01-01T00:00:00Z</time>
      </trkpt>
      <trkpt lat="39.465183" lon="-5.185404">
        <ele>592.3</ele>
        <time>1970-01-01T00:00:00Z</time>
      </trkpt>
      <trkpt lat="39.465183" lon="-5.185404">
        <ele>592.3</ele>
        <time>1970-01-01T00:00:00Z</time>
      </trkpt>
      <trkpt lat="39.465183" lon="-5.185404">
        <ele>592.3</ele>
        <time>1970-01-01T00:00:00Z</time>
      </trkpt>
      <trkpt lat="39.465183" lon="-5.185404">
        <ele>592.3</ele>
        <time>1970-01-01T00:00:00Z</time>
      </trkpt>
      <trkpt lat="39.465259" lon="-5.185258">
        <ele>591.7</ele>
        <time>1970-01-01T00:00:00Z</time>
      </trkpt>
      <trkpt lat="39.465259" lon="-5.185258">
        <ele>591.7</ele>
        <time>1970-01-01T00:00:00Z</time>
      </trkpt>
      <trkpt lat="39.465259" lon="-5.185258">
        <ele>591.7</ele>
        <time>1970-01-01T00:00:00Z</time>
      </trkpt>
      <trkpt lat="39.465259" lon="-5.185258">
        <ele>591.7</ele>
        <time>1970-01-01T00:00:00Z</time>
      </trkpt>
      <trkpt lat="39.465281" lon="-5.185206">
        <ele>591.3</ele>
        <time>1970-01-01T00:00:00Z</time>
      </trkpt>
      <trkpt lat="39.465281" lon="-5.185206">
        <ele>591.3</ele>
        <time>1970-01-01T00:00:00Z</time>
      </trkpt>
      <trkpt lat="39.465281" lon="-5.185206">
        <ele>591.3</ele>
        <time>1970-01-01T00:00:00Z</time>
      </trkpt>
      <trkpt lat="39.465281" lon="-5.185206">
        <ele>591.3</ele>
        <time>1970-01-01T00:00:00Z</time>
      </trkpt>
      <trkpt lat="39.465287" lon="-5.185192">
        <ele>591.2</ele>
        <time>1970-01-01T00:00:00Z</time>
      </trkpt>
      <trkpt lat="39.465287" lon="-5.185192">
        <ele>591.2</ele>
        <time>1970-01-01T00:00:00Z</time>
      </trkpt>
      <trkpt lat="39.465287" lon="-5.185192">
        <ele>591.2</ele>
        <time>1970-01-01T00:00:00Z</time>
      </trkpt>
      <trkpt lat="39.465287" lon="-5.185192">
        <ele>591.2</ele>
        <time>1970-01-01T00:00:00Z</time>
      </trkpt>
      <trkpt lat="39.465314" lon="-5.185128">
        <ele>590.6</ele>
        <time>1970-01-01T00:00:00Z</time>
      </trkpt>
      <trkpt lat="39.465314" lon="-5.185128">
        <ele>590.6</ele>
        <time>1970-01-01T00:00:00Z</time>
      </trkpt>
      <trkpt lat="39.465314" lon="-5.185128">
        <ele>590.6</ele>
        <time>1970-01-01T00:00:00Z</time>
      </trkpt>
      <trkpt lat="39.465314" lon="-5.185128">
        <ele>590.6</ele>
        <time>1970-01-01T00:00:00Z</time>
      </trkpt>
      <trkpt lat="39.465329" lon="-5.185083">
        <ele>590.2</ele>
        <time>1970-01-01T00:00:00Z</time>
      </trkpt>
      <trkpt lat="39.465329" lon="-5.185083">
        <ele>590.2</ele>
        <time>1970-01-01T00:00:00Z</time>
      </trkpt>
      <trkpt lat="39.465329" lon="-5.185083">
        <ele>590.2</ele>
        <time>1970-01-01T00:00:00Z</time>
      </trkpt>
      <trkpt lat="39.465329" lon="-5.185083">
        <ele>590.2</ele>
        <time>1970-01-01T00:00:00Z</time>
      </trkpt>
      <trkpt lat="39.465342" lon="-5.185041">
        <ele>589.8</ele>
        <time>1970-01-01T00:00:00Z</time>
      </trkpt>
      <trkpt lat="39.465342" lon="-5.185041">
        <ele>589.8</ele>
        <time>1970-01-01T00:00:00Z</time>
      </trkpt>
      <trkpt lat="39.465342" lon="-5.185041">
        <ele>589.8</ele>
        <time>1970-01-01T00:00:00Z</time>
      </trkpt>
      <trkpt lat="39.465342" lon="-5.185041">
        <ele>589.8</ele>
        <time>1970-01-01T00:00:00Z</time>
      </trkpt>
      <trkpt lat="39.465351" lon="-5.185015">
        <ele>589.6</ele>
        <time>1970-01-01T00:00:00Z</time>
      </trkpt>
      <trkpt lat="39.465351" lon="-5.185015">
        <ele>589.6</ele>
        <time>1970-01-01T00:00:00Z</time>
      </trkpt>
      <trkpt lat="39.465351" lon="-5.185015">
        <ele>589.6</ele>
        <time>1970-01-01T00:00:00Z</time>
      </trkpt>
      <trkpt lat="39.465351" lon="-5.185015">
        <ele>589.6</ele>
        <time>1970-01-01T00:00:00Z</time>
      </trkpt>
      <trkpt lat="39.465374" lon="-5.184910">
        <ele>588.8</ele>
        <time>1970-01-01T00:00:00Z</time>
      </trkpt>
      <trkpt lat="39.465374" lon="-5.184910">
        <ele>588.8</ele>
        <time>1970-01-01T00:00:00Z</time>
      </trkpt>
      <trkpt lat="39.465374" lon="-5.184910">
        <ele>588.8</ele>
        <time>1970-01-01T00:00:00Z</time>
      </trkpt>
      <trkpt lat="39.465374" lon="-5.184910">
        <ele>588.8</ele>
        <time>1970-01-01T00:00:00Z</time>
      </trkpt>
      <trkpt lat="39.465392" lon="-5.184798">
        <ele>587.9</ele>
        <time>1970-01-01T00:00:00Z</time>
      </trkpt>
      <trkpt lat="39.465392" lon="-5.184798">
        <ele>587.9</ele>
        <time>1970-01-01T00:00:00Z</time>
      </trkpt>
      <trkpt lat="39.465392" lon="-5.184798">
        <ele>587.9</ele>
        <time>1970-01-01T00:00:00Z</time>
      </trkpt>
      <trkpt lat="39.465392" lon="-5.184798">
        <ele>587.9</ele>
        <time>1970-01-01T00:00:00Z</time>
      </trkpt>
      <trkpt lat="39.465408" lon="-5.184696">
        <ele>587.6</ele>
        <time>1970-01-01T00:00:00Z</time>
      </trkpt>
      <trkpt lat="39.465408" lon="-5.184696">
        <ele>587.6</ele>
        <time>1970-01-01T00:00:00Z</time>
      </trkpt>
      <trkpt lat="39.465408" lon="-5.184696">
        <ele>587.6</ele>
        <time>1970-01-01T00:00:00Z</time>
      </trkpt>
      <trkpt lat="39.465408" lon="-5.184696">
        <ele>587.6</ele>
        <time>1970-01-01T00:00:00Z</time>
      </trkpt>
      <trkpt lat="39.465415" lon="-5.184654">
        <ele>587.4</ele>
        <time>1970-01-01T00:00:00Z</time>
      </trkpt>
      <trkpt lat="39.465415" lon="-5.184654">
        <ele>587.4</ele>
        <time>1970-01-01T00:00:00Z</time>
      </trkpt>
      <trkpt lat="39.465415" lon="-5.184654">
        <ele>587.4</ele>
        <time>1970-01-01T00:00:00Z</time>
      </trkpt>
      <trkpt lat="39.465415" lon="-5.184654">
        <ele>587.4</ele>
        <time>1970-01-01T00:00:00Z</time>
      </trkpt>
      <trkpt lat="39.465425" lon="-5.184595">
        <ele>587.2</ele>
        <time>1970-01-01T00:00:00Z</time>
      </trkpt>
      <trkpt lat="39.465425" lon="-5.184595">
        <ele>587.2</ele>
        <time>1970-01-01T00:00:00Z</time>
      </trkpt>
      <trkpt lat="39.465425" lon="-5.184595">
        <ele>587.2</ele>
        <time>1970-01-01T00:00:00Z</time>
      </trkpt>
      <trkpt lat="39.465425" lon="-5.184595">
        <ele>587.2</ele>
        <time>1970-01-01T00:00:00Z</time>
      </trkpt>
      <trkpt lat="39.465437" lon="-5.184524">
        <ele>587.0</ele>
        <time>1970-01-01T00:00:00Z</time>
      </trkpt>
      <trkpt lat="39.465437" lon="-5.184524">
        <ele>587.0</ele>
        <time>1970-01-01T00:00:00Z</time>
      </trkpt>
      <trkpt lat="39.465437" lon="-5.184524">
        <ele>587.0</ele>
        <time>1970-01-01T00:00:00Z</time>
      </trkpt>
      <trkpt lat="39.465437" lon="-5.184524">
        <ele>587.0</ele>
        <time>1970-01-01T00:00:00Z</time>
      </trkpt>
      <trkpt lat="39.465463" lon="-5.184388">
        <ele>586.7</ele>
        <time>1970-01-01T00:00:00Z</time>
      </trkpt>
      <trkpt lat="39.465463" lon="-5.184388">
        <ele>586.7</ele>
        <time>1970-01-01T00:00:00Z</time>
      </trkpt>
      <trkpt lat="39.465463" lon="-5.184388">
        <ele>586.7</ele>
        <time>1970-01-01T00:00:00Z</time>
      </trkpt>
      <trkpt lat="39.465463" lon="-5.184388">
        <ele>586.7</ele>
        <time>1970-01-01T00:00:00Z</time>
      </trkpt>
      <trkpt lat="39.465471" lon="-5.184353">
        <ele>586.7</ele>
        <time>1970-01-01T00:00:00Z</time>
      </trkpt>
      <trkpt lat="39.465471" lon="-5.184353">
        <ele>586.7</ele>
        <time>1970-01-01T00:00:00Z</time>
      </trkpt>
      <trkpt lat="39.465471" lon="-5.184353">
        <ele>586.7</ele>
        <time>1970-01-01T00:00:00Z</time>
      </trkpt>
      <trkpt lat="39.465471" lon="-5.184353">
        <ele>586.7</ele>
        <time>1970-01-01T00:00:00Z</time>
      </trkpt>
      <trkpt lat="39.465494" lon="-5.184258">
        <ele>586.3</ele>
        <time>1970-01-01T00:00:00Z</time>
      </trkpt>
      <trkpt lat="39.465494" lon="-5.184258">
        <ele>586.3</ele>
        <time>1970-01-01T00:00:00Z</time>
      </trkpt>
      <trkpt lat="39.465494" lon="-5.184258">
        <ele>586.3</ele>
        <time>1970-01-01T00:00:00Z</time>
      </trkpt>
      <trkpt lat="39.465494" lon="-5.184258">
        <ele>586.3</ele>
        <time>1970-01-01T00:00:00Z</time>
      </trkpt>
      <trkpt lat="39.465496" lon="-5.184248">
        <ele>586.2</ele>
        <time>1970-01-01T00:00:00Z</time>
      </trkpt>
      <trkpt lat="39.465496" lon="-5.184248">
        <ele>586.2</ele>
        <time>1970-01-01T00:00:00Z</time>
      </trkpt>
      <trkpt lat="39.465496" lon="-5.184248">
        <ele>586.2</ele>
        <time>1970-01-01T00:00:00Z</time>
      </trkpt>
      <trkpt lat="39.465496" lon="-5.184248">
        <ele>586.2</ele>
        <time>1970-01-01T00:00:00Z</time>
      </trkpt>
      <trkpt lat="39.465500" lon="-5.184236">
        <ele>586.2</ele>
        <time>1970-01-01T00:00:00Z</time>
      </trkpt>
      <trkpt lat="39.465500" lon="-5.184236">
        <ele>586.2</ele>
        <time>1970-01-01T00:00:00Z</time>
      </trkpt>
      <trkpt lat="39.465500" lon="-5.184236">
        <ele>586.2</ele>
        <time>1970-01-01T00:00:00Z</time>
      </trkpt>
      <trkpt lat="39.465500" lon="-5.184236">
        <ele>586.2</ele>
        <time>1970-01-01T00:00:00Z</time>
      </trkpt>
      <trkpt lat="39.465509" lon="-5.184203">
        <ele>586.0</ele>
        <time>1970-01-01T00:00:00Z</time>
      </trkpt>
      <trkpt lat="39.465509" lon="-5.184203">
        <ele>586.0</ele>
        <time>1970-01-01T00:00:00Z</time>
      </trkpt>
      <trkpt lat="39.465509" lon="-5.184203">
        <ele>586.0</ele>
        <time>1970-01-01T00:00:00Z</time>
      </trkpt>
      <trkpt lat="39.465509" lon="-5.184203">
        <ele>586.0</ele>
        <time>1970-01-01T00:00:00Z</time>
      </trkpt>
      <trkpt lat="39.465532" lon="-5.184124">
        <ele>585.6</ele>
        <time>1970-01-01T00:00:00Z</time>
      </trkpt>
      <trkpt lat="39.465532" lon="-5.184124">
        <ele>585.6</ele>
        <time>1970-01-01T00:00:00Z</time>
      </trkpt>
      <trkpt lat="39.465532" lon="-5.184124">
        <ele>585.6</ele>
        <time>1970-01-01T00:00:00Z</time>
      </trkpt>
      <trkpt lat="39.465532" lon="-5.184124">
        <ele>585.6</ele>
        <time>1970-01-01T00:00:00Z</time>
      </trkpt>
      <trkpt lat="39.465536" lon="-5.184110">
        <ele>585.6</ele>
        <time>1970-01-01T00:00:00Z</time>
      </trkpt>
      <trkpt lat="39.465536" lon="-5.184110">
        <ele>585.6</ele>
        <time>1970-01-01T00:00:00Z</time>
      </trkpt>
      <trkpt lat="39.465536" lon="-5.184110">
        <ele>585.6</ele>
        <time>1970-01-01T00:00:00Z</time>
      </trkpt>
      <trkpt lat="39.465536" lon="-5.184110">
        <ele>585.6</ele>
        <time>1970-01-01T00:00:00Z</time>
      </trkpt>
      <trkpt lat="39.465550" lon="-5.184070">
        <ele>585.5</ele>
        <time>1970-01-01T00:00:00Z</time>
      </trkpt>
      <trkpt lat="39.465550" lon="-5.184070">
        <ele>585.5</ele>
        <time>1970-01-01T00:00:00Z</time>
      </trkpt>
      <trkpt lat="39.465550" lon="-5.184070">
        <ele>585.5</ele>
        <time>1970-01-01T00:00:00Z</time>
      </trkpt>
      <trkpt lat="39.465550" lon="-5.184070">
        <ele>585.5</ele>
        <time>1970-01-01T00:00:00Z</time>
      </trkpt>
      <trkpt lat="39.465570" lon="-5.184013">
        <ele>585.3</ele>
        <time>1970-01-01T00:00:00Z</time>
      </trkpt>
      <trkpt lat="39.465570" lon="-5.184013">
        <ele>585.3</ele>
        <time>1970-01-01T00:00:00Z</time>
      </trkpt>
      <trkpt lat="39.465570" lon="-5.184013">
        <ele>585.3</ele>
        <time>1970-01-01T00:00:00Z</time>
      </trkpt>
      <trkpt lat="39.465570" lon="-5.184013">
        <ele>585.3</ele>
        <time>1970-01-01T00:00:00Z</time>
      </trkpt>
      <trkpt lat="39.465586" lon="-5.183969">
        <ele>585.2</ele>
        <time>1970-01-01T00:00:00Z</time>
      </trkpt>
      <trkpt lat="39.465586" lon="-5.183969">
        <ele>585.2</ele>
        <time>1970-01-01T00:00:00Z</time>
      </trkpt>
      <trkpt lat="39.465586" lon="-5.183969">
        <ele>585.2</ele>
        <time>1970-01-01T00:00:00Z</time>
      </trkpt>
      <trkpt lat="39.465586" lon="-5.183969">
        <ele>585.2</ele>
        <time>1970-01-01T00:00:00Z</time>
      </trkpt>
      <trkpt lat="39.465588" lon="-5.183961">
        <ele>585.2</ele>
        <time>1970-01-01T00:00:00Z</time>
      </trkpt>
      <trkpt lat="39.465588" lon="-5.183961">
        <ele>585.2</ele>
        <time>1970-01-01T00:00:00Z</time>
      </trkpt>
      <trkpt lat="39.465588" lon="-5.183961">
        <ele>585.2</ele>
        <time>1970-01-01T00:00:00Z</time>
      </trkpt>
      <trkpt lat="39.465588" lon="-5.183961">
        <ele>585.2</ele>
        <time>1970-01-01T00:00:00Z</time>
      </trkpt>
      <trkpt lat="39.465609" lon="-5.183908">
        <ele>585.0</ele>
        <time>1970-01-01T00:00:00Z</time>
      </trkpt>
      <trkpt lat="39.465609" lon="-5.183908">
        <ele>585.0</ele>
        <time>1970-01-01T00:00:00Z</time>
      </trkpt>
      <trkpt lat="39.465609" lon="-5.183908">
        <ele>585.0</ele>
        <time>1970-01-01T00:00:00Z</time>
      </trkpt>
      <trkpt lat="39.465609" lon="-5.183908">
        <ele>585.0</ele>
        <time>1970-01-01T00:00:00Z</time>
      </trkpt>
      <trkpt lat="39.465624" lon="-5.183868">
        <ele>584.8</ele>
        <time>1970-01-01T00:00:00Z</time>
      </trkpt>
      <trkpt lat="39.465624" lon="-5.183868">
        <ele>584.8</ele>
        <time>1970-01-01T00:00:00Z</time>
      </trkpt>
      <trkpt lat="39.465624" lon="-5.183868">
        <ele>584.8</ele>
        <time>1970-01-01T00:00:00Z</time>
      </trkpt>
      <trkpt lat="39.465624" lon="-5.183868">
        <ele>584.8</ele>
        <time>1970-01-01T00:00:00Z</time>
      </trkpt>
      <trkpt lat="39.465642" lon="-5.183822">
        <ele>584.4</ele>
        <time>1970-01-01T00:00:00Z</time>
      </trkpt>
      <trkpt lat="39.465642" lon="-5.183822">
        <ele>584.4</ele>
        <time>1970-01-01T00:00:00Z</time>
      </trkpt>
      <trkpt lat="39.465642" lon="-5.183822">
        <ele>584.4</ele>
        <time>1970-01-01T00:00:00Z</time>
      </trkpt>
      <trkpt lat="39.465642" lon="-5.183822">
        <ele>584.4</ele>
        <time>1970-01-01T00:00:00Z</time>
      </trkpt>
      <trkpt lat="39.465656" lon="-5.183786">
        <ele>584.1</ele>
        <time>1970-01-01T00:00:00Z</time>
      </trkpt>
      <trkpt lat="39.465656" lon="-5.183786">
        <ele>584.1</ele>
        <time>1970-01-01T00:00:00Z</time>
      </trkpt>
      <trkpt lat="39.465656" lon="-5.183786">
        <ele>584.1</ele>
        <time>1970-01-01T00:00:00Z</time>
      </trkpt>
      <trkpt lat="39.465656" lon="-5.183786">
        <ele>584.1</ele>
        <time>1970-01-01T00:00:00Z</time>
      </trkpt>
      <trkpt lat="39.465665" lon="-5.183763">
        <ele>583.9</ele>
        <time>1970-01-01T00:00:00Z</time>
      </trkpt>
      <trkpt lat="39.465665" lon="-5.183763">
        <ele>583.9</ele>
        <time>1970-01-01T00:00:00Z</time>
      </trkpt>
      <trkpt lat="39.465665" lon="-5.183763">
        <ele>583.9</ele>
        <time>1970-01-01T00:00:00Z</time>
      </trkpt>
      <trkpt lat="39.465665" lon="-5.183763">
        <ele>583.9</ele>
        <time>1970-01-01T00:00:00Z</time>
      </trkpt>
      <trkpt lat="39.465670" lon="-5.183748">
        <ele>583.8</ele>
        <time>1970-01-01T00:00:00Z</time>
      </trkpt>
      <trkpt lat="39.465670" lon="-5.183748">
        <ele>583.8</ele>
        <time>1970-01-01T00:00:00Z</time>
      </trkpt>
      <trkpt lat="39.465670" lon="-5.183748">
        <ele>583.8</ele>
        <time>1970-01-01T00:00:00Z</time>
      </trkpt>
      <trkpt lat="39.465670" lon="-5.183748">
        <ele>583.8</ele>
        <time>1970-01-01T00:00:00Z</time>
      </trkpt>
      <trkpt lat="39.465735" lon="-5.183587">
        <ele>582.6</ele>
        <time>1970-01-01T00:00:00Z</time>
      </trkpt>
      <trkpt lat="39.465735" lon="-5.183587">
        <ele>582.6</ele>
        <time>1970-01-01T00:00:00Z</time>
      </trkpt>
      <trkpt lat="39.465735" lon="-5.183587">
        <ele>582.6</ele>
        <time>1970-01-01T00:00:00Z</time>
      </trkpt>
      <trkpt lat="39.465735" lon="-5.183587">
        <ele>582.6</ele>
        <time>1970-01-01T00:00:00Z</time>
      </trkpt>
      <trkpt lat="39.465800" lon="-5.183427">
        <ele>581.3</ele>
        <time>1970-01-01T00:00:00Z</time>
      </trkpt>
      <trkpt lat="39.465800" lon="-5.183427">
        <ele>581.3</ele>
        <time>1970-01-01T00:00:00Z</time>
      </trkpt>
      <trkpt lat="39.465800" lon="-5.183427">
        <ele>581.3</ele>
        <time>1970-01-01T00:00:00Z</time>
      </trkpt>
      <trkpt lat="39.465800" lon="-5.183427">
        <ele>581.3</ele>
        <time>1970-01-01T00:00:00Z</time>
      </trkpt>
      <trkpt lat="39.465864" lon="-5.183266">
        <ele>580.3</ele>
        <time>1970-01-01T00:00:00Z</time>
      </trkpt>
      <trkpt lat="39.465864" lon="-5.183266">
        <ele>580.3</ele>
        <time>1970-01-01T00:00:00Z</time>
      </trkpt>
      <trkpt lat="39.465864" lon="-5.183266">
        <ele>580.3</ele>
        <time>1970-01-01T00:00:00Z</time>
      </trkpt>
      <trkpt lat="39.465864" lon="-5.183266">
        <ele>580.3</ele>
        <time>1970-01-01T00:00:00Z</time>
      </trkpt>
      <trkpt lat="39.465952" lon="-5.183036">
        <ele>578.5</ele>
        <time>1970-01-01T00:00:00Z</time>
      </trkpt>
      <trkpt lat="39.465952" lon="-5.183036">
        <ele>578.5</ele>
        <time>1970-01-01T00:00:00Z</time>
      </trkpt>
      <trkpt lat="39.465952" lon="-5.183036">
        <ele>578.5</ele>
        <time>1970-01-01T00:00:00Z</time>
      </trkpt>
      <trkpt lat="39.465952" lon="-5.183036">
        <ele>578.5</ele>
        <time>1970-01-01T00:00:00Z</time>
      </trkpt>
      <trkpt lat="39.465972" lon="-5.182983">
        <ele>578.1</ele>
        <time>1970-01-01T00:00:00Z</time>
      </trkpt>
      <trkpt lat="39.465972" lon="-5.182983">
        <ele>578.1</ele>
        <time>1970-01-01T00:00:00Z</time>
      </trkpt>
      <trkpt lat="39.465972" lon="-5.182983">
        <ele>578.1</ele>
        <time>1970-01-01T00:00:00Z</time>
      </trkpt>
      <trkpt lat="39.465972" lon="-5.182983">
        <ele>578.1</ele>
        <time>1970-01-01T00:00:00Z</time>
      </trkpt>
      <trkpt lat="39.465980" lon="-5.182960">
        <ele>577.9</ele>
        <time>1970-01-01T00:00:00Z</time>
      </trkpt>
      <trkpt lat="39.465980" lon="-5.182960">
        <ele>577.9</ele>
        <time>1970-01-01T00:00:00Z</time>
      </trkpt>
      <trkpt lat="39.465980" lon="-5.182960">
        <ele>577.9</ele>
        <time>1970-01-01T00:00:00Z</time>
      </trkpt>
      <trkpt lat="39.465980" lon="-5.182960">
        <ele>577.9</ele>
        <time>1970-01-01T00:00:00Z</time>
      </trkpt>
      <trkpt lat="39.466010" lon="-5.182874">
        <ele>577.7</ele>
        <time>1970-01-01T00:00:00Z</time>
      </trkpt>
      <trkpt lat="39.466010" lon="-5.182874">
        <ele>577.7</ele>
        <time>1970-01-01T00:00:00Z</time>
      </trkpt>
      <trkpt lat="39.466010" lon="-5.182874">
        <ele>577.7</ele>
        <time>1970-01-01T00:00:00Z</time>
      </trkpt>
      <trkpt lat="39.466010" lon="-5.182874">
        <ele>577.7</ele>
        <time>1970-01-01T00:00:00Z</time>
      </trkpt>
      <trkpt lat="39.466011" lon="-5.182871">
        <ele>577.7</ele>
        <time>1970-01-01T00:00:00Z</time>
      </trkpt>
      <trkpt lat="39.466011" lon="-5.182871">
        <ele>577.7</ele>
        <time>1970-01-01T00:00:00Z</time>
      </trkpt>
      <trkpt lat="39.466011" lon="-5.182871">
        <ele>577.7</ele>
        <time>1970-01-01T00:00:00Z</time>
      </trkpt>
      <trkpt lat="39.466011" lon="-5.182871">
        <ele>577.7</ele>
        <time>1970-01-01T00:00:00Z</time>
      </trkpt>
      <trkpt lat="39.466023" lon="-5.182836">
        <ele>577.6</ele>
        <time>1970-01-01T00:00:00Z</time>
      </trkpt>
      <trkpt lat="39.466023" lon="-5.182836">
        <ele>577.6</ele>
        <time>1970-01-01T00:00:00Z</time>
      </trkpt>
      <trkpt lat="39.466023" lon="-5.182836">
        <ele>577.6</ele>
        <time>1970-01-01T00:00:00Z</time>
      </trkpt>
      <trkpt lat="39.466023" lon="-5.182836">
        <ele>577.6</ele>
        <time>1970-01-01T00:00:00Z</time>
      </trkpt>
      <trkpt lat="39.466094" lon="-5.182635">
        <ele>576.5</ele>
        <time>1970-01-01T00:00:00Z</time>
      </trkpt>
      <trkpt lat="39.466094" lon="-5.182635">
        <ele>576.5</ele>
        <time>1970-01-01T00:00:00Z</time>
      </trkpt>
      <trkpt lat="39.466094" lon="-5.182635">
        <ele>576.5</ele>
        <time>1970-01-01T00:00:00Z</time>
      </trkpt>
      <trkpt lat="39.466094" lon="-5.182635">
        <ele>576.5</ele>
        <time>1970-01-01T00:00:00Z</time>
      </trkpt>
      <trkpt lat="39.466098" lon="-5.182621">
        <ele>576.4</ele>
        <time>1970-01-01T00:00:00Z</time>
      </trkpt>
      <trkpt lat="39.466098" lon="-5.182621">
        <ele>576.4</ele>
        <time>1970-01-01T00:00:00Z</time>
      </trkpt>
      <trkpt lat="39.466098" lon="-5.182621">
        <ele>576.4</ele>
        <time>1970-01-01T00:00:00Z</time>
      </trkpt>
      <trkpt lat="39.466098" lon="-5.182621">
        <ele>576.4</ele>
        <time>1970-01-01T00:00:00Z</time>
      </trkpt>
      <trkpt lat="39.466116" lon="-5.182568">
        <ele>576.0</ele>
        <time>1970-01-01T00:00:00Z</time>
      </trkpt>
      <trkpt lat="39.466116" lon="-5.182568">
        <ele>576.0</ele>
        <time>1970-01-01T00:00:00Z</time>
      </trkpt>
      <trkpt lat="39.466116" lon="-5.182568">
        <ele>576.0</ele>
        <time>1970-01-01T00:00:00Z</time>
      </trkpt>
      <trkpt lat="39.466116" lon="-5.182568">
        <ele>576.0</ele>
        <time>1970-01-01T00:00:00Z</time>
      </trkpt>
      <trkpt lat="39.466131" lon="-5.182521">
        <ele>575.7</ele>
        <time>1970-01-01T00:00:00Z</time>
      </trkpt>
      <trkpt lat="39.466131" lon="-5.182521">
        <ele>575.7</ele>
        <time>1970-01-01T00:00:00Z</time>
      </trkpt>
      <trkpt lat="39.466131" lon="-5.182521">
        <ele>575.7</ele>
        <time>1970-01-01T00:00:00Z</time>
      </trkpt>
      <trkpt lat="39.466131" lon="-5.182521">
        <ele>575.7</ele>
        <time>1970-01-01T00:00:00Z</time>
      </trkpt>
      <trkpt lat="39.466199" lon="-5.182318">
        <ele>575.5</ele>
        <time>1970-01-01T00:00:00Z</time>
      </trkpt>
      <trkpt lat="39.466199" lon="-5.182318">
        <ele>575.5</ele>
        <time>1970-01-01T00:00:00Z</time>
      </trkpt>
      <trkpt lat="39.466199" lon="-5.182318">
        <ele>575.5</ele>
        <time>1970-01-01T00:00:00Z</time>
      </trkpt>
      <trkpt lat="39.466199" lon="-5.182318">
        <ele>575.5</ele>
        <time>1970-01-01T00:00:00Z</time>
      </trkpt>
      <trkpt lat="39.466206" lon="-5.182295">
        <ele>575.4</ele>
        <time>1970-01-01T00:00:00Z</time>
      </trkpt>
      <trkpt lat="39.466206" lon="-5.182295">
        <ele>575.4</ele>
        <time>1970-01-01T00:00:00Z</time>
      </trkpt>
      <trkpt lat="39.466206" lon="-5.182295">
        <ele>575.4</ele>
        <time>1970-01-01T00:00:00Z</time>
      </trkpt>
      <trkpt lat="39.466206" lon="-5.182295">
        <ele>575.4</ele>
        <time>1970-01-01T00:00:00Z</time>
      </trkpt>
      <trkpt lat="39.466233" lon="-5.182208">
        <ele>575.3</ele>
        <time>1970-01-01T00:00:00Z</time>
      </trkpt>
      <trkpt lat="39.466233" lon="-5.182208">
        <ele>575.3</ele>
        <time>1970-01-01T00:00:00Z</time>
      </trkpt>
      <trkpt lat="39.466233" lon="-5.182208">
        <ele>575.3</ele>
        <time>1970-01-01T00:00:00Z</time>
      </trkpt>
      <trkpt lat="39.466233" lon="-5.182208">
        <ele>575.3</ele>
        <time>1970-01-01T00:00:00Z</time>
      </trkpt>
      <trkpt lat="39.466259" lon="-5.182124">
        <ele>575.2</ele>
        <time>1970-01-01T00:00:00Z</time>
      </trkpt>
      <trkpt lat="39.466259" lon="-5.182124">
        <ele>575.2</ele>
        <time>1970-01-01T00:00:00Z</time>
      </trkpt>
      <trkpt lat="39.466259" lon="-5.182124">
        <ele>575.2</ele>
        <time>1970-01-01T00:00:00Z</time>
      </trkpt>
      <trkpt lat="39.466259" lon="-5.182124">
        <ele>575.2</ele>
        <time>1970-01-01T00:00:00Z</time>
      </trkpt>
      <trkpt lat="39.466285" lon="-5.182041">
        <ele>575.3</ele>
        <time>1970-01-01T00:00:00Z</time>
      </trkpt>
      <trkpt lat="39.466285" lon="-5.182041">
        <ele>575.3</ele>
        <time>1970-01-01T00:00:00Z</time>
      </trkpt>
      <trkpt lat="39.466285" lon="-5.182041">
        <ele>575.3</ele>
        <time>1970-01-01T00:00:00Z</time>
      </trkpt>
      <trkpt lat="39.466285" lon="-5.182041">
        <ele>575.3</ele>
        <time>1970-01-01T00:00:00Z</time>
      </trkpt>
      <trkpt lat="39.466308" lon="-5.181985">
        <ele>575.1</ele>
        <time>1970-01-01T00:00:00Z</time>
      </trkpt>
      <trkpt lat="39.466308" lon="-5.181985">
        <ele>575.1</ele>
        <time>1970-01-01T00:00:00Z</time>
      </trkpt>
      <trkpt lat="39.466308" lon="-5.181985">
        <ele>575.1</ele>
        <time>1970-01-01T00:00:00Z</time>
      </trkpt>
      <trkpt lat="39.466308" lon="-5.181985">
        <ele>575.1</ele>
        <time>1970-01-01T00:00:00Z</time>
      </trkpt>
      <trkpt lat="39.466339" lon="-5.181891">
        <ele>574.8</ele>
        <time>1970-01-01T00:00:00Z</time>
      </trkpt>
      <trkpt lat="39.466339" lon="-5.181891">
        <ele>574.8</ele>
        <time>1970-01-01T00:00:00Z</time>
      </trkpt>
      <trkpt lat="39.466339" lon="-5.181891">
        <ele>574.8</ele>
        <time>1970-01-01T00:00:00Z</time>
      </trkpt>
      <trkpt lat="39.466339" lon="-5.181891">
        <ele>574.8</ele>
        <time>1970-01-01T00:00:00Z</time>
      </trkpt>
      <trkpt lat="39.466351" lon="-5.181848">
        <ele>574.7</ele>
        <time>1970-01-01T00:00:00Z</time>
      </trkpt>
      <trkpt lat="39.466351" lon="-5.181848">
        <ele>574.7</ele>
        <time>1970-01-01T00:00:00Z</time>
      </trkpt>
      <trkpt lat="39.466351" lon="-5.181848">
        <ele>574.7</ele>
        <time>1970-01-01T00:00:00Z</time>
      </trkpt>
      <trkpt lat="39.466351" lon="-5.181848">
        <ele>574.7</ele>
        <time>1970-01-01T00:00:00Z</time>
      </trkpt>
      <trkpt lat="39.466354" lon="-5.181829">
        <ele>574.7</ele>
        <time>1970-01-01T00:00:00Z</time>
      </trkpt>
      <trkpt lat="39.466354" lon="-5.181829">
        <ele>574.7</ele>
        <time>1970-01-01T00:00:00Z</time>
      </trkpt>
      <trkpt lat="39.466354" lon="-5.181829">
        <ele>574.7</ele>
        <time>1970-01-01T00:00:00Z</time>
      </trkpt>
      <trkpt lat="39.466354" lon="-5.181829">
        <ele>574.7</ele>
        <time>1970-01-01T00:00:00Z</time>
      </trkpt>
      <trkpt lat="39.466375" lon="-5.181730">
        <ele>574.5</ele>
        <time>1970-01-01T00:00:00Z</time>
      </trkpt>
      <trkpt lat="39.466375" lon="-5.181730">
        <ele>574.5</ele>
        <time>1970-01-01T00:00:00Z</time>
      </trkpt>
      <trkpt lat="39.466375" lon="-5.181730">
        <ele>574.5</ele>
        <time>1970-01-01T00:00:00Z</time>
      </trkpt>
      <trkpt lat="39.466375" lon="-5.181730">
        <ele>574.5</ele>
        <time>1970-01-01T00:00:00Z</time>
      </trkpt>
      <trkpt lat="39.466384" lon="-5.181683">
        <ele>574.5</ele>
        <time>1970-01-01T00:00:00Z</time>
      </trkpt>
      <trkpt lat="39.466384" lon="-5.181683">
        <ele>574.5</ele>
        <time>1970-01-01T00:00:00Z</time>
      </trkpt>
      <trkpt lat="39.466384" lon="-5.181683">
        <ele>574.5</ele>
        <time>1970-01-01T00:00:00Z</time>
      </trkpt>
      <trkpt lat="39.466384" lon="-5.181683">
        <ele>574.5</ele>
        <time>1970-01-01T00:00:00Z</time>
      </trkpt>
      <trkpt lat="39.466386" lon="-5.181663">
        <ele>574.4</ele>
        <time>1970-01-01T00:00:00Z</time>
      </trkpt>
      <trkpt lat="39.466386" lon="-5.181663">
        <ele>574.4</ele>
        <time>1970-01-01T00:00:00Z</time>
      </trkpt>
      <trkpt lat="39.466386" lon="-5.181663">
        <ele>574.4</ele>
        <time>1970-01-01T00:00:00Z</time>
      </trkpt>
      <trkpt lat="39.466386" lon="-5.181663">
        <ele>574.4</ele>
        <time>1970-01-01T00:00:00Z</time>
      </trkpt>
      <trkpt lat="39.466388" lon="-5.181643">
        <ele>574.4</ele>
        <time>1970-01-01T00:00:00Z</time>
      </trkpt>
      <trkpt lat="39.466388" lon="-5.181643">
        <ele>574.4</ele>
        <time>1970-01-01T00:00:00Z</time>
      </trkpt>
      <trkpt lat="39.466388" lon="-5.181643">
        <ele>574.4</ele>
        <time>1970-01-01T00:00:00Z</time>
      </trkpt>
      <trkpt lat="39.466388" lon="-5.181643">
        <ele>574.4</ele>
        <time>1970-01-01T00:00:00Z</time>
      </trkpt>
      <trkpt lat="39.466390" lon="-5.181617">
        <ele>574.4</ele>
        <time>1970-01-01T00:00:00Z</time>
      </trkpt>
      <trkpt lat="39.466390" lon="-5.181617">
        <ele>574.4</ele>
        <time>1970-01-01T00:00:00Z</time>
      </trkpt>
      <trkpt lat="39.466390" lon="-5.181617">
        <ele>574.4</ele>
        <time>1970-01-01T00:00:00Z</time>
      </trkpt>
      <trkpt lat="39.466390" lon="-5.181617">
        <ele>574.4</ele>
        <time>1970-01-01T00:00:00Z</time>
      </trkpt>
      <trkpt lat="39.466393" lon="-5.181578">
        <ele>574.4</ele>
        <time>1970-01-01T00:00:00Z</time>
      </trkpt>
      <trkpt lat="39.466393" lon="-5.181578">
        <ele>574.4</ele>
        <time>1970-01-01T00:00:00Z</time>
      </trkpt>
      <trkpt lat="39.466393" lon="-5.181578">
        <ele>574.4</ele>
        <time>1970-01-01T00:00:00Z</time>
      </trkpt>
      <trkpt lat="39.466393" lon="-5.181578">
        <ele>574.4</ele>
        <time>1970-01-01T00:00:00Z</time>
      </trkpt>
      <trkpt lat="39.466389" lon="-5.181541">
        <ele>574.4</ele>
        <time>1970-01-01T00:00:00Z</time>
      </trkpt>
      <trkpt lat="39.466389" lon="-5.181541">
        <ele>574.4</ele>
        <time>1970-01-01T00:00:00Z</time>
      </trkpt>
      <trkpt lat="39.466389" lon="-5.181541">
        <ele>574.4</ele>
        <time>1970-01-01T00:00:00Z</time>
      </trkpt>
      <trkpt lat="39.466389" lon="-5.181541">
        <ele>574.4</ele>
        <time>1970-01-01T00:00:00Z</time>
      </trkpt>
      <trkpt lat="39.466385" lon="-5.181503">
        <ele>574.5</ele>
        <time>1970-01-01T00:00:00Z</time>
      </trkpt>
      <trkpt lat="39.466385" lon="-5.181503">
        <ele>574.5</ele>
        <time>1970-01-01T00:00:00Z</time>
      </trkpt>
      <trkpt lat="39.466385" lon="-5.181503">
        <ele>574.5</ele>
        <time>1970-01-01T00:00:00Z</time>
      </trkpt>
      <trkpt lat="39.466385" lon="-5.181503">
        <ele>574.5</ele>
        <time>1970-01-01T00:00:00Z</time>
      </trkpt>
      <trkpt lat="39.466382" lon="-5.181479">
        <ele>574.6</ele>
        <time>1970-01-01T00:00:00Z</time>
      </trkpt>
      <trkpt lat="39.466382" lon="-5.181479">
        <ele>574.6</ele>
        <time>1970-01-01T00:00:00Z</time>
      </trkpt>
      <trkpt lat="39.466382" lon="-5.181479">
        <ele>574.6</ele>
        <time>1970-01-01T00:00:00Z</time>
      </trkpt>
      <trkpt lat="39.466382" lon="-5.181479">
        <ele>574.6</ele>
        <time>1970-01-01T00:00:00Z</time>
      </trkpt>
      <trkpt lat="39.466378" lon="-5.181449">
        <ele>574.6</ele>
        <time>1970-01-01T00:00:00Z</time>
      </trkpt>
      <trkpt lat="39.466378" lon="-5.181449">
        <ele>574.6</ele>
        <time>1970-01-01T00:00:00Z</time>
      </trkpt>
      <trkpt lat="39.466378" lon="-5.181449">
        <ele>574.6</ele>
        <time>1970-01-01T00:00:00Z</time>
      </trkpt>
      <trkpt lat="39.466378" lon="-5.181449">
        <ele>574.6</ele>
        <time>1970-01-01T00:00:00Z</time>
      </trkpt>
      <trkpt lat="39.466342" lon="-5.181319">
        <ele>574.9</ele>
        <time>1970-01-01T00:00:00Z</time>
      </trkpt>
      <trkpt lat="39.466342" lon="-5.181319">
        <ele>574.9</ele>
        <time>1970-01-01T00:00:00Z</time>
      </trkpt>
      <trkpt lat="39.466342" lon="-5.181319">
        <ele>574.9</ele>
        <time>1970-01-01T00:00:00Z</time>
      </trkpt>
      <trkpt lat="39.466342" lon="-5.181319">
        <ele>574.9</ele>
        <time>1970-01-01T00:00:00Z</time>
      </trkpt>
      <trkpt lat="39.466265" lon="-5.181113">
        <ele>575.5</ele>
        <time>1970-01-01T00:00:00Z</time>
      </trkpt>
      <trkpt lat="39.466265" lon="-5.181113">
        <ele>575.5</ele>
        <time>1970-01-01T00:00:00Z</time>
      </trkpt>
      <trkpt lat="39.466265" lon="-5.181113">
        <ele>575.5</ele>
        <time>1970-01-01T00:00:00Z</time>
      </trkpt>
      <trkpt lat="39.466265" lon="-5.181113">
        <ele>575.5</ele>
        <time>1970-01-01T00:00:00Z</time>
      </trkpt>
      <trkpt lat="39.466245" lon="-5.181049">
        <ele>575.7</ele>
        <time>1970-01-01T00:00:00Z</time>
      </trkpt>
      <trkpt lat="39.466245" lon="-5.181049">
        <ele>575.7</ele>
        <time>1970-01-01T00:00:00Z</time>
      </trkpt>
      <trkpt lat="39.466245" lon="-5.181049">
        <ele>575.7</ele>
        <time>1970-01-01T00:00:00Z</time>
      </trkpt>
      <trkpt lat="39.466245" lon="-5.181049">
        <ele>575.7</ele>
        <time>1970-01-01T00:00:00Z</time>
      </trkpt>
      <trkpt lat="39.466236" lon="-5.181020">
        <ele>575.7</ele>
        <time>1970-01-01T00:00:00Z</time>
      </trkpt>
      <trkpt lat="39.466236" lon="-5.181020">
        <ele>575.7</ele>
        <time>1970-01-01T00:00:00Z</time>
      </trkpt>
      <trkpt lat="39.466236" lon="-5.181020">
        <ele>575.7</ele>
        <time>1970-01-01T00:00:00Z</time>
      </trkpt>
      <trkpt lat="39.466236" lon="-5.181020">
        <ele>575.7</ele>
        <time>1970-01-01T00:00:00Z</time>
      </trkpt>
      <trkpt lat="39.466227" lon="-5.180992">
        <ele>575.8</ele>
        <time>1970-01-01T00:00:00Z</time>
      </trkpt>
      <trkpt lat="39.466227" lon="-5.180992">
        <ele>575.8</ele>
        <time>1970-01-01T00:00:00Z</time>
      </trkpt>
      <trkpt lat="39.466227" lon="-5.180992">
        <ele>575.8</ele>
        <time>1970-01-01T00:00:00Z</time>
      </trkpt>
      <trkpt lat="39.466227" lon="-5.180992">
        <ele>575.8</ele>
        <time>1970-01-01T00:00:00Z</time>
      </trkpt>
      <trkpt lat="39.466222" lon="-5.180974">
        <ele>575.9</ele>
        <time>1970-01-01T00:00:00Z</time>
      </trkpt>
      <trkpt lat="39.466222" lon="-5.180974">
        <ele>575.9</ele>
        <time>1970-01-01T00:00:00Z</time>
      </trkpt>
      <trkpt lat="39.466222" lon="-5.180974">
        <ele>575.9</ele>
        <time>1970-01-01T00:00:00Z</time>
      </trkpt>
      <trkpt lat="39.466222" lon="-5.180974">
        <ele>575.9</ele>
        <time>1970-01-01T00:00:00Z</time>
      </trkpt>
      <trkpt lat="39.466109" lon="-5.180665">
        <ele>575.9</ele>
        <time>1970-01-01T00:00:00Z</time>
      </trkpt>
      <trkpt lat="39.466109" lon="-5.180665">
        <ele>575.9</ele>
        <time>1970-01-01T00:00:00Z</time>
      </trkpt>
      <trkpt lat="39.466109" lon="-5.180665">
        <ele>575.9</ele>
        <time>1970-01-01T00:00:00Z</time>
      </trkpt>
      <trkpt lat="39.466109" lon="-5.180665">
        <ele>575.9</ele>
        <time>1970-01-01T00:00:00Z</time>
      </trkpt>
      <trkpt lat="39.466102" lon="-5.180643">
        <ele>575.9</ele>
        <time>1970-01-01T00:00:00Z</time>
      </trkpt>
      <trkpt lat="39.466102" lon="-5.180643">
        <ele>575.9</ele>
        <time>1970-01-01T00:00:00Z</time>
      </trkpt>
      <trkpt lat="39.466102" lon="-5.180643">
        <ele>575.9</ele>
        <time>1970-01-01T00:00:00Z</time>
      </trkpt>
      <trkpt lat="39.466102" lon="-5.180643">
        <ele>575.9</ele>
        <time>1970-01-01T00:00:00Z</time>
      </trkpt>
      <trkpt lat="39.466078" lon="-5.180565">
        <ele>575.4</ele>
        <time>1970-01-01T00:00:00Z</time>
      </trkpt>
      <trkpt lat="39.466078" lon="-5.180565">
        <ele>575.4</ele>
        <time>1970-01-01T00:00:00Z</time>
      </trkpt>
      <trkpt lat="39.466078" lon="-5.180565">
        <ele>575.4</ele>
        <time>1970-01-01T00:00:00Z</time>
      </trkpt>
      <trkpt lat="39.466078" lon="-5.180565">
        <ele>575.4</ele>
        <time>1970-01-01T00:00:00Z</time>
      </trkpt>
      <trkpt lat="39.466072" lon="-5.180546">
        <ele>575.3</ele>
        <time>1970-01-01T00:00:00Z</time>
      </trkpt>
      <trkpt lat="39.466072" lon="-5.180546">
        <ele>575.3</ele>
        <time>1970-01-01T00:00:00Z</time>
      </trkpt>
      <trkpt lat="39.466072" lon="-5.180546">
        <ele>575.3</ele>
        <time>1970-01-01T00:00:00Z</time>
      </trkpt>
      <trkpt lat="39.466072" lon="-5.180546">
        <ele>575.3</ele>
        <time>1970-01-01T00:00:00Z</time>
      </trkpt>
      <trkpt lat="39.466061" lon="-5.180509">
        <ele>575.1</ele>
        <time>1970-01-01T00:00:00Z</time>
      </trkpt>
      <trkpt lat="39.466061" lon="-5.180509">
        <ele>575.1</ele>
        <time>1970-01-01T00:00:00Z</time>
      </trkpt>
      <trkpt lat="39.466061" lon="-5.180509">
        <ele>575.1</ele>
        <time>1970-01-01T00:00:00Z</time>
      </trkpt>
      <trkpt lat="39.466061" lon="-5.180509">
        <ele>575.1</ele>
        <time>1970-01-01T00:00:00Z</time>
      </trkpt>
      <trkpt lat="39.466053" lon="-5.180485">
        <ele>574.9</ele>
        <time>1970-01-01T00:00:00Z</time>
      </trkpt>
      <trkpt lat="39.466053" lon="-5.180485">
        <ele>574.9</ele>
        <time>1970-01-01T00:00:00Z</time>
      </trkpt>
      <trkpt lat="39.466053" lon="-5.180485">
        <ele>574.9</ele>
        <time>1970-01-01T00:00:00Z</time>
      </trkpt>
      <trkpt lat="39.466053" lon="-5.180485">
        <ele>574.9</ele>
        <time>1970-01-01T00:00:00Z</time>
      </trkpt>
      <trkpt lat="39.466036" lon="-5.180429">
        <ele>574.6</ele>
        <time>1970-01-01T00:00:00Z</time>
      </trkpt>
      <trkpt lat="39.466036" lon="-5.180429">
        <ele>574.6</ele>
        <time>1970-01-01T00:00:00Z</time>
      </trkpt>
      <trkpt lat="39.466036" lon="-5.180429">
        <ele>574.6</ele>
        <time>1970-01-01T00:00:00Z</time>
      </trkpt>
      <trkpt lat="39.466036" lon="-5.180429">
        <ele>574.6</ele>
        <time>1970-01-01T00:00:00Z</time>
      </trkpt>
      <trkpt lat="39.466026" lon="-5.180398">
        <ele>574.5</ele>
        <time>1970-01-01T00:00:00Z</time>
      </trkpt>
      <trkpt lat="39.466026" lon="-5.180398">
        <ele>574.5</ele>
        <time>1970-01-01T00:00:00Z</time>
      </trkpt>
      <trkpt lat="39.466026" lon="-5.180398">
        <ele>574.5</ele>
        <time>1970-01-01T00:00:00Z</time>
      </trkpt>
      <trkpt lat="39.466026" lon="-5.180398">
        <ele>574.5</ele>
        <time>1970-01-01T00:00:00Z</time>
      </trkpt>
      <trkpt lat="39.466024" lon="-5.180389">
        <ele>574.5</ele>
        <time>1970-01-01T00:00:00Z</time>
      </trkpt>
      <trkpt lat="39.466024" lon="-5.180389">
        <ele>574.5</ele>
        <time>1970-01-01T00:00:00Z</time>
      </trkpt>
      <trkpt lat="39.466024" lon="-5.180389">
        <ele>574.5</ele>
        <time>1970-01-01T00:00:00Z</time>
      </trkpt>
      <trkpt lat="39.466024" lon="-5.180389">
        <ele>574.5</ele>
        <time>1970-01-01T00:00:00Z</time>
      </trkpt>
      <trkpt lat="39.466021" lon="-5.180379">
        <ele>574.5</ele>
        <time>1970-01-01T00:00:00Z</time>
      </trkpt>
      <trkpt lat="39.466021" lon="-5.180379">
        <ele>574.5</ele>
        <time>1970-01-01T00:00:00Z</time>
      </trkpt>
      <trkpt lat="39.466021" lon="-5.180379">
        <ele>574.5</ele>
        <time>1970-01-01T00:00:00Z</time>
      </trkpt>
      <trkpt lat="39.466021" lon="-5.180379">
        <ele>574.5</ele>
        <time>1970-01-01T00:00:00Z</time>
      </trkpt>
      <trkpt lat="39.466010" lon="-5.180347">
        <ele>574.6</ele>
        <time>1970-01-01T00:00:00Z</time>
      </trkpt>
      <trkpt lat="39.466010" lon="-5.180347">
        <ele>574.6</ele>
        <time>1970-01-01T00:00:00Z</time>
      </trkpt>
      <trkpt lat="39.466010" lon="-5.180347">
        <ele>574.6</ele>
        <time>1970-01-01T00:00:00Z</time>
      </trkpt>
      <trkpt lat="39.466010" lon="-5.180347">
        <ele>574.6</ele>
        <time>1970-01-01T00:00:00Z</time>
      </trkpt>
      <trkpt lat="39.465937" lon="-5.180113">
        <ele>574.0</ele>
        <time>1970-01-01T00:00:00Z</time>
      </trkpt>
      <trkpt lat="39.465937" lon="-5.180113">
        <ele>574.0</ele>
        <time>1970-01-01T00:00:00Z</time>
      </trkpt>
      <trkpt lat="39.465937" lon="-5.180113">
        <ele>574.0</ele>
        <time>1970-01-01T00:00:00Z</time>
      </trkpt>
      <trkpt lat="39.465937" lon="-5.180113">
        <ele>574.0</ele>
        <time>1970-01-01T00:00:00Z</time>
      </trkpt>
      <trkpt lat="39.465916" lon="-5.180046">
        <ele>573.4</ele>
        <time>1970-01-01T00:00:00Z</time>
      </trkpt>
      <trkpt lat="39.465916" lon="-5.180046">
        <ele>573.4</ele>
        <time>1970-01-01T00:00:00Z</time>
      </trkpt>
      <trkpt lat="39.465916" lon="-5.180046">
        <ele>573.4</ele>
        <time>1970-01-01T00:00:00Z</time>
      </trkpt>
      <trkpt lat="39.465916" lon="-5.180046">
        <ele>573.4</ele>
        <time>1970-01-01T00:00:00Z</time>
      </trkpt>
      <trkpt lat="39.465885" lon="-5.179946">
        <ele>572.7</ele>
        <time>1970-01-01T00:00:00Z</time>
      </trkpt>
      <trkpt lat="39.465885" lon="-5.179946">
        <ele>572.7</ele>
        <time>1970-01-01T00:00:00Z</time>
      </trkpt>
      <trkpt lat="39.465885" lon="-5.179946">
        <ele>572.7</ele>
        <time>1970-01-01T00:00:00Z</time>
      </trkpt>
      <trkpt lat="39.465885" lon="-5.179946">
        <ele>572.7</ele>
        <time>1970-01-01T00:00:00Z</time>
      </trkpt>
      <trkpt lat="39.465838" lon="-5.179795">
        <ele>571.9</ele>
        <time>1970-01-01T00:00:00Z</time>
      </trkpt>
      <trkpt lat="39.465838" lon="-5.179795">
        <ele>571.9</ele>
        <time>1970-01-01T00:00:00Z</time>
      </trkpt>
      <trkpt lat="39.465838" lon="-5.179795">
        <ele>571.9</ele>
        <time>1970-01-01T00:00:00Z</time>
      </trkpt>
      <trkpt lat="39.465838" lon="-5.179795">
        <ele>571.9</ele>
        <time>1970-01-01T00:00:00Z</time>
      </trkpt>
      <trkpt lat="39.465831" lon="-5.179774">
        <ele>571.7</ele>
        <time>1970-01-01T00:00:00Z</time>
      </trkpt>
      <trkpt lat="39.465831" lon="-5.179774">
        <ele>571.7</ele>
        <time>1970-01-01T00:00:00Z</time>
      </trkpt>
      <trkpt lat="39.465831" lon="-5.179774">
        <ele>571.7</ele>
        <time>1970-01-01T00:00:00Z</time>
      </trkpt>
      <trkpt lat="39.465831" lon="-5.179774">
        <ele>571.7</ele>
        <time>1970-01-01T00:00:00Z</time>
      </trkpt>
      <trkpt lat="39.465801" lon="-5.179676">
        <ele>571.1</ele>
        <time>1970-01-01T00:00:00Z</time>
      </trkpt>
      <trkpt lat="39.465801" lon="-5.179676">
        <ele>571.1</ele>
        <time>1970-01-01T00:00:00Z</time>
      </trkpt>
      <trkpt lat="39.465801" lon="-5.179676">
        <ele>571.1</ele>
        <time>1970-01-01T00:00:00Z</time>
      </trkpt>
      <trkpt lat="39.465801" lon="-5.179676">
        <ele>571.1</ele>
        <time>1970-01-01T00:00:00Z</time>
      </trkpt>
      <trkpt lat="39.465724" lon="-5.179426">
        <ele>569.4</ele>
        <time>1970-01-01T00:00:00Z</time>
      </trkpt>
      <trkpt lat="39.465724" lon="-5.179426">
        <ele>569.4</ele>
        <time>1970-01-01T00:00:00Z</time>
      </trkpt>
      <trkpt lat="39.465724" lon="-5.179426">
        <ele>569.4</ele>
        <time>1970-01-01T00:00:00Z</time>
      </trkpt>
      <trkpt lat="39.465724" lon="-5.179426">
        <ele>569.4</ele>
        <time>1970-01-01T00:00:00Z</time>
      </trkpt>
      <trkpt lat="39.465677" lon="-5.179273">
        <ele>567.8</ele>
        <time>1970-01-01T00:00:00Z</time>
      </trkpt>
      <trkpt lat="39.465677" lon="-5.179273">
        <ele>567.8</ele>
        <time>1970-01-01T00:00:00Z</time>
      </trkpt>
      <trkpt lat="39.465677" lon="-5.179273">
        <ele>567.8</ele>
        <time>1970-01-01T00:00:00Z</time>
      </trkpt>
      <trkpt lat="39.465677" lon="-5.179273">
        <ele>567.8</ele>
        <time>1970-01-01T00:00:00Z</time>
      </trkpt>
      <trkpt lat="39.465673" lon="-5.179259">
        <ele>567.6</ele>
        <time>1970-01-01T00:00:00Z</time>
      </trkpt>
      <trkpt lat="39.465673" lon="-5.179259">
        <ele>567.6</ele>
        <time>1970-01-01T00:00:00Z</time>
      </trkpt>
      <trkpt lat="39.465673" lon="-5.179259">
        <ele>567.6</ele>
        <time>1970-01-01T00:00:00Z</time>
      </trkpt>
      <trkpt lat="39.465673" lon="-5.179259">
        <ele>567.6</ele>
        <time>1970-01-01T00:00:00Z</time>
      </trkpt>
      <trkpt lat="39.465651" lon="-5.179186">
        <ele>567.5</ele>
        <time>1970-01-01T00:00:00Z</time>
      </trkpt>
      <trkpt lat="39.465651" lon="-5.179186">
        <ele>567.5</ele>
        <time>1970-01-01T00:00:00Z</time>
      </trkpt>
      <trkpt lat="39.465651" lon="-5.179186">
        <ele>567.5</ele>
        <time>1970-01-01T00:00:00Z</time>
      </trkpt>
      <trkpt lat="39.465651" lon="-5.179186">
        <ele>567.5</ele>
        <time>1970-01-01T00:00:00Z</time>
      </trkpt>
      <trkpt lat="39.465633" lon="-5.179129">
        <ele>567.4</ele>
        <time>1970-01-01T00:00:00Z</time>
      </trkpt>
      <trkpt lat="39.465633" lon="-5.179129">
        <ele>567.4</ele>
        <time>1970-01-01T00:00:00Z</time>
      </trkpt>
      <trkpt lat="39.465633" lon="-5.179129">
        <ele>567.4</ele>
        <time>1970-01-01T00:00:00Z</time>
      </trkpt>
      <trkpt lat="39.465633" lon="-5.179129">
        <ele>567.4</ele>
        <time>1970-01-01T00:00:00Z</time>
      </trkpt>
      <trkpt lat="39.465614" lon="-5.179062">
        <ele>567.3</ele>
        <time>1970-01-01T00:00:00Z</time>
      </trkpt>
      <trkpt lat="39.465614" lon="-5.179062">
        <ele>567.3</ele>
        <time>1970-01-01T00:00:00Z</time>
      </trkpt>
      <trkpt lat="39.465614" lon="-5.179062">
        <ele>567.3</ele>
        <time>1970-01-01T00:00:00Z</time>
      </trkpt>
      <trkpt lat="39.465614" lon="-5.179062">
        <ele>567.3</ele>
        <time>1970-01-01T00:00:00Z</time>
      </trkpt>
      <trkpt lat="39.465570" lon="-5.178916">
        <ele>566.9</ele>
        <time>1970-01-01T00:00:00Z</time>
      </trkpt>
      <trkpt lat="39.465570" lon="-5.178916">
        <ele>566.9</ele>
        <time>1970-01-01T00:00:00Z</time>
      </trkpt>
      <trkpt lat="39.465570" lon="-5.178916">
        <ele>566.9</ele>
        <time>1970-01-01T00:00:00Z</time>
      </trkpt>
      <trkpt lat="39.465570" lon="-5.178916">
        <ele>566.9</ele>
        <time>1970-01-01T00:00:00Z</time>
      </trkpt>
      <trkpt lat="39.465550" lon="-5.178848">
        <ele>566.7</ele>
        <time>1970-01-01T00:00:00Z</time>
      </trkpt>
      <trkpt lat="39.465550" lon="-5.178848">
        <ele>566.7</ele>
        <time>1970-01-01T00:00:00Z</time>
      </trkpt>
      <trkpt lat="39.465550" lon="-5.178848">
        <ele>566.7</ele>
        <time>1970-01-01T00:00:00Z</time>
      </trkpt>
      <trkpt lat="39.465550" lon="-5.178848">
        <ele>566.7</ele>
        <time>1970-01-01T00:00:00Z</time>
      </trkpt>
      <trkpt lat="39.465545" lon="-5.178829">
        <ele>566.7</ele>
        <time>1970-01-01T00:00:00Z</time>
      </trkpt>
      <trkpt lat="39.465545" lon="-5.178829">
        <ele>566.7</ele>
        <time>1970-01-01T00:00:00Z</time>
      </trkpt>
      <trkpt lat="39.465545" lon="-5.178829">
        <ele>566.7</ele>
        <time>1970-01-01T00:00:00Z</time>
      </trkpt>
      <trkpt lat="39.465545" lon="-5.178829">
        <ele>566.7</ele>
        <time>1970-01-01T00:00:00Z</time>
      </trkpt>
      <trkpt lat="39.465529" lon="-5.178777">
        <ele>566.6</ele>
        <time>1970-01-01T00:00:00Z</time>
      </trkpt>
      <trkpt lat="39.465529" lon="-5.178777">
        <ele>566.6</ele>
        <time>1970-01-01T00:00:00Z</time>
      </trkpt>
      <trkpt lat="39.465529" lon="-5.178777">
        <ele>566.6</ele>
        <time>1970-01-01T00:00:00Z</time>
      </trkpt>
      <trkpt lat="39.465529" lon="-5.178777">
        <ele>566.6</ele>
        <time>1970-01-01T00:00:00Z</time>
      </trkpt>
      <trkpt lat="39.465500" lon="-5.178675">
        <ele>566.4</ele>
        <time>1970-01-01T00:00:00Z</time>
      </trkpt>
      <trkpt lat="39.465500" lon="-5.178675">
        <ele>566.4</ele>
        <time>1970-01-01T00:00:00Z</time>
      </trkpt>
      <trkpt lat="39.465500" lon="-5.178675">
        <ele>566.4</ele>
        <time>1970-01-01T00:00:00Z</time>
      </trkpt>
      <trkpt lat="39.465500" lon="-5.178675">
        <ele>566.4</ele>
        <time>1970-01-01T00:00:00Z</time>
      </trkpt>
      <trkpt lat="39.465454" lon="-5.178515">
        <ele>566.0</ele>
        <time>1970-01-01T00:00:00Z</time>
      </trkpt>
      <trkpt lat="39.465454" lon="-5.178515">
        <ele>566.0</ele>
        <time>1970-01-01T00:00:00Z</time>
      </trkpt>
      <trkpt lat="39.465454" lon="-5.178515">
        <ele>566.0</ele>
        <time>1970-01-01T00:00:00Z</time>
      </trkpt>
      <trkpt lat="39.465454" lon="-5.178515">
        <ele>566.0</ele>
        <time>1970-01-01T00:00:00Z</time>
      </trkpt>
      <trkpt lat="39.465385" lon="-5.178293">
        <ele>566.0</ele>
        <time>1970-01-01T00:00:00Z</time>
      </trkpt>
      <trkpt lat="39.465385" lon="-5.178293">
        <ele>566.0</ele>
        <time>1970-01-01T00:00:00Z</time>
      </trkpt>
      <trkpt lat="39.465385" lon="-5.178293">
        <ele>566.0</ele>
        <time>1970-01-01T00:00:00Z</time>
      </trkpt>
      <trkpt lat="39.465385" lon="-5.178293">
        <ele>566.0</ele>
        <time>1970-01-01T00:00:00Z</time>
      </trkpt>
      <trkpt lat="39.465316" lon="-5.178074">
        <ele>566.0</ele>
        <time>1970-01-01T00:00:00Z</time>
      </trkpt>
      <trkpt lat="39.465316" lon="-5.178074">
        <ele>566.0</ele>
        <time>1970-01-01T00:00:00Z</time>
      </trkpt>
      <trkpt lat="39.465316" lon="-5.178074">
        <ele>566.0</ele>
        <time>1970-01-01T00:00:00Z</time>
      </trkpt>
      <trkpt lat="39.465316" lon="-5.178074">
        <ele>566.0</ele>
        <time>1970-01-01T00:00:00Z</time>
      </trkpt>
      <trkpt lat="39.465273" lon="-5.177953">
        <ele>566.6</ele>
        <time>1970-01-01T00:00:00Z</time>
      </trkpt>
      <trkpt lat="39.465273" lon="-5.177953">
        <ele>566.6</ele>
        <time>1970-01-01T00:00:00Z</time>
      </trkpt>
      <trkpt lat="39.465273" lon="-5.177953">
        <ele>566.6</ele>
        <time>1970-01-01T00:00:00Z</time>
      </trkpt>
      <trkpt lat="39.465273" lon="-5.177953">
        <ele>566.6</ele>
        <time>1970-01-01T00:00:00Z</time>
      </trkpt>
      <trkpt lat="39.465191" lon="-5.177818">
        <ele>567.7</ele>
        <time>1970-01-01T00:00:00Z</time>
      </trkpt>
      <trkpt lat="39.465191" lon="-5.177818">
        <ele>567.7</ele>
        <time>1970-01-01T00:00:00Z</time>
      </trkpt>
      <trkpt lat="39.465191" lon="-5.177818">
        <ele>567.7</ele>
        <time>1970-01-01T00:00:00Z</time>
      </trkpt>
      <trkpt lat="39.465191" lon="-5.177818">
        <ele>567.7</ele>
        <time>1970-01-01T00:00:00Z</time>
      </trkpt>
      <trkpt lat="39.465176" lon="-5.177790">
        <ele>567.9</ele>
        <time>1970-01-01T00:00:00Z</time>
      </trkpt>
      <trkpt lat="39.465176" lon="-5.177790">
        <ele>567.9</ele>
        <time>1970-01-01T00:00:00Z</time>
      </trkpt>
      <trkpt lat="39.465176" lon="-5.177790">
        <ele>567.9</ele>
        <time>1970-01-01T00:00:00Z</time>
      </trkpt>
      <trkpt lat="39.465176" lon="-5.177790">
        <ele>567.9</ele>
        <time>1970-01-01T00:00:00Z</time>
      </trkpt>
      <trkpt lat="39.465135" lon="-5.177713">
        <ele>568.2</ele>
        <time>1970-01-01T00:00:00Z</time>
      </trkpt>
      <trkpt lat="39.465135" lon="-5.177713">
        <ele>568.2</ele>
        <time>1970-01-01T00:00:00Z</time>
      </trkpt>
      <trkpt lat="39.465135" lon="-5.177713">
        <ele>568.2</ele>
        <time>1970-01-01T00:00:00Z</time>
      </trkpt>
      <trkpt lat="39.465135" lon="-5.177713">
        <ele>568.2</ele>
        <time>1970-01-01T00:00:00Z</time>
      </trkpt>
      <trkpt lat="39.465091" lon="-5.177651">
        <ele>568.3</ele>
        <time>1970-01-01T00:00:00Z</time>
      </trkpt>
      <trkpt lat="39.465091" lon="-5.177651">
        <ele>568.3</ele>
        <time>1970-01-01T00:00:00Z</time>
      </trkpt>
      <trkpt lat="39.465091" lon="-5.177651">
        <ele>568.3</ele>
        <time>1970-01-01T00:00:00Z</time>
      </trkpt>
      <trkpt lat="39.465091" lon="-5.177651">
        <ele>568.3</ele>
        <time>1970-01-01T00:00:00Z</time>
      </trkpt>
      <trkpt lat="39.465032" lon="-5.177551">
        <ele>568.4</ele>
        <time>1970-01-01T00:00:00Z</time>
      </trkpt>
      <trkpt lat="39.465032" lon="-5.177551">
        <ele>568.4</ele>
        <time>1970-01-01T00:00:00Z</time>
      </trkpt>
      <trkpt lat="39.465032" lon="-5.177551">
        <ele>568.4</ele>
        <time>1970-01-01T00:00:00Z</time>
      </trkpt>
      <trkpt lat="39.465032" lon="-5.177551">
        <ele>568.4</ele>
        <time>1970-01-01T00:00:00Z</time>
      </trkpt>
      <trkpt lat="39.464987" lon="-5.177473">
        <ele>568.2</ele>
        <time>1970-01-01T00:00:00Z</time>
      </trkpt>
      <trkpt lat="39.464987" lon="-5.177473">
        <ele>568.2</ele>
        <time>1970-01-01T00:00:00Z</time>
      </trkpt>
      <trkpt lat="39.464987" lon="-5.177473">
        <ele>568.2</ele>
        <time>1970-01-01T00:00:00Z</time>
      </trkpt>
      <trkpt lat="39.464987" lon="-5.177473">
        <ele>568.2</ele>
        <time>1970-01-01T00:00:00Z</time>
      </trkpt>
      <trkpt lat="39.464951" lon="-5.177410">
        <ele>568.0</ele>
        <time>1970-01-01T00:00:00Z</time>
      </trkpt>
      <trkpt lat="39.464951" lon="-5.177410">
        <ele>568.0</ele>
        <time>1970-01-01T00:00:00Z</time>
      </trkpt>
      <trkpt lat="39.464951" lon="-5.177410">
        <ele>568.0</ele>
        <time>1970-01-01T00:00:00Z</time>
      </trkpt>
      <trkpt lat="39.464951" lon="-5.177410">
        <ele>568.0</ele>
        <time>1970-01-01T00:00:00Z</time>
      </trkpt>
      <trkpt lat="39.464945" lon="-5.177400">
        <ele>568.0</ele>
        <time>1970-01-01T00:00:00Z</time>
      </trkpt>
      <trkpt lat="39.464945" lon="-5.177400">
        <ele>568.0</ele>
        <time>1970-01-01T00:00:00Z</time>
      </trkpt>
      <trkpt lat="39.464945" lon="-5.177400">
        <ele>568.0</ele>
        <time>1970-01-01T00:00:00Z</time>
      </trkpt>
      <trkpt lat="39.464945" lon="-5.177400">
        <ele>568.0</ele>
        <time>1970-01-01T00:00:00Z</time>
      </trkpt>
      <trkpt lat="39.464839" lon="-5.177204">
        <ele>568.1</ele>
        <time>1970-01-01T00:00:00Z</time>
      </trkpt>
      <trkpt lat="39.464839" lon="-5.177204">
        <ele>568.1</ele>
        <time>1970-01-01T00:00:00Z</time>
      </trkpt>
      <trkpt lat="39.464839" lon="-5.177204">
        <ele>568.1</ele>
        <time>1970-01-01T00:00:00Z</time>
      </trkpt>
      <trkpt lat="39.464839" lon="-5.177204">
        <ele>568.1</ele>
        <time>1970-01-01T00:00:00Z</time>
      </trkpt>
      <trkpt lat="39.464787" lon="-5.177076">
        <ele>567.7</ele>
        <time>1970-01-01T00:00:00Z</time>
      </trkpt>
      <trkpt lat="39.464787" lon="-5.177076">
        <ele>567.7</ele>
        <time>1970-01-01T00:00:00Z</time>
      </trkpt>
      <trkpt lat="39.464787" lon="-5.177076">
        <ele>567.7</ele>
        <time>1970-01-01T00:00:00Z</time>
      </trkpt>
      <trkpt lat="39.464787" lon="-5.177076">
        <ele>567.7</ele>
        <time>1970-01-01T00:00:00Z</time>
      </trkpt>
      <trkpt lat="39.464768" lon="-5.177004">
        <ele>567.5</ele>
        <time>1970-01-01T00:00:00Z</time>
      </trkpt>
      <trkpt lat="39.464768" lon="-5.177004">
        <ele>567.5</ele>
        <time>1970-01-01T00:00:00Z</time>
      </trkpt>
      <trkpt lat="39.464768" lon="-5.177004">
        <ele>567.5</ele>
        <time>1970-01-01T00:00:00Z</time>
      </trkpt>
      <trkpt lat="39.464768" lon="-5.177004">
        <ele>567.5</ele>
        <time>1970-01-01T00:00:00Z</time>
      </trkpt>
      <trkpt lat="39.464759" lon="-5.176904">
        <ele>567.3</ele>
        <time>1970-01-01T00:00:00Z</time>
      </trkpt>
      <trkpt lat="39.464759" lon="-5.176904">
        <ele>567.3</ele>
        <time>1970-01-01T00:00:00Z</time>
      </trkpt>
      <trkpt lat="39.464759" lon="-5.176904">
        <ele>567.3</ele>
        <time>1970-01-01T00:00:00Z</time>
      </trkpt>
      <trkpt lat="39.464759" lon="-5.176904">
        <ele>567.3</ele>
        <time>1970-01-01T00:00:00Z</time>
      </trkpt>
      <trkpt lat="39.464752" lon="-5.176769">
        <ele>567.6</ele>
        <time>1970-01-01T00:00:00Z</time>
      </trkpt>
      <trkpt lat="39.464752" lon="-5.176769">
        <ele>567.6</ele>
        <time>1970-01-01T00:00:00Z</time>
      </trkpt>
      <trkpt lat="39.464752" lon="-5.176769">
        <ele>567.6</ele>
        <time>1970-01-01T00:00:00Z</time>
      </trkpt>
      <trkpt lat="39.464752" lon="-5.176769">
        <ele>567.6</ele>
        <time>1970-01-01T00:00:00Z</time>
      </trkpt>
      <trkpt lat="39.464735" lon="-5.176556">
        <ele>568.7</ele>
        <time>1970-01-01T00:00:00Z</time>
      </trkpt>
      <trkpt lat="39.464735" lon="-5.176556">
        <ele>568.7</ele>
        <time>1970-01-01T00:00:00Z</time>
      </trkpt>
      <trkpt lat="39.464735" lon="-5.176556">
        <ele>568.7</ele>
        <time>1970-01-01T00:00:00Z</time>
      </trkpt>
      <trkpt lat="39.464735" lon="-5.176556">
        <ele>568.7</ele>
        <time>1970-01-01T00:00:00Z</time>
      </trkpt>
      <trkpt lat="39.464731" lon="-5.176387">
        <ele>569.7</ele>
        <time>1970-01-01T00:00:00Z</time>
      </trkpt>
      <trkpt lat="39.464731" lon="-5.176387">
        <ele>569.7</ele>
        <time>1970-01-01T00:00:00Z</time>
      </trkpt>
      <trkpt lat="39.464731" lon="-5.176387">
        <ele>569.7</ele>
        <time>1970-01-01T00:00:00Z</time>
      </trkpt>
      <trkpt lat="39.464731" lon="-5.176387">
        <ele>569.7</ele>
        <time>1970-01-01T00:00:00Z</time>
      </trkpt>
      <trkpt lat="39.464728" lon="-5.176352">
        <ele>569.8</ele>
        <time>1970-01-01T00:00:00Z</time>
      </trkpt>
      <trkpt lat="39.464728" lon="-5.176352">
        <ele>569.8</ele>
        <time>1970-01-01T00:00:00Z</time>
      </trkpt>
      <trkpt lat="39.464728" lon="-5.176352">
        <ele>569.8</ele>
        <time>1970-01-01T00:00:00Z</time>
      </trkpt>
      <trkpt lat="39.464728" lon="-5.176352">
        <ele>569.8</ele>
        <time>1970-01-01T00:00:00Z</time>
      </trkpt>
      <trkpt lat="39.464722" lon="-5.176275">
        <ele>570.1</ele>
        <time>1970-01-01T00:00:00Z</time>
      </trkpt>
      <trkpt lat="39.464722" lon="-5.176275">
        <ele>570.1</ele>
        <time>1970-01-01T00:00:00Z</time>
      </trkpt>
      <trkpt lat="39.464722" lon="-5.176275">
        <ele>570.1</ele>
        <time>1970-01-01T00:00:00Z</time>
      </trkpt>
      <trkpt lat="39.464722" lon="-5.176275">
        <ele>570.1</ele>
        <time>1970-01-01T00:00:00Z</time>
      </trkpt>
      <trkpt lat="39.464720" lon="-5.176249">
        <ele>570.2</ele>
        <time>1970-01-01T00:00:00Z</time>
      </trkpt>
      <trkpt lat="39.464720" lon="-5.176249">
        <ele>570.2</ele>
        <time>1970-01-01T00:00:00Z</time>
      </trkpt>
      <trkpt lat="39.464720" lon="-5.176249">
        <ele>570.2</ele>
        <time>1970-01-01T00:00:00Z</time>
      </trkpt>
      <trkpt lat="39.464720" lon="-5.176249">
        <ele>570.2</ele>
        <time>1970-01-01T00:00:00Z</time>
      </trkpt>
      <trkpt lat="39.464714" lon="-5.176188">
        <ele>570.4</ele>
        <time>1970-01-01T00:00:00Z</time>
      </trkpt>
      <trkpt lat="39.464714" lon="-5.176188">
        <ele>570.4</ele>
        <time>1970-01-01T00:00:00Z</time>
      </trkpt>
      <trkpt lat="39.464714" lon="-5.176188">
        <ele>570.4</ele>
        <time>1970-01-01T00:00:00Z</time>
      </trkpt>
      <trkpt lat="39.464714" lon="-5.176188">
        <ele>570.4</ele>
        <time>1970-01-01T00:00:00Z</time>
      </trkpt>
      <trkpt lat="39.464698" lon="-5.176028">
        <ele>570.9</ele>
        <time>1970-01-01T00:00:00Z</time>
      </trkpt>
      <trkpt lat="39.464698" lon="-5.176028">
        <ele>570.9</ele>
        <time>1970-01-01T00:00:00Z</time>
      </trkpt>
      <trkpt lat="39.464698" lon="-5.176028">
        <ele>570.9</ele>
        <time>1970-01-01T00:00:00Z</time>
      </trkpt>
      <trkpt lat="39.464698" lon="-5.176028">
        <ele>570.9</ele>
        <time>1970-01-01T00:00:00Z</time>
      </trkpt>
      <trkpt lat="39.464688" lon="-5.175927">
        <ele>571.7</ele>
        <time>1970-01-01T00:00:00Z</time>
      </trkpt>
      <trkpt lat="39.464688" lon="-5.175927">
        <ele>571.7</ele>
        <time>1970-01-01T00:00:00Z</time>
      </trkpt>
      <trkpt lat="39.464688" lon="-5.175927">
        <ele>571.7</ele>
        <time>1970-01-01T00:00:00Z</time>
      </trkpt>
      <trkpt lat="39.464688" lon="-5.175927">
        <ele>571.7</ele>
        <time>1970-01-01T00:00:00Z</time>
      </trkpt>
      <trkpt lat="39.464676" lon="-5.175837">
        <ele>572.4</ele>
        <time>1970-01-01T00:00:00Z</time>
      </trkpt>
      <trkpt lat="39.464676" lon="-5.175837">
        <ele>572.4</ele>
        <time>1970-01-01T00:00:00Z</time>
      </trkpt>
      <trkpt lat="39.464676" lon="-5.175837">
        <ele>572.4</ele>
        <time>1970-01-01T00:00:00Z</time>
      </trkpt>
      <trkpt lat="39.464676" lon="-5.175837">
        <ele>572.4</ele>
        <time>1970-01-01T00:00:00Z</time>
      </trkpt>
      <trkpt lat="39.464651" lon="-5.175637">
        <ele>574.1</ele>
        <time>1970-01-01T00:00:00Z</time>
      </trkpt>
      <trkpt lat="39.464651" lon="-5.175637">
        <ele>574.1</ele>
        <time>1970-01-01T00:00:00Z</time>
      </trkpt>
      <trkpt lat="39.464651" lon="-5.175637">
        <ele>574.1</ele>
        <time>1970-01-01T00:00:00Z</time>
      </trkpt>
      <trkpt lat="39.464651" lon="-5.175637">
        <ele>574.1</ele>
        <time>1970-01-01T00:00:00Z</time>
      </trkpt>
      <trkpt lat="39.464643" lon="-5.175576">
        <ele>574.6</ele>
        <time>1970-01-01T00:00:00Z</time>
      </trkpt>
      <trkpt lat="39.464643" lon="-5.175576">
        <ele>574.6</ele>
        <time>1970-01-01T00:00:00Z</time>
      </trkpt>
      <trkpt lat="39.464643" lon="-5.175576">
        <ele>574.6</ele>
        <time>1970-01-01T00:00:00Z</time>
      </trkpt>
      <trkpt lat="39.464643" lon="-5.175576">
        <ele>574.6</ele>
        <time>1970-01-01T00:00:00Z</time>
      </trkpt>
      <trkpt lat="39.464624" lon="-5.175457">
        <ele>575.1</ele>
        <time>1970-01-01T00:00:00Z</time>
      </trkpt>
      <trkpt lat="39.464624" lon="-5.175457">
        <ele>575.1</ele>
        <time>1970-01-01T00:00:00Z</time>
      </trkpt>
      <trkpt lat="39.464624" lon="-5.175457">
        <ele>575.1</ele>
        <time>1970-01-01T00:00:00Z</time>
      </trkpt>
      <trkpt lat="39.464624" lon="-5.175457">
        <ele>575.1</ele>
        <time>1970-01-01T00:00:00Z</time>
      </trkpt>
      <trkpt lat="39.464594" lon="-5.175272">
        <ele>575.9</ele>
        <time>1970-01-01T00:00:00Z</time>
      </trkpt>
      <trkpt lat="39.464594" lon="-5.175272">
        <ele>575.9</ele>
        <time>1970-01-01T00:00:00Z</time>
      </trkpt>
      <trkpt lat="39.464594" lon="-5.175272">
        <ele>575.9</ele>
        <time>1970-01-01T00:00:00Z</time>
      </trkpt>
      <trkpt lat="39.464594" lon="-5.175272">
        <ele>575.9</ele>
        <time>1970-01-01T00:00:00Z</time>
      </trkpt>
      <trkpt lat="39.464585" lon="-5.175219">
        <ele>576.2</ele>
        <time>1970-01-01T00:00:00Z</time>
      </trkpt>
      <trkpt lat="39.464585" lon="-5.175219">
        <ele>576.2</ele>
        <time>1970-01-01T00:00:00Z</time>
      </trkpt>
      <trkpt lat="39.464585" lon="-5.175219">
        <ele>576.2</ele>
        <time>1970-01-01T00:00:00Z</time>
      </trkpt>
      <trkpt lat="39.464585" lon="-5.175219">
        <ele>576.2</ele>
        <time>1970-01-01T00:00:00Z</time>
      </trkpt>
      <trkpt lat="39.464502" lon="-5.174819">
        <ele>578.6</ele>
        <time>1970-01-01T00:00:00Z</time>
      </trkpt>
      <trkpt lat="39.464502" lon="-5.174819">
        <ele>578.6</ele>
        <time>1970-01-01T00:00:00Z</time>
      </trkpt>
      <trkpt lat="39.464502" lon="-5.174819">
        <ele>578.6</ele>
        <time>1970-01-01T00:00:00Z</time>
      </trkpt>
      <trkpt lat="39.464502" lon="-5.174819">
        <ele>578.6</ele>
        <time>1970-01-01T00:00:00Z</time>
      </trkpt>
      <trkpt lat="39.464471" lon="-5.174659">
        <ele>579.7</ele>
        <time>1970-01-01T00:00:00Z</time>
      </trkpt>
      <trkpt lat="39.464471" lon="-5.174659">
        <ele>579.7</ele>
        <time>1970-01-01T00:00:00Z</time>
      </trkpt>
      <trkpt lat="39.464471" lon="-5.174659">
        <ele>579.7</ele>
        <time>1970-01-01T00:00:00Z</time>
      </trkpt>
      <trkpt lat="39.464471" lon="-5.174659">
        <ele>579.7</ele>
        <time>1970-01-01T00:00:00Z</time>
      </trkpt>
      <trkpt lat="39.464458" lon="-5.174590">
        <ele>580.2</ele>
        <time>1970-01-01T00:00:00Z</time>
      </trkpt>
      <trkpt lat="39.464458" lon="-5.174590">
        <ele>580.2</ele>
        <time>1970-01-01T00:00:00Z</time>
      </trkpt>
      <trkpt lat="39.464458" lon="-5.174590">
        <ele>580.2</ele>
        <time>1970-01-01T00:00:00Z</time>
      </trkpt>
      <trkpt lat="39.464458" lon="-5.174590">
        <ele>580.2</ele>
        <time>1970-01-01T00:00:00Z</time>
      </trkpt>
      <trkpt lat="39.464447" lon="-5.174536">
        <ele>580.4</ele>
        <time>1970-01-01T00:00:00Z</time>
      </trkpt>
      <trkpt lat="39.464447" lon="-5.174536">
        <ele>580.4</ele>
        <time>1970-01-01T00:00:00Z</time>
      </trkpt>
      <trkpt lat="39.464447" lon="-5.174536">
        <ele>580.4</ele>
        <time>1970-01-01T00:00:00Z</time>
      </trkpt>
      <trkpt lat="39.464447" lon="-5.174536">
        <ele>580.4</ele>
        <time>1970-01-01T00:00:00Z</time>
      </trkpt>
      <trkpt lat="39.464446" lon="-5.174530">
        <ele>580.4</ele>
        <time>1970-01-01T00:00:00Z</time>
      </trkpt>
      <trkpt lat="39.464446" lon="-5.174530">
        <ele>580.4</ele>
        <time>1970-01-01T00:00:00Z</time>
      </trkpt>
      <trkpt lat="39.464446" lon="-5.174530">
        <ele>580.4</ele>
        <time>1970-01-01T00:00:00Z</time>
      </trkpt>
      <trkpt lat="39.464446" lon="-5.174530">
        <ele>580.4</ele>
        <time>1970-01-01T00:00:00Z</time>
      </trkpt>
      <trkpt lat="39.464441" lon="-5.174505">
        <ele>580.5</ele>
        <time>1970-01-01T00:00:00Z</time>
      </trkpt>
      <trkpt lat="39.464441" lon="-5.174505">
        <ele>580.5</ele>
        <time>1970-01-01T00:00:00Z</time>
      </trkpt>
      <trkpt lat="39.464441" lon="-5.174505">
        <ele>580.5</ele>
        <time>1970-01-01T00:00:00Z</time>
      </trkpt>
      <trkpt lat="39.464441" lon="-5.174505">
        <ele>580.5</ele>
        <time>1970-01-01T00:00:00Z</time>
      </trkpt>
      <trkpt lat="39.464428" lon="-5.174437">
        <ele>580.8</ele>
        <time>1970-01-01T00:00:00Z</time>
      </trkpt>
      <trkpt lat="39.464428" lon="-5.174437">
        <ele>580.8</ele>
        <time>1970-01-01T00:00:00Z</time>
      </trkpt>
      <trkpt lat="39.464428" lon="-5.174437">
        <ele>580.8</ele>
        <time>1970-01-01T00:00:00Z</time>
      </trkpt>
      <trkpt lat="39.464428" lon="-5.174437">
        <ele>580.8</ele>
        <time>1970-01-01T00:00:00Z</time>
      </trkpt>
      <trkpt lat="39.464424" lon="-5.174415">
        <ele>580.9</ele>
        <time>1970-01-01T00:00:00Z</time>
      </trkpt>
      <trkpt lat="39.464424" lon="-5.174415">
        <ele>580.9</ele>
        <time>1970-01-01T00:00:00Z</time>
      </trkpt>
      <trkpt lat="39.464424" lon="-5.174415">
        <ele>580.9</ele>
        <time>1970-01-01T00:00:00Z</time>
      </trkpt>
      <trkpt lat="39.464424" lon="-5.174415">
        <ele>580.9</ele>
        <time>1970-01-01T00:00:00Z</time>
      </trkpt>
      <trkpt lat="39.464399" lon="-5.174289">
        <ele>581.5</ele>
        <time>1970-01-01T00:00:00Z</time>
      </trkpt>
      <trkpt lat="39.464399" lon="-5.174289">
        <ele>581.5</ele>
        <time>1970-01-01T00:00:00Z</time>
      </trkpt>
      <trkpt lat="39.464399" lon="-5.174289">
        <ele>581.5</ele>
        <time>1970-01-01T00:00:00Z</time>
      </trkpt>
      <trkpt lat="39.464399" lon="-5.174289">
        <ele>581.5</ele>
        <time>1970-01-01T00:00:00Z</time>
      </trkpt>
      <trkpt lat="39.464386" lon="-5.174221">
        <ele>581.8</ele>
        <time>1970-01-01T00:00:00Z</time>
      </trkpt>
      <trkpt lat="39.464386" lon="-5.174221">
        <ele>581.8</ele>
        <time>1970-01-01T00:00:00Z</time>
      </trkpt>
      <trkpt lat="39.464386" lon="-5.174221">
        <ele>581.8</ele>
        <time>1970-01-01T00:00:00Z</time>
      </trkpt>
      <trkpt lat="39.464386" lon="-5.174221">
        <ele>581.8</ele>
        <time>1970-01-01T00:00:00Z</time>
      </trkpt>
      <trkpt lat="39.464377" lon="-5.174179">
        <ele>581.9</ele>
        <time>1970-01-01T00:00:00Z</time>
      </trkpt>
      <trkpt lat="39.464377" lon="-5.174179">
        <ele>581.9</ele>
        <time>1970-01-01T00:00:00Z</time>
      </trkpt>
      <trkpt lat="39.464377" lon="-5.174179">
        <ele>581.9</ele>
        <time>1970-01-01T00:00:00Z</time>
      </trkpt>
      <trkpt lat="39.464377" lon="-5.174179">
        <ele>581.9</ele>
        <time>1970-01-01T00:00:00Z</time>
      </trkpt>
      <trkpt lat="39.464373" lon="-5.174159">
        <ele>582.0</ele>
        <time>1970-01-01T00:00:00Z</time>
      </trkpt>
      <trkpt lat="39.464373" lon="-5.174159">
        <ele>582.0</ele>
        <time>1970-01-01T00:00:00Z</time>
      </trkpt>
      <trkpt lat="39.464373" lon="-5.174159">
        <ele>582.0</ele>
        <time>1970-01-01T00:00:00Z</time>
      </trkpt>
      <trkpt lat="39.464373" lon="-5.174159">
        <ele>582.0</ele>
        <time>1970-01-01T00:00:00Z</time>
      </trkpt>
      <trkpt lat="39.464320" lon="-5.173875">
        <ele>581.9</ele>
        <time>1970-01-01T00:00:00Z</time>
      </trkpt>
      <trkpt lat="39.464320" lon="-5.173875">
        <ele>581.9</ele>
        <time>1970-01-01T00:00:00Z</time>
      </trkpt>
      <trkpt lat="39.464320" lon="-5.173875">
        <ele>581.9</ele>
        <time>1970-01-01T00:00:00Z</time>
      </trkpt>
      <trkpt lat="39.464320" lon="-5.173875">
        <ele>581.9</ele>
        <time>1970-01-01T00:00:00Z</time>
      </trkpt>
      <trkpt lat="39.464309" lon="-5.173817">
        <ele>581.8</ele>
        <time>1970-01-01T00:00:00Z</time>
      </trkpt>
      <trkpt lat="39.464309" lon="-5.173817">
        <ele>581.8</ele>
        <time>1970-01-01T00:00:00Z</time>
      </trkpt>
      <trkpt lat="39.464309" lon="-5.173817">
        <ele>581.8</ele>
        <time>1970-01-01T00:00:00Z</time>
      </trkpt>
      <trkpt lat="39.464309" lon="-5.173817">
        <ele>581.8</ele>
        <time>1970-01-01T00:00:00Z</time>
      </trkpt>
      <trkpt lat="39.464282" lon="-5.173657">
        <ele>581.3</ele>
        <time>1970-01-01T00:00:00Z</time>
      </trkpt>
      <trkpt lat="39.464282" lon="-5.173657">
        <ele>581.3</ele>
        <time>1970-01-01T00:00:00Z</time>
      </trkpt>
      <trkpt lat="39.464282" lon="-5.173657">
        <ele>581.3</ele>
        <time>1970-01-01T00:00:00Z</time>
      </trkpt>
      <trkpt lat="39.464282" lon="-5.173657">
        <ele>581.3</ele>
        <time>1970-01-01T00:00:00Z</time>
      </trkpt>
      <trkpt lat="39.464280" lon="-5.173640">
        <ele>581.3</ele>
        <time>1970-01-01T00:00:00Z</time>
      </trkpt>
      <trkpt lat="39.464280" lon="-5.173640">
        <ele>581.3</ele>
        <time>1970-01-01T00:00:00Z</time>
      </trkpt>
      <trkpt lat="39.464280" lon="-5.173640">
        <ele>581.3</ele>
        <time>1970-01-01T00:00:00Z</time>
      </trkpt>
      <trkpt lat="39.464280" lon="-5.173640">
        <ele>581.3</ele>
        <time>1970-01-01T00:00:00Z</time>
      </trkpt>
      <trkpt lat="39.464268" lon="-5.173572">
        <ele>581.2</ele>
        <time>1970-01-01T00:00:00Z</time>
      </trkpt>
      <trkpt lat="39.464268" lon="-5.173572">
        <ele>581.2</ele>
        <time>1970-01-01T00:00:00Z</time>
      </trkpt>
      <trkpt lat="39.464268" lon="-5.173572">
        <ele>581.2</ele>
        <time>1970-01-01T00:00:00Z</time>
      </trkpt>
      <trkpt lat="39.464268" lon="-5.173572">
        <ele>581.2</ele>
        <time>1970-01-01T00:00:00Z</time>
      </trkpt>
      <trkpt lat="39.464257" lon="-5.173492">
        <ele>581.1</ele>
        <time>1970-01-01T00:00:00Z</time>
      </trkpt>
      <trkpt lat="39.464257" lon="-5.173492">
        <ele>581.1</ele>
        <time>1970-01-01T00:00:00Z</time>
      </trkpt>
      <trkpt lat="39.464257" lon="-5.173492">
        <ele>581.1</ele>
        <time>1970-01-01T00:00:00Z</time>
      </trkpt>
      <trkpt lat="39.464257" lon="-5.173492">
        <ele>581.1</ele>
        <time>1970-01-01T00:00:00Z</time>
      </trkpt>
      <trkpt lat="39.464252" lon="-5.173453">
        <ele>581.0</ele>
        <time>1970-01-01T00:00:00Z</time>
      </trkpt>
      <trkpt lat="39.464252" lon="-5.173453">
        <ele>581.0</ele>
        <time>1970-01-01T00:00:00Z</time>
      </trkpt>
      <trkpt lat="39.464252" lon="-5.173453">
        <ele>581.0</ele>
        <time>1970-01-01T00:00:00Z</time>
      </trkpt>
      <trkpt lat="39.464252" lon="-5.173453">
        <ele>581.0</ele>
        <time>1970-01-01T00:00:00Z</time>
      </trkpt>
      <trkpt lat="39.464246" lon="-5.173416">
        <ele>580.8</ele>
        <time>1970-01-01T00:00:00Z</time>
      </trkpt>
      <trkpt lat="39.464246" lon="-5.173416">
        <ele>580.8</ele>
        <time>1970-01-01T00:00:00Z</time>
      </trkpt>
      <trkpt lat="39.464246" lon="-5.173416">
        <ele>580.8</ele>
        <time>1970-01-01T00:00:00Z</time>
      </trkpt>
      <trkpt lat="39.464246" lon="-5.173416">
        <ele>580.8</ele>
        <time>1970-01-01T00:00:00Z</time>
      </trkpt>
      <trkpt lat="39.464238" lon="-5.173357">
        <ele>580.5</ele>
        <time>1970-01-01T00:00:00Z</time>
      </trkpt>
      <trkpt lat="39.464238" lon="-5.173357">
        <ele>580.5</ele>
        <time>1970-01-01T00:00:00Z</time>
      </trkpt>
      <trkpt lat="39.464238" lon="-5.173357">
        <ele>580.5</ele>
        <time>1970-01-01T00:00:00Z</time>
      </trkpt>
      <trkpt lat="39.464238" lon="-5.173357">
        <ele>580.5</ele>
        <time>1970-01-01T00:00:00Z</time>
      </trkpt>
      <trkpt lat="39.464236" lon="-5.173338">
        <ele>580.4</ele>
        <time>1970-01-01T00:00:00Z</time>
      </trkpt>
      <trkpt lat="39.464236" lon="-5.173338">
        <ele>580.4</ele>
        <time>1970-01-01T00:00:00Z</time>
      </trkpt>
      <trkpt lat="39.464236" lon="-5.173338">
        <ele>580.4</ele>
        <time>1970-01-01T00:00:00Z</time>
      </trkpt>
      <trkpt lat="39.464236" lon="-5.173338">
        <ele>580.4</ele>
        <time>1970-01-01T00:00:00Z</time>
      </trkpt>
      <trkpt lat="39.464233" lon="-5.173310">
        <ele>580.3</ele>
        <time>1970-01-01T00:00:00Z</time>
      </trkpt>
      <trkpt lat="39.464233" lon="-5.173310">
        <ele>580.3</ele>
        <time>1970-01-01T00:00:00Z</time>
      </trkpt>
      <trkpt lat="39.464233" lon="-5.173310">
        <ele>580.3</ele>
        <time>1970-01-01T00:00:00Z</time>
      </trkpt>
      <trkpt lat="39.464233" lon="-5.173310">
        <ele>580.3</ele>
        <time>1970-01-01T00:00:00Z</time>
      </trkpt>
      <trkpt lat="39.464232" lon="-5.173295">
        <ele>580.2</ele>
        <time>1970-01-01T00:00:00Z</time>
      </trkpt>
      <trkpt lat="39.464232" lon="-5.173295">
        <ele>580.2</ele>
        <time>1970-01-01T00:00:00Z</time>
      </trkpt>
      <trkpt lat="39.464232" lon="-5.173295">
        <ele>580.2</ele>
        <time>1970-01-01T00:00:00Z</time>
      </trkpt>
      <trkpt lat="39.464232" lon="-5.173295">
        <ele>580.2</ele>
        <time>1970-01-01T00:00:00Z</time>
      </trkpt>
      <trkpt lat="39.464219" lon="-5.173168">
        <ele>580.0</ele>
        <time>1970-01-01T00:00:00Z</time>
      </trkpt>
      <trkpt lat="39.464219" lon="-5.173168">
        <ele>580.0</ele>
        <time>1970-01-01T00:00:00Z</time>
      </trkpt>
      <trkpt lat="39.464219" lon="-5.173168">
        <ele>580.0</ele>
        <time>1970-01-01T00:00:00Z</time>
      </trkpt>
      <trkpt lat="39.464219" lon="-5.173168">
        <ele>580.0</ele>
        <time>1970-01-01T00:00:00Z</time>
      </trkpt>
      <trkpt lat="39.464217" lon="-5.173129">
        <ele>580.0</ele>
        <time>1970-01-01T00:00:00Z</time>
      </trkpt>
      <trkpt lat="39.464217" lon="-5.173129">
        <ele>580.0</ele>
        <time>1970-01-01T00:00:00Z</time>
      </trkpt>
      <trkpt lat="39.464217" lon="-5.173129">
        <ele>580.0</ele>
        <time>1970-01-01T00:00:00Z</time>
      </trkpt>
      <trkpt lat="39.464217" lon="-5.173129">
        <ele>580.0</ele>
        <time>1970-01-01T00:00:00Z</time>
      </trkpt>
      <trkpt lat="39.464209" lon="-5.172981">
        <ele>580.0</ele>
        <time>1970-01-01T00:00:00Z</time>
      </trkpt>
      <trkpt lat="39.464209" lon="-5.172981">
        <ele>580.0</ele>
        <time>1970-01-01T00:00:00Z</time>
      </trkpt>
      <trkpt lat="39.464209" lon="-5.172981">
        <ele>580.0</ele>
        <time>1970-01-01T00:00:00Z</time>
      </trkpt>
      <trkpt lat="39.464209" lon="-5.172981">
        <ele>580.0</ele>
        <time>1970-01-01T00:00:00Z</time>
      </trkpt>
      <trkpt lat="39.464204" lon="-5.172785">
        <ele>579.9</ele>
        <time>1970-01-01T00:00:00Z</time>
      </trkpt>
      <trkpt lat="39.464204" lon="-5.172785">
        <ele>579.9</ele>
        <time>1970-01-01T00:00:00Z</time>
      </trkpt>
      <trkpt lat="39.464204" lon="-5.172785">
        <ele>579.9</ele>
        <time>1970-01-01T00:00:00Z</time>
      </trkpt>
      <trkpt lat="39.464204" lon="-5.172785">
        <ele>579.9</ele>
        <time>1970-01-01T00:00:00Z</time>
      </trkpt>
      <trkpt lat="39.464205" lon="-5.172699">
        <ele>579.8</ele>
        <time>1970-01-01T00:00:00Z</time>
      </trkpt>
      <trkpt lat="39.464205" lon="-5.172699">
        <ele>579.8</ele>
        <time>1970-01-01T00:00:00Z</time>
      </trkpt>
      <trkpt lat="39.464205" lon="-5.172699">
        <ele>579.8</ele>
        <time>1970-01-01T00:00:00Z</time>
      </trkpt>
      <trkpt lat="39.464205" lon="-5.172699">
        <ele>579.8</ele>
        <time>1970-01-01T00:00:00Z</time>
      </trkpt>
      <trkpt lat="39.464207" lon="-5.172571">
        <ele>579.7</ele>
        <time>1970-01-01T00:00:00Z</time>
      </trkpt>
      <trkpt lat="39.464207" lon="-5.172571">
        <ele>579.7</ele>
        <time>1970-01-01T00:00:00Z</time>
      </trkpt>
      <trkpt lat="39.464207" lon="-5.172571">
        <ele>579.7</ele>
        <time>1970-01-01T00:00:00Z</time>
      </trkpt>
      <trkpt lat="39.464207" lon="-5.172571">
        <ele>579.7</ele>
        <time>1970-01-01T00:00:00Z</time>
      </trkpt>
      <trkpt lat="39.464222" lon="-5.172347">
        <ele>579.1</ele>
        <time>1970-01-01T00:00:00Z</time>
      </trkpt>
      <trkpt lat="39.464222" lon="-5.172347">
        <ele>579.1</ele>
        <time>1970-01-01T00:00:00Z</time>
      </trkpt>
      <trkpt lat="39.464222" lon="-5.172347">
        <ele>579.1</ele>
        <time>1970-01-01T00:00:00Z</time>
      </trkpt>
      <trkpt lat="39.464222" lon="-5.172347">
        <ele>579.1</ele>
        <time>1970-01-01T00:00:00Z</time>
      </trkpt>
      <trkpt lat="39.464247" lon="-5.172119">
        <ele>579.1</ele>
        <time>1970-01-01T00:00:00Z</time>
      </trkpt>
      <trkpt lat="39.464247" lon="-5.172119">
        <ele>579.1</ele>
        <time>1970-01-01T00:00:00Z</time>
      </trkpt>
      <trkpt lat="39.464247" lon="-5.172119">
        <ele>579.1</ele>
        <time>1970-01-01T00:00:00Z</time>
      </trkpt>
      <trkpt lat="39.464247" lon="-5.172119">
        <ele>579.1</ele>
        <time>1970-01-01T00:00:00Z</time>
      </trkpt>
      <trkpt lat="39.464252" lon="-5.172089">
        <ele>579.1</ele>
        <time>1970-01-01T00:00:00Z</time>
      </trkpt>
      <trkpt lat="39.464252" lon="-5.172089">
        <ele>579.1</ele>
        <time>1970-01-01T00:00:00Z</time>
      </trkpt>
      <trkpt lat="39.464252" lon="-5.172089">
        <ele>579.1</ele>
        <time>1970-01-01T00:00:00Z</time>
      </trkpt>
      <trkpt lat="39.464252" lon="-5.172089">
        <ele>579.1</ele>
        <time>1970-01-01T00:00:00Z</time>
      </trkpt>
      <trkpt lat="39.464258" lon="-5.172043">
        <ele>579.0</ele>
        <time>1970-01-01T00:00:00Z</time>
      </trkpt>
      <trkpt lat="39.464258" lon="-5.172043">
        <ele>579.0</ele>
        <time>1970-01-01T00:00:00Z</time>
      </trkpt>
      <trkpt lat="39.464258" lon="-5.172043">
        <ele>579.0</ele>
        <time>1970-01-01T00:00:00Z</time>
      </trkpt>
      <trkpt lat="39.464258" lon="-5.172043">
        <ele>579.0</ele>
        <time>1970-01-01T00:00:00Z</time>
      </trkpt>
      <trkpt lat="39.464280" lon="-5.171896">
        <ele>578.6</ele>
        <time>1970-01-01T00:00:00Z</time>
      </trkpt>
      <trkpt lat="39.464280" lon="-5.171896">
        <ele>578.6</ele>
        <time>1970-01-01T00:00:00Z</time>
      </trkpt>
      <trkpt lat="39.464280" lon="-5.171896">
        <ele>578.6</ele>
        <time>1970-01-01T00:00:00Z</time>
      </trkpt>
      <trkpt lat="39.464280" lon="-5.171896">
        <ele>578.6</ele>
        <time>1970-01-01T00:00:00Z</time>
      </trkpt>
      <trkpt lat="39.464310" lon="-5.171700">
        <ele>579.1</ele>
        <time>1970-01-01T00:00:00Z</time>
      </trkpt>
      <trkpt lat="39.464310" lon="-5.171700">
        <ele>579.1</ele>
        <time>1970-01-01T00:00:00Z</time>
      </trkpt>
      <trkpt lat="39.464310" lon="-5.171700">
        <ele>579.1</ele>
        <time>1970-01-01T00:00:00Z</time>
      </trkpt>
      <trkpt lat="39.464310" lon="-5.171700">
        <ele>579.1</ele>
        <time>1970-01-01T00:00:00Z</time>
      </trkpt>
      <trkpt lat="39.464330" lon="-5.171550">
        <ele>579.5</ele>
        <time>1970-01-01T00:00:00Z</time>
      </trkpt>
      <trkpt lat="39.464330" lon="-5.171550">
        <ele>579.5</ele>
        <time>1970-01-01T00:00:00Z</time>
      </trkpt>
      <trkpt lat="39.464330" lon="-5.171550">
        <ele>579.5</ele>
        <time>1970-01-01T00:00:00Z</time>
      </trkpt>
      <trkpt lat="39.464330" lon="-5.171550">
        <ele>579.5</ele>
        <time>1970-01-01T00:00:00Z</time>
      </trkpt>
      <trkpt lat="39.464341" lon="-5.171435">
        <ele>579.8</ele>
        <time>1970-01-01T00:00:00Z</time>
      </trkpt>
      <trkpt lat="39.464341" lon="-5.171435">
        <ele>579.8</ele>
        <time>1970-01-01T00:00:00Z</time>
      </trkpt>
      <trkpt lat="39.464341" lon="-5.171435">
        <ele>579.8</ele>
        <time>1970-01-01T00:00:00Z</time>
      </trkpt>
      <trkpt lat="39.464341" lon="-5.171435">
        <ele>579.8</ele>
        <time>1970-01-01T00:00:00Z</time>
      </trkpt>
      <trkpt lat="39.464340" lon="-5.171337">
        <ele>579.9</ele>
        <time>1970-01-01T00:00:00Z</time>
      </trkpt>
      <trkpt lat="39.464340" lon="-5.171337">
        <ele>579.9</ele>
        <time>1970-01-01T00:00:00Z</time>
      </trkpt>
      <trkpt lat="39.464340" lon="-5.171337">
        <ele>579.9</ele>
        <time>1970-01-01T00:00:00Z</time>
      </trkpt>
      <trkpt lat="39.464340" lon="-5.171337">
        <ele>579.9</ele>
        <time>1970-01-01T00:00:00Z</time>
      </trkpt>
      <trkpt lat="39.464340" lon="-5.171310">
        <ele>579.9</ele>
        <time>1970-01-01T00:00:00Z</time>
      </trkpt>
      <trkpt lat="39.464340" lon="-5.171310">
        <ele>579.9</ele>
        <time>1970-01-01T00:00:00Z</time>
      </trkpt>
      <trkpt lat="39.464340" lon="-5.171310">
        <ele>579.9</ele>
        <time>1970-01-01T00:00:00Z</time>
      </trkpt>
      <trkpt lat="39.464340" lon="-5.171310">
        <ele>579.9</ele>
        <time>1970-01-01T00:00:00Z</time>
      </trkpt>
      <trkpt lat="39.464341" lon="-5.171252">
        <ele>579.9</ele>
        <time>1970-01-01T00:00:00Z</time>
      </trkpt>
      <trkpt lat="39.464341" lon="-5.171252">
        <ele>579.9</ele>
        <time>1970-01-01T00:00:00Z</time>
      </trkpt>
      <trkpt lat="39.464341" lon="-5.171252">
        <ele>579.9</ele>
        <time>1970-01-01T00:00:00Z</time>
      </trkpt>
      <trkpt lat="39.464341" lon="-5.171252">
        <ele>579.9</ele>
        <time>1970-01-01T00:00:00Z</time>
      </trkpt>
      <trkpt lat="39.464304" lon="-5.171132">
        <ele>579.6</ele>
        <time>1970-01-01T00:00:00Z</time>
      </trkpt>
      <trkpt lat="39.464304" lon="-5.171132">
        <ele>579.6</ele>
        <time>1970-01-01T00:00:00Z</time>
      </trkpt>
      <trkpt lat="39.464304" lon="-5.171132">
        <ele>579.6</ele>
        <time>1970-01-01T00:00:00Z</time>
      </trkpt>
      <trkpt lat="39.464304" lon="-5.171132">
        <ele>579.6</ele>
        <time>1970-01-01T00:00:00Z</time>
      </trkpt>
      <trkpt lat="39.464237" lon="-5.171034">
        <ele>579.0</ele>
        <time>1970-01-01T00:00:00Z</time>
      </trkpt>
      <trkpt lat="39.464237" lon="-5.171034">
        <ele>579.0</ele>
        <time>1970-01-01T00:00:00Z</time>
      </trkpt>
      <trkpt lat="39.464237" lon="-5.171034">
        <ele>579.0</ele>
        <time>1970-01-01T00:00:00Z</time>
      </trkpt>
      <trkpt lat="39.464237" lon="-5.171034">
        <ele>579.0</ele>
        <time>1970-01-01T00:00:00Z</time>
      </trkpt>
      <trkpt lat="39.464187" lon="-5.170996">
        <ele>579.0</ele>
        <time>1970-01-01T00:00:00Z</time>
      </trkpt>
      <trkpt lat="39.464187" lon="-5.170996">
        <ele>579.0</ele>
        <time>1970-01-01T00:00:00Z</time>
      </trkpt>
      <trkpt lat="39.464187" lon="-5.170996">
        <ele>579.0</ele>
        <time>1970-01-01T00:00:00Z</time>
      </trkpt>
      <trkpt lat="39.464187" lon="-5.170996">
        <ele>579.0</ele>
        <time>1970-01-01T00:00:00Z</time>
      </trkpt>
      <trkpt lat="39.464098" lon="-5.170925">
        <ele>579.0</ele>
        <time>1970-01-01T00:00:00Z</time>
      </trkpt>
      <trkpt lat="39.464098" lon="-5.170925">
        <ele>579.0</ele>
        <time>1970-01-01T00:00:00Z</time>
      </trkpt>
      <trkpt lat="39.464098" lon="-5.170925">
        <ele>579.0</ele>
        <time>1970-01-01T00:00:00Z</time>
      </trkpt>
      <trkpt lat="39.464098" lon="-5.170925">
        <ele>579.0</ele>
        <time>1970-01-01T00:00:00Z</time>
      </trkpt>
      <trkpt lat="39.464099" lon="-5.170820">
        <ele>578.7</ele>
        <time>1970-01-01T00:00:00Z</time>
      </trkpt>
      <trkpt lat="39.464099" lon="-5.170820">
        <ele>578.7</ele>
        <time>1970-01-01T00:00:00Z</time>
      </trkpt>
      <trkpt lat="39.464099" lon="-5.170820">
        <ele>578.7</ele>
        <time>1970-01-01T00:00:00Z</time>
      </trkpt>
      <trkpt lat="39.464099" lon="-5.170820">
        <ele>578.7</ele>
        <time>1970-01-01T00:00:00Z</time>
      </trkpt>
      <trkpt lat="39.464111" lon="-5.170750">
        <ele>578.6</ele>
        <time>1970-01-01T00:00:00Z</time>
      </trkpt>
      <trkpt lat="39.464111" lon="-5.170750">
        <ele>578.6</ele>
        <time>1970-01-01T00:00:00Z</time>
      </trkpt>
      <trkpt lat="39.464111" lon="-5.170750">
        <ele>578.6</ele>
        <time>1970-01-01T00:00:00Z</time>
      </trkpt>
      <trkpt lat="39.464111" lon="-5.170750">
        <ele>578.6</ele>
        <time>1970-01-01T00:00:00Z</time>
      </trkpt>
      <trkpt lat="39.464223" lon="-5.170517">
        <ele>578.9</ele>
        <time>1970-01-01T00:00:00Z</time>
      </trkpt>
      <trkpt lat="39.464223" lon="-5.170517">
        <ele>578.9</ele>
        <time>1970-01-01T00:00:00Z</time>
      </trkpt>
      <trkpt lat="39.464223" lon="-5.170517">
        <ele>578.9</ele>
        <time>1970-01-01T00:00:00Z</time>
      </trkpt>
      <trkpt lat="39.464223" lon="-5.170517">
        <ele>578.9</ele>
        <time>1970-01-01T00:00:00Z</time>
      </trkpt>
      <trkpt lat="39.464486" lon="-5.169961">
        <ele>579.0</ele>
        <time>1970-01-01T00:00:00Z</time>
      </trkpt>
      <trkpt lat="39.464486" lon="-5.169961">
        <ele>579.0</ele>
        <time>1970-01-01T00:00:00Z</time>
      </trkpt>
      <trkpt lat="39.464486" lon="-5.169961">
        <ele>579.0</ele>
        <time>1970-01-01T00:00:00Z</time>
      </trkpt>
      <trkpt lat="39.464486" lon="-5.169961">
        <ele>579.0</ele>
        <time>1970-01-01T00:00:00Z</time>
      </trkpt>
      <trkpt lat="39.464605" lon="-5.169715">
        <ele>579.0</ele>
        <time>1970-01-01T00:00:00Z</time>
      </trkpt>
      <trkpt lat="39.464605" lon="-5.169715">
        <ele>579.0</ele>
        <time>1970-01-01T00:00:00Z</time>
      </trkpt>
      <trkpt lat="39.464605" lon="-5.169715">
        <ele>579.0</ele>
        <time>1970-01-01T00:00:00Z</time>
      </trkpt>
      <trkpt lat="39.464605" lon="-5.169715">
        <ele>579.0</ele>
        <time>1970-01-01T00:00:00Z</time>
      </trkpt>
      <trkpt lat="39.464778" lon="-5.169389">
        <ele>580.4</ele>
        <time>1970-01-01T00:00:00Z</time>
      </trkpt>
      <trkpt lat="39.464778" lon="-5.169389">
        <ele>580.4</ele>
        <time>1970-01-01T00:00:00Z</time>
      </trkpt>
      <trkpt lat="39.464778" lon="-5.169389">
        <ele>580.4</ele>
        <time>1970-01-01T00:00:00Z</time>
      </trkpt>
      <trkpt lat="39.464778" lon="-5.169389">
        <ele>580.4</ele>
        <time>1970-01-01T00:00:00Z</time>
      </trkpt>
      <trkpt lat="39.464947" lon="-5.169025">
        <ele>582.3</ele>
        <time>1970-01-01T00:00:00Z</time>
      </trkpt>
      <trkpt lat="39.464947" lon="-5.169025">
        <ele>582.3</ele>
        <time>1970-01-01T00:00:00Z</time>
      </trkpt>
      <trkpt lat="39.464947" lon="-5.169025">
        <ele>582.3</ele>
        <time>1970-01-01T00:00:00Z</time>
      </trkpt>
      <trkpt lat="39.464947" lon="-5.169025">
        <ele>582.3</ele>
        <time>1970-01-01T00:00:00Z</time>
      </trkpt>
      <trkpt lat="39.465080" lon="-5.168752">
        <ele>583.9</ele>
        <time>1970-01-01T00:00:00Z</time>
      </trkpt>
      <trkpt lat="39.465080" lon="-5.168752">
        <ele>583.9</ele>
        <time>1970-01-01T00:00:00Z</time>
      </trkpt>
      <trkpt lat="39.465080" lon="-5.168752">
        <ele>583.9</ele>
        <time>1970-01-01T00:00:00Z</time>
      </trkpt>
      <trkpt lat="39.465080" lon="-5.168752">
        <ele>583.9</ele>
        <time>1970-01-01T00:00:00Z</time>
      </trkpt>
      <trkpt lat="39.465162" lon="-5.168583">
        <ele>585.1</ele>
        <time>1970-01-01T00:00:00Z</time>
      </trkpt>
      <trkpt lat="39.465162" lon="-5.168583">
        <ele>585.1</ele>
        <time>1970-01-01T00:00:00Z</time>
      </trkpt>
      <trkpt lat="39.465162" lon="-5.168583">
        <ele>585.1</ele>
        <time>1970-01-01T00:00:00Z</time>
      </trkpt>
      <trkpt lat="39.465162" lon="-5.168583">
        <ele>585.1</ele>
        <time>1970-01-01T00:00:00Z</time>
      </trkpt>
      <trkpt lat="39.465235" lon="-5.168413">
        <ele>586.5</ele>
        <time>1970-01-01T00:00:00Z</time>
      </trkpt>
      <trkpt lat="39.465235" lon="-5.168413">
        <ele>586.5</ele>
        <time>1970-01-01T00:00:00Z</time>
      </trkpt>
      <trkpt lat="39.465235" lon="-5.168413">
        <ele>586.5</ele>
        <time>1970-01-01T00:00:00Z</time>
      </trkpt>
      <trkpt lat="39.465235" lon="-5.168413">
        <ele>586.5</ele>
        <time>1970-01-01T00:00:00Z</time>
      </trkpt>
      <trkpt lat="39.465287" lon="-5.168319">
        <ele>587.4</ele>
        <time>1970-01-01T00:00:00Z</time>
      </trkpt>
      <trkpt lat="39.465287" lon="-5.168319">
        <ele>587.4</ele>
        <time>1970-01-01T00:00:00Z</time>
      </trkpt>
      <trkpt lat="39.465287" lon="-5.168319">
        <ele>587.4</ele>
        <time>1970-01-01T00:00:00Z</time>
      </trkpt>
      <trkpt lat="39.465287" lon="-5.168319">
        <ele>587.4</ele>
        <time>1970-01-01T00:00:00Z</time>
      </trkpt>
      <trkpt lat="39.465325" lon="-5.168225">
        <ele>588.3</ele>
        <time>1970-01-01T00:00:00Z</time>
      </trkpt>
      <trkpt lat="39.465325" lon="-5.168225">
        <ele>588.3</ele>
        <time>1970-01-01T00:00:00Z</time>
      </trkpt>
      <trkpt lat="39.465325" lon="-5.168225">
        <ele>588.3</ele>
        <time>1970-01-01T00:00:00Z</time>
      </trkpt>
      <trkpt lat="39.465325" lon="-5.168225">
        <ele>588.3</ele>
        <time>1970-01-01T00:00:00Z</time>
      </trkpt>
      <trkpt lat="39.465351" lon="-5.168089">
        <ele>589.1</ele>
        <time>1970-01-01T00:00:00Z</time>
      </trkpt>
      <trkpt lat="39.465351" lon="-5.168089">
        <ele>589.1</ele>
        <time>1970-01-01T00:00:00Z</time>
      </trkpt>
      <trkpt lat="39.465351" lon="-5.168089">
        <ele>589.1</ele>
        <time>1970-01-01T00:00:00Z</time>
      </trkpt>
      <trkpt lat="39.465351" lon="-5.168089">
        <ele>589.1</ele>
        <time>1970-01-01T00:00:00Z</time>
      </trkpt>
      <trkpt lat="39.465446" lon="-5.167800">
        <ele>590.6</ele>
        <time>1970-01-01T00:00:00Z</time>
      </trkpt>
      <trkpt lat="39.465446" lon="-5.167800">
        <ele>590.6</ele>
        <time>1970-01-01T00:00:00Z</time>
      </trkpt>
      <trkpt lat="39.465446" lon="-5.167800">
        <ele>590.6</ele>
        <time>1970-01-01T00:00:00Z</time>
      </trkpt>
      <trkpt lat="39.465446" lon="-5.167800">
        <ele>590.6</ele>
        <time>1970-01-01T00:00:00Z</time>
      </trkpt>
      <trkpt lat="39.465528" lon="-5.167650">
        <ele>591.0</ele>
        <time>1970-01-01T00:00:00Z</time>
      </trkpt>
      <trkpt lat="39.465528" lon="-5.167650">
        <ele>591.0</ele>
        <time>1970-01-01T00:00:00Z</time>
      </trkpt>
      <trkpt lat="39.465528" lon="-5.167650">
        <ele>591.0</ele>
        <time>1970-01-01T00:00:00Z</time>
      </trkpt>
      <trkpt lat="39.465528" lon="-5.167650">
        <ele>591.0</ele>
        <time>1970-01-01T00:00:00Z</time>
      </trkpt>
      <trkpt lat="39.465644" lon="-5.167408">
        <ele>591.2</ele>
        <time>1970-01-01T00:00:00Z</time>
      </trkpt>
      <trkpt lat="39.465644" lon="-5.167408">
        <ele>591.2</ele>
        <time>1970-01-01T00:00:00Z</time>
      </trkpt>
      <trkpt lat="39.465644" lon="-5.167408">
        <ele>591.2</ele>
        <time>1970-01-01T00:00:00Z</time>
      </trkpt>
      <trkpt lat="39.465644" lon="-5.167408">
        <ele>591.2</ele>
        <time>1970-01-01T00:00:00Z</time>
      </trkpt>
      <trkpt lat="39.465705" lon="-5.167279">
        <ele>591.2</ele>
        <time>1970-01-01T00:00:00Z</time>
      </trkpt>
      <trkpt lat="39.465705" lon="-5.167279">
        <ele>591.2</ele>
        <time>1970-01-01T00:00:00Z</time>
      </trkpt>
      <trkpt lat="39.465705" lon="-5.167279">
        <ele>591.2</ele>
        <time>1970-01-01T00:00:00Z</time>
      </trkpt>
      <trkpt lat="39.465705" lon="-5.167279">
        <ele>591.2</ele>
        <time>1970-01-01T00:00:00Z</time>
      </trkpt>
      <trkpt lat="39.465774" lon="-5.167119">
        <ele>590.7</ele>
        <time>1970-01-01T00:00:00Z</time>
      </trkpt>
      <trkpt lat="39.465774" lon="-5.167119">
        <ele>590.7</ele>
        <time>1970-01-01T00:00:00Z</time>
      </trkpt>
      <trkpt lat="39.465774" lon="-5.167119">
        <ele>590.7</ele>
        <time>1970-01-01T00:00:00Z</time>
      </trkpt>
      <trkpt lat="39.465774" lon="-5.167119">
        <ele>590.7</ele>
        <time>1970-01-01T00:00:00Z</time>
      </trkpt>
      <trkpt lat="39.465873" lon="-5.166924">
        <ele>589.9</ele>
        <time>1970-01-01T00:00:00Z</time>
      </trkpt>
      <trkpt lat="39.465873" lon="-5.166924">
        <ele>589.9</ele>
        <time>1970-01-01T00:00:00Z</time>
      </trkpt>
      <trkpt lat="39.465873" lon="-5.166924">
        <ele>589.9</ele>
        <time>1970-01-01T00:00:00Z</time>
      </trkpt>
      <trkpt lat="39.465873" lon="-5.166924">
        <ele>589.9</ele>
        <time>1970-01-01T00:00:00Z</time>
      </trkpt>
      <trkpt lat="39.465933" lon="-5.166777">
        <ele>589.4</ele>
        <time>1970-01-01T00:00:00Z</time>
      </trkpt>
      <trkpt lat="39.465933" lon="-5.166777">
        <ele>589.4</ele>
        <time>1970-01-01T00:00:00Z</time>
      </trkpt>
      <trkpt lat="39.465933" lon="-5.166777">
        <ele>589.4</ele>
        <time>1970-01-01T00:00:00Z</time>
      </trkpt>
      <trkpt lat="39.465933" lon="-5.166777">
        <ele>589.4</ele>
        <time>1970-01-01T00:00:00Z</time>
      </trkpt>
      <trkpt lat="39.465971" lon="-5.166671">
        <ele>588.8</ele>
        <time>1970-01-01T00:00:00Z</time>
      </trkpt>
      <trkpt lat="39.465971" lon="-5.166671">
        <ele>588.8</ele>
        <time>1970-01-01T00:00:00Z</time>
      </trkpt>
      <trkpt lat="39.465971" lon="-5.166671">
        <ele>588.8</ele>
        <time>1970-01-01T00:00:00Z</time>
      </trkpt>
      <trkpt lat="39.465971" lon="-5.166671">
        <ele>588.8</ele>
        <time>1970-01-01T00:00:00Z</time>
      </trkpt>
      <trkpt lat="39.466035" lon="-5.166490">
        <ele>587.7</ele>
        <time>1970-01-01T00:00:00Z</time>
      </trkpt>
      <trkpt lat="39.466035" lon="-5.166490">
        <ele>587.7</ele>
        <time>1970-01-01T00:00:00Z</time>
      </trkpt>
      <trkpt lat="39.466035" lon="-5.166490">
        <ele>587.7</ele>
        <time>1970-01-01T00:00:00Z</time>
      </trkpt>
      <trkpt lat="39.466035" lon="-5.166490">
        <ele>587.7</ele>
        <time>1970-01-01T00:00:00Z</time>
      </trkpt>
      <trkpt lat="39.466073" lon="-5.166416">
        <ele>587.2</ele>
        <time>1970-01-01T00:00:00Z</time>
      </trkpt>
      <trkpt lat="39.466073" lon="-5.166416">
        <ele>587.2</ele>
        <time>1970-01-01T00:00:00Z</time>
      </trkpt>
      <trkpt lat="39.466073" lon="-5.166416">
        <ele>587.2</ele>
        <time>1970-01-01T00:00:00Z</time>
      </trkpt>
      <trkpt lat="39.466073" lon="-5.166416">
        <ele>587.2</ele>
        <time>1970-01-01T00:00:00Z</time>
      </trkpt>
      <trkpt lat="39.466138" lon="-5.166292">
        <ele>586.6</ele>
        <time>1970-01-01T00:00:00Z</time>
      </trkpt>
      <trkpt lat="39.466138" lon="-5.166292">
        <ele>586.6</ele>
        <time>1970-01-01T00:00:00Z</time>
      </trkpt>
      <trkpt lat="39.466138" lon="-5.166292">
        <ele>586.6</ele>
        <time>1970-01-01T00:00:00Z</time>
      </trkpt>
      <trkpt lat="39.466138" lon="-5.166292">
        <ele>586.6</ele>
        <time>1970-01-01T00:00:00Z</time>
      </trkpt>
      <trkpt lat="39.466211" lon="-5.166146">
        <ele>586.2</ele>
        <time>1970-01-01T00:00:00Z</time>
      </trkpt>
      <trkpt lat="39.466211" lon="-5.166146">
        <ele>586.2</ele>
        <time>1970-01-01T00:00:00Z</time>
      </trkpt>
      <trkpt lat="39.466211" lon="-5.166146">
        <ele>586.2</ele>
        <time>1970-01-01T00:00:00Z</time>
      </trkpt>
      <trkpt lat="39.466211" lon="-5.166146">
        <ele>586.2</ele>
        <time>1970-01-01T00:00:00Z</time>
      </trkpt>
      <trkpt lat="39.466249" lon="-5.166044">
        <ele>586.0</ele>
        <time>1970-01-01T00:00:00Z</time>
      </trkpt>
      <trkpt lat="39.466249" lon="-5.166044">
        <ele>586.0</ele>
        <time>1970-01-01T00:00:00Z</time>
      </trkpt>
      <trkpt lat="39.466249" lon="-5.166044">
        <ele>586.0</ele>
        <time>1970-01-01T00:00:00Z</time>
      </trkpt>
      <trkpt lat="39.466249" lon="-5.166044">
        <ele>586.0</ele>
        <time>1970-01-01T00:00:00Z</time>
      </trkpt>
      <trkpt lat="39.466296" lon="-5.165920">
        <ele>585.9</ele>
        <time>1970-01-01T00:00:00Z</time>
      </trkpt>
      <trkpt lat="39.466296" lon="-5.165920">
        <ele>585.9</ele>
        <time>1970-01-01T00:00:00Z</time>
      </trkpt>
      <trkpt lat="39.466296" lon="-5.165920">
        <ele>585.9</ele>
        <time>1970-01-01T00:00:00Z</time>
      </trkpt>
      <trkpt lat="39.466296" lon="-5.165920">
        <ele>585.9</ele>
        <time>1970-01-01T00:00:00Z</time>
      </trkpt>
      <trkpt lat="39.466375" lon="-5.165703">
        <ele>585.3</ele>
        <time>1970-01-01T00:00:00Z</time>
      </trkpt>
      <trkpt lat="39.466375" lon="-5.165703">
        <ele>585.3</ele>
        <time>1970-01-01T00:00:00Z</time>
      </trkpt>
      <trkpt lat="39.466375" lon="-5.165703">
        <ele>585.3</ele>
        <time>1970-01-01T00:00:00Z</time>
      </trkpt>
      <trkpt lat="39.466375" lon="-5.165703">
        <ele>585.3</ele>
        <time>1970-01-01T00:00:00Z</time>
      </trkpt>
      <trkpt lat="39.466439" lon="-5.165502">
        <ele>584.5</ele>
        <time>1970-01-01T00:00:00Z</time>
      </trkpt>
      <trkpt lat="39.466439" lon="-5.165502">
        <ele>584.5</ele>
        <time>1970-01-01T00:00:00Z</time>
      </trkpt>
      <trkpt lat="39.466439" lon="-5.165502">
        <ele>584.5</ele>
        <time>1970-01-01T00:00:00Z</time>
      </trkpt>
      <trkpt lat="39.466439" lon="-5.165502">
        <ele>584.5</ele>
        <time>1970-01-01T00:00:00Z</time>
      </trkpt>
      <trkpt lat="39.466498" lon="-5.165314">
        <ele>584.2</ele>
        <time>1970-01-01T00:00:00Z</time>
      </trkpt>
      <trkpt lat="39.466498" lon="-5.165314">
        <ele>584.2</ele>
        <time>1970-01-01T00:00:00Z</time>
      </trkpt>
      <trkpt lat="39.466498" lon="-5.165314">
        <ele>584.2</ele>
        <time>1970-01-01T00:00:00Z</time>
      </trkpt>
      <trkpt lat="39.466498" lon="-5.165314">
        <ele>584.2</ele>
        <time>1970-01-01T00:00:00Z</time>
      </trkpt>
      <trkpt lat="39.466567" lon="-5.165172">
        <ele>584.4</ele>
        <time>1970-01-01T00:00:00Z</time>
      </trkpt>
      <trkpt lat="39.466567" lon="-5.165172">
        <ele>584.4</ele>
        <time>1970-01-01T00:00:00Z</time>
      </trkpt>
      <trkpt lat="39.466567" lon="-5.165172">
        <ele>584.4</ele>
        <time>1970-01-01T00:00:00Z</time>
      </trkpt>
      <trkpt lat="39.466567" lon="-5.165172">
        <ele>584.4</ele>
        <time>1970-01-01T00:00:00Z</time>
      </trkpt>
      <trkpt lat="39.466628" lon="-5.165047">
        <ele>583.5</ele>
        <time>1970-01-01T00:00:00Z</time>
      </trkpt>
      <trkpt lat="39.466628" lon="-5.165047">
        <ele>583.5</ele>
        <time>1970-01-01T00:00:00Z</time>
      </trkpt>
      <trkpt lat="39.466628" lon="-5.165047">
        <ele>583.5</ele>
        <time>1970-01-01T00:00:00Z</time>
      </trkpt>
      <trkpt lat="39.466628" lon="-5.165047">
        <ele>583.5</ele>
        <time>1970-01-01T00:00:00Z</time>
      </trkpt>
      <trkpt lat="39.466755" lon="-5.164776">
        <ele>582.1</ele>
        <time>1970-01-01T00:00:00Z</time>
      </trkpt>
      <trkpt lat="39.466755" lon="-5.164776">
        <ele>582.1</ele>
        <time>1970-01-01T00:00:00Z</time>
      </trkpt>
      <trkpt lat="39.466755" lon="-5.164776">
        <ele>582.1</ele>
        <time>1970-01-01T00:00:00Z</time>
      </trkpt>
      <trkpt lat="39.466755" lon="-5.164776">
        <ele>582.1</ele>
        <time>1970-01-01T00:00:00Z</time>
      </trkpt>
      <trkpt lat="39.466811" lon="-5.164648">
        <ele>581.6</ele>
        <time>1970-01-01T00:00:00Z</time>
      </trkpt>
      <trkpt lat="39.466811" lon="-5.164648">
        <ele>581.6</ele>
        <time>1970-01-01T00:00:00Z</time>
      </trkpt>
      <trkpt lat="39.466811" lon="-5.164648">
        <ele>581.6</ele>
        <time>1970-01-01T00:00:00Z</time>
      </trkpt>
      <trkpt lat="39.466811" lon="-5.164648">
        <ele>581.6</ele>
        <time>1970-01-01T00:00:00Z</time>
      </trkpt>
      <trkpt lat="39.466840" lon="-5.164562">
        <ele>581.4</ele>
        <time>1970-01-01T00:00:00Z</time>
      </trkpt>
      <trkpt lat="39.466840" lon="-5.164562">
        <ele>581.4</ele>
        <time>1970-01-01T00:00:00Z</time>
      </trkpt>
      <trkpt lat="39.466840" lon="-5.164562">
        <ele>581.4</ele>
        <time>1970-01-01T00:00:00Z</time>
      </trkpt>
      <trkpt lat="39.466840" lon="-5.164562">
        <ele>581.4</ele>
        <time>1970-01-01T00:00:00Z</time>
      </trkpt>
      <trkpt lat="39.466856" lon="-5.164524">
        <ele>581.2</ele>
        <time>1970-01-01T00:00:00Z</time>
      </trkpt>
      <trkpt lat="39.466856" lon="-5.164524">
        <ele>581.2</ele>
        <time>1970-01-01T00:00:00Z</time>
      </trkpt>
      <trkpt lat="39.466856" lon="-5.164524">
        <ele>581.2</ele>
        <time>1970-01-01T00:00:00Z</time>
      </trkpt>
      <trkpt lat="39.466856" lon="-5.164524">
        <ele>581.2</ele>
        <time>1970-01-01T00:00:00Z</time>
      </trkpt>
      <trkpt lat="39.466926" lon="-5.164361">
        <ele>580.1</ele>
        <time>1970-01-01T00:00:00Z</time>
      </trkpt>
      <trkpt lat="39.466926" lon="-5.164361">
        <ele>580.1</ele>
        <time>1970-01-01T00:00:00Z</time>
      </trkpt>
      <trkpt lat="39.466926" lon="-5.164361">
        <ele>580.1</ele>
        <time>1970-01-01T00:00:00Z</time>
      </trkpt>
      <trkpt lat="39.466926" lon="-5.164361">
        <ele>580.1</ele>
        <time>1970-01-01T00:00:00Z</time>
      </trkpt>
      <trkpt lat="39.466973" lon="-5.164259">
        <ele>579.1</ele>
        <time>1970-01-01T00:00:00Z</time>
      </trkpt>
      <trkpt lat="39.466973" lon="-5.164259">
        <ele>579.1</ele>
        <time>1970-01-01T00:00:00Z</time>
      </trkpt>
      <trkpt lat="39.466973" lon="-5.164259">
        <ele>579.1</ele>
        <time>1970-01-01T00:00:00Z</time>
      </trkpt>
      <trkpt lat="39.466973" lon="-5.164259">
        <ele>579.1</ele>
        <time>1970-01-01T00:00:00Z</time>
      </trkpt>
      <trkpt lat="39.467005" lon="-5.164190">
        <ele>578.2</ele>
        <time>1970-01-01T00:00:00Z</time>
      </trkpt>
      <trkpt lat="39.467005" lon="-5.164190">
        <ele>578.2</ele>
        <time>1970-01-01T00:00:00Z</time>
      </trkpt>
      <trkpt lat="39.467005" lon="-5.164190">
        <ele>578.2</ele>
        <time>1970-01-01T00:00:00Z</time>
      </trkpt>
      <trkpt lat="39.467005" lon="-5.164190">
        <ele>578.2</ele>
        <time>1970-01-01T00:00:00Z</time>
      </trkpt>
      <trkpt lat="39.467033" lon="-5.164116">
        <ele>577.1</ele>
        <time>1970-01-01T00:00:00Z</time>
      </trkpt>
      <trkpt lat="39.467033" lon="-5.164116">
        <ele>577.1</ele>
        <time>1970-01-01T00:00:00Z</time>
      </trkpt>
      <trkpt lat="39.467033" lon="-5.164116">
        <ele>577.1</ele>
        <time>1970-01-01T00:00:00Z</time>
      </trkpt>
      <trkpt lat="39.467033" lon="-5.164116">
        <ele>577.1</ele>
        <time>1970-01-01T00:00:00Z</time>
      </trkpt>
      <trkpt lat="39.467136" lon="-5.163874">
        <ele>574.1</ele>
        <time>1970-01-01T00:00:00Z</time>
      </trkpt>
      <trkpt lat="39.467136" lon="-5.163874">
        <ele>574.1</ele>
        <time>1970-01-01T00:00:00Z</time>
      </trkpt>
      <trkpt lat="39.467136" lon="-5.163874">
        <ele>574.1</ele>
        <time>1970-01-01T00:00:00Z</time>
      </trkpt>
      <trkpt lat="39.467136" lon="-5.163874">
        <ele>574.1</ele>
        <time>1970-01-01T00:00:00Z</time>
      </trkpt>
      <trkpt lat="39.467168" lon="-5.163792">
        <ele>573.6</ele>
        <time>1970-01-01T00:00:00Z</time>
      </trkpt>
      <trkpt lat="39.467168" lon="-5.163792">
        <ele>573.6</ele>
        <time>1970-01-01T00:00:00Z</time>
      </trkpt>
      <trkpt lat="39.467168" lon="-5.163792">
        <ele>573.6</ele>
        <time>1970-01-01T00:00:00Z</time>
      </trkpt>
      <trkpt lat="39.467168" lon="-5.163792">
        <ele>573.6</ele>
        <time>1970-01-01T00:00:00Z</time>
      </trkpt>
      <trkpt lat="39.467202" lon="-5.163723">
        <ele>573.0</ele>
        <time>1970-01-01T00:00:00Z</time>
      </trkpt>
      <trkpt lat="39.467202" lon="-5.163723">
        <ele>573.0</ele>
        <time>1970-01-01T00:00:00Z</time>
      </trkpt>
      <trkpt lat="39.467202" lon="-5.163723">
        <ele>573.0</ele>
        <time>1970-01-01T00:00:00Z</time>
      </trkpt>
      <trkpt lat="39.467202" lon="-5.163723">
        <ele>573.0</ele>
        <time>1970-01-01T00:00:00Z</time>
      </trkpt>
      <trkpt lat="39.467221" lon="-5.163665">
        <ele>572.5</ele>
        <time>1970-01-01T00:00:00Z</time>
      </trkpt>
      <trkpt lat="39.467221" lon="-5.163665">
        <ele>572.5</ele>
        <time>1970-01-01T00:00:00Z</time>
      </trkpt>
      <trkpt lat="39.467221" lon="-5.163665">
        <ele>572.5</ele>
        <time>1970-01-01T00:00:00Z</time>
      </trkpt>
      <trkpt lat="39.467221" lon="-5.163665">
        <ele>572.5</ele>
        <time>1970-01-01T00:00:00Z</time>
      </trkpt>
      <trkpt lat="39.467228" lon="-5.163613">
        <ele>572.4</ele>
        <time>1970-01-01T00:00:00Z</time>
      </trkpt>
      <trkpt lat="39.467228" lon="-5.163613">
        <ele>572.4</ele>
        <time>1970-01-01T00:00:00Z</time>
      </trkpt>
      <trkpt lat="39.467228" lon="-5.163613">
        <ele>572.4</ele>
        <time>1970-01-01T00:00:00Z</time>
      </trkpt>
      <trkpt lat="39.467228" lon="-5.163613">
        <ele>572.4</ele>
        <time>1970-01-01T00:00:00Z</time>
      </trkpt>
      <trkpt lat="39.467235" lon="-5.163549">
        <ele>572.3</ele>
        <time>1970-01-01T00:00:00Z</time>
      </trkpt>
      <trkpt lat="39.467235" lon="-5.163549">
        <ele>572.3</ele>
        <time>1970-01-01T00:00:00Z</time>
      </trkpt>
      <trkpt lat="39.467235" lon="-5.163549">
        <ele>572.3</ele>
        <time>1970-01-01T00:00:00Z</time>
      </trkpt>
      <trkpt lat="39.467235" lon="-5.163549">
        <ele>572.3</ele>
        <time>1970-01-01T00:00:00Z</time>
      </trkpt>
      <trkpt lat="39.467239" lon="-5.163492">
        <ele>572.1</ele>
        <time>1970-01-01T00:00:00Z</time>
      </trkpt>
      <trkpt lat="39.467239" lon="-5.163492">
        <ele>572.1</ele>
        <time>1970-01-01T00:00:00Z</time>
      </trkpt>
      <trkpt lat="39.467239" lon="-5.163492">
        <ele>572.1</ele>
        <time>1970-01-01T00:00:00Z</time>
      </trkpt>
      <trkpt lat="39.467239" lon="-5.163492">
        <ele>572.1</ele>
        <time>1970-01-01T00:00:00Z</time>
      </trkpt>
      <trkpt lat="39.467250" lon="-5.163335">
        <ele>571.2</ele>
        <time>1970-01-01T00:00:00Z</time>
      </trkpt>
      <trkpt lat="39.467250" lon="-5.163335">
        <ele>571.2</ele>
        <time>1970-01-01T00:00:00Z</time>
      </trkpt>
      <trkpt lat="39.467250" lon="-5.163335">
        <ele>571.2</ele>
        <time>1970-01-01T00:00:00Z</time>
      </trkpt>
      <trkpt lat="39.467250" lon="-5.163335">
        <ele>571.2</ele>
        <time>1970-01-01T00:00:00Z</time>
      </trkpt>
      <trkpt lat="39.467248" lon="-5.163252">
        <ele>571.0</ele>
        <time>1970-01-01T00:00:00Z</time>
      </trkpt>
      <trkpt lat="39.467248" lon="-5.163252">
        <ele>571.0</ele>
        <time>1970-01-01T00:00:00Z</time>
      </trkpt>
      <trkpt lat="39.467248" lon="-5.163252">
        <ele>571.0</ele>
        <time>1970-01-01T00:00:00Z</time>
      </trkpt>
      <trkpt lat="39.467248" lon="-5.163252">
        <ele>571.0</ele>
        <time>1970-01-01T00:00:00Z</time>
      </trkpt>
      <trkpt lat="39.467233" lon="-5.163108">
        <ele>571.3</ele>
        <time>1970-01-01T00:00:00Z</time>
      </trkpt>
      <trkpt lat="39.467233" lon="-5.163108">
        <ele>571.3</ele>
        <time>1970-01-01T00:00:00Z</time>
      </trkpt>
      <trkpt lat="39.467233" lon="-5.163108">
        <ele>571.3</ele>
        <time>1970-01-01T00:00:00Z</time>
      </trkpt>
      <trkpt lat="39.467233" lon="-5.163108">
        <ele>571.3</ele>
        <time>1970-01-01T00:00:00Z</time>
      </trkpt>
      <trkpt lat="39.467195" lon="-5.162911">
        <ele>572.0</ele>
        <time>1970-01-01T00:00:00Z</time>
      </trkpt>
      <trkpt lat="39.467195" lon="-5.162911">
        <ele>572.0</ele>
        <time>1970-01-01T00:00:00Z</time>
      </trkpt>
      <trkpt lat="39.467195" lon="-5.162911">
        <ele>572.0</ele>
        <time>1970-01-01T00:00:00Z</time>
      </trkpt>
      <trkpt lat="39.467195" lon="-5.162911">
        <ele>572.0</ele>
        <time>1970-01-01T00:00:00Z</time>
      </trkpt>
      <trkpt lat="39.467176" lon="-5.162816">
        <ele>572.2</ele>
        <time>1970-01-01T00:00:00Z</time>
      </trkpt>
      <trkpt lat="39.467176" lon="-5.162816">
        <ele>572.2</ele>
        <time>1970-01-01T00:00:00Z</time>
      </trkpt>
      <trkpt lat="39.467176" lon="-5.162816">
        <ele>572.2</ele>
        <time>1970-01-01T00:00:00Z</time>
      </trkpt>
      <trkpt lat="39.467176" lon="-5.162816">
        <ele>572.2</ele>
        <time>1970-01-01T00:00:00Z</time>
      </trkpt>
      <trkpt lat="39.467159" lon="-5.162709">
        <ele>572.8</ele>
        <time>1970-01-01T00:00:00Z</time>
      </trkpt>
      <trkpt lat="39.467159" lon="-5.162709">
        <ele>572.8</ele>
        <time>1970-01-01T00:00:00Z</time>
      </trkpt>
      <trkpt lat="39.467159" lon="-5.162709">
        <ele>572.8</ele>
        <time>1970-01-01T00:00:00Z</time>
      </trkpt>
      <trkpt lat="39.467159" lon="-5.162709">
        <ele>572.8</ele>
        <time>1970-01-01T00:00:00Z</time>
      </trkpt>
      <trkpt lat="39.467158" lon="-5.162647">
        <ele>573.0</ele>
        <time>1970-01-01T00:00:00Z</time>
      </trkpt>
      <trkpt lat="39.467158" lon="-5.162647">
        <ele>573.0</ele>
        <time>1970-01-01T00:00:00Z</time>
      </trkpt>
      <trkpt lat="39.467158" lon="-5.162647">
        <ele>573.0</ele>
        <time>1970-01-01T00:00:00Z</time>
      </trkpt>
      <trkpt lat="39.467158" lon="-5.162647">
        <ele>573.0</ele>
        <time>1970-01-01T00:00:00Z</time>
      </trkpt>
      <trkpt lat="39.467157" lon="-5.162596">
        <ele>573.1</ele>
        <time>1970-01-01T00:00:00Z</time>
      </trkpt>
      <trkpt lat="39.467157" lon="-5.162596">
        <ele>573.1</ele>
        <time>1970-01-01T00:00:00Z</time>
      </trkpt>
      <trkpt lat="39.467157" lon="-5.162596">
        <ele>573.1</ele>
        <time>1970-01-01T00:00:00Z</time>
      </trkpt>
      <trkpt lat="39.467157" lon="-5.162596">
        <ele>573.1</ele>
        <time>1970-01-01T00:00:00Z</time>
      </trkpt>
      <trkpt lat="39.467158" lon="-5.162547">
        <ele>573.5</ele>
        <time>1970-01-01T00:00:00Z</time>
      </trkpt>
      <trkpt lat="39.467158" lon="-5.162547">
        <ele>573.5</ele>
        <time>1970-01-01T00:00:00Z</time>
      </trkpt>
      <trkpt lat="39.467158" lon="-5.162547">
        <ele>573.5</ele>
        <time>1970-01-01T00:00:00Z</time>
      </trkpt>
      <trkpt lat="39.467158" lon="-5.162547">
        <ele>573.5</ele>
        <time>1970-01-01T00:00:00Z</time>
      </trkpt>
      <trkpt lat="39.467161" lon="-5.162446">
        <ele>574.4</ele>
        <time>1970-01-01T00:00:00Z</time>
      </trkpt>
      <trkpt lat="39.467161" lon="-5.162446">
        <ele>574.4</ele>
        <time>1970-01-01T00:00:00Z</time>
      </trkpt>
      <trkpt lat="39.467161" lon="-5.162446">
        <ele>574.4</ele>
        <time>1970-01-01T00:00:00Z</time>
      </trkpt>
      <trkpt lat="39.467161" lon="-5.162446">
        <ele>574.4</ele>
        <time>1970-01-01T00:00:00Z</time>
      </trkpt>
      <trkpt lat="39.467166" lon="-5.162376">
        <ele>574.9</ele>
        <time>1970-01-01T00:00:00Z</time>
      </trkpt>
      <trkpt lat="39.467166" lon="-5.162376">
        <ele>574.9</ele>
        <time>1970-01-01T00:00:00Z</time>
      </trkpt>
      <trkpt lat="39.467166" lon="-5.162376">
        <ele>574.9</ele>
        <time>1970-01-01T00:00:00Z</time>
      </trkpt>
      <trkpt lat="39.467166" lon="-5.162376">
        <ele>574.9</ele>
        <time>1970-01-01T00:00:00Z</time>
      </trkpt>
      <trkpt lat="39.467169" lon="-5.162343">
        <ele>575.1</ele>
        <time>1970-01-01T00:00:00Z</time>
      </trkpt>
      <trkpt lat="39.467169" lon="-5.162343">
        <ele>575.1</ele>
        <time>1970-01-01T00:00:00Z</time>
      </trkpt>
      <trkpt lat="39.467169" lon="-5.162343">
        <ele>575.1</ele>
        <time>1970-01-01T00:00:00Z</time>
      </trkpt>
      <trkpt lat="39.467169" lon="-5.162343">
        <ele>575.1</ele>
        <time>1970-01-01T00:00:00Z</time>
      </trkpt>
      <trkpt lat="39.467183" lon="-5.162276">
        <ele>575.4</ele>
        <time>1970-01-01T00:00:00Z</time>
      </trkpt>
      <trkpt lat="39.467183" lon="-5.162276">
        <ele>575.4</ele>
        <time>1970-01-01T00:00:00Z</time>
      </trkpt>
      <trkpt lat="39.467183" lon="-5.162276">
        <ele>575.4</ele>
        <time>1970-01-01T00:00:00Z</time>
      </trkpt>
      <trkpt lat="39.467183" lon="-5.162276">
        <ele>575.4</ele>
        <time>1970-01-01T00:00:00Z</time>
      </trkpt>
      <trkpt lat="39.467191" lon="-5.162236">
        <ele>575.7</ele>
        <time>1970-01-01T00:00:00Z</time>
      </trkpt>
      <trkpt lat="39.467191" lon="-5.162236">
        <ele>575.7</ele>
        <time>1970-01-01T00:00:00Z</time>
      </trkpt>
      <trkpt lat="39.467191" lon="-5.162236">
        <ele>575.7</ele>
        <time>1970-01-01T00:00:00Z</time>
      </trkpt>
      <trkpt lat="39.467191" lon="-5.162236">
        <ele>575.7</ele>
        <time>1970-01-01T00:00:00Z</time>
      </trkpt>
      <trkpt lat="39.467211" lon="-5.162202">
        <ele>575.7</ele>
        <time>1970-01-01T00:00:00Z</time>
      </trkpt>
      <trkpt lat="39.467211" lon="-5.162202">
        <ele>575.7</ele>
        <time>1970-01-01T00:00:00Z</time>
      </trkpt>
      <trkpt lat="39.467211" lon="-5.162202">
        <ele>575.7</ele>
        <time>1970-01-01T00:00:00Z</time>
      </trkpt>
      <trkpt lat="39.467211" lon="-5.162202">
        <ele>575.7</ele>
        <time>1970-01-01T00:00:00Z</time>
      </trkpt>
      <trkpt lat="39.467236" lon="-5.162167">
        <ele>575.8</ele>
        <time>1970-01-01T00:00:00Z</time>
      </trkpt>
      <trkpt lat="39.467236" lon="-5.162167">
        <ele>575.8</ele>
        <time>1970-01-01T00:00:00Z</time>
      </trkpt>
      <trkpt lat="39.467236" lon="-5.162167">
        <ele>575.8</ele>
        <time>1970-01-01T00:00:00Z</time>
      </trkpt>
      <trkpt lat="39.467236" lon="-5.162167">
        <ele>575.8</ele>
        <time>1970-01-01T00:00:00Z</time>
      </trkpt>
      <trkpt lat="39.467252" lon="-5.162149">
        <ele>575.7</ele>
        <time>1970-01-01T00:00:00Z</time>
      </trkpt>
      <trkpt lat="39.467252" lon="-5.162149">
        <ele>575.7</ele>
        <time>1970-01-01T00:00:00Z</time>
      </trkpt>
      <trkpt lat="39.467252" lon="-5.162149">
        <ele>575.7</ele>
        <time>1970-01-01T00:00:00Z</time>
      </trkpt>
      <trkpt lat="39.467252" lon="-5.162149">
        <ele>575.7</ele>
        <time>1970-01-01T00:00:00Z</time>
      </trkpt>
      <trkpt lat="39.467264" lon="-5.162140">
        <ele>575.7</ele>
        <time>1970-01-01T00:00:00Z</time>
      </trkpt>
      <trkpt lat="39.467264" lon="-5.162140">
        <ele>575.7</ele>
        <time>1970-01-01T00:00:00Z</time>
      </trkpt>
      <trkpt lat="39.467264" lon="-5.162140">
        <ele>575.7</ele>
        <time>1970-01-01T00:00:00Z</time>
      </trkpt>
      <trkpt lat="39.467264" lon="-5.162140">
        <ele>575.7</ele>
        <time>1970-01-01T00:00:00Z</time>
      </trkpt>
      <trkpt lat="39.467296" lon="-5.162121">
        <ele>575.4</ele>
        <time>1970-01-01T00:00:00Z</time>
      </trkpt>
      <trkpt lat="39.467296" lon="-5.162121">
        <ele>575.4</ele>
        <time>1970-01-01T00:00:00Z</time>
      </trkpt>
      <trkpt lat="39.467296" lon="-5.162121">
        <ele>575.4</ele>
        <time>1970-01-01T00:00:00Z</time>
      </trkpt>
      <trkpt lat="39.467296" lon="-5.162121">
        <ele>575.4</ele>
        <time>1970-01-01T00:00:00Z</time>
      </trkpt>
      <trkpt lat="39.467306" lon="-5.162120">
        <ele>575.3</ele>
        <time>1970-01-01T00:00:00Z</time>
      </trkpt>
      <trkpt lat="39.467306" lon="-5.162120">
        <ele>575.3</ele>
        <time>1970-01-01T00:00:00Z</time>
      </trkpt>
      <trkpt lat="39.467306" lon="-5.162120">
        <ele>575.3</ele>
        <time>1970-01-01T00:00:00Z</time>
      </trkpt>
      <trkpt lat="39.467306" lon="-5.162120">
        <ele>575.3</ele>
        <time>1970-01-01T00:00:00Z</time>
      </trkpt>
      <trkpt lat="39.467324" lon="-5.162114">
        <ele>575.1</ele>
        <time>1970-01-01T00:00:00Z</time>
      </trkpt>
      <trkpt lat="39.467324" lon="-5.162114">
        <ele>575.1</ele>
        <time>1970-01-01T00:00:00Z</time>
      </trkpt>
      <trkpt lat="39.467324" lon="-5.162114">
        <ele>575.1</ele>
        <time>1970-01-01T00:00:00Z</time>
      </trkpt>
      <trkpt lat="39.467324" lon="-5.162114">
        <ele>575.1</ele>
        <time>1970-01-01T00:00:00Z</time>
      </trkpt>
      <trkpt lat="39.467339" lon="-5.162117">
        <ele>574.9</ele>
        <time>1970-01-01T00:00:00Z</time>
      </trkpt>
      <trkpt lat="39.467339" lon="-5.162117">
        <ele>574.9</ele>
        <time>1970-01-01T00:00:00Z</time>
      </trkpt>
      <trkpt lat="39.467339" lon="-5.162117">
        <ele>574.9</ele>
        <time>1970-01-01T00:00:00Z</time>
      </trkpt>
      <trkpt lat="39.467339" lon="-5.162117">
        <ele>574.9</ele>
        <time>1970-01-01T00:00:00Z</time>
      </trkpt>
      <trkpt lat="39.467486" lon="-5.162104">
        <ele>573.1</ele>
        <time>1970-01-01T00:00:00Z</time>
      </trkpt>
      <trkpt lat="39.467486" lon="-5.162104">
        <ele>573.1</ele>
        <time>1970-01-01T00:00:00Z</time>
      </trkpt>
      <trkpt lat="39.467486" lon="-5.162104">
        <ele>573.1</ele>
        <time>1970-01-01T00:00:00Z</time>
      </trkpt>
      <trkpt lat="39.467486" lon="-5.162104">
        <ele>573.1</ele>
        <time>1970-01-01T00:00:00Z</time>
      </trkpt>
      <trkpt lat="39.467534" lon="-5.162100">
        <ele>572.5</ele>
        <time>1970-01-01T00:00:00Z</time>
      </trkpt>
      <trkpt lat="39.467534" lon="-5.162100">
        <ele>572.5</ele>
        <time>1970-01-01T00:00:00Z</time>
      </trkpt>
      <trkpt lat="39.467534" lon="-5.162100">
        <ele>572.5</ele>
        <time>1970-01-01T00:00:00Z</time>
      </trkpt>
      <trkpt lat="39.467534" lon="-5.162100">
        <ele>572.5</ele>
        <time>1970-01-01T00:00:00Z</time>
      </trkpt>
      <trkpt lat="39.467552" lon="-5.162095">
        <ele>572.3</ele>
        <time>1970-01-01T00:00:00Z</time>
      </trkpt>
      <trkpt lat="39.467552" lon="-5.162095">
        <ele>572.3</ele>
        <time>1970-01-01T00:00:00Z</time>
      </trkpt>
      <trkpt lat="39.467552" lon="-5.162095">
        <ele>572.3</ele>
        <time>1970-01-01T00:00:00Z</time>
      </trkpt>
      <trkpt lat="39.467552" lon="-5.162095">
        <ele>572.3</ele>
        <time>1970-01-01T00:00:00Z</time>
      </trkpt>
      <trkpt lat="39.467582" lon="-5.162074">
        <ele>572.1</ele>
        <time>1970-01-01T00:00:00Z</time>
      </trkpt>
      <trkpt lat="39.467582" lon="-5.162074">
        <ele>572.1</ele>
        <time>1970-01-01T00:00:00Z</time>
      </trkpt>
      <trkpt lat="39.467582" lon="-5.162074">
        <ele>572.1</ele>
        <time>1970-01-01T00:00:00Z</time>
      </trkpt>
      <trkpt lat="39.467582" lon="-5.162074">
        <ele>572.1</ele>
        <time>1970-01-01T00:00:00Z</time>
      </trkpt>
      <trkpt lat="39.467603" lon="-5.162043">
        <ele>572.1</ele>
        <time>1970-01-01T00:00:00Z</time>
      </trkpt>
      <trkpt lat="39.467603" lon="-5.162043">
        <ele>572.1</ele>
        <time>1970-01-01T00:00:00Z</time>
      </trkpt>
      <trkpt lat="39.467603" lon="-5.162043">
        <ele>572.1</ele>
        <time>1970-01-01T00:00:00Z</time>
      </trkpt>
      <trkpt lat="39.467603" lon="-5.162043">
        <ele>572.1</ele>
        <time>1970-01-01T00:00:00Z</time>
      </trkpt>
      <trkpt lat="39.467638" lon="-5.161995">
        <ele>572.1</ele>
        <time>1970-01-01T00:00:00Z</time>
      </trkpt>
      <trkpt lat="39.467638" lon="-5.161995">
        <ele>572.1</ele>
        <time>1970-01-01T00:00:00Z</time>
      </trkpt>
      <trkpt lat="39.467638" lon="-5.161995">
        <ele>572.1</ele>
        <time>1970-01-01T00:00:00Z</time>
      </trkpt>
      <trkpt lat="39.467638" lon="-5.161995">
        <ele>572.1</ele>
        <time>1970-01-01T00:00:00Z</time>
      </trkpt>
      <trkpt lat="39.467696" lon="-5.161910">
        <ele>572.1</ele>
        <time>1970-01-01T00:00:00Z</time>
      </trkpt>
      <trkpt lat="39.467696" lon="-5.161910">
        <ele>572.1</ele>
        <time>1970-01-01T00:00:00Z</time>
      </trkpt>
      <trkpt lat="39.467696" lon="-5.161910">
        <ele>572.1</ele>
        <time>1970-01-01T00:00:00Z</time>
      </trkpt>
      <trkpt lat="39.467696" lon="-5.161910">
        <ele>572.1</ele>
        <time>1970-01-01T00:00:00Z</time>
      </trkpt>
      <trkpt lat="39.467720" lon="-5.161886">
        <ele>571.9</ele>
        <time>1970-01-01T00:00:00Z</time>
      </trkpt>
      <trkpt lat="39.467720" lon="-5.161886">
        <ele>571.9</ele>
        <time>1970-01-01T00:00:00Z</time>
      </trkpt>
      <trkpt lat="39.467720" lon="-5.161886">
        <ele>571.9</ele>
        <time>1970-01-01T00:00:00Z</time>
      </trkpt>
      <trkpt lat="39.467720" lon="-5.161886">
        <ele>571.9</ele>
        <time>1970-01-01T00:00:00Z</time>
      </trkpt>
      <trkpt lat="39.467749" lon="-5.161858">
        <ele>571.5</ele>
        <time>1970-01-01T00:00:00Z</time>
      </trkpt>
      <trkpt lat="39.467749" lon="-5.161858">
        <ele>571.5</ele>
        <time>1970-01-01T00:00:00Z</time>
      </trkpt>
      <trkpt lat="39.467749" lon="-5.161858">
        <ele>571.5</ele>
        <time>1970-01-01T00:00:00Z</time>
      </trkpt>
      <trkpt lat="39.467749" lon="-5.161858">
        <ele>571.5</ele>
        <time>1970-01-01T00:00:00Z</time>
      </trkpt>
      <trkpt lat="39.467777" lon="-5.161833">
        <ele>571.2</ele>
        <time>1970-01-01T00:00:00Z</time>
      </trkpt>
      <trkpt lat="39.467777" lon="-5.161833">
        <ele>571.2</ele>
        <time>1970-01-01T00:00:00Z</time>
      </trkpt>
      <trkpt lat="39.467777" lon="-5.161833">
        <ele>571.2</ele>
        <time>1970-01-01T00:00:00Z</time>
      </trkpt>
      <trkpt lat="39.467777" lon="-5.161833">
        <ele>571.2</ele>
        <time>1970-01-01T00:00:00Z</time>
      </trkpt>
      <trkpt lat="39.467803" lon="-5.161787">
        <ele>571.0</ele>
        <time>1970-01-01T00:00:00Z</time>
      </trkpt>
      <trkpt lat="39.467803" lon="-5.161787">
        <ele>571.0</ele>
        <time>1970-01-01T00:00:00Z</time>
      </trkpt>
      <trkpt lat="39.467803" lon="-5.161787">
        <ele>571.0</ele>
        <time>1970-01-01T00:00:00Z</time>
      </trkpt>
      <trkpt lat="39.467803" lon="-5.161787">
        <ele>571.0</ele>
        <time>1970-01-01T00:00:00Z</time>
      </trkpt>
      <trkpt lat="39.467849" lon="-5.161664">
        <ele>571.2</ele>
        <time>1970-01-01T00:00:00Z</time>
      </trkpt>
      <trkpt lat="39.467849" lon="-5.161664">
        <ele>571.2</ele>
        <time>1970-01-01T00:00:00Z</time>
      </trkpt>
      <trkpt lat="39.467849" lon="-5.161664">
        <ele>571.2</ele>
        <time>1970-01-01T00:00:00Z</time>
      </trkpt>
      <trkpt lat="39.467849" lon="-5.161664">
        <ele>571.2</ele>
        <time>1970-01-01T00:00:00Z</time>
      </trkpt>
      <trkpt lat="39.467865" lon="-5.161594">
        <ele>571.8</ele>
        <time>1970-01-01T00:00:00Z</time>
      </trkpt>
      <trkpt lat="39.467865" lon="-5.161594">
        <ele>571.8</ele>
        <time>1970-01-01T00:00:00Z</time>
      </trkpt>
      <trkpt lat="39.467865" lon="-5.161594">
        <ele>571.8</ele>
        <time>1970-01-01T00:00:00Z</time>
      </trkpt>
      <trkpt lat="39.467865" lon="-5.161594">
        <ele>571.8</ele>
        <time>1970-01-01T00:00:00Z</time>
      </trkpt>
      <trkpt lat="39.467912" lon="-5.161450">
        <ele>573.0</ele>
        <time>1970-01-01T00:00:00Z</time>
      </trkpt>
      <trkpt lat="39.467912" lon="-5.161450">
        <ele>573.0</ele>
        <time>1970-01-01T00:00:00Z</time>
      </trkpt>
      <trkpt lat="39.467912" lon="-5.161450">
        <ele>573.0</ele>
        <time>1970-01-01T00:00:00Z</time>
      </trkpt>
      <trkpt lat="39.467912" lon="-5.161450">
        <ele>573.0</ele>
        <time>1970-01-01T00:00:00Z</time>
      </trkpt>
      <trkpt lat="39.467937" lon="-5.161372">
        <ele>573.8</ele>
        <time>1970-01-01T00:00:00Z</time>
      </trkpt>
      <trkpt lat="39.467937" lon="-5.161372">
        <ele>573.8</ele>
        <time>1970-01-01T00:00:00Z</time>
      </trkpt>
      <trkpt lat="39.467937" lon="-5.161372">
        <ele>573.8</ele>
        <time>1970-01-01T00:00:00Z</time>
      </trkpt>
      <trkpt lat="39.467937" lon="-5.161372">
        <ele>573.8</ele>
        <time>1970-01-01T00:00:00Z</time>
      </trkpt>
      <trkpt lat="39.467970" lon="-5.161295">
        <ele>574.5</ele>
        <time>1970-01-01T00:00:00Z</time>
      </trkpt>
      <trkpt lat="39.467970" lon="-5.161295">
        <ele>574.5</ele>
        <time>1970-01-01T00:00:00Z</time>
      </trkpt>
      <trkpt lat="39.467970" lon="-5.161295">
        <ele>574.5</ele>
        <time>1970-01-01T00:00:00Z</time>
      </trkpt>
      <trkpt lat="39.467970" lon="-5.161295">
        <ele>574.5</ele>
        <time>1970-01-01T00:00:00Z</time>
      </trkpt>
      <trkpt lat="39.468003" lon="-5.161248">
        <ele>574.9</ele>
        <time>1970-01-01T00:00:00Z</time>
      </trkpt>
      <trkpt lat="39.468003" lon="-5.161248">
        <ele>574.9</ele>
        <time>1970-01-01T00:00:00Z</time>
      </trkpt>
      <trkpt lat="39.468003" lon="-5.161248">
        <ele>574.9</ele>
        <time>1970-01-01T00:00:00Z</time>
      </trkpt>
      <trkpt lat="39.468003" lon="-5.161248">
        <ele>574.9</ele>
        <time>1970-01-01T00:00:00Z</time>
      </trkpt>
      <trkpt lat="39.468123" lon="-5.161097">
        <ele>576.2</ele>
        <time>1970-01-01T00:00:00Z</time>
      </trkpt>
      <trkpt lat="39.468123" lon="-5.161097">
        <ele>576.2</ele>
        <time>1970-01-01T00:00:00Z</time>
      </trkpt>
      <trkpt lat="39.468123" lon="-5.161097">
        <ele>576.2</ele>
        <time>1970-01-01T00:00:00Z</time>
      </trkpt>
      <trkpt lat="39.468123" lon="-5.161097">
        <ele>576.2</ele>
        <time>1970-01-01T00:00:00Z</time>
      </trkpt>
      <trkpt lat="39.468222" lon="-5.161008">
        <ele>577.0</ele>
        <time>1970-01-01T00:00:00Z</time>
      </trkpt>
      <trkpt lat="39.468222" lon="-5.161008">
        <ele>577.0</ele>
        <time>1970-01-01T00:00:00Z</time>
      </trkpt>
      <trkpt lat="39.468222" lon="-5.161008">
        <ele>577.0</ele>
        <time>1970-01-01T00:00:00Z</time>
      </trkpt>
      <trkpt lat="39.468222" lon="-5.161008">
        <ele>577.0</ele>
        <time>1970-01-01T00:00:00Z</time>
      </trkpt>
      <trkpt lat="39.468248" lon="-5.160959">
        <ele>577.5</ele>
        <time>1970-01-01T00:00:00Z</time>
      </trkpt>
      <trkpt lat="39.468248" lon="-5.160959">
        <ele>577.5</ele>
        <time>1970-01-01T00:00:00Z</time>
      </trkpt>
      <trkpt lat="39.468248" lon="-5.160959">
        <ele>577.5</ele>
        <time>1970-01-01T00:00:00Z</time>
      </trkpt>
      <trkpt lat="39.468248" lon="-5.160959">
        <ele>577.5</ele>
        <time>1970-01-01T00:00:00Z</time>
      </trkpt>
      <trkpt lat="39.468277" lon="-5.160891">
        <ele>578.3</ele>
        <time>1970-01-01T00:00:00Z</time>
      </trkpt>
      <trkpt lat="39.468277" lon="-5.160891">
        <ele>578.3</ele>
        <time>1970-01-01T00:00:00Z</time>
      </trkpt>
      <trkpt lat="39.468277" lon="-5.160891">
        <ele>578.3</ele>
        <time>1970-01-01T00:00:00Z</time>
      </trkpt>
      <trkpt lat="39.468277" lon="-5.160891">
        <ele>578.3</ele>
        <time>1970-01-01T00:00:00Z</time>
      </trkpt>
      <trkpt lat="39.468294" lon="-5.160826">
        <ele>579.1</ele>
        <time>1970-01-01T00:00:00Z</time>
      </trkpt>
      <trkpt lat="39.468294" lon="-5.160826">
        <ele>579.1</ele>
        <time>1970-01-01T00:00:00Z</time>
      </trkpt>
      <trkpt lat="39.468294" lon="-5.160826">
        <ele>579.1</ele>
        <time>1970-01-01T00:00:00Z</time>
      </trkpt>
      <trkpt lat="39.468294" lon="-5.160826">
        <ele>579.1</ele>
        <time>1970-01-01T00:00:00Z</time>
      </trkpt>
      <trkpt lat="39.468398" lon="-5.160706">
        <ele>580.5</ele>
        <time>1970-01-01T00:00:00Z</time>
      </trkpt>
      <trkpt lat="39.468398" lon="-5.160706">
        <ele>580.5</ele>
        <time>1970-01-01T00:00:00Z</time>
      </trkpt>
      <trkpt lat="39.468398" lon="-5.160706">
        <ele>580.5</ele>
        <time>1970-01-01T00:00:00Z</time>
      </trkpt>
      <trkpt lat="39.468398" lon="-5.160706">
        <ele>580.5</ele>
        <time>1970-01-01T00:00:00Z</time>
      </trkpt>
      <trkpt lat="39.468585" lon="-5.160562">
        <ele>581.7</ele>
        <time>1970-01-01T00:00:00Z</time>
      </trkpt>
      <trkpt lat="39.468585" lon="-5.160562">
        <ele>581.7</ele>
        <time>1970-01-01T00:00:00Z</time>
      </trkpt>
      <trkpt lat="39.468585" lon="-5.160562">
        <ele>581.7</ele>
        <time>1970-01-01T00:00:00Z</time>
      </trkpt>
      <trkpt lat="39.468585" lon="-5.160562">
        <ele>581.7</ele>
        <time>1970-01-01T00:00:00Z</time>
      </trkpt>
      <trkpt lat="39.468762" lon="-5.160475">
        <ele>583.1</ele>
        <time>1970-01-01T00:00:00Z</time>
      </trkpt>
      <trkpt lat="39.468762" lon="-5.160475">
        <ele>583.1</ele>
        <time>1970-01-01T00:00:00Z</time>
      </trkpt>
      <trkpt lat="39.468762" lon="-5.160475">
        <ele>583.1</ele>
        <time>1970-01-01T00:00:00Z</time>
      </trkpt>
      <trkpt lat="39.468762" lon="-5.160475">
        <ele>583.1</ele>
        <time>1970-01-01T00:00:00Z</time>
      </trkpt>
      <trkpt lat="39.468938" lon="-5.160420">
        <ele>584.4</ele>
        <time>1970-01-01T00:00:00Z</time>
      </trkpt>
      <trkpt lat="39.468938" lon="-5.160420">
        <ele>584.4</ele>
        <time>1970-01-01T00:00:00Z</time>
      </trkpt>
      <trkpt lat="39.468938" lon="-5.160420">
        <ele>584.4</ele>
        <time>1970-01-01T00:00:00Z</time>
      </trkpt>
      <trkpt lat="39.468938" lon="-5.160420">
        <ele>584.4</ele>
        <time>1970-01-01T00:00:00Z</time>
      </trkpt>
      <trkpt lat="39.468980" lon="-5.160403">
        <ele>584.8</ele>
        <time>1970-01-01T00:00:00Z</time>
      </trkpt>
      <trkpt lat="39.468980" lon="-5.160403">
        <ele>584.8</ele>
        <time>1970-01-01T00:00:00Z</time>
      </trkpt>
      <trkpt lat="39.468980" lon="-5.160403">
        <ele>584.8</ele>
        <time>1970-01-01T00:00:00Z</time>
      </trkpt>
      <trkpt lat="39.468980" lon="-5.160403">
        <ele>584.8</ele>
        <time>1970-01-01T00:00:00Z</time>
      </trkpt>
      <trkpt lat="39.469152" lon="-5.160395">
        <ele>585.5</ele>
        <time>1970-01-01T00:00:00Z</time>
      </trkpt>
      <trkpt lat="39.469152" lon="-5.160395">
        <ele>585.5</ele>
        <time>1970-01-01T00:00:00Z</time>
      </trkpt>
      <trkpt lat="39.469152" lon="-5.160395">
        <ele>585.5</ele>
        <time>1970-01-01T00:00:00Z</time>
      </trkpt>
      <trkpt lat="39.469152" lon="-5.160395">
        <ele>585.5</ele>
        <time>1970-01-01T00:00:00Z</time>
      </trkpt>
      <trkpt lat="39.469299" lon="-5.160404">
        <ele>585.3</ele>
        <time>1970-01-01T00:00:00Z</time>
      </trkpt>
      <trkpt lat="39.469299" lon="-5.160404">
        <ele>585.3</ele>
        <time>1970-01-01T00:00:00Z</time>
      </trkpt>
      <trkpt lat="39.469299" lon="-5.160404">
        <ele>585.3</ele>
        <time>1970-01-01T00:00:00Z</time>
      </trkpt>
      <trkpt lat="39.469299" lon="-5.160404">
        <ele>585.3</ele>
        <time>1970-01-01T00:00:00Z</time>
      </trkpt>
      <trkpt lat="39.469676" lon="-5.160460">
        <ele>585.7</ele>
        <time>1970-01-01T00:00:00Z</time>
      </trkpt>
      <trkpt lat="39.469676" lon="-5.160460">
        <ele>585.7</ele>
        <time>1970-01-01T00:00:00Z</time>
      </trkpt>
      <trkpt lat="39.469676" lon="-5.160460">
        <ele>585.7</ele>
        <time>1970-01-01T00:00:00Z</time>
      </trkpt>
      <trkpt lat="39.469676" lon="-5.160460">
        <ele>585.7</ele>
        <time>1970-01-01T00:00:00Z</time>
      </trkpt>
      <trkpt lat="39.469717" lon="-5.160455">
        <ele>585.6</ele>
        <time>1970-01-01T00:00:00Z</time>
      </trkpt>
      <trkpt lat="39.469717" lon="-5.160455">
        <ele>585.6</ele>
        <time>1970-01-01T00:00:00Z</time>
      </trkpt>
      <trkpt lat="39.469717" lon="-5.160455">
        <ele>585.6</ele>
        <time>1970-01-01T00:00:00Z</time>
      </trkpt>
      <trkpt lat="39.469717" lon="-5.160455">
        <ele>585.6</ele>
        <time>1970-01-01T00:00:00Z</time>
      </trkpt>
      <trkpt lat="39.469782" lon="-5.160432">
        <ele>585.4</ele>
        <time>1970-01-01T00:00:00Z</time>
      </trkpt>
      <trkpt lat="39.469782" lon="-5.160432">
        <ele>585.4</ele>
        <time>1970-01-01T00:00:00Z</time>
      </trkpt>
      <trkpt lat="39.469782" lon="-5.160432">
        <ele>585.4</ele>
        <time>1970-01-01T00:00:00Z</time>
      </trkpt>
      <trkpt lat="39.469782" lon="-5.160432">
        <ele>585.4</ele>
        <time>1970-01-01T00:00:00Z</time>
      </trkpt>
      <trkpt lat="39.469836" lon="-5.160402">
        <ele>585.1</ele>
        <time>1970-01-01T00:00:00Z</time>
      </trkpt>
      <trkpt lat="39.469836" lon="-5.160402">
        <ele>585.1</ele>
        <time>1970-01-01T00:00:00Z</time>
      </trkpt>
      <trkpt lat="39.469836" lon="-5.160402">
        <ele>585.1</ele>
        <time>1970-01-01T00:00:00Z</time>
      </trkpt>
      <trkpt lat="39.469836" lon="-5.160402">
        <ele>585.1</ele>
        <time>1970-01-01T00:00:00Z</time>
      </trkpt>
      <trkpt lat="39.469872" lon="-5.160368">
        <ele>584.9</ele>
        <time>1970-01-01T00:00:00Z</time>
      </trkpt>
      <trkpt lat="39.469872" lon="-5.160368">
        <ele>584.9</ele>
        <time>1970-01-01T00:00:00Z</time>
      </trkpt>
      <trkpt lat="39.469872" lon="-5.160368">
        <ele>584.9</ele>
        <time>1970-01-01T00:00:00Z</time>
      </trkpt>
      <trkpt lat="39.469872" lon="-5.160368">
        <ele>584.9</ele>
        <time>1970-01-01T00:00:00Z</time>
      </trkpt>
      <trkpt lat="39.469910" lon="-5.160338">
        <ele>584.7</ele>
        <time>1970-01-01T00:00:00Z</time>
      </trkpt>
      <trkpt lat="39.469910" lon="-5.160338">
        <ele>584.7</ele>
        <time>1970-01-01T00:00:00Z</time>
      </trkpt>
      <trkpt lat="39.469910" lon="-5.160338">
        <ele>584.7</ele>
        <time>1970-01-01T00:00:00Z</time>
      </trkpt>
      <trkpt lat="39.469910" lon="-5.160338">
        <ele>584.7</ele>
        <time>1970-01-01T00:00:00Z</time>
      </trkpt>
      <trkpt lat="39.469932" lon="-5.160305">
        <ele>584.7</ele>
        <time>1970-01-01T00:00:00Z</time>
      </trkpt>
      <trkpt lat="39.469932" lon="-5.160305">
        <ele>584.7</ele>
        <time>1970-01-01T00:00:00Z</time>
      </trkpt>
      <trkpt lat="39.469932" lon="-5.160305">
        <ele>584.7</ele>
        <time>1970-01-01T00:00:00Z</time>
      </trkpt>
      <trkpt lat="39.469932" lon="-5.160305">
        <ele>584.7</ele>
        <time>1970-01-01T00:00:00Z</time>
      </trkpt>
      <trkpt lat="39.469955" lon="-5.160273">
        <ele>584.6</ele>
        <time>1970-01-01T00:00:00Z</time>
      </trkpt>
      <trkpt lat="39.469955" lon="-5.160273">
        <ele>584.6</ele>
        <time>1970-01-01T00:00:00Z</time>
      </trkpt>
      <trkpt lat="39.469955" lon="-5.160273">
        <ele>584.6</ele>
        <time>1970-01-01T00:00:00Z</time>
      </trkpt>
      <trkpt lat="39.469955" lon="-5.160273">
        <ele>584.6</ele>
        <time>1970-01-01T00:00:00Z</time>
      </trkpt>
      <trkpt lat="39.469970" lon="-5.160229">
        <ele>584.7</ele>
        <time>1970-01-01T00:00:00Z</time>
      </trkpt>
      <trkpt lat="39.469970" lon="-5.160229">
        <ele>584.7</ele>
        <time>1970-01-01T00:00:00Z</time>
      </trkpt>
      <trkpt lat="39.469970" lon="-5.160229">
        <ele>584.7</ele>
        <time>1970-01-01T00:00:00Z</time>
      </trkpt>
      <trkpt lat="39.469970" lon="-5.160229">
        <ele>584.7</ele>
        <time>1970-01-01T00:00:00Z</time>
      </trkpt>
      <trkpt lat="39.469983" lon="-5.160187">
        <ele>584.7</ele>
        <time>1970-01-01T00:00:00Z</time>
      </trkpt>
      <trkpt lat="39.469983" lon="-5.160187">
        <ele>584.7</ele>
        <time>1970-01-01T00:00:00Z</time>
      </trkpt>
      <trkpt lat="39.469983" lon="-5.160187">
        <ele>584.7</ele>
        <time>1970-01-01T00:00:00Z</time>
      </trkpt>
      <trkpt lat="39.469983" lon="-5.160187">
        <ele>584.7</ele>
        <time>1970-01-01T00:00:00Z</time>
      </trkpt>
      <trkpt lat="39.469992" lon="-5.160128">
        <ele>584.9</ele>
        <time>1970-01-01T00:00:00Z</time>
      </trkpt>
      <trkpt lat="39.469992" lon="-5.160128">
        <ele>584.9</ele>
        <time>1970-01-01T00:00:00Z</time>
      </trkpt>
      <trkpt lat="39.469992" lon="-5.160128">
        <ele>584.9</ele>
        <time>1970-01-01T00:00:00Z</time>
      </trkpt>
      <trkpt lat="39.469992" lon="-5.160128">
        <ele>584.9</ele>
        <time>1970-01-01T00:00:00Z</time>
      </trkpt>
      <trkpt lat="39.470000" lon="-5.160054">
        <ele>585.2</ele>
        <time>1970-01-01T00:00:00Z</time>
      </trkpt>
      <trkpt lat="39.470000" lon="-5.160054">
        <ele>585.2</ele>
        <time>1970-01-01T00:00:00Z</time>
      </trkpt>
      <trkpt lat="39.470000" lon="-5.160054">
        <ele>585.2</ele>
        <time>1970-01-01T00:00:00Z</time>
      </trkpt>
      <trkpt lat="39.470000" lon="-5.160054">
        <ele>585.2</ele>
        <time>1970-01-01T00:00:00Z</time>
      </trkpt>
      <trkpt lat="39.470006" lon="-5.160002">
        <ele>585.5</ele>
        <time>1970-01-01T00:00:00Z</time>
      </trkpt>
      <trkpt lat="39.470006" lon="-5.160002">
        <ele>585.5</ele>
        <time>1970-01-01T00:00:00Z</time>
      </trkpt>
      <trkpt lat="39.470006" lon="-5.160002">
        <ele>585.5</ele>
        <time>1970-01-01T00:00:00Z</time>
      </trkpt>
      <trkpt lat="39.470006" lon="-5.160002">
        <ele>585.5</ele>
        <time>1970-01-01T00:00:00Z</time>
      </trkpt>
      <trkpt lat="39.470009" lon="-5.159946">
        <ele>586.0</ele>
        <time>1970-01-01T00:00:00Z</time>
      </trkpt>
      <trkpt lat="39.470009" lon="-5.159946">
        <ele>586.0</ele>
        <time>1970-01-01T00:00:00Z</time>
      </trkpt>
      <trkpt lat="39.470009" lon="-5.159946">
        <ele>586.0</ele>
        <time>1970-01-01T00:00:00Z</time>
      </trkpt>
      <trkpt lat="39.470009" lon="-5.159946">
        <ele>586.0</ele>
        <time>1970-01-01T00:00:00Z</time>
      </trkpt>
      <trkpt lat="39.470014" lon="-5.159881">
        <ele>586.5</ele>
        <time>1970-01-01T00:00:00Z</time>
      </trkpt>
      <trkpt lat="39.470014" lon="-5.159881">
        <ele>586.5</ele>
        <time>1970-01-01T00:00:00Z</time>
      </trkpt>
      <trkpt lat="39.470014" lon="-5.159881">
        <ele>586.5</ele>
        <time>1970-01-01T00:00:00Z</time>
      </trkpt>
      <trkpt lat="39.470014" lon="-5.159881">
        <ele>586.5</ele>
        <time>1970-01-01T00:00:00Z</time>
      </trkpt>
      <trkpt lat="39.470018" lon="-5.159823">
        <ele>587.0</ele>
        <time>1970-01-01T00:00:00Z</time>
      </trkpt>
      <trkpt lat="39.470018" lon="-5.159823">
        <ele>587.0</ele>
        <time>1970-01-01T00:00:00Z</time>
      </trkpt>
      <trkpt lat="39.470018" lon="-5.159823">
        <ele>587.0</ele>
        <time>1970-01-01T00:00:00Z</time>
      </trkpt>
      <trkpt lat="39.470018" lon="-5.159823">
        <ele>587.0</ele>
        <time>1970-01-01T00:00:00Z</time>
      </trkpt>
      <trkpt lat="39.470024" lon="-5.159767">
        <ele>587.6</ele>
        <time>1970-01-01T00:00:00Z</time>
      </trkpt>
      <trkpt lat="39.470024" lon="-5.159767">
        <ele>587.6</ele>
        <time>1970-01-01T00:00:00Z</time>
      </trkpt>
      <trkpt lat="39.470024" lon="-5.159767">
        <ele>587.6</ele>
        <time>1970-01-01T00:00:00Z</time>
      </trkpt>
      <trkpt lat="39.470024" lon="-5.159767">
        <ele>587.6</ele>
        <time>1970-01-01T00:00:00Z</time>
      </trkpt>
      <trkpt lat="39.470028" lon="-5.159714">
        <ele>588.2</ele>
        <time>1970-01-01T00:00:00Z</time>
      </trkpt>
      <trkpt lat="39.470028" lon="-5.159714">
        <ele>588.2</ele>
        <time>1970-01-01T00:00:00Z</time>
      </trkpt>
      <trkpt lat="39.470028" lon="-5.159714">
        <ele>588.2</ele>
        <time>1970-01-01T00:00:00Z</time>
      </trkpt>
      <trkpt lat="39.470028" lon="-5.159714">
        <ele>588.2</ele>
        <time>1970-01-01T00:00:00Z</time>
      </trkpt>
      <trkpt lat="39.470033" lon="-5.159662">
        <ele>588.8</ele>
        <time>1970-01-01T00:00:00Z</time>
      </trkpt>
      <trkpt lat="39.470033" lon="-5.159662">
        <ele>588.8</ele>
        <time>1970-01-01T00:00:00Z</time>
      </trkpt>
      <trkpt lat="39.470033" lon="-5.159662">
        <ele>588.8</ele>
        <time>1970-01-01T00:00:00Z</time>
      </trkpt>
      <trkpt lat="39.470033" lon="-5.159662">
        <ele>588.8</ele>
        <time>1970-01-01T00:00:00Z</time>
      </trkpt>
      <trkpt lat="39.470039" lon="-5.159612">
        <ele>589.4</ele>
        <time>1970-01-01T00:00:00Z</time>
      </trkpt>
      <trkpt lat="39.470039" lon="-5.159612">
        <ele>589.4</ele>
        <time>1970-01-01T00:00:00Z</time>
      </trkpt>
      <trkpt lat="39.470039" lon="-5.159612">
        <ele>589.4</ele>
        <time>1970-01-01T00:00:00Z</time>
      </trkpt>
      <trkpt lat="39.470039" lon="-5.159612">
        <ele>589.4</ele>
        <time>1970-01-01T00:00:00Z</time>
      </trkpt>
      <trkpt lat="39.470044" lon="-5.159484">
        <ele>590.6</ele>
        <time>1970-01-01T00:00:00Z</time>
      </trkpt>
      <trkpt lat="39.470044" lon="-5.159484">
        <ele>590.6</ele>
        <time>1970-01-01T00:00:00Z</time>
      </trkpt>
      <trkpt lat="39.470044" lon="-5.159484">
        <ele>590.6</ele>
        <time>1970-01-01T00:00:00Z</time>
      </trkpt>
      <trkpt lat="39.470044" lon="-5.159484">
        <ele>590.6</ele>
        <time>1970-01-01T00:00:00Z</time>
      </trkpt>
      <trkpt lat="39.470050" lon="-5.159390">
        <ele>591.3</ele>
        <time>1970-01-01T00:00:00Z</time>
      </trkpt>
      <trkpt lat="39.470050" lon="-5.159390">
        <ele>591.3</ele>
        <time>1970-01-01T00:00:00Z</time>
      </trkpt>
      <trkpt lat="39.470050" lon="-5.159390">
        <ele>591.3</ele>
        <time>1970-01-01T00:00:00Z</time>
      </trkpt>
      <trkpt lat="39.470050" lon="-5.159390">
        <ele>591.3</ele>
        <time>1970-01-01T00:00:00Z</time>
      </trkpt>
      <trkpt lat="39.470051" lon="-5.159343">
        <ele>591.7</ele>
        <time>1970-01-01T00:00:00Z</time>
      </trkpt>
      <trkpt lat="39.470051" lon="-5.159343">
        <ele>591.7</ele>
        <time>1970-01-01T00:00:00Z</time>
      </trkpt>
      <trkpt lat="39.470051" lon="-5.159343">
        <ele>591.7</ele>
        <time>1970-01-01T00:00:00Z</time>
      </trkpt>
      <trkpt lat="39.470051" lon="-5.159343">
        <ele>591.7</ele>
        <time>1970-01-01T00:00:00Z</time>
      </trkpt>
      <trkpt lat="39.470055" lon="-5.159284">
        <ele>592.2</ele>
        <time>1970-01-01T00:00:00Z</time>
      </trkpt>
      <trkpt lat="39.470055" lon="-5.159284">
        <ele>592.2</ele>
        <time>1970-01-01T00:00:00Z</time>
      </trkpt>
      <trkpt lat="39.470055" lon="-5.159284">
        <ele>592.2</ele>
        <time>1970-01-01T00:00:00Z</time>
      </trkpt>
      <trkpt lat="39.470055" lon="-5.159284">
        <ele>592.2</ele>
        <time>1970-01-01T00:00:00Z</time>
      </trkpt>
      <trkpt lat="39.470060" lon="-5.159237">
        <ele>592.6</ele>
        <time>1970-01-01T00:00:00Z</time>
      </trkpt>
      <trkpt lat="39.470060" lon="-5.159237">
        <ele>592.6</ele>
        <time>1970-01-01T00:00:00Z</time>
      </trkpt>
      <trkpt lat="39.470060" lon="-5.159237">
        <ele>592.6</ele>
        <time>1970-01-01T00:00:00Z</time>
      </trkpt>
      <trkpt lat="39.470060" lon="-5.159237">
        <ele>592.6</ele>
        <time>1970-01-01T00:00:00Z</time>
      </trkpt>
      <trkpt lat="39.470065" lon="-5.159189">
        <ele>593.0</ele>
        <time>1970-01-01T00:00:00Z</time>
      </trkpt>
      <trkpt lat="39.470065" lon="-5.159189">
        <ele>593.0</ele>
        <time>1970-01-01T00:00:00Z</time>
      </trkpt>
      <trkpt lat="39.470065" lon="-5.159189">
        <ele>593.0</ele>
        <time>1970-01-01T00:00:00Z</time>
      </trkpt>
      <trkpt lat="39.470065" lon="-5.159189">
        <ele>593.0</ele>
        <time>1970-01-01T00:00:00Z</time>
      </trkpt>
      <trkpt lat="39.470085" lon="-5.159084">
        <ele>594.0</ele>
        <time>1970-01-01T00:00:00Z</time>
      </trkpt>
      <trkpt lat="39.470085" lon="-5.159084">
        <ele>594.0</ele>
        <time>1970-01-01T00:00:00Z</time>
      </trkpt>
      <trkpt lat="39.470085" lon="-5.159084">
        <ele>594.0</ele>
        <time>1970-01-01T00:00:00Z</time>
      </trkpt>
      <trkpt lat="39.470085" lon="-5.159084">
        <ele>594.0</ele>
        <time>1970-01-01T00:00:00Z</time>
      </trkpt>
      <trkpt lat="39.470097" lon="-5.159024">
        <ele>594.9</ele>
        <time>1970-01-01T00:00:00Z</time>
      </trkpt>
      <trkpt lat="39.470097" lon="-5.159024">
        <ele>594.9</ele>
        <time>1970-01-01T00:00:00Z</time>
      </trkpt>
      <trkpt lat="39.470097" lon="-5.159024">
        <ele>594.9</ele>
        <time>1970-01-01T00:00:00Z</time>
      </trkpt>
      <trkpt lat="39.470097" lon="-5.159024">
        <ele>594.9</ele>
        <time>1970-01-01T00:00:00Z</time>
      </trkpt>
      <trkpt lat="39.470104" lon="-5.158987">
        <ele>595.4</ele>
        <time>1970-01-01T00:00:00Z</time>
      </trkpt>
      <trkpt lat="39.470104" lon="-5.158987">
        <ele>595.4</ele>
        <time>1970-01-01T00:00:00Z</time>
      </trkpt>
      <trkpt lat="39.470104" lon="-5.158987">
        <ele>595.4</ele>
        <time>1970-01-01T00:00:00Z</time>
      </trkpt>
      <trkpt lat="39.470104" lon="-5.158987">
        <ele>595.4</ele>
        <time>1970-01-01T00:00:00Z</time>
      </trkpt>
      <trkpt lat="39.470113" lon="-5.158946">
        <ele>595.9</ele>
        <time>1970-01-01T00:00:00Z</time>
      </trkpt>
      <trkpt lat="39.470113" lon="-5.158946">
        <ele>595.9</ele>
        <time>1970-01-01T00:00:00Z</time>
      </trkpt>
      <trkpt lat="39.470113" lon="-5.158946">
        <ele>595.9</ele>
        <time>1970-01-01T00:00:00Z</time>
      </trkpt>
      <trkpt lat="39.470113" lon="-5.158946">
        <ele>595.9</ele>
        <time>1970-01-01T00:00:00Z</time>
      </trkpt>
      <trkpt lat="39.470122" lon="-5.158906">
        <ele>596.4</ele>
        <time>1970-01-01T00:00:00Z</time>
      </trkpt>
      <trkpt lat="39.470122" lon="-5.158906">
        <ele>596.4</ele>
        <time>1970-01-01T00:00:00Z</time>
      </trkpt>
      <trkpt lat="39.470122" lon="-5.158906">
        <ele>596.4</ele>
        <time>1970-01-01T00:00:00Z</time>
      </trkpt>
      <trkpt lat="39.470122" lon="-5.158906">
        <ele>596.4</ele>
        <time>1970-01-01T00:00:00Z</time>
      </trkpt>
      <trkpt lat="39.470132" lon="-5.158868">
        <ele>597.0</ele>
        <time>1970-01-01T00:00:00Z</time>
      </trkpt>
      <trkpt lat="39.470132" lon="-5.158868">
        <ele>597.0</ele>
        <time>1970-01-01T00:00:00Z</time>
      </trkpt>
      <trkpt lat="39.470132" lon="-5.158868">
        <ele>597.0</ele>
        <time>1970-01-01T00:00:00Z</time>
      </trkpt>
      <trkpt lat="39.470132" lon="-5.158868">
        <ele>597.0</ele>
        <time>1970-01-01T00:00:00Z</time>
      </trkpt>
      <trkpt lat="39.470142" lon="-5.158824">
        <ele>597.7</ele>
        <time>1970-01-01T00:00:00Z</time>
      </trkpt>
      <trkpt lat="39.470142" lon="-5.158824">
        <ele>597.7</ele>
        <time>1970-01-01T00:00:00Z</time>
      </trkpt>
      <trkpt lat="39.470142" lon="-5.158824">
        <ele>597.7</ele>
        <time>1970-01-01T00:00:00Z</time>
      </trkpt>
      <trkpt lat="39.470142" lon="-5.158824">
        <ele>597.7</ele>
        <time>1970-01-01T00:00:00Z</time>
      </trkpt>
      <trkpt lat="39.470153" lon="-5.158785">
        <ele>598.3</ele>
        <time>1970-01-01T00:00:00Z</time>
      </trkpt>
      <trkpt lat="39.470153" lon="-5.158785">
        <ele>598.3</ele>
        <time>1970-01-01T00:00:00Z</time>
      </trkpt>
      <trkpt lat="39.470153" lon="-5.158785">
        <ele>598.3</ele>
        <time>1970-01-01T00:00:00Z</time>
      </trkpt>
      <trkpt lat="39.470153" lon="-5.158785">
        <ele>598.3</ele>
        <time>1970-01-01T00:00:00Z</time>
      </trkpt>
      <trkpt lat="39.470162" lon="-5.158742">
        <ele>599.0</ele>
        <time>1970-01-01T00:00:00Z</time>
      </trkpt>
      <trkpt lat="39.470162" lon="-5.158742">
        <ele>599.0</ele>
        <time>1970-01-01T00:00:00Z</time>
      </trkpt>
      <trkpt lat="39.470162" lon="-5.158742">
        <ele>599.0</ele>
        <time>1970-01-01T00:00:00Z</time>
      </trkpt>
      <trkpt lat="39.470162" lon="-5.158742">
        <ele>599.0</ele>
        <time>1970-01-01T00:00:00Z</time>
      </trkpt>
      <trkpt lat="39.470179" lon="-5.158689">
        <ele>599.7</ele>
        <time>1970-01-01T00:00:00Z</time>
      </trkpt>
      <trkpt lat="39.470179" lon="-5.158689">
        <ele>599.7</ele>
        <time>1970-01-01T00:00:00Z</time>
      </trkpt>
      <trkpt lat="39.470179" lon="-5.158689">
        <ele>599.7</ele>
        <time>1970-01-01T00:00:00Z</time>
      </trkpt>
      <trkpt lat="39.470179" lon="-5.158689">
        <ele>599.7</ele>
        <time>1970-01-01T00:00:00Z</time>
      </trkpt>
      <trkpt lat="39.470209" lon="-5.158599">
        <ele>601.0</ele>
        <time>1970-01-01T00:00:00Z</time>
      </trkpt>
      <trkpt lat="39.470209" lon="-5.158599">
        <ele>601.0</ele>
        <time>1970-01-01T00:00:00Z</time>
      </trkpt>
      <trkpt lat="39.470209" lon="-5.158599">
        <ele>601.0</ele>
        <time>1970-01-01T00:00:00Z</time>
      </trkpt>
      <trkpt lat="39.470209" lon="-5.158599">
        <ele>601.0</ele>
        <time>1970-01-01T00:00:00Z</time>
      </trkpt>
      <trkpt lat="39.470219" lon="-5.158561">
        <ele>601.7</ele>
        <time>1970-01-01T00:00:00Z</time>
      </trkpt>
      <trkpt lat="39.470219" lon="-5.158561">
        <ele>601.7</ele>
        <time>1970-01-01T00:00:00Z</time>
      </trkpt>
      <trkpt lat="39.470219" lon="-5.158561">
        <ele>601.7</ele>
        <time>1970-01-01T00:00:00Z</time>
      </trkpt>
      <trkpt lat="39.470219" lon="-5.158561">
        <ele>601.7</ele>
        <time>1970-01-01T00:00:00Z</time>
      </trkpt>
      <trkpt lat="39.470241" lon="-5.158488">
        <ele>602.9</ele>
        <time>1970-01-01T00:00:00Z</time>
      </trkpt>
      <trkpt lat="39.470241" lon="-5.158488">
        <ele>602.9</ele>
        <time>1970-01-01T00:00:00Z</time>
      </trkpt>
      <trkpt lat="39.470241" lon="-5.158488">
        <ele>602.9</ele>
        <time>1970-01-01T00:00:00Z</time>
      </trkpt>
      <trkpt lat="39.470241" lon="-5.158488">
        <ele>602.9</ele>
        <time>1970-01-01T00:00:00Z</time>
      </trkpt>
      <trkpt lat="39.470250" lon="-5.158452">
        <ele>603.5</ele>
        <time>1970-01-01T00:00:00Z</time>
      </trkpt>
      <trkpt lat="39.470250" lon="-5.158452">
        <ele>603.5</ele>
        <time>1970-01-01T00:00:00Z</time>
      </trkpt>
      <trkpt lat="39.470250" lon="-5.158452">
        <ele>603.5</ele>
        <time>1970-01-01T00:00:00Z</time>
      </trkpt>
      <trkpt lat="39.470250" lon="-5.158452">
        <ele>603.5</ele>
        <time>1970-01-01T00:00:00Z</time>
      </trkpt>
      <trkpt lat="39.470258" lon="-5.158408">
        <ele>604.2</ele>
        <time>1970-01-01T00:00:00Z</time>
      </trkpt>
      <trkpt lat="39.470258" lon="-5.158408">
        <ele>604.2</ele>
        <time>1970-01-01T00:00:00Z</time>
      </trkpt>
      <trkpt lat="39.470258" lon="-5.158408">
        <ele>604.2</ele>
        <time>1970-01-01T00:00:00Z</time>
      </trkpt>
      <trkpt lat="39.470258" lon="-5.158408">
        <ele>604.2</ele>
        <time>1970-01-01T00:00:00Z</time>
      </trkpt>
      <trkpt lat="39.470277" lon="-5.158362">
        <ele>604.8</ele>
        <time>1970-01-01T00:00:00Z</time>
      </trkpt>
      <trkpt lat="39.470277" lon="-5.158362">
        <ele>604.8</ele>
        <time>1970-01-01T00:00:00Z</time>
      </trkpt>
      <trkpt lat="39.470277" lon="-5.158362">
        <ele>604.8</ele>
        <time>1970-01-01T00:00:00Z</time>
      </trkpt>
      <trkpt lat="39.470277" lon="-5.158362">
        <ele>604.8</ele>
        <time>1970-01-01T00:00:00Z</time>
      </trkpt>
      <trkpt lat="39.470303" lon="-5.158327">
        <ele>605.0</ele>
        <time>1970-01-01T00:00:00Z</time>
      </trkpt>
      <trkpt lat="39.470303" lon="-5.158327">
        <ele>605.0</ele>
        <time>1970-01-01T00:00:00Z</time>
      </trkpt>
      <trkpt lat="39.470303" lon="-5.158327">
        <ele>605.0</ele>
        <time>1970-01-01T00:00:00Z</time>
      </trkpt>
      <trkpt lat="39.470303" lon="-5.158327">
        <ele>605.0</ele>
        <time>1970-01-01T00:00:00Z</time>
      </trkpt>
      <trkpt lat="39.470335" lon="-5.158313">
        <ele>604.7</ele>
        <time>1970-01-01T00:00:00Z</time>
      </trkpt>
      <trkpt lat="39.470335" lon="-5.158313">
        <ele>604.7</ele>
        <time>1970-01-01T00:00:00Z</time>
      </trkpt>
      <trkpt lat="39.470335" lon="-5.158313">
        <ele>604.7</ele>
        <time>1970-01-01T00:00:00Z</time>
      </trkpt>
      <trkpt lat="39.470335" lon="-5.158313">
        <ele>604.7</ele>
        <time>1970-01-01T00:00:00Z</time>
      </trkpt>
      <trkpt lat="39.470363" lon="-5.158302">
        <ele>604.5</ele>
        <time>1970-01-01T00:00:00Z</time>
      </trkpt>
      <trkpt lat="39.470363" lon="-5.158302">
        <ele>604.5</ele>
        <time>1970-01-01T00:00:00Z</time>
      </trkpt>
      <trkpt lat="39.470363" lon="-5.158302">
        <ele>604.5</ele>
        <time>1970-01-01T00:00:00Z</time>
      </trkpt>
      <trkpt lat="39.470363" lon="-5.158302">
        <ele>604.5</ele>
        <time>1970-01-01T00:00:00Z</time>
      </trkpt>
      <trkpt lat="39.470398" lon="-5.158291">
        <ele>604.1</ele>
        <time>1970-01-01T00:00:00Z</time>
      </trkpt>
      <trkpt lat="39.470398" lon="-5.158291">
        <ele>604.1</ele>
        <time>1970-01-01T00:00:00Z</time>
      </trkpt>
      <trkpt lat="39.470398" lon="-5.158291">
        <ele>604.1</ele>
        <time>1970-01-01T00:00:00Z</time>
      </trkpt>
      <trkpt lat="39.470398" lon="-5.158291">
        <ele>604.1</ele>
        <time>1970-01-01T00:00:00Z</time>
      </trkpt>
      <trkpt lat="39.470436" lon="-5.158277">
        <ele>603.7</ele>
        <time>1970-01-01T00:00:00Z</time>
      </trkpt>
      <trkpt lat="39.470436" lon="-5.158277">
        <ele>603.7</ele>
        <time>1970-01-01T00:00:00Z</time>
      </trkpt>
      <trkpt lat="39.470436" lon="-5.158277">
        <ele>603.7</ele>
        <time>1970-01-01T00:00:00Z</time>
      </trkpt>
      <trkpt lat="39.470436" lon="-5.158277">
        <ele>603.7</ele>
        <time>1970-01-01T00:00:00Z</time>
      </trkpt>
      <trkpt lat="39.470467" lon="-5.158265">
        <ele>603.4</ele>
        <time>1970-01-01T00:00:00Z</time>
      </trkpt>
      <trkpt lat="39.470467" lon="-5.158265">
        <ele>603.4</ele>
        <time>1970-01-01T00:00:00Z</time>
      </trkpt>
      <trkpt lat="39.470467" lon="-5.158265">
        <ele>603.4</ele>
        <time>1970-01-01T00:00:00Z</time>
      </trkpt>
      <trkpt lat="39.470467" lon="-5.158265">
        <ele>603.4</ele>
        <time>1970-01-01T00:00:00Z</time>
      </trkpt>
      <trkpt lat="39.470581" lon="-5.158207">
        <ele>602.2</ele>
        <time>1970-01-01T00:00:00Z</time>
      </trkpt>
      <trkpt lat="39.470581" lon="-5.158207">
        <ele>602.2</ele>
        <time>1970-01-01T00:00:00Z</time>
      </trkpt>
      <trkpt lat="39.470581" lon="-5.158207">
        <ele>602.2</ele>
        <time>1970-01-01T00:00:00Z</time>
      </trkpt>
      <trkpt lat="39.470581" lon="-5.158207">
        <ele>602.2</ele>
        <time>1970-01-01T00:00:00Z</time>
      </trkpt>
      <trkpt lat="39.470635" lon="-5.158186">
        <ele>601.5</ele>
        <time>1970-01-01T00:00:00Z</time>
      </trkpt>
      <trkpt lat="39.470635" lon="-5.158186">
        <ele>601.5</ele>
        <time>1970-01-01T00:00:00Z</time>
      </trkpt>
      <trkpt lat="39.470635" lon="-5.158186">
        <ele>601.5</ele>
        <time>1970-01-01T00:00:00Z</time>
      </trkpt>
      <trkpt lat="39.470635" lon="-5.158186">
        <ele>601.5</ele>
        <time>1970-01-01T00:00:00Z</time>
      </trkpt>
      <trkpt lat="39.470681" lon="-5.158152">
        <ele>600.9</ele>
        <time>1970-01-01T00:00:00Z</time>
      </trkpt>
      <trkpt lat="39.470681" lon="-5.158152">
        <ele>600.9</ele>
        <time>1970-01-01T00:00:00Z</time>
      </trkpt>
      <trkpt lat="39.470681" lon="-5.158152">
        <ele>600.9</ele>
        <time>1970-01-01T00:00:00Z</time>
      </trkpt>
      <trkpt lat="39.470681" lon="-5.158152">
        <ele>600.9</ele>
        <time>1970-01-01T00:00:00Z</time>
      </trkpt>
      <trkpt lat="39.470701" lon="-5.158132">
        <ele>600.6</ele>
        <time>1970-01-01T00:00:00Z</time>
      </trkpt>
      <trkpt lat="39.470701" lon="-5.158132">
        <ele>600.6</ele>
        <time>1970-01-01T00:00:00Z</time>
      </trkpt>
      <trkpt lat="39.470701" lon="-5.158132">
        <ele>600.6</ele>
        <time>1970-01-01T00:00:00Z</time>
      </trkpt>
      <trkpt lat="39.470701" lon="-5.158132">
        <ele>600.6</ele>
        <time>1970-01-01T00:00:00Z</time>
      </trkpt>
      <trkpt lat="39.470725" lon="-5.158104">
        <ele>600.2</ele>
        <time>1970-01-01T00:00:00Z</time>
      </trkpt>
      <trkpt lat="39.470725" lon="-5.158104">
        <ele>600.2</ele>
        <time>1970-01-01T00:00:00Z</time>
      </trkpt>
      <trkpt lat="39.470725" lon="-5.158104">
        <ele>600.2</ele>
        <time>1970-01-01T00:00:00Z</time>
      </trkpt>
      <trkpt lat="39.470725" lon="-5.158104">
        <ele>600.2</ele>
        <time>1970-01-01T00:00:00Z</time>
      </trkpt>
      <trkpt lat="39.470766" lon="-5.158044">
        <ele>599.5</ele>
        <time>1970-01-01T00:00:00Z</time>
      </trkpt>
      <trkpt lat="39.470766" lon="-5.158044">
        <ele>599.5</ele>
        <time>1970-01-01T00:00:00Z</time>
      </trkpt>
      <trkpt lat="39.470766" lon="-5.158044">
        <ele>599.5</ele>
        <time>1970-01-01T00:00:00Z</time>
      </trkpt>
      <trkpt lat="39.470766" lon="-5.158044">
        <ele>599.5</ele>
        <time>1970-01-01T00:00:00Z</time>
      </trkpt>
      <trkpt lat="39.470804" lon="-5.157937">
        <ele>598.9</ele>
        <time>1970-01-01T00:00:00Z</time>
      </trkpt>
      <trkpt lat="39.470804" lon="-5.157937">
        <ele>598.9</ele>
        <time>1970-01-01T00:00:00Z</time>
      </trkpt>
      <trkpt lat="39.470804" lon="-5.157937">
        <ele>598.9</ele>
        <time>1970-01-01T00:00:00Z</time>
      </trkpt>
      <trkpt lat="39.470804" lon="-5.157937">
        <ele>598.9</ele>
        <time>1970-01-01T00:00:00Z</time>
      </trkpt>
      <trkpt lat="39.470810" lon="-5.157899">
        <ele>598.8</ele>
        <time>1970-01-01T00:00:00Z</time>
      </trkpt>
      <trkpt lat="39.470810" lon="-5.157899">
        <ele>598.8</ele>
        <time>1970-01-01T00:00:00Z</time>
      </trkpt>
      <trkpt lat="39.470810" lon="-5.157899">
        <ele>598.8</ele>
        <time>1970-01-01T00:00:00Z</time>
      </trkpt>
      <trkpt lat="39.470810" lon="-5.157899">
        <ele>598.8</ele>
        <time>1970-01-01T00:00:00Z</time>
      </trkpt>
      <trkpt lat="39.470811" lon="-5.157865">
        <ele>598.9</ele>
        <time>1970-01-01T00:00:00Z</time>
      </trkpt>
      <trkpt lat="39.470811" lon="-5.157865">
        <ele>598.9</ele>
        <time>1970-01-01T00:00:00Z</time>
      </trkpt>
      <trkpt lat="39.470811" lon="-5.157865">
        <ele>598.9</ele>
        <time>1970-01-01T00:00:00Z</time>
      </trkpt>
      <trkpt lat="39.470811" lon="-5.157865">
        <ele>598.9</ele>
        <time>1970-01-01T00:00:00Z</time>
      </trkpt>
      <trkpt lat="39.470809" lon="-5.157759">
        <ele>599.2</ele>
        <time>1970-01-01T00:00:00Z</time>
      </trkpt>
      <trkpt lat="39.470809" lon="-5.157759">
        <ele>599.2</ele>
        <time>1970-01-01T00:00:00Z</time>
      </trkpt>
      <trkpt lat="39.470809" lon="-5.157759">
        <ele>599.2</ele>
        <time>1970-01-01T00:00:00Z</time>
      </trkpt>
      <trkpt lat="39.470809" lon="-5.157759">
        <ele>599.2</ele>
        <time>1970-01-01T00:00:00Z</time>
      </trkpt>
      <trkpt lat="39.470805" lon="-5.157736">
        <ele>599.4</ele>
        <time>1970-01-01T00:00:00Z</time>
      </trkpt>
      <trkpt lat="39.470805" lon="-5.157736">
        <ele>599.4</ele>
        <time>1970-01-01T00:00:00Z</time>
      </trkpt>
      <trkpt lat="39.470805" lon="-5.157736">
        <ele>599.4</ele>
        <time>1970-01-01T00:00:00Z</time>
      </trkpt>
      <trkpt lat="39.470805" lon="-5.157736">
        <ele>599.4</ele>
        <time>1970-01-01T00:00:00Z</time>
      </trkpt>
      <trkpt lat="39.470792" lon="-5.157676">
        <ele>599.9</ele>
        <time>1970-01-01T00:00:00Z</time>
      </trkpt>
      <trkpt lat="39.470792" lon="-5.157676">
        <ele>599.9</ele>
        <time>1970-01-01T00:00:00Z</time>
      </trkpt>
      <trkpt lat="39.470792" lon="-5.157676">
        <ele>599.9</ele>
        <time>1970-01-01T00:00:00Z</time>
      </trkpt>
      <trkpt lat="39.470792" lon="-5.157676">
        <ele>599.9</ele>
        <time>1970-01-01T00:00:00Z</time>
      </trkpt>
      <trkpt lat="39.470737" lon="-5.157566">
        <ele>602.1</ele>
        <time>1970-01-01T00:00:00Z</time>
      </trkpt>
      <trkpt lat="39.470737" lon="-5.157566">
        <ele>602.1</ele>
        <time>1970-01-01T00:00:00Z</time>
      </trkpt>
      <trkpt lat="39.470737" lon="-5.157566">
        <ele>602.1</ele>
        <time>1970-01-01T00:00:00Z</time>
      </trkpt>
      <trkpt lat="39.470737" lon="-5.157566">
        <ele>602.1</ele>
        <time>1970-01-01T00:00:00Z</time>
      </trkpt>
      <trkpt lat="39.470718" lon="-5.157544">
        <ele>602.8</ele>
        <time>1970-01-01T00:00:00Z</time>
      </trkpt>
      <trkpt lat="39.470718" lon="-5.157544">
        <ele>602.8</ele>
        <time>1970-01-01T00:00:00Z</time>
      </trkpt>
      <trkpt lat="39.470718" lon="-5.157544">
        <ele>602.8</ele>
        <time>1970-01-01T00:00:00Z</time>
      </trkpt>
      <trkpt lat="39.470718" lon="-5.157544">
        <ele>602.8</ele>
        <time>1970-01-01T00:00:00Z</time>
      </trkpt>
      <trkpt lat="39.470703" lon="-5.157533">
        <ele>603.4</ele>
        <time>1970-01-01T00:00:00Z</time>
      </trkpt>
      <trkpt lat="39.470703" lon="-5.157533">
        <ele>603.4</ele>
        <time>1970-01-01T00:00:00Z</time>
      </trkpt>
      <trkpt lat="39.470703" lon="-5.157533">
        <ele>603.4</ele>
        <time>1970-01-01T00:00:00Z</time>
      </trkpt>
      <trkpt lat="39.470703" lon="-5.157533">
        <ele>603.4</ele>
        <time>1970-01-01T00:00:00Z</time>
      </trkpt>
      <trkpt lat="39.470673" lon="-5.157506">
        <ele>604.5</ele>
        <time>1970-01-01T00:00:00Z</time>
      </trkpt>
      <trkpt lat="39.470673" lon="-5.157506">
        <ele>604.5</ele>
        <time>1970-01-01T00:00:00Z</time>
      </trkpt>
      <trkpt lat="39.470673" lon="-5.157506">
        <ele>604.5</ele>
        <time>1970-01-01T00:00:00Z</time>
      </trkpt>
      <trkpt lat="39.470673" lon="-5.157506">
        <ele>604.5</ele>
        <time>1970-01-01T00:00:00Z</time>
      </trkpt>
      <trkpt lat="39.470619" lon="-5.157436">
        <ele>606.8</ele>
        <time>1970-01-01T00:00:00Z</time>
      </trkpt>
      <trkpt lat="39.470619" lon="-5.157436">
        <ele>606.8</ele>
        <time>1970-01-01T00:00:00Z</time>
      </trkpt>
      <trkpt lat="39.470619" lon="-5.157436">
        <ele>606.8</ele>
        <time>1970-01-01T00:00:00Z</time>
      </trkpt>
      <trkpt lat="39.470619" lon="-5.157436">
        <ele>606.8</ele>
        <time>1970-01-01T00:00:00Z</time>
      </trkpt>
      <trkpt lat="39.470611" lon="-5.157422">
        <ele>607.2</ele>
        <time>1970-01-01T00:00:00Z</time>
      </trkpt>
      <trkpt lat="39.470611" lon="-5.157422">
        <ele>607.2</ele>
        <time>1970-01-01T00:00:00Z</time>
      </trkpt>
      <trkpt lat="39.470611" lon="-5.157422">
        <ele>607.2</ele>
        <time>1970-01-01T00:00:00Z</time>
      </trkpt>
      <trkpt lat="39.470611" lon="-5.157422">
        <ele>607.2</ele>
        <time>1970-01-01T00:00:00Z</time>
      </trkpt>
      <trkpt lat="39.470580" lon="-5.157366">
        <ele>608.7</ele>
        <time>1970-01-01T00:00:00Z</time>
      </trkpt>
      <trkpt lat="39.470580" lon="-5.157366">
        <ele>608.7</ele>
        <time>1970-01-01T00:00:00Z</time>
      </trkpt>
      <trkpt lat="39.470580" lon="-5.157366">
        <ele>608.7</ele>
        <time>1970-01-01T00:00:00Z</time>
      </trkpt>
      <trkpt lat="39.470580" lon="-5.157366">
        <ele>608.7</ele>
        <time>1970-01-01T00:00:00Z</time>
      </trkpt>
      <trkpt lat="39.470569" lon="-5.157330">
        <ele>609.4</ele>
        <time>1970-01-01T00:00:00Z</time>
      </trkpt>
      <trkpt lat="39.470569" lon="-5.157330">
        <ele>609.4</ele>
        <time>1970-01-01T00:00:00Z</time>
      </trkpt>
      <trkpt lat="39.470569" lon="-5.157330">
        <ele>609.4</ele>
        <time>1970-01-01T00:00:00Z</time>
      </trkpt>
      <trkpt lat="39.470569" lon="-5.157330">
        <ele>609.4</ele>
        <time>1970-01-01T00:00:00Z</time>
      </trkpt>
      <trkpt lat="39.470560" lon="-5.157300">
        <ele>609.9</ele>
        <time>1970-01-01T00:00:00Z</time>
      </trkpt>
      <trkpt lat="39.470560" lon="-5.157300">
        <ele>609.9</ele>
        <time>1970-01-01T00:00:00Z</time>
      </trkpt>
      <trkpt lat="39.470560" lon="-5.157300">
        <ele>609.9</ele>
        <time>1970-01-01T00:00:00Z</time>
      </trkpt>
      <trkpt lat="39.470560" lon="-5.157300">
        <ele>609.9</ele>
        <time>1970-01-01T00:00:00Z</time>
      </trkpt>
      <trkpt lat="39.470551" lon="-5.157265">
        <ele>610.5</ele>
        <time>1970-01-01T00:00:00Z</time>
      </trkpt>
      <trkpt lat="39.470551" lon="-5.157265">
        <ele>610.5</ele>
        <time>1970-01-01T00:00:00Z</time>
      </trkpt>
      <trkpt lat="39.470551" lon="-5.157265">
        <ele>610.5</ele>
        <time>1970-01-01T00:00:00Z</time>
      </trkpt>
      <trkpt lat="39.470551" lon="-5.157265">
        <ele>610.5</ele>
        <time>1970-01-01T00:00:00Z</time>
      </trkpt>
      <trkpt lat="39.470544" lon="-5.157230">
        <ele>611.0</ele>
        <time>1970-01-01T00:00:00Z</time>
      </trkpt>
      <trkpt lat="39.470544" lon="-5.157230">
        <ele>611.0</ele>
        <time>1970-01-01T00:00:00Z</time>
      </trkpt>
      <trkpt lat="39.470544" lon="-5.157230">
        <ele>611.0</ele>
        <time>1970-01-01T00:00:00Z</time>
      </trkpt>
      <trkpt lat="39.470544" lon="-5.157230">
        <ele>611.0</ele>
        <time>1970-01-01T00:00:00Z</time>
      </trkpt>
      <trkpt lat="39.470515" lon="-5.157117">
        <ele>612.6</ele>
        <time>1970-01-01T00:00:00Z</time>
      </trkpt>
      <trkpt lat="39.470515" lon="-5.157117">
        <ele>612.6</ele>
        <time>1970-01-01T00:00:00Z</time>
      </trkpt>
      <trkpt lat="39.470515" lon="-5.157117">
        <ele>612.6</ele>
        <time>1970-01-01T00:00:00Z</time>
      </trkpt>
      <trkpt lat="39.470515" lon="-5.157117">
        <ele>612.6</ele>
        <time>1970-01-01T00:00:00Z</time>
      </trkpt>
      <trkpt lat="39.470509" lon="-5.157081">
        <ele>612.9</ele>
        <time>1970-01-01T00:00:00Z</time>
      </trkpt>
      <trkpt lat="39.470509" lon="-5.157081">
        <ele>612.9</ele>
        <time>1970-01-01T00:00:00Z</time>
      </trkpt>
      <trkpt lat="39.470509" lon="-5.157081">
        <ele>612.9</ele>
        <time>1970-01-01T00:00:00Z</time>
      </trkpt>
      <trkpt lat="39.470509" lon="-5.157081">
        <ele>612.9</ele>
        <time>1970-01-01T00:00:00Z</time>
      </trkpt>
      <trkpt lat="39.470504" lon="-5.157044">
        <ele>613.3</ele>
        <time>1970-01-01T00:00:00Z</time>
      </trkpt>
      <trkpt lat="39.470504" lon="-5.157044">
        <ele>613.3</ele>
        <time>1970-01-01T00:00:00Z</time>
      </trkpt>
      <trkpt lat="39.470504" lon="-5.157044">
        <ele>613.3</ele>
        <time>1970-01-01T00:00:00Z</time>
      </trkpt>
      <trkpt lat="39.470504" lon="-5.157044">
        <ele>613.3</ele>
        <time>1970-01-01T00:00:00Z</time>
      </trkpt>
      <trkpt lat="39.470499" lon="-5.157014">
        <ele>613.6</ele>
        <time>1970-01-01T00:00:00Z</time>
      </trkpt>
      <trkpt lat="39.470499" lon="-5.157014">
        <ele>613.6</ele>
        <time>1970-01-01T00:00:00Z</time>
      </trkpt>
      <trkpt lat="39.470499" lon="-5.157014">
        <ele>613.6</ele>
        <time>1970-01-01T00:00:00Z</time>
      </trkpt>
      <trkpt lat="39.470499" lon="-5.157014">
        <ele>613.6</ele>
        <time>1970-01-01T00:00:00Z</time>
      </trkpt>
      <trkpt lat="39.470494" lon="-5.156978">
        <ele>614.0</ele>
        <time>1970-01-01T00:00:00Z</time>
      </trkpt>
      <trkpt lat="39.470494" lon="-5.156978">
        <ele>614.0</ele>
        <time>1970-01-01T00:00:00Z</time>
      </trkpt>
      <trkpt lat="39.470494" lon="-5.156978">
        <ele>614.0</ele>
        <time>1970-01-01T00:00:00Z</time>
      </trkpt>
      <trkpt lat="39.470494" lon="-5.156978">
        <ele>614.0</ele>
        <time>1970-01-01T00:00:00Z</time>
      </trkpt>
      <trkpt lat="39.470489" lon="-5.156946">
        <ele>614.3</ele>
        <time>1970-01-01T00:00:00Z</time>
      </trkpt>
      <trkpt lat="39.470489" lon="-5.156946">
        <ele>614.3</ele>
        <time>1970-01-01T00:00:00Z</time>
      </trkpt>
      <trkpt lat="39.470489" lon="-5.156946">
        <ele>614.3</ele>
        <time>1970-01-01T00:00:00Z</time>
      </trkpt>
      <trkpt lat="39.470489" lon="-5.156946">
        <ele>614.3</ele>
        <time>1970-01-01T00:00:00Z</time>
      </trkpt>
      <trkpt lat="39.470479" lon="-5.156885">
        <ele>615.0</ele>
        <time>1970-01-01T00:00:00Z</time>
      </trkpt>
      <trkpt lat="39.470479" lon="-5.156885">
        <ele>615.0</ele>
        <time>1970-01-01T00:00:00Z</time>
      </trkpt>
      <trkpt lat="39.470479" lon="-5.156885">
        <ele>615.0</ele>
        <time>1970-01-01T00:00:00Z</time>
      </trkpt>
      <trkpt lat="39.470479" lon="-5.156885">
        <ele>615.0</ele>
        <time>1970-01-01T00:00:00Z</time>
      </trkpt>
      <trkpt lat="39.470457" lon="-5.156799">
        <ele>616.2</ele>
        <time>1970-01-01T00:00:00Z</time>
      </trkpt>
      <trkpt lat="39.470457" lon="-5.156799">
        <ele>616.2</ele>
        <time>1970-01-01T00:00:00Z</time>
      </trkpt>
      <trkpt lat="39.470457" lon="-5.156799">
        <ele>616.2</ele>
        <time>1970-01-01T00:00:00Z</time>
      </trkpt>
      <trkpt lat="39.470457" lon="-5.156799">
        <ele>616.2</ele>
        <time>1970-01-01T00:00:00Z</time>
      </trkpt>
      <trkpt lat="39.470448" lon="-5.156771">
        <ele>616.7</ele>
        <time>1970-01-01T00:00:00Z</time>
      </trkpt>
      <trkpt lat="39.470448" lon="-5.156771">
        <ele>616.7</ele>
        <time>1970-01-01T00:00:00Z</time>
      </trkpt>
      <trkpt lat="39.470448" lon="-5.156771">
        <ele>616.7</ele>
        <time>1970-01-01T00:00:00Z</time>
      </trkpt>
      <trkpt lat="39.470448" lon="-5.156771">
        <ele>616.7</ele>
        <time>1970-01-01T00:00:00Z</time>
      </trkpt>
      <trkpt lat="39.470439" lon="-5.156739">
        <ele>617.2</ele>
        <time>1970-01-01T00:00:00Z</time>
      </trkpt>
      <trkpt lat="39.470439" lon="-5.156739">
        <ele>617.2</ele>
        <time>1970-01-01T00:00:00Z</time>
      </trkpt>
      <trkpt lat="39.470439" lon="-5.156739">
        <ele>617.2</ele>
        <time>1970-01-01T00:00:00Z</time>
      </trkpt>
      <trkpt lat="39.470439" lon="-5.156739">
        <ele>617.2</ele>
        <time>1970-01-01T00:00:00Z</time>
      </trkpt>
      <trkpt lat="39.470431" lon="-5.156708">
        <ele>617.6</ele>
        <time>1970-01-01T00:00:00Z</time>
      </trkpt>
      <trkpt lat="39.470431" lon="-5.156708">
        <ele>617.6</ele>
        <time>1970-01-01T00:00:00Z</time>
      </trkpt>
      <trkpt lat="39.470431" lon="-5.156708">
        <ele>617.6</ele>
        <time>1970-01-01T00:00:00Z</time>
      </trkpt>
      <trkpt lat="39.470431" lon="-5.156708">
        <ele>617.6</ele>
        <time>1970-01-01T00:00:00Z</time>
      </trkpt>
      <trkpt lat="39.470423" lon="-5.156676">
        <ele>618.1</ele>
        <time>1970-01-01T00:00:00Z</time>
      </trkpt>
      <trkpt lat="39.470423" lon="-5.156676">
        <ele>618.1</ele>
        <time>1970-01-01T00:00:00Z</time>
      </trkpt>
      <trkpt lat="39.470423" lon="-5.156676">
        <ele>618.1</ele>
        <time>1970-01-01T00:00:00Z</time>
      </trkpt>
      <trkpt lat="39.470423" lon="-5.156676">
        <ele>618.1</ele>
        <time>1970-01-01T00:00:00Z</time>
      </trkpt>
      <trkpt lat="39.470413" lon="-5.156639">
        <ele>618.6</ele>
        <time>1970-01-01T00:00:00Z</time>
      </trkpt>
      <trkpt lat="39.470413" lon="-5.156639">
        <ele>618.6</ele>
        <time>1970-01-01T00:00:00Z</time>
      </trkpt>
      <trkpt lat="39.470413" lon="-5.156639">
        <ele>618.6</ele>
        <time>1970-01-01T00:00:00Z</time>
      </trkpt>
      <trkpt lat="39.470413" lon="-5.156639">
        <ele>618.6</ele>
        <time>1970-01-01T00:00:00Z</time>
      </trkpt>
      <trkpt lat="39.470405" lon="-5.156608">
        <ele>619.0</ele>
        <time>1970-01-01T00:00:00Z</time>
      </trkpt>
      <trkpt lat="39.470405" lon="-5.156608">
        <ele>619.0</ele>
        <time>1970-01-01T00:00:00Z</time>
      </trkpt>
      <trkpt lat="39.470405" lon="-5.156608">
        <ele>619.0</ele>
        <time>1970-01-01T00:00:00Z</time>
      </trkpt>
      <trkpt lat="39.470405" lon="-5.156608">
        <ele>619.0</ele>
        <time>1970-01-01T00:00:00Z</time>
      </trkpt>
      <trkpt lat="39.470398" lon="-5.156579">
        <ele>619.4</ele>
        <time>1970-01-01T00:00:00Z</time>
      </trkpt>
      <trkpt lat="39.470398" lon="-5.156579">
        <ele>619.4</ele>
        <time>1970-01-01T00:00:00Z</time>
      </trkpt>
      <trkpt lat="39.470398" lon="-5.156579">
        <ele>619.4</ele>
        <time>1970-01-01T00:00:00Z</time>
      </trkpt>
      <trkpt lat="39.470398" lon="-5.156579">
        <ele>619.4</ele>
        <time>1970-01-01T00:00:00Z</time>
      </trkpt>
      <trkpt lat="39.470391" lon="-5.156551">
        <ele>619.8</ele>
        <time>1970-01-01T00:00:00Z</time>
      </trkpt>
      <trkpt lat="39.470391" lon="-5.156551">
        <ele>619.8</ele>
        <time>1970-01-01T00:00:00Z</time>
      </trkpt>
      <trkpt lat="39.470391" lon="-5.156551">
        <ele>619.8</ele>
        <time>1970-01-01T00:00:00Z</time>
      </trkpt>
      <trkpt lat="39.470391" lon="-5.156551">
        <ele>619.8</ele>
        <time>1970-01-01T00:00:00Z</time>
      </trkpt>
      <trkpt lat="39.470384" lon="-5.156520">
        <ele>620.1</ele>
        <time>1970-01-01T00:00:00Z</time>
      </trkpt>
      <trkpt lat="39.470384" lon="-5.156520">
        <ele>620.1</ele>
        <time>1970-01-01T00:00:00Z</time>
      </trkpt>
      <trkpt lat="39.470384" lon="-5.156520">
        <ele>620.1</ele>
        <time>1970-01-01T00:00:00Z</time>
      </trkpt>
      <trkpt lat="39.470384" lon="-5.156520">
        <ele>620.1</ele>
        <time>1970-01-01T00:00:00Z</time>
      </trkpt>
      <trkpt lat="39.470375" lon="-5.156483">
        <ele>620.6</ele>
        <time>1970-01-01T00:00:00Z</time>
      </trkpt>
      <trkpt lat="39.470375" lon="-5.156483">
        <ele>620.6</ele>
        <time>1970-01-01T00:00:00Z</time>
      </trkpt>
      <trkpt lat="39.470375" lon="-5.156483">
        <ele>620.6</ele>
        <time>1970-01-01T00:00:00Z</time>
      </trkpt>
      <trkpt lat="39.470375" lon="-5.156483">
        <ele>620.6</ele>
        <time>1970-01-01T00:00:00Z</time>
      </trkpt>
      <trkpt lat="39.470365" lon="-5.156444">
        <ele>621.0</ele>
        <time>1970-01-01T00:00:00Z</time>
      </trkpt>
      <trkpt lat="39.470365" lon="-5.156444">
        <ele>621.0</ele>
        <time>1970-01-01T00:00:00Z</time>
      </trkpt>
      <trkpt lat="39.470365" lon="-5.156444">
        <ele>621.0</ele>
        <time>1970-01-01T00:00:00Z</time>
      </trkpt>
      <trkpt lat="39.470365" lon="-5.156444">
        <ele>621.0</ele>
        <time>1970-01-01T00:00:00Z</time>
      </trkpt>
      <trkpt lat="39.470355" lon="-5.156404">
        <ele>621.5</ele>
        <time>1970-01-01T00:00:00Z</time>
      </trkpt>
      <trkpt lat="39.470355" lon="-5.156404">
        <ele>621.5</ele>
        <time>1970-01-01T00:00:00Z</time>
      </trkpt>
      <trkpt lat="39.470355" lon="-5.156404">
        <ele>621.5</ele>
        <time>1970-01-01T00:00:00Z</time>
      </trkpt>
      <trkpt lat="39.470355" lon="-5.156404">
        <ele>621.5</ele>
        <time>1970-01-01T00:00:00Z</time>
      </trkpt>
      <trkpt lat="39.470344" lon="-5.156371">
        <ele>621.9</ele>
        <time>1970-01-01T00:00:00Z</time>
      </trkpt>
      <trkpt lat="39.470344" lon="-5.156371">
        <ele>621.9</ele>
        <time>1970-01-01T00:00:00Z</time>
      </trkpt>
      <trkpt lat="39.470344" lon="-5.156371">
        <ele>621.9</ele>
        <time>1970-01-01T00:00:00Z</time>
      </trkpt>
      <trkpt lat="39.470344" lon="-5.156371">
        <ele>621.9</ele>
        <time>1970-01-01T00:00:00Z</time>
      </trkpt>
      <trkpt lat="39.470337" lon="-5.156343">
        <ele>622.2</ele>
        <time>1970-01-01T00:00:00Z</time>
      </trkpt>
      <trkpt lat="39.470337" lon="-5.156343">
        <ele>622.2</ele>
        <time>1970-01-01T00:00:00Z</time>
      </trkpt>
      <trkpt lat="39.470337" lon="-5.156343">
        <ele>622.2</ele>
        <time>1970-01-01T00:00:00Z</time>
      </trkpt>
      <trkpt lat="39.470337" lon="-5.156343">
        <ele>622.2</ele>
        <time>1970-01-01T00:00:00Z</time>
      </trkpt>
      <trkpt lat="39.470328" lon="-5.156314">
        <ele>622.4</ele>
        <time>1970-01-01T00:00:00Z</time>
      </trkpt>
      <trkpt lat="39.470328" lon="-5.156314">
        <ele>622.4</ele>
        <time>1970-01-01T00:00:00Z</time>
      </trkpt>
      <trkpt lat="39.470328" lon="-5.156314">
        <ele>622.4</ele>
        <time>1970-01-01T00:00:00Z</time>
      </trkpt>
      <trkpt lat="39.470328" lon="-5.156314">
        <ele>622.4</ele>
        <time>1970-01-01T00:00:00Z</time>
      </trkpt>
      <trkpt lat="39.470321" lon="-5.156286">
        <ele>622.6</ele>
        <time>1970-01-01T00:00:00Z</time>
      </trkpt>
      <trkpt lat="39.470321" lon="-5.156286">
        <ele>622.6</ele>
        <time>1970-01-01T00:00:00Z</time>
      </trkpt>
      <trkpt lat="39.470321" lon="-5.156286">
        <ele>622.6</ele>
        <time>1970-01-01T00:00:00Z</time>
      </trkpt>
      <trkpt lat="39.470321" lon="-5.156286">
        <ele>622.6</ele>
        <time>1970-01-01T00:00:00Z</time>
      </trkpt>
      <trkpt lat="39.470312" lon="-5.156253">
        <ele>622.8</ele>
        <time>1970-01-01T00:00:00Z</time>
      </trkpt>
      <trkpt lat="39.470312" lon="-5.156253">
        <ele>622.8</ele>
        <time>1970-01-01T00:00:00Z</time>
      </trkpt>
      <trkpt lat="39.470312" lon="-5.156253">
        <ele>622.8</ele>
        <time>1970-01-01T00:00:00Z</time>
      </trkpt>
      <trkpt lat="39.470312" lon="-5.156253">
        <ele>622.8</ele>
        <time>1970-01-01T00:00:00Z</time>
      </trkpt>
      <trkpt lat="39.470301" lon="-5.156213">
        <ele>623.0</ele>
        <time>1970-01-01T00:00:00Z</time>
      </trkpt>
      <trkpt lat="39.470301" lon="-5.156213">
        <ele>623.0</ele>
        <time>1970-01-01T00:00:00Z</time>
      </trkpt>
      <trkpt lat="39.470301" lon="-5.156213">
        <ele>623.0</ele>
        <time>1970-01-01T00:00:00Z</time>
      </trkpt>
      <trkpt lat="39.470301" lon="-5.156213">
        <ele>623.0</ele>
        <time>1970-01-01T00:00:00Z</time>
      </trkpt>
      <trkpt lat="39.470293" lon="-5.156186">
        <ele>623.2</ele>
        <time>1970-01-01T00:00:00Z</time>
      </trkpt>
      <trkpt lat="39.470293" lon="-5.156186">
        <ele>623.2</ele>
        <time>1970-01-01T00:00:00Z</time>
      </trkpt>
      <trkpt lat="39.470293" lon="-5.156186">
        <ele>623.2</ele>
        <time>1970-01-01T00:00:00Z</time>
      </trkpt>
      <trkpt lat="39.470293" lon="-5.156186">
        <ele>623.2</ele>
        <time>1970-01-01T00:00:00Z</time>
      </trkpt>
      <trkpt lat="39.470282" lon="-5.156150">
        <ele>623.4</ele>
        <time>1970-01-01T00:00:00Z</time>
      </trkpt>
      <trkpt lat="39.470282" lon="-5.156150">
        <ele>623.4</ele>
        <time>1970-01-01T00:00:00Z</time>
      </trkpt>
      <trkpt lat="39.470282" lon="-5.156150">
        <ele>623.4</ele>
        <time>1970-01-01T00:00:00Z</time>
      </trkpt>
      <trkpt lat="39.470282" lon="-5.156150">
        <ele>623.4</ele>
        <time>1970-01-01T00:00:00Z</time>
      </trkpt>
      <trkpt lat="39.470272" lon="-5.156120">
        <ele>623.5</ele>
        <time>1970-01-01T00:00:00Z</time>
      </trkpt>
      <trkpt lat="39.470272" lon="-5.156120">
        <ele>623.5</ele>
        <time>1970-01-01T00:00:00Z</time>
      </trkpt>
      <trkpt lat="39.470272" lon="-5.156120">
        <ele>623.5</ele>
        <time>1970-01-01T00:00:00Z</time>
      </trkpt>
      <trkpt lat="39.470272" lon="-5.156120">
        <ele>623.5</ele>
        <time>1970-01-01T00:00:00Z</time>
      </trkpt>
      <trkpt lat="39.470262" lon="-5.156090">
        <ele>623.7</ele>
        <time>1970-01-01T00:00:00Z</time>
      </trkpt>
      <trkpt lat="39.470262" lon="-5.156090">
        <ele>623.7</ele>
        <time>1970-01-01T00:00:00Z</time>
      </trkpt>
      <trkpt lat="39.470262" lon="-5.156090">
        <ele>623.7</ele>
        <time>1970-01-01T00:00:00Z</time>
      </trkpt>
      <trkpt lat="39.470262" lon="-5.156090">
        <ele>623.7</ele>
        <time>1970-01-01T00:00:00Z</time>
      </trkpt>
      <trkpt lat="39.470250" lon="-5.156062">
        <ele>624.0</ele>
        <time>1970-01-01T00:00:00Z</time>
      </trkpt>
      <trkpt lat="39.470250" lon="-5.156062">
        <ele>624.0</ele>
        <time>1970-01-01T00:00:00Z</time>
      </trkpt>
      <trkpt lat="39.470250" lon="-5.156062">
        <ele>624.0</ele>
        <time>1970-01-01T00:00:00Z</time>
      </trkpt>
      <trkpt lat="39.470250" lon="-5.156062">
        <ele>624.0</ele>
        <time>1970-01-01T00:00:00Z</time>
      </trkpt>
      <trkpt lat="39.470236" lon="-5.156030">
        <ele>624.4</ele>
        <time>1970-01-01T00:00:00Z</time>
      </trkpt>
      <trkpt lat="39.470236" lon="-5.156030">
        <ele>624.4</ele>
        <time>1970-01-01T00:00:00Z</time>
      </trkpt>
      <trkpt lat="39.470236" lon="-5.156030">
        <ele>624.4</ele>
        <time>1970-01-01T00:00:00Z</time>
      </trkpt>
      <trkpt lat="39.470236" lon="-5.156030">
        <ele>624.4</ele>
        <time>1970-01-01T00:00:00Z</time>
      </trkpt>
      <trkpt lat="39.470226" lon="-5.156006">
        <ele>624.7</ele>
        <time>1970-01-01T00:00:00Z</time>
      </trkpt>
      <trkpt lat="39.470226" lon="-5.156006">
        <ele>624.7</ele>
        <time>1970-01-01T00:00:00Z</time>
      </trkpt>
      <trkpt lat="39.470226" lon="-5.156006">
        <ele>624.7</ele>
        <time>1970-01-01T00:00:00Z</time>
      </trkpt>
      <trkpt lat="39.470226" lon="-5.156006">
        <ele>624.7</ele>
        <time>1970-01-01T00:00:00Z</time>
      </trkpt>
      <trkpt lat="39.470193" lon="-5.155939">
        <ele>625.7</ele>
        <time>1970-01-01T00:00:00Z</time>
      </trkpt>
      <trkpt lat="39.470193" lon="-5.155939">
        <ele>625.7</ele>
        <time>1970-01-01T00:00:00Z</time>
      </trkpt>
      <trkpt lat="39.470193" lon="-5.155939">
        <ele>625.7</ele>
        <time>1970-01-01T00:00:00Z</time>
      </trkpt>
      <trkpt lat="39.470193" lon="-5.155939">
        <ele>625.7</ele>
        <time>1970-01-01T00:00:00Z</time>
      </trkpt>
      <trkpt lat="39.470181" lon="-5.155832">
        <ele>625.7</ele>
        <time>1970-01-01T00:00:00Z</time>
      </trkpt>
      <trkpt lat="39.470181" lon="-5.155832">
        <ele>625.7</ele>
        <time>1970-01-01T00:00:00Z</time>
      </trkpt>
      <trkpt lat="39.470181" lon="-5.155832">
        <ele>625.7</ele>
        <time>1970-01-01T00:00:00Z</time>
      </trkpt>
      <trkpt lat="39.470181" lon="-5.155832">
        <ele>625.7</ele>
        <time>1970-01-01T00:00:00Z</time>
      </trkpt>
      <trkpt lat="39.470159" lon="-5.155759">
        <ele>626.3</ele>
        <time>1970-01-01T00:00:00Z</time>
      </trkpt>
      <trkpt lat="39.470159" lon="-5.155759">
        <ele>626.3</ele>
        <time>1970-01-01T00:00:00Z</time>
      </trkpt>
      <trkpt lat="39.470159" lon="-5.155759">
        <ele>626.3</ele>
        <time>1970-01-01T00:00:00Z</time>
      </trkpt>
      <trkpt lat="39.470159" lon="-5.155759">
        <ele>626.3</ele>
        <time>1970-01-01T00:00:00Z</time>
      </trkpt>
      <trkpt lat="39.470121" lon="-5.155655">
        <ele>627.3</ele>
        <time>1970-01-01T00:00:00Z</time>
      </trkpt>
      <trkpt lat="39.470121" lon="-5.155655">
        <ele>627.3</ele>
        <time>1970-01-01T00:00:00Z</time>
      </trkpt>
      <trkpt lat="39.470121" lon="-5.155655">
        <ele>627.3</ele>
        <time>1970-01-01T00:00:00Z</time>
      </trkpt>
      <trkpt lat="39.470121" lon="-5.155655">
        <ele>627.3</ele>
        <time>1970-01-01T00:00:00Z</time>
      </trkpt>
      <trkpt lat="39.470106" lon="-5.155598">
        <ele>627.6</ele>
        <time>1970-01-01T00:00:00Z</time>
      </trkpt>
      <trkpt lat="39.470106" lon="-5.155598">
        <ele>627.6</ele>
        <time>1970-01-01T00:00:00Z</time>
      </trkpt>
      <trkpt lat="39.470106" lon="-5.155598">
        <ele>627.6</ele>
        <time>1970-01-01T00:00:00Z</time>
      </trkpt>
      <trkpt lat="39.470106" lon="-5.155598">
        <ele>627.6</ele>
        <time>1970-01-01T00:00:00Z</time>
      </trkpt>
      <trkpt lat="39.470089" lon="-5.155527">
        <ele>628.0</ele>
        <time>1970-01-01T00:00:00Z</time>
      </trkpt>
      <trkpt lat="39.470089" lon="-5.155527">
        <ele>628.0</ele>
        <time>1970-01-01T00:00:00Z</time>
      </trkpt>
      <trkpt lat="39.470089" lon="-5.155527">
        <ele>628.0</ele>
        <time>1970-01-01T00:00:00Z</time>
      </trkpt>
      <trkpt lat="39.470089" lon="-5.155527">
        <ele>628.0</ele>
        <time>1970-01-01T00:00:00Z</time>
      </trkpt>
      <trkpt lat="39.470076" lon="-5.155461">
        <ele>628.2</ele>
        <time>1970-01-01T00:00:00Z</time>
      </trkpt>
      <trkpt lat="39.470076" lon="-5.155461">
        <ele>628.2</ele>
        <time>1970-01-01T00:00:00Z</time>
      </trkpt>
      <trkpt lat="39.470076" lon="-5.155461">
        <ele>628.2</ele>
        <time>1970-01-01T00:00:00Z</time>
      </trkpt>
      <trkpt lat="39.470076" lon="-5.155461">
        <ele>628.2</ele>
        <time>1970-01-01T00:00:00Z</time>
      </trkpt>
      <trkpt lat="39.470065" lon="-5.155381">
        <ele>628.4</ele>
        <time>1970-01-01T00:00:00Z</time>
      </trkpt>
      <trkpt lat="39.470065" lon="-5.155381">
        <ele>628.4</ele>
        <time>1970-01-01T00:00:00Z</time>
      </trkpt>
      <trkpt lat="39.470065" lon="-5.155381">
        <ele>628.4</ele>
        <time>1970-01-01T00:00:00Z</time>
      </trkpt>
      <trkpt lat="39.470065" lon="-5.155381">
        <ele>628.4</ele>
        <time>1970-01-01T00:00:00Z</time>
      </trkpt>
      <trkpt lat="39.470057" lon="-5.155315">
        <ele>628.7</ele>
        <time>1970-01-01T00:00:00Z</time>
      </trkpt>
      <trkpt lat="39.470057" lon="-5.155315">
        <ele>628.7</ele>
        <time>1970-01-01T00:00:00Z</time>
      </trkpt>
      <trkpt lat="39.470057" lon="-5.155315">
        <ele>628.7</ele>
        <time>1970-01-01T00:00:00Z</time>
      </trkpt>
      <trkpt lat="39.470057" lon="-5.155315">
        <ele>628.7</ele>
        <time>1970-01-01T00:00:00Z</time>
      </trkpt>
      <trkpt lat="39.470052" lon="-5.155238">
        <ele>628.9</ele>
        <time>1970-01-01T00:00:00Z</time>
      </trkpt>
      <trkpt lat="39.470052" lon="-5.155238">
        <ele>628.9</ele>
        <time>1970-01-01T00:00:00Z</time>
      </trkpt>
      <trkpt lat="39.470052" lon="-5.155238">
        <ele>628.9</ele>
        <time>1970-01-01T00:00:00Z</time>
      </trkpt>
      <trkpt lat="39.470052" lon="-5.155238">
        <ele>628.9</ele>
        <time>1970-01-01T00:00:00Z</time>
      </trkpt>
      <trkpt lat="39.470050" lon="-5.155181">
        <ele>629.0</ele>
        <time>1970-01-01T00:00:00Z</time>
      </trkpt>
      <trkpt lat="39.470050" lon="-5.155181">
        <ele>629.0</ele>
        <time>1970-01-01T00:00:00Z</time>
      </trkpt>
      <trkpt lat="39.470050" lon="-5.155181">
        <ele>629.0</ele>
        <time>1970-01-01T00:00:00Z</time>
      </trkpt>
      <trkpt lat="39.470050" lon="-5.155181">
        <ele>629.0</ele>
        <time>1970-01-01T00:00:00Z</time>
      </trkpt>
      <trkpt lat="39.470050" lon="-5.155120">
        <ele>628.7</ele>
        <time>1970-01-01T00:00:00Z</time>
      </trkpt>
      <trkpt lat="39.470050" lon="-5.155120">
        <ele>628.7</ele>
        <time>1970-01-01T00:00:00Z</time>
      </trkpt>
      <trkpt lat="39.470050" lon="-5.155120">
        <ele>628.7</ele>
        <time>1970-01-01T00:00:00Z</time>
      </trkpt>
      <trkpt lat="39.470050" lon="-5.155120">
        <ele>628.7</ele>
        <time>1970-01-01T00:00:00Z</time>
      </trkpt>
      <trkpt lat="39.470050" lon="-5.155062">
        <ele>628.5</ele>
        <time>1970-01-01T00:00:00Z</time>
      </trkpt>
      <trkpt lat="39.470050" lon="-5.155062">
        <ele>628.5</ele>
        <time>1970-01-01T00:00:00Z</time>
      </trkpt>
      <trkpt lat="39.470050" lon="-5.155062">
        <ele>628.5</ele>
        <time>1970-01-01T00:00:00Z</time>
      </trkpt>
      <trkpt lat="39.470050" lon="-5.155062">
        <ele>628.5</ele>
        <time>1970-01-01T00:00:00Z</time>
      </trkpt>
      <trkpt lat="39.470053" lon="-5.155009">
        <ele>628.1</ele>
        <time>1970-01-01T00:00:00Z</time>
      </trkpt>
      <trkpt lat="39.470053" lon="-5.155009">
        <ele>628.1</ele>
        <time>1970-01-01T00:00:00Z</time>
      </trkpt>
      <trkpt lat="39.470053" lon="-5.155009">
        <ele>628.1</ele>
        <time>1970-01-01T00:00:00Z</time>
      </trkpt>
      <trkpt lat="39.470053" lon="-5.155009">
        <ele>628.1</ele>
        <time>1970-01-01T00:00:00Z</time>
      </trkpt>
      <trkpt lat="39.470057" lon="-5.154942">
        <ele>627.7</ele>
        <time>1970-01-01T00:00:00Z</time>
      </trkpt>
      <trkpt lat="39.470057" lon="-5.154942">
        <ele>627.7</ele>
        <time>1970-01-01T00:00:00Z</time>
      </trkpt>
      <trkpt lat="39.470057" lon="-5.154942">
        <ele>627.7</ele>
        <time>1970-01-01T00:00:00Z</time>
      </trkpt>
      <trkpt lat="39.470057" lon="-5.154942">
        <ele>627.7</ele>
        <time>1970-01-01T00:00:00Z</time>
      </trkpt>
      <trkpt lat="39.470082" lon="-5.154824">
        <ele>626.6</ele>
        <time>1970-01-01T00:00:00Z</time>
      </trkpt>
      <trkpt lat="39.470082" lon="-5.154824">
        <ele>626.6</ele>
        <time>1970-01-01T00:00:00Z</time>
      </trkpt>
      <trkpt lat="39.470082" lon="-5.154824">
        <ele>626.6</ele>
        <time>1970-01-01T00:00:00Z</time>
      </trkpt>
      <trkpt lat="39.470082" lon="-5.154824">
        <ele>626.6</ele>
        <time>1970-01-01T00:00:00Z</time>
      </trkpt>
      <trkpt lat="39.470101" lon="-5.154717">
        <ele>625.7</ele>
        <time>1970-01-01T00:00:00Z</time>
      </trkpt>
      <trkpt lat="39.470101" lon="-5.154717">
        <ele>625.7</ele>
        <time>1970-01-01T00:00:00Z</time>
      </trkpt>
      <trkpt lat="39.470101" lon="-5.154717">
        <ele>625.7</ele>
        <time>1970-01-01T00:00:00Z</time>
      </trkpt>
      <trkpt lat="39.470101" lon="-5.154717">
        <ele>625.7</ele>
        <time>1970-01-01T00:00:00Z</time>
      </trkpt>
      <trkpt lat="39.470100" lon="-5.154666">
        <ele>625.5</ele>
        <time>1970-01-01T00:00:00Z</time>
      </trkpt>
      <trkpt lat="39.470100" lon="-5.154666">
        <ele>625.5</ele>
        <time>1970-01-01T00:00:00Z</time>
      </trkpt>
      <trkpt lat="39.470100" lon="-5.154666">
        <ele>625.5</ele>
        <time>1970-01-01T00:00:00Z</time>
      </trkpt>
      <trkpt lat="39.470100" lon="-5.154666">
        <ele>625.5</ele>
        <time>1970-01-01T00:00:00Z</time>
      </trkpt>
      <trkpt lat="39.470097" lon="-5.154618">
        <ele>625.4</ele>
        <time>1970-01-01T00:00:00Z</time>
      </trkpt>
      <trkpt lat="39.470097" lon="-5.154618">
        <ele>625.4</ele>
        <time>1970-01-01T00:00:00Z</time>
      </trkpt>
      <trkpt lat="39.470097" lon="-5.154618">
        <ele>625.4</ele>
        <time>1970-01-01T00:00:00Z</time>
      </trkpt>
      <trkpt lat="39.470097" lon="-5.154618">
        <ele>625.4</ele>
        <time>1970-01-01T00:00:00Z</time>
      </trkpt>
      <trkpt lat="39.470091" lon="-5.154559">
        <ele>625.4</ele>
        <time>1970-01-01T00:00:00Z</time>
      </trkpt>
      <trkpt lat="39.470091" lon="-5.154559">
        <ele>625.4</ele>
        <time>1970-01-01T00:00:00Z</time>
      </trkpt>
      <trkpt lat="39.470091" lon="-5.154559">
        <ele>625.4</ele>
        <time>1970-01-01T00:00:00Z</time>
      </trkpt>
      <trkpt lat="39.470091" lon="-5.154559">
        <ele>625.4</ele>
        <time>1970-01-01T00:00:00Z</time>
      </trkpt>
      <trkpt lat="39.470078" lon="-5.154509">
        <ele>625.7</ele>
        <time>1970-01-01T00:00:00Z</time>
      </trkpt>
      <trkpt lat="39.470078" lon="-5.154509">
        <ele>625.7</ele>
        <time>1970-01-01T00:00:00Z</time>
      </trkpt>
      <trkpt lat="39.470078" lon="-5.154509">
        <ele>625.7</ele>
        <time>1970-01-01T00:00:00Z</time>
      </trkpt>
      <trkpt lat="39.470078" lon="-5.154509">
        <ele>625.7</ele>
        <time>1970-01-01T00:00:00Z</time>
      </trkpt>
      <trkpt lat="39.470077" lon="-5.154468">
        <ele>625.8</ele>
        <time>1970-01-01T00:00:00Z</time>
      </trkpt>
      <trkpt lat="39.470077" lon="-5.154468">
        <ele>625.8</ele>
        <time>1970-01-01T00:00:00Z</time>
      </trkpt>
      <trkpt lat="39.470077" lon="-5.154468">
        <ele>625.8</ele>
        <time>1970-01-01T00:00:00Z</time>
      </trkpt>
      <trkpt lat="39.470077" lon="-5.154468">
        <ele>625.8</ele>
        <time>1970-01-01T00:00:00Z</time>
      </trkpt>
      <trkpt lat="39.470075" lon="-5.154429">
        <ele>626.1</ele>
        <time>1970-01-01T00:00:00Z</time>
      </trkpt>
      <trkpt lat="39.470075" lon="-5.154429">
        <ele>626.1</ele>
        <time>1970-01-01T00:00:00Z</time>
      </trkpt>
      <trkpt lat="39.470075" lon="-5.154429">
        <ele>626.1</ele>
        <time>1970-01-01T00:00:00Z</time>
      </trkpt>
      <trkpt lat="39.470075" lon="-5.154429">
        <ele>626.1</ele>
        <time>1970-01-01T00:00:00Z</time>
      </trkpt>
      <trkpt lat="39.470073" lon="-5.154387">
        <ele>626.3</ele>
        <time>1970-01-01T00:00:00Z</time>
      </trkpt>
      <trkpt lat="39.470073" lon="-5.154387">
        <ele>626.3</ele>
        <time>1970-01-01T00:00:00Z</time>
      </trkpt>
      <trkpt lat="39.470073" lon="-5.154387">
        <ele>626.3</ele>
        <time>1970-01-01T00:00:00Z</time>
      </trkpt>
      <trkpt lat="39.470073" lon="-5.154387">
        <ele>626.3</ele>
        <time>1970-01-01T00:00:00Z</time>
      </trkpt>
      <trkpt lat="39.470070" lon="-5.154347">
        <ele>626.6</ele>
        <time>1970-01-01T00:00:00Z</time>
      </trkpt>
      <trkpt lat="39.470070" lon="-5.154347">
        <ele>626.6</ele>
        <time>1970-01-01T00:00:00Z</time>
      </trkpt>
      <trkpt lat="39.470070" lon="-5.154347">
        <ele>626.6</ele>
        <time>1970-01-01T00:00:00Z</time>
      </trkpt>
      <trkpt lat="39.470070" lon="-5.154347">
        <ele>626.6</ele>
        <time>1970-01-01T00:00:00Z</time>
      </trkpt>
      <trkpt lat="39.470067" lon="-5.154307">
        <ele>626.9</ele>
        <time>1970-01-01T00:00:00Z</time>
      </trkpt>
      <trkpt lat="39.470067" lon="-5.154307">
        <ele>626.9</ele>
        <time>1970-01-01T00:00:00Z</time>
      </trkpt>
      <trkpt lat="39.470067" lon="-5.154307">
        <ele>626.9</ele>
        <time>1970-01-01T00:00:00Z</time>
      </trkpt>
      <trkpt lat="39.470067" lon="-5.154307">
        <ele>626.9</ele>
        <time>1970-01-01T00:00:00Z</time>
      </trkpt>
      <trkpt lat="39.470064" lon="-5.154266">
        <ele>627.2</ele>
        <time>1970-01-01T00:00:00Z</time>
      </trkpt>
      <trkpt lat="39.470064" lon="-5.154266">
        <ele>627.2</ele>
        <time>1970-01-01T00:00:00Z</time>
      </trkpt>
      <trkpt lat="39.470064" lon="-5.154266">
        <ele>627.2</ele>
        <time>1970-01-01T00:00:00Z</time>
      </trkpt>
      <trkpt lat="39.470064" lon="-5.154266">
        <ele>627.2</ele>
        <time>1970-01-01T00:00:00Z</time>
      </trkpt>
      <trkpt lat="39.470062" lon="-5.154223">
        <ele>627.7</ele>
        <time>1970-01-01T00:00:00Z</time>
      </trkpt>
      <trkpt lat="39.470062" lon="-5.154223">
        <ele>627.7</ele>
        <time>1970-01-01T00:00:00Z</time>
      </trkpt>
      <trkpt lat="39.470062" lon="-5.154223">
        <ele>627.7</ele>
        <time>1970-01-01T00:00:00Z</time>
      </trkpt>
      <trkpt lat="39.470062" lon="-5.154223">
        <ele>627.7</ele>
        <time>1970-01-01T00:00:00Z</time>
      </trkpt>
      <trkpt lat="39.470058" lon="-5.154179">
        <ele>628.2</ele>
        <time>1970-01-01T00:00:00Z</time>
      </trkpt>
      <trkpt lat="39.470058" lon="-5.154179">
        <ele>628.2</ele>
        <time>1970-01-01T00:00:00Z</time>
      </trkpt>
      <trkpt lat="39.470058" lon="-5.154179">
        <ele>628.2</ele>
        <time>1970-01-01T00:00:00Z</time>
      </trkpt>
      <trkpt lat="39.470058" lon="-5.154179">
        <ele>628.2</ele>
        <time>1970-01-01T00:00:00Z</time>
      </trkpt>
      <trkpt lat="39.470060" lon="-5.154140">
        <ele>628.5</ele>
        <time>1970-01-01T00:00:00Z</time>
      </trkpt>
      <trkpt lat="39.470060" lon="-5.154140">
        <ele>628.5</ele>
        <time>1970-01-01T00:00:00Z</time>
      </trkpt>
      <trkpt lat="39.470060" lon="-5.154140">
        <ele>628.5</ele>
        <time>1970-01-01T00:00:00Z</time>
      </trkpt>
      <trkpt lat="39.470060" lon="-5.154140">
        <ele>628.5</ele>
        <time>1970-01-01T00:00:00Z</time>
      </trkpt>
      <trkpt lat="39.470062" lon="-5.154100">
        <ele>628.7</ele>
        <time>1970-01-01T00:00:00Z</time>
      </trkpt>
      <trkpt lat="39.470062" lon="-5.154100">
        <ele>628.7</ele>
        <time>1970-01-01T00:00:00Z</time>
      </trkpt>
      <trkpt lat="39.470062" lon="-5.154100">
        <ele>628.7</ele>
        <time>1970-01-01T00:00:00Z</time>
      </trkpt>
      <trkpt lat="39.470062" lon="-5.154100">
        <ele>628.7</ele>
        <time>1970-01-01T00:00:00Z</time>
      </trkpt>
      <trkpt lat="39.470063" lon="-5.154058">
        <ele>629.0</ele>
        <time>1970-01-01T00:00:00Z</time>
      </trkpt>
      <trkpt lat="39.470063" lon="-5.154058">
        <ele>629.0</ele>
        <time>1970-01-01T00:00:00Z</time>
      </trkpt>
      <trkpt lat="39.470063" lon="-5.154058">
        <ele>629.0</ele>
        <time>1970-01-01T00:00:00Z</time>
      </trkpt>
      <trkpt lat="39.470063" lon="-5.154058">
        <ele>629.0</ele>
        <time>1970-01-01T00:00:00Z</time>
      </trkpt>
      <trkpt lat="39.470067" lon="-5.154018">
        <ele>629.2</ele>
        <time>1970-01-01T00:00:00Z</time>
      </trkpt>
      <trkpt lat="39.470067" lon="-5.154018">
        <ele>629.2</ele>
        <time>1970-01-01T00:00:00Z</time>
      </trkpt>
      <trkpt lat="39.470067" lon="-5.154018">
        <ele>629.2</ele>
        <time>1970-01-01T00:00:00Z</time>
      </trkpt>
      <trkpt lat="39.470067" lon="-5.154018">
        <ele>629.2</ele>
        <time>1970-01-01T00:00:00Z</time>
      </trkpt>
      <trkpt lat="39.470070" lon="-5.153980">
        <ele>629.6</ele>
        <time>1970-01-01T00:00:00Z</time>
      </trkpt>
      <trkpt lat="39.470070" lon="-5.153980">
        <ele>629.6</ele>
        <time>1970-01-01T00:00:00Z</time>
      </trkpt>
      <trkpt lat="39.470070" lon="-5.153980">
        <ele>629.6</ele>
        <time>1970-01-01T00:00:00Z</time>
      </trkpt>
      <trkpt lat="39.470070" lon="-5.153980">
        <ele>629.6</ele>
        <time>1970-01-01T00:00:00Z</time>
      </trkpt>
      <trkpt lat="39.470071" lon="-5.153937">
        <ele>630.1</ele>
        <time>1970-01-01T00:00:00Z</time>
      </trkpt>
      <trkpt lat="39.470071" lon="-5.153937">
        <ele>630.1</ele>
        <time>1970-01-01T00:00:00Z</time>
      </trkpt>
      <trkpt lat="39.470071" lon="-5.153937">
        <ele>630.1</ele>
        <time>1970-01-01T00:00:00Z</time>
      </trkpt>
      <trkpt lat="39.470071" lon="-5.153937">
        <ele>630.1</ele>
        <time>1970-01-01T00:00:00Z</time>
      </trkpt>
      <trkpt lat="39.470073" lon="-5.153898">
        <ele>630.4</ele>
        <time>1970-01-01T00:00:00Z</time>
      </trkpt>
      <trkpt lat="39.470073" lon="-5.153898">
        <ele>630.4</ele>
        <time>1970-01-01T00:00:00Z</time>
      </trkpt>
      <trkpt lat="39.470073" lon="-5.153898">
        <ele>630.4</ele>
        <time>1970-01-01T00:00:00Z</time>
      </trkpt>
      <trkpt lat="39.470073" lon="-5.153898">
        <ele>630.4</ele>
        <time>1970-01-01T00:00:00Z</time>
      </trkpt>
      <trkpt lat="39.470075" lon="-5.153867">
        <ele>630.7</ele>
        <time>1970-01-01T00:00:00Z</time>
      </trkpt>
      <trkpt lat="39.470075" lon="-5.153867">
        <ele>630.7</ele>
        <time>1970-01-01T00:00:00Z</time>
      </trkpt>
      <trkpt lat="39.470075" lon="-5.153867">
        <ele>630.7</ele>
        <time>1970-01-01T00:00:00Z</time>
      </trkpt>
      <trkpt lat="39.470075" lon="-5.153867">
        <ele>630.7</ele>
        <time>1970-01-01T00:00:00Z</time>
      </trkpt>
      <trkpt lat="39.470078" lon="-5.153835">
        <ele>631.0</ele>
        <time>1970-01-01T00:00:00Z</time>
      </trkpt>
      <trkpt lat="39.470078" lon="-5.153835">
        <ele>631.0</ele>
        <time>1970-01-01T00:00:00Z</time>
      </trkpt>
      <trkpt lat="39.470078" lon="-5.153835">
        <ele>631.0</ele>
        <time>1970-01-01T00:00:00Z</time>
      </trkpt>
      <trkpt lat="39.470078" lon="-5.153835">
        <ele>631.0</ele>
        <time>1970-01-01T00:00:00Z</time>
      </trkpt>
      <trkpt lat="39.470081" lon="-5.153807">
        <ele>631.2</ele>
        <time>1970-01-01T00:00:00Z</time>
      </trkpt>
      <trkpt lat="39.470081" lon="-5.153807">
        <ele>631.2</ele>
        <time>1970-01-01T00:00:00Z</time>
      </trkpt>
      <trkpt lat="39.470081" lon="-5.153807">
        <ele>631.2</ele>
        <time>1970-01-01T00:00:00Z</time>
      </trkpt>
      <trkpt lat="39.470081" lon="-5.153807">
        <ele>631.2</ele>
        <time>1970-01-01T00:00:00Z</time>
      </trkpt>
      <trkpt lat="39.470083" lon="-5.153777">
        <ele>631.4</ele>
        <time>1970-01-01T00:00:00Z</time>
      </trkpt>
      <trkpt lat="39.470083" lon="-5.153777">
        <ele>631.4</ele>
        <time>1970-01-01T00:00:00Z</time>
      </trkpt>
      <trkpt lat="39.470083" lon="-5.153777">
        <ele>631.4</ele>
        <time>1970-01-01T00:00:00Z</time>
      </trkpt>
      <trkpt lat="39.470083" lon="-5.153777">
        <ele>631.4</ele>
        <time>1970-01-01T00:00:00Z</time>
      </trkpt>
      <trkpt lat="39.470087" lon="-5.153746">
        <ele>631.5</ele>
        <time>1970-01-01T00:00:00Z</time>
      </trkpt>
      <trkpt lat="39.470087" lon="-5.153746">
        <ele>631.5</ele>
        <time>1970-01-01T00:00:00Z</time>
      </trkpt>
      <trkpt lat="39.470087" lon="-5.153746">
        <ele>631.5</ele>
        <time>1970-01-01T00:00:00Z</time>
      </trkpt>
      <trkpt lat="39.470087" lon="-5.153746">
        <ele>631.5</ele>
        <time>1970-01-01T00:00:00Z</time>
      </trkpt>
      <trkpt lat="39.470091" lon="-5.153719">
        <ele>631.6</ele>
        <time>1970-01-01T00:00:00Z</time>
      </trkpt>
      <trkpt lat="39.470091" lon="-5.153719">
        <ele>631.6</ele>
        <time>1970-01-01T00:00:00Z</time>
      </trkpt>
      <trkpt lat="39.470091" lon="-5.153719">
        <ele>631.6</ele>
        <time>1970-01-01T00:00:00Z</time>
      </trkpt>
      <trkpt lat="39.470091" lon="-5.153719">
        <ele>631.6</ele>
        <time>1970-01-01T00:00:00Z</time>
      </trkpt>
      <trkpt lat="39.470116" lon="-5.153569">
        <ele>632.0</ele>
        <time>1970-01-01T00:00:00Z</time>
      </trkpt>
      <trkpt lat="39.470116" lon="-5.153569">
        <ele>632.0</ele>
        <time>1970-01-01T00:00:00Z</time>
      </trkpt>
      <trkpt lat="39.470116" lon="-5.153569">
        <ele>632.0</ele>
        <time>1970-01-01T00:00:00Z</time>
      </trkpt>
      <trkpt lat="39.470116" lon="-5.153569">
        <ele>632.0</ele>
        <time>1970-01-01T00:00:00Z</time>
      </trkpt>
      <trkpt lat="39.470121" lon="-5.153544">
        <ele>632.1</ele>
        <time>1970-01-01T00:00:00Z</time>
      </trkpt>
      <trkpt lat="39.470121" lon="-5.153544">
        <ele>632.1</ele>
        <time>1970-01-01T00:00:00Z</time>
      </trkpt>
      <trkpt lat="39.470121" lon="-5.153544">
        <ele>632.1</ele>
        <time>1970-01-01T00:00:00Z</time>
      </trkpt>
      <trkpt lat="39.470121" lon="-5.153544">
        <ele>632.1</ele>
        <time>1970-01-01T00:00:00Z</time>
      </trkpt>
      <trkpt lat="39.470127" lon="-5.153516">
        <ele>632.3</ele>
        <time>1970-01-01T00:00:00Z</time>
      </trkpt>
      <trkpt lat="39.470127" lon="-5.153516">
        <ele>632.3</ele>
        <time>1970-01-01T00:00:00Z</time>
      </trkpt>
      <trkpt lat="39.470127" lon="-5.153516">
        <ele>632.3</ele>
        <time>1970-01-01T00:00:00Z</time>
      </trkpt>
      <trkpt lat="39.470127" lon="-5.153516">
        <ele>632.3</ele>
        <time>1970-01-01T00:00:00Z</time>
      </trkpt>
      <trkpt lat="39.470136" lon="-5.153482">
        <ele>632.4</ele>
        <time>1970-01-01T00:00:00Z</time>
      </trkpt>
      <trkpt lat="39.470136" lon="-5.153482">
        <ele>632.4</ele>
        <time>1970-01-01T00:00:00Z</time>
      </trkpt>
      <trkpt lat="39.470136" lon="-5.153482">
        <ele>632.4</ele>
        <time>1970-01-01T00:00:00Z</time>
      </trkpt>
      <trkpt lat="39.470136" lon="-5.153482">
        <ele>632.4</ele>
        <time>1970-01-01T00:00:00Z</time>
      </trkpt>
      <trkpt lat="39.470146" lon="-5.153457">
        <ele>632.4</ele>
        <time>1970-01-01T00:00:00Z</time>
      </trkpt>
      <trkpt lat="39.470146" lon="-5.153457">
        <ele>632.4</ele>
        <time>1970-01-01T00:00:00Z</time>
      </trkpt>
      <trkpt lat="39.470146" lon="-5.153457">
        <ele>632.4</ele>
        <time>1970-01-01T00:00:00Z</time>
      </trkpt>
      <trkpt lat="39.470146" lon="-5.153457">
        <ele>632.4</ele>
        <time>1970-01-01T00:00:00Z</time>
      </trkpt>
      <trkpt lat="39.470161" lon="-5.153427">
        <ele>632.2</ele>
        <time>1970-01-01T00:00:00Z</time>
      </trkpt>
      <trkpt lat="39.470161" lon="-5.153427">
        <ele>632.2</ele>
        <time>1970-01-01T00:00:00Z</time>
      </trkpt>
      <trkpt lat="39.470161" lon="-5.153427">
        <ele>632.2</ele>
        <time>1970-01-01T00:00:00Z</time>
      </trkpt>
      <trkpt lat="39.470161" lon="-5.153427">
        <ele>632.2</ele>
        <time>1970-01-01T00:00:00Z</time>
      </trkpt>
      <trkpt lat="39.470162" lon="-5.153428">
        <ele>632.2</ele>
        <time>1970-01-01T00:00:00Z</time>
      </trkpt>
      <trkpt lat="39.470162" lon="-5.153428">
        <ele>632.2</ele>
        <time>1970-01-01T00:00:00Z</time>
      </trkpt>
      <trkpt lat="39.470162" lon="-5.153428">
        <ele>632.2</ele>
        <time>1970-01-01T00:00:00Z</time>
      </trkpt>
      <trkpt lat="39.470162" lon="-5.153428">
        <ele>632.2</ele>
        <time>1970-01-01T00:00:00Z</time>
      </trkpt>
      <trkpt lat="39.470204" lon="-5.153356">
        <ele>631.6</ele>
        <time>1970-01-01T00:00:00Z</time>
      </trkpt>
      <trkpt lat="39.470204" lon="-5.153356">
        <ele>631.6</ele>
        <time>1970-01-01T00:00:00Z</time>
      </trkpt>
      <trkpt lat="39.470204" lon="-5.153356">
        <ele>631.6</ele>
        <time>1970-01-01T00:00:00Z</time>
      </trkpt>
      <trkpt lat="39.470204" lon="-5.153356">
        <ele>631.6</ele>
        <time>1970-01-01T00:00:00Z</time>
      </trkpt>
      <trkpt lat="39.470221" lon="-5.153329">
        <ele>631.4</ele>
        <time>1970-01-01T00:00:00Z</time>
      </trkpt>
      <trkpt lat="39.470221" lon="-5.153329">
        <ele>631.4</ele>
        <time>1970-01-01T00:00:00Z</time>
      </trkpt>
      <trkpt lat="39.470221" lon="-5.153329">
        <ele>631.4</ele>
        <time>1970-01-01T00:00:00Z</time>
      </trkpt>
      <trkpt lat="39.470221" lon="-5.153329">
        <ele>631.4</ele>
        <time>1970-01-01T00:00:00Z</time>
      </trkpt>
      <trkpt lat="39.470239" lon="-5.153302">
        <ele>631.2</ele>
        <time>1970-01-01T00:00:00Z</time>
      </trkpt>
      <trkpt lat="39.470239" lon="-5.153302">
        <ele>631.2</ele>
        <time>1970-01-01T00:00:00Z</time>
      </trkpt>
      <trkpt lat="39.470239" lon="-5.153302">
        <ele>631.2</ele>
        <time>1970-01-01T00:00:00Z</time>
      </trkpt>
      <trkpt lat="39.470239" lon="-5.153302">
        <ele>631.2</ele>
        <time>1970-01-01T00:00:00Z</time>
      </trkpt>
      <trkpt lat="39.470257" lon="-5.153277">
        <ele>630.9</ele>
        <time>1970-01-01T00:00:00Z</time>
      </trkpt>
      <trkpt lat="39.470257" lon="-5.153277">
        <ele>630.9</ele>
        <time>1970-01-01T00:00:00Z</time>
      </trkpt>
      <trkpt lat="39.470257" lon="-5.153277">
        <ele>630.9</ele>
        <time>1970-01-01T00:00:00Z</time>
      </trkpt>
      <trkpt lat="39.470257" lon="-5.153277">
        <ele>630.9</ele>
        <time>1970-01-01T00:00:00Z</time>
      </trkpt>
      <trkpt lat="39.470273" lon="-5.153257">
        <ele>630.7</ele>
        <time>1970-01-01T00:00:00Z</time>
      </trkpt>
      <trkpt lat="39.470273" lon="-5.153257">
        <ele>630.7</ele>
        <time>1970-01-01T00:00:00Z</time>
      </trkpt>
      <trkpt lat="39.470273" lon="-5.153257">
        <ele>630.7</ele>
        <time>1970-01-01T00:00:00Z</time>
      </trkpt>
      <trkpt lat="39.470273" lon="-5.153257">
        <ele>630.7</ele>
        <time>1970-01-01T00:00:00Z</time>
      </trkpt>
      <trkpt lat="39.470289" lon="-5.153237">
        <ele>630.5</ele>
        <time>1970-01-01T00:00:00Z</time>
      </trkpt>
      <trkpt lat="39.470289" lon="-5.153237">
        <ele>630.5</ele>
        <time>1970-01-01T00:00:00Z</time>
      </trkpt>
      <trkpt lat="39.470289" lon="-5.153237">
        <ele>630.5</ele>
        <time>1970-01-01T00:00:00Z</time>
      </trkpt>
      <trkpt lat="39.470289" lon="-5.153237">
        <ele>630.5</ele>
        <time>1970-01-01T00:00:00Z</time>
      </trkpt>
      <trkpt lat="39.470307" lon="-5.153215">
        <ele>630.3</ele>
        <time>1970-01-01T00:00:00Z</time>
      </trkpt>
      <trkpt lat="39.470307" lon="-5.153215">
        <ele>630.3</ele>
        <time>1970-01-01T00:00:00Z</time>
      </trkpt>
      <trkpt lat="39.470307" lon="-5.153215">
        <ele>630.3</ele>
        <time>1970-01-01T00:00:00Z</time>
      </trkpt>
      <trkpt lat="39.470307" lon="-5.153215">
        <ele>630.3</ele>
        <time>1970-01-01T00:00:00Z</time>
      </trkpt>
      <trkpt lat="39.470340" lon="-5.153174">
        <ele>629.9</ele>
        <time>1970-01-01T00:00:00Z</time>
      </trkpt>
      <trkpt lat="39.470340" lon="-5.153174">
        <ele>629.9</ele>
        <time>1970-01-01T00:00:00Z</time>
      </trkpt>
      <trkpt lat="39.470340" lon="-5.153174">
        <ele>629.9</ele>
        <time>1970-01-01T00:00:00Z</time>
      </trkpt>
      <trkpt lat="39.470340" lon="-5.153174">
        <ele>629.9</ele>
        <time>1970-01-01T00:00:00Z</time>
      </trkpt>
      <trkpt lat="39.470365" lon="-5.153141">
        <ele>629.8</ele>
        <time>1970-01-01T00:00:00Z</time>
      </trkpt>
      <trkpt lat="39.470365" lon="-5.153141">
        <ele>629.8</ele>
        <time>1970-01-01T00:00:00Z</time>
      </trkpt>
      <trkpt lat="39.470365" lon="-5.153141">
        <ele>629.8</ele>
        <time>1970-01-01T00:00:00Z</time>
      </trkpt>
      <trkpt lat="39.470365" lon="-5.153141">
        <ele>629.8</ele>
        <time>1970-01-01T00:00:00Z</time>
      </trkpt>
      <trkpt lat="39.470392" lon="-5.153109">
        <ele>629.7</ele>
        <time>1970-01-01T00:00:00Z</time>
      </trkpt>
      <trkpt lat="39.470392" lon="-5.153109">
        <ele>629.7</ele>
        <time>1970-01-01T00:00:00Z</time>
      </trkpt>
      <trkpt lat="39.470392" lon="-5.153109">
        <ele>629.7</ele>
        <time>1970-01-01T00:00:00Z</time>
      </trkpt>
      <trkpt lat="39.470392" lon="-5.153109">
        <ele>629.7</ele>
        <time>1970-01-01T00:00:00Z</time>
      </trkpt>
      <trkpt lat="39.470418" lon="-5.153076">
        <ele>629.7</ele>
        <time>1970-01-01T00:00:00Z</time>
      </trkpt>
      <trkpt lat="39.470418" lon="-5.153076">
        <ele>629.7</ele>
        <time>1970-01-01T00:00:00Z</time>
      </trkpt>
      <trkpt lat="39.470418" lon="-5.153076">
        <ele>629.7</ele>
        <time>1970-01-01T00:00:00Z</time>
      </trkpt>
      <trkpt lat="39.470418" lon="-5.153076">
        <ele>629.7</ele>
        <time>1970-01-01T00:00:00Z</time>
      </trkpt>
      <trkpt lat="39.470435" lon="-5.153056">
        <ele>629.6</ele>
        <time>1970-01-01T00:00:00Z</time>
      </trkpt>
      <trkpt lat="39.470435" lon="-5.153056">
        <ele>629.6</ele>
        <time>1970-01-01T00:00:00Z</time>
      </trkpt>
      <trkpt lat="39.470435" lon="-5.153056">
        <ele>629.6</ele>
        <time>1970-01-01T00:00:00Z</time>
      </trkpt>
      <trkpt lat="39.470435" lon="-5.153056">
        <ele>629.6</ele>
        <time>1970-01-01T00:00:00Z</time>
      </trkpt>
      <trkpt lat="39.470453" lon="-5.153035">
        <ele>629.5</ele>
        <time>1970-01-01T00:00:00Z</time>
      </trkpt>
      <trkpt lat="39.470453" lon="-5.153035">
        <ele>629.5</ele>
        <time>1970-01-01T00:00:00Z</time>
      </trkpt>
      <trkpt lat="39.470453" lon="-5.153035">
        <ele>629.5</ele>
        <time>1970-01-01T00:00:00Z</time>
      </trkpt>
      <trkpt lat="39.470453" lon="-5.153035">
        <ele>629.5</ele>
        <time>1970-01-01T00:00:00Z</time>
      </trkpt>
      <trkpt lat="39.470472" lon="-5.153016">
        <ele>629.3</ele>
        <time>1970-01-01T00:00:00Z</time>
      </trkpt>
      <trkpt lat="39.470472" lon="-5.153016">
        <ele>629.3</ele>
        <time>1970-01-01T00:00:00Z</time>
      </trkpt>
      <trkpt lat="39.470472" lon="-5.153016">
        <ele>629.3</ele>
        <time>1970-01-01T00:00:00Z</time>
      </trkpt>
      <trkpt lat="39.470472" lon="-5.153016">
        <ele>629.3</ele>
        <time>1970-01-01T00:00:00Z</time>
      </trkpt>
      <trkpt lat="39.470491" lon="-5.152998">
        <ele>629.1</ele>
        <time>1970-01-01T00:00:00Z</time>
      </trkpt>
      <trkpt lat="39.470491" lon="-5.152998">
        <ele>629.1</ele>
        <time>1970-01-01T00:00:00Z</time>
      </trkpt>
      <trkpt lat="39.470491" lon="-5.152998">
        <ele>629.1</ele>
        <time>1970-01-01T00:00:00Z</time>
      </trkpt>
      <trkpt lat="39.470491" lon="-5.152998">
        <ele>629.1</ele>
        <time>1970-01-01T00:00:00Z</time>
      </trkpt>
      <trkpt lat="39.470511" lon="-5.152980">
        <ele>628.7</ele>
        <time>1970-01-01T00:00:00Z</time>
      </trkpt>
      <trkpt lat="39.470511" lon="-5.152980">
        <ele>628.7</ele>
        <time>1970-01-01T00:00:00Z</time>
      </trkpt>
      <trkpt lat="39.470511" lon="-5.152980">
        <ele>628.7</ele>
        <time>1970-01-01T00:00:00Z</time>
      </trkpt>
      <trkpt lat="39.470511" lon="-5.152980">
        <ele>628.7</ele>
        <time>1970-01-01T00:00:00Z</time>
      </trkpt>
      <trkpt lat="39.470531" lon="-5.152962">
        <ele>628.4</ele>
        <time>1970-01-01T00:00:00Z</time>
      </trkpt>
      <trkpt lat="39.470531" lon="-5.152962">
        <ele>628.4</ele>
        <time>1970-01-01T00:00:00Z</time>
      </trkpt>
      <trkpt lat="39.470531" lon="-5.152962">
        <ele>628.4</ele>
        <time>1970-01-01T00:00:00Z</time>
      </trkpt>
      <trkpt lat="39.470531" lon="-5.152962">
        <ele>628.4</ele>
        <time>1970-01-01T00:00:00Z</time>
      </trkpt>
      <trkpt lat="39.470568" lon="-5.152926">
        <ele>627.9</ele>
        <time>1970-01-01T00:00:00Z</time>
      </trkpt>
      <trkpt lat="39.470568" lon="-5.152926">
        <ele>627.9</ele>
        <time>1970-01-01T00:00:00Z</time>
      </trkpt>
      <trkpt lat="39.470568" lon="-5.152926">
        <ele>627.9</ele>
        <time>1970-01-01T00:00:00Z</time>
      </trkpt>
      <trkpt lat="39.470568" lon="-5.152926">
        <ele>627.9</ele>
        <time>1970-01-01T00:00:00Z</time>
      </trkpt>
      <trkpt lat="39.470589" lon="-5.152907">
        <ele>627.6</ele>
        <time>1970-01-01T00:00:00Z</time>
      </trkpt>
      <trkpt lat="39.470589" lon="-5.152907">
        <ele>627.6</ele>
        <time>1970-01-01T00:00:00Z</time>
      </trkpt>
      <trkpt lat="39.470589" lon="-5.152907">
        <ele>627.6</ele>
        <time>1970-01-01T00:00:00Z</time>
      </trkpt>
      <trkpt lat="39.470589" lon="-5.152907">
        <ele>627.6</ele>
        <time>1970-01-01T00:00:00Z</time>
      </trkpt>
      <trkpt lat="39.470603" lon="-5.152895">
        <ele>627.4</ele>
        <time>1970-01-01T00:00:00Z</time>
      </trkpt>
      <trkpt lat="39.470603" lon="-5.152895">
        <ele>627.4</ele>
        <time>1970-01-01T00:00:00Z</time>
      </trkpt>
      <trkpt lat="39.470603" lon="-5.152895">
        <ele>627.4</ele>
        <time>1970-01-01T00:00:00Z</time>
      </trkpt>
      <trkpt lat="39.470603" lon="-5.152895">
        <ele>627.4</ele>
        <time>1970-01-01T00:00:00Z</time>
      </trkpt>
      <trkpt lat="39.470612" lon="-5.152887">
        <ele>627.3</ele>
        <time>1970-01-01T00:00:00Z</time>
      </trkpt>
      <trkpt lat="39.470612" lon="-5.152887">
        <ele>627.3</ele>
        <time>1970-01-01T00:00:00Z</time>
      </trkpt>
      <trkpt lat="39.470612" lon="-5.152887">
        <ele>627.3</ele>
        <time>1970-01-01T00:00:00Z</time>
      </trkpt>
      <trkpt lat="39.470612" lon="-5.152887">
        <ele>627.3</ele>
        <time>1970-01-01T00:00:00Z</time>
      </trkpt>
      <trkpt lat="39.470631" lon="-5.152870">
        <ele>627.0</ele>
        <time>1970-01-01T00:00:00Z</time>
      </trkpt>
      <trkpt lat="39.470631" lon="-5.152870">
        <ele>627.0</ele>
        <time>1970-01-01T00:00:00Z</time>
      </trkpt>
      <trkpt lat="39.470631" lon="-5.152870">
        <ele>627.0</ele>
        <time>1970-01-01T00:00:00Z</time>
      </trkpt>
      <trkpt lat="39.470631" lon="-5.152870">
        <ele>627.0</ele>
        <time>1970-01-01T00:00:00Z</time>
      </trkpt>
      <trkpt lat="39.470649" lon="-5.152855">
        <ele>626.7</ele>
        <time>1970-01-01T00:00:00Z</time>
      </trkpt>
      <trkpt lat="39.470649" lon="-5.152855">
        <ele>626.7</ele>
        <time>1970-01-01T00:00:00Z</time>
      </trkpt>
      <trkpt lat="39.470649" lon="-5.152855">
        <ele>626.7</ele>
        <time>1970-01-01T00:00:00Z</time>
      </trkpt>
      <trkpt lat="39.470649" lon="-5.152855">
        <ele>626.7</ele>
        <time>1970-01-01T00:00:00Z</time>
      </trkpt>
      <trkpt lat="39.470667" lon="-5.152837">
        <ele>626.5</ele>
        <time>1970-01-01T00:00:00Z</time>
      </trkpt>
      <trkpt lat="39.470667" lon="-5.152837">
        <ele>626.5</ele>
        <time>1970-01-01T00:00:00Z</time>
      </trkpt>
      <trkpt lat="39.470667" lon="-5.152837">
        <ele>626.5</ele>
        <time>1970-01-01T00:00:00Z</time>
      </trkpt>
      <trkpt lat="39.470667" lon="-5.152837">
        <ele>626.5</ele>
        <time>1970-01-01T00:00:00Z</time>
      </trkpt>
      <trkpt lat="39.470686" lon="-5.152818">
        <ele>626.2</ele>
        <time>1970-01-01T00:00:00Z</time>
      </trkpt>
      <trkpt lat="39.470686" lon="-5.152818">
        <ele>626.2</ele>
        <time>1970-01-01T00:00:00Z</time>
      </trkpt>
      <trkpt lat="39.470686" lon="-5.152818">
        <ele>626.2</ele>
        <time>1970-01-01T00:00:00Z</time>
      </trkpt>
      <trkpt lat="39.470686" lon="-5.152818">
        <ele>626.2</ele>
        <time>1970-01-01T00:00:00Z</time>
      </trkpt>
      <trkpt lat="39.470705" lon="-5.152800">
        <ele>626.0</ele>
        <time>1970-01-01T00:00:00Z</time>
      </trkpt>
      <trkpt lat="39.470705" lon="-5.152800">
        <ele>626.0</ele>
        <time>1970-01-01T00:00:00Z</time>
      </trkpt>
      <trkpt lat="39.470705" lon="-5.152800">
        <ele>626.0</ele>
        <time>1970-01-01T00:00:00Z</time>
      </trkpt>
      <trkpt lat="39.470705" lon="-5.152800">
        <ele>626.0</ele>
        <time>1970-01-01T00:00:00Z</time>
      </trkpt>
      <trkpt lat="39.470723" lon="-5.152780">
        <ele>625.8</ele>
        <time>1970-01-01T00:00:00Z</time>
      </trkpt>
      <trkpt lat="39.470723" lon="-5.152780">
        <ele>625.8</ele>
        <time>1970-01-01T00:00:00Z</time>
      </trkpt>
      <trkpt lat="39.470723" lon="-5.152780">
        <ele>625.8</ele>
        <time>1970-01-01T00:00:00Z</time>
      </trkpt>
      <trkpt lat="39.470723" lon="-5.152780">
        <ele>625.8</ele>
        <time>1970-01-01T00:00:00Z</time>
      </trkpt>
      <trkpt lat="39.470741" lon="-5.152760">
        <ele>625.4</ele>
        <time>1970-01-01T00:00:00Z</time>
      </trkpt>
      <trkpt lat="39.470741" lon="-5.152760">
        <ele>625.4</ele>
        <time>1970-01-01T00:00:00Z</time>
      </trkpt>
      <trkpt lat="39.470741" lon="-5.152760">
        <ele>625.4</ele>
        <time>1970-01-01T00:00:00Z</time>
      </trkpt>
      <trkpt lat="39.470741" lon="-5.152760">
        <ele>625.4</ele>
        <time>1970-01-01T00:00:00Z</time>
      </trkpt>
      <trkpt lat="39.470757" lon="-5.152742">
        <ele>625.2</ele>
        <time>1970-01-01T00:00:00Z</time>
      </trkpt>
      <trkpt lat="39.470757" lon="-5.152742">
        <ele>625.2</ele>
        <time>1970-01-01T00:00:00Z</time>
      </trkpt>
      <trkpt lat="39.470757" lon="-5.152742">
        <ele>625.2</ele>
        <time>1970-01-01T00:00:00Z</time>
      </trkpt>
      <trkpt lat="39.470757" lon="-5.152742">
        <ele>625.2</ele>
        <time>1970-01-01T00:00:00Z</time>
      </trkpt>
      <trkpt lat="39.470779" lon="-5.152719">
        <ele>624.8</ele>
        <time>1970-01-01T00:00:00Z</time>
      </trkpt>
      <trkpt lat="39.470779" lon="-5.152719">
        <ele>624.8</ele>
        <time>1970-01-01T00:00:00Z</time>
      </trkpt>
      <trkpt lat="39.470779" lon="-5.152719">
        <ele>624.8</ele>
        <time>1970-01-01T00:00:00Z</time>
      </trkpt>
      <trkpt lat="39.470779" lon="-5.152719">
        <ele>624.8</ele>
        <time>1970-01-01T00:00:00Z</time>
      </trkpt>
      <trkpt lat="39.470800" lon="-5.152694">
        <ele>624.5</ele>
        <time>1970-01-01T00:00:00Z</time>
      </trkpt>
      <trkpt lat="39.470800" lon="-5.152694">
        <ele>624.5</ele>
        <time>1970-01-01T00:00:00Z</time>
      </trkpt>
      <trkpt lat="39.470800" lon="-5.152694">
        <ele>624.5</ele>
        <time>1970-01-01T00:00:00Z</time>
      </trkpt>
      <trkpt lat="39.470800" lon="-5.152694">
        <ele>624.5</ele>
        <time>1970-01-01T00:00:00Z</time>
      </trkpt>
      <trkpt lat="39.470818" lon="-5.152671">
        <ele>624.4</ele>
        <time>1970-01-01T00:00:00Z</time>
      </trkpt>
      <trkpt lat="39.470818" lon="-5.152671">
        <ele>624.4</ele>
        <time>1970-01-01T00:00:00Z</time>
      </trkpt>
      <trkpt lat="39.470818" lon="-5.152671">
        <ele>624.4</ele>
        <time>1970-01-01T00:00:00Z</time>
      </trkpt>
      <trkpt lat="39.470818" lon="-5.152671">
        <ele>624.4</ele>
        <time>1970-01-01T00:00:00Z</time>
      </trkpt>
      <trkpt lat="39.470837" lon="-5.152647">
        <ele>624.2</ele>
        <time>1970-01-01T00:00:00Z</time>
      </trkpt>
      <trkpt lat="39.470837" lon="-5.152647">
        <ele>624.2</ele>
        <time>1970-01-01T00:00:00Z</time>
      </trkpt>
      <trkpt lat="39.470837" lon="-5.152647">
        <ele>624.2</ele>
        <time>1970-01-01T00:00:00Z</time>
      </trkpt>
      <trkpt lat="39.470837" lon="-5.152647">
        <ele>624.2</ele>
        <time>1970-01-01T00:00:00Z</time>
      </trkpt>
      <trkpt lat="39.470866" lon="-5.152612">
        <ele>623.8</ele>
        <time>1970-01-01T00:00:00Z</time>
      </trkpt>
      <trkpt lat="39.470866" lon="-5.152612">
        <ele>623.8</ele>
        <time>1970-01-01T00:00:00Z</time>
      </trkpt>
      <trkpt lat="39.470866" lon="-5.152612">
        <ele>623.8</ele>
        <time>1970-01-01T00:00:00Z</time>
      </trkpt>
      <trkpt lat="39.470866" lon="-5.152612">
        <ele>623.8</ele>
        <time>1970-01-01T00:00:00Z</time>
      </trkpt>
      <trkpt lat="39.470882" lon="-5.152595">
        <ele>623.6</ele>
        <time>1970-01-01T00:00:00Z</time>
      </trkpt>
      <trkpt lat="39.470882" lon="-5.152595">
        <ele>623.6</ele>
        <time>1970-01-01T00:00:00Z</time>
      </trkpt>
      <trkpt lat="39.470882" lon="-5.152595">
        <ele>623.6</ele>
        <time>1970-01-01T00:00:00Z</time>
      </trkpt>
      <trkpt lat="39.470882" lon="-5.152595">
        <ele>623.6</ele>
        <time>1970-01-01T00:00:00Z</time>
      </trkpt>
      <trkpt lat="39.470899" lon="-5.152576">
        <ele>623.3</ele>
        <time>1970-01-01T00:00:00Z</time>
      </trkpt>
      <trkpt lat="39.470899" lon="-5.152576">
        <ele>623.3</ele>
        <time>1970-01-01T00:00:00Z</time>
      </trkpt>
      <trkpt lat="39.470899" lon="-5.152576">
        <ele>623.3</ele>
        <time>1970-01-01T00:00:00Z</time>
      </trkpt>
      <trkpt lat="39.470899" lon="-5.152576">
        <ele>623.3</ele>
        <time>1970-01-01T00:00:00Z</time>
      </trkpt>
      <trkpt lat="39.470910" lon="-5.152564">
        <ele>623.2</ele>
        <time>1970-01-01T00:00:00Z</time>
      </trkpt>
      <trkpt lat="39.470910" lon="-5.152564">
        <ele>623.2</ele>
        <time>1970-01-01T00:00:00Z</time>
      </trkpt>
      <trkpt lat="39.470910" lon="-5.152564">
        <ele>623.2</ele>
        <time>1970-01-01T00:00:00Z</time>
      </trkpt>
      <trkpt lat="39.470910" lon="-5.152564">
        <ele>623.2</ele>
        <time>1970-01-01T00:00:00Z</time>
      </trkpt>
      <trkpt lat="39.470934" lon="-5.152534">
        <ele>622.9</ele>
        <time>1970-01-01T00:00:00Z</time>
      </trkpt>
      <trkpt lat="39.470934" lon="-5.152534">
        <ele>622.9</ele>
        <time>1970-01-01T00:00:00Z</time>
      </trkpt>
      <trkpt lat="39.470934" lon="-5.152534">
        <ele>622.9</ele>
        <time>1970-01-01T00:00:00Z</time>
      </trkpt>
      <trkpt lat="39.470934" lon="-5.152534">
        <ele>622.9</ele>
        <time>1970-01-01T00:00:00Z</time>
      </trkpt>
      <trkpt lat="39.471014" lon="-5.152442">
        <ele>622.0</ele>
        <time>1970-01-01T00:00:00Z</time>
      </trkpt>
      <trkpt lat="39.471014" lon="-5.152442">
        <ele>622.0</ele>
        <time>1970-01-01T00:00:00Z</time>
      </trkpt>
      <trkpt lat="39.471014" lon="-5.152442">
        <ele>622.0</ele>
        <time>1970-01-01T00:00:00Z</time>
      </trkpt>
      <trkpt lat="39.471014" lon="-5.152442">
        <ele>622.0</ele>
        <time>1970-01-01T00:00:00Z</time>
      </trkpt>
      <trkpt lat="39.471070" lon="-5.152396">
        <ele>621.1</ele>
        <time>1970-01-01T00:00:00Z</time>
      </trkpt>
      <trkpt lat="39.471070" lon="-5.152396">
        <ele>621.1</ele>
        <time>1970-01-01T00:00:00Z</time>
      </trkpt>
      <trkpt lat="39.471070" lon="-5.152396">
        <ele>621.1</ele>
        <time>1970-01-01T00:00:00Z</time>
      </trkpt>
      <trkpt lat="39.471070" lon="-5.152396">
        <ele>621.1</ele>
        <time>1970-01-01T00:00:00Z</time>
      </trkpt>
      <trkpt lat="39.471100" lon="-5.152381">
        <ele>620.5</ele>
        <time>1970-01-01T00:00:00Z</time>
      </trkpt>
      <trkpt lat="39.471100" lon="-5.152381">
        <ele>620.5</ele>
        <time>1970-01-01T00:00:00Z</time>
      </trkpt>
      <trkpt lat="39.471100" lon="-5.152381">
        <ele>620.5</ele>
        <time>1970-01-01T00:00:00Z</time>
      </trkpt>
      <trkpt lat="39.471100" lon="-5.152381">
        <ele>620.5</ele>
        <time>1970-01-01T00:00:00Z</time>
      </trkpt>
      <trkpt lat="39.471148" lon="-5.152367">
        <ele>619.2</ele>
        <time>1970-01-01T00:00:00Z</time>
      </trkpt>
      <trkpt lat="39.471148" lon="-5.152367">
        <ele>619.2</ele>
        <time>1970-01-01T00:00:00Z</time>
      </trkpt>
      <trkpt lat="39.471148" lon="-5.152367">
        <ele>619.2</ele>
        <time>1970-01-01T00:00:00Z</time>
      </trkpt>
      <trkpt lat="39.471148" lon="-5.152367">
        <ele>619.2</ele>
        <time>1970-01-01T00:00:00Z</time>
      </trkpt>
      <trkpt lat="39.471174" lon="-5.152361">
        <ele>618.4</ele>
        <time>1970-01-01T00:00:00Z</time>
      </trkpt>
      <trkpt lat="39.471174" lon="-5.152361">
        <ele>618.4</ele>
        <time>1970-01-01T00:00:00Z</time>
      </trkpt>
      <trkpt lat="39.471174" lon="-5.152361">
        <ele>618.4</ele>
        <time>1970-01-01T00:00:00Z</time>
      </trkpt>
      <trkpt lat="39.471174" lon="-5.152361">
        <ele>618.4</ele>
        <time>1970-01-01T00:00:00Z</time>
      </trkpt>
      <trkpt lat="39.471202" lon="-5.152355">
        <ele>617.5</ele>
        <time>1970-01-01T00:00:00Z</time>
      </trkpt>
      <trkpt lat="39.471202" lon="-5.152355">
        <ele>617.5</ele>
        <time>1970-01-01T00:00:00Z</time>
      </trkpt>
      <trkpt lat="39.471202" lon="-5.152355">
        <ele>617.5</ele>
        <time>1970-01-01T00:00:00Z</time>
      </trkpt>
      <trkpt lat="39.471202" lon="-5.152355">
        <ele>617.5</ele>
        <time>1970-01-01T00:00:00Z</time>
      </trkpt>
      <trkpt lat="39.471228" lon="-5.152352">
        <ele>616.6</ele>
        <time>1970-01-01T00:00:00Z</time>
      </trkpt>
      <trkpt lat="39.471228" lon="-5.152352">
        <ele>616.6</ele>
        <time>1970-01-01T00:00:00Z</time>
      </trkpt>
      <trkpt lat="39.471228" lon="-5.152352">
        <ele>616.6</ele>
        <time>1970-01-01T00:00:00Z</time>
      </trkpt>
      <trkpt lat="39.471228" lon="-5.152352">
        <ele>616.6</ele>
        <time>1970-01-01T00:00:00Z</time>
      </trkpt>
      <trkpt lat="39.471266" lon="-5.152347">
        <ele>615.4</ele>
        <time>1970-01-01T00:00:00Z</time>
      </trkpt>
      <trkpt lat="39.471266" lon="-5.152347">
        <ele>615.4</ele>
        <time>1970-01-01T00:00:00Z</time>
      </trkpt>
      <trkpt lat="39.471266" lon="-5.152347">
        <ele>615.4</ele>
        <time>1970-01-01T00:00:00Z</time>
      </trkpt>
      <trkpt lat="39.471266" lon="-5.152347">
        <ele>615.4</ele>
        <time>1970-01-01T00:00:00Z</time>
      </trkpt>
      <trkpt lat="39.471326" lon="-5.152342">
        <ele>613.2</ele>
        <time>1970-01-01T00:00:00Z</time>
      </trkpt>
      <trkpt lat="39.471326" lon="-5.152342">
        <ele>613.2</ele>
        <time>1970-01-01T00:00:00Z</time>
      </trkpt>
      <trkpt lat="39.471326" lon="-5.152342">
        <ele>613.2</ele>
        <time>1970-01-01T00:00:00Z</time>
      </trkpt>
      <trkpt lat="39.471326" lon="-5.152342">
        <ele>613.2</ele>
        <time>1970-01-01T00:00:00Z</time>
      </trkpt>
      <trkpt lat="39.471358" lon="-5.152342">
        <ele>612.0</ele>
        <time>1970-01-01T00:00:00Z</time>
      </trkpt>
      <trkpt lat="39.471358" lon="-5.152342">
        <ele>612.0</ele>
        <time>1970-01-01T00:00:00Z</time>
      </trkpt>
      <trkpt lat="39.471358" lon="-5.152342">
        <ele>612.0</ele>
        <time>1970-01-01T00:00:00Z</time>
      </trkpt>
      <trkpt lat="39.471358" lon="-5.152342">
        <ele>612.0</ele>
        <time>1970-01-01T00:00:00Z</time>
      </trkpt>
      <trkpt lat="39.471389" lon="-5.152341">
        <ele>610.9</ele>
        <time>1970-01-01T00:00:00Z</time>
      </trkpt>
      <trkpt lat="39.471389" lon="-5.152341">
        <ele>610.9</ele>
        <time>1970-01-01T00:00:00Z</time>
      </trkpt>
      <trkpt lat="39.471389" lon="-5.152341">
        <ele>610.9</ele>
        <time>1970-01-01T00:00:00Z</time>
      </trkpt>
      <trkpt lat="39.471389" lon="-5.152341">
        <ele>610.9</ele>
        <time>1970-01-01T00:00:00Z</time>
      </trkpt>
      <trkpt lat="39.471413" lon="-5.152341">
        <ele>610.0</ele>
        <time>1970-01-01T00:00:00Z</time>
      </trkpt>
      <trkpt lat="39.471413" lon="-5.152341">
        <ele>610.0</ele>
        <time>1970-01-01T00:00:00Z</time>
      </trkpt>
      <trkpt lat="39.471413" lon="-5.152341">
        <ele>610.0</ele>
        <time>1970-01-01T00:00:00Z</time>
      </trkpt>
      <trkpt lat="39.471413" lon="-5.152341">
        <ele>610.0</ele>
        <time>1970-01-01T00:00:00Z</time>
      </trkpt>
      <trkpt lat="39.471449" lon="-5.152340">
        <ele>608.9</ele>
        <time>1970-01-01T00:00:00Z</time>
      </trkpt>
      <trkpt lat="39.471449" lon="-5.152340">
        <ele>608.9</ele>
        <time>1970-01-01T00:00:00Z</time>
      </trkpt>
      <trkpt lat="39.471449" lon="-5.152340">
        <ele>608.9</ele>
        <time>1970-01-01T00:00:00Z</time>
      </trkpt>
      <trkpt lat="39.471449" lon="-5.152340">
        <ele>608.9</ele>
        <time>1970-01-01T00:00:00Z</time>
      </trkpt>
      <trkpt lat="39.471518" lon="-5.152353">
        <ele>606.4</ele>
        <time>1970-01-01T00:00:00Z</time>
      </trkpt>
      <trkpt lat="39.471518" lon="-5.152353">
        <ele>606.4</ele>
        <time>1970-01-01T00:00:00Z</time>
      </trkpt>
      <trkpt lat="39.471518" lon="-5.152353">
        <ele>606.4</ele>
        <time>1970-01-01T00:00:00Z</time>
      </trkpt>
      <trkpt lat="39.471518" lon="-5.152353">
        <ele>606.4</ele>
        <time>1970-01-01T00:00:00Z</time>
      </trkpt>
      <trkpt lat="39.471554" lon="-5.152356">
        <ele>605.2</ele>
        <time>1970-01-01T00:00:00Z</time>
      </trkpt>
      <trkpt lat="39.471554" lon="-5.152356">
        <ele>605.2</ele>
        <time>1970-01-01T00:00:00Z</time>
      </trkpt>
      <trkpt lat="39.471554" lon="-5.152356">
        <ele>605.2</ele>
        <time>1970-01-01T00:00:00Z</time>
      </trkpt>
      <trkpt lat="39.471554" lon="-5.152356">
        <ele>605.2</ele>
        <time>1970-01-01T00:00:00Z</time>
      </trkpt>
      <trkpt lat="39.471598" lon="-5.152360">
        <ele>603.8</ele>
        <time>1970-01-01T00:00:00Z</time>
      </trkpt>
      <trkpt lat="39.471598" lon="-5.152360">
        <ele>603.8</ele>
        <time>1970-01-01T00:00:00Z</time>
      </trkpt>
      <trkpt lat="39.471598" lon="-5.152360">
        <ele>603.8</ele>
        <time>1970-01-01T00:00:00Z</time>
      </trkpt>
      <trkpt lat="39.471598" lon="-5.152360">
        <ele>603.8</ele>
        <time>1970-01-01T00:00:00Z</time>
      </trkpt>
      <trkpt lat="39.471640" lon="-5.152363">
        <ele>602.4</ele>
        <time>1970-01-01T00:00:00Z</time>
      </trkpt>
      <trkpt lat="39.471640" lon="-5.152363">
        <ele>602.4</ele>
        <time>1970-01-01T00:00:00Z</time>
      </trkpt>
      <trkpt lat="39.471640" lon="-5.152363">
        <ele>602.4</ele>
        <time>1970-01-01T00:00:00Z</time>
      </trkpt>
      <trkpt lat="39.471640" lon="-5.152363">
        <ele>602.4</ele>
        <time>1970-01-01T00:00:00Z</time>
      </trkpt>
      <trkpt lat="39.471680" lon="-5.152368">
        <ele>601.1</ele>
        <time>1970-01-01T00:00:00Z</time>
      </trkpt>
      <trkpt lat="39.471680" lon="-5.152368">
        <ele>601.1</ele>
        <time>1970-01-01T00:00:00Z</time>
      </trkpt>
      <trkpt lat="39.471680" lon="-5.152368">
        <ele>601.1</ele>
        <time>1970-01-01T00:00:00Z</time>
      </trkpt>
      <trkpt lat="39.471680" lon="-5.152368">
        <ele>601.1</ele>
        <time>1970-01-01T00:00:00Z</time>
      </trkpt>
      <trkpt lat="39.471716" lon="-5.152372">
        <ele>599.9</ele>
        <time>1970-01-01T00:00:00Z</time>
      </trkpt>
      <trkpt lat="39.471716" lon="-5.152372">
        <ele>599.9</ele>
        <time>1970-01-01T00:00:00Z</time>
      </trkpt>
      <trkpt lat="39.471716" lon="-5.152372">
        <ele>599.9</ele>
        <time>1970-01-01T00:00:00Z</time>
      </trkpt>
      <trkpt lat="39.471716" lon="-5.152372">
        <ele>599.9</ele>
        <time>1970-01-01T00:00:00Z</time>
      </trkpt>
      <trkpt lat="39.471751" lon="-5.152377">
        <ele>598.7</ele>
        <time>1970-01-01T00:00:00Z</time>
      </trkpt>
      <trkpt lat="39.471751" lon="-5.152377">
        <ele>598.7</ele>
        <time>1970-01-01T00:00:00Z</time>
      </trkpt>
      <trkpt lat="39.471751" lon="-5.152377">
        <ele>598.7</ele>
        <time>1970-01-01T00:00:00Z</time>
      </trkpt>
      <trkpt lat="39.471751" lon="-5.152377">
        <ele>598.7</ele>
        <time>1970-01-01T00:00:00Z</time>
      </trkpt>
      <trkpt lat="39.471793" lon="-5.152383">
        <ele>597.3</ele>
        <time>1970-01-01T00:00:00Z</time>
      </trkpt>
      <trkpt lat="39.471793" lon="-5.152383">
        <ele>597.3</ele>
        <time>1970-01-01T00:00:00Z</time>
      </trkpt>
      <trkpt lat="39.471793" lon="-5.152383">
        <ele>597.3</ele>
        <time>1970-01-01T00:00:00Z</time>
      </trkpt>
      <trkpt lat="39.471793" lon="-5.152383">
        <ele>597.3</ele>
        <time>1970-01-01T00:00:00Z</time>
      </trkpt>
      <trkpt lat="39.471855" lon="-5.152380">
        <ele>595.5</ele>
        <time>1970-01-01T00:00:00Z</time>
      </trkpt>
      <trkpt lat="39.471855" lon="-5.152380">
        <ele>595.5</ele>
        <time>1970-01-01T00:00:00Z</time>
      </trkpt>
      <trkpt lat="39.471855" lon="-5.152380">
        <ele>595.5</ele>
        <time>1970-01-01T00:00:00Z</time>
      </trkpt>
      <trkpt lat="39.471855" lon="-5.152380">
        <ele>595.5</ele>
        <time>1970-01-01T00:00:00Z</time>
      </trkpt>
      <trkpt lat="39.471896" lon="-5.152379">
        <ele>594.3</ele>
        <time>1970-01-01T00:00:00Z</time>
      </trkpt>
      <trkpt lat="39.471896" lon="-5.152379">
        <ele>594.3</ele>
        <time>1970-01-01T00:00:00Z</time>
      </trkpt>
      <trkpt lat="39.471896" lon="-5.152379">
        <ele>594.3</ele>
        <time>1970-01-01T00:00:00Z</time>
      </trkpt>
      <trkpt lat="39.471896" lon="-5.152379">
        <ele>594.3</ele>
        <time>1970-01-01T00:00:00Z</time>
      </trkpt>
      <trkpt lat="39.471933" lon="-5.152374">
        <ele>593.4</ele>
        <time>1970-01-01T00:00:00Z</time>
      </trkpt>
      <trkpt lat="39.471933" lon="-5.152374">
        <ele>593.4</ele>
        <time>1970-01-01T00:00:00Z</time>
      </trkpt>
      <trkpt lat="39.471933" lon="-5.152374">
        <ele>593.4</ele>
        <time>1970-01-01T00:00:00Z</time>
      </trkpt>
      <trkpt lat="39.471933" lon="-5.152374">
        <ele>593.4</ele>
        <time>1970-01-01T00:00:00Z</time>
      </trkpt>
      <trkpt lat="39.471973" lon="-5.152360">
        <ele>592.6</ele>
        <time>1970-01-01T00:00:00Z</time>
      </trkpt>
      <trkpt lat="39.471973" lon="-5.152360">
        <ele>592.6</ele>
        <time>1970-01-01T00:00:00Z</time>
      </trkpt>
      <trkpt lat="39.471973" lon="-5.152360">
        <ele>592.6</ele>
        <time>1970-01-01T00:00:00Z</time>
      </trkpt>
      <trkpt lat="39.471973" lon="-5.152360">
        <ele>592.6</ele>
        <time>1970-01-01T00:00:00Z</time>
      </trkpt>
      <trkpt lat="39.472013" lon="-5.152337">
        <ele>592.2</ele>
        <time>1970-01-01T00:00:00Z</time>
      </trkpt>
      <trkpt lat="39.472013" lon="-5.152337">
        <ele>592.2</ele>
        <time>1970-01-01T00:00:00Z</time>
      </trkpt>
      <trkpt lat="39.472013" lon="-5.152337">
        <ele>592.2</ele>
        <time>1970-01-01T00:00:00Z</time>
      </trkpt>
      <trkpt lat="39.472013" lon="-5.152337">
        <ele>592.2</ele>
        <time>1970-01-01T00:00:00Z</time>
      </trkpt>
      <trkpt lat="39.472049" lon="-5.152302">
        <ele>592.4</ele>
        <time>1970-01-01T00:00:00Z</time>
      </trkpt>
      <trkpt lat="39.472049" lon="-5.152302">
        <ele>592.4</ele>
        <time>1970-01-01T00:00:00Z</time>
      </trkpt>
      <trkpt lat="39.472049" lon="-5.152302">
        <ele>592.4</ele>
        <time>1970-01-01T00:00:00Z</time>
      </trkpt>
      <trkpt lat="39.472049" lon="-5.152302">
        <ele>592.4</ele>
        <time>1970-01-01T00:00:00Z</time>
      </trkpt>
      <trkpt lat="39.472080" lon="-5.152267">
        <ele>592.7</ele>
        <time>1970-01-01T00:00:00Z</time>
      </trkpt>
      <trkpt lat="39.472080" lon="-5.152267">
        <ele>592.7</ele>
        <time>1970-01-01T00:00:00Z</time>
      </trkpt>
      <trkpt lat="39.472080" lon="-5.152267">
        <ele>592.7</ele>
        <time>1970-01-01T00:00:00Z</time>
      </trkpt>
      <trkpt lat="39.472080" lon="-5.152267">
        <ele>592.7</ele>
        <time>1970-01-01T00:00:00Z</time>
      </trkpt>
      <trkpt lat="39.472107" lon="-5.152229">
        <ele>593.1</ele>
        <time>1970-01-01T00:00:00Z</time>
      </trkpt>
      <trkpt lat="39.472107" lon="-5.152229">
        <ele>593.1</ele>
        <time>1970-01-01T00:00:00Z</time>
      </trkpt>
      <trkpt lat="39.472107" lon="-5.152229">
        <ele>593.1</ele>
        <time>1970-01-01T00:00:00Z</time>
      </trkpt>
      <trkpt lat="39.472107" lon="-5.152229">
        <ele>593.1</ele>
        <time>1970-01-01T00:00:00Z</time>
      </trkpt>
      <trkpt lat="39.472130" lon="-5.152193">
        <ele>593.5</ele>
        <time>1970-01-01T00:00:00Z</time>
      </trkpt>
      <trkpt lat="39.472130" lon="-5.152193">
        <ele>593.5</ele>
        <time>1970-01-01T00:00:00Z</time>
      </trkpt>
      <trkpt lat="39.472130" lon="-5.152193">
        <ele>593.5</ele>
        <time>1970-01-01T00:00:00Z</time>
      </trkpt>
      <trkpt lat="39.472130" lon="-5.152193">
        <ele>593.5</ele>
        <time>1970-01-01T00:00:00Z</time>
      </trkpt>
      <trkpt lat="39.472181" lon="-5.152071">
        <ele>596.1</ele>
        <time>1970-01-01T00:00:00Z</time>
      </trkpt>
      <trkpt lat="39.472181" lon="-5.152071">
        <ele>596.1</ele>
        <time>1970-01-01T00:00:00Z</time>
      </trkpt>
      <trkpt lat="39.472181" lon="-5.152071">
        <ele>596.1</ele>
        <time>1970-01-01T00:00:00Z</time>
      </trkpt>
      <trkpt lat="39.472181" lon="-5.152071">
        <ele>596.1</ele>
        <time>1970-01-01T00:00:00Z</time>
      </trkpt>
      <trkpt lat="39.472199" lon="-5.152039">
        <ele>596.7</ele>
        <time>1970-01-01T00:00:00Z</time>
      </trkpt>
      <trkpt lat="39.472199" lon="-5.152039">
        <ele>596.7</ele>
        <time>1970-01-01T00:00:00Z</time>
      </trkpt>
      <trkpt lat="39.472199" lon="-5.152039">
        <ele>596.7</ele>
        <time>1970-01-01T00:00:00Z</time>
      </trkpt>
      <trkpt lat="39.472199" lon="-5.152039">
        <ele>596.7</ele>
        <time>1970-01-01T00:00:00Z</time>
      </trkpt>
      <trkpt lat="39.472214" lon="-5.152010">
        <ele>597.2</ele>
        <time>1970-01-01T00:00:00Z</time>
      </trkpt>
      <trkpt lat="39.472214" lon="-5.152010">
        <ele>597.2</ele>
        <time>1970-01-01T00:00:00Z</time>
      </trkpt>
      <trkpt lat="39.472214" lon="-5.152010">
        <ele>597.2</ele>
        <time>1970-01-01T00:00:00Z</time>
      </trkpt>
      <trkpt lat="39.472214" lon="-5.152010">
        <ele>597.2</ele>
        <time>1970-01-01T00:00:00Z</time>
      </trkpt>
      <trkpt lat="39.472230" lon="-5.151981">
        <ele>597.7</ele>
        <time>1970-01-01T00:00:00Z</time>
      </trkpt>
      <trkpt lat="39.472230" lon="-5.151981">
        <ele>597.7</ele>
        <time>1970-01-01T00:00:00Z</time>
      </trkpt>
      <trkpt lat="39.472230" lon="-5.151981">
        <ele>597.7</ele>
        <time>1970-01-01T00:00:00Z</time>
      </trkpt>
      <trkpt lat="39.472230" lon="-5.151981">
        <ele>597.7</ele>
        <time>1970-01-01T00:00:00Z</time>
      </trkpt>
      <trkpt lat="39.472252" lon="-5.151942">
        <ele>598.4</ele>
        <time>1970-01-01T00:00:00Z</time>
      </trkpt>
      <trkpt lat="39.472252" lon="-5.151942">
        <ele>598.4</ele>
        <time>1970-01-01T00:00:00Z</time>
      </trkpt>
      <trkpt lat="39.472252" lon="-5.151942">
        <ele>598.4</ele>
        <time>1970-01-01T00:00:00Z</time>
      </trkpt>
      <trkpt lat="39.472252" lon="-5.151942">
        <ele>598.4</ele>
        <time>1970-01-01T00:00:00Z</time>
      </trkpt>
      <trkpt lat="39.472271" lon="-5.151914">
        <ele>598.8</ele>
        <time>1970-01-01T00:00:00Z</time>
      </trkpt>
      <trkpt lat="39.472271" lon="-5.151914">
        <ele>598.8</ele>
        <time>1970-01-01T00:00:00Z</time>
      </trkpt>
      <trkpt lat="39.472271" lon="-5.151914">
        <ele>598.8</ele>
        <time>1970-01-01T00:00:00Z</time>
      </trkpt>
      <trkpt lat="39.472271" lon="-5.151914">
        <ele>598.8</ele>
        <time>1970-01-01T00:00:00Z</time>
      </trkpt>
      <trkpt lat="39.472287" lon="-5.151891">
        <ele>599.0</ele>
        <time>1970-01-01T00:00:00Z</time>
      </trkpt>
      <trkpt lat="39.472287" lon="-5.151891">
        <ele>599.0</ele>
        <time>1970-01-01T00:00:00Z</time>
      </trkpt>
      <trkpt lat="39.472287" lon="-5.151891">
        <ele>599.0</ele>
        <time>1970-01-01T00:00:00Z</time>
      </trkpt>
      <trkpt lat="39.472287" lon="-5.151891">
        <ele>599.0</ele>
        <time>1970-01-01T00:00:00Z</time>
      </trkpt>
      <trkpt lat="39.472302" lon="-5.151868">
        <ele>599.4</ele>
        <time>1970-01-01T00:00:00Z</time>
      </trkpt>
      <trkpt lat="39.472302" lon="-5.151868">
        <ele>599.4</ele>
        <time>1970-01-01T00:00:00Z</time>
      </trkpt>
      <trkpt lat="39.472302" lon="-5.151868">
        <ele>599.4</ele>
        <time>1970-01-01T00:00:00Z</time>
      </trkpt>
      <trkpt lat="39.472302" lon="-5.151868">
        <ele>599.4</ele>
        <time>1970-01-01T00:00:00Z</time>
      </trkpt>
      <trkpt lat="39.472317" lon="-5.151835">
        <ele>600.0</ele>
        <time>1970-01-01T00:00:00Z</time>
      </trkpt>
      <trkpt lat="39.472317" lon="-5.151835">
        <ele>600.0</ele>
        <time>1970-01-01T00:00:00Z</time>
      </trkpt>
      <trkpt lat="39.472317" lon="-5.151835">
        <ele>600.0</ele>
        <time>1970-01-01T00:00:00Z</time>
      </trkpt>
      <trkpt lat="39.472317" lon="-5.151835">
        <ele>600.0</ele>
        <time>1970-01-01T00:00:00Z</time>
      </trkpt>
      <trkpt lat="39.472333" lon="-5.151804">
        <ele>600.6</ele>
        <time>1970-01-01T00:00:00Z</time>
      </trkpt>
      <trkpt lat="39.472333" lon="-5.151804">
        <ele>600.6</ele>
        <time>1970-01-01T00:00:00Z</time>
      </trkpt>
      <trkpt lat="39.472333" lon="-5.151804">
        <ele>600.6</ele>
        <time>1970-01-01T00:00:00Z</time>
      </trkpt>
      <trkpt lat="39.472333" lon="-5.151804">
        <ele>600.6</ele>
        <time>1970-01-01T00:00:00Z</time>
      </trkpt>
      <trkpt lat="39.472350" lon="-5.151767">
        <ele>601.4</ele>
        <time>1970-01-01T00:00:00Z</time>
      </trkpt>
      <trkpt lat="39.472350" lon="-5.151767">
        <ele>601.4</ele>
        <time>1970-01-01T00:00:00Z</time>
      </trkpt>
      <trkpt lat="39.472350" lon="-5.151767">
        <ele>601.4</ele>
        <time>1970-01-01T00:00:00Z</time>
      </trkpt>
      <trkpt lat="39.472350" lon="-5.151767">
        <ele>601.4</ele>
        <time>1970-01-01T00:00:00Z</time>
      </trkpt>
      <trkpt lat="39.472364" lon="-5.151727">
        <ele>602.3</ele>
        <time>1970-01-01T00:00:00Z</time>
      </trkpt>
      <trkpt lat="39.472364" lon="-5.151727">
        <ele>602.3</ele>
        <time>1970-01-01T00:00:00Z</time>
      </trkpt>
      <trkpt lat="39.472364" lon="-5.151727">
        <ele>602.3</ele>
        <time>1970-01-01T00:00:00Z</time>
      </trkpt>
      <trkpt lat="39.472364" lon="-5.151727">
        <ele>602.3</ele>
        <time>1970-01-01T00:00:00Z</time>
      </trkpt>
      <trkpt lat="39.472376" lon="-5.151698">
        <ele>602.9</ele>
        <time>1970-01-01T00:00:00Z</time>
      </trkpt>
      <trkpt lat="39.472376" lon="-5.151698">
        <ele>602.9</ele>
        <time>1970-01-01T00:00:00Z</time>
      </trkpt>
      <trkpt lat="39.472376" lon="-5.151698">
        <ele>602.9</ele>
        <time>1970-01-01T00:00:00Z</time>
      </trkpt>
      <trkpt lat="39.472376" lon="-5.151698">
        <ele>602.9</ele>
        <time>1970-01-01T00:00:00Z</time>
      </trkpt>
      <trkpt lat="39.472392" lon="-5.151666">
        <ele>603.3</ele>
        <time>1970-01-01T00:00:00Z</time>
      </trkpt>
      <trkpt lat="39.472392" lon="-5.151666">
        <ele>603.3</ele>
        <time>1970-01-01T00:00:00Z</time>
      </trkpt>
      <trkpt lat="39.472392" lon="-5.151666">
        <ele>603.3</ele>
        <time>1970-01-01T00:00:00Z</time>
      </trkpt>
      <trkpt lat="39.472392" lon="-5.151666">
        <ele>603.3</ele>
        <time>1970-01-01T00:00:00Z</time>
      </trkpt>
      <trkpt lat="39.472407" lon="-5.151638">
        <ele>603.7</ele>
        <time>1970-01-01T00:00:00Z</time>
      </trkpt>
      <trkpt lat="39.472407" lon="-5.151638">
        <ele>603.7</ele>
        <time>1970-01-01T00:00:00Z</time>
      </trkpt>
      <trkpt lat="39.472407" lon="-5.151638">
        <ele>603.7</ele>
        <time>1970-01-01T00:00:00Z</time>
      </trkpt>
      <trkpt lat="39.472407" lon="-5.151638">
        <ele>603.7</ele>
        <time>1970-01-01T00:00:00Z</time>
      </trkpt>
      <trkpt lat="39.472426" lon="-5.151609">
        <ele>604.0</ele>
        <time>1970-01-01T00:00:00Z</time>
      </trkpt>
      <trkpt lat="39.472426" lon="-5.151609">
        <ele>604.0</ele>
        <time>1970-01-01T00:00:00Z</time>
      </trkpt>
      <trkpt lat="39.472426" lon="-5.151609">
        <ele>604.0</ele>
        <time>1970-01-01T00:00:00Z</time>
      </trkpt>
      <trkpt lat="39.472426" lon="-5.151609">
        <ele>604.0</ele>
        <time>1970-01-01T00:00:00Z</time>
      </trkpt>
      <trkpt lat="39.472442" lon="-5.151587">
        <ele>604.1</ele>
        <time>1970-01-01T00:00:00Z</time>
      </trkpt>
      <trkpt lat="39.472442" lon="-5.151587">
        <ele>604.1</ele>
        <time>1970-01-01T00:00:00Z</time>
      </trkpt>
      <trkpt lat="39.472442" lon="-5.151587">
        <ele>604.1</ele>
        <time>1970-01-01T00:00:00Z</time>
      </trkpt>
      <trkpt lat="39.472442" lon="-5.151587">
        <ele>604.1</ele>
        <time>1970-01-01T00:00:00Z</time>
      </trkpt>
      <trkpt lat="39.472454" lon="-5.151570">
        <ele>604.2</ele>
        <time>1970-01-01T00:00:00Z</time>
      </trkpt>
      <trkpt lat="39.472454" lon="-5.151570">
        <ele>604.2</ele>
        <time>1970-01-01T00:00:00Z</time>
      </trkpt>
      <trkpt lat="39.472454" lon="-5.151570">
        <ele>604.2</ele>
        <time>1970-01-01T00:00:00Z</time>
      </trkpt>
      <trkpt lat="39.472454" lon="-5.151570">
        <ele>604.2</ele>
        <time>1970-01-01T00:00:00Z</time>
      </trkpt>
      <trkpt lat="39.472467" lon="-5.151552">
        <ele>604.4</ele>
        <time>1970-01-01T00:00:00Z</time>
      </trkpt>
      <trkpt lat="39.472467" lon="-5.151552">
        <ele>604.4</ele>
        <time>1970-01-01T00:00:00Z</time>
      </trkpt>
      <trkpt lat="39.472467" lon="-5.151552">
        <ele>604.4</ele>
        <time>1970-01-01T00:00:00Z</time>
      </trkpt>
      <trkpt lat="39.472467" lon="-5.151552">
        <ele>604.4</ele>
        <time>1970-01-01T00:00:00Z</time>
      </trkpt>
      <trkpt lat="39.472492" lon="-5.151518">
        <ele>604.6</ele>
        <time>1970-01-01T00:00:00Z</time>
      </trkpt>
      <trkpt lat="39.472492" lon="-5.151518">
        <ele>604.6</ele>
        <time>1970-01-01T00:00:00Z</time>
      </trkpt>
      <trkpt lat="39.472492" lon="-5.151518">
        <ele>604.6</ele>
        <time>1970-01-01T00:00:00Z</time>
      </trkpt>
      <trkpt lat="39.472492" lon="-5.151518">
        <ele>604.6</ele>
        <time>1970-01-01T00:00:00Z</time>
      </trkpt>
      <trkpt lat="39.472512" lon="-5.151491">
        <ele>604.8</ele>
        <time>1970-01-01T00:00:00Z</time>
      </trkpt>
      <trkpt lat="39.472512" lon="-5.151491">
        <ele>604.8</ele>
        <time>1970-01-01T00:00:00Z</time>
      </trkpt>
      <trkpt lat="39.472512" lon="-5.151491">
        <ele>604.8</ele>
        <time>1970-01-01T00:00:00Z</time>
      </trkpt>
      <trkpt lat="39.472512" lon="-5.151491">
        <ele>604.8</ele>
        <time>1970-01-01T00:00:00Z</time>
      </trkpt>
      <trkpt lat="39.472531" lon="-5.151466">
        <ele>604.9</ele>
        <time>1970-01-01T00:00:00Z</time>
      </trkpt>
      <trkpt lat="39.472531" lon="-5.151466">
        <ele>604.9</ele>
        <time>1970-01-01T00:00:00Z</time>
      </trkpt>
      <trkpt lat="39.472531" lon="-5.151466">
        <ele>604.9</ele>
        <time>1970-01-01T00:00:00Z</time>
      </trkpt>
      <trkpt lat="39.472531" lon="-5.151466">
        <ele>604.9</ele>
        <time>1970-01-01T00:00:00Z</time>
      </trkpt>
      <trkpt lat="39.472554" lon="-5.151439">
        <ele>604.7</ele>
        <time>1970-01-01T00:00:00Z</time>
      </trkpt>
      <trkpt lat="39.472554" lon="-5.151439">
        <ele>604.7</ele>
        <time>1970-01-01T00:00:00Z</time>
      </trkpt>
      <trkpt lat="39.472554" lon="-5.151439">
        <ele>604.7</ele>
        <time>1970-01-01T00:00:00Z</time>
      </trkpt>
      <trkpt lat="39.472554" lon="-5.151439">
        <ele>604.7</ele>
        <time>1970-01-01T00:00:00Z</time>
      </trkpt>
      <trkpt lat="39.472576" lon="-5.151415">
        <ele>604.4</ele>
        <time>1970-01-01T00:00:00Z</time>
      </trkpt>
      <trkpt lat="39.472576" lon="-5.151415">
        <ele>604.4</ele>
        <time>1970-01-01T00:00:00Z</time>
      </trkpt>
      <trkpt lat="39.472576" lon="-5.151415">
        <ele>604.4</ele>
        <time>1970-01-01T00:00:00Z</time>
      </trkpt>
      <trkpt lat="39.472576" lon="-5.151415">
        <ele>604.4</ele>
        <time>1970-01-01T00:00:00Z</time>
      </trkpt>
      <trkpt lat="39.472600" lon="-5.151386">
        <ele>604.0</ele>
        <time>1970-01-01T00:00:00Z</time>
      </trkpt>
      <trkpt lat="39.472600" lon="-5.151386">
        <ele>604.0</ele>
        <time>1970-01-01T00:00:00Z</time>
      </trkpt>
      <trkpt lat="39.472600" lon="-5.151386">
        <ele>604.0</ele>
        <time>1970-01-01T00:00:00Z</time>
      </trkpt>
      <trkpt lat="39.472600" lon="-5.151386">
        <ele>604.0</ele>
        <time>1970-01-01T00:00:00Z</time>
      </trkpt>
      <trkpt lat="39.472620" lon="-5.151361">
        <ele>603.7</ele>
        <time>1970-01-01T00:00:00Z</time>
      </trkpt>
      <trkpt lat="39.472620" lon="-5.151361">
        <ele>603.7</ele>
        <time>1970-01-01T00:00:00Z</time>
      </trkpt>
      <trkpt lat="39.472620" lon="-5.151361">
        <ele>603.7</ele>
        <time>1970-01-01T00:00:00Z</time>
      </trkpt>
      <trkpt lat="39.472620" lon="-5.151361">
        <ele>603.7</ele>
        <time>1970-01-01T00:00:00Z</time>
      </trkpt>
      <trkpt lat="39.472639" lon="-5.151336">
        <ele>603.5</ele>
        <time>1970-01-01T00:00:00Z</time>
      </trkpt>
      <trkpt lat="39.472639" lon="-5.151336">
        <ele>603.5</ele>
        <time>1970-01-01T00:00:00Z</time>
      </trkpt>
      <trkpt lat="39.472639" lon="-5.151336">
        <ele>603.5</ele>
        <time>1970-01-01T00:00:00Z</time>
      </trkpt>
      <trkpt lat="39.472639" lon="-5.151336">
        <ele>603.5</ele>
        <time>1970-01-01T00:00:00Z</time>
      </trkpt>
      <trkpt lat="39.472663" lon="-5.151305">
        <ele>603.1</ele>
        <time>1970-01-01T00:00:00Z</time>
      </trkpt>
      <trkpt lat="39.472663" lon="-5.151305">
        <ele>603.1</ele>
        <time>1970-01-01T00:00:00Z</time>
      </trkpt>
      <trkpt lat="39.472663" lon="-5.151305">
        <ele>603.1</ele>
        <time>1970-01-01T00:00:00Z</time>
      </trkpt>
      <trkpt lat="39.472663" lon="-5.151305">
        <ele>603.1</ele>
        <time>1970-01-01T00:00:00Z</time>
      </trkpt>
      <trkpt lat="39.472683" lon="-5.151275">
        <ele>603.0</ele>
        <time>1970-01-01T00:00:00Z</time>
      </trkpt>
      <trkpt lat="39.472683" lon="-5.151275">
        <ele>603.0</ele>
        <time>1970-01-01T00:00:00Z</time>
      </trkpt>
      <trkpt lat="39.472683" lon="-5.151275">
        <ele>603.0</ele>
        <time>1970-01-01T00:00:00Z</time>
      </trkpt>
      <trkpt lat="39.472683" lon="-5.151275">
        <ele>603.0</ele>
        <time>1970-01-01T00:00:00Z</time>
      </trkpt>
      <trkpt lat="39.472702" lon="-5.151247">
        <ele>602.8</ele>
        <time>1970-01-01T00:00:00Z</time>
      </trkpt>
      <trkpt lat="39.472702" lon="-5.151247">
        <ele>602.8</ele>
        <time>1970-01-01T00:00:00Z</time>
      </trkpt>
      <trkpt lat="39.472702" lon="-5.151247">
        <ele>602.8</ele>
        <time>1970-01-01T00:00:00Z</time>
      </trkpt>
      <trkpt lat="39.472702" lon="-5.151247">
        <ele>602.8</ele>
        <time>1970-01-01T00:00:00Z</time>
      </trkpt>
      <trkpt lat="39.472721" lon="-5.151218">
        <ele>602.3</ele>
        <time>1970-01-01T00:00:00Z</time>
      </trkpt>
      <trkpt lat="39.472721" lon="-5.151218">
        <ele>602.3</ele>
        <time>1970-01-01T00:00:00Z</time>
      </trkpt>
      <trkpt lat="39.472721" lon="-5.151218">
        <ele>602.3</ele>
        <time>1970-01-01T00:00:00Z</time>
      </trkpt>
      <trkpt lat="39.472721" lon="-5.151218">
        <ele>602.3</ele>
        <time>1970-01-01T00:00:00Z</time>
      </trkpt>
      <trkpt lat="39.472736" lon="-5.151192">
        <ele>601.9</ele>
        <time>1970-01-01T00:00:00Z</time>
      </trkpt>
      <trkpt lat="39.472736" lon="-5.151192">
        <ele>601.9</ele>
        <time>1970-01-01T00:00:00Z</time>
      </trkpt>
      <trkpt lat="39.472736" lon="-5.151192">
        <ele>601.9</ele>
        <time>1970-01-01T00:00:00Z</time>
      </trkpt>
      <trkpt lat="39.472736" lon="-5.151192">
        <ele>601.9</ele>
        <time>1970-01-01T00:00:00Z</time>
      </trkpt>
      <trkpt lat="39.472757" lon="-5.151157">
        <ele>601.3</ele>
        <time>1970-01-01T00:00:00Z</time>
      </trkpt>
      <trkpt lat="39.472757" lon="-5.151157">
        <ele>601.3</ele>
        <time>1970-01-01T00:00:00Z</time>
      </trkpt>
      <trkpt lat="39.472757" lon="-5.151157">
        <ele>601.3</ele>
        <time>1970-01-01T00:00:00Z</time>
      </trkpt>
      <trkpt lat="39.472757" lon="-5.151157">
        <ele>601.3</ele>
        <time>1970-01-01T00:00:00Z</time>
      </trkpt>
      <trkpt lat="39.472776" lon="-5.151126">
        <ele>600.8</ele>
        <time>1970-01-01T00:00:00Z</time>
      </trkpt>
      <trkpt lat="39.472776" lon="-5.151126">
        <ele>600.8</ele>
        <time>1970-01-01T00:00:00Z</time>
      </trkpt>
      <trkpt lat="39.472776" lon="-5.151126">
        <ele>600.8</ele>
        <time>1970-01-01T00:00:00Z</time>
      </trkpt>
      <trkpt lat="39.472776" lon="-5.151126">
        <ele>600.8</ele>
        <time>1970-01-01T00:00:00Z</time>
      </trkpt>
      <trkpt lat="39.472793" lon="-5.151095">
        <ele>600.4</ele>
        <time>1970-01-01T00:00:00Z</time>
      </trkpt>
      <trkpt lat="39.472793" lon="-5.151095">
        <ele>600.4</ele>
        <time>1970-01-01T00:00:00Z</time>
      </trkpt>
      <trkpt lat="39.472793" lon="-5.151095">
        <ele>600.4</ele>
        <time>1970-01-01T00:00:00Z</time>
      </trkpt>
      <trkpt lat="39.472793" lon="-5.151095">
        <ele>600.4</ele>
        <time>1970-01-01T00:00:00Z</time>
      </trkpt>
      <trkpt lat="39.472809" lon="-5.151064">
        <ele>600.1</ele>
        <time>1970-01-01T00:00:00Z</time>
      </trkpt>
      <trkpt lat="39.472809" lon="-5.151064">
        <ele>600.1</ele>
        <time>1970-01-01T00:00:00Z</time>
      </trkpt>
      <trkpt lat="39.472809" lon="-5.151064">
        <ele>600.1</ele>
        <time>1970-01-01T00:00:00Z</time>
      </trkpt>
      <trkpt lat="39.472809" lon="-5.151064">
        <ele>600.1</ele>
        <time>1970-01-01T00:00:00Z</time>
      </trkpt>
      <trkpt lat="39.472828" lon="-5.151026">
        <ele>599.7</ele>
        <time>1970-01-01T00:00:00Z</time>
      </trkpt>
      <trkpt lat="39.472828" lon="-5.151026">
        <ele>599.7</ele>
        <time>1970-01-01T00:00:00Z</time>
      </trkpt>
      <trkpt lat="39.472828" lon="-5.151026">
        <ele>599.7</ele>
        <time>1970-01-01T00:00:00Z</time>
      </trkpt>
      <trkpt lat="39.472828" lon="-5.151026">
        <ele>599.7</ele>
        <time>1970-01-01T00:00:00Z</time>
      </trkpt>
      <trkpt lat="39.472847" lon="-5.150988">
        <ele>599.5</ele>
        <time>1970-01-01T00:00:00Z</time>
      </trkpt>
      <trkpt lat="39.472847" lon="-5.150988">
        <ele>599.5</ele>
        <time>1970-01-01T00:00:00Z</time>
      </trkpt>
      <trkpt lat="39.472847" lon="-5.150988">
        <ele>599.5</ele>
        <time>1970-01-01T00:00:00Z</time>
      </trkpt>
      <trkpt lat="39.472847" lon="-5.150988">
        <ele>599.5</ele>
        <time>1970-01-01T00:00:00Z</time>
      </trkpt>
      <trkpt lat="39.472866" lon="-5.150949">
        <ele>599.4</ele>
        <time>1970-01-01T00:00:00Z</time>
      </trkpt>
      <trkpt lat="39.472866" lon="-5.150949">
        <ele>599.4</ele>
        <time>1970-01-01T00:00:00Z</time>
      </trkpt>
      <trkpt lat="39.472866" lon="-5.150949">
        <ele>599.4</ele>
        <time>1970-01-01T00:00:00Z</time>
      </trkpt>
      <trkpt lat="39.472866" lon="-5.150949">
        <ele>599.4</ele>
        <time>1970-01-01T00:00:00Z</time>
      </trkpt>
      <trkpt lat="39.472885" lon="-5.150913">
        <ele>599.2</ele>
        <time>1970-01-01T00:00:00Z</time>
      </trkpt>
      <trkpt lat="39.472885" lon="-5.150913">
        <ele>599.2</ele>
        <time>1970-01-01T00:00:00Z</time>
      </trkpt>
      <trkpt lat="39.472885" lon="-5.150913">
        <ele>599.2</ele>
        <time>1970-01-01T00:00:00Z</time>
      </trkpt>
      <trkpt lat="39.472885" lon="-5.150913">
        <ele>599.2</ele>
        <time>1970-01-01T00:00:00Z</time>
      </trkpt>
      <trkpt lat="39.472907" lon="-5.150874">
        <ele>598.9</ele>
        <time>1970-01-01T00:00:00Z</time>
      </trkpt>
      <trkpt lat="39.472907" lon="-5.150874">
        <ele>598.9</ele>
        <time>1970-01-01T00:00:00Z</time>
      </trkpt>
      <trkpt lat="39.472907" lon="-5.150874">
        <ele>598.9</ele>
        <time>1970-01-01T00:00:00Z</time>
      </trkpt>
      <trkpt lat="39.472907" lon="-5.150874">
        <ele>598.9</ele>
        <time>1970-01-01T00:00:00Z</time>
      </trkpt>
      <trkpt lat="39.472931" lon="-5.150844">
        <ele>598.4</ele>
        <time>1970-01-01T00:00:00Z</time>
      </trkpt>
      <trkpt lat="39.472931" lon="-5.150844">
        <ele>598.4</ele>
        <time>1970-01-01T00:00:00Z</time>
      </trkpt>
      <trkpt lat="39.472931" lon="-5.150844">
        <ele>598.4</ele>
        <time>1970-01-01T00:00:00Z</time>
      </trkpt>
      <trkpt lat="39.472931" lon="-5.150844">
        <ele>598.4</ele>
        <time>1970-01-01T00:00:00Z</time>
      </trkpt>
      <trkpt lat="39.472957" lon="-5.150809">
        <ele>597.9</ele>
        <time>1970-01-01T00:00:00Z</time>
      </trkpt>
      <trkpt lat="39.472957" lon="-5.150809">
        <ele>597.9</ele>
        <time>1970-01-01T00:00:00Z</time>
      </trkpt>
      <trkpt lat="39.472957" lon="-5.150809">
        <ele>597.9</ele>
        <time>1970-01-01T00:00:00Z</time>
      </trkpt>
      <trkpt lat="39.472957" lon="-5.150809">
        <ele>597.9</ele>
        <time>1970-01-01T00:00:00Z</time>
      </trkpt>
      <trkpt lat="39.472977" lon="-5.150782">
        <ele>597.5</ele>
        <time>1970-01-01T00:00:00Z</time>
      </trkpt>
      <trkpt lat="39.472977" lon="-5.150782">
        <ele>597.5</ele>
        <time>1970-01-01T00:00:00Z</time>
      </trkpt>
      <trkpt lat="39.472977" lon="-5.150782">
        <ele>597.5</ele>
        <time>1970-01-01T00:00:00Z</time>
      </trkpt>
      <trkpt lat="39.472977" lon="-5.150782">
        <ele>597.5</ele>
        <time>1970-01-01T00:00:00Z</time>
      </trkpt>
      <trkpt lat="39.473001" lon="-5.150753">
        <ele>596.7</ele>
        <time>1970-01-01T00:00:00Z</time>
      </trkpt>
      <trkpt lat="39.473001" lon="-5.150753">
        <ele>596.7</ele>
        <time>1970-01-01T00:00:00Z</time>
      </trkpt>
      <trkpt lat="39.473001" lon="-5.150753">
        <ele>596.7</ele>
        <time>1970-01-01T00:00:00Z</time>
      </trkpt>
      <trkpt lat="39.473001" lon="-5.150753">
        <ele>596.7</ele>
        <time>1970-01-01T00:00:00Z</time>
      </trkpt>
      <trkpt lat="39.473027" lon="-5.150725">
        <ele>595.8</ele>
        <time>1970-01-01T00:00:00Z</time>
      </trkpt>
      <trkpt lat="39.473027" lon="-5.150725">
        <ele>595.8</ele>
        <time>1970-01-01T00:00:00Z</time>
      </trkpt>
      <trkpt lat="39.473027" lon="-5.150725">
        <ele>595.8</ele>
        <time>1970-01-01T00:00:00Z</time>
      </trkpt>
      <trkpt lat="39.473027" lon="-5.150725">
        <ele>595.8</ele>
        <time>1970-01-01T00:00:00Z</time>
      </trkpt>
      <trkpt lat="39.473051" lon="-5.150702">
        <ele>595.0</ele>
        <time>1970-01-01T00:00:00Z</time>
      </trkpt>
      <trkpt lat="39.473051" lon="-5.150702">
        <ele>595.0</ele>
        <time>1970-01-01T00:00:00Z</time>
      </trkpt>
      <trkpt lat="39.473051" lon="-5.150702">
        <ele>595.0</ele>
        <time>1970-01-01T00:00:00Z</time>
      </trkpt>
      <trkpt lat="39.473051" lon="-5.150702">
        <ele>595.0</ele>
        <time>1970-01-01T00:00:00Z</time>
      </trkpt>
      <trkpt lat="39.473080" lon="-5.150673">
        <ele>594.2</ele>
        <time>1970-01-01T00:00:00Z</time>
      </trkpt>
      <trkpt lat="39.473080" lon="-5.150673">
        <ele>594.2</ele>
        <time>1970-01-01T00:00:00Z</time>
      </trkpt>
      <trkpt lat="39.473080" lon="-5.150673">
        <ele>594.2</ele>
        <time>1970-01-01T00:00:00Z</time>
      </trkpt>
      <trkpt lat="39.473080" lon="-5.150673">
        <ele>594.2</ele>
        <time>1970-01-01T00:00:00Z</time>
      </trkpt>
      <trkpt lat="39.473104" lon="-5.150649">
        <ele>593.4</ele>
        <time>1970-01-01T00:00:00Z</time>
      </trkpt>
      <trkpt lat="39.473104" lon="-5.150649">
        <ele>593.4</ele>
        <time>1970-01-01T00:00:00Z</time>
      </trkpt>
      <trkpt lat="39.473104" lon="-5.150649">
        <ele>593.4</ele>
        <time>1970-01-01T00:00:00Z</time>
      </trkpt>
      <trkpt lat="39.473104" lon="-5.150649">
        <ele>593.4</ele>
        <time>1970-01-01T00:00:00Z</time>
      </trkpt>
      <trkpt lat="39.473132" lon="-5.150620">
        <ele>592.6</ele>
        <time>1970-01-01T00:00:00Z</time>
      </trkpt>
      <trkpt lat="39.473132" lon="-5.150620">
        <ele>592.6</ele>
        <time>1970-01-01T00:00:00Z</time>
      </trkpt>
      <trkpt lat="39.473132" lon="-5.150620">
        <ele>592.6</ele>
        <time>1970-01-01T00:00:00Z</time>
      </trkpt>
      <trkpt lat="39.473132" lon="-5.150620">
        <ele>592.6</ele>
        <time>1970-01-01T00:00:00Z</time>
      </trkpt>
      <trkpt lat="39.473158" lon="-5.150592">
        <ele>591.8</ele>
        <time>1970-01-01T00:00:00Z</time>
      </trkpt>
      <trkpt lat="39.473158" lon="-5.150592">
        <ele>591.8</ele>
        <time>1970-01-01T00:00:00Z</time>
      </trkpt>
      <trkpt lat="39.473158" lon="-5.150592">
        <ele>591.8</ele>
        <time>1970-01-01T00:00:00Z</time>
      </trkpt>
      <trkpt lat="39.473158" lon="-5.150592">
        <ele>591.8</ele>
        <time>1970-01-01T00:00:00Z</time>
      </trkpt>
      <trkpt lat="39.473180" lon="-5.150568">
        <ele>591.2</ele>
        <time>1970-01-01T00:00:00Z</time>
      </trkpt>
      <trkpt lat="39.473180" lon="-5.150568">
        <ele>591.2</ele>
        <time>1970-01-01T00:00:00Z</time>
      </trkpt>
      <trkpt lat="39.473180" lon="-5.150568">
        <ele>591.2</ele>
        <time>1970-01-01T00:00:00Z</time>
      </trkpt>
      <trkpt lat="39.473180" lon="-5.150568">
        <ele>591.2</ele>
        <time>1970-01-01T00:00:00Z</time>
      </trkpt>
      <trkpt lat="39.473204" lon="-5.150541">
        <ele>590.5</ele>
        <time>1970-01-01T00:00:00Z</time>
      </trkpt>
      <trkpt lat="39.473204" lon="-5.150541">
        <ele>590.5</ele>
        <time>1970-01-01T00:00:00Z</time>
      </trkpt>
      <trkpt lat="39.473204" lon="-5.150541">
        <ele>590.5</ele>
        <time>1970-01-01T00:00:00Z</time>
      </trkpt>
      <trkpt lat="39.473204" lon="-5.150541">
        <ele>590.5</ele>
        <time>1970-01-01T00:00:00Z</time>
      </trkpt>
      <trkpt lat="39.473226" lon="-5.150511">
        <ele>589.9</ele>
        <time>1970-01-01T00:00:00Z</time>
      </trkpt>
      <trkpt lat="39.473226" lon="-5.150511">
        <ele>589.9</ele>
        <time>1970-01-01T00:00:00Z</time>
      </trkpt>
      <trkpt lat="39.473226" lon="-5.150511">
        <ele>589.9</ele>
        <time>1970-01-01T00:00:00Z</time>
      </trkpt>
      <trkpt lat="39.473226" lon="-5.150511">
        <ele>589.9</ele>
        <time>1970-01-01T00:00:00Z</time>
      </trkpt>
      <trkpt lat="39.473245" lon="-5.150483">
        <ele>589.3</ele>
        <time>1970-01-01T00:00:00Z</time>
      </trkpt>
      <trkpt lat="39.473245" lon="-5.150483">
        <ele>589.3</ele>
        <time>1970-01-01T00:00:00Z</time>
      </trkpt>
      <trkpt lat="39.473245" lon="-5.150483">
        <ele>589.3</ele>
        <time>1970-01-01T00:00:00Z</time>
      </trkpt>
      <trkpt lat="39.473245" lon="-5.150483">
        <ele>589.3</ele>
        <time>1970-01-01T00:00:00Z</time>
      </trkpt>
      <trkpt lat="39.473267" lon="-5.150449">
        <ele>588.8</ele>
        <time>1970-01-01T00:00:00Z</time>
      </trkpt>
      <trkpt lat="39.473267" lon="-5.150449">
        <ele>588.8</ele>
        <time>1970-01-01T00:00:00Z</time>
      </trkpt>
      <trkpt lat="39.473267" lon="-5.150449">
        <ele>588.8</ele>
        <time>1970-01-01T00:00:00Z</time>
      </trkpt>
      <trkpt lat="39.473267" lon="-5.150449">
        <ele>588.8</ele>
        <time>1970-01-01T00:00:00Z</time>
      </trkpt>
      <trkpt lat="39.473292" lon="-5.150412">
        <ele>588.2</ele>
        <time>1970-01-01T00:00:00Z</time>
      </trkpt>
      <trkpt lat="39.473292" lon="-5.150412">
        <ele>588.2</ele>
        <time>1970-01-01T00:00:00Z</time>
      </trkpt>
      <trkpt lat="39.473292" lon="-5.150412">
        <ele>588.2</ele>
        <time>1970-01-01T00:00:00Z</time>
      </trkpt>
      <trkpt lat="39.473292" lon="-5.150412">
        <ele>588.2</ele>
        <time>1970-01-01T00:00:00Z</time>
      </trkpt>
      <trkpt lat="39.473314" lon="-5.150377">
        <ele>587.6</ele>
        <time>1970-01-01T00:00:00Z</time>
      </trkpt>
      <trkpt lat="39.473314" lon="-5.150377">
        <ele>587.6</ele>
        <time>1970-01-01T00:00:00Z</time>
      </trkpt>
      <trkpt lat="39.473314" lon="-5.150377">
        <ele>587.6</ele>
        <time>1970-01-01T00:00:00Z</time>
      </trkpt>
      <trkpt lat="39.473314" lon="-5.150377">
        <ele>587.6</ele>
        <time>1970-01-01T00:00:00Z</time>
      </trkpt>
      <trkpt lat="39.473342" lon="-5.150327">
        <ele>587.0</ele>
        <time>1970-01-01T00:00:00Z</time>
      </trkpt>
      <trkpt lat="39.473342" lon="-5.150327">
        <ele>587.0</ele>
        <time>1970-01-01T00:00:00Z</time>
      </trkpt>
      <trkpt lat="39.473342" lon="-5.150327">
        <ele>587.0</ele>
        <time>1970-01-01T00:00:00Z</time>
      </trkpt>
      <trkpt lat="39.473342" lon="-5.150327">
        <ele>587.0</ele>
        <time>1970-01-01T00:00:00Z</time>
      </trkpt>
      <trkpt lat="39.473364" lon="-5.150290">
        <ele>586.2</ele>
        <time>1970-01-01T00:00:00Z</time>
      </trkpt>
      <trkpt lat="39.473364" lon="-5.150290">
        <ele>586.2</ele>
        <time>1970-01-01T00:00:00Z</time>
      </trkpt>
      <trkpt lat="39.473364" lon="-5.150290">
        <ele>586.2</ele>
        <time>1970-01-01T00:00:00Z</time>
      </trkpt>
      <trkpt lat="39.473364" lon="-5.150290">
        <ele>586.2</ele>
        <time>1970-01-01T00:00:00Z</time>
      </trkpt>
      <trkpt lat="39.473384" lon="-5.150252">
        <ele>585.4</ele>
        <time>1970-01-01T00:00:00Z</time>
      </trkpt>
      <trkpt lat="39.473384" lon="-5.150252">
        <ele>585.4</ele>
        <time>1970-01-01T00:00:00Z</time>
      </trkpt>
      <trkpt lat="39.473384" lon="-5.150252">
        <ele>585.4</ele>
        <time>1970-01-01T00:00:00Z</time>
      </trkpt>
      <trkpt lat="39.473384" lon="-5.150252">
        <ele>585.4</ele>
        <time>1970-01-01T00:00:00Z</time>
      </trkpt>
      <trkpt lat="39.473400" lon="-5.150216">
        <ele>584.7</ele>
        <time>1970-01-01T00:00:00Z</time>
      </trkpt>
      <trkpt lat="39.473400" lon="-5.150216">
        <ele>584.7</ele>
        <time>1970-01-01T00:00:00Z</time>
      </trkpt>
      <trkpt lat="39.473400" lon="-5.150216">
        <ele>584.7</ele>
        <time>1970-01-01T00:00:00Z</time>
      </trkpt>
      <trkpt lat="39.473400" lon="-5.150216">
        <ele>584.7</ele>
        <time>1970-01-01T00:00:00Z</time>
      </trkpt>
      <trkpt lat="39.473415" lon="-5.150179">
        <ele>584.2</ele>
        <time>1970-01-01T00:00:00Z</time>
      </trkpt>
      <trkpt lat="39.473415" lon="-5.150179">
        <ele>584.2</ele>
        <time>1970-01-01T00:00:00Z</time>
      </trkpt>
      <trkpt lat="39.473415" lon="-5.150179">
        <ele>584.2</ele>
        <time>1970-01-01T00:00:00Z</time>
      </trkpt>
      <trkpt lat="39.473415" lon="-5.150179">
        <ele>584.2</ele>
        <time>1970-01-01T00:00:00Z</time>
      </trkpt>
      <trkpt lat="39.473429" lon="-5.150142">
        <ele>583.6</ele>
        <time>1970-01-01T00:00:00Z</time>
      </trkpt>
      <trkpt lat="39.473429" lon="-5.150142">
        <ele>583.6</ele>
        <time>1970-01-01T00:00:00Z</time>
      </trkpt>
      <trkpt lat="39.473429" lon="-5.150142">
        <ele>583.6</ele>
        <time>1970-01-01T00:00:00Z</time>
      </trkpt>
      <trkpt lat="39.473429" lon="-5.150142">
        <ele>583.6</ele>
        <time>1970-01-01T00:00:00Z</time>
      </trkpt>
      <trkpt lat="39.473444" lon="-5.150099">
        <ele>583.0</ele>
        <time>1970-01-01T00:00:00Z</time>
      </trkpt>
      <trkpt lat="39.473444" lon="-5.150099">
        <ele>583.0</ele>
        <time>1970-01-01T00:00:00Z</time>
      </trkpt>
      <trkpt lat="39.473444" lon="-5.150099">
        <ele>583.0</ele>
        <time>1970-01-01T00:00:00Z</time>
      </trkpt>
      <trkpt lat="39.473444" lon="-5.150099">
        <ele>583.0</ele>
        <time>1970-01-01T00:00:00Z</time>
      </trkpt>
      <trkpt lat="39.473460" lon="-5.150061">
        <ele>582.5</ele>
        <time>1970-01-01T00:00:00Z</time>
      </trkpt>
      <trkpt lat="39.473460" lon="-5.150061">
        <ele>582.5</ele>
        <time>1970-01-01T00:00:00Z</time>
      </trkpt>
      <trkpt lat="39.473460" lon="-5.150061">
        <ele>582.5</ele>
        <time>1970-01-01T00:00:00Z</time>
      </trkpt>
      <trkpt lat="39.473460" lon="-5.150061">
        <ele>582.5</ele>
        <time>1970-01-01T00:00:00Z</time>
      </trkpt>
      <trkpt lat="39.473478" lon="-5.150016">
        <ele>582.0</ele>
        <time>1970-01-01T00:00:00Z</time>
      </trkpt>
      <trkpt lat="39.473478" lon="-5.150016">
        <ele>582.0</ele>
        <time>1970-01-01T00:00:00Z</time>
      </trkpt>
      <trkpt lat="39.473478" lon="-5.150016">
        <ele>582.0</ele>
        <time>1970-01-01T00:00:00Z</time>
      </trkpt>
      <trkpt lat="39.473478" lon="-5.150016">
        <ele>582.0</ele>
        <time>1970-01-01T00:00:00Z</time>
      </trkpt>
      <trkpt lat="39.473504" lon="-5.149957">
        <ele>581.3</ele>
        <time>1970-01-01T00:00:00Z</time>
      </trkpt>
      <trkpt lat="39.473504" lon="-5.149957">
        <ele>581.3</ele>
        <time>1970-01-01T00:00:00Z</time>
      </trkpt>
      <trkpt lat="39.473504" lon="-5.149957">
        <ele>581.3</ele>
        <time>1970-01-01T00:00:00Z</time>
      </trkpt>
      <trkpt lat="39.473504" lon="-5.149957">
        <ele>581.3</ele>
        <time>1970-01-01T00:00:00Z</time>
      </trkpt>
      <trkpt lat="39.473526" lon="-5.149915">
        <ele>580.7</ele>
        <time>1970-01-01T00:00:00Z</time>
      </trkpt>
      <trkpt lat="39.473526" lon="-5.149915">
        <ele>580.7</ele>
        <time>1970-01-01T00:00:00Z</time>
      </trkpt>
      <trkpt lat="39.473526" lon="-5.149915">
        <ele>580.7</ele>
        <time>1970-01-01T00:00:00Z</time>
      </trkpt>
      <trkpt lat="39.473526" lon="-5.149915">
        <ele>580.7</ele>
        <time>1970-01-01T00:00:00Z</time>
      </trkpt>
      <trkpt lat="39.473547" lon="-5.149876">
        <ele>580.2</ele>
        <time>1970-01-01T00:00:00Z</time>
      </trkpt>
      <trkpt lat="39.473547" lon="-5.149876">
        <ele>580.2</ele>
        <time>1970-01-01T00:00:00Z</time>
      </trkpt>
      <trkpt lat="39.473547" lon="-5.149876">
        <ele>580.2</ele>
        <time>1970-01-01T00:00:00Z</time>
      </trkpt>
      <trkpt lat="39.473547" lon="-5.149876">
        <ele>580.2</ele>
        <time>1970-01-01T00:00:00Z</time>
      </trkpt>
      <trkpt lat="39.473565" lon="-5.149839">
        <ele>579.6</ele>
        <time>1970-01-01T00:00:00Z</time>
      </trkpt>
      <trkpt lat="39.473565" lon="-5.149839">
        <ele>579.6</ele>
        <time>1970-01-01T00:00:00Z</time>
      </trkpt>
      <trkpt lat="39.473565" lon="-5.149839">
        <ele>579.6</ele>
        <time>1970-01-01T00:00:00Z</time>
      </trkpt>
      <trkpt lat="39.473565" lon="-5.149839">
        <ele>579.6</ele>
        <time>1970-01-01T00:00:00Z</time>
      </trkpt>
      <trkpt lat="39.473579" lon="-5.149802">
        <ele>579.1</ele>
        <time>1970-01-01T00:00:00Z</time>
      </trkpt>
      <trkpt lat="39.473579" lon="-5.149802">
        <ele>579.1</ele>
        <time>1970-01-01T00:00:00Z</time>
      </trkpt>
      <trkpt lat="39.473579" lon="-5.149802">
        <ele>579.1</ele>
        <time>1970-01-01T00:00:00Z</time>
      </trkpt>
      <trkpt lat="39.473579" lon="-5.149802">
        <ele>579.1</ele>
        <time>1970-01-01T00:00:00Z</time>
      </trkpt>
      <trkpt lat="39.473590" lon="-5.149765">
        <ele>578.8</ele>
        <time>1970-01-01T00:00:00Z</time>
      </trkpt>
      <trkpt lat="39.473590" lon="-5.149765">
        <ele>578.8</ele>
        <time>1970-01-01T00:00:00Z</time>
      </trkpt>
      <trkpt lat="39.473590" lon="-5.149765">
        <ele>578.8</ele>
        <time>1970-01-01T00:00:00Z</time>
      </trkpt>
      <trkpt lat="39.473590" lon="-5.149765">
        <ele>578.8</ele>
        <time>1970-01-01T00:00:00Z</time>
      </trkpt>
      <trkpt lat="39.473599" lon="-5.149730">
        <ele>578.5</ele>
        <time>1970-01-01T00:00:00Z</time>
      </trkpt>
      <trkpt lat="39.473599" lon="-5.149730">
        <ele>578.5</ele>
        <time>1970-01-01T00:00:00Z</time>
      </trkpt>
      <trkpt lat="39.473599" lon="-5.149730">
        <ele>578.5</ele>
        <time>1970-01-01T00:00:00Z</time>
      </trkpt>
      <trkpt lat="39.473599" lon="-5.149730">
        <ele>578.5</ele>
        <time>1970-01-01T00:00:00Z</time>
      </trkpt>
      <trkpt lat="39.473605" lon="-5.149696">
        <ele>578.2</ele>
        <time>1970-01-01T00:00:00Z</time>
      </trkpt>
      <trkpt lat="39.473605" lon="-5.149696">
        <ele>578.2</ele>
        <time>1970-01-01T00:00:00Z</time>
      </trkpt>
      <trkpt lat="39.473605" lon="-5.149696">
        <ele>578.2</ele>
        <time>1970-01-01T00:00:00Z</time>
      </trkpt>
      <trkpt lat="39.473605" lon="-5.149696">
        <ele>578.2</ele>
        <time>1970-01-01T00:00:00Z</time>
      </trkpt>
      <trkpt lat="39.473610" lon="-5.149666">
        <ele>578.1</ele>
        <time>1970-01-01T00:00:00Z</time>
      </trkpt>
      <trkpt lat="39.473610" lon="-5.149666">
        <ele>578.1</ele>
        <time>1970-01-01T00:00:00Z</time>
      </trkpt>
      <trkpt lat="39.473610" lon="-5.149666">
        <ele>578.1</ele>
        <time>1970-01-01T00:00:00Z</time>
      </trkpt>
      <trkpt lat="39.473610" lon="-5.149666">
        <ele>578.1</ele>
        <time>1970-01-01T00:00:00Z</time>
      </trkpt>
      <trkpt lat="39.473614" lon="-5.149633">
        <ele>577.9</ele>
        <time>1970-01-01T00:00:00Z</time>
      </trkpt>
      <trkpt lat="39.473614" lon="-5.149633">
        <ele>577.9</ele>
        <time>1970-01-01T00:00:00Z</time>
      </trkpt>
      <trkpt lat="39.473614" lon="-5.149633">
        <ele>577.9</ele>
        <time>1970-01-01T00:00:00Z</time>
      </trkpt>
      <trkpt lat="39.473614" lon="-5.149633">
        <ele>577.9</ele>
        <time>1970-01-01T00:00:00Z</time>
      </trkpt>
      <trkpt lat="39.473618" lon="-5.149600">
        <ele>577.8</ele>
        <time>1970-01-01T00:00:00Z</time>
      </trkpt>
      <trkpt lat="39.473618" lon="-5.149600">
        <ele>577.8</ele>
        <time>1970-01-01T00:00:00Z</time>
      </trkpt>
      <trkpt lat="39.473618" lon="-5.149600">
        <ele>577.8</ele>
        <time>1970-01-01T00:00:00Z</time>
      </trkpt>
      <trkpt lat="39.473618" lon="-5.149600">
        <ele>577.8</ele>
        <time>1970-01-01T00:00:00Z</time>
      </trkpt>
      <trkpt lat="39.473621" lon="-5.149551">
        <ele>577.7</ele>
        <time>1970-01-01T00:00:00Z</time>
      </trkpt>
      <trkpt lat="39.473621" lon="-5.149551">
        <ele>577.7</ele>
        <time>1970-01-01T00:00:00Z</time>
      </trkpt>
      <trkpt lat="39.473621" lon="-5.149551">
        <ele>577.7</ele>
        <time>1970-01-01T00:00:00Z</time>
      </trkpt>
      <trkpt lat="39.473621" lon="-5.149551">
        <ele>577.7</ele>
        <time>1970-01-01T00:00:00Z</time>
      </trkpt>
      <trkpt lat="39.473622" lon="-5.149512">
        <ele>577.6</ele>
        <time>1970-01-01T00:00:00Z</time>
      </trkpt>
      <trkpt lat="39.473622" lon="-5.149512">
        <ele>577.6</ele>
        <time>1970-01-01T00:00:00Z</time>
      </trkpt>
      <trkpt lat="39.473622" lon="-5.149512">
        <ele>577.6</ele>
        <time>1970-01-01T00:00:00Z</time>
      </trkpt>
      <trkpt lat="39.473622" lon="-5.149512">
        <ele>577.6</ele>
        <time>1970-01-01T00:00:00Z</time>
      </trkpt>
      <trkpt lat="39.473624" lon="-5.149477">
        <ele>577.6</ele>
        <time>1970-01-01T00:00:00Z</time>
      </trkpt>
      <trkpt lat="39.473624" lon="-5.149477">
        <ele>577.6</ele>
        <time>1970-01-01T00:00:00Z</time>
      </trkpt>
      <trkpt lat="39.473624" lon="-5.149477">
        <ele>577.6</ele>
        <time>1970-01-01T00:00:00Z</time>
      </trkpt>
      <trkpt lat="39.473624" lon="-5.149477">
        <ele>577.6</ele>
        <time>1970-01-01T00:00:00Z</time>
      </trkpt>
      <trkpt lat="39.473624" lon="-5.149441">
        <ele>577.6</ele>
        <time>1970-01-01T00:00:00Z</time>
      </trkpt>
      <trkpt lat="39.473624" lon="-5.149441">
        <ele>577.6</ele>
        <time>1970-01-01T00:00:00Z</time>
      </trkpt>
      <trkpt lat="39.473624" lon="-5.149441">
        <ele>577.6</ele>
        <time>1970-01-01T00:00:00Z</time>
      </trkpt>
      <trkpt lat="39.473624" lon="-5.149441">
        <ele>577.6</ele>
        <time>1970-01-01T00:00:00Z</time>
      </trkpt>
      <trkpt lat="39.473624" lon="-5.149409">
        <ele>577.6</ele>
        <time>1970-01-01T00:00:00Z</time>
      </trkpt>
      <trkpt lat="39.473624" lon="-5.149409">
        <ele>577.6</ele>
        <time>1970-01-01T00:00:00Z</time>
      </trkpt>
      <trkpt lat="39.473624" lon="-5.149409">
        <ele>577.6</ele>
        <time>1970-01-01T00:00:00Z</time>
      </trkpt>
      <trkpt lat="39.473624" lon="-5.149409">
        <ele>577.6</ele>
        <time>1970-01-01T00:00:00Z</time>
      </trkpt>
      <trkpt lat="39.473623" lon="-5.149381">
        <ele>577.6</ele>
        <time>1970-01-01T00:00:00Z</time>
      </trkpt>
      <trkpt lat="39.473623" lon="-5.149381">
        <ele>577.6</ele>
        <time>1970-01-01T00:00:00Z</time>
      </trkpt>
      <trkpt lat="39.473623" lon="-5.149381">
        <ele>577.6</ele>
        <time>1970-01-01T00:00:00Z</time>
      </trkpt>
      <trkpt lat="39.473623" lon="-5.149381">
        <ele>577.6</ele>
        <time>1970-01-01T00:00:00Z</time>
      </trkpt>
      <trkpt lat="39.473619" lon="-5.149348">
        <ele>577.7</ele>
        <time>1970-01-01T00:00:00Z</time>
      </trkpt>
      <trkpt lat="39.473619" lon="-5.149348">
        <ele>577.7</ele>
        <time>1970-01-01T00:00:00Z</time>
      </trkpt>
      <trkpt lat="39.473619" lon="-5.149348">
        <ele>577.7</ele>
        <time>1970-01-01T00:00:00Z</time>
      </trkpt>
      <trkpt lat="39.473619" lon="-5.149348">
        <ele>577.7</ele>
        <time>1970-01-01T00:00:00Z</time>
      </trkpt>
      <trkpt lat="39.473615" lon="-5.149314">
        <ele>577.7</ele>
        <time>1970-01-01T00:00:00Z</time>
      </trkpt>
      <trkpt lat="39.473615" lon="-5.149314">
        <ele>577.7</ele>
        <time>1970-01-01T00:00:00Z</time>
      </trkpt>
      <trkpt lat="39.473615" lon="-5.149314">
        <ele>577.7</ele>
        <time>1970-01-01T00:00:00Z</time>
      </trkpt>
      <trkpt lat="39.473615" lon="-5.149314">
        <ele>577.7</ele>
        <time>1970-01-01T00:00:00Z</time>
      </trkpt>
      <trkpt lat="39.473622" lon="-5.149231">
        <ele>577.3</ele>
        <time>1970-01-01T00:00:00Z</time>
      </trkpt>
      <trkpt lat="39.473622" lon="-5.149231">
        <ele>577.3</ele>
        <time>1970-01-01T00:00:00Z</time>
      </trkpt>
      <trkpt lat="39.473622" lon="-5.149231">
        <ele>577.3</ele>
        <time>1970-01-01T00:00:00Z</time>
      </trkpt>
      <trkpt lat="39.473622" lon="-5.149231">
        <ele>577.3</ele>
        <time>1970-01-01T00:00:00Z</time>
      </trkpt>
      <trkpt lat="39.473648" lon="-5.149048">
        <ele>575.9</ele>
        <time>1970-01-01T00:00:00Z</time>
      </trkpt>
      <trkpt lat="39.473648" lon="-5.149048">
        <ele>575.9</ele>
        <time>1970-01-01T00:00:00Z</time>
      </trkpt>
      <trkpt lat="39.473648" lon="-5.149048">
        <ele>575.9</ele>
        <time>1970-01-01T00:00:00Z</time>
      </trkpt>
      <trkpt lat="39.473648" lon="-5.149048">
        <ele>575.9</ele>
        <time>1970-01-01T00:00:00Z</time>
      </trkpt>
      <trkpt lat="39.473662" lon="-5.148987">
        <ele>575.2</ele>
        <time>1970-01-01T00:00:00Z</time>
      </trkpt>
      <trkpt lat="39.473662" lon="-5.148987">
        <ele>575.2</ele>
        <time>1970-01-01T00:00:00Z</time>
      </trkpt>
      <trkpt lat="39.473662" lon="-5.148987">
        <ele>575.2</ele>
        <time>1970-01-01T00:00:00Z</time>
      </trkpt>
      <trkpt lat="39.473662" lon="-5.148987">
        <ele>575.2</ele>
        <time>1970-01-01T00:00:00Z</time>
      </trkpt>
      <trkpt lat="39.473672" lon="-5.148949">
        <ele>574.8</ele>
        <time>1970-01-01T00:00:00Z</time>
      </trkpt>
      <trkpt lat="39.473672" lon="-5.148949">
        <ele>574.8</ele>
        <time>1970-01-01T00:00:00Z</time>
      </trkpt>
      <trkpt lat="39.473672" lon="-5.148949">
        <ele>574.8</ele>
        <time>1970-01-01T00:00:00Z</time>
      </trkpt>
      <trkpt lat="39.473672" lon="-5.148949">
        <ele>574.8</ele>
        <time>1970-01-01T00:00:00Z</time>
      </trkpt>
      <trkpt lat="39.473679" lon="-5.148927">
        <ele>574.4</ele>
        <time>1970-01-01T00:00:00Z</time>
      </trkpt>
      <trkpt lat="39.473679" lon="-5.148927">
        <ele>574.4</ele>
        <time>1970-01-01T00:00:00Z</time>
      </trkpt>
      <trkpt lat="39.473679" lon="-5.148927">
        <ele>574.4</ele>
        <time>1970-01-01T00:00:00Z</time>
      </trkpt>
      <trkpt lat="39.473679" lon="-5.148927">
        <ele>574.4</ele>
        <time>1970-01-01T00:00:00Z</time>
      </trkpt>
      <trkpt lat="39.473693" lon="-5.148883">
        <ele>573.6</ele>
        <time>1970-01-01T00:00:00Z</time>
      </trkpt>
      <trkpt lat="39.473693" lon="-5.148883">
        <ele>573.6</ele>
        <time>1970-01-01T00:00:00Z</time>
      </trkpt>
      <trkpt lat="39.473693" lon="-5.148883">
        <ele>573.6</ele>
        <time>1970-01-01T00:00:00Z</time>
      </trkpt>
      <trkpt lat="39.473693" lon="-5.148883">
        <ele>573.6</ele>
        <time>1970-01-01T00:00:00Z</time>
      </trkpt>
      <trkpt lat="39.473711" lon="-5.148837">
        <ele>572.7</ele>
        <time>1970-01-01T00:00:00Z</time>
      </trkpt>
      <trkpt lat="39.473711" lon="-5.148837">
        <ele>572.7</ele>
        <time>1970-01-01T00:00:00Z</time>
      </trkpt>
      <trkpt lat="39.473711" lon="-5.148837">
        <ele>572.7</ele>
        <time>1970-01-01T00:00:00Z</time>
      </trkpt>
      <trkpt lat="39.473711" lon="-5.148837">
        <ele>572.7</ele>
        <time>1970-01-01T00:00:00Z</time>
      </trkpt>
      <trkpt lat="39.473741" lon="-5.148765">
        <ele>571.1</ele>
        <time>1970-01-01T00:00:00Z</time>
      </trkpt>
      <trkpt lat="39.473741" lon="-5.148765">
        <ele>571.1</ele>
        <time>1970-01-01T00:00:00Z</time>
      </trkpt>
      <trkpt lat="39.473741" lon="-5.148765">
        <ele>571.1</ele>
        <time>1970-01-01T00:00:00Z</time>
      </trkpt>
      <trkpt lat="39.473741" lon="-5.148765">
        <ele>571.1</ele>
        <time>1970-01-01T00:00:00Z</time>
      </trkpt>
      <trkpt lat="39.473764" lon="-5.148713">
        <ele>569.9</ele>
        <time>1970-01-01T00:00:00Z</time>
      </trkpt>
      <trkpt lat="39.473764" lon="-5.148713">
        <ele>569.9</ele>
        <time>1970-01-01T00:00:00Z</time>
      </trkpt>
      <trkpt lat="39.473764" lon="-5.148713">
        <ele>569.9</ele>
        <time>1970-01-01T00:00:00Z</time>
      </trkpt>
      <trkpt lat="39.473764" lon="-5.148713">
        <ele>569.9</ele>
        <time>1970-01-01T00:00:00Z</time>
      </trkpt>
      <trkpt lat="39.473786" lon="-5.148662">
        <ele>568.6</ele>
        <time>1970-01-01T00:00:00Z</time>
      </trkpt>
      <trkpt lat="39.473786" lon="-5.148662">
        <ele>568.6</ele>
        <time>1970-01-01T00:00:00Z</time>
      </trkpt>
      <trkpt lat="39.473786" lon="-5.148662">
        <ele>568.6</ele>
        <time>1970-01-01T00:00:00Z</time>
      </trkpt>
      <trkpt lat="39.473786" lon="-5.148662">
        <ele>568.6</ele>
        <time>1970-01-01T00:00:00Z</time>
      </trkpt>
      <trkpt lat="39.473807" lon="-5.148611">
        <ele>567.5</ele>
        <time>1970-01-01T00:00:00Z</time>
      </trkpt>
      <trkpt lat="39.473807" lon="-5.148611">
        <ele>567.5</ele>
        <time>1970-01-01T00:00:00Z</time>
      </trkpt>
      <trkpt lat="39.473807" lon="-5.148611">
        <ele>567.5</ele>
        <time>1970-01-01T00:00:00Z</time>
      </trkpt>
      <trkpt lat="39.473807" lon="-5.148611">
        <ele>567.5</ele>
        <time>1970-01-01T00:00:00Z</time>
      </trkpt>
      <trkpt lat="39.473825" lon="-5.148559">
        <ele>566.4</ele>
        <time>1970-01-01T00:00:00Z</time>
      </trkpt>
      <trkpt lat="39.473825" lon="-5.148559">
        <ele>566.4</ele>
        <time>1970-01-01T00:00:00Z</time>
      </trkpt>
      <trkpt lat="39.473825" lon="-5.148559">
        <ele>566.4</ele>
        <time>1970-01-01T00:00:00Z</time>
      </trkpt>
      <trkpt lat="39.473825" lon="-5.148559">
        <ele>566.4</ele>
        <time>1970-01-01T00:00:00Z</time>
      </trkpt>
      <trkpt lat="39.473842" lon="-5.148510">
        <ele>565.4</ele>
        <time>1970-01-01T00:00:00Z</time>
      </trkpt>
      <trkpt lat="39.473842" lon="-5.148510">
        <ele>565.4</ele>
        <time>1970-01-01T00:00:00Z</time>
      </trkpt>
      <trkpt lat="39.473842" lon="-5.148510">
        <ele>565.4</ele>
        <time>1970-01-01T00:00:00Z</time>
      </trkpt>
      <trkpt lat="39.473842" lon="-5.148510">
        <ele>565.4</ele>
        <time>1970-01-01T00:00:00Z</time>
      </trkpt>
      <trkpt lat="39.473858" lon="-5.148457">
        <ele>564.3</ele>
        <time>1970-01-01T00:00:00Z</time>
      </trkpt>
      <trkpt lat="39.473858" lon="-5.148457">
        <ele>564.3</ele>
        <time>1970-01-01T00:00:00Z</time>
      </trkpt>
      <trkpt lat="39.473858" lon="-5.148457">
        <ele>564.3</ele>
        <time>1970-01-01T00:00:00Z</time>
      </trkpt>
      <trkpt lat="39.473858" lon="-5.148457">
        <ele>564.3</ele>
        <time>1970-01-01T00:00:00Z</time>
      </trkpt>
      <trkpt lat="39.473866" lon="-5.148408">
        <ele>563.4</ele>
        <time>1970-01-01T00:00:00Z</time>
      </trkpt>
      <trkpt lat="39.473866" lon="-5.148408">
        <ele>563.4</ele>
        <time>1970-01-01T00:00:00Z</time>
      </trkpt>
      <trkpt lat="39.473866" lon="-5.148408">
        <ele>563.4</ele>
        <time>1970-01-01T00:00:00Z</time>
      </trkpt>
      <trkpt lat="39.473866" lon="-5.148408">
        <ele>563.4</ele>
        <time>1970-01-01T00:00:00Z</time>
      </trkpt>
      <trkpt lat="39.473872" lon="-5.148363">
        <ele>562.6</ele>
        <time>1970-01-01T00:00:00Z</time>
      </trkpt>
      <trkpt lat="39.473872" lon="-5.148363">
        <ele>562.6</ele>
        <time>1970-01-01T00:00:00Z</time>
      </trkpt>
      <trkpt lat="39.473872" lon="-5.148363">
        <ele>562.6</ele>
        <time>1970-01-01T00:00:00Z</time>
      </trkpt>
      <trkpt lat="39.473872" lon="-5.148363">
        <ele>562.6</ele>
        <time>1970-01-01T00:00:00Z</time>
      </trkpt>
      <trkpt lat="39.473878" lon="-5.148301">
        <ele>561.6</ele>
        <time>1970-01-01T00:00:00Z</time>
      </trkpt>
      <trkpt lat="39.473878" lon="-5.148301">
        <ele>561.6</ele>
        <time>1970-01-01T00:00:00Z</time>
      </trkpt>
      <trkpt lat="39.473878" lon="-5.148301">
        <ele>561.6</ele>
        <time>1970-01-01T00:00:00Z</time>
      </trkpt>
      <trkpt lat="39.473878" lon="-5.148301">
        <ele>561.6</ele>
        <time>1970-01-01T00:00:00Z</time>
      </trkpt>
      <trkpt lat="39.473882" lon="-5.148255">
        <ele>560.9</ele>
        <time>1970-01-01T00:00:00Z</time>
      </trkpt>
      <trkpt lat="39.473882" lon="-5.148255">
        <ele>560.9</ele>
        <time>1970-01-01T00:00:00Z</time>
      </trkpt>
      <trkpt lat="39.473882" lon="-5.148255">
        <ele>560.9</ele>
        <time>1970-01-01T00:00:00Z</time>
      </trkpt>
      <trkpt lat="39.473882" lon="-5.148255">
        <ele>560.9</ele>
        <time>1970-01-01T00:00:00Z</time>
      </trkpt>
      <trkpt lat="39.473890" lon="-5.148203">
        <ele>559.9</ele>
        <time>1970-01-01T00:00:00Z</time>
      </trkpt>
      <trkpt lat="39.473890" lon="-5.148203">
        <ele>559.9</ele>
        <time>1970-01-01T00:00:00Z</time>
      </trkpt>
      <trkpt lat="39.473890" lon="-5.148203">
        <ele>559.9</ele>
        <time>1970-01-01T00:00:00Z</time>
      </trkpt>
      <trkpt lat="39.473890" lon="-5.148203">
        <ele>559.9</ele>
        <time>1970-01-01T00:00:00Z</time>
      </trkpt>
      <trkpt lat="39.473893" lon="-5.148156">
        <ele>559.2</ele>
        <time>1970-01-01T00:00:00Z</time>
      </trkpt>
      <trkpt lat="39.473893" lon="-5.148156">
        <ele>559.2</ele>
        <time>1970-01-01T00:00:00Z</time>
      </trkpt>
      <trkpt lat="39.473893" lon="-5.148156">
        <ele>559.2</ele>
        <time>1970-01-01T00:00:00Z</time>
      </trkpt>
      <trkpt lat="39.473893" lon="-5.148156">
        <ele>559.2</ele>
        <time>1970-01-01T00:00:00Z</time>
      </trkpt>
      <trkpt lat="39.473896" lon="-5.148129">
        <ele>558.8</ele>
        <time>1970-01-01T00:00:00Z</time>
      </trkpt>
      <trkpt lat="39.473896" lon="-5.148129">
        <ele>558.8</ele>
        <time>1970-01-01T00:00:00Z</time>
      </trkpt>
      <trkpt lat="39.473896" lon="-5.148129">
        <ele>558.8</ele>
        <time>1970-01-01T00:00:00Z</time>
      </trkpt>
      <trkpt lat="39.473896" lon="-5.148129">
        <ele>558.8</ele>
        <time>1970-01-01T00:00:00Z</time>
      </trkpt>
      <trkpt lat="39.473892" lon="-5.148082">
        <ele>558.3</ele>
        <time>1970-01-01T00:00:00Z</time>
      </trkpt>
      <trkpt lat="39.473892" lon="-5.148082">
        <ele>558.3</ele>
        <time>1970-01-01T00:00:00Z</time>
      </trkpt>
      <trkpt lat="39.473892" lon="-5.148082">
        <ele>558.3</ele>
        <time>1970-01-01T00:00:00Z</time>
      </trkpt>
      <trkpt lat="39.473892" lon="-5.148082">
        <ele>558.3</ele>
        <time>1970-01-01T00:00:00Z</time>
      </trkpt>
      <trkpt lat="39.473878" lon="-5.148022">
        <ele>558.0</ele>
        <time>1970-01-01T00:00:00Z</time>
      </trkpt>
      <trkpt lat="39.473878" lon="-5.148022">
        <ele>558.0</ele>
        <time>1970-01-01T00:00:00Z</time>
      </trkpt>
      <trkpt lat="39.473878" lon="-5.148022">
        <ele>558.0</ele>
        <time>1970-01-01T00:00:00Z</time>
      </trkpt>
      <trkpt lat="39.473878" lon="-5.148022">
        <ele>558.0</ele>
        <time>1970-01-01T00:00:00Z</time>
      </trkpt>
      <trkpt lat="39.473863" lon="-5.147977">
        <ele>557.8</ele>
        <time>1970-01-01T00:00:00Z</time>
      </trkpt>
      <trkpt lat="39.473863" lon="-5.147977">
        <ele>557.8</ele>
        <time>1970-01-01T00:00:00Z</time>
      </trkpt>
      <trkpt lat="39.473863" lon="-5.147977">
        <ele>557.8</ele>
        <time>1970-01-01T00:00:00Z</time>
      </trkpt>
      <trkpt lat="39.473863" lon="-5.147977">
        <ele>557.8</ele>
        <time>1970-01-01T00:00:00Z</time>
      </trkpt>
      <trkpt lat="39.473848" lon="-5.147948">
        <ele>557.7</ele>
        <time>1970-01-01T00:00:00Z</time>
      </trkpt>
      <trkpt lat="39.473848" lon="-5.147948">
        <ele>557.7</ele>
        <time>1970-01-01T00:00:00Z</time>
      </trkpt>
      <trkpt lat="39.473848" lon="-5.147948">
        <ele>557.7</ele>
        <time>1970-01-01T00:00:00Z</time>
      </trkpt>
      <trkpt lat="39.473848" lon="-5.147948">
        <ele>557.7</ele>
        <time>1970-01-01T00:00:00Z</time>
      </trkpt>
      <trkpt lat="39.473827" lon="-5.147913">
        <ele>557.7</ele>
        <time>1970-01-01T00:00:00Z</time>
      </trkpt>
      <trkpt lat="39.473827" lon="-5.147913">
        <ele>557.7</ele>
        <time>1970-01-01T00:00:00Z</time>
      </trkpt>
      <trkpt lat="39.473827" lon="-5.147913">
        <ele>557.7</ele>
        <time>1970-01-01T00:00:00Z</time>
      </trkpt>
      <trkpt lat="39.473827" lon="-5.147913">
        <ele>557.7</ele>
        <time>1970-01-01T00:00:00Z</time>
      </trkpt>
      <trkpt lat="39.473786" lon="-5.147845">
        <ele>557.7</ele>
        <time>1970-01-01T00:00:00Z</time>
      </trkpt>
      <trkpt lat="39.473786" lon="-5.147845">
        <ele>557.7</ele>
        <time>1970-01-01T00:00:00Z</time>
      </trkpt>
      <trkpt lat="39.473786" lon="-5.147845">
        <ele>557.7</ele>
        <time>1970-01-01T00:00:00Z</time>
      </trkpt>
      <trkpt lat="39.473786" lon="-5.147845">
        <ele>557.7</ele>
        <time>1970-01-01T00:00:00Z</time>
      </trkpt>
      <trkpt lat="39.473722" lon="-5.147775">
        <ele>558.1</ele>
        <time>1970-01-01T00:00:00Z</time>
      </trkpt>
      <trkpt lat="39.473722" lon="-5.147775">
        <ele>558.1</ele>
        <time>1970-01-01T00:00:00Z</time>
      </trkpt>
      <trkpt lat="39.473722" lon="-5.147775">
        <ele>558.1</ele>
        <time>1970-01-01T00:00:00Z</time>
      </trkpt>
      <trkpt lat="39.473722" lon="-5.147775">
        <ele>558.1</ele>
        <time>1970-01-01T00:00:00Z</time>
      </trkpt>
      <trkpt lat="39.473699" lon="-5.147750">
        <ele>558.3</ele>
        <time>1970-01-01T00:00:00Z</time>
      </trkpt>
      <trkpt lat="39.473699" lon="-5.147750">
        <ele>558.3</ele>
        <time>1970-01-01T00:00:00Z</time>
      </trkpt>
      <trkpt lat="39.473699" lon="-5.147750">
        <ele>558.3</ele>
        <time>1970-01-01T00:00:00Z</time>
      </trkpt>
      <trkpt lat="39.473699" lon="-5.147750">
        <ele>558.3</ele>
        <time>1970-01-01T00:00:00Z</time>
      </trkpt>
      <trkpt lat="39.473676" lon="-5.147731">
        <ele>558.6</ele>
        <time>1970-01-01T00:00:00Z</time>
      </trkpt>
      <trkpt lat="39.473676" lon="-5.147731">
        <ele>558.6</ele>
        <time>1970-01-01T00:00:00Z</time>
      </trkpt>
      <trkpt lat="39.473676" lon="-5.147731">
        <ele>558.6</ele>
        <time>1970-01-01T00:00:00Z</time>
      </trkpt>
      <trkpt lat="39.473676" lon="-5.147731">
        <ele>558.6</ele>
        <time>1970-01-01T00:00:00Z</time>
      </trkpt>
      <trkpt lat="39.473646" lon="-5.147709">
        <ele>559.0</ele>
        <time>1970-01-01T00:00:00Z</time>
      </trkpt>
      <trkpt lat="39.473646" lon="-5.147709">
        <ele>559.0</ele>
        <time>1970-01-01T00:00:00Z</time>
      </trkpt>
      <trkpt lat="39.473646" lon="-5.147709">
        <ele>559.0</ele>
        <time>1970-01-01T00:00:00Z</time>
      </trkpt>
      <trkpt lat="39.473646" lon="-5.147709">
        <ele>559.0</ele>
        <time>1970-01-01T00:00:00Z</time>
      </trkpt>
      <trkpt lat="39.473622" lon="-5.147690">
        <ele>559.2</ele>
        <time>1970-01-01T00:00:00Z</time>
      </trkpt>
      <trkpt lat="39.473622" lon="-5.147690">
        <ele>559.2</ele>
        <time>1970-01-01T00:00:00Z</time>
      </trkpt>
      <trkpt lat="39.473622" lon="-5.147690">
        <ele>559.2</ele>
        <time>1970-01-01T00:00:00Z</time>
      </trkpt>
      <trkpt lat="39.473622" lon="-5.147690">
        <ele>559.2</ele>
        <time>1970-01-01T00:00:00Z</time>
      </trkpt>
      <trkpt lat="39.473596" lon="-5.147672">
        <ele>559.6</ele>
        <time>1970-01-01T00:00:00Z</time>
      </trkpt>
      <trkpt lat="39.473596" lon="-5.147672">
        <ele>559.6</ele>
        <time>1970-01-01T00:00:00Z</time>
      </trkpt>
      <trkpt lat="39.473596" lon="-5.147672">
        <ele>559.6</ele>
        <time>1970-01-01T00:00:00Z</time>
      </trkpt>
      <trkpt lat="39.473596" lon="-5.147672">
        <ele>559.6</ele>
        <time>1970-01-01T00:00:00Z</time>
      </trkpt>
      <trkpt lat="39.473561" lon="-5.147655">
        <ele>560.2</ele>
        <time>1970-01-01T00:00:00Z</time>
      </trkpt>
      <trkpt lat="39.473561" lon="-5.147655">
        <ele>560.2</ele>
        <time>1970-01-01T00:00:00Z</time>
      </trkpt>
      <trkpt lat="39.473561" lon="-5.147655">
        <ele>560.2</ele>
        <time>1970-01-01T00:00:00Z</time>
      </trkpt>
      <trkpt lat="39.473561" lon="-5.147655">
        <ele>560.2</ele>
        <time>1970-01-01T00:00:00Z</time>
      </trkpt>
      <trkpt lat="39.473426" lon="-5.147623">
        <ele>563.0</ele>
        <time>1970-01-01T00:00:00Z</time>
      </trkpt>
      <trkpt lat="39.473426" lon="-5.147623">
        <ele>563.0</ele>
        <time>1970-01-01T00:00:00Z</time>
      </trkpt>
      <trkpt lat="39.473426" lon="-5.147623">
        <ele>563.0</ele>
        <time>1970-01-01T00:00:00Z</time>
      </trkpt>
      <trkpt lat="39.473426" lon="-5.147623">
        <ele>563.0</ele>
        <time>1970-01-01T00:00:00Z</time>
      </trkpt>
      <trkpt lat="39.473396" lon="-5.147621">
        <ele>563.6</ele>
        <time>1970-01-01T00:00:00Z</time>
      </trkpt>
      <trkpt lat="39.473396" lon="-5.147621">
        <ele>563.6</ele>
        <time>1970-01-01T00:00:00Z</time>
      </trkpt>
      <trkpt lat="39.473396" lon="-5.147621">
        <ele>563.6</ele>
        <time>1970-01-01T00:00:00Z</time>
      </trkpt>
      <trkpt lat="39.473396" lon="-5.147621">
        <ele>563.6</ele>
        <time>1970-01-01T00:00:00Z</time>
      </trkpt>
      <trkpt lat="39.473362" lon="-5.147618">
        <ele>564.4</ele>
        <time>1970-01-01T00:00:00Z</time>
      </trkpt>
      <trkpt lat="39.473362" lon="-5.147618">
        <ele>564.4</ele>
        <time>1970-01-01T00:00:00Z</time>
      </trkpt>
      <trkpt lat="39.473362" lon="-5.147618">
        <ele>564.4</ele>
        <time>1970-01-01T00:00:00Z</time>
      </trkpt>
      <trkpt lat="39.473362" lon="-5.147618">
        <ele>564.4</ele>
        <time>1970-01-01T00:00:00Z</time>
      </trkpt>
      <trkpt lat="39.473334" lon="-5.147616">
        <ele>564.9</ele>
        <time>1970-01-01T00:00:00Z</time>
      </trkpt>
      <trkpt lat="39.473334" lon="-5.147616">
        <ele>564.9</ele>
        <time>1970-01-01T00:00:00Z</time>
      </trkpt>
      <trkpt lat="39.473334" lon="-5.147616">
        <ele>564.9</ele>
        <time>1970-01-01T00:00:00Z</time>
      </trkpt>
      <trkpt lat="39.473334" lon="-5.147616">
        <ele>564.9</ele>
        <time>1970-01-01T00:00:00Z</time>
      </trkpt>
      <trkpt lat="39.473307" lon="-5.147611">
        <ele>565.5</ele>
        <time>1970-01-01T00:00:00Z</time>
      </trkpt>
      <trkpt lat="39.473307" lon="-5.147611">
        <ele>565.5</ele>
        <time>1970-01-01T00:00:00Z</time>
      </trkpt>
      <trkpt lat="39.473307" lon="-5.147611">
        <ele>565.5</ele>
        <time>1970-01-01T00:00:00Z</time>
      </trkpt>
      <trkpt lat="39.473307" lon="-5.147611">
        <ele>565.5</ele>
        <time>1970-01-01T00:00:00Z</time>
      </trkpt>
      <trkpt lat="39.473289" lon="-5.147607">
        <ele>565.8</ele>
        <time>1970-01-01T00:00:00Z</time>
      </trkpt>
      <trkpt lat="39.473289" lon="-5.147607">
        <ele>565.8</ele>
        <time>1970-01-01T00:00:00Z</time>
      </trkpt>
      <trkpt lat="39.473289" lon="-5.147607">
        <ele>565.8</ele>
        <time>1970-01-01T00:00:00Z</time>
      </trkpt>
      <trkpt lat="39.473289" lon="-5.147607">
        <ele>565.8</ele>
        <time>1970-01-01T00:00:00Z</time>
      </trkpt>
      <trkpt lat="39.473262" lon="-5.147595">
        <ele>566.1</ele>
        <time>1970-01-01T00:00:00Z</time>
      </trkpt>
      <trkpt lat="39.473262" lon="-5.147595">
        <ele>566.1</ele>
        <time>1970-01-01T00:00:00Z</time>
      </trkpt>
      <trkpt lat="39.473262" lon="-5.147595">
        <ele>566.1</ele>
        <time>1970-01-01T00:00:00Z</time>
      </trkpt>
      <trkpt lat="39.473262" lon="-5.147595">
        <ele>566.1</ele>
        <time>1970-01-01T00:00:00Z</time>
      </trkpt>
      <trkpt lat="39.473234" lon="-5.147579">
        <ele>566.3</ele>
        <time>1970-01-01T00:00:00Z</time>
      </trkpt>
      <trkpt lat="39.473234" lon="-5.147579">
        <ele>566.3</ele>
        <time>1970-01-01T00:00:00Z</time>
      </trkpt>
      <trkpt lat="39.473234" lon="-5.147579">
        <ele>566.3</ele>
        <time>1970-01-01T00:00:00Z</time>
      </trkpt>
      <trkpt lat="39.473234" lon="-5.147579">
        <ele>566.3</ele>
        <time>1970-01-01T00:00:00Z</time>
      </trkpt>
      <trkpt lat="39.473207" lon="-5.147553">
        <ele>566.2</ele>
        <time>1970-01-01T00:00:00Z</time>
      </trkpt>
      <trkpt lat="39.473207" lon="-5.147553">
        <ele>566.2</ele>
        <time>1970-01-01T00:00:00Z</time>
      </trkpt>
      <trkpt lat="39.473207" lon="-5.147553">
        <ele>566.2</ele>
        <time>1970-01-01T00:00:00Z</time>
      </trkpt>
      <trkpt lat="39.473207" lon="-5.147553">
        <ele>566.2</ele>
        <time>1970-01-01T00:00:00Z</time>
      </trkpt>
      <trkpt lat="39.473182" lon="-5.147526">
        <ele>566.0</ele>
        <time>1970-01-01T00:00:00Z</time>
      </trkpt>
      <trkpt lat="39.473182" lon="-5.147526">
        <ele>566.0</ele>
        <time>1970-01-01T00:00:00Z</time>
      </trkpt>
      <trkpt lat="39.473182" lon="-5.147526">
        <ele>566.0</ele>
        <time>1970-01-01T00:00:00Z</time>
      </trkpt>
      <trkpt lat="39.473182" lon="-5.147526">
        <ele>566.0</ele>
        <time>1970-01-01T00:00:00Z</time>
      </trkpt>
      <trkpt lat="39.473160" lon="-5.147493">
        <ele>565.5</ele>
        <time>1970-01-01T00:00:00Z</time>
      </trkpt>
      <trkpt lat="39.473160" lon="-5.147493">
        <ele>565.5</ele>
        <time>1970-01-01T00:00:00Z</time>
      </trkpt>
      <trkpt lat="39.473160" lon="-5.147493">
        <ele>565.5</ele>
        <time>1970-01-01T00:00:00Z</time>
      </trkpt>
      <trkpt lat="39.473160" lon="-5.147493">
        <ele>565.5</ele>
        <time>1970-01-01T00:00:00Z</time>
      </trkpt>
      <trkpt lat="39.473141" lon="-5.147461">
        <ele>565.0</ele>
        <time>1970-01-01T00:00:00Z</time>
      </trkpt>
      <trkpt lat="39.473141" lon="-5.147461">
        <ele>565.0</ele>
        <time>1970-01-01T00:00:00Z</time>
      </trkpt>
      <trkpt lat="39.473141" lon="-5.147461">
        <ele>565.0</ele>
        <time>1970-01-01T00:00:00Z</time>
      </trkpt>
      <trkpt lat="39.473141" lon="-5.147461">
        <ele>565.0</ele>
        <time>1970-01-01T00:00:00Z</time>
      </trkpt>
      <trkpt lat="39.473114" lon="-5.147415">
        <ele>564.3</ele>
        <time>1970-01-01T00:00:00Z</time>
      </trkpt>
      <trkpt lat="39.473114" lon="-5.147415">
        <ele>564.3</ele>
        <time>1970-01-01T00:00:00Z</time>
      </trkpt>
      <trkpt lat="39.473114" lon="-5.147415">
        <ele>564.3</ele>
        <time>1970-01-01T00:00:00Z</time>
      </trkpt>
      <trkpt lat="39.473114" lon="-5.147415">
        <ele>564.3</ele>
        <time>1970-01-01T00:00:00Z</time>
      </trkpt>
      <trkpt lat="39.473082" lon="-5.147372">
        <ele>563.7</ele>
        <time>1970-01-01T00:00:00Z</time>
      </trkpt>
      <trkpt lat="39.473082" lon="-5.147372">
        <ele>563.7</ele>
        <time>1970-01-01T00:00:00Z</time>
      </trkpt>
      <trkpt lat="39.473082" lon="-5.147372">
        <ele>563.7</ele>
        <time>1970-01-01T00:00:00Z</time>
      </trkpt>
      <trkpt lat="39.473082" lon="-5.147372">
        <ele>563.7</ele>
        <time>1970-01-01T00:00:00Z</time>
      </trkpt>
      <trkpt lat="39.473058" lon="-5.147352">
        <ele>563.6</ele>
        <time>1970-01-01T00:00:00Z</time>
      </trkpt>
      <trkpt lat="39.473058" lon="-5.147352">
        <ele>563.6</ele>
        <time>1970-01-01T00:00:00Z</time>
      </trkpt>
      <trkpt lat="39.473058" lon="-5.147352">
        <ele>563.6</ele>
        <time>1970-01-01T00:00:00Z</time>
      </trkpt>
      <trkpt lat="39.473058" lon="-5.147352">
        <ele>563.6</ele>
        <time>1970-01-01T00:00:00Z</time>
      </trkpt>
      <trkpt lat="39.473028" lon="-5.147322">
        <ele>563.4</ele>
        <time>1970-01-01T00:00:00Z</time>
      </trkpt>
      <trkpt lat="39.473028" lon="-5.147322">
        <ele>563.4</ele>
        <time>1970-01-01T00:00:00Z</time>
      </trkpt>
      <trkpt lat="39.473028" lon="-5.147322">
        <ele>563.4</ele>
        <time>1970-01-01T00:00:00Z</time>
      </trkpt>
      <trkpt lat="39.473028" lon="-5.147322">
        <ele>563.4</ele>
        <time>1970-01-01T00:00:00Z</time>
      </trkpt>
      <trkpt lat="39.473000" lon="-5.147292">
        <ele>563.2</ele>
        <time>1970-01-01T00:00:00Z</time>
      </trkpt>
      <trkpt lat="39.473000" lon="-5.147292">
        <ele>563.2</ele>
        <time>1970-01-01T00:00:00Z</time>
      </trkpt>
      <trkpt lat="39.473000" lon="-5.147292">
        <ele>563.2</ele>
        <time>1970-01-01T00:00:00Z</time>
      </trkpt>
      <trkpt lat="39.473000" lon="-5.147292">
        <ele>563.2</ele>
        <time>1970-01-01T00:00:00Z</time>
      </trkpt>
      <trkpt lat="39.472974" lon="-5.147262">
        <ele>563.0</ele>
        <time>1970-01-01T00:00:00Z</time>
      </trkpt>
      <trkpt lat="39.472974" lon="-5.147262">
        <ele>563.0</ele>
        <time>1970-01-01T00:00:00Z</time>
      </trkpt>
      <trkpt lat="39.472974" lon="-5.147262">
        <ele>563.0</ele>
        <time>1970-01-01T00:00:00Z</time>
      </trkpt>
      <trkpt lat="39.472974" lon="-5.147262">
        <ele>563.0</ele>
        <time>1970-01-01T00:00:00Z</time>
      </trkpt>
      <trkpt lat="39.472952" lon="-5.147236">
        <ele>562.8</ele>
        <time>1970-01-01T00:00:00Z</time>
      </trkpt>
      <trkpt lat="39.472952" lon="-5.147236">
        <ele>562.8</ele>
        <time>1970-01-01T00:00:00Z</time>
      </trkpt>
      <trkpt lat="39.472952" lon="-5.147236">
        <ele>562.8</ele>
        <time>1970-01-01T00:00:00Z</time>
      </trkpt>
      <trkpt lat="39.472952" lon="-5.147236">
        <ele>562.8</ele>
        <time>1970-01-01T00:00:00Z</time>
      </trkpt>
      <trkpt lat="39.472929" lon="-5.147207">
        <ele>562.5</ele>
        <time>1970-01-01T00:00:00Z</time>
      </trkpt>
      <trkpt lat="39.472929" lon="-5.147207">
        <ele>562.5</ele>
        <time>1970-01-01T00:00:00Z</time>
      </trkpt>
      <trkpt lat="39.472929" lon="-5.147207">
        <ele>562.5</ele>
        <time>1970-01-01T00:00:00Z</time>
      </trkpt>
      <trkpt lat="39.472929" lon="-5.147207">
        <ele>562.5</ele>
        <time>1970-01-01T00:00:00Z</time>
      </trkpt>
      <trkpt lat="39.472906" lon="-5.147183">
        <ele>562.4</ele>
        <time>1970-01-01T00:00:00Z</time>
      </trkpt>
      <trkpt lat="39.472906" lon="-5.147183">
        <ele>562.4</ele>
        <time>1970-01-01T00:00:00Z</time>
      </trkpt>
      <trkpt lat="39.472906" lon="-5.147183">
        <ele>562.4</ele>
        <time>1970-01-01T00:00:00Z</time>
      </trkpt>
      <trkpt lat="39.472906" lon="-5.147183">
        <ele>562.4</ele>
        <time>1970-01-01T00:00:00Z</time>
      </trkpt>
      <trkpt lat="39.472885" lon="-5.147157">
        <ele>562.2</ele>
        <time>1970-01-01T00:00:00Z</time>
      </trkpt>
      <trkpt lat="39.472885" lon="-5.147157">
        <ele>562.2</ele>
        <time>1970-01-01T00:00:00Z</time>
      </trkpt>
      <trkpt lat="39.472885" lon="-5.147157">
        <ele>562.2</ele>
        <time>1970-01-01T00:00:00Z</time>
      </trkpt>
      <trkpt lat="39.472885" lon="-5.147157">
        <ele>562.2</ele>
        <time>1970-01-01T00:00:00Z</time>
      </trkpt>
      <trkpt lat="39.472865" lon="-5.147132">
        <ele>561.9</ele>
        <time>1970-01-01T00:00:00Z</time>
      </trkpt>
      <trkpt lat="39.472865" lon="-5.147132">
        <ele>561.9</ele>
        <time>1970-01-01T00:00:00Z</time>
      </trkpt>
      <trkpt lat="39.472865" lon="-5.147132">
        <ele>561.9</ele>
        <time>1970-01-01T00:00:00Z</time>
      </trkpt>
      <trkpt lat="39.472865" lon="-5.147132">
        <ele>561.9</ele>
        <time>1970-01-01T00:00:00Z</time>
      </trkpt>
      <trkpt lat="39.472845" lon="-5.147106">
        <ele>561.7</ele>
        <time>1970-01-01T00:00:00Z</time>
      </trkpt>
      <trkpt lat="39.472845" lon="-5.147106">
        <ele>561.7</ele>
        <time>1970-01-01T00:00:00Z</time>
      </trkpt>
      <trkpt lat="39.472845" lon="-5.147106">
        <ele>561.7</ele>
        <time>1970-01-01T00:00:00Z</time>
      </trkpt>
      <trkpt lat="39.472845" lon="-5.147106">
        <ele>561.7</ele>
        <time>1970-01-01T00:00:00Z</time>
      </trkpt>
      <trkpt lat="39.472824" lon="-5.147076">
        <ele>561.4</ele>
        <time>1970-01-01T00:00:00Z</time>
      </trkpt>
      <trkpt lat="39.472824" lon="-5.147076">
        <ele>561.4</ele>
        <time>1970-01-01T00:00:00Z</time>
      </trkpt>
      <trkpt lat="39.472824" lon="-5.147076">
        <ele>561.4</ele>
        <time>1970-01-01T00:00:00Z</time>
      </trkpt>
      <trkpt lat="39.472824" lon="-5.147076">
        <ele>561.4</ele>
        <time>1970-01-01T00:00:00Z</time>
      </trkpt>
      <trkpt lat="39.472800" lon="-5.147040">
        <ele>561.5</ele>
        <time>1970-01-01T00:00:00Z</time>
      </trkpt>
      <trkpt lat="39.472800" lon="-5.147040">
        <ele>561.5</ele>
        <time>1970-01-01T00:00:00Z</time>
      </trkpt>
      <trkpt lat="39.472800" lon="-5.147040">
        <ele>561.5</ele>
        <time>1970-01-01T00:00:00Z</time>
      </trkpt>
      <trkpt lat="39.472800" lon="-5.147040">
        <ele>561.5</ele>
        <time>1970-01-01T00:00:00Z</time>
      </trkpt>
      <trkpt lat="39.472771" lon="-5.147010">
        <ele>561.8</ele>
        <time>1970-01-01T00:00:00Z</time>
      </trkpt>
      <trkpt lat="39.472771" lon="-5.147010">
        <ele>561.8</ele>
        <time>1970-01-01T00:00:00Z</time>
      </trkpt>
      <trkpt lat="39.472771" lon="-5.147010">
        <ele>561.8</ele>
        <time>1970-01-01T00:00:00Z</time>
      </trkpt>
      <trkpt lat="39.472771" lon="-5.147010">
        <ele>561.8</ele>
        <time>1970-01-01T00:00:00Z</time>
      </trkpt>
      <trkpt lat="39.472754" lon="-5.146989">
        <ele>562.0</ele>
        <time>1970-01-01T00:00:00Z</time>
      </trkpt>
      <trkpt lat="39.472754" lon="-5.146989">
        <ele>562.0</ele>
        <time>1970-01-01T00:00:00Z</time>
      </trkpt>
      <trkpt lat="39.472754" lon="-5.146989">
        <ele>562.0</ele>
        <time>1970-01-01T00:00:00Z</time>
      </trkpt>
      <trkpt lat="39.472754" lon="-5.146989">
        <ele>562.0</ele>
        <time>1970-01-01T00:00:00Z</time>
      </trkpt>
      <trkpt lat="39.472686" lon="-5.146913">
        <ele>562.4</ele>
        <time>1970-01-01T00:00:00Z</time>
      </trkpt>
      <trkpt lat="39.472686" lon="-5.146913">
        <ele>562.4</ele>
        <time>1970-01-01T00:00:00Z</time>
      </trkpt>
      <trkpt lat="39.472686" lon="-5.146913">
        <ele>562.4</ele>
        <time>1970-01-01T00:00:00Z</time>
      </trkpt>
      <trkpt lat="39.472686" lon="-5.146913">
        <ele>562.4</ele>
        <time>1970-01-01T00:00:00Z</time>
      </trkpt>
      <trkpt lat="39.472666" lon="-5.146894">
        <ele>562.6</ele>
        <time>1970-01-01T00:00:00Z</time>
      </trkpt>
      <trkpt lat="39.472666" lon="-5.146894">
        <ele>562.6</ele>
        <time>1970-01-01T00:00:00Z</time>
      </trkpt>
      <trkpt lat="39.472666" lon="-5.146894">
        <ele>562.6</ele>
        <time>1970-01-01T00:00:00Z</time>
      </trkpt>
      <trkpt lat="39.472666" lon="-5.146894">
        <ele>562.6</ele>
        <time>1970-01-01T00:00:00Z</time>
      </trkpt>
      <trkpt lat="39.472641" lon="-5.146867">
        <ele>562.7</ele>
        <time>1970-01-01T00:00:00Z</time>
      </trkpt>
      <trkpt lat="39.472641" lon="-5.146867">
        <ele>562.7</ele>
        <time>1970-01-01T00:00:00Z</time>
      </trkpt>
      <trkpt lat="39.472641" lon="-5.146867">
        <ele>562.7</ele>
        <time>1970-01-01T00:00:00Z</time>
      </trkpt>
      <trkpt lat="39.472641" lon="-5.146867">
        <ele>562.7</ele>
        <time>1970-01-01T00:00:00Z</time>
      </trkpt>
      <trkpt lat="39.472625" lon="-5.146849">
        <ele>562.8</ele>
        <time>1970-01-01T00:00:00Z</time>
      </trkpt>
      <trkpt lat="39.472625" lon="-5.146849">
        <ele>562.8</ele>
        <time>1970-01-01T00:00:00Z</time>
      </trkpt>
      <trkpt lat="39.472625" lon="-5.146849">
        <ele>562.8</ele>
        <time>1970-01-01T00:00:00Z</time>
      </trkpt>
      <trkpt lat="39.472625" lon="-5.146849">
        <ele>562.8</ele>
        <time>1970-01-01T00:00:00Z</time>
      </trkpt>
      <trkpt lat="39.472615" lon="-5.146838">
        <ele>562.8</ele>
        <time>1970-01-01T00:00:00Z</time>
      </trkpt>
      <trkpt lat="39.472615" lon="-5.146838">
        <ele>562.8</ele>
        <time>1970-01-01T00:00:00Z</time>
      </trkpt>
      <trkpt lat="39.472615" lon="-5.146838">
        <ele>562.8</ele>
        <time>1970-01-01T00:00:00Z</time>
      </trkpt>
      <trkpt lat="39.472615" lon="-5.146838">
        <ele>562.8</ele>
        <time>1970-01-01T00:00:00Z</time>
      </trkpt>
      <trkpt lat="39.472599" lon="-5.146814">
        <ele>562.7</ele>
        <time>1970-01-01T00:00:00Z</time>
      </trkpt>
      <trkpt lat="39.472599" lon="-5.146814">
        <ele>562.7</ele>
        <time>1970-01-01T00:00:00Z</time>
      </trkpt>
      <trkpt lat="39.472599" lon="-5.146814">
        <ele>562.7</ele>
        <time>1970-01-01T00:00:00Z</time>
      </trkpt>
      <trkpt lat="39.472599" lon="-5.146814">
        <ele>562.7</ele>
        <time>1970-01-01T00:00:00Z</time>
      </trkpt>
      <trkpt lat="39.472581" lon="-5.146790">
        <ele>562.7</ele>
        <time>1970-01-01T00:00:00Z</time>
      </trkpt>
      <trkpt lat="39.472581" lon="-5.146790">
        <ele>562.7</ele>
        <time>1970-01-01T00:00:00Z</time>
      </trkpt>
      <trkpt lat="39.472581" lon="-5.146790">
        <ele>562.7</ele>
        <time>1970-01-01T00:00:00Z</time>
      </trkpt>
      <trkpt lat="39.472581" lon="-5.146790">
        <ele>562.7</ele>
        <time>1970-01-01T00:00:00Z</time>
      </trkpt>
      <trkpt lat="39.472563" lon="-5.146768">
        <ele>562.8</ele>
        <time>1970-01-01T00:00:00Z</time>
      </trkpt>
      <trkpt lat="39.472563" lon="-5.146768">
        <ele>562.8</ele>
        <time>1970-01-01T00:00:00Z</time>
      </trkpt>
      <trkpt lat="39.472563" lon="-5.146768">
        <ele>562.8</ele>
        <time>1970-01-01T00:00:00Z</time>
      </trkpt>
      <trkpt lat="39.472563" lon="-5.146768">
        <ele>562.8</ele>
        <time>1970-01-01T00:00:00Z</time>
      </trkpt>
      <trkpt lat="39.472532" lon="-5.146732">
        <ele>562.9</ele>
        <time>1970-01-01T00:00:00Z</time>
      </trkpt>
      <trkpt lat="39.472532" lon="-5.146732">
        <ele>562.9</ele>
        <time>1970-01-01T00:00:00Z</time>
      </trkpt>
      <trkpt lat="39.472532" lon="-5.146732">
        <ele>562.9</ele>
        <time>1970-01-01T00:00:00Z</time>
      </trkpt>
      <trkpt lat="39.472532" lon="-5.146732">
        <ele>562.9</ele>
        <time>1970-01-01T00:00:00Z</time>
      </trkpt>
      <trkpt lat="39.472512" lon="-5.146707">
        <ele>562.9</ele>
        <time>1970-01-01T00:00:00Z</time>
      </trkpt>
      <trkpt lat="39.472512" lon="-5.146707">
        <ele>562.9</ele>
        <time>1970-01-01T00:00:00Z</time>
      </trkpt>
      <trkpt lat="39.472512" lon="-5.146707">
        <ele>562.9</ele>
        <time>1970-01-01T00:00:00Z</time>
      </trkpt>
      <trkpt lat="39.472512" lon="-5.146707">
        <ele>562.9</ele>
        <time>1970-01-01T00:00:00Z</time>
      </trkpt>
      <trkpt lat="39.472492" lon="-5.146664">
        <ele>562.7</ele>
        <time>1970-01-01T00:00:00Z</time>
      </trkpt>
      <trkpt lat="39.472492" lon="-5.146664">
        <ele>562.7</ele>
        <time>1970-01-01T00:00:00Z</time>
      </trkpt>
      <trkpt lat="39.472492" lon="-5.146664">
        <ele>562.7</ele>
        <time>1970-01-01T00:00:00Z</time>
      </trkpt>
      <trkpt lat="39.472492" lon="-5.146664">
        <ele>562.7</ele>
        <time>1970-01-01T00:00:00Z</time>
      </trkpt>
      <trkpt lat="39.472453" lon="-5.146573">
        <ele>562.4</ele>
        <time>1970-01-01T00:00:00Z</time>
      </trkpt>
      <trkpt lat="39.472453" lon="-5.146573">
        <ele>562.4</ele>
        <time>1970-01-01T00:00:00Z</time>
      </trkpt>
      <trkpt lat="39.472453" lon="-5.146573">
        <ele>562.4</ele>
        <time>1970-01-01T00:00:00Z</time>
      </trkpt>
      <trkpt lat="39.472453" lon="-5.146573">
        <ele>562.4</ele>
        <time>1970-01-01T00:00:00Z</time>
      </trkpt>
      <trkpt lat="39.472429" lon="-5.146509">
        <ele>562.2</ele>
        <time>1970-01-01T00:00:00Z</time>
      </trkpt>
      <trkpt lat="39.472429" lon="-5.146509">
        <ele>562.2</ele>
        <time>1970-01-01T00:00:00Z</time>
      </trkpt>
      <trkpt lat="39.472429" lon="-5.146509">
        <ele>562.2</ele>
        <time>1970-01-01T00:00:00Z</time>
      </trkpt>
      <trkpt lat="39.472429" lon="-5.146509">
        <ele>562.2</ele>
        <time>1970-01-01T00:00:00Z</time>
      </trkpt>
      <trkpt lat="39.472405" lon="-5.146418">
        <ele>561.7</ele>
        <time>1970-01-01T00:00:00Z</time>
      </trkpt>
      <trkpt lat="39.472405" lon="-5.146418">
        <ele>561.7</ele>
        <time>1970-01-01T00:00:00Z</time>
      </trkpt>
      <trkpt lat="39.472405" lon="-5.146418">
        <ele>561.7</ele>
        <time>1970-01-01T00:00:00Z</time>
      </trkpt>
      <trkpt lat="39.472405" lon="-5.146418">
        <ele>561.7</ele>
        <time>1970-01-01T00:00:00Z</time>
      </trkpt>
      <trkpt lat="39.472395" lon="-5.146325">
        <ele>560.8</ele>
        <time>1970-01-01T00:00:00Z</time>
      </trkpt>
      <trkpt lat="39.472395" lon="-5.146325">
        <ele>560.8</ele>
        <time>1970-01-01T00:00:00Z</time>
      </trkpt>
      <trkpt lat="39.472395" lon="-5.146325">
        <ele>560.8</ele>
        <time>1970-01-01T00:00:00Z</time>
      </trkpt>
      <trkpt lat="39.472395" lon="-5.146325">
        <ele>560.8</ele>
        <time>1970-01-01T00:00:00Z</time>
      </trkpt>
      <trkpt lat="39.472387" lon="-5.146276">
        <ele>560.4</ele>
        <time>1970-01-01T00:00:00Z</time>
      </trkpt>
      <trkpt lat="39.472387" lon="-5.146276">
        <ele>560.4</ele>
        <time>1970-01-01T00:00:00Z</time>
      </trkpt>
      <trkpt lat="39.472387" lon="-5.146276">
        <ele>560.4</ele>
        <time>1970-01-01T00:00:00Z</time>
      </trkpt>
      <trkpt lat="39.472387" lon="-5.146276">
        <ele>560.4</ele>
        <time>1970-01-01T00:00:00Z</time>
      </trkpt>
      <trkpt lat="39.472384" lon="-5.146219">
        <ele>559.8</ele>
        <time>1970-01-01T00:00:00Z</time>
      </trkpt>
      <trkpt lat="39.472384" lon="-5.146219">
        <ele>559.8</ele>
        <time>1970-01-01T00:00:00Z</time>
      </trkpt>
      <trkpt lat="39.472384" lon="-5.146219">
        <ele>559.8</ele>
        <time>1970-01-01T00:00:00Z</time>
      </trkpt>
      <trkpt lat="39.472384" lon="-5.146219">
        <ele>559.8</ele>
        <time>1970-01-01T00:00:00Z</time>
      </trkpt>
      <trkpt lat="39.472382" lon="-5.146175">
        <ele>559.3</ele>
        <time>1970-01-01T00:00:00Z</time>
      </trkpt>
      <trkpt lat="39.472382" lon="-5.146175">
        <ele>559.3</ele>
        <time>1970-01-01T00:00:00Z</time>
      </trkpt>
      <trkpt lat="39.472382" lon="-5.146175">
        <ele>559.3</ele>
        <time>1970-01-01T00:00:00Z</time>
      </trkpt>
      <trkpt lat="39.472382" lon="-5.146175">
        <ele>559.3</ele>
        <time>1970-01-01T00:00:00Z</time>
      </trkpt>
      <trkpt lat="39.472380" lon="-5.146131">
        <ele>559.0</ele>
        <time>1970-01-01T00:00:00Z</time>
      </trkpt>
      <trkpt lat="39.472380" lon="-5.146131">
        <ele>559.0</ele>
        <time>1970-01-01T00:00:00Z</time>
      </trkpt>
      <trkpt lat="39.472380" lon="-5.146131">
        <ele>559.0</ele>
        <time>1970-01-01T00:00:00Z</time>
      </trkpt>
      <trkpt lat="39.472380" lon="-5.146131">
        <ele>559.0</ele>
        <time>1970-01-01T00:00:00Z</time>
      </trkpt>
      <trkpt lat="39.472378" lon="-5.146083">
        <ele>558.8</ele>
        <time>1970-01-01T00:00:00Z</time>
      </trkpt>
      <trkpt lat="39.472378" lon="-5.146083">
        <ele>558.8</ele>
        <time>1970-01-01T00:00:00Z</time>
      </trkpt>
      <trkpt lat="39.472378" lon="-5.146083">
        <ele>558.8</ele>
        <time>1970-01-01T00:00:00Z</time>
      </trkpt>
      <trkpt lat="39.472378" lon="-5.146083">
        <ele>558.8</ele>
        <time>1970-01-01T00:00:00Z</time>
      </trkpt>
      <trkpt lat="39.472378" lon="-5.146035">
        <ele>558.6</ele>
        <time>1970-01-01T00:00:00Z</time>
      </trkpt>
      <trkpt lat="39.472378" lon="-5.146035">
        <ele>558.6</ele>
        <time>1970-01-01T00:00:00Z</time>
      </trkpt>
      <trkpt lat="39.472378" lon="-5.146035">
        <ele>558.6</ele>
        <time>1970-01-01T00:00:00Z</time>
      </trkpt>
      <trkpt lat="39.472378" lon="-5.146035">
        <ele>558.6</ele>
        <time>1970-01-01T00:00:00Z</time>
      </trkpt>
      <trkpt lat="39.472380" lon="-5.145982">
        <ele>558.2</ele>
        <time>1970-01-01T00:00:00Z</time>
      </trkpt>
      <trkpt lat="39.472380" lon="-5.145982">
        <ele>558.2</ele>
        <time>1970-01-01T00:00:00Z</time>
      </trkpt>
      <trkpt lat="39.472380" lon="-5.145982">
        <ele>558.2</ele>
        <time>1970-01-01T00:00:00Z</time>
      </trkpt>
      <trkpt lat="39.472380" lon="-5.145982">
        <ele>558.2</ele>
        <time>1970-01-01T00:00:00Z</time>
      </trkpt>
      <trkpt lat="39.472391" lon="-5.145916">
        <ele>557.7</ele>
        <time>1970-01-01T00:00:00Z</time>
      </trkpt>
      <trkpt lat="39.472391" lon="-5.145916">
        <ele>557.7</ele>
        <time>1970-01-01T00:00:00Z</time>
      </trkpt>
      <trkpt lat="39.472391" lon="-5.145916">
        <ele>557.7</ele>
        <time>1970-01-01T00:00:00Z</time>
      </trkpt>
      <trkpt lat="39.472391" lon="-5.145916">
        <ele>557.7</ele>
        <time>1970-01-01T00:00:00Z</time>
      </trkpt>
      <trkpt lat="39.472396" lon="-5.145870">
        <ele>557.5</ele>
        <time>1970-01-01T00:00:00Z</time>
      </trkpt>
      <trkpt lat="39.472396" lon="-5.145870">
        <ele>557.5</ele>
        <time>1970-01-01T00:00:00Z</time>
      </trkpt>
      <trkpt lat="39.472396" lon="-5.145870">
        <ele>557.5</ele>
        <time>1970-01-01T00:00:00Z</time>
      </trkpt>
      <trkpt lat="39.472396" lon="-5.145870">
        <ele>557.5</ele>
        <time>1970-01-01T00:00:00Z</time>
      </trkpt>
      <trkpt lat="39.472403" lon="-5.145827">
        <ele>557.4</ele>
        <time>1970-01-01T00:00:00Z</time>
      </trkpt>
      <trkpt lat="39.472403" lon="-5.145827">
        <ele>557.4</ele>
        <time>1970-01-01T00:00:00Z</time>
      </trkpt>
      <trkpt lat="39.472403" lon="-5.145827">
        <ele>557.4</ele>
        <time>1970-01-01T00:00:00Z</time>
      </trkpt>
      <trkpt lat="39.472403" lon="-5.145827">
        <ele>557.4</ele>
        <time>1970-01-01T00:00:00Z</time>
      </trkpt>
      <trkpt lat="39.472412" lon="-5.145785">
        <ele>557.1</ele>
        <time>1970-01-01T00:00:00Z</time>
      </trkpt>
      <trkpt lat="39.472412" lon="-5.145785">
        <ele>557.1</ele>
        <time>1970-01-01T00:00:00Z</time>
      </trkpt>
      <trkpt lat="39.472412" lon="-5.145785">
        <ele>557.1</ele>
        <time>1970-01-01T00:00:00Z</time>
      </trkpt>
      <trkpt lat="39.472412" lon="-5.145785">
        <ele>557.1</ele>
        <time>1970-01-01T00:00:00Z</time>
      </trkpt>
      <trkpt lat="39.472421" lon="-5.145743">
        <ele>556.9</ele>
        <time>1970-01-01T00:00:00Z</time>
      </trkpt>
      <trkpt lat="39.472421" lon="-5.145743">
        <ele>556.9</ele>
        <time>1970-01-01T00:00:00Z</time>
      </trkpt>
      <trkpt lat="39.472421" lon="-5.145743">
        <ele>556.9</ele>
        <time>1970-01-01T00:00:00Z</time>
      </trkpt>
      <trkpt lat="39.472421" lon="-5.145743">
        <ele>556.9</ele>
        <time>1970-01-01T00:00:00Z</time>
      </trkpt>
      <trkpt lat="39.472431" lon="-5.145701">
        <ele>556.6</ele>
        <time>1970-01-01T00:00:00Z</time>
      </trkpt>
      <trkpt lat="39.472431" lon="-5.145701">
        <ele>556.6</ele>
        <time>1970-01-01T00:00:00Z</time>
      </trkpt>
      <trkpt lat="39.472431" lon="-5.145701">
        <ele>556.6</ele>
        <time>1970-01-01T00:00:00Z</time>
      </trkpt>
      <trkpt lat="39.472431" lon="-5.145701">
        <ele>556.6</ele>
        <time>1970-01-01T00:00:00Z</time>
      </trkpt>
      <trkpt lat="39.472445" lon="-5.145652">
        <ele>556.4</ele>
        <time>1970-01-01T00:00:00Z</time>
      </trkpt>
      <trkpt lat="39.472445" lon="-5.145652">
        <ele>556.4</ele>
        <time>1970-01-01T00:00:00Z</time>
      </trkpt>
      <trkpt lat="39.472445" lon="-5.145652">
        <ele>556.4</ele>
        <time>1970-01-01T00:00:00Z</time>
      </trkpt>
      <trkpt lat="39.472445" lon="-5.145652">
        <ele>556.4</ele>
        <time>1970-01-01T00:00:00Z</time>
      </trkpt>
      <trkpt lat="39.472456" lon="-5.145613">
        <ele>556.2</ele>
        <time>1970-01-01T00:00:00Z</time>
      </trkpt>
      <trkpt lat="39.472456" lon="-5.145613">
        <ele>556.2</ele>
        <time>1970-01-01T00:00:00Z</time>
      </trkpt>
      <trkpt lat="39.472456" lon="-5.145613">
        <ele>556.2</ele>
        <time>1970-01-01T00:00:00Z</time>
      </trkpt>
      <trkpt lat="39.472456" lon="-5.145613">
        <ele>556.2</ele>
        <time>1970-01-01T00:00:00Z</time>
      </trkpt>
      <trkpt lat="39.472465" lon="-5.145573">
        <ele>556.0</ele>
        <time>1970-01-01T00:00:00Z</time>
      </trkpt>
      <trkpt lat="39.472465" lon="-5.145573">
        <ele>556.0</ele>
        <time>1970-01-01T00:00:00Z</time>
      </trkpt>
      <trkpt lat="39.472465" lon="-5.145573">
        <ele>556.0</ele>
        <time>1970-01-01T00:00:00Z</time>
      </trkpt>
      <trkpt lat="39.472465" lon="-5.145573">
        <ele>556.0</ele>
        <time>1970-01-01T00:00:00Z</time>
      </trkpt>
      <trkpt lat="39.472474" lon="-5.145531">
        <ele>555.8</ele>
        <time>1970-01-01T00:00:00Z</time>
      </trkpt>
      <trkpt lat="39.472474" lon="-5.145531">
        <ele>555.8</ele>
        <time>1970-01-01T00:00:00Z</time>
      </trkpt>
      <trkpt lat="39.472474" lon="-5.145531">
        <ele>555.8</ele>
        <time>1970-01-01T00:00:00Z</time>
      </trkpt>
      <trkpt lat="39.472474" lon="-5.145531">
        <ele>555.8</ele>
        <time>1970-01-01T00:00:00Z</time>
      </trkpt>
      <trkpt lat="39.472483" lon="-5.145493">
        <ele>555.6</ele>
        <time>1970-01-01T00:00:00Z</time>
      </trkpt>
      <trkpt lat="39.472483" lon="-5.145493">
        <ele>555.6</ele>
        <time>1970-01-01T00:00:00Z</time>
      </trkpt>
      <trkpt lat="39.472483" lon="-5.145493">
        <ele>555.6</ele>
        <time>1970-01-01T00:00:00Z</time>
      </trkpt>
      <trkpt lat="39.472483" lon="-5.145493">
        <ele>555.6</ele>
        <time>1970-01-01T00:00:00Z</time>
      </trkpt>
      <trkpt lat="39.472491" lon="-5.145461">
        <ele>555.4</ele>
        <time>1970-01-01T00:00:00Z</time>
      </trkpt>
      <trkpt lat="39.472491" lon="-5.145461">
        <ele>555.4</ele>
        <time>1970-01-01T00:00:00Z</time>
      </trkpt>
      <trkpt lat="39.472491" lon="-5.145461">
        <ele>555.4</ele>
        <time>1970-01-01T00:00:00Z</time>
      </trkpt>
      <trkpt lat="39.472491" lon="-5.145461">
        <ele>555.4</ele>
        <time>1970-01-01T00:00:00Z</time>
      </trkpt>
      <trkpt lat="39.472532" lon="-5.145347">
        <ele>554.7</ele>
        <time>1970-01-01T00:00:00Z</time>
      </trkpt>
      <trkpt lat="39.472532" lon="-5.145347">
        <ele>554.7</ele>
        <time>1970-01-01T00:00:00Z</time>
      </trkpt>
      <trkpt lat="39.472532" lon="-5.145347">
        <ele>554.7</ele>
        <time>1970-01-01T00:00:00Z</time>
      </trkpt>
      <trkpt lat="39.472532" lon="-5.145347">
        <ele>554.7</ele>
        <time>1970-01-01T00:00:00Z</time>
      </trkpt>
      <trkpt lat="39.472548" lon="-5.145314">
        <ele>554.3</ele>
        <time>1970-01-01T00:00:00Z</time>
      </trkpt>
      <trkpt lat="39.472548" lon="-5.145314">
        <ele>554.3</ele>
        <time>1970-01-01T00:00:00Z</time>
      </trkpt>
      <trkpt lat="39.472548" lon="-5.145314">
        <ele>554.3</ele>
        <time>1970-01-01T00:00:00Z</time>
      </trkpt>
      <trkpt lat="39.472548" lon="-5.145314">
        <ele>554.3</ele>
        <time>1970-01-01T00:00:00Z</time>
      </trkpt>
      <trkpt lat="39.472567" lon="-5.145276">
        <ele>553.9</ele>
        <time>1970-01-01T00:00:00Z</time>
      </trkpt>
      <trkpt lat="39.472567" lon="-5.145276">
        <ele>553.9</ele>
        <time>1970-01-01T00:00:00Z</time>
      </trkpt>
      <trkpt lat="39.472567" lon="-5.145276">
        <ele>553.9</ele>
        <time>1970-01-01T00:00:00Z</time>
      </trkpt>
      <trkpt lat="39.472567" lon="-5.145276">
        <ele>553.9</ele>
        <time>1970-01-01T00:00:00Z</time>
      </trkpt>
      <trkpt lat="39.472590" lon="-5.145233">
        <ele>553.4</ele>
        <time>1970-01-01T00:00:00Z</time>
      </trkpt>
      <trkpt lat="39.472590" lon="-5.145233">
        <ele>553.4</ele>
        <time>1970-01-01T00:00:00Z</time>
      </trkpt>
      <trkpt lat="39.472590" lon="-5.145233">
        <ele>553.4</ele>
        <time>1970-01-01T00:00:00Z</time>
      </trkpt>
      <trkpt lat="39.472590" lon="-5.145233">
        <ele>553.4</ele>
        <time>1970-01-01T00:00:00Z</time>
      </trkpt>
      <trkpt lat="39.472607" lon="-5.145201">
        <ele>552.9</ele>
        <time>1970-01-01T00:00:00Z</time>
      </trkpt>
      <trkpt lat="39.472607" lon="-5.145201">
        <ele>552.9</ele>
        <time>1970-01-01T00:00:00Z</time>
      </trkpt>
      <trkpt lat="39.472607" lon="-5.145201">
        <ele>552.9</ele>
        <time>1970-01-01T00:00:00Z</time>
      </trkpt>
      <trkpt lat="39.472607" lon="-5.145201">
        <ele>552.9</ele>
        <time>1970-01-01T00:00:00Z</time>
      </trkpt>
      <trkpt lat="39.472704" lon="-5.145034">
        <ele>550.5</ele>
        <time>1970-01-01T00:00:00Z</time>
      </trkpt>
      <trkpt lat="39.472704" lon="-5.145034">
        <ele>550.5</ele>
        <time>1970-01-01T00:00:00Z</time>
      </trkpt>
      <trkpt lat="39.472704" lon="-5.145034">
        <ele>550.5</ele>
        <time>1970-01-01T00:00:00Z</time>
      </trkpt>
      <trkpt lat="39.472704" lon="-5.145034">
        <ele>550.5</ele>
        <time>1970-01-01T00:00:00Z</time>
      </trkpt>
      <trkpt lat="39.472761" lon="-5.144920">
        <ele>549.4</ele>
        <time>1970-01-01T00:00:00Z</time>
      </trkpt>
      <trkpt lat="39.472761" lon="-5.144920">
        <ele>549.4</ele>
        <time>1970-01-01T00:00:00Z</time>
      </trkpt>
      <trkpt lat="39.472761" lon="-5.144920">
        <ele>549.4</ele>
        <time>1970-01-01T00:00:00Z</time>
      </trkpt>
      <trkpt lat="39.472761" lon="-5.144920">
        <ele>549.4</ele>
        <time>1970-01-01T00:00:00Z</time>
      </trkpt>
      <trkpt lat="39.472994" lon="-5.144340">
        <ele>544.9</ele>
        <time>1970-01-01T00:00:00Z</time>
      </trkpt>
      <trkpt lat="39.472994" lon="-5.144340">
        <ele>544.9</ele>
        <time>1970-01-01T00:00:00Z</time>
      </trkpt>
      <trkpt lat="39.472994" lon="-5.144340">
        <ele>544.9</ele>
        <time>1970-01-01T00:00:00Z</time>
      </trkpt>
      <trkpt lat="39.472994" lon="-5.144340">
        <ele>544.9</ele>
        <time>1970-01-01T00:00:00Z</time>
      </trkpt>
      <trkpt lat="39.473156" lon="-5.143930">
        <ele>541.6</ele>
        <time>1970-01-01T00:00:00Z</time>
      </trkpt>
      <trkpt lat="39.473156" lon="-5.143930">
        <ele>541.6</ele>
        <time>1970-01-01T00:00:00Z</time>
      </trkpt>
      <trkpt lat="39.473156" lon="-5.143930">
        <ele>541.6</ele>
        <time>1970-01-01T00:00:00Z</time>
      </trkpt>
      <trkpt lat="39.473156" lon="-5.143930">
        <ele>541.6</ele>
        <time>1970-01-01T00:00:00Z</time>
      </trkpt>
      <trkpt lat="39.473246" lon="-5.143678">
        <ele>540.2</ele>
        <time>1970-01-01T00:00:00Z</time>
      </trkpt>
      <trkpt lat="39.473246" lon="-5.143678">
        <ele>540.2</ele>
        <time>1970-01-01T00:00:00Z</time>
      </trkpt>
      <trkpt lat="39.473246" lon="-5.143678">
        <ele>540.2</ele>
        <time>1970-01-01T00:00:00Z</time>
      </trkpt>
      <trkpt lat="39.473246" lon="-5.143678">
        <ele>540.2</ele>
        <time>1970-01-01T00:00:00Z</time>
      </trkpt>
      <trkpt lat="39.473274" lon="-5.143510">
        <ele>539.4</ele>
        <time>1970-01-01T00:00:00Z</time>
      </trkpt>
      <trkpt lat="39.473274" lon="-5.143510">
        <ele>539.4</ele>
        <time>1970-01-01T00:00:00Z</time>
      </trkpt>
      <trkpt lat="39.473274" lon="-5.143510">
        <ele>539.4</ele>
        <time>1970-01-01T00:00:00Z</time>
      </trkpt>
      <trkpt lat="39.473274" lon="-5.143510">
        <ele>539.4</ele>
        <time>1970-01-01T00:00:00Z</time>
      </trkpt>
      <trkpt lat="39.473280" lon="-5.143377">
        <ele>538.8</ele>
        <time>1970-01-01T00:00:00Z</time>
      </trkpt>
      <trkpt lat="39.473280" lon="-5.143377">
        <ele>538.8</ele>
        <time>1970-01-01T00:00:00Z</time>
      </trkpt>
      <trkpt lat="39.473280" lon="-5.143377">
        <ele>538.8</ele>
        <time>1970-01-01T00:00:00Z</time>
      </trkpt>
      <trkpt lat="39.473280" lon="-5.143377">
        <ele>538.8</ele>
        <time>1970-01-01T00:00:00Z</time>
      </trkpt>
      <trkpt lat="39.473284" lon="-5.143233">
        <ele>538.1</ele>
        <time>1970-01-01T00:00:00Z</time>
      </trkpt>
      <trkpt lat="39.473284" lon="-5.143233">
        <ele>538.1</ele>
        <time>1970-01-01T00:00:00Z</time>
      </trkpt>
      <trkpt lat="39.473284" lon="-5.143233">
        <ele>538.1</ele>
        <time>1970-01-01T00:00:00Z</time>
      </trkpt>
      <trkpt lat="39.473284" lon="-5.143233">
        <ele>538.1</ele>
        <time>1970-01-01T00:00:00Z</time>
      </trkpt>
      <trkpt lat="39.473298" lon="-5.143095">
        <ele>537.0</ele>
        <time>1970-01-01T00:00:00Z</time>
      </trkpt>
      <trkpt lat="39.473298" lon="-5.143095">
        <ele>537.0</ele>
        <time>1970-01-01T00:00:00Z</time>
      </trkpt>
      <trkpt lat="39.473298" lon="-5.143095">
        <ele>537.0</ele>
        <time>1970-01-01T00:00:00Z</time>
      </trkpt>
      <trkpt lat="39.473298" lon="-5.143095">
        <ele>537.0</ele>
        <time>1970-01-01T00:00:00Z</time>
      </trkpt>
      <trkpt lat="39.473298" lon="-5.142969">
        <ele>536.0</ele>
        <time>1970-01-01T00:00:00Z</time>
      </trkpt>
      <trkpt lat="39.473298" lon="-5.142969">
        <ele>536.0</ele>
        <time>1970-01-01T00:00:00Z</time>
      </trkpt>
      <trkpt lat="39.473298" lon="-5.142969">
        <ele>536.0</ele>
        <time>1970-01-01T00:00:00Z</time>
      </trkpt>
      <trkpt lat="39.473298" lon="-5.142969">
        <ele>536.0</ele>
        <time>1970-01-01T00:00:00Z</time>
      </trkpt>
      <trkpt lat="39.473298" lon="-5.142826">
        <ele>534.4</ele>
        <time>1970-01-01T00:00:00Z</time>
      </trkpt>
      <trkpt lat="39.473298" lon="-5.142826">
        <ele>534.4</ele>
        <time>1970-01-01T00:00:00Z</time>
      </trkpt>
      <trkpt lat="39.473298" lon="-5.142826">
        <ele>534.4</ele>
        <time>1970-01-01T00:00:00Z</time>
      </trkpt>
      <trkpt lat="39.473298" lon="-5.142826">
        <ele>534.4</ele>
        <time>1970-01-01T00:00:00Z</time>
      </trkpt>
      <trkpt lat="39.473308" lon="-5.142674">
        <ele>532.4</ele>
        <time>1970-01-01T00:00:00Z</time>
      </trkpt>
      <trkpt lat="39.473308" lon="-5.142674">
        <ele>532.4</ele>
        <time>1970-01-01T00:00:00Z</time>
      </trkpt>
      <trkpt lat="39.473308" lon="-5.142674">
        <ele>532.4</ele>
        <time>1970-01-01T00:00:00Z</time>
      </trkpt>
      <trkpt lat="39.473308" lon="-5.142674">
        <ele>532.4</ele>
        <time>1970-01-01T00:00:00Z</time>
      </trkpt>
      <trkpt lat="39.473313" lon="-5.142524">
        <ele>531.7</ele>
        <time>1970-01-01T00:00:00Z</time>
      </trkpt>
      <trkpt lat="39.473313" lon="-5.142524">
        <ele>531.7</ele>
        <time>1970-01-01T00:00:00Z</time>
      </trkpt>
      <trkpt lat="39.473313" lon="-5.142524">
        <ele>531.7</ele>
        <time>1970-01-01T00:00:00Z</time>
      </trkpt>
      <trkpt lat="39.473313" lon="-5.142524">
        <ele>531.7</ele>
        <time>1970-01-01T00:00:00Z</time>
      </trkpt>
      <trkpt lat="39.473295" lon="-5.142392">
        <ele>530.9</ele>
        <time>1970-01-01T00:00:00Z</time>
      </trkpt>
      <trkpt lat="39.473295" lon="-5.142392">
        <ele>530.9</ele>
        <time>1970-01-01T00:00:00Z</time>
      </trkpt>
      <trkpt lat="39.473295" lon="-5.142392">
        <ele>530.9</ele>
        <time>1970-01-01T00:00:00Z</time>
      </trkpt>
      <trkpt lat="39.473295" lon="-5.142392">
        <ele>530.9</ele>
        <time>1970-01-01T00:00:00Z</time>
      </trkpt>
      <trkpt lat="39.473266" lon="-5.142325">
        <ele>530.3</ele>
        <time>1970-01-01T00:00:00Z</time>
      </trkpt>
      <trkpt lat="39.473266" lon="-5.142325">
        <ele>530.3</ele>
        <time>1970-01-01T00:00:00Z</time>
      </trkpt>
      <trkpt lat="39.473266" lon="-5.142325">
        <ele>530.3</ele>
        <time>1970-01-01T00:00:00Z</time>
      </trkpt>
      <trkpt lat="39.473266" lon="-5.142325">
        <ele>530.3</ele>
        <time>1970-01-01T00:00:00Z</time>
      </trkpt>
      <trkpt lat="39.473237" lon="-5.142242">
        <ele>529.6</ele>
        <time>1970-01-01T00:00:00Z</time>
      </trkpt>
      <trkpt lat="39.473237" lon="-5.142242">
        <ele>529.6</ele>
        <time>1970-01-01T00:00:00Z</time>
      </trkpt>
      <trkpt lat="39.473237" lon="-5.142242">
        <ele>529.6</ele>
        <time>1970-01-01T00:00:00Z</time>
      </trkpt>
      <trkpt lat="39.473237" lon="-5.142242">
        <ele>529.6</ele>
        <time>1970-01-01T00:00:00Z</time>
      </trkpt>
      <trkpt lat="39.473193" lon="-5.142160">
        <ele>529.4</ele>
        <time>1970-01-01T00:00:00Z</time>
      </trkpt>
      <trkpt lat="39.473193" lon="-5.142160">
        <ele>529.4</ele>
        <time>1970-01-01T00:00:00Z</time>
      </trkpt>
      <trkpt lat="39.473193" lon="-5.142160">
        <ele>529.4</ele>
        <time>1970-01-01T00:00:00Z</time>
      </trkpt>
      <trkpt lat="39.473193" lon="-5.142160">
        <ele>529.4</ele>
        <time>1970-01-01T00:00:00Z</time>
      </trkpt>
      <trkpt lat="39.473115" lon="-5.142057">
        <ele>529.5</ele>
        <time>1970-01-01T00:00:00Z</time>
      </trkpt>
      <trkpt lat="39.473115" lon="-5.142057">
        <ele>529.5</ele>
        <time>1970-01-01T00:00:00Z</time>
      </trkpt>
      <trkpt lat="39.473115" lon="-5.142057">
        <ele>529.5</ele>
        <time>1970-01-01T00:00:00Z</time>
      </trkpt>
      <trkpt lat="39.473115" lon="-5.142057">
        <ele>529.5</ele>
        <time>1970-01-01T00:00:00Z</time>
      </trkpt>
      <trkpt lat="39.473096" lon="-5.142007">
        <ele>529.3</ele>
        <time>1970-01-01T00:00:00Z</time>
      </trkpt>
      <trkpt lat="39.473096" lon="-5.142007">
        <ele>529.3</ele>
        <time>1970-01-01T00:00:00Z</time>
      </trkpt>
      <trkpt lat="39.473096" lon="-5.142007">
        <ele>529.3</ele>
        <time>1970-01-01T00:00:00Z</time>
      </trkpt>
      <trkpt lat="39.473096" lon="-5.142007">
        <ele>529.3</ele>
        <time>1970-01-01T00:00:00Z</time>
      </trkpt>
      <trkpt lat="39.473075" lon="-5.141961">
        <ele>529.2</ele>
        <time>1970-01-01T00:00:00Z</time>
      </trkpt>
      <trkpt lat="39.473075" lon="-5.141961">
        <ele>529.2</ele>
        <time>1970-01-01T00:00:00Z</time>
      </trkpt>
      <trkpt lat="39.473075" lon="-5.141961">
        <ele>529.2</ele>
        <time>1970-01-01T00:00:00Z</time>
      </trkpt>
      <trkpt lat="39.473075" lon="-5.141961">
        <ele>529.2</ele>
        <time>1970-01-01T00:00:00Z</time>
      </trkpt>
      <trkpt lat="39.473057" lon="-5.141905">
        <ele>529.0</ele>
        <time>1970-01-01T00:00:00Z</time>
      </trkpt>
      <trkpt lat="39.473057" lon="-5.141905">
        <ele>529.0</ele>
        <time>1970-01-01T00:00:00Z</time>
      </trkpt>
      <trkpt lat="39.473057" lon="-5.141905">
        <ele>529.0</ele>
        <time>1970-01-01T00:00:00Z</time>
      </trkpt>
      <trkpt lat="39.473057" lon="-5.141905">
        <ele>529.0</ele>
        <time>1970-01-01T00:00:00Z</time>
      </trkpt>
      <trkpt lat="39.473032" lon="-5.141805">
        <ele>528.4</ele>
        <time>1970-01-01T00:00:00Z</time>
      </trkpt>
      <trkpt lat="39.473032" lon="-5.141805">
        <ele>528.4</ele>
        <time>1970-01-01T00:00:00Z</time>
      </trkpt>
      <trkpt lat="39.473032" lon="-5.141805">
        <ele>528.4</ele>
        <time>1970-01-01T00:00:00Z</time>
      </trkpt>
      <trkpt lat="39.473032" lon="-5.141805">
        <ele>528.4</ele>
        <time>1970-01-01T00:00:00Z</time>
      </trkpt>
      <trkpt lat="39.473004" lon="-5.141707">
        <ele>528.1</ele>
        <time>1970-01-01T00:00:00Z</time>
      </trkpt>
      <trkpt lat="39.473004" lon="-5.141707">
        <ele>528.1</ele>
        <time>1970-01-01T00:00:00Z</time>
      </trkpt>
      <trkpt lat="39.473004" lon="-5.141707">
        <ele>528.1</ele>
        <time>1970-01-01T00:00:00Z</time>
      </trkpt>
      <trkpt lat="39.473004" lon="-5.141707">
        <ele>528.1</ele>
        <time>1970-01-01T00:00:00Z</time>
      </trkpt>
      <trkpt lat="39.472976" lon="-5.141582">
        <ele>527.8</ele>
        <time>1970-01-01T00:00:00Z</time>
      </trkpt>
      <trkpt lat="39.472976" lon="-5.141582">
        <ele>527.8</ele>
        <time>1970-01-01T00:00:00Z</time>
      </trkpt>
      <trkpt lat="39.472976" lon="-5.141582">
        <ele>527.8</ele>
        <time>1970-01-01T00:00:00Z</time>
      </trkpt>
      <trkpt lat="39.472976" lon="-5.141582">
        <ele>527.8</ele>
        <time>1970-01-01T00:00:00Z</time>
      </trkpt>
      <trkpt lat="39.472932" lon="-5.141419">
        <ele>527.1</ele>
        <time>1970-01-01T00:00:00Z</time>
      </trkpt>
      <trkpt lat="39.472932" lon="-5.141419">
        <ele>527.1</ele>
        <time>1970-01-01T00:00:00Z</time>
      </trkpt>
      <trkpt lat="39.472932" lon="-5.141419">
        <ele>527.1</ele>
        <time>1970-01-01T00:00:00Z</time>
      </trkpt>
      <trkpt lat="39.472932" lon="-5.141419">
        <ele>527.1</ele>
        <time>1970-01-01T00:00:00Z</time>
      </trkpt>
      <trkpt lat="39.472911" lon="-5.141343">
        <ele>526.9</ele>
        <time>1970-01-01T00:00:00Z</time>
      </trkpt>
      <trkpt lat="39.472911" lon="-5.141343">
        <ele>526.9</ele>
        <time>1970-01-01T00:00:00Z</time>
      </trkpt>
      <trkpt lat="39.472911" lon="-5.141343">
        <ele>526.9</ele>
        <time>1970-01-01T00:00:00Z</time>
      </trkpt>
      <trkpt lat="39.472911" lon="-5.141343">
        <ele>526.9</ele>
        <time>1970-01-01T00:00:00Z</time>
      </trkpt>
      <trkpt lat="39.472813" lon="-5.141129">
        <ele>527.1</ele>
        <time>1970-01-01T00:00:00Z</time>
      </trkpt>
      <trkpt lat="39.472813" lon="-5.141129">
        <ele>527.1</ele>
        <time>1970-01-01T00:00:00Z</time>
      </trkpt>
      <trkpt lat="39.472813" lon="-5.141129">
        <ele>527.1</ele>
        <time>1970-01-01T00:00:00Z</time>
      </trkpt>
      <trkpt lat="39.472813" lon="-5.141129">
        <ele>527.1</ele>
        <time>1970-01-01T00:00:00Z</time>
      </trkpt>
      <trkpt lat="39.472615" lon="-5.140752">
        <ele>525.9</ele>
        <time>1970-01-01T00:00:00Z</time>
      </trkpt>
      <trkpt lat="39.472615" lon="-5.140752">
        <ele>525.9</ele>
        <time>1970-01-01T00:00:00Z</time>
      </trkpt>
      <trkpt lat="39.472615" lon="-5.140752">
        <ele>525.9</ele>
        <time>1970-01-01T00:00:00Z</time>
      </trkpt>
      <trkpt lat="39.472615" lon="-5.140752">
        <ele>525.9</ele>
        <time>1970-01-01T00:00:00Z</time>
      </trkpt>
      <trkpt lat="39.472483" lon="-5.140529">
        <ele>524.9</ele>
        <time>1970-01-01T00:00:00Z</time>
      </trkpt>
      <trkpt lat="39.472483" lon="-5.140529">
        <ele>524.9</ele>
        <time>1970-01-01T00:00:00Z</time>
      </trkpt>
      <trkpt lat="39.472483" lon="-5.140529">
        <ele>524.9</ele>
        <time>1970-01-01T00:00:00Z</time>
      </trkpt>
      <trkpt lat="39.472483" lon="-5.140529">
        <ele>524.9</ele>
        <time>1970-01-01T00:00:00Z</time>
      </trkpt>
      <trkpt lat="39.472414" lon="-5.140366">
        <ele>524.3</ele>
        <time>1970-01-01T00:00:00Z</time>
      </trkpt>
      <trkpt lat="39.472414" lon="-5.140366">
        <ele>524.3</ele>
        <time>1970-01-01T00:00:00Z</time>
      </trkpt>
      <trkpt lat="39.472414" lon="-5.140366">
        <ele>524.3</ele>
        <time>1970-01-01T00:00:00Z</time>
      </trkpt>
      <trkpt lat="39.472414" lon="-5.140366">
        <ele>524.3</ele>
        <time>1970-01-01T00:00:00Z</time>
      </trkpt>
      <trkpt lat="39.472410" lon="-5.140292">
        <ele>523.8</ele>
        <time>1970-01-01T00:00:00Z</time>
      </trkpt>
      <trkpt lat="39.472410" lon="-5.140292">
        <ele>523.8</ele>
        <time>1970-01-01T00:00:00Z</time>
      </trkpt>
      <trkpt lat="39.472410" lon="-5.140292">
        <ele>523.8</ele>
        <time>1970-01-01T00:00:00Z</time>
      </trkpt>
      <trkpt lat="39.472410" lon="-5.140292">
        <ele>523.8</ele>
        <time>1970-01-01T00:00:00Z</time>
      </trkpt>
      <trkpt lat="39.472436" lon="-5.140179">
        <ele>522.9</ele>
        <time>1970-01-01T00:00:00Z</time>
      </trkpt>
      <trkpt lat="39.472436" lon="-5.140179">
        <ele>522.9</ele>
        <time>1970-01-01T00:00:00Z</time>
      </trkpt>
      <trkpt lat="39.472436" lon="-5.140179">
        <ele>522.9</ele>
        <time>1970-01-01T00:00:00Z</time>
      </trkpt>
      <trkpt lat="39.472436" lon="-5.140179">
        <ele>522.9</ele>
        <time>1970-01-01T00:00:00Z</time>
      </trkpt>
      <trkpt lat="39.472480" lon="-5.140063">
        <ele>521.7</ele>
        <time>1970-01-01T00:00:00Z</time>
      </trkpt>
      <trkpt lat="39.472480" lon="-5.140063">
        <ele>521.7</ele>
        <time>1970-01-01T00:00:00Z</time>
      </trkpt>
      <trkpt lat="39.472480" lon="-5.140063">
        <ele>521.7</ele>
        <time>1970-01-01T00:00:00Z</time>
      </trkpt>
      <trkpt lat="39.472480" lon="-5.140063">
        <ele>521.7</ele>
        <time>1970-01-01T00:00:00Z</time>
      </trkpt>
      <trkpt lat="39.472502" lon="-5.139988">
        <ele>521.0</ele>
        <time>1970-01-01T00:00:00Z</time>
      </trkpt>
      <trkpt lat="39.472502" lon="-5.139988">
        <ele>521.0</ele>
        <time>1970-01-01T00:00:00Z</time>
      </trkpt>
      <trkpt lat="39.472502" lon="-5.139988">
        <ele>521.0</ele>
        <time>1970-01-01T00:00:00Z</time>
      </trkpt>
      <trkpt lat="39.472502" lon="-5.139988">
        <ele>521.0</ele>
        <time>1970-01-01T00:00:00Z</time>
      </trkpt>
      <trkpt lat="39.472523" lon="-5.139904">
        <ele>520.2</ele>
        <time>1970-01-01T00:00:00Z</time>
      </trkpt>
      <trkpt lat="39.472523" lon="-5.139904">
        <ele>520.2</ele>
        <time>1970-01-01T00:00:00Z</time>
      </trkpt>
      <trkpt lat="39.472523" lon="-5.139904">
        <ele>520.2</ele>
        <time>1970-01-01T00:00:00Z</time>
      </trkpt>
      <trkpt lat="39.472523" lon="-5.139904">
        <ele>520.2</ele>
        <time>1970-01-01T00:00:00Z</time>
      </trkpt>
      <trkpt lat="39.472542" lon="-5.139793">
        <ele>519.6</ele>
        <time>1970-01-01T00:00:00Z</time>
      </trkpt>
      <trkpt lat="39.472542" lon="-5.139793">
        <ele>519.6</ele>
        <time>1970-01-01T00:00:00Z</time>
      </trkpt>
      <trkpt lat="39.472542" lon="-5.139793">
        <ele>519.6</ele>
        <time>1970-01-01T00:00:00Z</time>
      </trkpt>
      <trkpt lat="39.472542" lon="-5.139793">
        <ele>519.6</ele>
        <time>1970-01-01T00:00:00Z</time>
      </trkpt>
      <trkpt lat="39.472551" lon="-5.139748">
        <ele>519.4</ele>
        <time>1970-01-01T00:00:00Z</time>
      </trkpt>
      <trkpt lat="39.472551" lon="-5.139748">
        <ele>519.4</ele>
        <time>1970-01-01T00:00:00Z</time>
      </trkpt>
      <trkpt lat="39.472551" lon="-5.139748">
        <ele>519.4</ele>
        <time>1970-01-01T00:00:00Z</time>
      </trkpt>
      <trkpt lat="39.472551" lon="-5.139748">
        <ele>519.4</ele>
        <time>1970-01-01T00:00:00Z</time>
      </trkpt>
      <trkpt lat="39.472560" lon="-5.139713">
        <ele>519.2</ele>
        <time>1970-01-01T00:00:00Z</time>
      </trkpt>
      <trkpt lat="39.472560" lon="-5.139713">
        <ele>519.2</ele>
        <time>1970-01-01T00:00:00Z</time>
      </trkpt>
      <trkpt lat="39.472560" lon="-5.139713">
        <ele>519.2</ele>
        <time>1970-01-01T00:00:00Z</time>
      </trkpt>
      <trkpt lat="39.472560" lon="-5.139713">
        <ele>519.2</ele>
        <time>1970-01-01T00:00:00Z</time>
      </trkpt>
      <trkpt lat="39.472567" lon="-5.139659">
        <ele>518.9</ele>
        <time>1970-01-01T00:00:00Z</time>
      </trkpt>
      <trkpt lat="39.472567" lon="-5.139659">
        <ele>518.9</ele>
        <time>1970-01-01T00:00:00Z</time>
      </trkpt>
      <trkpt lat="39.472567" lon="-5.139659">
        <ele>518.9</ele>
        <time>1970-01-01T00:00:00Z</time>
      </trkpt>
      <trkpt lat="39.472567" lon="-5.139659">
        <ele>518.9</ele>
        <time>1970-01-01T00:00:00Z</time>
      </trkpt>
      <trkpt lat="39.472573" lon="-5.139624">
        <ele>518.5</ele>
        <time>1970-01-01T00:00:00Z</time>
      </trkpt>
      <trkpt lat="39.472573" lon="-5.139624">
        <ele>518.5</ele>
        <time>1970-01-01T00:00:00Z</time>
      </trkpt>
      <trkpt lat="39.472573" lon="-5.139624">
        <ele>518.5</ele>
        <time>1970-01-01T00:00:00Z</time>
      </trkpt>
      <trkpt lat="39.472573" lon="-5.139624">
        <ele>518.5</ele>
        <time>1970-01-01T00:00:00Z</time>
      </trkpt>
      <trkpt lat="39.472579" lon="-5.139581">
        <ele>518.1</ele>
        <time>1970-01-01T00:00:00Z</time>
      </trkpt>
      <trkpt lat="39.472579" lon="-5.139581">
        <ele>518.1</ele>
        <time>1970-01-01T00:00:00Z</time>
      </trkpt>
      <trkpt lat="39.472579" lon="-5.139581">
        <ele>518.1</ele>
        <time>1970-01-01T00:00:00Z</time>
      </trkpt>
      <trkpt lat="39.472579" lon="-5.139581">
        <ele>518.1</ele>
        <time>1970-01-01T00:00:00Z</time>
      </trkpt>
      <trkpt lat="39.472582" lon="-5.139546">
        <ele>517.8</ele>
        <time>1970-01-01T00:00:00Z</time>
      </trkpt>
      <trkpt lat="39.472582" lon="-5.139546">
        <ele>517.8</ele>
        <time>1970-01-01T00:00:00Z</time>
      </trkpt>
      <trkpt lat="39.472582" lon="-5.139546">
        <ele>517.8</ele>
        <time>1970-01-01T00:00:00Z</time>
      </trkpt>
      <trkpt lat="39.472582" lon="-5.139546">
        <ele>517.8</ele>
        <time>1970-01-01T00:00:00Z</time>
      </trkpt>
      <trkpt lat="39.472584" lon="-5.139505">
        <ele>517.4</ele>
        <time>1970-01-01T00:00:00Z</time>
      </trkpt>
      <trkpt lat="39.472584" lon="-5.139505">
        <ele>517.4</ele>
        <time>1970-01-01T00:00:00Z</time>
      </trkpt>
      <trkpt lat="39.472584" lon="-5.139505">
        <ele>517.4</ele>
        <time>1970-01-01T00:00:00Z</time>
      </trkpt>
      <trkpt lat="39.472584" lon="-5.139505">
        <ele>517.4</ele>
        <time>1970-01-01T00:00:00Z</time>
      </trkpt>
      <trkpt lat="39.472579" lon="-5.139469">
        <ele>517.1</ele>
        <time>1970-01-01T00:00:00Z</time>
      </trkpt>
      <trkpt lat="39.472579" lon="-5.139469">
        <ele>517.1</ele>
        <time>1970-01-01T00:00:00Z</time>
      </trkpt>
      <trkpt lat="39.472579" lon="-5.139469">
        <ele>517.1</ele>
        <time>1970-01-01T00:00:00Z</time>
      </trkpt>
      <trkpt lat="39.472579" lon="-5.139469">
        <ele>517.1</ele>
        <time>1970-01-01T00:00:00Z</time>
      </trkpt>
      <trkpt lat="39.472575" lon="-5.139435">
        <ele>516.9</ele>
        <time>1970-01-01T00:00:00Z</time>
      </trkpt>
      <trkpt lat="39.472575" lon="-5.139435">
        <ele>516.9</ele>
        <time>1970-01-01T00:00:00Z</time>
      </trkpt>
      <trkpt lat="39.472575" lon="-5.139435">
        <ele>516.9</ele>
        <time>1970-01-01T00:00:00Z</time>
      </trkpt>
      <trkpt lat="39.472575" lon="-5.139435">
        <ele>516.9</ele>
        <time>1970-01-01T00:00:00Z</time>
      </trkpt>
      <trkpt lat="39.472571" lon="-5.139399">
        <ele>516.6</ele>
        <time>1970-01-01T00:00:00Z</time>
      </trkpt>
      <trkpt lat="39.472571" lon="-5.139399">
        <ele>516.6</ele>
        <time>1970-01-01T00:00:00Z</time>
      </trkpt>
      <trkpt lat="39.472571" lon="-5.139399">
        <ele>516.6</ele>
        <time>1970-01-01T00:00:00Z</time>
      </trkpt>
      <trkpt lat="39.472571" lon="-5.139399">
        <ele>516.6</ele>
        <time>1970-01-01T00:00:00Z</time>
      </trkpt>
      <trkpt lat="39.472552" lon="-5.139311">
        <ele>515.9</ele>
        <time>1970-01-01T00:00:00Z</time>
      </trkpt>
      <trkpt lat="39.472552" lon="-5.139311">
        <ele>515.9</ele>
        <time>1970-01-01T00:00:00Z</time>
      </trkpt>
      <trkpt lat="39.472552" lon="-5.139311">
        <ele>515.9</ele>
        <time>1970-01-01T00:00:00Z</time>
      </trkpt>
      <trkpt lat="39.472552" lon="-5.139311">
        <ele>515.9</ele>
        <time>1970-01-01T00:00:00Z</time>
      </trkpt>
      <trkpt lat="39.472541" lon="-5.139269">
        <ele>515.6</ele>
        <time>1970-01-01T00:00:00Z</time>
      </trkpt>
      <trkpt lat="39.472541" lon="-5.139269">
        <ele>515.6</ele>
        <time>1970-01-01T00:00:00Z</time>
      </trkpt>
      <trkpt lat="39.472541" lon="-5.139269">
        <ele>515.6</ele>
        <time>1970-01-01T00:00:00Z</time>
      </trkpt>
      <trkpt lat="39.472541" lon="-5.139269">
        <ele>515.6</ele>
        <time>1970-01-01T00:00:00Z</time>
      </trkpt>
      <trkpt lat="39.472530" lon="-5.139217">
        <ele>515.2</ele>
        <time>1970-01-01T00:00:00Z</time>
      </trkpt>
      <trkpt lat="39.472530" lon="-5.139217">
        <ele>515.2</ele>
        <time>1970-01-01T00:00:00Z</time>
      </trkpt>
      <trkpt lat="39.472530" lon="-5.139217">
        <ele>515.2</ele>
        <time>1970-01-01T00:00:00Z</time>
      </trkpt>
      <trkpt lat="39.472530" lon="-5.139217">
        <ele>515.2</ele>
        <time>1970-01-01T00:00:00Z</time>
      </trkpt>
      <trkpt lat="39.472519" lon="-5.139154">
        <ele>514.8</ele>
        <time>1970-01-01T00:00:00Z</time>
      </trkpt>
      <trkpt lat="39.472519" lon="-5.139154">
        <ele>514.8</ele>
        <time>1970-01-01T00:00:00Z</time>
      </trkpt>
      <trkpt lat="39.472519" lon="-5.139154">
        <ele>514.8</ele>
        <time>1970-01-01T00:00:00Z</time>
      </trkpt>
      <trkpt lat="39.472519" lon="-5.139154">
        <ele>514.8</ele>
        <time>1970-01-01T00:00:00Z</time>
      </trkpt>
      <trkpt lat="39.472514" lon="-5.139114">
        <ele>514.5</ele>
        <time>1970-01-01T00:00:00Z</time>
      </trkpt>
      <trkpt lat="39.472514" lon="-5.139114">
        <ele>514.5</ele>
        <time>1970-01-01T00:00:00Z</time>
      </trkpt>
      <trkpt lat="39.472514" lon="-5.139114">
        <ele>514.5</ele>
        <time>1970-01-01T00:00:00Z</time>
      </trkpt>
      <trkpt lat="39.472514" lon="-5.139114">
        <ele>514.5</ele>
        <time>1970-01-01T00:00:00Z</time>
      </trkpt>
      <trkpt lat="39.472511" lon="-5.139086">
        <ele>514.3</ele>
        <time>1970-01-01T00:00:00Z</time>
      </trkpt>
      <trkpt lat="39.472511" lon="-5.139086">
        <ele>514.3</ele>
        <time>1970-01-01T00:00:00Z</time>
      </trkpt>
      <trkpt lat="39.472511" lon="-5.139086">
        <ele>514.3</ele>
        <time>1970-01-01T00:00:00Z</time>
      </trkpt>
      <trkpt lat="39.472511" lon="-5.139086">
        <ele>514.3</ele>
        <time>1970-01-01T00:00:00Z</time>
      </trkpt>
      <trkpt lat="39.472510" lon="-5.139072">
        <ele>514.2</ele>
        <time>1970-01-01T00:00:00Z</time>
      </trkpt>
      <trkpt lat="39.472510" lon="-5.139072">
        <ele>514.2</ele>
        <time>1970-01-01T00:00:00Z</time>
      </trkpt>
      <trkpt lat="39.472510" lon="-5.139072">
        <ele>514.2</ele>
        <time>1970-01-01T00:00:00Z</time>
      </trkpt>
      <trkpt lat="39.472510" lon="-5.139072">
        <ele>514.2</ele>
        <time>1970-01-01T00:00:00Z</time>
      </trkpt>
      <trkpt lat="39.472486" lon="-5.138951">
        <ele>513.6</ele>
        <time>1970-01-01T00:00:00Z</time>
      </trkpt>
      <trkpt lat="39.472486" lon="-5.138951">
        <ele>513.6</ele>
        <time>1970-01-01T00:00:00Z</time>
      </trkpt>
      <trkpt lat="39.472486" lon="-5.138951">
        <ele>513.6</ele>
        <time>1970-01-01T00:00:00Z</time>
      </trkpt>
      <trkpt lat="39.472486" lon="-5.138951">
        <ele>513.6</ele>
        <time>1970-01-01T00:00:00Z</time>
      </trkpt>
      <trkpt lat="39.472476" lon="-5.138903">
        <ele>513.3</ele>
        <time>1970-01-01T00:00:00Z</time>
      </trkpt>
      <trkpt lat="39.472476" lon="-5.138903">
        <ele>513.3</ele>
        <time>1970-01-01T00:00:00Z</time>
      </trkpt>
      <trkpt lat="39.472476" lon="-5.138903">
        <ele>513.3</ele>
        <time>1970-01-01T00:00:00Z</time>
      </trkpt>
      <trkpt lat="39.472476" lon="-5.138903">
        <ele>513.3</ele>
        <time>1970-01-01T00:00:00Z</time>
      </trkpt>
      <trkpt lat="39.472467" lon="-5.138833">
        <ele>513.0</ele>
        <time>1970-01-01T00:00:00Z</time>
      </trkpt>
      <trkpt lat="39.472467" lon="-5.138833">
        <ele>513.0</ele>
        <time>1970-01-01T00:00:00Z</time>
      </trkpt>
      <trkpt lat="39.472467" lon="-5.138833">
        <ele>513.0</ele>
        <time>1970-01-01T00:00:00Z</time>
      </trkpt>
      <trkpt lat="39.472467" lon="-5.138833">
        <ele>513.0</ele>
        <time>1970-01-01T00:00:00Z</time>
      </trkpt>
      <trkpt lat="39.472478" lon="-5.138724">
        <ele>512.4</ele>
        <time>1970-01-01T00:00:00Z</time>
      </trkpt>
      <trkpt lat="39.472478" lon="-5.138724">
        <ele>512.4</ele>
        <time>1970-01-01T00:00:00Z</time>
      </trkpt>
      <trkpt lat="39.472478" lon="-5.138724">
        <ele>512.4</ele>
        <time>1970-01-01T00:00:00Z</time>
      </trkpt>
      <trkpt lat="39.472478" lon="-5.138724">
        <ele>512.4</ele>
        <time>1970-01-01T00:00:00Z</time>
      </trkpt>
      <trkpt lat="39.472508" lon="-5.138631">
        <ele>512.1</ele>
        <time>1970-01-01T00:00:00Z</time>
      </trkpt>
      <trkpt lat="39.472508" lon="-5.138631">
        <ele>512.1</ele>
        <time>1970-01-01T00:00:00Z</time>
      </trkpt>
      <trkpt lat="39.472508" lon="-5.138631">
        <ele>512.1</ele>
        <time>1970-01-01T00:00:00Z</time>
      </trkpt>
      <trkpt lat="39.472508" lon="-5.138631">
        <ele>512.1</ele>
        <time>1970-01-01T00:00:00Z</time>
      </trkpt>
      <trkpt lat="39.472531" lon="-5.138561">
        <ele>512.0</ele>
        <time>1970-01-01T00:00:00Z</time>
      </trkpt>
      <trkpt lat="39.472531" lon="-5.138561">
        <ele>512.0</ele>
        <time>1970-01-01T00:00:00Z</time>
      </trkpt>
      <trkpt lat="39.472531" lon="-5.138561">
        <ele>512.0</ele>
        <time>1970-01-01T00:00:00Z</time>
      </trkpt>
      <trkpt lat="39.472531" lon="-5.138561">
        <ele>512.0</ele>
        <time>1970-01-01T00:00:00Z</time>
      </trkpt>
      <trkpt lat="39.472564" lon="-5.138436">
        <ele>511.6</ele>
        <time>1970-01-01T00:00:00Z</time>
      </trkpt>
      <trkpt lat="39.472564" lon="-5.138436">
        <ele>511.6</ele>
        <time>1970-01-01T00:00:00Z</time>
      </trkpt>
      <trkpt lat="39.472564" lon="-5.138436">
        <ele>511.6</ele>
        <time>1970-01-01T00:00:00Z</time>
      </trkpt>
      <trkpt lat="39.472564" lon="-5.138436">
        <ele>511.6</ele>
        <time>1970-01-01T00:00:00Z</time>
      </trkpt>
      <trkpt lat="39.472590" lon="-5.138310">
        <ele>511.2</ele>
        <time>1970-01-01T00:00:00Z</time>
      </trkpt>
      <trkpt lat="39.472590" lon="-5.138310">
        <ele>511.2</ele>
        <time>1970-01-01T00:00:00Z</time>
      </trkpt>
      <trkpt lat="39.472590" lon="-5.138310">
        <ele>511.2</ele>
        <time>1970-01-01T00:00:00Z</time>
      </trkpt>
      <trkpt lat="39.472590" lon="-5.138310">
        <ele>511.2</ele>
        <time>1970-01-01T00:00:00Z</time>
      </trkpt>
      <trkpt lat="39.472613" lon="-5.138203">
        <ele>511.2</ele>
        <time>1970-01-01T00:00:00Z</time>
      </trkpt>
      <trkpt lat="39.472613" lon="-5.138203">
        <ele>511.2</ele>
        <time>1970-01-01T00:00:00Z</time>
      </trkpt>
      <trkpt lat="39.472613" lon="-5.138203">
        <ele>511.2</ele>
        <time>1970-01-01T00:00:00Z</time>
      </trkpt>
      <trkpt lat="39.472613" lon="-5.138203">
        <ele>511.2</ele>
        <time>1970-01-01T00:00:00Z</time>
      </trkpt>
      <trkpt lat="39.472627" lon="-5.138073">
        <ele>511.5</ele>
        <time>1970-01-01T00:00:00Z</time>
      </trkpt>
      <trkpt lat="39.472627" lon="-5.138073">
        <ele>511.5</ele>
        <time>1970-01-01T00:00:00Z</time>
      </trkpt>
      <trkpt lat="39.472627" lon="-5.138073">
        <ele>511.5</ele>
        <time>1970-01-01T00:00:00Z</time>
      </trkpt>
      <trkpt lat="39.472627" lon="-5.138073">
        <ele>511.5</ele>
        <time>1970-01-01T00:00:00Z</time>
      </trkpt>
      <trkpt lat="39.472645" lon="-5.137935">
        <ele>512.7</ele>
        <time>1970-01-01T00:00:00Z</time>
      </trkpt>
      <trkpt lat="39.472645" lon="-5.137935">
        <ele>512.7</ele>
        <time>1970-01-01T00:00:00Z</time>
      </trkpt>
      <trkpt lat="39.472645" lon="-5.137935">
        <ele>512.7</ele>
        <time>1970-01-01T00:00:00Z</time>
      </trkpt>
      <trkpt lat="39.472645" lon="-5.137935">
        <ele>512.7</ele>
        <time>1970-01-01T00:00:00Z</time>
      </trkpt>
      <trkpt lat="39.472649" lon="-5.137858">
        <ele>513.4</ele>
        <time>1970-01-01T00:00:00Z</time>
      </trkpt>
      <trkpt lat="39.472649" lon="-5.137858">
        <ele>513.4</ele>
        <time>1970-01-01T00:00:00Z</time>
      </trkpt>
      <trkpt lat="39.472649" lon="-5.137858">
        <ele>513.4</ele>
        <time>1970-01-01T00:00:00Z</time>
      </trkpt>
      <trkpt lat="39.472649" lon="-5.137858">
        <ele>513.4</ele>
        <time>1970-01-01T00:00:00Z</time>
      </trkpt>
      <trkpt lat="39.472666" lon="-5.137763">
        <ele>514.5</ele>
        <time>1970-01-01T00:00:00Z</time>
      </trkpt>
      <trkpt lat="39.472666" lon="-5.137763">
        <ele>514.5</ele>
        <time>1970-01-01T00:00:00Z</time>
      </trkpt>
      <trkpt lat="39.472666" lon="-5.137763">
        <ele>514.5</ele>
        <time>1970-01-01T00:00:00Z</time>
      </trkpt>
      <trkpt lat="39.472666" lon="-5.137763">
        <ele>514.5</ele>
        <time>1970-01-01T00:00:00Z</time>
      </trkpt>
      <trkpt lat="39.472680" lon="-5.137732">
        <ele>514.9</ele>
        <time>1970-01-01T00:00:00Z</time>
      </trkpt>
      <trkpt lat="39.472680" lon="-5.137732">
        <ele>514.9</ele>
        <time>1970-01-01T00:00:00Z</time>
      </trkpt>
      <trkpt lat="39.472680" lon="-5.137732">
        <ele>514.9</ele>
        <time>1970-01-01T00:00:00Z</time>
      </trkpt>
      <trkpt lat="39.472680" lon="-5.137732">
        <ele>514.9</ele>
        <time>1970-01-01T00:00:00Z</time>
      </trkpt>
      <trkpt lat="39.472686" lon="-5.137715">
        <ele>515.2</ele>
        <time>1970-01-01T00:00:00Z</time>
      </trkpt>
      <trkpt lat="39.472686" lon="-5.137715">
        <ele>515.2</ele>
        <time>1970-01-01T00:00:00Z</time>
      </trkpt>
      <trkpt lat="39.472686" lon="-5.137715">
        <ele>515.2</ele>
        <time>1970-01-01T00:00:00Z</time>
      </trkpt>
      <trkpt lat="39.472686" lon="-5.137715">
        <ele>515.2</ele>
        <time>1970-01-01T00:00:00Z</time>
      </trkpt>
      <trkpt lat="39.472694" lon="-5.137697">
        <ele>515.4</ele>
        <time>1970-01-01T00:00:00Z</time>
      </trkpt>
      <trkpt lat="39.472694" lon="-5.137697">
        <ele>515.4</ele>
        <time>1970-01-01T00:00:00Z</time>
      </trkpt>
      <trkpt lat="39.472694" lon="-5.137697">
        <ele>515.4</ele>
        <time>1970-01-01T00:00:00Z</time>
      </trkpt>
      <trkpt lat="39.472694" lon="-5.137697">
        <ele>515.4</ele>
        <time>1970-01-01T00:00:00Z</time>
      </trkpt>
      <trkpt lat="39.472701" lon="-5.137679">
        <ele>515.6</ele>
        <time>1970-01-01T00:00:00Z</time>
      </trkpt>
      <trkpt lat="39.472701" lon="-5.137679">
        <ele>515.6</ele>
        <time>1970-01-01T00:00:00Z</time>
      </trkpt>
      <trkpt lat="39.472701" lon="-5.137679">
        <ele>515.6</ele>
        <time>1970-01-01T00:00:00Z</time>
      </trkpt>
      <trkpt lat="39.472701" lon="-5.137679">
        <ele>515.6</ele>
        <time>1970-01-01T00:00:00Z</time>
      </trkpt>
      <trkpt lat="39.472711" lon="-5.137663">
        <ele>515.9</ele>
        <time>1970-01-01T00:00:00Z</time>
      </trkpt>
      <trkpt lat="39.472711" lon="-5.137663">
        <ele>515.9</ele>
        <time>1970-01-01T00:00:00Z</time>
      </trkpt>
      <trkpt lat="39.472711" lon="-5.137663">
        <ele>515.9</ele>
        <time>1970-01-01T00:00:00Z</time>
      </trkpt>
      <trkpt lat="39.472711" lon="-5.137663">
        <ele>515.9</ele>
        <time>1970-01-01T00:00:00Z</time>
      </trkpt>
      <trkpt lat="39.472727" lon="-5.137638">
        <ele>516.2</ele>
        <time>1970-01-01T00:00:00Z</time>
      </trkpt>
      <trkpt lat="39.472727" lon="-5.137638">
        <ele>516.2</ele>
        <time>1970-01-01T00:00:00Z</time>
      </trkpt>
      <trkpt lat="39.472727" lon="-5.137638">
        <ele>516.2</ele>
        <time>1970-01-01T00:00:00Z</time>
      </trkpt>
      <trkpt lat="39.472727" lon="-5.137638">
        <ele>516.2</ele>
        <time>1970-01-01T00:00:00Z</time>
      </trkpt>
      <trkpt lat="39.472741" lon="-5.137618">
        <ele>516.5</ele>
        <time>1970-01-01T00:00:00Z</time>
      </trkpt>
      <trkpt lat="39.472741" lon="-5.137618">
        <ele>516.5</ele>
        <time>1970-01-01T00:00:00Z</time>
      </trkpt>
      <trkpt lat="39.472741" lon="-5.137618">
        <ele>516.5</ele>
        <time>1970-01-01T00:00:00Z</time>
      </trkpt>
      <trkpt lat="39.472741" lon="-5.137618">
        <ele>516.5</ele>
        <time>1970-01-01T00:00:00Z</time>
      </trkpt>
      <trkpt lat="39.472761" lon="-5.137594">
        <ele>516.8</ele>
        <time>1970-01-01T00:00:00Z</time>
      </trkpt>
      <trkpt lat="39.472761" lon="-5.137594">
        <ele>516.8</ele>
        <time>1970-01-01T00:00:00Z</time>
      </trkpt>
      <trkpt lat="39.472761" lon="-5.137594">
        <ele>516.8</ele>
        <time>1970-01-01T00:00:00Z</time>
      </trkpt>
      <trkpt lat="39.472761" lon="-5.137594">
        <ele>516.8</ele>
        <time>1970-01-01T00:00:00Z</time>
      </trkpt>
      <trkpt lat="39.472774" lon="-5.137579">
        <ele>516.9</ele>
        <time>1970-01-01T00:00:00Z</time>
      </trkpt>
      <trkpt lat="39.472774" lon="-5.137579">
        <ele>516.9</ele>
        <time>1970-01-01T00:00:00Z</time>
      </trkpt>
      <trkpt lat="39.472774" lon="-5.137579">
        <ele>516.9</ele>
        <time>1970-01-01T00:00:00Z</time>
      </trkpt>
      <trkpt lat="39.472774" lon="-5.137579">
        <ele>516.9</ele>
        <time>1970-01-01T00:00:00Z</time>
      </trkpt>
      <trkpt lat="39.472801" lon="-5.137560">
        <ele>517.1</ele>
        <time>1970-01-01T00:00:00Z</time>
      </trkpt>
      <trkpt lat="39.472801" lon="-5.137560">
        <ele>517.1</ele>
        <time>1970-01-01T00:00:00Z</time>
      </trkpt>
      <trkpt lat="39.472801" lon="-5.137560">
        <ele>517.1</ele>
        <time>1970-01-01T00:00:00Z</time>
      </trkpt>
      <trkpt lat="39.472801" lon="-5.137560">
        <ele>517.1</ele>
        <time>1970-01-01T00:00:00Z</time>
      </trkpt>
      <trkpt lat="39.472825" lon="-5.137552">
        <ele>517.3</ele>
        <time>1970-01-01T00:00:00Z</time>
      </trkpt>
      <trkpt lat="39.472825" lon="-5.137552">
        <ele>517.3</ele>
        <time>1970-01-01T00:00:00Z</time>
      </trkpt>
      <trkpt lat="39.472825" lon="-5.137552">
        <ele>517.3</ele>
        <time>1970-01-01T00:00:00Z</time>
      </trkpt>
      <trkpt lat="39.472825" lon="-5.137552">
        <ele>517.3</ele>
        <time>1970-01-01T00:00:00Z</time>
      </trkpt>
      <trkpt lat="39.472845" lon="-5.137552">
        <ele>517.4</ele>
        <time>1970-01-01T00:00:00Z</time>
      </trkpt>
      <trkpt lat="39.472845" lon="-5.137552">
        <ele>517.4</ele>
        <time>1970-01-01T00:00:00Z</time>
      </trkpt>
      <trkpt lat="39.472845" lon="-5.137552">
        <ele>517.4</ele>
        <time>1970-01-01T00:00:00Z</time>
      </trkpt>
      <trkpt lat="39.472845" lon="-5.137552">
        <ele>517.4</ele>
        <time>1970-01-01T00:00:00Z</time>
      </trkpt>
      <trkpt lat="39.472968" lon="-5.137549">
        <ele>518.0</ele>
        <time>1970-01-01T00:00:00Z</time>
      </trkpt>
      <trkpt lat="39.472968" lon="-5.137549">
        <ele>518.0</ele>
        <time>1970-01-01T00:00:00Z</time>
      </trkpt>
      <trkpt lat="39.472968" lon="-5.137549">
        <ele>518.0</ele>
        <time>1970-01-01T00:00:00Z</time>
      </trkpt>
      <trkpt lat="39.472968" lon="-5.137549">
        <ele>518.0</ele>
        <time>1970-01-01T00:00:00Z</time>
      </trkpt>
      <trkpt lat="39.473212" lon="-5.137556">
        <ele>519.0</ele>
        <time>1970-01-01T00:00:00Z</time>
      </trkpt>
      <trkpt lat="39.473212" lon="-5.137556">
        <ele>519.0</ele>
        <time>1970-01-01T00:00:00Z</time>
      </trkpt>
      <trkpt lat="39.473212" lon="-5.137556">
        <ele>519.0</ele>
        <time>1970-01-01T00:00:00Z</time>
      </trkpt>
      <trkpt lat="39.473212" lon="-5.137556">
        <ele>519.0</ele>
        <time>1970-01-01T00:00:00Z</time>
      </trkpt>
      <trkpt lat="39.473325" lon="-5.137571">
        <ele>519.1</ele>
        <time>1970-01-01T00:00:00Z</time>
      </trkpt>
      <trkpt lat="39.473325" lon="-5.137571">
        <ele>519.1</ele>
        <time>1970-01-01T00:00:00Z</time>
      </trkpt>
      <trkpt lat="39.473325" lon="-5.137571">
        <ele>519.1</ele>
        <time>1970-01-01T00:00:00Z</time>
      </trkpt>
      <trkpt lat="39.473325" lon="-5.137571">
        <ele>519.1</ele>
        <time>1970-01-01T00:00:00Z</time>
      </trkpt>
      <trkpt lat="39.473386" lon="-5.137563">
        <ele>519.2</ele>
        <time>1970-01-01T00:00:00Z</time>
      </trkpt>
      <trkpt lat="39.473386" lon="-5.137563">
        <ele>519.2</ele>
        <time>1970-01-01T00:00:00Z</time>
      </trkpt>
      <trkpt lat="39.473386" lon="-5.137563">
        <ele>519.2</ele>
        <time>1970-01-01T00:00:00Z</time>
      </trkpt>
      <trkpt lat="39.473386" lon="-5.137563">
        <ele>519.2</ele>
        <time>1970-01-01T00:00:00Z</time>
      </trkpt>
      <trkpt lat="39.473432" lon="-5.137571">
        <ele>519.1</ele>
        <time>1970-01-01T00:00:00Z</time>
      </trkpt>
      <trkpt lat="39.473432" lon="-5.137571">
        <ele>519.1</ele>
        <time>1970-01-01T00:00:00Z</time>
      </trkpt>
      <trkpt lat="39.473432" lon="-5.137571">
        <ele>519.1</ele>
        <time>1970-01-01T00:00:00Z</time>
      </trkpt>
      <trkpt lat="39.473432" lon="-5.137571">
        <ele>519.1</ele>
        <time>1970-01-01T00:00:00Z</time>
      </trkpt>
      <trkpt lat="39.473456" lon="-5.137590">
        <ele>519.0</ele>
        <time>1970-01-01T00:00:00Z</time>
      </trkpt>
      <trkpt lat="39.473456" lon="-5.137590">
        <ele>519.0</ele>
        <time>1970-01-01T00:00:00Z</time>
      </trkpt>
      <trkpt lat="39.473456" lon="-5.137590">
        <ele>519.0</ele>
        <time>1970-01-01T00:00:00Z</time>
      </trkpt>
      <trkpt lat="39.473456" lon="-5.137590">
        <ele>519.0</ele>
        <time>1970-01-01T00:00:00Z</time>
      </trkpt>
      <trkpt lat="39.473487" lon="-5.137613">
        <ele>518.7</ele>
        <time>1970-01-01T00:00:00Z</time>
      </trkpt>
      <trkpt lat="39.473487" lon="-5.137613">
        <ele>518.7</ele>
        <time>1970-01-01T00:00:00Z</time>
      </trkpt>
      <trkpt lat="39.473487" lon="-5.137613">
        <ele>518.7</ele>
        <time>1970-01-01T00:00:00Z</time>
      </trkpt>
      <trkpt lat="39.473487" lon="-5.137613">
        <ele>518.7</ele>
        <time>1970-01-01T00:00:00Z</time>
      </trkpt>
      <trkpt lat="39.473521" lon="-5.137638">
        <ele>518.4</ele>
        <time>1970-01-01T00:00:00Z</time>
      </trkpt>
      <trkpt lat="39.473521" lon="-5.137638">
        <ele>518.4</ele>
        <time>1970-01-01T00:00:00Z</time>
      </trkpt>
      <trkpt lat="39.473521" lon="-5.137638">
        <ele>518.4</ele>
        <time>1970-01-01T00:00:00Z</time>
      </trkpt>
      <trkpt lat="39.473521" lon="-5.137638">
        <ele>518.4</ele>
        <time>1970-01-01T00:00:00Z</time>
      </trkpt>
      <trkpt lat="39.473561" lon="-5.137669">
        <ele>518.0</ele>
        <time>1970-01-01T00:00:00Z</time>
      </trkpt>
      <trkpt lat="39.473561" lon="-5.137669">
        <ele>518.0</ele>
        <time>1970-01-01T00:00:00Z</time>
      </trkpt>
      <trkpt lat="39.473561" lon="-5.137669">
        <ele>518.0</ele>
        <time>1970-01-01T00:00:00Z</time>
      </trkpt>
      <trkpt lat="39.473561" lon="-5.137669">
        <ele>518.0</ele>
        <time>1970-01-01T00:00:00Z</time>
      </trkpt>
      <trkpt lat="39.473593" lon="-5.137696">
        <ele>517.6</ele>
        <time>1970-01-01T00:00:00Z</time>
      </trkpt>
      <trkpt lat="39.473593" lon="-5.137696">
        <ele>517.6</ele>
        <time>1970-01-01T00:00:00Z</time>
      </trkpt>
      <trkpt lat="39.473593" lon="-5.137696">
        <ele>517.6</ele>
        <time>1970-01-01T00:00:00Z</time>
      </trkpt>
      <trkpt lat="39.473593" lon="-5.137696">
        <ele>517.6</ele>
        <time>1970-01-01T00:00:00Z</time>
      </trkpt>
      <trkpt lat="39.473623" lon="-5.137720">
        <ele>517.3</ele>
        <time>1970-01-01T00:00:00Z</time>
      </trkpt>
      <trkpt lat="39.473623" lon="-5.137720">
        <ele>517.3</ele>
        <time>1970-01-01T00:00:00Z</time>
      </trkpt>
      <trkpt lat="39.473623" lon="-5.137720">
        <ele>517.3</ele>
        <time>1970-01-01T00:00:00Z</time>
      </trkpt>
      <trkpt lat="39.473623" lon="-5.137720">
        <ele>517.3</ele>
        <time>1970-01-01T00:00:00Z</time>
      </trkpt>
      <trkpt lat="39.473653" lon="-5.137745">
        <ele>517.0</ele>
        <time>1970-01-01T00:00:00Z</time>
      </trkpt>
      <trkpt lat="39.473653" lon="-5.137745">
        <ele>517.0</ele>
        <time>1970-01-01T00:00:00Z</time>
      </trkpt>
      <trkpt lat="39.473653" lon="-5.137745">
        <ele>517.0</ele>
        <time>1970-01-01T00:00:00Z</time>
      </trkpt>
      <trkpt lat="39.473653" lon="-5.137745">
        <ele>517.0</ele>
        <time>1970-01-01T00:00:00Z</time>
      </trkpt>
      <trkpt lat="39.473681" lon="-5.137767">
        <ele>516.7</ele>
        <time>1970-01-01T00:00:00Z</time>
      </trkpt>
      <trkpt lat="39.473681" lon="-5.137767">
        <ele>516.7</ele>
        <time>1970-01-01T00:00:00Z</time>
      </trkpt>
      <trkpt lat="39.473681" lon="-5.137767">
        <ele>516.7</ele>
        <time>1970-01-01T00:00:00Z</time>
      </trkpt>
      <trkpt lat="39.473681" lon="-5.137767">
        <ele>516.7</ele>
        <time>1970-01-01T00:00:00Z</time>
      </trkpt>
      <trkpt lat="39.473715" lon="-5.137793">
        <ele>516.4</ele>
        <time>1970-01-01T00:00:00Z</time>
      </trkpt>
      <trkpt lat="39.473715" lon="-5.137793">
        <ele>516.4</ele>
        <time>1970-01-01T00:00:00Z</time>
      </trkpt>
      <trkpt lat="39.473715" lon="-5.137793">
        <ele>516.4</ele>
        <time>1970-01-01T00:00:00Z</time>
      </trkpt>
      <trkpt lat="39.473715" lon="-5.137793">
        <ele>516.4</ele>
        <time>1970-01-01T00:00:00Z</time>
      </trkpt>
      <trkpt lat="39.473747" lon="-5.137818">
        <ele>516.1</ele>
        <time>1970-01-01T00:00:00Z</time>
      </trkpt>
      <trkpt lat="39.473747" lon="-5.137818">
        <ele>516.1</ele>
        <time>1970-01-01T00:00:00Z</time>
      </trkpt>
      <trkpt lat="39.473747" lon="-5.137818">
        <ele>516.1</ele>
        <time>1970-01-01T00:00:00Z</time>
      </trkpt>
      <trkpt lat="39.473747" lon="-5.137818">
        <ele>516.1</ele>
        <time>1970-01-01T00:00:00Z</time>
      </trkpt>
      <trkpt lat="39.473781" lon="-5.137846">
        <ele>516.0</ele>
        <time>1970-01-01T00:00:00Z</time>
      </trkpt>
      <trkpt lat="39.473781" lon="-5.137846">
        <ele>516.0</ele>
        <time>1970-01-01T00:00:00Z</time>
      </trkpt>
      <trkpt lat="39.473781" lon="-5.137846">
        <ele>516.0</ele>
        <time>1970-01-01T00:00:00Z</time>
      </trkpt>
      <trkpt lat="39.473781" lon="-5.137846">
        <ele>516.0</ele>
        <time>1970-01-01T00:00:00Z</time>
      </trkpt>
      <trkpt lat="39.473820" lon="-5.137878">
        <ele>515.8</ele>
        <time>1970-01-01T00:00:00Z</time>
      </trkpt>
      <trkpt lat="39.473820" lon="-5.137878">
        <ele>515.8</ele>
        <time>1970-01-01T00:00:00Z</time>
      </trkpt>
      <trkpt lat="39.473820" lon="-5.137878">
        <ele>515.8</ele>
        <time>1970-01-01T00:00:00Z</time>
      </trkpt>
      <trkpt lat="39.473820" lon="-5.137878">
        <ele>515.8</ele>
        <time>1970-01-01T00:00:00Z</time>
      </trkpt>
      <trkpt lat="39.473853" lon="-5.137904">
        <ele>515.6</ele>
        <time>1970-01-01T00:00:00Z</time>
      </trkpt>
      <trkpt lat="39.473853" lon="-5.137904">
        <ele>515.6</ele>
        <time>1970-01-01T00:00:00Z</time>
      </trkpt>
      <trkpt lat="39.473853" lon="-5.137904">
        <ele>515.6</ele>
        <time>1970-01-01T00:00:00Z</time>
      </trkpt>
      <trkpt lat="39.473853" lon="-5.137904">
        <ele>515.6</ele>
        <time>1970-01-01T00:00:00Z</time>
      </trkpt>
      <trkpt lat="39.473883" lon="-5.137929">
        <ele>515.4</ele>
        <time>1970-01-01T00:00:00Z</time>
      </trkpt>
      <trkpt lat="39.473883" lon="-5.137929">
        <ele>515.4</ele>
        <time>1970-01-01T00:00:00Z</time>
      </trkpt>
      <trkpt lat="39.473883" lon="-5.137929">
        <ele>515.4</ele>
        <time>1970-01-01T00:00:00Z</time>
      </trkpt>
      <trkpt lat="39.473883" lon="-5.137929">
        <ele>515.4</ele>
        <time>1970-01-01T00:00:00Z</time>
      </trkpt>
      <trkpt lat="39.473898" lon="-5.137941">
        <ele>515.3</ele>
        <time>1970-01-01T00:00:00Z</time>
      </trkpt>
      <trkpt lat="39.473898" lon="-5.137941">
        <ele>515.3</ele>
        <time>1970-01-01T00:00:00Z</time>
      </trkpt>
      <trkpt lat="39.473898" lon="-5.137941">
        <ele>515.3</ele>
        <time>1970-01-01T00:00:00Z</time>
      </trkpt>
      <trkpt lat="39.473898" lon="-5.137941">
        <ele>515.3</ele>
        <time>1970-01-01T00:00:00Z</time>
      </trkpt>
      <trkpt lat="39.473957" lon="-5.137989">
        <ele>514.8</ele>
        <time>1970-01-01T00:00:00Z</time>
      </trkpt>
      <trkpt lat="39.473957" lon="-5.137989">
        <ele>514.8</ele>
        <time>1970-01-01T00:00:00Z</time>
      </trkpt>
      <trkpt lat="39.473957" lon="-5.137989">
        <ele>514.8</ele>
        <time>1970-01-01T00:00:00Z</time>
      </trkpt>
      <trkpt lat="39.473957" lon="-5.137989">
        <ele>514.8</ele>
        <time>1970-01-01T00:00:00Z</time>
      </trkpt>
      <trkpt lat="39.474008" lon="-5.138019">
        <ele>514.3</ele>
        <time>1970-01-01T00:00:00Z</time>
      </trkpt>
      <trkpt lat="39.474008" lon="-5.138019">
        <ele>514.3</ele>
        <time>1970-01-01T00:00:00Z</time>
      </trkpt>
      <trkpt lat="39.474008" lon="-5.138019">
        <ele>514.3</ele>
        <time>1970-01-01T00:00:00Z</time>
      </trkpt>
      <trkpt lat="39.474008" lon="-5.138019">
        <ele>514.3</ele>
        <time>1970-01-01T00:00:00Z</time>
      </trkpt>
      <trkpt lat="39.474091" lon="-5.138068">
        <ele>513.2</ele>
        <time>1970-01-01T00:00:00Z</time>
      </trkpt>
      <trkpt lat="39.474091" lon="-5.138068">
        <ele>513.2</ele>
        <time>1970-01-01T00:00:00Z</time>
      </trkpt>
      <trkpt lat="39.474091" lon="-5.138068">
        <ele>513.2</ele>
        <time>1970-01-01T00:00:00Z</time>
      </trkpt>
      <trkpt lat="39.474091" lon="-5.138068">
        <ele>513.2</ele>
        <time>1970-01-01T00:00:00Z</time>
      </trkpt>
      <trkpt lat="39.474129" lon="-5.138088">
        <ele>512.7</ele>
        <time>1970-01-01T00:00:00Z</time>
      </trkpt>
      <trkpt lat="39.474129" lon="-5.138088">
        <ele>512.7</ele>
        <time>1970-01-01T00:00:00Z</time>
      </trkpt>
      <trkpt lat="39.474129" lon="-5.138088">
        <ele>512.7</ele>
        <time>1970-01-01T00:00:00Z</time>
      </trkpt>
      <trkpt lat="39.474129" lon="-5.138088">
        <ele>512.7</ele>
        <time>1970-01-01T00:00:00Z</time>
      </trkpt>
      <trkpt lat="39.474165" lon="-5.138111">
        <ele>512.1</ele>
        <time>1970-01-01T00:00:00Z</time>
      </trkpt>
      <trkpt lat="39.474165" lon="-5.138111">
        <ele>512.1</ele>
        <time>1970-01-01T00:00:00Z</time>
      </trkpt>
      <trkpt lat="39.474165" lon="-5.138111">
        <ele>512.1</ele>
        <time>1970-01-01T00:00:00Z</time>
      </trkpt>
      <trkpt lat="39.474165" lon="-5.138111">
        <ele>512.1</ele>
        <time>1970-01-01T00:00:00Z</time>
      </trkpt>
      <trkpt lat="39.474199" lon="-5.138135">
        <ele>511.6</ele>
        <time>1970-01-01T00:00:00Z</time>
      </trkpt>
      <trkpt lat="39.474199" lon="-5.138135">
        <ele>511.6</ele>
        <time>1970-01-01T00:00:00Z</time>
      </trkpt>
      <trkpt lat="39.474199" lon="-5.138135">
        <ele>511.6</ele>
        <time>1970-01-01T00:00:00Z</time>
      </trkpt>
      <trkpt lat="39.474199" lon="-5.138135">
        <ele>511.6</ele>
        <time>1970-01-01T00:00:00Z</time>
      </trkpt>
      <trkpt lat="39.474223" lon="-5.138153">
        <ele>511.2</ele>
        <time>1970-01-01T00:00:00Z</time>
      </trkpt>
      <trkpt lat="39.474223" lon="-5.138153">
        <ele>511.2</ele>
        <time>1970-01-01T00:00:00Z</time>
      </trkpt>
      <trkpt lat="39.474223" lon="-5.138153">
        <ele>511.2</ele>
        <time>1970-01-01T00:00:00Z</time>
      </trkpt>
      <trkpt lat="39.474223" lon="-5.138153">
        <ele>511.2</ele>
        <time>1970-01-01T00:00:00Z</time>
      </trkpt>
      <trkpt lat="39.474249" lon="-5.138173">
        <ele>510.8</ele>
        <time>1970-01-01T00:00:00Z</time>
      </trkpt>
      <trkpt lat="39.474249" lon="-5.138173">
        <ele>510.8</ele>
        <time>1970-01-01T00:00:00Z</time>
      </trkpt>
      <trkpt lat="39.474249" lon="-5.138173">
        <ele>510.8</ele>
        <time>1970-01-01T00:00:00Z</time>
      </trkpt>
      <trkpt lat="39.474249" lon="-5.138173">
        <ele>510.8</ele>
        <time>1970-01-01T00:00:00Z</time>
      </trkpt>
      <trkpt lat="39.474268" lon="-5.138188">
        <ele>510.5</ele>
        <time>1970-01-01T00:00:00Z</time>
      </trkpt>
      <trkpt lat="39.474268" lon="-5.138188">
        <ele>510.5</ele>
        <time>1970-01-01T00:00:00Z</time>
      </trkpt>
      <trkpt lat="39.474268" lon="-5.138188">
        <ele>510.5</ele>
        <time>1970-01-01T00:00:00Z</time>
      </trkpt>
      <trkpt lat="39.474268" lon="-5.138188">
        <ele>510.5</ele>
        <time>1970-01-01T00:00:00Z</time>
      </trkpt>
      <trkpt lat="39.474352" lon="-5.138249">
        <ele>509.5</ele>
        <time>1970-01-01T00:00:00Z</time>
      </trkpt>
      <trkpt lat="39.474352" lon="-5.138249">
        <ele>509.5</ele>
        <time>1970-01-01T00:00:00Z</time>
      </trkpt>
      <trkpt lat="39.474352" lon="-5.138249">
        <ele>509.5</ele>
        <time>1970-01-01T00:00:00Z</time>
      </trkpt>
      <trkpt lat="39.474352" lon="-5.138249">
        <ele>509.5</ele>
        <time>1970-01-01T00:00:00Z</time>
      </trkpt>
      <trkpt lat="39.474452" lon="-5.138313">
        <ele>508.6</ele>
        <time>1970-01-01T00:00:00Z</time>
      </trkpt>
      <trkpt lat="39.474452" lon="-5.138313">
        <ele>508.6</ele>
        <time>1970-01-01T00:00:00Z</time>
      </trkpt>
      <trkpt lat="39.474452" lon="-5.138313">
        <ele>508.6</ele>
        <time>1970-01-01T00:00:00Z</time>
      </trkpt>
      <trkpt lat="39.474452" lon="-5.138313">
        <ele>508.6</ele>
        <time>1970-01-01T00:00:00Z</time>
      </trkpt>
      <trkpt lat="39.474570" lon="-5.138393">
        <ele>507.6</ele>
        <time>1970-01-01T00:00:00Z</time>
      </trkpt>
      <trkpt lat="39.474570" lon="-5.138393">
        <ele>507.6</ele>
        <time>1970-01-01T00:00:00Z</time>
      </trkpt>
      <trkpt lat="39.474570" lon="-5.138393">
        <ele>507.6</ele>
        <time>1970-01-01T00:00:00Z</time>
      </trkpt>
      <trkpt lat="39.474570" lon="-5.138393">
        <ele>507.6</ele>
        <time>1970-01-01T00:00:00Z</time>
      </trkpt>
      <trkpt lat="39.474676" lon="-5.138461">
        <ele>506.7</ele>
        <time>1970-01-01T00:00:00Z</time>
      </trkpt>
      <trkpt lat="39.474676" lon="-5.138461">
        <ele>506.7</ele>
        <time>1970-01-01T00:00:00Z</time>
      </trkpt>
      <trkpt lat="39.474676" lon="-5.138461">
        <ele>506.7</ele>
        <time>1970-01-01T00:00:00Z</time>
      </trkpt>
      <trkpt lat="39.474676" lon="-5.138461">
        <ele>506.7</ele>
        <time>1970-01-01T00:00:00Z</time>
      </trkpt>
      <trkpt lat="39.474722" lon="-5.138491">
        <ele>506.3</ele>
        <time>1970-01-01T00:00:00Z</time>
      </trkpt>
      <trkpt lat="39.474722" lon="-5.138491">
        <ele>506.3</ele>
        <time>1970-01-01T00:00:00Z</time>
      </trkpt>
      <trkpt lat="39.474722" lon="-5.138491">
        <ele>506.3</ele>
        <time>1970-01-01T00:00:00Z</time>
      </trkpt>
      <trkpt lat="39.474722" lon="-5.138491">
        <ele>506.3</ele>
        <time>1970-01-01T00:00:00Z</time>
      </trkpt>
      <trkpt lat="39.474740" lon="-5.138503">
        <ele>506.2</ele>
        <time>1970-01-01T00:00:00Z</time>
      </trkpt>
      <trkpt lat="39.474740" lon="-5.138503">
        <ele>506.2</ele>
        <time>1970-01-01T00:00:00Z</time>
      </trkpt>
      <trkpt lat="39.474740" lon="-5.138503">
        <ele>506.2</ele>
        <time>1970-01-01T00:00:00Z</time>
      </trkpt>
      <trkpt lat="39.474740" lon="-5.138503">
        <ele>506.2</ele>
        <time>1970-01-01T00:00:00Z</time>
      </trkpt>
      <trkpt lat="39.474760" lon="-5.138518">
        <ele>506.0</ele>
        <time>1970-01-01T00:00:00Z</time>
      </trkpt>
      <trkpt lat="39.474760" lon="-5.138518">
        <ele>506.0</ele>
        <time>1970-01-01T00:00:00Z</time>
      </trkpt>
      <trkpt lat="39.474760" lon="-5.138518">
        <ele>506.0</ele>
        <time>1970-01-01T00:00:00Z</time>
      </trkpt>
      <trkpt lat="39.474760" lon="-5.138518">
        <ele>506.0</ele>
        <time>1970-01-01T00:00:00Z</time>
      </trkpt>
      <trkpt lat="39.474778" lon="-5.138531">
        <ele>505.9</ele>
        <time>1970-01-01T00:00:00Z</time>
      </trkpt>
      <trkpt lat="39.474778" lon="-5.138531">
        <ele>505.9</ele>
        <time>1970-01-01T00:00:00Z</time>
      </trkpt>
      <trkpt lat="39.474778" lon="-5.138531">
        <ele>505.9</ele>
        <time>1970-01-01T00:00:00Z</time>
      </trkpt>
      <trkpt lat="39.474778" lon="-5.138531">
        <ele>505.9</ele>
        <time>1970-01-01T00:00:00Z</time>
      </trkpt>
      <trkpt lat="39.474783" lon="-5.138535">
        <ele>505.8</ele>
        <time>1970-01-01T00:00:00Z</time>
      </trkpt>
      <trkpt lat="39.474783" lon="-5.138535">
        <ele>505.8</ele>
        <time>1970-01-01T00:00:00Z</time>
      </trkpt>
      <trkpt lat="39.474783" lon="-5.138535">
        <ele>505.8</ele>
        <time>1970-01-01T00:00:00Z</time>
      </trkpt>
      <trkpt lat="39.474783" lon="-5.138535">
        <ele>505.8</ele>
        <time>1970-01-01T00:00:00Z</time>
      </trkpt>
      <trkpt lat="39.474864" lon="-5.138604">
        <ele>505.3</ele>
        <time>1970-01-01T00:00:00Z</time>
      </trkpt>
      <trkpt lat="39.474864" lon="-5.138604">
        <ele>505.3</ele>
        <time>1970-01-01T00:00:00Z</time>
      </trkpt>
      <trkpt lat="39.474864" lon="-5.138604">
        <ele>505.3</ele>
        <time>1970-01-01T00:00:00Z</time>
      </trkpt>
      <trkpt lat="39.474864" lon="-5.138604">
        <ele>505.3</ele>
        <time>1970-01-01T00:00:00Z</time>
      </trkpt>
      <trkpt lat="39.474901" lon="-5.138637">
        <ele>504.9</ele>
        <time>1970-01-01T00:00:00Z</time>
      </trkpt>
      <trkpt lat="39.474901" lon="-5.138637">
        <ele>504.9</ele>
        <time>1970-01-01T00:00:00Z</time>
      </trkpt>
      <trkpt lat="39.474901" lon="-5.138637">
        <ele>504.9</ele>
        <time>1970-01-01T00:00:00Z</time>
      </trkpt>
      <trkpt lat="39.474901" lon="-5.138637">
        <ele>504.9</ele>
        <time>1970-01-01T00:00:00Z</time>
      </trkpt>
      <trkpt lat="39.474958" lon="-5.138681">
        <ele>504.4</ele>
        <time>1970-01-01T00:00:00Z</time>
      </trkpt>
      <trkpt lat="39.474958" lon="-5.138681">
        <ele>504.4</ele>
        <time>1970-01-01T00:00:00Z</time>
      </trkpt>
      <trkpt lat="39.474958" lon="-5.138681">
        <ele>504.4</ele>
        <time>1970-01-01T00:00:00Z</time>
      </trkpt>
      <trkpt lat="39.474958" lon="-5.138681">
        <ele>504.4</ele>
        <time>1970-01-01T00:00:00Z</time>
      </trkpt>
      <trkpt lat="39.474972" lon="-5.138693">
        <ele>504.2</ele>
        <time>1970-01-01T00:00:00Z</time>
      </trkpt>
      <trkpt lat="39.474972" lon="-5.138693">
        <ele>504.2</ele>
        <time>1970-01-01T00:00:00Z</time>
      </trkpt>
      <trkpt lat="39.474972" lon="-5.138693">
        <ele>504.2</ele>
        <time>1970-01-01T00:00:00Z</time>
      </trkpt>
      <trkpt lat="39.474972" lon="-5.138693">
        <ele>504.2</ele>
        <time>1970-01-01T00:00:00Z</time>
      </trkpt>
      <trkpt lat="39.474996" lon="-5.138712">
        <ele>503.9</ele>
        <time>1970-01-01T00:00:00Z</time>
      </trkpt>
      <trkpt lat="39.474996" lon="-5.138712">
        <ele>503.9</ele>
        <time>1970-01-01T00:00:00Z</time>
      </trkpt>
      <trkpt lat="39.474996" lon="-5.138712">
        <ele>503.9</ele>
        <time>1970-01-01T00:00:00Z</time>
      </trkpt>
      <trkpt lat="39.474996" lon="-5.138712">
        <ele>503.9</ele>
        <time>1970-01-01T00:00:00Z</time>
      </trkpt>
      <trkpt lat="39.475016" lon="-5.138727">
        <ele>503.7</ele>
        <time>1970-01-01T00:00:00Z</time>
      </trkpt>
      <trkpt lat="39.475016" lon="-5.138727">
        <ele>503.7</ele>
        <time>1970-01-01T00:00:00Z</time>
      </trkpt>
      <trkpt lat="39.475016" lon="-5.138727">
        <ele>503.7</ele>
        <time>1970-01-01T00:00:00Z</time>
      </trkpt>
      <trkpt lat="39.475016" lon="-5.138727">
        <ele>503.7</ele>
        <time>1970-01-01T00:00:00Z</time>
      </trkpt>
      <trkpt lat="39.475041" lon="-5.138748">
        <ele>503.3</ele>
        <time>1970-01-01T00:00:00Z</time>
      </trkpt>
      <trkpt lat="39.475041" lon="-5.138748">
        <ele>503.3</ele>
        <time>1970-01-01T00:00:00Z</time>
      </trkpt>
      <trkpt lat="39.475041" lon="-5.138748">
        <ele>503.3</ele>
        <time>1970-01-01T00:00:00Z</time>
      </trkpt>
      <trkpt lat="39.475041" lon="-5.138748">
        <ele>503.3</ele>
        <time>1970-01-01T00:00:00Z</time>
      </trkpt>
      <trkpt lat="39.475066" lon="-5.138769">
        <ele>503.1</ele>
        <time>1970-01-01T00:00:00Z</time>
      </trkpt>
      <trkpt lat="39.475066" lon="-5.138769">
        <ele>503.1</ele>
        <time>1970-01-01T00:00:00Z</time>
      </trkpt>
      <trkpt lat="39.475066" lon="-5.138769">
        <ele>503.1</ele>
        <time>1970-01-01T00:00:00Z</time>
      </trkpt>
      <trkpt lat="39.475066" lon="-5.138769">
        <ele>503.1</ele>
        <time>1970-01-01T00:00:00Z</time>
      </trkpt>
      <trkpt lat="39.475089" lon="-5.138789">
        <ele>502.9</ele>
        <time>1970-01-01T00:00:00Z</time>
      </trkpt>
      <trkpt lat="39.475089" lon="-5.138789">
        <ele>502.9</ele>
        <time>1970-01-01T00:00:00Z</time>
      </trkpt>
      <trkpt lat="39.475089" lon="-5.138789">
        <ele>502.9</ele>
        <time>1970-01-01T00:00:00Z</time>
      </trkpt>
      <trkpt lat="39.475089" lon="-5.138789">
        <ele>502.9</ele>
        <time>1970-01-01T00:00:00Z</time>
      </trkpt>
      <trkpt lat="39.475111" lon="-5.138810">
        <ele>502.7</ele>
        <time>1970-01-01T00:00:00Z</time>
      </trkpt>
      <trkpt lat="39.475111" lon="-5.138810">
        <ele>502.7</ele>
        <time>1970-01-01T00:00:00Z</time>
      </trkpt>
      <trkpt lat="39.475111" lon="-5.138810">
        <ele>502.7</ele>
        <time>1970-01-01T00:00:00Z</time>
      </trkpt>
      <trkpt lat="39.475111" lon="-5.138810">
        <ele>502.7</ele>
        <time>1970-01-01T00:00:00Z</time>
      </trkpt>
      <trkpt lat="39.475131" lon="-5.138830">
        <ele>502.7</ele>
        <time>1970-01-01T00:00:00Z</time>
      </trkpt>
      <trkpt lat="39.475131" lon="-5.138830">
        <ele>502.7</ele>
        <time>1970-01-01T00:00:00Z</time>
      </trkpt>
      <trkpt lat="39.475131" lon="-5.138830">
        <ele>502.7</ele>
        <time>1970-01-01T00:00:00Z</time>
      </trkpt>
      <trkpt lat="39.475131" lon="-5.138830">
        <ele>502.7</ele>
        <time>1970-01-01T00:00:00Z</time>
      </trkpt>
      <trkpt lat="39.475149" lon="-5.138848">
        <ele>502.6</ele>
        <time>1970-01-01T00:00:00Z</time>
      </trkpt>
      <trkpt lat="39.475149" lon="-5.138848">
        <ele>502.6</ele>
        <time>1970-01-01T00:00:00Z</time>
      </trkpt>
      <trkpt lat="39.475149" lon="-5.138848">
        <ele>502.6</ele>
        <time>1970-01-01T00:00:00Z</time>
      </trkpt>
      <trkpt lat="39.475149" lon="-5.138848">
        <ele>502.6</ele>
        <time>1970-01-01T00:00:00Z</time>
      </trkpt>
      <trkpt lat="39.475168" lon="-5.138868">
        <ele>502.6</ele>
        <time>1970-01-01T00:00:00Z</time>
      </trkpt>
      <trkpt lat="39.475168" lon="-5.138868">
        <ele>502.6</ele>
        <time>1970-01-01T00:00:00Z</time>
      </trkpt>
      <trkpt lat="39.475168" lon="-5.138868">
        <ele>502.6</ele>
        <time>1970-01-01T00:00:00Z</time>
      </trkpt>
      <trkpt lat="39.475168" lon="-5.138868">
        <ele>502.6</ele>
        <time>1970-01-01T00:00:00Z</time>
      </trkpt>
      <trkpt lat="39.475187" lon="-5.138888">
        <ele>502.5</ele>
        <time>1970-01-01T00:00:00Z</time>
      </trkpt>
      <trkpt lat="39.475187" lon="-5.138888">
        <ele>502.5</ele>
        <time>1970-01-01T00:00:00Z</time>
      </trkpt>
      <trkpt lat="39.475187" lon="-5.138888">
        <ele>502.5</ele>
        <time>1970-01-01T00:00:00Z</time>
      </trkpt>
      <trkpt lat="39.475187" lon="-5.138888">
        <ele>502.5</ele>
        <time>1970-01-01T00:00:00Z</time>
      </trkpt>
      <trkpt lat="39.475203" lon="-5.138905">
        <ele>502.4</ele>
        <time>1970-01-01T00:00:00Z</time>
      </trkpt>
      <trkpt lat="39.475203" lon="-5.138905">
        <ele>502.4</ele>
        <time>1970-01-01T00:00:00Z</time>
      </trkpt>
      <trkpt lat="39.475203" lon="-5.138905">
        <ele>502.4</ele>
        <time>1970-01-01T00:00:00Z</time>
      </trkpt>
      <trkpt lat="39.475203" lon="-5.138905">
        <ele>502.4</ele>
        <time>1970-01-01T00:00:00Z</time>
      </trkpt>
      <trkpt lat="39.475218" lon="-5.138921">
        <ele>502.4</ele>
        <time>1970-01-01T00:00:00Z</time>
      </trkpt>
      <trkpt lat="39.475218" lon="-5.138921">
        <ele>502.4</ele>
        <time>1970-01-01T00:00:00Z</time>
      </trkpt>
      <trkpt lat="39.475218" lon="-5.138921">
        <ele>502.4</ele>
        <time>1970-01-01T00:00:00Z</time>
      </trkpt>
      <trkpt lat="39.475218" lon="-5.138921">
        <ele>502.4</ele>
        <time>1970-01-01T00:00:00Z</time>
      </trkpt>
      <trkpt lat="39.475236" lon="-5.138941">
        <ele>502.3</ele>
        <time>1970-01-01T00:00:00Z</time>
      </trkpt>
      <trkpt lat="39.475236" lon="-5.138941">
        <ele>502.3</ele>
        <time>1970-01-01T00:00:00Z</time>
      </trkpt>
      <trkpt lat="39.475236" lon="-5.138941">
        <ele>502.3</ele>
        <time>1970-01-01T00:00:00Z</time>
      </trkpt>
      <trkpt lat="39.475236" lon="-5.138941">
        <ele>502.3</ele>
        <time>1970-01-01T00:00:00Z</time>
      </trkpt>
      <trkpt lat="39.475253" lon="-5.138958">
        <ele>502.2</ele>
        <time>1970-01-01T00:00:00Z</time>
      </trkpt>
      <trkpt lat="39.475253" lon="-5.138958">
        <ele>502.2</ele>
        <time>1970-01-01T00:00:00Z</time>
      </trkpt>
      <trkpt lat="39.475253" lon="-5.138958">
        <ele>502.2</ele>
        <time>1970-01-01T00:00:00Z</time>
      </trkpt>
      <trkpt lat="39.475253" lon="-5.138958">
        <ele>502.2</ele>
        <time>1970-01-01T00:00:00Z</time>
      </trkpt>
      <trkpt lat="39.475273" lon="-5.138978">
        <ele>502.0</ele>
        <time>1970-01-01T00:00:00Z</time>
      </trkpt>
      <trkpt lat="39.475273" lon="-5.138978">
        <ele>502.0</ele>
        <time>1970-01-01T00:00:00Z</time>
      </trkpt>
      <trkpt lat="39.475273" lon="-5.138978">
        <ele>502.0</ele>
        <time>1970-01-01T00:00:00Z</time>
      </trkpt>
      <trkpt lat="39.475273" lon="-5.138978">
        <ele>502.0</ele>
        <time>1970-01-01T00:00:00Z</time>
      </trkpt>
      <trkpt lat="39.475294" lon="-5.138996">
        <ele>501.8</ele>
        <time>1970-01-01T00:00:00Z</time>
      </trkpt>
      <trkpt lat="39.475294" lon="-5.138996">
        <ele>501.8</ele>
        <time>1970-01-01T00:00:00Z</time>
      </trkpt>
      <trkpt lat="39.475294" lon="-5.138996">
        <ele>501.8</ele>
        <time>1970-01-01T00:00:00Z</time>
      </trkpt>
      <trkpt lat="39.475294" lon="-5.138996">
        <ele>501.8</ele>
        <time>1970-01-01T00:00:00Z</time>
      </trkpt>
      <trkpt lat="39.475314" lon="-5.139011">
        <ele>501.7</ele>
        <time>1970-01-01T00:00:00Z</time>
      </trkpt>
      <trkpt lat="39.475314" lon="-5.139011">
        <ele>501.7</ele>
        <time>1970-01-01T00:00:00Z</time>
      </trkpt>
      <trkpt lat="39.475314" lon="-5.139011">
        <ele>501.7</ele>
        <time>1970-01-01T00:00:00Z</time>
      </trkpt>
      <trkpt lat="39.475314" lon="-5.139011">
        <ele>501.7</ele>
        <time>1970-01-01T00:00:00Z</time>
      </trkpt>
      <trkpt lat="39.475333" lon="-5.139025">
        <ele>501.6</ele>
        <time>1970-01-01T00:00:00Z</time>
      </trkpt>
      <trkpt lat="39.475333" lon="-5.139025">
        <ele>501.6</ele>
        <time>1970-01-01T00:00:00Z</time>
      </trkpt>
      <trkpt lat="39.475333" lon="-5.139025">
        <ele>501.6</ele>
        <time>1970-01-01T00:00:00Z</time>
      </trkpt>
      <trkpt lat="39.475333" lon="-5.139025">
        <ele>501.6</ele>
        <time>1970-01-01T00:00:00Z</time>
      </trkpt>
      <trkpt lat="39.475359" lon="-5.139043">
        <ele>501.4</ele>
        <time>1970-01-01T00:00:00Z</time>
      </trkpt>
      <trkpt lat="39.475359" lon="-5.139043">
        <ele>501.4</ele>
        <time>1970-01-01T00:00:00Z</time>
      </trkpt>
      <trkpt lat="39.475359" lon="-5.139043">
        <ele>501.4</ele>
        <time>1970-01-01T00:00:00Z</time>
      </trkpt>
      <trkpt lat="39.475359" lon="-5.139043">
        <ele>501.4</ele>
        <time>1970-01-01T00:00:00Z</time>
      </trkpt>
      <trkpt lat="39.475382" lon="-5.139059">
        <ele>501.3</ele>
        <time>1970-01-01T00:00:00Z</time>
      </trkpt>
      <trkpt lat="39.475382" lon="-5.139059">
        <ele>501.3</ele>
        <time>1970-01-01T00:00:00Z</time>
      </trkpt>
      <trkpt lat="39.475382" lon="-5.139059">
        <ele>501.3</ele>
        <time>1970-01-01T00:00:00Z</time>
      </trkpt>
      <trkpt lat="39.475382" lon="-5.139059">
        <ele>501.3</ele>
        <time>1970-01-01T00:00:00Z</time>
      </trkpt>
      <trkpt lat="39.475403" lon="-5.139074">
        <ele>501.1</ele>
        <time>1970-01-01T00:00:00Z</time>
      </trkpt>
      <trkpt lat="39.475403" lon="-5.139074">
        <ele>501.1</ele>
        <time>1970-01-01T00:00:00Z</time>
      </trkpt>
      <trkpt lat="39.475403" lon="-5.139074">
        <ele>501.1</ele>
        <time>1970-01-01T00:00:00Z</time>
      </trkpt>
      <trkpt lat="39.475403" lon="-5.139074">
        <ele>501.1</ele>
        <time>1970-01-01T00:00:00Z</time>
      </trkpt>
      <trkpt lat="39.475431" lon="-5.139096">
        <ele>500.8</ele>
        <time>1970-01-01T00:00:00Z</time>
      </trkpt>
      <trkpt lat="39.475431" lon="-5.139096">
        <ele>500.8</ele>
        <time>1970-01-01T00:00:00Z</time>
      </trkpt>
      <trkpt lat="39.475431" lon="-5.139096">
        <ele>500.8</ele>
        <time>1970-01-01T00:00:00Z</time>
      </trkpt>
      <trkpt lat="39.475431" lon="-5.139096">
        <ele>500.8</ele>
        <time>1970-01-01T00:00:00Z</time>
      </trkpt>
      <trkpt lat="39.475453" lon="-5.139114">
        <ele>500.6</ele>
        <time>1970-01-01T00:00:00Z</time>
      </trkpt>
      <trkpt lat="39.475453" lon="-5.139114">
        <ele>500.6</ele>
        <time>1970-01-01T00:00:00Z</time>
      </trkpt>
      <trkpt lat="39.475453" lon="-5.139114">
        <ele>500.6</ele>
        <time>1970-01-01T00:00:00Z</time>
      </trkpt>
      <trkpt lat="39.475453" lon="-5.139114">
        <ele>500.6</ele>
        <time>1970-01-01T00:00:00Z</time>
      </trkpt>
      <trkpt lat="39.475476" lon="-5.139134">
        <ele>500.3</ele>
        <time>1970-01-01T00:00:00Z</time>
      </trkpt>
      <trkpt lat="39.475476" lon="-5.139134">
        <ele>500.3</ele>
        <time>1970-01-01T00:00:00Z</time>
      </trkpt>
      <trkpt lat="39.475476" lon="-5.139134">
        <ele>500.3</ele>
        <time>1970-01-01T00:00:00Z</time>
      </trkpt>
      <trkpt lat="39.475476" lon="-5.139134">
        <ele>500.3</ele>
        <time>1970-01-01T00:00:00Z</time>
      </trkpt>
      <trkpt lat="39.475497" lon="-5.139152">
        <ele>500.0</ele>
        <time>1970-01-01T00:00:00Z</time>
      </trkpt>
      <trkpt lat="39.475497" lon="-5.139152">
        <ele>500.0</ele>
        <time>1970-01-01T00:00:00Z</time>
      </trkpt>
      <trkpt lat="39.475497" lon="-5.139152">
        <ele>500.0</ele>
        <time>1970-01-01T00:00:00Z</time>
      </trkpt>
      <trkpt lat="39.475497" lon="-5.139152">
        <ele>500.0</ele>
        <time>1970-01-01T00:00:00Z</time>
      </trkpt>
      <trkpt lat="39.475518" lon="-5.139170">
        <ele>499.8</ele>
        <time>1970-01-01T00:00:00Z</time>
      </trkpt>
      <trkpt lat="39.475518" lon="-5.139170">
        <ele>499.8</ele>
        <time>1970-01-01T00:00:00Z</time>
      </trkpt>
      <trkpt lat="39.475518" lon="-5.139170">
        <ele>499.8</ele>
        <time>1970-01-01T00:00:00Z</time>
      </trkpt>
      <trkpt lat="39.475518" lon="-5.139170">
        <ele>499.8</ele>
        <time>1970-01-01T00:00:00Z</time>
      </trkpt>
      <trkpt lat="39.475541" lon="-5.139188">
        <ele>499.5</ele>
        <time>1970-01-01T00:00:00Z</time>
      </trkpt>
      <trkpt lat="39.475541" lon="-5.139188">
        <ele>499.5</ele>
        <time>1970-01-01T00:00:00Z</time>
      </trkpt>
      <trkpt lat="39.475541" lon="-5.139188">
        <ele>499.5</ele>
        <time>1970-01-01T00:00:00Z</time>
      </trkpt>
      <trkpt lat="39.475541" lon="-5.139188">
        <ele>499.5</ele>
        <time>1970-01-01T00:00:00Z</time>
      </trkpt>
      <trkpt lat="39.475564" lon="-5.139207">
        <ele>499.1</ele>
        <time>1970-01-01T00:00:00Z</time>
      </trkpt>
      <trkpt lat="39.475564" lon="-5.139207">
        <ele>499.1</ele>
        <time>1970-01-01T00:00:00Z</time>
      </trkpt>
      <trkpt lat="39.475564" lon="-5.139207">
        <ele>499.1</ele>
        <time>1970-01-01T00:00:00Z</time>
      </trkpt>
      <trkpt lat="39.475564" lon="-5.139207">
        <ele>499.1</ele>
        <time>1970-01-01T00:00:00Z</time>
      </trkpt>
      <trkpt lat="39.475585" lon="-5.139226">
        <ele>498.9</ele>
        <time>1970-01-01T00:00:00Z</time>
      </trkpt>
      <trkpt lat="39.475585" lon="-5.139226">
        <ele>498.9</ele>
        <time>1970-01-01T00:00:00Z</time>
      </trkpt>
      <trkpt lat="39.475585" lon="-5.139226">
        <ele>498.9</ele>
        <time>1970-01-01T00:00:00Z</time>
      </trkpt>
      <trkpt lat="39.475585" lon="-5.139226">
        <ele>498.9</ele>
        <time>1970-01-01T00:00:00Z</time>
      </trkpt>
      <trkpt lat="39.475606" lon="-5.139245">
        <ele>498.7</ele>
        <time>1970-01-01T00:00:00Z</time>
      </trkpt>
      <trkpt lat="39.475606" lon="-5.139245">
        <ele>498.7</ele>
        <time>1970-01-01T00:00:00Z</time>
      </trkpt>
      <trkpt lat="39.475606" lon="-5.139245">
        <ele>498.7</ele>
        <time>1970-01-01T00:00:00Z</time>
      </trkpt>
      <trkpt lat="39.475606" lon="-5.139245">
        <ele>498.7</ele>
        <time>1970-01-01T00:00:00Z</time>
      </trkpt>
      <trkpt lat="39.475625" lon="-5.139262">
        <ele>498.6</ele>
        <time>1970-01-01T00:00:00Z</time>
      </trkpt>
      <trkpt lat="39.475625" lon="-5.139262">
        <ele>498.6</ele>
        <time>1970-01-01T00:00:00Z</time>
      </trkpt>
      <trkpt lat="39.475625" lon="-5.139262">
        <ele>498.6</ele>
        <time>1970-01-01T00:00:00Z</time>
      </trkpt>
      <trkpt lat="39.475625" lon="-5.139262">
        <ele>498.6</ele>
        <time>1970-01-01T00:00:00Z</time>
      </trkpt>
      <trkpt lat="39.475646" lon="-5.139280">
        <ele>498.4</ele>
        <time>1970-01-01T00:00:00Z</time>
      </trkpt>
      <trkpt lat="39.475646" lon="-5.139280">
        <ele>498.4</ele>
        <time>1970-01-01T00:00:00Z</time>
      </trkpt>
      <trkpt lat="39.475646" lon="-5.139280">
        <ele>498.4</ele>
        <time>1970-01-01T00:00:00Z</time>
      </trkpt>
      <trkpt lat="39.475646" lon="-5.139280">
        <ele>498.4</ele>
        <time>1970-01-01T00:00:00Z</time>
      </trkpt>
      <trkpt lat="39.475667" lon="-5.139299">
        <ele>498.2</ele>
        <time>1970-01-01T00:00:00Z</time>
      </trkpt>
      <trkpt lat="39.475667" lon="-5.139299">
        <ele>498.2</ele>
        <time>1970-01-01T00:00:00Z</time>
      </trkpt>
      <trkpt lat="39.475667" lon="-5.139299">
        <ele>498.2</ele>
        <time>1970-01-01T00:00:00Z</time>
      </trkpt>
      <trkpt lat="39.475667" lon="-5.139299">
        <ele>498.2</ele>
        <time>1970-01-01T00:00:00Z</time>
      </trkpt>
      <trkpt lat="39.475689" lon="-5.139316">
        <ele>498.1</ele>
        <time>1970-01-01T00:00:00Z</time>
      </trkpt>
      <trkpt lat="39.475689" lon="-5.139316">
        <ele>498.1</ele>
        <time>1970-01-01T00:00:00Z</time>
      </trkpt>
      <trkpt lat="39.475689" lon="-5.139316">
        <ele>498.1</ele>
        <time>1970-01-01T00:00:00Z</time>
      </trkpt>
      <trkpt lat="39.475689" lon="-5.139316">
        <ele>498.1</ele>
        <time>1970-01-01T00:00:00Z</time>
      </trkpt>
      <trkpt lat="39.475707" lon="-5.139331">
        <ele>498.0</ele>
        <time>1970-01-01T00:00:00Z</time>
      </trkpt>
      <trkpt lat="39.475707" lon="-5.139331">
        <ele>498.0</ele>
        <time>1970-01-01T00:00:00Z</time>
      </trkpt>
      <trkpt lat="39.475707" lon="-5.139331">
        <ele>498.0</ele>
        <time>1970-01-01T00:00:00Z</time>
      </trkpt>
      <trkpt lat="39.475707" lon="-5.139331">
        <ele>498.0</ele>
        <time>1970-01-01T00:00:00Z</time>
      </trkpt>
      <trkpt lat="39.475728" lon="-5.139347">
        <ele>497.8</ele>
        <time>1970-01-01T00:00:00Z</time>
      </trkpt>
      <trkpt lat="39.475728" lon="-5.139347">
        <ele>497.8</ele>
        <time>1970-01-01T00:00:00Z</time>
      </trkpt>
      <trkpt lat="39.475728" lon="-5.139347">
        <ele>497.8</ele>
        <time>1970-01-01T00:00:00Z</time>
      </trkpt>
      <trkpt lat="39.475728" lon="-5.139347">
        <ele>497.8</ele>
        <time>1970-01-01T00:00:00Z</time>
      </trkpt>
      <trkpt lat="39.475749" lon="-5.139363">
        <ele>497.7</ele>
        <time>1970-01-01T00:00:00Z</time>
      </trkpt>
      <trkpt lat="39.475749" lon="-5.139363">
        <ele>497.7</ele>
        <time>1970-01-01T00:00:00Z</time>
      </trkpt>
      <trkpt lat="39.475749" lon="-5.139363">
        <ele>497.7</ele>
        <time>1970-01-01T00:00:00Z</time>
      </trkpt>
      <trkpt lat="39.475749" lon="-5.139363">
        <ele>497.7</ele>
        <time>1970-01-01T00:00:00Z</time>
      </trkpt>
      <trkpt lat="39.475768" lon="-5.139377">
        <ele>497.6</ele>
        <time>1970-01-01T00:00:00Z</time>
      </trkpt>
      <trkpt lat="39.475768" lon="-5.139377">
        <ele>497.6</ele>
        <time>1970-01-01T00:00:00Z</time>
      </trkpt>
      <trkpt lat="39.475768" lon="-5.139377">
        <ele>497.6</ele>
        <time>1970-01-01T00:00:00Z</time>
      </trkpt>
      <trkpt lat="39.475768" lon="-5.139377">
        <ele>497.6</ele>
        <time>1970-01-01T00:00:00Z</time>
      </trkpt>
      <trkpt lat="39.475800" lon="-5.139402">
        <ele>497.4</ele>
        <time>1970-01-01T00:00:00Z</time>
      </trkpt>
      <trkpt lat="39.475800" lon="-5.139402">
        <ele>497.4</ele>
        <time>1970-01-01T00:00:00Z</time>
      </trkpt>
      <trkpt lat="39.475800" lon="-5.139402">
        <ele>497.4</ele>
        <time>1970-01-01T00:00:00Z</time>
      </trkpt>
      <trkpt lat="39.475800" lon="-5.139402">
        <ele>497.4</ele>
        <time>1970-01-01T00:00:00Z</time>
      </trkpt>
      <trkpt lat="39.475832" lon="-5.139428">
        <ele>497.0</ele>
        <time>1970-01-01T00:00:00Z</time>
      </trkpt>
      <trkpt lat="39.475832" lon="-5.139428">
        <ele>497.0</ele>
        <time>1970-01-01T00:00:00Z</time>
      </trkpt>
      <trkpt lat="39.475832" lon="-5.139428">
        <ele>497.0</ele>
        <time>1970-01-01T00:00:00Z</time>
      </trkpt>
      <trkpt lat="39.475832" lon="-5.139428">
        <ele>497.0</ele>
        <time>1970-01-01T00:00:00Z</time>
      </trkpt>
      <trkpt lat="39.475851" lon="-5.139443">
        <ele>496.8</ele>
        <time>1970-01-01T00:00:00Z</time>
      </trkpt>
      <trkpt lat="39.475851" lon="-5.139443">
        <ele>496.8</ele>
        <time>1970-01-01T00:00:00Z</time>
      </trkpt>
      <trkpt lat="39.475851" lon="-5.139443">
        <ele>496.8</ele>
        <time>1970-01-01T00:00:00Z</time>
      </trkpt>
      <trkpt lat="39.475851" lon="-5.139443">
        <ele>496.8</ele>
        <time>1970-01-01T00:00:00Z</time>
      </trkpt>
      <trkpt lat="39.475871" lon="-5.139459">
        <ele>496.5</ele>
        <time>1970-01-01T00:00:00Z</time>
      </trkpt>
      <trkpt lat="39.475871" lon="-5.139459">
        <ele>496.5</ele>
        <time>1970-01-01T00:00:00Z</time>
      </trkpt>
      <trkpt lat="39.475871" lon="-5.139459">
        <ele>496.5</ele>
        <time>1970-01-01T00:00:00Z</time>
      </trkpt>
      <trkpt lat="39.475871" lon="-5.139459">
        <ele>496.5</ele>
        <time>1970-01-01T00:00:00Z</time>
      </trkpt>
      <trkpt lat="39.475890" lon="-5.139474">
        <ele>496.3</ele>
        <time>1970-01-01T00:00:00Z</time>
      </trkpt>
      <trkpt lat="39.475890" lon="-5.139474">
        <ele>496.3</ele>
        <time>1970-01-01T00:00:00Z</time>
      </trkpt>
      <trkpt lat="39.475890" lon="-5.139474">
        <ele>496.3</ele>
        <time>1970-01-01T00:00:00Z</time>
      </trkpt>
      <trkpt lat="39.475890" lon="-5.139474">
        <ele>496.3</ele>
        <time>1970-01-01T00:00:00Z</time>
      </trkpt>
      <trkpt lat="39.475908" lon="-5.139487">
        <ele>496.0</ele>
        <time>1970-01-01T00:00:00Z</time>
      </trkpt>
      <trkpt lat="39.475908" lon="-5.139487">
        <ele>496.0</ele>
        <time>1970-01-01T00:00:00Z</time>
      </trkpt>
      <trkpt lat="39.475908" lon="-5.139487">
        <ele>496.0</ele>
        <time>1970-01-01T00:00:00Z</time>
      </trkpt>
      <trkpt lat="39.475908" lon="-5.139487">
        <ele>496.0</ele>
        <time>1970-01-01T00:00:00Z</time>
      </trkpt>
      <trkpt lat="39.475926" lon="-5.139501">
        <ele>495.7</ele>
        <time>1970-01-01T00:00:00Z</time>
      </trkpt>
      <trkpt lat="39.475926" lon="-5.139501">
        <ele>495.7</ele>
        <time>1970-01-01T00:00:00Z</time>
      </trkpt>
      <trkpt lat="39.475926" lon="-5.139501">
        <ele>495.7</ele>
        <time>1970-01-01T00:00:00Z</time>
      </trkpt>
      <trkpt lat="39.475926" lon="-5.139501">
        <ele>495.7</ele>
        <time>1970-01-01T00:00:00Z</time>
      </trkpt>
      <trkpt lat="39.475953" lon="-5.139522">
        <ele>495.4</ele>
        <time>1970-01-01T00:00:00Z</time>
      </trkpt>
      <trkpt lat="39.475953" lon="-5.139522">
        <ele>495.4</ele>
        <time>1970-01-01T00:00:00Z</time>
      </trkpt>
      <trkpt lat="39.475953" lon="-5.139522">
        <ele>495.4</ele>
        <time>1970-01-01T00:00:00Z</time>
      </trkpt>
      <trkpt lat="39.475953" lon="-5.139522">
        <ele>495.4</ele>
        <time>1970-01-01T00:00:00Z</time>
      </trkpt>
      <trkpt lat="39.475972" lon="-5.139536">
        <ele>495.1</ele>
        <time>1970-01-01T00:00:00Z</time>
      </trkpt>
      <trkpt lat="39.475972" lon="-5.139536">
        <ele>495.1</ele>
        <time>1970-01-01T00:00:00Z</time>
      </trkpt>
      <trkpt lat="39.475972" lon="-5.139536">
        <ele>495.1</ele>
        <time>1970-01-01T00:00:00Z</time>
      </trkpt>
      <trkpt lat="39.475972" lon="-5.139536">
        <ele>495.1</ele>
        <time>1970-01-01T00:00:00Z</time>
      </trkpt>
      <trkpt lat="39.475993" lon="-5.139550">
        <ele>494.8</ele>
        <time>1970-01-01T00:00:00Z</time>
      </trkpt>
      <trkpt lat="39.475993" lon="-5.139550">
        <ele>494.8</ele>
        <time>1970-01-01T00:00:00Z</time>
      </trkpt>
      <trkpt lat="39.475993" lon="-5.139550">
        <ele>494.8</ele>
        <time>1970-01-01T00:00:00Z</time>
      </trkpt>
      <trkpt lat="39.475993" lon="-5.139550">
        <ele>494.8</ele>
        <time>1970-01-01T00:00:00Z</time>
      </trkpt>
      <trkpt lat="39.476014" lon="-5.139564">
        <ele>494.6</ele>
        <time>1970-01-01T00:00:00Z</time>
      </trkpt>
      <trkpt lat="39.476014" lon="-5.139564">
        <ele>494.6</ele>
        <time>1970-01-01T00:00:00Z</time>
      </trkpt>
      <trkpt lat="39.476014" lon="-5.139564">
        <ele>494.6</ele>
        <time>1970-01-01T00:00:00Z</time>
      </trkpt>
      <trkpt lat="39.476014" lon="-5.139564">
        <ele>494.6</ele>
        <time>1970-01-01T00:00:00Z</time>
      </trkpt>
      <trkpt lat="39.476035" lon="-5.139580">
        <ele>494.3</ele>
        <time>1970-01-01T00:00:00Z</time>
      </trkpt>
      <trkpt lat="39.476035" lon="-5.139580">
        <ele>494.3</ele>
        <time>1970-01-01T00:00:00Z</time>
      </trkpt>
      <trkpt lat="39.476035" lon="-5.139580">
        <ele>494.3</ele>
        <time>1970-01-01T00:00:00Z</time>
      </trkpt>
      <trkpt lat="39.476035" lon="-5.139580">
        <ele>494.3</ele>
        <time>1970-01-01T00:00:00Z</time>
      </trkpt>
      <trkpt lat="39.476054" lon="-5.139593">
        <ele>494.0</ele>
        <time>1970-01-01T00:00:00Z</time>
      </trkpt>
      <trkpt lat="39.476054" lon="-5.139593">
        <ele>494.0</ele>
        <time>1970-01-01T00:00:00Z</time>
      </trkpt>
      <trkpt lat="39.476054" lon="-5.139593">
        <ele>494.0</ele>
        <time>1970-01-01T00:00:00Z</time>
      </trkpt>
      <trkpt lat="39.476054" lon="-5.139593">
        <ele>494.0</ele>
        <time>1970-01-01T00:00:00Z</time>
      </trkpt>
      <trkpt lat="39.476072" lon="-5.139606">
        <ele>493.8</ele>
        <time>1970-01-01T00:00:00Z</time>
      </trkpt>
      <trkpt lat="39.476072" lon="-5.139606">
        <ele>493.8</ele>
        <time>1970-01-01T00:00:00Z</time>
      </trkpt>
      <trkpt lat="39.476072" lon="-5.139606">
        <ele>493.8</ele>
        <time>1970-01-01T00:00:00Z</time>
      </trkpt>
      <trkpt lat="39.476072" lon="-5.139606">
        <ele>493.8</ele>
        <time>1970-01-01T00:00:00Z</time>
      </trkpt>
      <trkpt lat="39.476091" lon="-5.139619">
        <ele>493.5</ele>
        <time>1970-01-01T00:00:00Z</time>
      </trkpt>
      <trkpt lat="39.476091" lon="-5.139619">
        <ele>493.5</ele>
        <time>1970-01-01T00:00:00Z</time>
      </trkpt>
      <trkpt lat="39.476091" lon="-5.139619">
        <ele>493.5</ele>
        <time>1970-01-01T00:00:00Z</time>
      </trkpt>
      <trkpt lat="39.476091" lon="-5.139619">
        <ele>493.5</ele>
        <time>1970-01-01T00:00:00Z</time>
      </trkpt>
      <trkpt lat="39.476108" lon="-5.139631">
        <ele>493.3</ele>
        <time>1970-01-01T00:00:00Z</time>
      </trkpt>
      <trkpt lat="39.476108" lon="-5.139631">
        <ele>493.3</ele>
        <time>1970-01-01T00:00:00Z</time>
      </trkpt>
      <trkpt lat="39.476108" lon="-5.139631">
        <ele>493.3</ele>
        <time>1970-01-01T00:00:00Z</time>
      </trkpt>
      <trkpt lat="39.476108" lon="-5.139631">
        <ele>493.3</ele>
        <time>1970-01-01T00:00:00Z</time>
      </trkpt>
      <trkpt lat="39.476126" lon="-5.139644">
        <ele>493.0</ele>
        <time>1970-01-01T00:00:00Z</time>
      </trkpt>
      <trkpt lat="39.476126" lon="-5.139644">
        <ele>493.0</ele>
        <time>1970-01-01T00:00:00Z</time>
      </trkpt>
      <trkpt lat="39.476126" lon="-5.139644">
        <ele>493.0</ele>
        <time>1970-01-01T00:00:00Z</time>
      </trkpt>
      <trkpt lat="39.476126" lon="-5.139644">
        <ele>493.0</ele>
        <time>1970-01-01T00:00:00Z</time>
      </trkpt>
      <trkpt lat="39.476143" lon="-5.139655">
        <ele>492.8</ele>
        <time>1970-01-01T00:00:00Z</time>
      </trkpt>
      <trkpt lat="39.476143" lon="-5.139655">
        <ele>492.8</ele>
        <time>1970-01-01T00:00:00Z</time>
      </trkpt>
      <trkpt lat="39.476143" lon="-5.139655">
        <ele>492.8</ele>
        <time>1970-01-01T00:00:00Z</time>
      </trkpt>
      <trkpt lat="39.476143" lon="-5.139655">
        <ele>492.8</ele>
        <time>1970-01-01T00:00:00Z</time>
      </trkpt>
      <trkpt lat="39.476165" lon="-5.139670">
        <ele>492.5</ele>
        <time>1970-01-01T00:00:00Z</time>
      </trkpt>
      <trkpt lat="39.476165" lon="-5.139670">
        <ele>492.5</ele>
        <time>1970-01-01T00:00:00Z</time>
      </trkpt>
      <trkpt lat="39.476165" lon="-5.139670">
        <ele>492.5</ele>
        <time>1970-01-01T00:00:00Z</time>
      </trkpt>
      <trkpt lat="39.476165" lon="-5.139670">
        <ele>492.5</ele>
        <time>1970-01-01T00:00:00Z</time>
      </trkpt>
      <trkpt lat="39.476185" lon="-5.139682">
        <ele>492.3</ele>
        <time>1970-01-01T00:00:00Z</time>
      </trkpt>
      <trkpt lat="39.476185" lon="-5.139682">
        <ele>492.3</ele>
        <time>1970-01-01T00:00:00Z</time>
      </trkpt>
      <trkpt lat="39.476185" lon="-5.139682">
        <ele>492.3</ele>
        <time>1970-01-01T00:00:00Z</time>
      </trkpt>
      <trkpt lat="39.476185" lon="-5.139682">
        <ele>492.3</ele>
        <time>1970-01-01T00:00:00Z</time>
      </trkpt>
      <trkpt lat="39.476204" lon="-5.139694">
        <ele>492.1</ele>
        <time>1970-01-01T00:00:00Z</time>
      </trkpt>
      <trkpt lat="39.476204" lon="-5.139694">
        <ele>492.1</ele>
        <time>1970-01-01T00:00:00Z</time>
      </trkpt>
      <trkpt lat="39.476204" lon="-5.139694">
        <ele>492.1</ele>
        <time>1970-01-01T00:00:00Z</time>
      </trkpt>
      <trkpt lat="39.476204" lon="-5.139694">
        <ele>492.1</ele>
        <time>1970-01-01T00:00:00Z</time>
      </trkpt>
      <trkpt lat="39.476224" lon="-5.139705">
        <ele>492.0</ele>
        <time>1970-01-01T00:00:00Z</time>
      </trkpt>
      <trkpt lat="39.476224" lon="-5.139705">
        <ele>492.0</ele>
        <time>1970-01-01T00:00:00Z</time>
      </trkpt>
      <trkpt lat="39.476224" lon="-5.139705">
        <ele>492.0</ele>
        <time>1970-01-01T00:00:00Z</time>
      </trkpt>
      <trkpt lat="39.476224" lon="-5.139705">
        <ele>492.0</ele>
        <time>1970-01-01T00:00:00Z</time>
      </trkpt>
      <trkpt lat="39.476244" lon="-5.139713">
        <ele>491.8</ele>
        <time>1970-01-01T00:00:00Z</time>
      </trkpt>
      <trkpt lat="39.476244" lon="-5.139713">
        <ele>491.8</ele>
        <time>1970-01-01T00:00:00Z</time>
      </trkpt>
      <trkpt lat="39.476244" lon="-5.139713">
        <ele>491.8</ele>
        <time>1970-01-01T00:00:00Z</time>
      </trkpt>
      <trkpt lat="39.476244" lon="-5.139713">
        <ele>491.8</ele>
        <time>1970-01-01T00:00:00Z</time>
      </trkpt>
      <trkpt lat="39.476358" lon="-5.139706">
        <ele>491.7</ele>
        <time>1970-01-01T00:00:00Z</time>
      </trkpt>
      <trkpt lat="39.476358" lon="-5.139706">
        <ele>491.7</ele>
        <time>1970-01-01T00:00:00Z</time>
      </trkpt>
      <trkpt lat="39.476358" lon="-5.139706">
        <ele>491.7</ele>
        <time>1970-01-01T00:00:00Z</time>
      </trkpt>
      <trkpt lat="39.476358" lon="-5.139706">
        <ele>491.7</ele>
        <time>1970-01-01T00:00:00Z</time>
      </trkpt>
      <trkpt lat="39.476434" lon="-5.139660">
        <ele>492.2</ele>
        <time>1970-01-01T00:00:00Z</time>
      </trkpt>
      <trkpt lat="39.476434" lon="-5.139660">
        <ele>492.2</ele>
        <time>1970-01-01T00:00:00Z</time>
      </trkpt>
      <trkpt lat="39.476434" lon="-5.139660">
        <ele>492.2</ele>
        <time>1970-01-01T00:00:00Z</time>
      </trkpt>
      <trkpt lat="39.476434" lon="-5.139660">
        <ele>492.2</ele>
        <time>1970-01-01T00:00:00Z</time>
      </trkpt>
      <trkpt lat="39.476617" lon="-5.139514">
        <ele>493.6</ele>
        <time>1970-01-01T00:00:00Z</time>
      </trkpt>
      <trkpt lat="39.476617" lon="-5.139514">
        <ele>493.6</ele>
        <time>1970-01-01T00:00:00Z</time>
      </trkpt>
      <trkpt lat="39.476617" lon="-5.139514">
        <ele>493.6</ele>
        <time>1970-01-01T00:00:00Z</time>
      </trkpt>
      <trkpt lat="39.476617" lon="-5.139514">
        <ele>493.6</ele>
        <time>1970-01-01T00:00:00Z</time>
      </trkpt>
      <trkpt lat="39.476728" lon="-5.139387">
        <ele>494.3</ele>
        <time>1970-01-01T00:00:00Z</time>
      </trkpt>
      <trkpt lat="39.476728" lon="-5.139387">
        <ele>494.3</ele>
        <time>1970-01-01T00:00:00Z</time>
      </trkpt>
      <trkpt lat="39.476728" lon="-5.139387">
        <ele>494.3</ele>
        <time>1970-01-01T00:00:00Z</time>
      </trkpt>
      <trkpt lat="39.476728" lon="-5.139387">
        <ele>494.3</ele>
        <time>1970-01-01T00:00:00Z</time>
      </trkpt>
      <trkpt lat="39.476808" lon="-5.139220">
        <ele>493.7</ele>
        <time>1970-01-01T00:00:00Z</time>
      </trkpt>
      <trkpt lat="39.476808" lon="-5.139220">
        <ele>493.7</ele>
        <time>1970-01-01T00:00:00Z</time>
      </trkpt>
      <trkpt lat="39.476808" lon="-5.139220">
        <ele>493.7</ele>
        <time>1970-01-01T00:00:00Z</time>
      </trkpt>
      <trkpt lat="39.476808" lon="-5.139220">
        <ele>493.7</ele>
        <time>1970-01-01T00:00:00Z</time>
      </trkpt>
      <trkpt lat="39.476995" lon="-5.138910">
        <ele>490.4</ele>
        <time>1970-01-01T00:00:00Z</time>
      </trkpt>
      <trkpt lat="39.476995" lon="-5.138910">
        <ele>490.4</ele>
        <time>1970-01-01T00:00:00Z</time>
      </trkpt>
      <trkpt lat="39.476995" lon="-5.138910">
        <ele>490.4</ele>
        <time>1970-01-01T00:00:00Z</time>
      </trkpt>
      <trkpt lat="39.476995" lon="-5.138910">
        <ele>490.4</ele>
        <time>1970-01-01T00:00:00Z</time>
      </trkpt>
      <trkpt lat="39.477068" lon="-5.138789">
        <ele>488.5</ele>
        <time>1970-01-01T00:00:00Z</time>
      </trkpt>
      <trkpt lat="39.477068" lon="-5.138789">
        <ele>488.5</ele>
        <time>1970-01-01T00:00:00Z</time>
      </trkpt>
      <trkpt lat="39.477068" lon="-5.138789">
        <ele>488.5</ele>
        <time>1970-01-01T00:00:00Z</time>
      </trkpt>
      <trkpt lat="39.477068" lon="-5.138789">
        <ele>488.5</ele>
        <time>1970-01-01T00:00:00Z</time>
      </trkpt>
      <trkpt lat="39.477119" lon="-5.138630">
        <ele>486.9</ele>
        <time>1970-01-01T00:00:00Z</time>
      </trkpt>
      <trkpt lat="39.477119" lon="-5.138630">
        <ele>486.9</ele>
        <time>1970-01-01T00:00:00Z</time>
      </trkpt>
      <trkpt lat="39.477119" lon="-5.138630">
        <ele>486.9</ele>
        <time>1970-01-01T00:00:00Z</time>
      </trkpt>
      <trkpt lat="39.477119" lon="-5.138630">
        <ele>486.9</ele>
        <time>1970-01-01T00:00:00Z</time>
      </trkpt>
      <trkpt lat="39.477181" lon="-5.138351">
        <ele>485.4</ele>
        <time>1970-01-01T00:00:00Z</time>
      </trkpt>
      <trkpt lat="39.477181" lon="-5.138351">
        <ele>485.4</ele>
        <time>1970-01-01T00:00:00Z</time>
      </trkpt>
      <trkpt lat="39.477181" lon="-5.138351">
        <ele>485.4</ele>
        <time>1970-01-01T00:00:00Z</time>
      </trkpt>
      <trkpt lat="39.477181" lon="-5.138351">
        <ele>485.4</ele>
        <time>1970-01-01T00:00:00Z</time>
      </trkpt>
      <trkpt lat="39.477206" lon="-5.138263">
        <ele>484.8</ele>
        <time>1970-01-01T00:00:00Z</time>
      </trkpt>
      <trkpt lat="39.477206" lon="-5.138263">
        <ele>484.8</ele>
        <time>1970-01-01T00:00:00Z</time>
      </trkpt>
      <trkpt lat="39.477206" lon="-5.138263">
        <ele>484.8</ele>
        <time>1970-01-01T00:00:00Z</time>
      </trkpt>
      <trkpt lat="39.477206" lon="-5.138263">
        <ele>484.8</ele>
        <time>1970-01-01T00:00:00Z</time>
      </trkpt>
      <trkpt lat="39.477219" lon="-5.138060">
        <ele>483.7</ele>
        <time>1970-01-01T00:00:00Z</time>
      </trkpt>
      <trkpt lat="39.477219" lon="-5.138060">
        <ele>483.7</ele>
        <time>1970-01-01T00:00:00Z</time>
      </trkpt>
      <trkpt lat="39.477219" lon="-5.138060">
        <ele>483.7</ele>
        <time>1970-01-01T00:00:00Z</time>
      </trkpt>
      <trkpt lat="39.477219" lon="-5.138060">
        <ele>483.7</ele>
        <time>1970-01-01T00:00:00Z</time>
      </trkpt>
      <trkpt lat="39.477207" lon="-5.137909">
        <ele>483.2</ele>
        <time>1970-01-01T00:00:00Z</time>
      </trkpt>
      <trkpt lat="39.477207" lon="-5.137909">
        <ele>483.2</ele>
        <time>1970-01-01T00:00:00Z</time>
      </trkpt>
      <trkpt lat="39.477207" lon="-5.137909">
        <ele>483.2</ele>
        <time>1970-01-01T00:00:00Z</time>
      </trkpt>
      <trkpt lat="39.477207" lon="-5.137909">
        <ele>483.2</ele>
        <time>1970-01-01T00:00:00Z</time>
      </trkpt>
      <trkpt lat="39.477142" lon="-5.137700">
        <ele>483.9</ele>
        <time>1970-01-01T00:00:00Z</time>
      </trkpt>
      <trkpt lat="39.477142" lon="-5.137700">
        <ele>483.9</ele>
        <time>1970-01-01T00:00:00Z</time>
      </trkpt>
      <trkpt lat="39.477142" lon="-5.137700">
        <ele>483.9</ele>
        <time>1970-01-01T00:00:00Z</time>
      </trkpt>
      <trkpt lat="39.477142" lon="-5.137700">
        <ele>483.9</ele>
        <time>1970-01-01T00:00:00Z</time>
      </trkpt>
      <trkpt lat="39.477092" lon="-5.137533">
        <ele>484.1</ele>
        <time>1970-01-01T00:00:00Z</time>
      </trkpt>
      <trkpt lat="39.477092" lon="-5.137533">
        <ele>484.1</ele>
        <time>1970-01-01T00:00:00Z</time>
      </trkpt>
      <trkpt lat="39.477092" lon="-5.137533">
        <ele>484.1</ele>
        <time>1970-01-01T00:00:00Z</time>
      </trkpt>
      <trkpt lat="39.477092" lon="-5.137533">
        <ele>484.1</ele>
        <time>1970-01-01T00:00:00Z</time>
      </trkpt>
      <trkpt lat="39.477104" lon="-5.137329">
        <ele>483.2</ele>
        <time>1970-01-01T00:00:00Z</time>
      </trkpt>
      <trkpt lat="39.477104" lon="-5.137329">
        <ele>483.2</ele>
        <time>1970-01-01T00:00:00Z</time>
      </trkpt>
      <trkpt lat="39.477104" lon="-5.137329">
        <ele>483.2</ele>
        <time>1970-01-01T00:00:00Z</time>
      </trkpt>
      <trkpt lat="39.477104" lon="-5.137329">
        <ele>483.2</ele>
        <time>1970-01-01T00:00:00Z</time>
      </trkpt>
      <trkpt lat="39.477126" lon="-5.137157">
        <ele>482.4</ele>
        <time>1970-01-01T00:00:00Z</time>
      </trkpt>
      <trkpt lat="39.477126" lon="-5.137157">
        <ele>482.4</ele>
        <time>1970-01-01T00:00:00Z</time>
      </trkpt>
      <trkpt lat="39.477126" lon="-5.137157">
        <ele>482.4</ele>
        <time>1970-01-01T00:00:00Z</time>
      </trkpt>
      <trkpt lat="39.477126" lon="-5.137157">
        <ele>482.4</ele>
        <time>1970-01-01T00:00:00Z</time>
      </trkpt>
      <trkpt lat="39.477154" lon="-5.136904">
        <ele>480.8</ele>
        <time>1970-01-01T00:00:00Z</time>
      </trkpt>
      <trkpt lat="39.477154" lon="-5.136904">
        <ele>480.8</ele>
        <time>1970-01-01T00:00:00Z</time>
      </trkpt>
      <trkpt lat="39.477154" lon="-5.136904">
        <ele>480.8</ele>
        <time>1970-01-01T00:00:00Z</time>
      </trkpt>
      <trkpt lat="39.477154" lon="-5.136904">
        <ele>480.8</ele>
        <time>1970-01-01T00:00:00Z</time>
      </trkpt>
      <trkpt lat="39.477146" lon="-5.136704">
        <ele>480.1</ele>
        <time>1970-01-01T00:00:00Z</time>
      </trkpt>
      <trkpt lat="39.477146" lon="-5.136704">
        <ele>480.1</ele>
        <time>1970-01-01T00:00:00Z</time>
      </trkpt>
      <trkpt lat="39.477146" lon="-5.136704">
        <ele>480.1</ele>
        <time>1970-01-01T00:00:00Z</time>
      </trkpt>
      <trkpt lat="39.477146" lon="-5.136704">
        <ele>480.1</ele>
        <time>1970-01-01T00:00:00Z</time>
      </trkpt>
      <trkpt lat="39.477109" lon="-5.136435">
        <ele>480.2</ele>
        <time>1970-01-01T00:00:00Z</time>
      </trkpt>
      <trkpt lat="39.477109" lon="-5.136435">
        <ele>480.2</ele>
        <time>1970-01-01T00:00:00Z</time>
      </trkpt>
      <trkpt lat="39.477109" lon="-5.136435">
        <ele>480.2</ele>
        <time>1970-01-01T00:00:00Z</time>
      </trkpt>
      <trkpt lat="39.477109" lon="-5.136435">
        <ele>480.2</ele>
        <time>1970-01-01T00:00:00Z</time>
      </trkpt>
      <trkpt lat="39.477046" lon="-5.136160">
        <ele>478.6</ele>
        <time>1970-01-01T00:00:00Z</time>
      </trkpt>
      <trkpt lat="39.477046" lon="-5.136160">
        <ele>478.6</ele>
        <time>1970-01-01T00:00:00Z</time>
      </trkpt>
      <trkpt lat="39.477046" lon="-5.136160">
        <ele>478.6</ele>
        <time>1970-01-01T00:00:00Z</time>
      </trkpt>
      <trkpt lat="39.477046" lon="-5.136160">
        <ele>478.6</ele>
        <time>1970-01-01T00:00:00Z</time>
      </trkpt>
      <trkpt lat="39.476900" lon="-5.135798">
        <ele>477.2</ele>
        <time>1970-01-01T00:00:00Z</time>
      </trkpt>
      <trkpt lat="39.476900" lon="-5.135798">
        <ele>477.2</ele>
        <time>1970-01-01T00:00:00Z</time>
      </trkpt>
      <trkpt lat="39.476900" lon="-5.135798">
        <ele>477.2</ele>
        <time>1970-01-01T00:00:00Z</time>
      </trkpt>
      <trkpt lat="39.476900" lon="-5.135798">
        <ele>477.2</ele>
        <time>1970-01-01T00:00:00Z</time>
      </trkpt>
      <trkpt lat="39.476777" lon="-5.135533">
        <ele>475.7</ele>
        <time>1970-01-01T00:00:00Z</time>
      </trkpt>
      <trkpt lat="39.476777" lon="-5.135533">
        <ele>475.7</ele>
        <time>1970-01-01T00:00:00Z</time>
      </trkpt>
      <trkpt lat="39.476777" lon="-5.135533">
        <ele>475.7</ele>
        <time>1970-01-01T00:00:00Z</time>
      </trkpt>
      <trkpt lat="39.476777" lon="-5.135533">
        <ele>475.7</ele>
        <time>1970-01-01T00:00:00Z</time>
      </trkpt>
      <trkpt lat="39.476627" lon="-5.135117">
        <ele>470.7</ele>
        <time>1970-01-01T00:00:00Z</time>
      </trkpt>
      <trkpt lat="39.476627" lon="-5.135117">
        <ele>470.7</ele>
        <time>1970-01-01T00:00:00Z</time>
      </trkpt>
      <trkpt lat="39.476627" lon="-5.135117">
        <ele>470.7</ele>
        <time>1970-01-01T00:00:00Z</time>
      </trkpt>
      <trkpt lat="39.476627" lon="-5.135117">
        <ele>470.7</ele>
        <time>1970-01-01T00:00:00Z</time>
      </trkpt>
      <trkpt lat="39.476433" lon="-5.134788">
        <ele>468.1</ele>
        <time>1970-01-01T00:00:00Z</time>
      </trkpt>
      <trkpt lat="39.476433" lon="-5.134788">
        <ele>468.1</ele>
        <time>1970-01-01T00:00:00Z</time>
      </trkpt>
      <trkpt lat="39.476433" lon="-5.134788">
        <ele>468.1</ele>
        <time>1970-01-01T00:00:00Z</time>
      </trkpt>
      <trkpt lat="39.476433" lon="-5.134788">
        <ele>468.1</ele>
        <time>1970-01-01T00:00:00Z</time>
      </trkpt>
      <trkpt lat="39.476266" lon="-5.134452">
        <ele>465.9</ele>
        <time>1970-01-01T00:00:00Z</time>
      </trkpt>
      <trkpt lat="39.476266" lon="-5.134452">
        <ele>465.9</ele>
        <time>1970-01-01T00:00:00Z</time>
      </trkpt>
      <trkpt lat="39.476266" lon="-5.134452">
        <ele>465.9</ele>
        <time>1970-01-01T00:00:00Z</time>
      </trkpt>
      <trkpt lat="39.476266" lon="-5.134452">
        <ele>465.9</ele>
        <time>1970-01-01T00:00:00Z</time>
      </trkpt>
      <trkpt lat="39.475967" lon="-5.134009">
        <ele>464.7</ele>
        <time>1970-01-01T00:00:00Z</time>
      </trkpt>
      <trkpt lat="39.475967" lon="-5.134009">
        <ele>464.7</ele>
        <time>1970-01-01T00:00:00Z</time>
      </trkpt>
      <trkpt lat="39.475967" lon="-5.134009">
        <ele>464.7</ele>
        <time>1970-01-01T00:00:00Z</time>
      </trkpt>
      <trkpt lat="39.475967" lon="-5.134009">
        <ele>464.7</ele>
        <time>1970-01-01T00:00:00Z</time>
      </trkpt>
      <trkpt lat="39.475815" lon="-5.133866">
        <ele>464.7</ele>
        <time>1970-01-01T00:00:00Z</time>
      </trkpt>
      <trkpt lat="39.475815" lon="-5.133866">
        <ele>464.7</ele>
        <time>1970-01-01T00:00:00Z</time>
      </trkpt>
      <trkpt lat="39.475815" lon="-5.133866">
        <ele>464.7</ele>
        <time>1970-01-01T00:00:00Z</time>
      </trkpt>
      <trkpt lat="39.475815" lon="-5.133866">
        <ele>464.7</ele>
        <time>1970-01-01T00:00:00Z</time>
      </trkpt>
      <trkpt lat="39.475765" lon="-5.133810">
        <ele>464.4</ele>
        <time>1970-01-01T00:00:00Z</time>
      </trkpt>
      <trkpt lat="39.475765" lon="-5.133810">
        <ele>464.4</ele>
        <time>1970-01-01T00:00:00Z</time>
      </trkpt>
      <trkpt lat="39.475765" lon="-5.133810">
        <ele>464.4</ele>
        <time>1970-01-01T00:00:00Z</time>
      </trkpt>
      <trkpt lat="39.475765" lon="-5.133810">
        <ele>464.4</ele>
        <time>1970-01-01T00:00:00Z</time>
      </trkpt>
      <trkpt lat="39.475725" lon="-5.133698">
        <ele>463.3</ele>
        <time>1970-01-01T00:00:00Z</time>
      </trkpt>
      <trkpt lat="39.475725" lon="-5.133698">
        <ele>463.3</ele>
        <time>1970-01-01T00:00:00Z</time>
      </trkpt>
      <trkpt lat="39.475725" lon="-5.133698">
        <ele>463.3</ele>
        <time>1970-01-01T00:00:00Z</time>
      </trkpt>
      <trkpt lat="39.475725" lon="-5.133698">
        <ele>463.3</ele>
        <time>1970-01-01T00:00:00Z</time>
      </trkpt>
      <trkpt lat="39.475714" lon="-5.133663">
        <ele>462.9</ele>
        <time>1970-01-01T00:00:00Z</time>
      </trkpt>
      <trkpt lat="39.475714" lon="-5.133663">
        <ele>462.9</ele>
        <time>1970-01-01T00:00:00Z</time>
      </trkpt>
      <trkpt lat="39.475714" lon="-5.133663">
        <ele>462.9</ele>
        <time>1970-01-01T00:00:00Z</time>
      </trkpt>
      <trkpt lat="39.475714" lon="-5.133663">
        <ele>462.9</ele>
        <time>1970-01-01T00:00:00Z</time>
      </trkpt>
      <trkpt lat="39.475702" lon="-5.133623">
        <ele>462.7</ele>
        <time>1970-01-01T00:00:00Z</time>
      </trkpt>
      <trkpt lat="39.475702" lon="-5.133623">
        <ele>462.7</ele>
        <time>1970-01-01T00:00:00Z</time>
      </trkpt>
      <trkpt lat="39.475702" lon="-5.133623">
        <ele>462.7</ele>
        <time>1970-01-01T00:00:00Z</time>
      </trkpt>
      <trkpt lat="39.475702" lon="-5.133623">
        <ele>462.7</ele>
        <time>1970-01-01T00:00:00Z</time>
      </trkpt>
      <trkpt lat="39.475690" lon="-5.133508">
        <ele>462.1</ele>
        <time>1970-01-01T00:00:00Z</time>
      </trkpt>
      <trkpt lat="39.475690" lon="-5.133508">
        <ele>462.1</ele>
        <time>1970-01-01T00:00:00Z</time>
      </trkpt>
      <trkpt lat="39.475690" lon="-5.133508">
        <ele>462.1</ele>
        <time>1970-01-01T00:00:00Z</time>
      </trkpt>
      <trkpt lat="39.475690" lon="-5.133508">
        <ele>462.1</ele>
        <time>1970-01-01T00:00:00Z</time>
      </trkpt>
      <trkpt lat="39.475684" lon="-5.133469">
        <ele>461.8</ele>
        <time>1970-01-01T00:00:00Z</time>
      </trkpt>
      <trkpt lat="39.475684" lon="-5.133469">
        <ele>461.8</ele>
        <time>1970-01-01T00:00:00Z</time>
      </trkpt>
      <trkpt lat="39.475684" lon="-5.133469">
        <ele>461.8</ele>
        <time>1970-01-01T00:00:00Z</time>
      </trkpt>
      <trkpt lat="39.475684" lon="-5.133469">
        <ele>461.8</ele>
        <time>1970-01-01T00:00:00Z</time>
      </trkpt>
      <trkpt lat="39.475679" lon="-5.133424">
        <ele>461.6</ele>
        <time>1970-01-01T00:00:00Z</time>
      </trkpt>
      <trkpt lat="39.475679" lon="-5.133424">
        <ele>461.6</ele>
        <time>1970-01-01T00:00:00Z</time>
      </trkpt>
      <trkpt lat="39.475679" lon="-5.133424">
        <ele>461.6</ele>
        <time>1970-01-01T00:00:00Z</time>
      </trkpt>
      <trkpt lat="39.475679" lon="-5.133424">
        <ele>461.6</ele>
        <time>1970-01-01T00:00:00Z</time>
      </trkpt>
      <trkpt lat="39.475677" lon="-5.133366">
        <ele>461.2</ele>
        <time>1970-01-01T00:00:00Z</time>
      </trkpt>
      <trkpt lat="39.475677" lon="-5.133366">
        <ele>461.2</ele>
        <time>1970-01-01T00:00:00Z</time>
      </trkpt>
      <trkpt lat="39.475677" lon="-5.133366">
        <ele>461.2</ele>
        <time>1970-01-01T00:00:00Z</time>
      </trkpt>
      <trkpt lat="39.475677" lon="-5.133366">
        <ele>461.2</ele>
        <time>1970-01-01T00:00:00Z</time>
      </trkpt>
      <trkpt lat="39.475674" lon="-5.133313">
        <ele>460.9</ele>
        <time>1970-01-01T00:00:00Z</time>
      </trkpt>
      <trkpt lat="39.475674" lon="-5.133313">
        <ele>460.9</ele>
        <time>1970-01-01T00:00:00Z</time>
      </trkpt>
      <trkpt lat="39.475674" lon="-5.133313">
        <ele>460.9</ele>
        <time>1970-01-01T00:00:00Z</time>
      </trkpt>
      <trkpt lat="39.475674" lon="-5.133313">
        <ele>460.9</ele>
        <time>1970-01-01T00:00:00Z</time>
      </trkpt>
      <trkpt lat="39.475672" lon="-5.133263">
        <ele>460.6</ele>
        <time>1970-01-01T00:00:00Z</time>
      </trkpt>
      <trkpt lat="39.475672" lon="-5.133263">
        <ele>460.6</ele>
        <time>1970-01-01T00:00:00Z</time>
      </trkpt>
      <trkpt lat="39.475672" lon="-5.133263">
        <ele>460.6</ele>
        <time>1970-01-01T00:00:00Z</time>
      </trkpt>
      <trkpt lat="39.475672" lon="-5.133263">
        <ele>460.6</ele>
        <time>1970-01-01T00:00:00Z</time>
      </trkpt>
      <trkpt lat="39.475670" lon="-5.133203">
        <ele>460.3</ele>
        <time>1970-01-01T00:00:00Z</time>
      </trkpt>
      <trkpt lat="39.475670" lon="-5.133203">
        <ele>460.3</ele>
        <time>1970-01-01T00:00:00Z</time>
      </trkpt>
      <trkpt lat="39.475670" lon="-5.133203">
        <ele>460.3</ele>
        <time>1970-01-01T00:00:00Z</time>
      </trkpt>
      <trkpt lat="39.475670" lon="-5.133203">
        <ele>460.3</ele>
        <time>1970-01-01T00:00:00Z</time>
      </trkpt>
      <trkpt lat="39.475668" lon="-5.133162">
        <ele>460.0</ele>
        <time>1970-01-01T00:00:00Z</time>
      </trkpt>
      <trkpt lat="39.475668" lon="-5.133162">
        <ele>460.0</ele>
        <time>1970-01-01T00:00:00Z</time>
      </trkpt>
      <trkpt lat="39.475668" lon="-5.133162">
        <ele>460.0</ele>
        <time>1970-01-01T00:00:00Z</time>
      </trkpt>
      <trkpt lat="39.475668" lon="-5.133162">
        <ele>460.0</ele>
        <time>1970-01-01T00:00:00Z</time>
      </trkpt>
      <trkpt lat="39.475662" lon="-5.133078">
        <ele>459.5</ele>
        <time>1970-01-01T00:00:00Z</time>
      </trkpt>
      <trkpt lat="39.475662" lon="-5.133078">
        <ele>459.5</ele>
        <time>1970-01-01T00:00:00Z</time>
      </trkpt>
      <trkpt lat="39.475662" lon="-5.133078">
        <ele>459.5</ele>
        <time>1970-01-01T00:00:00Z</time>
      </trkpt>
      <trkpt lat="39.475662" lon="-5.133078">
        <ele>459.5</ele>
        <time>1970-01-01T00:00:00Z</time>
      </trkpt>
      <trkpt lat="39.475655" lon="-5.133027">
        <ele>459.1</ele>
        <time>1970-01-01T00:00:00Z</time>
      </trkpt>
      <trkpt lat="39.475655" lon="-5.133027">
        <ele>459.1</ele>
        <time>1970-01-01T00:00:00Z</time>
      </trkpt>
      <trkpt lat="39.475655" lon="-5.133027">
        <ele>459.1</ele>
        <time>1970-01-01T00:00:00Z</time>
      </trkpt>
      <trkpt lat="39.475655" lon="-5.133027">
        <ele>459.1</ele>
        <time>1970-01-01T00:00:00Z</time>
      </trkpt>
      <trkpt lat="39.475650" lon="-5.132941">
        <ele>458.7</ele>
        <time>1970-01-01T00:00:00Z</time>
      </trkpt>
      <trkpt lat="39.475650" lon="-5.132941">
        <ele>458.7</ele>
        <time>1970-01-01T00:00:00Z</time>
      </trkpt>
      <trkpt lat="39.475650" lon="-5.132941">
        <ele>458.7</ele>
        <time>1970-01-01T00:00:00Z</time>
      </trkpt>
      <trkpt lat="39.475650" lon="-5.132941">
        <ele>458.7</ele>
        <time>1970-01-01T00:00:00Z</time>
      </trkpt>
      <trkpt lat="39.475630" lon="-5.132815">
        <ele>458.6</ele>
        <time>1970-01-01T00:00:00Z</time>
      </trkpt>
      <trkpt lat="39.475630" lon="-5.132815">
        <ele>458.6</ele>
        <time>1970-01-01T00:00:00Z</time>
      </trkpt>
      <trkpt lat="39.475630" lon="-5.132815">
        <ele>458.6</ele>
        <time>1970-01-01T00:00:00Z</time>
      </trkpt>
      <trkpt lat="39.475630" lon="-5.132815">
        <ele>458.6</ele>
        <time>1970-01-01T00:00:00Z</time>
      </trkpt>
      <trkpt lat="39.475579" lon="-5.132509">
        <ele>457.1</ele>
        <time>1970-01-01T00:00:00Z</time>
      </trkpt>
      <trkpt lat="39.475579" lon="-5.132509">
        <ele>457.1</ele>
        <time>1970-01-01T00:00:00Z</time>
      </trkpt>
      <trkpt lat="39.475579" lon="-5.132509">
        <ele>457.1</ele>
        <time>1970-01-01T00:00:00Z</time>
      </trkpt>
      <trkpt lat="39.475579" lon="-5.132509">
        <ele>457.1</ele>
        <time>1970-01-01T00:00:00Z</time>
      </trkpt>
      <trkpt lat="39.475557" lon="-5.132343">
        <ele>457.2</ele>
        <time>1970-01-01T00:00:00Z</time>
      </trkpt>
      <trkpt lat="39.475557" lon="-5.132343">
        <ele>457.2</ele>
        <time>1970-01-01T00:00:00Z</time>
      </trkpt>
      <trkpt lat="39.475557" lon="-5.132343">
        <ele>457.2</ele>
        <time>1970-01-01T00:00:00Z</time>
      </trkpt>
      <trkpt lat="39.475557" lon="-5.132343">
        <ele>457.2</ele>
        <time>1970-01-01T00:00:00Z</time>
      </trkpt>
      <trkpt lat="39.475543" lon="-5.132266">
        <ele>457.3</ele>
        <time>1970-01-01T00:00:00Z</time>
      </trkpt>
      <trkpt lat="39.475543" lon="-5.132266">
        <ele>457.3</ele>
        <time>1970-01-01T00:00:00Z</time>
      </trkpt>
      <trkpt lat="39.475543" lon="-5.132266">
        <ele>457.3</ele>
        <time>1970-01-01T00:00:00Z</time>
      </trkpt>
      <trkpt lat="39.475543" lon="-5.132266">
        <ele>457.3</ele>
        <time>1970-01-01T00:00:00Z</time>
      </trkpt>
      <trkpt lat="39.475509" lon="-5.132097">
        <ele>457.8</ele>
        <time>1970-01-01T00:00:00Z</time>
      </trkpt>
      <trkpt lat="39.475509" lon="-5.132097">
        <ele>457.8</ele>
        <time>1970-01-01T00:00:00Z</time>
      </trkpt>
      <trkpt lat="39.475509" lon="-5.132097">
        <ele>457.8</ele>
        <time>1970-01-01T00:00:00Z</time>
      </trkpt>
      <trkpt lat="39.475509" lon="-5.132097">
        <ele>457.8</ele>
        <time>1970-01-01T00:00:00Z</time>
      </trkpt>
      <trkpt lat="39.475523" lon="-5.132014">
        <ele>457.8</ele>
        <time>1970-01-01T00:00:00Z</time>
      </trkpt>
      <trkpt lat="39.475523" lon="-5.132014">
        <ele>457.8</ele>
        <time>1970-01-01T00:00:00Z</time>
      </trkpt>
      <trkpt lat="39.475523" lon="-5.132014">
        <ele>457.8</ele>
        <time>1970-01-01T00:00:00Z</time>
      </trkpt>
      <trkpt lat="39.475523" lon="-5.132014">
        <ele>457.8</ele>
        <time>1970-01-01T00:00:00Z</time>
      </trkpt>
      <trkpt lat="39.475579" lon="-5.131879">
        <ele>457.7</ele>
        <time>1970-01-01T00:00:00Z</time>
      </trkpt>
      <trkpt lat="39.475579" lon="-5.131879">
        <ele>457.7</ele>
        <time>1970-01-01T00:00:00Z</time>
      </trkpt>
      <trkpt lat="39.475579" lon="-5.131879">
        <ele>457.7</ele>
        <time>1970-01-01T00:00:00Z</time>
      </trkpt>
      <trkpt lat="39.475579" lon="-5.131879">
        <ele>457.7</ele>
        <time>1970-01-01T00:00:00Z</time>
      </trkpt>
      <trkpt lat="39.475611" lon="-5.131760">
        <ele>458.1</ele>
        <time>1970-01-01T00:00:00Z</time>
      </trkpt>
      <trkpt lat="39.475611" lon="-5.131760">
        <ele>458.1</ele>
        <time>1970-01-01T00:00:00Z</time>
      </trkpt>
      <trkpt lat="39.475611" lon="-5.131760">
        <ele>458.1</ele>
        <time>1970-01-01T00:00:00Z</time>
      </trkpt>
      <trkpt lat="39.475611" lon="-5.131760">
        <ele>458.1</ele>
        <time>1970-01-01T00:00:00Z</time>
      </trkpt>
      <trkpt lat="39.475657" lon="-5.131645">
        <ele>458.5</ele>
        <time>1970-01-01T00:00:00Z</time>
      </trkpt>
      <trkpt lat="39.475657" lon="-5.131645">
        <ele>458.5</ele>
        <time>1970-01-01T00:00:00Z</time>
      </trkpt>
      <trkpt lat="39.475657" lon="-5.131645">
        <ele>458.5</ele>
        <time>1970-01-01T00:00:00Z</time>
      </trkpt>
      <trkpt lat="39.475657" lon="-5.131645">
        <ele>458.5</ele>
        <time>1970-01-01T00:00:00Z</time>
      </trkpt>
      <trkpt lat="39.475702" lon="-5.131538">
        <ele>458.7</ele>
        <time>1970-01-01T00:00:00Z</time>
      </trkpt>
      <trkpt lat="39.475702" lon="-5.131538">
        <ele>458.7</ele>
        <time>1970-01-01T00:00:00Z</time>
      </trkpt>
      <trkpt lat="39.475702" lon="-5.131538">
        <ele>458.7</ele>
        <time>1970-01-01T00:00:00Z</time>
      </trkpt>
      <trkpt lat="39.475702" lon="-5.131538">
        <ele>458.7</ele>
        <time>1970-01-01T00:00:00Z</time>
      </trkpt>
      <trkpt lat="39.475767" lon="-5.131392">
        <ele>459.1</ele>
        <time>1970-01-01T00:00:00Z</time>
      </trkpt>
      <trkpt lat="39.475767" lon="-5.131392">
        <ele>459.1</ele>
        <time>1970-01-01T00:00:00Z</time>
      </trkpt>
      <trkpt lat="39.475767" lon="-5.131392">
        <ele>459.1</ele>
        <time>1970-01-01T00:00:00Z</time>
      </trkpt>
      <trkpt lat="39.475767" lon="-5.131392">
        <ele>459.1</ele>
        <time>1970-01-01T00:00:00Z</time>
      </trkpt>
      <trkpt lat="39.475800" lon="-5.131314">
        <ele>459.5</ele>
        <time>1970-01-01T00:00:00Z</time>
      </trkpt>
      <trkpt lat="39.475800" lon="-5.131314">
        <ele>459.5</ele>
        <time>1970-01-01T00:00:00Z</time>
      </trkpt>
      <trkpt lat="39.475800" lon="-5.131314">
        <ele>459.5</ele>
        <time>1970-01-01T00:00:00Z</time>
      </trkpt>
      <trkpt lat="39.475800" lon="-5.131314">
        <ele>459.5</ele>
        <time>1970-01-01T00:00:00Z</time>
      </trkpt>
      <trkpt lat="39.475834" lon="-5.131230">
        <ele>460.3</ele>
        <time>1970-01-01T00:00:00Z</time>
      </trkpt>
      <trkpt lat="39.475834" lon="-5.131230">
        <ele>460.3</ele>
        <time>1970-01-01T00:00:00Z</time>
      </trkpt>
      <trkpt lat="39.475834" lon="-5.131230">
        <ele>460.3</ele>
        <time>1970-01-01T00:00:00Z</time>
      </trkpt>
      <trkpt lat="39.475834" lon="-5.131230">
        <ele>460.3</ele>
        <time>1970-01-01T00:00:00Z</time>
      </trkpt>
      <trkpt lat="39.475940" lon="-5.131049">
        <ele>461.1</ele>
        <time>1970-01-01T00:00:00Z</time>
      </trkpt>
      <trkpt lat="39.475940" lon="-5.131049">
        <ele>461.1</ele>
        <time>1970-01-01T00:00:00Z</time>
      </trkpt>
      <trkpt lat="39.475940" lon="-5.131049">
        <ele>461.1</ele>
        <time>1970-01-01T00:00:00Z</time>
      </trkpt>
      <trkpt lat="39.475940" lon="-5.131049">
        <ele>461.1</ele>
        <time>1970-01-01T00:00:00Z</time>
      </trkpt>
      <trkpt lat="39.476046" lon="-5.130915">
        <ele>461.5</ele>
        <time>1970-01-01T00:00:00Z</time>
      </trkpt>
      <trkpt lat="39.476046" lon="-5.130915">
        <ele>461.5</ele>
        <time>1970-01-01T00:00:00Z</time>
      </trkpt>
      <trkpt lat="39.476046" lon="-5.130915">
        <ele>461.5</ele>
        <time>1970-01-01T00:00:00Z</time>
      </trkpt>
      <trkpt lat="39.476046" lon="-5.130915">
        <ele>461.5</ele>
        <time>1970-01-01T00:00:00Z</time>
      </trkpt>
      <trkpt lat="39.476138" lon="-5.130839">
        <ele>461.3</ele>
        <time>1970-01-01T00:00:00Z</time>
      </trkpt>
      <trkpt lat="39.476138" lon="-5.130839">
        <ele>461.3</ele>
        <time>1970-01-01T00:00:00Z</time>
      </trkpt>
      <trkpt lat="39.476138" lon="-5.130839">
        <ele>461.3</ele>
        <time>1970-01-01T00:00:00Z</time>
      </trkpt>
      <trkpt lat="39.476138" lon="-5.130839">
        <ele>461.3</ele>
        <time>1970-01-01T00:00:00Z</time>
      </trkpt>
      <trkpt lat="39.476235" lon="-5.130783">
        <ele>460.5</ele>
        <time>1970-01-01T00:00:00Z</time>
      </trkpt>
      <trkpt lat="39.476235" lon="-5.130783">
        <ele>460.5</ele>
        <time>1970-01-01T00:00:00Z</time>
      </trkpt>
      <trkpt lat="39.476235" lon="-5.130783">
        <ele>460.5</ele>
        <time>1970-01-01T00:00:00Z</time>
      </trkpt>
      <trkpt lat="39.476235" lon="-5.130783">
        <ele>460.5</ele>
        <time>1970-01-01T00:00:00Z</time>
      </trkpt>
      <trkpt lat="39.476283" lon="-5.130793">
        <ele>459.6</ele>
        <time>1970-01-01T00:00:00Z</time>
      </trkpt>
      <trkpt lat="39.476283" lon="-5.130793">
        <ele>459.6</ele>
        <time>1970-01-01T00:00:00Z</time>
      </trkpt>
      <trkpt lat="39.476283" lon="-5.130793">
        <ele>459.6</ele>
        <time>1970-01-01T00:00:00Z</time>
      </trkpt>
      <trkpt lat="39.476283" lon="-5.130793">
        <ele>459.6</ele>
        <time>1970-01-01T00:00:00Z</time>
      </trkpt>
      <trkpt lat="39.476365" lon="-5.130870">
        <ele>458.3</ele>
        <time>1970-01-01T00:00:00Z</time>
      </trkpt>
      <trkpt lat="39.476365" lon="-5.130870">
        <ele>458.3</ele>
        <time>1970-01-01T00:00:00Z</time>
      </trkpt>
      <trkpt lat="39.476365" lon="-5.130870">
        <ele>458.3</ele>
        <time>1970-01-01T00:00:00Z</time>
      </trkpt>
      <trkpt lat="39.476365" lon="-5.130870">
        <ele>458.3</ele>
        <time>1970-01-01T00:00:00Z</time>
      </trkpt>
      <trkpt lat="39.476435" lon="-5.130951">
        <ele>457.2</ele>
        <time>1970-01-01T00:00:00Z</time>
      </trkpt>
      <trkpt lat="39.476435" lon="-5.130951">
        <ele>457.2</ele>
        <time>1970-01-01T00:00:00Z</time>
      </trkpt>
      <trkpt lat="39.476435" lon="-5.130951">
        <ele>457.2</ele>
        <time>1970-01-01T00:00:00Z</time>
      </trkpt>
      <trkpt lat="39.476435" lon="-5.130951">
        <ele>457.2</ele>
        <time>1970-01-01T00:00:00Z</time>
      </trkpt>
      <trkpt lat="39.476648" lon="-5.131090">
        <ele>455.5</ele>
        <time>1970-01-01T00:00:00Z</time>
      </trkpt>
      <trkpt lat="39.476648" lon="-5.131090">
        <ele>455.5</ele>
        <time>1970-01-01T00:00:00Z</time>
      </trkpt>
      <trkpt lat="39.476648" lon="-5.131090">
        <ele>455.5</ele>
        <time>1970-01-01T00:00:00Z</time>
      </trkpt>
      <trkpt lat="39.476648" lon="-5.131090">
        <ele>455.5</ele>
        <time>1970-01-01T00:00:00Z</time>
      </trkpt>
      <trkpt lat="39.476730" lon="-5.131150">
        <ele>455.0</ele>
        <time>1970-01-01T00:00:00Z</time>
      </trkpt>
      <trkpt lat="39.476730" lon="-5.131150">
        <ele>455.0</ele>
        <time>1970-01-01T00:00:00Z</time>
      </trkpt>
      <trkpt lat="39.476730" lon="-5.131150">
        <ele>455.0</ele>
        <time>1970-01-01T00:00:00Z</time>
      </trkpt>
      <trkpt lat="39.476730" lon="-5.131150">
        <ele>455.0</ele>
        <time>1970-01-01T00:00:00Z</time>
      </trkpt>
      <trkpt lat="39.476781" lon="-5.131187">
        <ele>455.2</ele>
        <time>1970-01-01T00:00:00Z</time>
      </trkpt>
      <trkpt lat="39.476781" lon="-5.131187">
        <ele>455.2</ele>
        <time>1970-01-01T00:00:00Z</time>
      </trkpt>
      <trkpt lat="39.476781" lon="-5.131187">
        <ele>455.2</ele>
        <time>1970-01-01T00:00:00Z</time>
      </trkpt>
      <trkpt lat="39.476781" lon="-5.131187">
        <ele>455.2</ele>
        <time>1970-01-01T00:00:00Z</time>
      </trkpt>
      <trkpt lat="39.476828" lon="-5.131196">
        <ele>455.4</ele>
        <time>1970-01-01T00:00:00Z</time>
      </trkpt>
      <trkpt lat="39.476828" lon="-5.131196">
        <ele>455.4</ele>
        <time>1970-01-01T00:00:00Z</time>
      </trkpt>
      <trkpt lat="39.476828" lon="-5.131196">
        <ele>455.4</ele>
        <time>1970-01-01T00:00:00Z</time>
      </trkpt>
      <trkpt lat="39.476828" lon="-5.131196">
        <ele>455.4</ele>
        <time>1970-01-01T00:00:00Z</time>
      </trkpt>
      <trkpt lat="39.476897" lon="-5.131142">
        <ele>455.7</ele>
        <time>1970-01-01T00:00:00Z</time>
      </trkpt>
      <trkpt lat="39.476897" lon="-5.131142">
        <ele>455.7</ele>
        <time>1970-01-01T00:00:00Z</time>
      </trkpt>
      <trkpt lat="39.476897" lon="-5.131142">
        <ele>455.7</ele>
        <time>1970-01-01T00:00:00Z</time>
      </trkpt>
      <trkpt lat="39.476897" lon="-5.131142">
        <ele>455.7</ele>
        <time>1970-01-01T00:00:00Z</time>
      </trkpt>
      <trkpt lat="39.476998" lon="-5.131014">
        <ele>455.7</ele>
        <time>1970-01-01T00:00:00Z</time>
      </trkpt>
      <trkpt lat="39.476998" lon="-5.131014">
        <ele>455.7</ele>
        <time>1970-01-01T00:00:00Z</time>
      </trkpt>
      <trkpt lat="39.476998" lon="-5.131014">
        <ele>455.7</ele>
        <time>1970-01-01T00:00:00Z</time>
      </trkpt>
      <trkpt lat="39.476998" lon="-5.131014">
        <ele>455.7</ele>
        <time>1970-01-01T00:00:00Z</time>
      </trkpt>
      <trkpt lat="39.477136" lon="-5.130721">
        <ele>454.5</ele>
        <time>1970-01-01T00:00:00Z</time>
      </trkpt>
      <trkpt lat="39.477136" lon="-5.130721">
        <ele>454.5</ele>
        <time>1970-01-01T00:00:00Z</time>
      </trkpt>
      <trkpt lat="39.477136" lon="-5.130721">
        <ele>454.5</ele>
        <time>1970-01-01T00:00:00Z</time>
      </trkpt>
      <trkpt lat="39.477136" lon="-5.130721">
        <ele>454.5</ele>
        <time>1970-01-01T00:00:00Z</time>
      </trkpt>
      <trkpt lat="39.477215" lon="-5.130545">
        <ele>454.0</ele>
        <time>1970-01-01T00:00:00Z</time>
      </trkpt>
      <trkpt lat="39.477215" lon="-5.130545">
        <ele>454.0</ele>
        <time>1970-01-01T00:00:00Z</time>
      </trkpt>
      <trkpt lat="39.477215" lon="-5.130545">
        <ele>454.0</ele>
        <time>1970-01-01T00:00:00Z</time>
      </trkpt>
      <trkpt lat="39.477215" lon="-5.130545">
        <ele>454.0</ele>
        <time>1970-01-01T00:00:00Z</time>
      </trkpt>
      <trkpt lat="39.477266" lon="-5.130402">
        <ele>453.9</ele>
        <time>1970-01-01T00:00:00Z</time>
      </trkpt>
      <trkpt lat="39.477266" lon="-5.130402">
        <ele>453.9</ele>
        <time>1970-01-01T00:00:00Z</time>
      </trkpt>
      <trkpt lat="39.477266" lon="-5.130402">
        <ele>453.9</ele>
        <time>1970-01-01T00:00:00Z</time>
      </trkpt>
      <trkpt lat="39.477266" lon="-5.130402">
        <ele>453.9</ele>
        <time>1970-01-01T00:00:00Z</time>
      </trkpt>
      <trkpt lat="39.477308" lon="-5.130219">
        <ele>453.1</ele>
        <time>1970-01-01T00:00:00Z</time>
      </trkpt>
      <trkpt lat="39.477308" lon="-5.130219">
        <ele>453.1</ele>
        <time>1970-01-01T00:00:00Z</time>
      </trkpt>
      <trkpt lat="39.477308" lon="-5.130219">
        <ele>453.1</ele>
        <time>1970-01-01T00:00:00Z</time>
      </trkpt>
      <trkpt lat="39.477308" lon="-5.130219">
        <ele>453.1</ele>
        <time>1970-01-01T00:00:00Z</time>
      </trkpt>
      <trkpt lat="39.477381" lon="-5.130052">
        <ele>453.0</ele>
        <time>1970-01-01T00:00:00Z</time>
      </trkpt>
      <trkpt lat="39.477381" lon="-5.130052">
        <ele>453.0</ele>
        <time>1970-01-01T00:00:00Z</time>
      </trkpt>
      <trkpt lat="39.477381" lon="-5.130052">
        <ele>453.0</ele>
        <time>1970-01-01T00:00:00Z</time>
      </trkpt>
      <trkpt lat="39.477381" lon="-5.130052">
        <ele>453.0</ele>
        <time>1970-01-01T00:00:00Z</time>
      </trkpt>
      <trkpt lat="39.477435" lon="-5.129941">
        <ele>452.9</ele>
        <time>1970-01-01T00:00:00Z</time>
      </trkpt>
      <trkpt lat="39.477435" lon="-5.129941">
        <ele>452.9</ele>
        <time>1970-01-01T00:00:00Z</time>
      </trkpt>
      <trkpt lat="39.477435" lon="-5.129941">
        <ele>452.9</ele>
        <time>1970-01-01T00:00:00Z</time>
      </trkpt>
      <trkpt lat="39.477435" lon="-5.129941">
        <ele>452.9</ele>
        <time>1970-01-01T00:00:00Z</time>
      </trkpt>
      <trkpt lat="39.477502" lon="-5.129871">
        <ele>452.8</ele>
        <time>1970-01-01T00:00:00Z</time>
      </trkpt>
      <trkpt lat="39.477502" lon="-5.129871">
        <ele>452.8</ele>
        <time>1970-01-01T00:00:00Z</time>
      </trkpt>
      <trkpt lat="39.477502" lon="-5.129871">
        <ele>452.8</ele>
        <time>1970-01-01T00:00:00Z</time>
      </trkpt>
      <trkpt lat="39.477502" lon="-5.129871">
        <ele>452.8</ele>
        <time>1970-01-01T00:00:00Z</time>
      </trkpt>
      <trkpt lat="39.477542" lon="-5.129811">
        <ele>452.7</ele>
        <time>1970-01-01T00:00:00Z</time>
      </trkpt>
      <trkpt lat="39.477542" lon="-5.129811">
        <ele>452.7</ele>
        <time>1970-01-01T00:00:00Z</time>
      </trkpt>
      <trkpt lat="39.477542" lon="-5.129811">
        <ele>452.7</ele>
        <time>1970-01-01T00:00:00Z</time>
      </trkpt>
      <trkpt lat="39.477542" lon="-5.129811">
        <ele>452.7</ele>
        <time>1970-01-01T00:00:00Z</time>
      </trkpt>
      <trkpt lat="39.477567" lon="-5.129724">
        <ele>452.6</ele>
        <time>1970-01-01T00:00:00Z</time>
      </trkpt>
      <trkpt lat="39.477567" lon="-5.129724">
        <ele>452.6</ele>
        <time>1970-01-01T00:00:00Z</time>
      </trkpt>
      <trkpt lat="39.477567" lon="-5.129724">
        <ele>452.6</ele>
        <time>1970-01-01T00:00:00Z</time>
      </trkpt>
      <trkpt lat="39.477567" lon="-5.129724">
        <ele>452.6</ele>
        <time>1970-01-01T00:00:00Z</time>
      </trkpt>
      <trkpt lat="39.477607" lon="-5.129615">
        <ele>452.8</ele>
        <time>1970-01-01T00:00:00Z</time>
      </trkpt>
      <trkpt lat="39.477607" lon="-5.129615">
        <ele>452.8</ele>
        <time>1970-01-01T00:00:00Z</time>
      </trkpt>
      <trkpt lat="39.477607" lon="-5.129615">
        <ele>452.8</ele>
        <time>1970-01-01T00:00:00Z</time>
      </trkpt>
      <trkpt lat="39.477607" lon="-5.129615">
        <ele>452.8</ele>
        <time>1970-01-01T00:00:00Z</time>
      </trkpt>
      <trkpt lat="39.477647" lon="-5.129499">
        <ele>452.9</ele>
        <time>1970-01-01T00:00:00Z</time>
      </trkpt>
      <trkpt lat="39.477647" lon="-5.129499">
        <ele>452.9</ele>
        <time>1970-01-01T00:00:00Z</time>
      </trkpt>
      <trkpt lat="39.477647" lon="-5.129499">
        <ele>452.9</ele>
        <time>1970-01-01T00:00:00Z</time>
      </trkpt>
      <trkpt lat="39.477647" lon="-5.129499">
        <ele>452.9</ele>
        <time>1970-01-01T00:00:00Z</time>
      </trkpt>
      <trkpt lat="39.477683" lon="-5.129401">
        <ele>453.1</ele>
        <time>1970-01-01T00:00:00Z</time>
      </trkpt>
      <trkpt lat="39.477683" lon="-5.129401">
        <ele>453.1</ele>
        <time>1970-01-01T00:00:00Z</time>
      </trkpt>
      <trkpt lat="39.477683" lon="-5.129401">
        <ele>453.1</ele>
        <time>1970-01-01T00:00:00Z</time>
      </trkpt>
      <trkpt lat="39.477683" lon="-5.129401">
        <ele>453.1</ele>
        <time>1970-01-01T00:00:00Z</time>
      </trkpt>
      <trkpt lat="39.477699" lon="-5.129344">
        <ele>453.2</ele>
        <time>1970-01-01T00:00:00Z</time>
      </trkpt>
      <trkpt lat="39.477699" lon="-5.129344">
        <ele>453.2</ele>
        <time>1970-01-01T00:00:00Z</time>
      </trkpt>
      <trkpt lat="39.477699" lon="-5.129344">
        <ele>453.2</ele>
        <time>1970-01-01T00:00:00Z</time>
      </trkpt>
      <trkpt lat="39.477699" lon="-5.129344">
        <ele>453.2</ele>
        <time>1970-01-01T00:00:00Z</time>
      </trkpt>
      <trkpt lat="39.477794" lon="-5.129018">
        <ele>453.1</ele>
        <time>1970-01-01T00:00:00Z</time>
      </trkpt>
      <trkpt lat="39.477794" lon="-5.129018">
        <ele>453.1</ele>
        <time>1970-01-01T00:00:00Z</time>
      </trkpt>
      <trkpt lat="39.477794" lon="-5.129018">
        <ele>453.1</ele>
        <time>1970-01-01T00:00:00Z</time>
      </trkpt>
      <trkpt lat="39.477794" lon="-5.129018">
        <ele>453.1</ele>
        <time>1970-01-01T00:00:00Z</time>
      </trkpt>
      <trkpt lat="39.477835" lon="-5.128897">
        <ele>453.3</ele>
        <time>1970-01-01T00:00:00Z</time>
      </trkpt>
      <trkpt lat="39.477835" lon="-5.128897">
        <ele>453.3</ele>
        <time>1970-01-01T00:00:00Z</time>
      </trkpt>
      <trkpt lat="39.477835" lon="-5.128897">
        <ele>453.3</ele>
        <time>1970-01-01T00:00:00Z</time>
      </trkpt>
      <trkpt lat="39.477835" lon="-5.128897">
        <ele>453.3</ele>
        <time>1970-01-01T00:00:00Z</time>
      </trkpt>
      <trkpt lat="39.477862" lon="-5.128819">
        <ele>453.6</ele>
        <time>1970-01-01T00:00:00Z</time>
      </trkpt>
      <trkpt lat="39.477862" lon="-5.128819">
        <ele>453.6</ele>
        <time>1970-01-01T00:00:00Z</time>
      </trkpt>
      <trkpt lat="39.477862" lon="-5.128819">
        <ele>453.6</ele>
        <time>1970-01-01T00:00:00Z</time>
      </trkpt>
      <trkpt lat="39.477862" lon="-5.128819">
        <ele>453.6</ele>
        <time>1970-01-01T00:00:00Z</time>
      </trkpt>
      <trkpt lat="39.477959" lon="-5.128454">
        <ele>453.4</ele>
        <time>1970-01-01T00:00:00Z</time>
      </trkpt>
      <trkpt lat="39.477959" lon="-5.128454">
        <ele>453.4</ele>
        <time>1970-01-01T00:00:00Z</time>
      </trkpt>
      <trkpt lat="39.477959" lon="-5.128454">
        <ele>453.4</ele>
        <time>1970-01-01T00:00:00Z</time>
      </trkpt>
      <trkpt lat="39.477959" lon="-5.128454">
        <ele>453.4</ele>
        <time>1970-01-01T00:00:00Z</time>
      </trkpt>
      <trkpt lat="39.478057" lon="-5.128085">
        <ele>454.1</ele>
        <time>1970-01-01T00:00:00Z</time>
      </trkpt>
      <trkpt lat="39.478057" lon="-5.128085">
        <ele>454.1</ele>
        <time>1970-01-01T00:00:00Z</time>
      </trkpt>
      <trkpt lat="39.478057" lon="-5.128085">
        <ele>454.1</ele>
        <time>1970-01-01T00:00:00Z</time>
      </trkpt>
      <trkpt lat="39.478057" lon="-5.128085">
        <ele>454.1</ele>
        <time>1970-01-01T00:00:00Z</time>
      </trkpt>
      <trkpt lat="39.478138" lon="-5.127861">
        <ele>455.1</ele>
        <time>1970-01-01T00:00:00Z</time>
      </trkpt>
      <trkpt lat="39.478138" lon="-5.127861">
        <ele>455.1</ele>
        <time>1970-01-01T00:00:00Z</time>
      </trkpt>
      <trkpt lat="39.478138" lon="-5.127861">
        <ele>455.1</ele>
        <time>1970-01-01T00:00:00Z</time>
      </trkpt>
      <trkpt lat="39.478138" lon="-5.127861">
        <ele>455.1</ele>
        <time>1970-01-01T00:00:00Z</time>
      </trkpt>
      <trkpt lat="39.478269" lon="-5.127575">
        <ele>455.7</ele>
        <time>1970-01-01T00:00:00Z</time>
      </trkpt>
      <trkpt lat="39.478269" lon="-5.127575">
        <ele>455.7</ele>
        <time>1970-01-01T00:00:00Z</time>
      </trkpt>
      <trkpt lat="39.478269" lon="-5.127575">
        <ele>455.7</ele>
        <time>1970-01-01T00:00:00Z</time>
      </trkpt>
      <trkpt lat="39.478269" lon="-5.127575">
        <ele>455.7</ele>
        <time>1970-01-01T00:00:00Z</time>
      </trkpt>
      <trkpt lat="39.478327" lon="-5.127490">
        <ele>456.5</ele>
        <time>1970-01-01T00:00:00Z</time>
      </trkpt>
      <trkpt lat="39.478327" lon="-5.127490">
        <ele>456.5</ele>
        <time>1970-01-01T00:00:00Z</time>
      </trkpt>
      <trkpt lat="39.478327" lon="-5.127490">
        <ele>456.5</ele>
        <time>1970-01-01T00:00:00Z</time>
      </trkpt>
      <trkpt lat="39.478327" lon="-5.127490">
        <ele>456.5</ele>
        <time>1970-01-01T00:00:00Z</time>
      </trkpt>
      <trkpt lat="39.478386" lon="-5.127406">
        <ele>457.4</ele>
        <time>1970-01-01T00:00:00Z</time>
      </trkpt>
      <trkpt lat="39.478386" lon="-5.127406">
        <ele>457.4</ele>
        <time>1970-01-01T00:00:00Z</time>
      </trkpt>
      <trkpt lat="39.478386" lon="-5.127406">
        <ele>457.4</ele>
        <time>1970-01-01T00:00:00Z</time>
      </trkpt>
      <trkpt lat="39.478386" lon="-5.127406">
        <ele>457.4</ele>
        <time>1970-01-01T00:00:00Z</time>
      </trkpt>
      <trkpt lat="39.478442" lon="-5.127358">
        <ele>457.9</ele>
        <time>1970-01-01T00:00:00Z</time>
      </trkpt>
      <trkpt lat="39.478442" lon="-5.127358">
        <ele>457.9</ele>
        <time>1970-01-01T00:00:00Z</time>
      </trkpt>
      <trkpt lat="39.478442" lon="-5.127358">
        <ele>457.9</ele>
        <time>1970-01-01T00:00:00Z</time>
      </trkpt>
      <trkpt lat="39.478442" lon="-5.127358">
        <ele>457.9</ele>
        <time>1970-01-01T00:00:00Z</time>
      </trkpt>
      <trkpt lat="39.478507" lon="-5.127310">
        <ele>458.5</ele>
        <time>1970-01-01T00:00:00Z</time>
      </trkpt>
      <trkpt lat="39.478507" lon="-5.127310">
        <ele>458.5</ele>
        <time>1970-01-01T00:00:00Z</time>
      </trkpt>
      <trkpt lat="39.478507" lon="-5.127310">
        <ele>458.5</ele>
        <time>1970-01-01T00:00:00Z</time>
      </trkpt>
      <trkpt lat="39.478507" lon="-5.127310">
        <ele>458.5</ele>
        <time>1970-01-01T00:00:00Z</time>
      </trkpt>
      <trkpt lat="39.478580" lon="-5.127260">
        <ele>459.3</ele>
        <time>1970-01-01T00:00:00Z</time>
      </trkpt>
      <trkpt lat="39.478580" lon="-5.127260">
        <ele>459.3</ele>
        <time>1970-01-01T00:00:00Z</time>
      </trkpt>
      <trkpt lat="39.478580" lon="-5.127260">
        <ele>459.3</ele>
        <time>1970-01-01T00:00:00Z</time>
      </trkpt>
      <trkpt lat="39.478580" lon="-5.127260">
        <ele>459.3</ele>
        <time>1970-01-01T00:00:00Z</time>
      </trkpt>
      <trkpt lat="39.478747" lon="-5.127179">
        <ele>459.7</ele>
        <time>1970-01-01T00:00:00Z</time>
      </trkpt>
      <trkpt lat="39.478747" lon="-5.127179">
        <ele>459.7</ele>
        <time>1970-01-01T00:00:00Z</time>
      </trkpt>
      <trkpt lat="39.478747" lon="-5.127179">
        <ele>459.7</ele>
        <time>1970-01-01T00:00:00Z</time>
      </trkpt>
      <trkpt lat="39.478747" lon="-5.127179">
        <ele>459.7</ele>
        <time>1970-01-01T00:00:00Z</time>
      </trkpt>
      <trkpt lat="39.478945" lon="-5.127109">
        <ele>460.8</ele>
        <time>1970-01-01T00:00:00Z</time>
      </trkpt>
      <trkpt lat="39.478945" lon="-5.127109">
        <ele>460.8</ele>
        <time>1970-01-01T00:00:00Z</time>
      </trkpt>
      <trkpt lat="39.478945" lon="-5.127109">
        <ele>460.8</ele>
        <time>1970-01-01T00:00:00Z</time>
      </trkpt>
      <trkpt lat="39.478945" lon="-5.127109">
        <ele>460.8</ele>
        <time>1970-01-01T00:00:00Z</time>
      </trkpt>
      <trkpt lat="39.479260" lon="-5.127005">
        <ele>461.5</ele>
        <time>1970-01-01T00:00:00Z</time>
      </trkpt>
      <trkpt lat="39.479260" lon="-5.127005">
        <ele>461.5</ele>
        <time>1970-01-01T00:00:00Z</time>
      </trkpt>
      <trkpt lat="39.479260" lon="-5.127005">
        <ele>461.5</ele>
        <time>1970-01-01T00:00:00Z</time>
      </trkpt>
      <trkpt lat="39.479260" lon="-5.127005">
        <ele>461.5</ele>
        <time>1970-01-01T00:00:00Z</time>
      </trkpt>
      <trkpt lat="39.479358" lon="-5.126984">
        <ele>461.3</ele>
        <time>1970-01-01T00:00:00Z</time>
      </trkpt>
      <trkpt lat="39.479358" lon="-5.126984">
        <ele>461.3</ele>
        <time>1970-01-01T00:00:00Z</time>
      </trkpt>
      <trkpt lat="39.479358" lon="-5.126984">
        <ele>461.3</ele>
        <time>1970-01-01T00:00:00Z</time>
      </trkpt>
      <trkpt lat="39.479358" lon="-5.126984">
        <ele>461.3</ele>
        <time>1970-01-01T00:00:00Z</time>
      </trkpt>
      <trkpt lat="39.479471" lon="-5.126950">
        <ele>461.0</ele>
        <time>1970-01-01T00:00:00Z</time>
      </trkpt>
      <trkpt lat="39.479471" lon="-5.126950">
        <ele>461.0</ele>
        <time>1970-01-01T00:00:00Z</time>
      </trkpt>
      <trkpt lat="39.479471" lon="-5.126950">
        <ele>461.0</ele>
        <time>1970-01-01T00:00:00Z</time>
      </trkpt>
      <trkpt lat="39.479471" lon="-5.126950">
        <ele>461.0</ele>
        <time>1970-01-01T00:00:00Z</time>
      </trkpt>
      <trkpt lat="39.479661" lon="-5.126825">
        <ele>461.0</ele>
        <time>1970-01-01T00:00:00Z</time>
      </trkpt>
      <trkpt lat="39.479661" lon="-5.126825">
        <ele>461.0</ele>
        <time>1970-01-01T00:00:00Z</time>
      </trkpt>
      <trkpt lat="39.479661" lon="-5.126825">
        <ele>461.0</ele>
        <time>1970-01-01T00:00:00Z</time>
      </trkpt>
      <trkpt lat="39.479661" lon="-5.126825">
        <ele>461.0</ele>
        <time>1970-01-01T00:00:00Z</time>
      </trkpt>
      <trkpt lat="39.479963" lon="-5.126709">
        <ele>461.0</ele>
        <time>1970-01-01T00:00:00Z</time>
      </trkpt>
      <trkpt lat="39.479963" lon="-5.126709">
        <ele>461.0</ele>
        <time>1970-01-01T00:00:00Z</time>
      </trkpt>
      <trkpt lat="39.479963" lon="-5.126709">
        <ele>461.0</ele>
        <time>1970-01-01T00:00:00Z</time>
      </trkpt>
      <trkpt lat="39.479963" lon="-5.126709">
        <ele>461.0</ele>
        <time>1970-01-01T00:00:00Z</time>
      </trkpt>
      <trkpt lat="39.480083" lon="-5.126681">
        <ele>460.9</ele>
        <time>1970-01-01T00:00:00Z</time>
      </trkpt>
      <trkpt lat="39.480083" lon="-5.126681">
        <ele>460.9</ele>
        <time>1970-01-01T00:00:00Z</time>
      </trkpt>
      <trkpt lat="39.480083" lon="-5.126681">
        <ele>460.9</ele>
        <time>1970-01-01T00:00:00Z</time>
      </trkpt>
      <trkpt lat="39.480083" lon="-5.126681">
        <ele>460.9</ele>
        <time>1970-01-01T00:00:00Z</time>
      </trkpt>
      <trkpt lat="39.480469" lon="-5.126612">
        <ele>460.6</ele>
        <time>1970-01-01T00:00:00Z</time>
      </trkpt>
      <trkpt lat="39.480469" lon="-5.126612">
        <ele>460.6</ele>
        <time>1970-01-01T00:00:00Z</time>
      </trkpt>
      <trkpt lat="39.480469" lon="-5.126612">
        <ele>460.6</ele>
        <time>1970-01-01T00:00:00Z</time>
      </trkpt>
      <trkpt lat="39.480469" lon="-5.126612">
        <ele>460.6</ele>
        <time>1970-01-01T00:00:00Z</time>
      </trkpt>
      <trkpt lat="39.480947" lon="-5.126522">
        <ele>463.4</ele>
        <time>1970-01-01T00:00:00Z</time>
      </trkpt>
      <trkpt lat="39.480947" lon="-5.126522">
        <ele>463.4</ele>
        <time>1970-01-01T00:00:00Z</time>
      </trkpt>
      <trkpt lat="39.480947" lon="-5.126522">
        <ele>463.4</ele>
        <time>1970-01-01T00:00:00Z</time>
      </trkpt>
      <trkpt lat="39.480947" lon="-5.126522">
        <ele>463.4</ele>
        <time>1970-01-01T00:00:00Z</time>
      </trkpt>
      <trkpt lat="39.481341" lon="-5.126409">
        <ele>466.5</ele>
        <time>1970-01-01T00:00:00Z</time>
      </trkpt>
      <trkpt lat="39.481341" lon="-5.126409">
        <ele>466.5</ele>
        <time>1970-01-01T00:00:00Z</time>
      </trkpt>
      <trkpt lat="39.481341" lon="-5.126409">
        <ele>466.5</ele>
        <time>1970-01-01T00:00:00Z</time>
      </trkpt>
      <trkpt lat="39.481341" lon="-5.126409">
        <ele>466.5</ele>
        <time>1970-01-01T00:00:00Z</time>
      </trkpt>
      <trkpt lat="39.481666" lon="-5.126340">
        <ele>467.7</ele>
        <time>1970-01-01T00:00:00Z</time>
      </trkpt>
      <trkpt lat="39.481666" lon="-5.126340">
        <ele>467.7</ele>
        <time>1970-01-01T00:00:00Z</time>
      </trkpt>
      <trkpt lat="39.481666" lon="-5.126340">
        <ele>467.7</ele>
        <time>1970-01-01T00:00:00Z</time>
      </trkpt>
      <trkpt lat="39.481666" lon="-5.126340">
        <ele>467.7</ele>
        <time>1970-01-01T00:00:00Z</time>
      </trkpt>
      <trkpt lat="39.481882" lon="-5.126236">
        <ele>468.4</ele>
        <time>1970-01-01T00:00:00Z</time>
      </trkpt>
      <trkpt lat="39.481882" lon="-5.126236">
        <ele>468.4</ele>
        <time>1970-01-01T00:00:00Z</time>
      </trkpt>
      <trkpt lat="39.481882" lon="-5.126236">
        <ele>468.4</ele>
        <time>1970-01-01T00:00:00Z</time>
      </trkpt>
      <trkpt lat="39.481882" lon="-5.126236">
        <ele>468.4</ele>
        <time>1970-01-01T00:00:00Z</time>
      </trkpt>
      <trkpt lat="39.481986" lon="-5.126148">
        <ele>468.9</ele>
        <time>1970-01-01T00:00:00Z</time>
      </trkpt>
      <trkpt lat="39.481986" lon="-5.126148">
        <ele>468.9</ele>
        <time>1970-01-01T00:00:00Z</time>
      </trkpt>
      <trkpt lat="39.481986" lon="-5.126148">
        <ele>468.9</ele>
        <time>1970-01-01T00:00:00Z</time>
      </trkpt>
      <trkpt lat="39.481986" lon="-5.126148">
        <ele>468.9</ele>
        <time>1970-01-01T00:00:00Z</time>
      </trkpt>
      <trkpt lat="39.482039" lon="-5.126073">
        <ele>469.1</ele>
        <time>1970-01-01T00:00:00Z</time>
      </trkpt>
      <trkpt lat="39.482039" lon="-5.126073">
        <ele>469.1</ele>
        <time>1970-01-01T00:00:00Z</time>
      </trkpt>
      <trkpt lat="39.482039" lon="-5.126073">
        <ele>469.1</ele>
        <time>1970-01-01T00:00:00Z</time>
      </trkpt>
      <trkpt lat="39.482039" lon="-5.126073">
        <ele>469.1</ele>
        <time>1970-01-01T00:00:00Z</time>
      </trkpt>
      <trkpt lat="39.482072" lon="-5.125951">
        <ele>469.1</ele>
        <time>1970-01-01T00:00:00Z</time>
      </trkpt>
      <trkpt lat="39.482072" lon="-5.125951">
        <ele>469.1</ele>
        <time>1970-01-01T00:00:00Z</time>
      </trkpt>
      <trkpt lat="39.482072" lon="-5.125951">
        <ele>469.1</ele>
        <time>1970-01-01T00:00:00Z</time>
      </trkpt>
      <trkpt lat="39.482072" lon="-5.125951">
        <ele>469.1</ele>
        <time>1970-01-01T00:00:00Z</time>
      </trkpt>
      <trkpt lat="39.482094" lon="-5.125799">
        <ele>469.3</ele>
        <time>1970-01-01T00:00:00Z</time>
      </trkpt>
      <trkpt lat="39.482094" lon="-5.125799">
        <ele>469.3</ele>
        <time>1970-01-01T00:00:00Z</time>
      </trkpt>
      <trkpt lat="39.482094" lon="-5.125799">
        <ele>469.3</ele>
        <time>1970-01-01T00:00:00Z</time>
      </trkpt>
      <trkpt lat="39.482094" lon="-5.125799">
        <ele>469.3</ele>
        <time>1970-01-01T00:00:00Z</time>
      </trkpt>
      <trkpt lat="39.482110" lon="-5.125667">
        <ele>469.5</ele>
        <time>1970-01-01T00:00:00Z</time>
      </trkpt>
      <trkpt lat="39.482110" lon="-5.125667">
        <ele>469.5</ele>
        <time>1970-01-01T00:00:00Z</time>
      </trkpt>
      <trkpt lat="39.482110" lon="-5.125667">
        <ele>469.5</ele>
        <time>1970-01-01T00:00:00Z</time>
      </trkpt>
      <trkpt lat="39.482110" lon="-5.125667">
        <ele>469.5</ele>
        <time>1970-01-01T00:00:00Z</time>
      </trkpt>
      <trkpt lat="39.482137" lon="-5.125611">
        <ele>469.9</ele>
        <time>1970-01-01T00:00:00Z</time>
      </trkpt>
      <trkpt lat="39.482137" lon="-5.125611">
        <ele>469.9</ele>
        <time>1970-01-01T00:00:00Z</time>
      </trkpt>
      <trkpt lat="39.482137" lon="-5.125611">
        <ele>469.9</ele>
        <time>1970-01-01T00:00:00Z</time>
      </trkpt>
      <trkpt lat="39.482137" lon="-5.125611">
        <ele>469.9</ele>
        <time>1970-01-01T00:00:00Z</time>
      </trkpt>
      <trkpt lat="39.482188" lon="-5.125576">
        <ele>470.6</ele>
        <time>1970-01-01T00:00:00Z</time>
      </trkpt>
      <trkpt lat="39.482188" lon="-5.125576">
        <ele>470.6</ele>
        <time>1970-01-01T00:00:00Z</time>
      </trkpt>
      <trkpt lat="39.482188" lon="-5.125576">
        <ele>470.6</ele>
        <time>1970-01-01T00:00:00Z</time>
      </trkpt>
      <trkpt lat="39.482188" lon="-5.125576">
        <ele>470.6</ele>
        <time>1970-01-01T00:00:00Z</time>
      </trkpt>
      <trkpt lat="39.482253" lon="-5.125560">
        <ele>471.5</ele>
        <time>1970-01-01T00:00:00Z</time>
      </trkpt>
      <trkpt lat="39.482253" lon="-5.125560">
        <ele>471.5</ele>
        <time>1970-01-01T00:00:00Z</time>
      </trkpt>
      <trkpt lat="39.482253" lon="-5.125560">
        <ele>471.5</ele>
        <time>1970-01-01T00:00:00Z</time>
      </trkpt>
      <trkpt lat="39.482253" lon="-5.125560">
        <ele>471.5</ele>
        <time>1970-01-01T00:00:00Z</time>
      </trkpt>
      <trkpt lat="39.482547" lon="-5.125510">
        <ele>475.4</ele>
        <time>1970-01-01T00:00:00Z</time>
      </trkpt>
      <trkpt lat="39.482547" lon="-5.125510">
        <ele>475.4</ele>
        <time>1970-01-01T00:00:00Z</time>
      </trkpt>
      <trkpt lat="39.482547" lon="-5.125510">
        <ele>475.4</ele>
        <time>1970-01-01T00:00:00Z</time>
      </trkpt>
      <trkpt lat="39.482547" lon="-5.125510">
        <ele>475.4</ele>
        <time>1970-01-01T00:00:00Z</time>
      </trkpt>
      <trkpt lat="39.482857" lon="-5.125472">
        <ele>475.8</ele>
        <time>1970-01-01T00:00:00Z</time>
      </trkpt>
      <trkpt lat="39.482857" lon="-5.125472">
        <ele>475.8</ele>
        <time>1970-01-01T00:00:00Z</time>
      </trkpt>
      <trkpt lat="39.482857" lon="-5.125472">
        <ele>475.8</ele>
        <time>1970-01-01T00:00:00Z</time>
      </trkpt>
      <trkpt lat="39.482857" lon="-5.125472">
        <ele>475.8</ele>
        <time>1970-01-01T00:00:00Z</time>
      </trkpt>
      <trkpt lat="39.483160" lon="-5.125436">
        <ele>476.1</ele>
        <time>1970-01-01T00:00:00Z</time>
      </trkpt>
      <trkpt lat="39.483160" lon="-5.125436">
        <ele>476.1</ele>
        <time>1970-01-01T00:00:00Z</time>
      </trkpt>
      <trkpt lat="39.483160" lon="-5.125436">
        <ele>476.1</ele>
        <time>1970-01-01T00:00:00Z</time>
      </trkpt>
      <trkpt lat="39.483160" lon="-5.125436">
        <ele>476.1</ele>
        <time>1970-01-01T00:00:00Z</time>
      </trkpt>
      <trkpt lat="39.483264" lon="-5.125415">
        <ele>476.3</ele>
        <time>1970-01-01T00:00:00Z</time>
      </trkpt>
      <trkpt lat="39.483264" lon="-5.125415">
        <ele>476.3</ele>
        <time>1970-01-01T00:00:00Z</time>
      </trkpt>
      <trkpt lat="39.483264" lon="-5.125415">
        <ele>476.3</ele>
        <time>1970-01-01T00:00:00Z</time>
      </trkpt>
      <trkpt lat="39.483264" lon="-5.125415">
        <ele>476.3</ele>
        <time>1970-01-01T00:00:00Z</time>
      </trkpt>
      <trkpt lat="39.483358" lon="-5.125392">
        <ele>476.4</ele>
        <time>1970-01-01T00:00:00Z</time>
      </trkpt>
      <trkpt lat="39.483358" lon="-5.125392">
        <ele>476.4</ele>
        <time>1970-01-01T00:00:00Z</time>
      </trkpt>
      <trkpt lat="39.483358" lon="-5.125392">
        <ele>476.4</ele>
        <time>1970-01-01T00:00:00Z</time>
      </trkpt>
      <trkpt lat="39.483358" lon="-5.125392">
        <ele>476.4</ele>
        <time>1970-01-01T00:00:00Z</time>
      </trkpt>
      <trkpt lat="39.483492" lon="-5.125334">
        <ele>476.5</ele>
        <time>1970-01-01T00:00:00Z</time>
      </trkpt>
      <trkpt lat="39.483492" lon="-5.125334">
        <ele>476.5</ele>
        <time>1970-01-01T00:00:00Z</time>
      </trkpt>
      <trkpt lat="39.483492" lon="-5.125334">
        <ele>476.5</ele>
        <time>1970-01-01T00:00:00Z</time>
      </trkpt>
      <trkpt lat="39.483492" lon="-5.125334">
        <ele>476.5</ele>
        <time>1970-01-01T00:00:00Z</time>
      </trkpt>
      <trkpt lat="39.483863" lon="-5.125113">
        <ele>475.4</ele>
        <time>1970-01-01T00:00:00Z</time>
      </trkpt>
      <trkpt lat="39.483863" lon="-5.125113">
        <ele>475.4</ele>
        <time>1970-01-01T00:00:00Z</time>
      </trkpt>
      <trkpt lat="39.483863" lon="-5.125113">
        <ele>475.4</ele>
        <time>1970-01-01T00:00:00Z</time>
      </trkpt>
      <trkpt lat="39.483863" lon="-5.125113">
        <ele>475.4</ele>
        <time>1970-01-01T00:00:00Z</time>
      </trkpt>
      <trkpt lat="39.484120" lon="-5.124968">
        <ele>475.3</ele>
        <time>1970-01-01T00:00:00Z</time>
      </trkpt>
      <trkpt lat="39.484120" lon="-5.124968">
        <ele>475.3</ele>
        <time>1970-01-01T00:00:00Z</time>
      </trkpt>
      <trkpt lat="39.484120" lon="-5.124968">
        <ele>475.3</ele>
        <time>1970-01-01T00:00:00Z</time>
      </trkpt>
      <trkpt lat="39.484120" lon="-5.124968">
        <ele>475.3</ele>
        <time>1970-01-01T00:00:00Z</time>
      </trkpt>
      <trkpt lat="39.484283" lon="-5.124854">
        <ele>475.4</ele>
        <time>1970-01-01T00:00:00Z</time>
      </trkpt>
      <trkpt lat="39.484283" lon="-5.124854">
        <ele>475.4</ele>
        <time>1970-01-01T00:00:00Z</time>
      </trkpt>
      <trkpt lat="39.484283" lon="-5.124854">
        <ele>475.4</ele>
        <time>1970-01-01T00:00:00Z</time>
      </trkpt>
      <trkpt lat="39.484283" lon="-5.124854">
        <ele>475.4</ele>
        <time>1970-01-01T00:00:00Z</time>
      </trkpt>
      <trkpt lat="39.484399" lon="-5.124718">
        <ele>475.5</ele>
        <time>1970-01-01T00:00:00Z</time>
      </trkpt>
      <trkpt lat="39.484399" lon="-5.124718">
        <ele>475.5</ele>
        <time>1970-01-01T00:00:00Z</time>
      </trkpt>
      <trkpt lat="39.484399" lon="-5.124718">
        <ele>475.5</ele>
        <time>1970-01-01T00:00:00Z</time>
      </trkpt>
      <trkpt lat="39.484399" lon="-5.124718">
        <ele>475.5</ele>
        <time>1970-01-01T00:00:00Z</time>
      </trkpt>
      <trkpt lat="39.484515" lon="-5.124521">
        <ele>475.7</ele>
        <time>1970-01-01T00:00:00Z</time>
      </trkpt>
      <trkpt lat="39.484515" lon="-5.124521">
        <ele>475.7</ele>
        <time>1970-01-01T00:00:00Z</time>
      </trkpt>
      <trkpt lat="39.484515" lon="-5.124521">
        <ele>475.7</ele>
        <time>1970-01-01T00:00:00Z</time>
      </trkpt>
      <trkpt lat="39.484515" lon="-5.124521">
        <ele>475.7</ele>
        <time>1970-01-01T00:00:00Z</time>
      </trkpt>
      <trkpt lat="39.484593" lon="-5.124330">
        <ele>476.7</ele>
        <time>1970-01-01T00:00:00Z</time>
      </trkpt>
      <trkpt lat="39.484593" lon="-5.124330">
        <ele>476.7</ele>
        <time>1970-01-01T00:00:00Z</time>
      </trkpt>
      <trkpt lat="39.484593" lon="-5.124330">
        <ele>476.7</ele>
        <time>1970-01-01T00:00:00Z</time>
      </trkpt>
      <trkpt lat="39.484593" lon="-5.124330">
        <ele>476.7</ele>
        <time>1970-01-01T00:00:00Z</time>
      </trkpt>
      <trkpt lat="39.484647" lon="-5.124194">
        <ele>477.4</ele>
        <time>1970-01-01T00:00:00Z</time>
      </trkpt>
      <trkpt lat="39.484647" lon="-5.124194">
        <ele>477.4</ele>
        <time>1970-01-01T00:00:00Z</time>
      </trkpt>
      <trkpt lat="39.484647" lon="-5.124194">
        <ele>477.4</ele>
        <time>1970-01-01T00:00:00Z</time>
      </trkpt>
      <trkpt lat="39.484647" lon="-5.124194">
        <ele>477.4</ele>
        <time>1970-01-01T00:00:00Z</time>
      </trkpt>
      <trkpt lat="39.484758" lon="-5.124064">
        <ele>477.3</ele>
        <time>1970-01-01T00:00:00Z</time>
      </trkpt>
      <trkpt lat="39.484758" lon="-5.124064">
        <ele>477.3</ele>
        <time>1970-01-01T00:00:00Z</time>
      </trkpt>
      <trkpt lat="39.484758" lon="-5.124064">
        <ele>477.3</ele>
        <time>1970-01-01T00:00:00Z</time>
      </trkpt>
      <trkpt lat="39.484758" lon="-5.124064">
        <ele>477.3</ele>
        <time>1970-01-01T00:00:00Z</time>
      </trkpt>
      <trkpt lat="39.485037" lon="-5.123728">
        <ele>477.2</ele>
        <time>1970-01-01T00:00:00Z</time>
      </trkpt>
      <trkpt lat="39.485037" lon="-5.123728">
        <ele>477.2</ele>
        <time>1970-01-01T00:00:00Z</time>
      </trkpt>
      <trkpt lat="39.485037" lon="-5.123728">
        <ele>477.2</ele>
        <time>1970-01-01T00:00:00Z</time>
      </trkpt>
      <trkpt lat="39.485037" lon="-5.123728">
        <ele>477.2</ele>
        <time>1970-01-01T00:00:00Z</time>
      </trkpt>
      <trkpt lat="39.485111" lon="-5.123652">
        <ele>477.0</ele>
        <time>1970-01-01T00:00:00Z</time>
      </trkpt>
      <trkpt lat="39.485111" lon="-5.123652">
        <ele>477.0</ele>
        <time>1970-01-01T00:00:00Z</time>
      </trkpt>
      <trkpt lat="39.485111" lon="-5.123652">
        <ele>477.0</ele>
        <time>1970-01-01T00:00:00Z</time>
      </trkpt>
      <trkpt lat="39.485111" lon="-5.123652">
        <ele>477.0</ele>
        <time>1970-01-01T00:00:00Z</time>
      </trkpt>
      <trkpt lat="39.485343" lon="-5.123424">
        <ele>477.2</ele>
        <time>1970-01-01T00:00:00Z</time>
      </trkpt>
      <trkpt lat="39.485343" lon="-5.123424">
        <ele>477.2</ele>
        <time>1970-01-01T00:00:00Z</time>
      </trkpt>
      <trkpt lat="39.485343" lon="-5.123424">
        <ele>477.2</ele>
        <time>1970-01-01T00:00:00Z</time>
      </trkpt>
      <trkpt lat="39.485343" lon="-5.123424">
        <ele>477.2</ele>
        <time>1970-01-01T00:00:00Z</time>
      </trkpt>
      <trkpt lat="39.485596" lon="-5.123252">
        <ele>478.2</ele>
        <time>1970-01-01T00:00:00Z</time>
      </trkpt>
      <trkpt lat="39.485596" lon="-5.123252">
        <ele>478.2</ele>
        <time>1970-01-01T00:00:00Z</time>
      </trkpt>
      <trkpt lat="39.485596" lon="-5.123252">
        <ele>478.2</ele>
        <time>1970-01-01T00:00:00Z</time>
      </trkpt>
      <trkpt lat="39.485596" lon="-5.123252">
        <ele>478.2</ele>
        <time>1970-01-01T00:00:00Z</time>
      </trkpt>
      <trkpt lat="39.485747" lon="-5.123197">
        <ele>479.1</ele>
        <time>1970-01-01T00:00:00Z</time>
      </trkpt>
      <trkpt lat="39.485747" lon="-5.123197">
        <ele>479.1</ele>
        <time>1970-01-01T00:00:00Z</time>
      </trkpt>
      <trkpt lat="39.485747" lon="-5.123197">
        <ele>479.1</ele>
        <time>1970-01-01T00:00:00Z</time>
      </trkpt>
      <trkpt lat="39.485747" lon="-5.123197">
        <ele>479.1</ele>
        <time>1970-01-01T00:00:00Z</time>
      </trkpt>
      <trkpt lat="39.485810" lon="-5.123183">
        <ele>479.4</ele>
        <time>1970-01-01T00:00:00Z</time>
      </trkpt>
      <trkpt lat="39.485810" lon="-5.123183">
        <ele>479.4</ele>
        <time>1970-01-01T00:00:00Z</time>
      </trkpt>
      <trkpt lat="39.485810" lon="-5.123183">
        <ele>479.4</ele>
        <time>1970-01-01T00:00:00Z</time>
      </trkpt>
      <trkpt lat="39.485810" lon="-5.123183">
        <ele>479.4</ele>
        <time>1970-01-01T00:00:00Z</time>
      </trkpt>
      <trkpt lat="39.485870" lon="-5.123138">
        <ele>479.7</ele>
        <time>1970-01-01T00:00:00Z</time>
      </trkpt>
      <trkpt lat="39.485870" lon="-5.123138">
        <ele>479.7</ele>
        <time>1970-01-01T00:00:00Z</time>
      </trkpt>
      <trkpt lat="39.485870" lon="-5.123138">
        <ele>479.7</ele>
        <time>1970-01-01T00:00:00Z</time>
      </trkpt>
      <trkpt lat="39.485870" lon="-5.123138">
        <ele>479.7</ele>
        <time>1970-01-01T00:00:00Z</time>
      </trkpt>
      <trkpt lat="39.486068" lon="-5.122847">
        <ele>481.1</ele>
        <time>1970-01-01T00:00:00Z</time>
      </trkpt>
      <trkpt lat="39.486068" lon="-5.122847">
        <ele>481.1</ele>
        <time>1970-01-01T00:00:00Z</time>
      </trkpt>
      <trkpt lat="39.486068" lon="-5.122847">
        <ele>481.1</ele>
        <time>1970-01-01T00:00:00Z</time>
      </trkpt>
      <trkpt lat="39.486068" lon="-5.122847">
        <ele>481.1</ele>
        <time>1970-01-01T00:00:00Z</time>
      </trkpt>
      <trkpt lat="39.486206" lon="-5.122597">
        <ele>482.7</ele>
        <time>1970-01-01T00:00:00Z</time>
      </trkpt>
      <trkpt lat="39.486206" lon="-5.122597">
        <ele>482.7</ele>
        <time>1970-01-01T00:00:00Z</time>
      </trkpt>
      <trkpt lat="39.486206" lon="-5.122597">
        <ele>482.7</ele>
        <time>1970-01-01T00:00:00Z</time>
      </trkpt>
      <trkpt lat="39.486206" lon="-5.122597">
        <ele>482.7</ele>
        <time>1970-01-01T00:00:00Z</time>
      </trkpt>
      <trkpt lat="39.486282" lon="-5.122491">
        <ele>483.5</ele>
        <time>1970-01-01T00:00:00Z</time>
      </trkpt>
      <trkpt lat="39.486282" lon="-5.122491">
        <ele>483.5</ele>
        <time>1970-01-01T00:00:00Z</time>
      </trkpt>
      <trkpt lat="39.486282" lon="-5.122491">
        <ele>483.5</ele>
        <time>1970-01-01T00:00:00Z</time>
      </trkpt>
      <trkpt lat="39.486282" lon="-5.122491">
        <ele>483.5</ele>
        <time>1970-01-01T00:00:00Z</time>
      </trkpt>
      <trkpt lat="39.486346" lon="-5.122424">
        <ele>484.0</ele>
        <time>1970-01-01T00:00:00Z</time>
      </trkpt>
      <trkpt lat="39.486346" lon="-5.122424">
        <ele>484.0</ele>
        <time>1970-01-01T00:00:00Z</time>
      </trkpt>
      <trkpt lat="39.486346" lon="-5.122424">
        <ele>484.0</ele>
        <time>1970-01-01T00:00:00Z</time>
      </trkpt>
      <trkpt lat="39.486346" lon="-5.122424">
        <ele>484.0</ele>
        <time>1970-01-01T00:00:00Z</time>
      </trkpt>
      <trkpt lat="39.486464" lon="-5.122377">
        <ele>484.8</ele>
        <time>1970-01-01T00:00:00Z</time>
      </trkpt>
      <trkpt lat="39.486464" lon="-5.122377">
        <ele>484.8</ele>
        <time>1970-01-01T00:00:00Z</time>
      </trkpt>
      <trkpt lat="39.486464" lon="-5.122377">
        <ele>484.8</ele>
        <time>1970-01-01T00:00:00Z</time>
      </trkpt>
      <trkpt lat="39.486464" lon="-5.122377">
        <ele>484.8</ele>
        <time>1970-01-01T00:00:00Z</time>
      </trkpt>
      <trkpt lat="39.486598" lon="-5.122349">
        <ele>485.5</ele>
        <time>1970-01-01T00:00:00Z</time>
      </trkpt>
      <trkpt lat="39.486598" lon="-5.122349">
        <ele>485.5</ele>
        <time>1970-01-01T00:00:00Z</time>
      </trkpt>
      <trkpt lat="39.486598" lon="-5.122349">
        <ele>485.5</ele>
        <time>1970-01-01T00:00:00Z</time>
      </trkpt>
      <trkpt lat="39.486598" lon="-5.122349">
        <ele>485.5</ele>
        <time>1970-01-01T00:00:00Z</time>
      </trkpt>
      <trkpt lat="39.486684" lon="-5.122326">
        <ele>485.9</ele>
        <time>1970-01-01T00:00:00Z</time>
      </trkpt>
      <trkpt lat="39.486684" lon="-5.122326">
        <ele>485.9</ele>
        <time>1970-01-01T00:00:00Z</time>
      </trkpt>
      <trkpt lat="39.486684" lon="-5.122326">
        <ele>485.9</ele>
        <time>1970-01-01T00:00:00Z</time>
      </trkpt>
      <trkpt lat="39.486684" lon="-5.122326">
        <ele>485.9</ele>
        <time>1970-01-01T00:00:00Z</time>
      </trkpt>
      <trkpt lat="39.486767" lon="-5.122282">
        <ele>486.4</ele>
        <time>1970-01-01T00:00:00Z</time>
      </trkpt>
      <trkpt lat="39.486767" lon="-5.122282">
        <ele>486.4</ele>
        <time>1970-01-01T00:00:00Z</time>
      </trkpt>
      <trkpt lat="39.486767" lon="-5.122282">
        <ele>486.4</ele>
        <time>1970-01-01T00:00:00Z</time>
      </trkpt>
      <trkpt lat="39.486767" lon="-5.122282">
        <ele>486.4</ele>
        <time>1970-01-01T00:00:00Z</time>
      </trkpt>
      <trkpt lat="39.486822" lon="-5.122168">
        <ele>486.8</ele>
        <time>1970-01-01T00:00:00Z</time>
      </trkpt>
      <trkpt lat="39.486822" lon="-5.122168">
        <ele>486.8</ele>
        <time>1970-01-01T00:00:00Z</time>
      </trkpt>
      <trkpt lat="39.486822" lon="-5.122168">
        <ele>486.8</ele>
        <time>1970-01-01T00:00:00Z</time>
      </trkpt>
      <trkpt lat="39.486822" lon="-5.122168">
        <ele>486.8</ele>
        <time>1970-01-01T00:00:00Z</time>
      </trkpt>
      <trkpt lat="39.486916" lon="-5.121932">
        <ele>487.0</ele>
        <time>1970-01-01T00:00:00Z</time>
      </trkpt>
      <trkpt lat="39.486916" lon="-5.121932">
        <ele>487.0</ele>
        <time>1970-01-01T00:00:00Z</time>
      </trkpt>
      <trkpt lat="39.486916" lon="-5.121932">
        <ele>487.0</ele>
        <time>1970-01-01T00:00:00Z</time>
      </trkpt>
      <trkpt lat="39.486916" lon="-5.121932">
        <ele>487.0</ele>
        <time>1970-01-01T00:00:00Z</time>
      </trkpt>
      <trkpt lat="39.486965" lon="-5.121855">
        <ele>487.2</ele>
        <time>1970-01-01T00:00:00Z</time>
      </trkpt>
      <trkpt lat="39.486965" lon="-5.121855">
        <ele>487.2</ele>
        <time>1970-01-01T00:00:00Z</time>
      </trkpt>
      <trkpt lat="39.486965" lon="-5.121855">
        <ele>487.2</ele>
        <time>1970-01-01T00:00:00Z</time>
      </trkpt>
      <trkpt lat="39.486965" lon="-5.121855">
        <ele>487.2</ele>
        <time>1970-01-01T00:00:00Z</time>
      </trkpt>
      <trkpt lat="39.487082" lon="-5.121694">
        <ele>487.7</ele>
        <time>1970-01-01T00:00:00Z</time>
      </trkpt>
      <trkpt lat="39.487082" lon="-5.121694">
        <ele>487.7</ele>
        <time>1970-01-01T00:00:00Z</time>
      </trkpt>
      <trkpt lat="39.487082" lon="-5.121694">
        <ele>487.7</ele>
        <time>1970-01-01T00:00:00Z</time>
      </trkpt>
      <trkpt lat="39.487082" lon="-5.121694">
        <ele>487.7</ele>
        <time>1970-01-01T00:00:00Z</time>
      </trkpt>
      <trkpt lat="39.487127" lon="-5.121641">
        <ele>487.9</ele>
        <time>1970-01-01T00:00:00Z</time>
      </trkpt>
      <trkpt lat="39.487127" lon="-5.121641">
        <ele>487.9</ele>
        <time>1970-01-01T00:00:00Z</time>
      </trkpt>
      <trkpt lat="39.487127" lon="-5.121641">
        <ele>487.9</ele>
        <time>1970-01-01T00:00:00Z</time>
      </trkpt>
      <trkpt lat="39.487127" lon="-5.121641">
        <ele>487.9</ele>
        <time>1970-01-01T00:00:00Z</time>
      </trkpt>
      <trkpt lat="39.487225" lon="-5.121587">
        <ele>488.5</ele>
        <time>1970-01-01T00:00:00Z</time>
      </trkpt>
      <trkpt lat="39.487225" lon="-5.121587">
        <ele>488.5</ele>
        <time>1970-01-01T00:00:00Z</time>
      </trkpt>
      <trkpt lat="39.487225" lon="-5.121587">
        <ele>488.5</ele>
        <time>1970-01-01T00:00:00Z</time>
      </trkpt>
      <trkpt lat="39.487225" lon="-5.121587">
        <ele>488.5</ele>
        <time>1970-01-01T00:00:00Z</time>
      </trkpt>
      <trkpt lat="39.487536" lon="-5.121508">
        <ele>490.5</ele>
        <time>1970-01-01T00:00:00Z</time>
      </trkpt>
      <trkpt lat="39.487536" lon="-5.121508">
        <ele>490.5</ele>
        <time>1970-01-01T00:00:00Z</time>
      </trkpt>
      <trkpt lat="39.487536" lon="-5.121508">
        <ele>490.5</ele>
        <time>1970-01-01T00:00:00Z</time>
      </trkpt>
      <trkpt lat="39.487536" lon="-5.121508">
        <ele>490.5</ele>
        <time>1970-01-01T00:00:00Z</time>
      </trkpt>
      <trkpt lat="39.487783" lon="-5.121466">
        <ele>491.7</ele>
        <time>1970-01-01T00:00:00Z</time>
      </trkpt>
      <trkpt lat="39.487783" lon="-5.121466">
        <ele>491.7</ele>
        <time>1970-01-01T00:00:00Z</time>
      </trkpt>
      <trkpt lat="39.487783" lon="-5.121466">
        <ele>491.7</ele>
        <time>1970-01-01T00:00:00Z</time>
      </trkpt>
      <trkpt lat="39.487783" lon="-5.121466">
        <ele>491.7</ele>
        <time>1970-01-01T00:00:00Z</time>
      </trkpt>
      <trkpt lat="39.487967" lon="-5.121442">
        <ele>492.0</ele>
        <time>1970-01-01T00:00:00Z</time>
      </trkpt>
      <trkpt lat="39.487967" lon="-5.121442">
        <ele>492.0</ele>
        <time>1970-01-01T00:00:00Z</time>
      </trkpt>
      <trkpt lat="39.487967" lon="-5.121442">
        <ele>492.0</ele>
        <time>1970-01-01T00:00:00Z</time>
      </trkpt>
      <trkpt lat="39.487967" lon="-5.121442">
        <ele>492.0</ele>
        <time>1970-01-01T00:00:00Z</time>
      </trkpt>
      <trkpt lat="39.488125" lon="-5.121450">
        <ele>492.0</ele>
        <time>1970-01-01T00:00:00Z</time>
      </trkpt>
      <trkpt lat="39.488125" lon="-5.121450">
        <ele>492.0</ele>
        <time>1970-01-01T00:00:00Z</time>
      </trkpt>
      <trkpt lat="39.488125" lon="-5.121450">
        <ele>492.0</ele>
        <time>1970-01-01T00:00:00Z</time>
      </trkpt>
      <trkpt lat="39.488125" lon="-5.121450">
        <ele>492.0</ele>
        <time>1970-01-01T00:00:00Z</time>
      </trkpt>
      <trkpt lat="39.488389" lon="-5.121495">
        <ele>492.3</ele>
        <time>1970-01-01T00:00:00Z</time>
      </trkpt>
      <trkpt lat="39.488389" lon="-5.121495">
        <ele>492.3</ele>
        <time>1970-01-01T00:00:00Z</time>
      </trkpt>
      <trkpt lat="39.488389" lon="-5.121495">
        <ele>492.3</ele>
        <time>1970-01-01T00:00:00Z</time>
      </trkpt>
      <trkpt lat="39.488389" lon="-5.121495">
        <ele>492.3</ele>
        <time>1970-01-01T00:00:00Z</time>
      </trkpt>
      <trkpt lat="39.488636" lon="-5.121495">
        <ele>493.0</ele>
        <time>1970-01-01T00:00:00Z</time>
      </trkpt>
      <trkpt lat="39.488636" lon="-5.121495">
        <ele>493.0</ele>
        <time>1970-01-01T00:00:00Z</time>
      </trkpt>
      <trkpt lat="39.488636" lon="-5.121495">
        <ele>493.0</ele>
        <time>1970-01-01T00:00:00Z</time>
      </trkpt>
      <trkpt lat="39.488636" lon="-5.121495">
        <ele>493.0</ele>
        <time>1970-01-01T00:00:00Z</time>
      </trkpt>
      <trkpt lat="39.488743" lon="-5.121481">
        <ele>493.0</ele>
        <time>1970-01-01T00:00:00Z</time>
      </trkpt>
      <trkpt lat="39.488743" lon="-5.121481">
        <ele>493.0</ele>
        <time>1970-01-01T00:00:00Z</time>
      </trkpt>
      <trkpt lat="39.488743" lon="-5.121481">
        <ele>493.0</ele>
        <time>1970-01-01T00:00:00Z</time>
      </trkpt>
      <trkpt lat="39.488743" lon="-5.121481">
        <ele>493.0</ele>
        <time>1970-01-01T00:00:00Z</time>
      </trkpt>
      <trkpt lat="39.488868" lon="-5.121440">
        <ele>493.1</ele>
        <time>1970-01-01T00:00:00Z</time>
      </trkpt>
      <trkpt lat="39.488868" lon="-5.121440">
        <ele>493.1</ele>
        <time>1970-01-01T00:00:00Z</time>
      </trkpt>
      <trkpt lat="39.488868" lon="-5.121440">
        <ele>493.1</ele>
        <time>1970-01-01T00:00:00Z</time>
      </trkpt>
      <trkpt lat="39.488868" lon="-5.121440">
        <ele>493.1</ele>
        <time>1970-01-01T00:00:00Z</time>
      </trkpt>
      <trkpt lat="39.489101" lon="-5.121317">
        <ele>494.0</ele>
        <time>1970-01-01T00:00:00Z</time>
      </trkpt>
      <trkpt lat="39.489101" lon="-5.121317">
        <ele>494.0</ele>
        <time>1970-01-01T00:00:00Z</time>
      </trkpt>
      <trkpt lat="39.489101" lon="-5.121317">
        <ele>494.0</ele>
        <time>1970-01-01T00:00:00Z</time>
      </trkpt>
      <trkpt lat="39.489101" lon="-5.121317">
        <ele>494.0</ele>
        <time>1970-01-01T00:00:00Z</time>
      </trkpt>
      <trkpt lat="39.489228" lon="-5.121249">
        <ele>494.9</ele>
        <time>1970-01-01T00:00:00Z</time>
      </trkpt>
      <trkpt lat="39.489228" lon="-5.121249">
        <ele>494.9</ele>
        <time>1970-01-01T00:00:00Z</time>
      </trkpt>
      <trkpt lat="39.489228" lon="-5.121249">
        <ele>494.9</ele>
        <time>1970-01-01T00:00:00Z</time>
      </trkpt>
      <trkpt lat="39.489228" lon="-5.121249">
        <ele>494.9</ele>
        <time>1970-01-01T00:00:00Z</time>
      </trkpt>
      <trkpt lat="39.489259" lon="-5.121218">
        <ele>495.2</ele>
        <time>1970-01-01T00:00:00Z</time>
      </trkpt>
      <trkpt lat="39.489259" lon="-5.121218">
        <ele>495.2</ele>
        <time>1970-01-01T00:00:00Z</time>
      </trkpt>
      <trkpt lat="39.489259" lon="-5.121218">
        <ele>495.2</ele>
        <time>1970-01-01T00:00:00Z</time>
      </trkpt>
      <trkpt lat="39.489259" lon="-5.121218">
        <ele>495.2</ele>
        <time>1970-01-01T00:00:00Z</time>
      </trkpt>
      <trkpt lat="39.489316" lon="-5.121149">
        <ele>495.7</ele>
        <time>1970-01-01T00:00:00Z</time>
      </trkpt>
      <trkpt lat="39.489316" lon="-5.121149">
        <ele>495.7</ele>
        <time>1970-01-01T00:00:00Z</time>
      </trkpt>
      <trkpt lat="39.489316" lon="-5.121149">
        <ele>495.7</ele>
        <time>1970-01-01T00:00:00Z</time>
      </trkpt>
      <trkpt lat="39.489316" lon="-5.121149">
        <ele>495.7</ele>
        <time>1970-01-01T00:00:00Z</time>
      </trkpt>
      <trkpt lat="39.489332" lon="-5.121080">
        <ele>496.2</ele>
        <time>1970-01-01T00:00:00Z</time>
      </trkpt>
      <trkpt lat="39.489332" lon="-5.121080">
        <ele>496.2</ele>
        <time>1970-01-01T00:00:00Z</time>
      </trkpt>
      <trkpt lat="39.489332" lon="-5.121080">
        <ele>496.2</ele>
        <time>1970-01-01T00:00:00Z</time>
      </trkpt>
      <trkpt lat="39.489332" lon="-5.121080">
        <ele>496.2</ele>
        <time>1970-01-01T00:00:00Z</time>
      </trkpt>
      <trkpt lat="39.489369" lon="-5.120840">
        <ele>497.5</ele>
        <time>1970-01-01T00:00:00Z</time>
      </trkpt>
      <trkpt lat="39.489369" lon="-5.120840">
        <ele>497.5</ele>
        <time>1970-01-01T00:00:00Z</time>
      </trkpt>
      <trkpt lat="39.489369" lon="-5.120840">
        <ele>497.5</ele>
        <time>1970-01-01T00:00:00Z</time>
      </trkpt>
      <trkpt lat="39.489369" lon="-5.120840">
        <ele>497.5</ele>
        <time>1970-01-01T00:00:00Z</time>
      </trkpt>
      <trkpt lat="39.489389" lon="-5.120696">
        <ele>498.3</ele>
        <time>1970-01-01T00:00:00Z</time>
      </trkpt>
      <trkpt lat="39.489389" lon="-5.120696">
        <ele>498.3</ele>
        <time>1970-01-01T00:00:00Z</time>
      </trkpt>
      <trkpt lat="39.489389" lon="-5.120696">
        <ele>498.3</ele>
        <time>1970-01-01T00:00:00Z</time>
      </trkpt>
      <trkpt lat="39.489389" lon="-5.120696">
        <ele>498.3</ele>
        <time>1970-01-01T00:00:00Z</time>
      </trkpt>
      <trkpt lat="39.489417" lon="-5.120593">
        <ele>499.4</ele>
        <time>1970-01-01T00:00:00Z</time>
      </trkpt>
      <trkpt lat="39.489417" lon="-5.120593">
        <ele>499.4</ele>
        <time>1970-01-01T00:00:00Z</time>
      </trkpt>
      <trkpt lat="39.489417" lon="-5.120593">
        <ele>499.4</ele>
        <time>1970-01-01T00:00:00Z</time>
      </trkpt>
      <trkpt lat="39.489417" lon="-5.120593">
        <ele>499.4</ele>
        <time>1970-01-01T00:00:00Z</time>
      </trkpt>
      <trkpt lat="39.489480" lon="-5.120521">
        <ele>500.6</ele>
        <time>1970-01-01T00:00:00Z</time>
      </trkpt>
      <trkpt lat="39.489480" lon="-5.120521">
        <ele>500.6</ele>
        <time>1970-01-01T00:00:00Z</time>
      </trkpt>
      <trkpt lat="39.489480" lon="-5.120521">
        <ele>500.6</ele>
        <time>1970-01-01T00:00:00Z</time>
      </trkpt>
      <trkpt lat="39.489480" lon="-5.120521">
        <ele>500.6</ele>
        <time>1970-01-01T00:00:00Z</time>
      </trkpt>
      <trkpt lat="39.489568" lon="-5.120477">
        <ele>501.3</ele>
        <time>1970-01-01T00:00:00Z</time>
      </trkpt>
      <trkpt lat="39.489568" lon="-5.120477">
        <ele>501.3</ele>
        <time>1970-01-01T00:00:00Z</time>
      </trkpt>
      <trkpt lat="39.489568" lon="-5.120477">
        <ele>501.3</ele>
        <time>1970-01-01T00:00:00Z</time>
      </trkpt>
      <trkpt lat="39.489568" lon="-5.120477">
        <ele>501.3</ele>
        <time>1970-01-01T00:00:00Z</time>
      </trkpt>
      <trkpt lat="39.489797" lon="-5.120368">
        <ele>503.9</ele>
        <time>1970-01-01T00:00:00Z</time>
      </trkpt>
      <trkpt lat="39.489797" lon="-5.120368">
        <ele>503.9</ele>
        <time>1970-01-01T00:00:00Z</time>
      </trkpt>
      <trkpt lat="39.489797" lon="-5.120368">
        <ele>503.9</ele>
        <time>1970-01-01T00:00:00Z</time>
      </trkpt>
      <trkpt lat="39.489797" lon="-5.120368">
        <ele>503.9</ele>
        <time>1970-01-01T00:00:00Z</time>
      </trkpt>
      <trkpt lat="39.489909" lon="-5.120318">
        <ele>505.1</ele>
        <time>1970-01-01T00:00:00Z</time>
      </trkpt>
      <trkpt lat="39.489909" lon="-5.120318">
        <ele>505.1</ele>
        <time>1970-01-01T00:00:00Z</time>
      </trkpt>
      <trkpt lat="39.489909" lon="-5.120318">
        <ele>505.1</ele>
        <time>1970-01-01T00:00:00Z</time>
      </trkpt>
      <trkpt lat="39.489909" lon="-5.120318">
        <ele>505.1</ele>
        <time>1970-01-01T00:00:00Z</time>
      </trkpt>
      <trkpt lat="39.489953" lon="-5.120267">
        <ele>505.9</ele>
        <time>1970-01-01T00:00:00Z</time>
      </trkpt>
      <trkpt lat="39.489953" lon="-5.120267">
        <ele>505.9</ele>
        <time>1970-01-01T00:00:00Z</time>
      </trkpt>
      <trkpt lat="39.489953" lon="-5.120267">
        <ele>505.9</ele>
        <time>1970-01-01T00:00:00Z</time>
      </trkpt>
      <trkpt lat="39.489953" lon="-5.120267">
        <ele>505.9</ele>
        <time>1970-01-01T00:00:00Z</time>
      </trkpt>
      <trkpt lat="39.490115" lon="-5.120065">
        <ele>509.2</ele>
        <time>1970-01-01T00:00:00Z</time>
      </trkpt>
      <trkpt lat="39.490115" lon="-5.120065">
        <ele>509.2</ele>
        <time>1970-01-01T00:00:00Z</time>
      </trkpt>
      <trkpt lat="39.490115" lon="-5.120065">
        <ele>509.2</ele>
        <time>1970-01-01T00:00:00Z</time>
      </trkpt>
      <trkpt lat="39.490115" lon="-5.120065">
        <ele>509.2</ele>
        <time>1970-01-01T00:00:00Z</time>
      </trkpt>
      <trkpt lat="39.490203" lon="-5.119954">
        <ele>510.7</ele>
        <time>1970-01-01T00:00:00Z</time>
      </trkpt>
      <trkpt lat="39.490203" lon="-5.119954">
        <ele>510.7</ele>
        <time>1970-01-01T00:00:00Z</time>
      </trkpt>
      <trkpt lat="39.490203" lon="-5.119954">
        <ele>510.7</ele>
        <time>1970-01-01T00:00:00Z</time>
      </trkpt>
      <trkpt lat="39.490203" lon="-5.119954">
        <ele>510.7</ele>
        <time>1970-01-01T00:00:00Z</time>
      </trkpt>
      <trkpt lat="39.490259" lon="-5.119872">
        <ele>511.8</ele>
        <time>1970-01-01T00:00:00Z</time>
      </trkpt>
      <trkpt lat="39.490259" lon="-5.119872">
        <ele>511.8</ele>
        <time>1970-01-01T00:00:00Z</time>
      </trkpt>
      <trkpt lat="39.490259" lon="-5.119872">
        <ele>511.8</ele>
        <time>1970-01-01T00:00:00Z</time>
      </trkpt>
      <trkpt lat="39.490259" lon="-5.119872">
        <ele>511.8</ele>
        <time>1970-01-01T00:00:00Z</time>
      </trkpt>
      <trkpt lat="39.490426" lon="-5.119669">
        <ele>514.3</ele>
        <time>1970-01-01T00:00:00Z</time>
      </trkpt>
      <trkpt lat="39.490426" lon="-5.119669">
        <ele>514.3</ele>
        <time>1970-01-01T00:00:00Z</time>
      </trkpt>
      <trkpt lat="39.490426" lon="-5.119669">
        <ele>514.3</ele>
        <time>1970-01-01T00:00:00Z</time>
      </trkpt>
      <trkpt lat="39.490426" lon="-5.119669">
        <ele>514.3</ele>
        <time>1970-01-01T00:00:00Z</time>
      </trkpt>
      <trkpt lat="39.490514" lon="-5.119573">
        <ele>515.5</ele>
        <time>1970-01-01T00:00:00Z</time>
      </trkpt>
      <trkpt lat="39.490514" lon="-5.119573">
        <ele>515.5</ele>
        <time>1970-01-01T00:00:00Z</time>
      </trkpt>
      <trkpt lat="39.490514" lon="-5.119573">
        <ele>515.5</ele>
        <time>1970-01-01T00:00:00Z</time>
      </trkpt>
      <trkpt lat="39.490514" lon="-5.119573">
        <ele>515.5</ele>
        <time>1970-01-01T00:00:00Z</time>
      </trkpt>
      <trkpt lat="39.490593" lon="-5.119466">
        <ele>516.9</ele>
        <time>1970-01-01T00:00:00Z</time>
      </trkpt>
      <trkpt lat="39.490593" lon="-5.119466">
        <ele>516.9</ele>
        <time>1970-01-01T00:00:00Z</time>
      </trkpt>
      <trkpt lat="39.490593" lon="-5.119466">
        <ele>516.9</ele>
        <time>1970-01-01T00:00:00Z</time>
      </trkpt>
      <trkpt lat="39.490593" lon="-5.119466">
        <ele>516.9</ele>
        <time>1970-01-01T00:00:00Z</time>
      </trkpt>
      <trkpt lat="39.490716" lon="-5.119257">
        <ele>520.2</ele>
        <time>1970-01-01T00:00:00Z</time>
      </trkpt>
      <trkpt lat="39.490716" lon="-5.119257">
        <ele>520.2</ele>
        <time>1970-01-01T00:00:00Z</time>
      </trkpt>
      <trkpt lat="39.490716" lon="-5.119257">
        <ele>520.2</ele>
        <time>1970-01-01T00:00:00Z</time>
      </trkpt>
      <trkpt lat="39.490716" lon="-5.119257">
        <ele>520.2</ele>
        <time>1970-01-01T00:00:00Z</time>
      </trkpt>
      <trkpt lat="39.490842" lon="-5.119076">
        <ele>523.9</ele>
        <time>1970-01-01T00:00:00Z</time>
      </trkpt>
      <trkpt lat="39.490842" lon="-5.119076">
        <ele>523.9</ele>
        <time>1970-01-01T00:00:00Z</time>
      </trkpt>
      <trkpt lat="39.490842" lon="-5.119076">
        <ele>523.9</ele>
        <time>1970-01-01T00:00:00Z</time>
      </trkpt>
      <trkpt lat="39.490842" lon="-5.119076">
        <ele>523.9</ele>
        <time>1970-01-01T00:00:00Z</time>
      </trkpt>
      <trkpt lat="39.490967" lon="-5.118863">
        <ele>526.7</ele>
        <time>1970-01-01T00:00:00Z</time>
      </trkpt>
      <trkpt lat="39.490967" lon="-5.118863">
        <ele>526.7</ele>
        <time>1970-01-01T00:00:00Z</time>
      </trkpt>
      <trkpt lat="39.490967" lon="-5.118863">
        <ele>526.7</ele>
        <time>1970-01-01T00:00:00Z</time>
      </trkpt>
      <trkpt lat="39.490967" lon="-5.118863">
        <ele>526.7</ele>
        <time>1970-01-01T00:00:00Z</time>
      </trkpt>
      <trkpt lat="39.491110" lon="-5.118650">
        <ele>530.2</ele>
        <time>1970-01-01T00:00:00Z</time>
      </trkpt>
      <trkpt lat="39.491110" lon="-5.118650">
        <ele>530.2</ele>
        <time>1970-01-01T00:00:00Z</time>
      </trkpt>
      <trkpt lat="39.491110" lon="-5.118650">
        <ele>530.2</ele>
        <time>1970-01-01T00:00:00Z</time>
      </trkpt>
      <trkpt lat="39.491110" lon="-5.118650">
        <ele>530.2</ele>
        <time>1970-01-01T00:00:00Z</time>
      </trkpt>
      <trkpt lat="39.491290" lon="-5.118489">
        <ele>531.4</ele>
        <time>1970-01-01T00:00:00Z</time>
      </trkpt>
      <trkpt lat="39.491290" lon="-5.118489">
        <ele>531.4</ele>
        <time>1970-01-01T00:00:00Z</time>
      </trkpt>
      <trkpt lat="39.491290" lon="-5.118489">
        <ele>531.4</ele>
        <time>1970-01-01T00:00:00Z</time>
      </trkpt>
      <trkpt lat="39.491290" lon="-5.118489">
        <ele>531.4</ele>
        <time>1970-01-01T00:00:00Z</time>
      </trkpt>
      <trkpt lat="39.491487" lon="-5.118298">
        <ele>533.5</ele>
        <time>1970-01-01T00:00:00Z</time>
      </trkpt>
      <trkpt lat="39.491487" lon="-5.118298">
        <ele>533.5</ele>
        <time>1970-01-01T00:00:00Z</time>
      </trkpt>
      <trkpt lat="39.491487" lon="-5.118298">
        <ele>533.5</ele>
        <time>1970-01-01T00:00:00Z</time>
      </trkpt>
      <trkpt lat="39.491487" lon="-5.118298">
        <ele>533.5</ele>
        <time>1970-01-01T00:00:00Z</time>
      </trkpt>
      <trkpt lat="39.491603" lon="-5.118162">
        <ele>534.4</ele>
        <time>1970-01-01T00:00:00Z</time>
      </trkpt>
      <trkpt lat="39.491603" lon="-5.118162">
        <ele>534.4</ele>
        <time>1970-01-01T00:00:00Z</time>
      </trkpt>
      <trkpt lat="39.491603" lon="-5.118162">
        <ele>534.4</ele>
        <time>1970-01-01T00:00:00Z</time>
      </trkpt>
      <trkpt lat="39.491603" lon="-5.118162">
        <ele>534.4</ele>
        <time>1970-01-01T00:00:00Z</time>
      </trkpt>
      <trkpt lat="39.491684" lon="-5.118075">
        <ele>534.7</ele>
        <time>1970-01-01T00:00:00Z</time>
      </trkpt>
      <trkpt lat="39.491684" lon="-5.118075">
        <ele>534.7</ele>
        <time>1970-01-01T00:00:00Z</time>
      </trkpt>
      <trkpt lat="39.491684" lon="-5.118075">
        <ele>534.7</ele>
        <time>1970-01-01T00:00:00Z</time>
      </trkpt>
      <trkpt lat="39.491684" lon="-5.118075">
        <ele>534.7</ele>
        <time>1970-01-01T00:00:00Z</time>
      </trkpt>
      <trkpt lat="39.491801" lon="-5.117971">
        <ele>534.5</ele>
        <time>1970-01-01T00:00:00Z</time>
      </trkpt>
      <trkpt lat="39.491801" lon="-5.117971">
        <ele>534.5</ele>
        <time>1970-01-01T00:00:00Z</time>
      </trkpt>
      <trkpt lat="39.491801" lon="-5.117971">
        <ele>534.5</ele>
        <time>1970-01-01T00:00:00Z</time>
      </trkpt>
      <trkpt lat="39.491801" lon="-5.117971">
        <ele>534.5</ele>
        <time>1970-01-01T00:00:00Z</time>
      </trkpt>
      <trkpt lat="39.491859" lon="-5.117938">
        <ele>534.5</ele>
        <time>1970-01-01T00:00:00Z</time>
      </trkpt>
      <trkpt lat="39.491859" lon="-5.117938">
        <ele>534.5</ele>
        <time>1970-01-01T00:00:00Z</time>
      </trkpt>
      <trkpt lat="39.491859" lon="-5.117938">
        <ele>534.5</ele>
        <time>1970-01-01T00:00:00Z</time>
      </trkpt>
      <trkpt lat="39.491859" lon="-5.117938">
        <ele>534.5</ele>
        <time>1970-01-01T00:00:00Z</time>
      </trkpt>
      <trkpt lat="39.491974" lon="-5.117858">
        <ele>534.5</ele>
        <time>1970-01-01T00:00:00Z</time>
      </trkpt>
      <trkpt lat="39.491974" lon="-5.117858">
        <ele>534.5</ele>
        <time>1970-01-01T00:00:00Z</time>
      </trkpt>
      <trkpt lat="39.491974" lon="-5.117858">
        <ele>534.5</ele>
        <time>1970-01-01T00:00:00Z</time>
      </trkpt>
      <trkpt lat="39.491974" lon="-5.117858">
        <ele>534.5</ele>
        <time>1970-01-01T00:00:00Z</time>
      </trkpt>
      <trkpt lat="39.492003" lon="-5.117829">
        <ele>534.4</ele>
        <time>1970-01-01T00:00:00Z</time>
      </trkpt>
      <trkpt lat="39.492003" lon="-5.117829">
        <ele>534.4</ele>
        <time>1970-01-01T00:00:00Z</time>
      </trkpt>
      <trkpt lat="39.492003" lon="-5.117829">
        <ele>534.4</ele>
        <time>1970-01-01T00:00:00Z</time>
      </trkpt>
      <trkpt lat="39.492003" lon="-5.117829">
        <ele>534.4</ele>
        <time>1970-01-01T00:00:00Z</time>
      </trkpt>
      <trkpt lat="39.492048" lon="-5.117775">
        <ele>534.6</ele>
        <time>1970-01-01T00:00:00Z</time>
      </trkpt>
      <trkpt lat="39.492048" lon="-5.117775">
        <ele>534.6</ele>
        <time>1970-01-01T00:00:00Z</time>
      </trkpt>
      <trkpt lat="39.492048" lon="-5.117775">
        <ele>534.6</ele>
        <time>1970-01-01T00:00:00Z</time>
      </trkpt>
      <trkpt lat="39.492048" lon="-5.117775">
        <ele>534.6</ele>
        <time>1970-01-01T00:00:00Z</time>
      </trkpt>
      <trkpt lat="39.492091" lon="-5.117680">
        <ele>535.0</ele>
        <time>1970-01-01T00:00:00Z</time>
      </trkpt>
      <trkpt lat="39.492091" lon="-5.117680">
        <ele>535.0</ele>
        <time>1970-01-01T00:00:00Z</time>
      </trkpt>
      <trkpt lat="39.492091" lon="-5.117680">
        <ele>535.0</ele>
        <time>1970-01-01T00:00:00Z</time>
      </trkpt>
      <trkpt lat="39.492091" lon="-5.117680">
        <ele>535.0</ele>
        <time>1970-01-01T00:00:00Z</time>
      </trkpt>
      <trkpt lat="39.492118" lon="-5.117578">
        <ele>535.9</ele>
        <time>1970-01-01T00:00:00Z</time>
      </trkpt>
      <trkpt lat="39.492118" lon="-5.117578">
        <ele>535.9</ele>
        <time>1970-01-01T00:00:00Z</time>
      </trkpt>
      <trkpt lat="39.492118" lon="-5.117578">
        <ele>535.9</ele>
        <time>1970-01-01T00:00:00Z</time>
      </trkpt>
      <trkpt lat="39.492118" lon="-5.117578">
        <ele>535.9</ele>
        <time>1970-01-01T00:00:00Z</time>
      </trkpt>
      <trkpt lat="39.492194" lon="-5.117255">
        <ele>537.7</ele>
        <time>1970-01-01T00:00:00Z</time>
      </trkpt>
      <trkpt lat="39.492194" lon="-5.117255">
        <ele>537.7</ele>
        <time>1970-01-01T00:00:00Z</time>
      </trkpt>
      <trkpt lat="39.492194" lon="-5.117255">
        <ele>537.7</ele>
        <time>1970-01-01T00:00:00Z</time>
      </trkpt>
      <trkpt lat="39.492194" lon="-5.117255">
        <ele>537.7</ele>
        <time>1970-01-01T00:00:00Z</time>
      </trkpt>
      <trkpt lat="39.492221" lon="-5.117182">
        <ele>538.1</ele>
        <time>1970-01-01T00:00:00Z</time>
      </trkpt>
      <trkpt lat="39.492221" lon="-5.117182">
        <ele>538.1</ele>
        <time>1970-01-01T00:00:00Z</time>
      </trkpt>
      <trkpt lat="39.492221" lon="-5.117182">
        <ele>538.1</ele>
        <time>1970-01-01T00:00:00Z</time>
      </trkpt>
      <trkpt lat="39.492221" lon="-5.117182">
        <ele>538.1</ele>
        <time>1970-01-01T00:00:00Z</time>
      </trkpt>
      <trkpt lat="39.492302" lon="-5.117106">
        <ele>539.1</ele>
        <time>1970-01-01T00:00:00Z</time>
      </trkpt>
      <trkpt lat="39.492302" lon="-5.117106">
        <ele>539.1</ele>
        <time>1970-01-01T00:00:00Z</time>
      </trkpt>
      <trkpt lat="39.492302" lon="-5.117106">
        <ele>539.1</ele>
        <time>1970-01-01T00:00:00Z</time>
      </trkpt>
      <trkpt lat="39.492302" lon="-5.117106">
        <ele>539.1</ele>
        <time>1970-01-01T00:00:00Z</time>
      </trkpt>
      <trkpt lat="39.492325" lon="-5.117063">
        <ele>539.6</ele>
        <time>1970-01-01T00:00:00Z</time>
      </trkpt>
      <trkpt lat="39.492325" lon="-5.117063">
        <ele>539.6</ele>
        <time>1970-01-01T00:00:00Z</time>
      </trkpt>
      <trkpt lat="39.492325" lon="-5.117063">
        <ele>539.6</ele>
        <time>1970-01-01T00:00:00Z</time>
      </trkpt>
      <trkpt lat="39.492325" lon="-5.117063">
        <ele>539.6</ele>
        <time>1970-01-01T00:00:00Z</time>
      </trkpt>
      <trkpt lat="39.492348" lon="-5.116999">
        <ele>540.3</ele>
        <time>1970-01-01T00:00:00Z</time>
      </trkpt>
      <trkpt lat="39.492348" lon="-5.116999">
        <ele>540.3</ele>
        <time>1970-01-01T00:00:00Z</time>
      </trkpt>
      <trkpt lat="39.492348" lon="-5.116999">
        <ele>540.3</ele>
        <time>1970-01-01T00:00:00Z</time>
      </trkpt>
      <trkpt lat="39.492348" lon="-5.116999">
        <ele>540.3</ele>
        <time>1970-01-01T00:00:00Z</time>
      </trkpt>
      <trkpt lat="39.492365" lon="-5.116914">
        <ele>541.2</ele>
        <time>1970-01-01T00:00:00Z</time>
      </trkpt>
      <trkpt lat="39.492365" lon="-5.116914">
        <ele>541.2</ele>
        <time>1970-01-01T00:00:00Z</time>
      </trkpt>
      <trkpt lat="39.492365" lon="-5.116914">
        <ele>541.2</ele>
        <time>1970-01-01T00:00:00Z</time>
      </trkpt>
      <trkpt lat="39.492365" lon="-5.116914">
        <ele>541.2</ele>
        <time>1970-01-01T00:00:00Z</time>
      </trkpt>
      <trkpt lat="39.492352" lon="-5.116795">
        <ele>542.1</ele>
        <time>1970-01-01T00:00:00Z</time>
      </trkpt>
      <trkpt lat="39.492352" lon="-5.116795">
        <ele>542.1</ele>
        <time>1970-01-01T00:00:00Z</time>
      </trkpt>
      <trkpt lat="39.492352" lon="-5.116795">
        <ele>542.1</ele>
        <time>1970-01-01T00:00:00Z</time>
      </trkpt>
      <trkpt lat="39.492352" lon="-5.116795">
        <ele>542.1</ele>
        <time>1970-01-01T00:00:00Z</time>
      </trkpt>
      <trkpt lat="39.492328" lon="-5.116648">
        <ele>543.0</ele>
        <time>1970-01-01T00:00:00Z</time>
      </trkpt>
      <trkpt lat="39.492328" lon="-5.116648">
        <ele>543.0</ele>
        <time>1970-01-01T00:00:00Z</time>
      </trkpt>
      <trkpt lat="39.492328" lon="-5.116648">
        <ele>543.0</ele>
        <time>1970-01-01T00:00:00Z</time>
      </trkpt>
      <trkpt lat="39.492328" lon="-5.116648">
        <ele>543.0</ele>
        <time>1970-01-01T00:00:00Z</time>
      </trkpt>
      <trkpt lat="39.492267" lon="-5.116428">
        <ele>544.2</ele>
        <time>1970-01-01T00:00:00Z</time>
      </trkpt>
      <trkpt lat="39.492267" lon="-5.116428">
        <ele>544.2</ele>
        <time>1970-01-01T00:00:00Z</time>
      </trkpt>
      <trkpt lat="39.492267" lon="-5.116428">
        <ele>544.2</ele>
        <time>1970-01-01T00:00:00Z</time>
      </trkpt>
      <trkpt lat="39.492267" lon="-5.116428">
        <ele>544.2</ele>
        <time>1970-01-01T00:00:00Z</time>
      </trkpt>
      <trkpt lat="39.492176" lon="-5.116184">
        <ele>546.0</ele>
        <time>1970-01-01T00:00:00Z</time>
      </trkpt>
      <trkpt lat="39.492176" lon="-5.116184">
        <ele>546.0</ele>
        <time>1970-01-01T00:00:00Z</time>
      </trkpt>
      <trkpt lat="39.492176" lon="-5.116184">
        <ele>546.0</ele>
        <time>1970-01-01T00:00:00Z</time>
      </trkpt>
      <trkpt lat="39.492176" lon="-5.116184">
        <ele>546.0</ele>
        <time>1970-01-01T00:00:00Z</time>
      </trkpt>
      <trkpt lat="39.492125" lon="-5.116000">
        <ele>547.5</ele>
        <time>1970-01-01T00:00:00Z</time>
      </trkpt>
      <trkpt lat="39.492125" lon="-5.116000">
        <ele>547.5</ele>
        <time>1970-01-01T00:00:00Z</time>
      </trkpt>
      <trkpt lat="39.492125" lon="-5.116000">
        <ele>547.5</ele>
        <time>1970-01-01T00:00:00Z</time>
      </trkpt>
      <trkpt lat="39.492125" lon="-5.116000">
        <ele>547.5</ele>
        <time>1970-01-01T00:00:00Z</time>
      </trkpt>
      <trkpt lat="39.492091" lon="-5.115822">
        <ele>548.8</ele>
        <time>1970-01-01T00:00:00Z</time>
      </trkpt>
      <trkpt lat="39.492091" lon="-5.115822">
        <ele>548.8</ele>
        <time>1970-01-01T00:00:00Z</time>
      </trkpt>
      <trkpt lat="39.492091" lon="-5.115822">
        <ele>548.8</ele>
        <time>1970-01-01T00:00:00Z</time>
      </trkpt>
      <trkpt lat="39.492091" lon="-5.115822">
        <ele>548.8</ele>
        <time>1970-01-01T00:00:00Z</time>
      </trkpt>
      <trkpt lat="39.492043" lon="-5.115607">
        <ele>551.1</ele>
        <time>1970-01-01T00:00:00Z</time>
      </trkpt>
      <trkpt lat="39.492043" lon="-5.115607">
        <ele>551.1</ele>
        <time>1970-01-01T00:00:00Z</time>
      </trkpt>
      <trkpt lat="39.492043" lon="-5.115607">
        <ele>551.1</ele>
        <time>1970-01-01T00:00:00Z</time>
      </trkpt>
      <trkpt lat="39.492043" lon="-5.115607">
        <ele>551.1</ele>
        <time>1970-01-01T00:00:00Z</time>
      </trkpt>
      <trkpt lat="39.492018" lon="-5.115424">
        <ele>552.6</ele>
        <time>1970-01-01T00:00:00Z</time>
      </trkpt>
      <trkpt lat="39.492018" lon="-5.115424">
        <ele>552.6</ele>
        <time>1970-01-01T00:00:00Z</time>
      </trkpt>
      <trkpt lat="39.492018" lon="-5.115424">
        <ele>552.6</ele>
        <time>1970-01-01T00:00:00Z</time>
      </trkpt>
      <trkpt lat="39.492018" lon="-5.115424">
        <ele>552.6</ele>
        <time>1970-01-01T00:00:00Z</time>
      </trkpt>
      <trkpt lat="39.492002" lon="-5.115240">
        <ele>554.2</ele>
        <time>1970-01-01T00:00:00Z</time>
      </trkpt>
      <trkpt lat="39.492002" lon="-5.115240">
        <ele>554.2</ele>
        <time>1970-01-01T00:00:00Z</time>
      </trkpt>
      <trkpt lat="39.492002" lon="-5.115240">
        <ele>554.2</ele>
        <time>1970-01-01T00:00:00Z</time>
      </trkpt>
      <trkpt lat="39.492002" lon="-5.115240">
        <ele>554.2</ele>
        <time>1970-01-01T00:00:00Z</time>
      </trkpt>
      <trkpt lat="39.491982" lon="-5.115126">
        <ele>555.2</ele>
        <time>1970-01-01T00:00:00Z</time>
      </trkpt>
      <trkpt lat="39.491982" lon="-5.115126">
        <ele>555.2</ele>
        <time>1970-01-01T00:00:00Z</time>
      </trkpt>
      <trkpt lat="39.491982" lon="-5.115126">
        <ele>555.2</ele>
        <time>1970-01-01T00:00:00Z</time>
      </trkpt>
      <trkpt lat="39.491982" lon="-5.115126">
        <ele>555.2</ele>
        <time>1970-01-01T00:00:00Z</time>
      </trkpt>
      <trkpt lat="39.491872" lon="-5.114737">
        <ele>559.0</ele>
        <time>1970-01-01T00:00:00Z</time>
      </trkpt>
      <trkpt lat="39.491872" lon="-5.114737">
        <ele>559.0</ele>
        <time>1970-01-01T00:00:00Z</time>
      </trkpt>
      <trkpt lat="39.491872" lon="-5.114737">
        <ele>559.0</ele>
        <time>1970-01-01T00:00:00Z</time>
      </trkpt>
      <trkpt lat="39.491872" lon="-5.114737">
        <ele>559.0</ele>
        <time>1970-01-01T00:00:00Z</time>
      </trkpt>
      <trkpt lat="39.491808" lon="-5.114472">
        <ele>561.7</ele>
        <time>1970-01-01T00:00:00Z</time>
      </trkpt>
      <trkpt lat="39.491808" lon="-5.114472">
        <ele>561.7</ele>
        <time>1970-01-01T00:00:00Z</time>
      </trkpt>
      <trkpt lat="39.491808" lon="-5.114472">
        <ele>561.7</ele>
        <time>1970-01-01T00:00:00Z</time>
      </trkpt>
      <trkpt lat="39.491808" lon="-5.114472">
        <ele>561.7</ele>
        <time>1970-01-01T00:00:00Z</time>
      </trkpt>
      <trkpt lat="39.491721" lon="-5.114250">
        <ele>564.0</ele>
        <time>1970-01-01T00:00:00Z</time>
      </trkpt>
      <trkpt lat="39.491721" lon="-5.114250">
        <ele>564.0</ele>
        <time>1970-01-01T00:00:00Z</time>
      </trkpt>
      <trkpt lat="39.491721" lon="-5.114250">
        <ele>564.0</ele>
        <time>1970-01-01T00:00:00Z</time>
      </trkpt>
      <trkpt lat="39.491721" lon="-5.114250">
        <ele>564.0</ele>
        <time>1970-01-01T00:00:00Z</time>
      </trkpt>
      <trkpt lat="39.491647" lon="-5.114044">
        <ele>565.0</ele>
        <time>1970-01-01T00:00:00Z</time>
      </trkpt>
      <trkpt lat="39.491647" lon="-5.114044">
        <ele>565.0</ele>
        <time>1970-01-01T00:00:00Z</time>
      </trkpt>
      <trkpt lat="39.491647" lon="-5.114044">
        <ele>565.0</ele>
        <time>1970-01-01T00:00:00Z</time>
      </trkpt>
      <trkpt lat="39.491647" lon="-5.114044">
        <ele>565.0</ele>
        <time>1970-01-01T00:00:00Z</time>
      </trkpt>
      <trkpt lat="39.491585" lon="-5.113771">
        <ele>566.6</ele>
        <time>1970-01-01T00:00:00Z</time>
      </trkpt>
      <trkpt lat="39.491585" lon="-5.113771">
        <ele>566.6</ele>
        <time>1970-01-01T00:00:00Z</time>
      </trkpt>
      <trkpt lat="39.491585" lon="-5.113771">
        <ele>566.6</ele>
        <time>1970-01-01T00:00:00Z</time>
      </trkpt>
      <trkpt lat="39.491585" lon="-5.113771">
        <ele>566.6</ele>
        <time>1970-01-01T00:00:00Z</time>
      </trkpt>
      <trkpt lat="39.491563" lon="-5.113539">
        <ele>567.9</ele>
        <time>1970-01-01T00:00:00Z</time>
      </trkpt>
      <trkpt lat="39.491563" lon="-5.113539">
        <ele>567.9</ele>
        <time>1970-01-01T00:00:00Z</time>
      </trkpt>
      <trkpt lat="39.491563" lon="-5.113539">
        <ele>567.9</ele>
        <time>1970-01-01T00:00:00Z</time>
      </trkpt>
      <trkpt lat="39.491563" lon="-5.113539">
        <ele>567.9</ele>
        <time>1970-01-01T00:00:00Z</time>
      </trkpt>
      <trkpt lat="39.491556" lon="-5.113194">
        <ele>569.4</ele>
        <time>1970-01-01T00:00:00Z</time>
      </trkpt>
      <trkpt lat="39.491556" lon="-5.113194">
        <ele>569.4</ele>
        <time>1970-01-01T00:00:00Z</time>
      </trkpt>
      <trkpt lat="39.491556" lon="-5.113194">
        <ele>569.4</ele>
        <time>1970-01-01T00:00:00Z</time>
      </trkpt>
      <trkpt lat="39.491556" lon="-5.113194">
        <ele>569.4</ele>
        <time>1970-01-01T00:00:00Z</time>
      </trkpt>
      <trkpt lat="39.491562" lon="-5.113047">
        <ele>570.0</ele>
        <time>1970-01-01T00:00:00Z</time>
      </trkpt>
      <trkpt lat="39.491562" lon="-5.113047">
        <ele>570.0</ele>
        <time>1970-01-01T00:00:00Z</time>
      </trkpt>
      <trkpt lat="39.491562" lon="-5.113047">
        <ele>570.0</ele>
        <time>1970-01-01T00:00:00Z</time>
      </trkpt>
      <trkpt lat="39.491562" lon="-5.113047">
        <ele>570.0</ele>
        <time>1970-01-01T00:00:00Z</time>
      </trkpt>
      <trkpt lat="39.491606" lon="-5.112932">
        <ele>570.3</ele>
        <time>1970-01-01T00:00:00Z</time>
      </trkpt>
      <trkpt lat="39.491606" lon="-5.112932">
        <ele>570.3</ele>
        <time>1970-01-01T00:00:00Z</time>
      </trkpt>
      <trkpt lat="39.491606" lon="-5.112932">
        <ele>570.3</ele>
        <time>1970-01-01T00:00:00Z</time>
      </trkpt>
      <trkpt lat="39.491606" lon="-5.112932">
        <ele>570.3</ele>
        <time>1970-01-01T00:00:00Z</time>
      </trkpt>
      <trkpt lat="39.491696" lon="-5.112805">
        <ele>570.5</ele>
        <time>1970-01-01T00:00:00Z</time>
      </trkpt>
      <trkpt lat="39.491696" lon="-5.112805">
        <ele>570.5</ele>
        <time>1970-01-01T00:00:00Z</time>
      </trkpt>
      <trkpt lat="39.491696" lon="-5.112805">
        <ele>570.5</ele>
        <time>1970-01-01T00:00:00Z</time>
      </trkpt>
      <trkpt lat="39.491696" lon="-5.112805">
        <ele>570.5</ele>
        <time>1970-01-01T00:00:00Z</time>
      </trkpt>
      <trkpt lat="39.491811" lon="-5.112699">
        <ele>570.5</ele>
        <time>1970-01-01T00:00:00Z</time>
      </trkpt>
      <trkpt lat="39.491811" lon="-5.112699">
        <ele>570.5</ele>
        <time>1970-01-01T00:00:00Z</time>
      </trkpt>
      <trkpt lat="39.491811" lon="-5.112699">
        <ele>570.5</ele>
        <time>1970-01-01T00:00:00Z</time>
      </trkpt>
      <trkpt lat="39.491811" lon="-5.112699">
        <ele>570.5</ele>
        <time>1970-01-01T00:00:00Z</time>
      </trkpt>
      <trkpt lat="39.491904" lon="-5.112629">
        <ele>570.8</ele>
        <time>1970-01-01T00:00:00Z</time>
      </trkpt>
      <trkpt lat="39.491904" lon="-5.112629">
        <ele>570.8</ele>
        <time>1970-01-01T00:00:00Z</time>
      </trkpt>
      <trkpt lat="39.491904" lon="-5.112629">
        <ele>570.8</ele>
        <time>1970-01-01T00:00:00Z</time>
      </trkpt>
      <trkpt lat="39.491904" lon="-5.112629">
        <ele>570.8</ele>
        <time>1970-01-01T00:00:00Z</time>
      </trkpt>
      <trkpt lat="39.491994" lon="-5.112576">
        <ele>571.0</ele>
        <time>1970-01-01T00:00:00Z</time>
      </trkpt>
      <trkpt lat="39.491994" lon="-5.112576">
        <ele>571.0</ele>
        <time>1970-01-01T00:00:00Z</time>
      </trkpt>
      <trkpt lat="39.491994" lon="-5.112576">
        <ele>571.0</ele>
        <time>1970-01-01T00:00:00Z</time>
      </trkpt>
      <trkpt lat="39.491994" lon="-5.112576">
        <ele>571.0</ele>
        <time>1970-01-01T00:00:00Z</time>
      </trkpt>
      <trkpt lat="39.492082" lon="-5.112509">
        <ele>570.7</ele>
        <time>1970-01-01T00:00:00Z</time>
      </trkpt>
      <trkpt lat="39.492082" lon="-5.112509">
        <ele>570.7</ele>
        <time>1970-01-01T00:00:00Z</time>
      </trkpt>
      <trkpt lat="39.492082" lon="-5.112509">
        <ele>570.7</ele>
        <time>1970-01-01T00:00:00Z</time>
      </trkpt>
      <trkpt lat="39.492082" lon="-5.112509">
        <ele>570.7</ele>
        <time>1970-01-01T00:00:00Z</time>
      </trkpt>
      <trkpt lat="39.492171" lon="-5.112422">
        <ele>570.3</ele>
        <time>1970-01-01T00:00:00Z</time>
      </trkpt>
      <trkpt lat="39.492171" lon="-5.112422">
        <ele>570.3</ele>
        <time>1970-01-01T00:00:00Z</time>
      </trkpt>
      <trkpt lat="39.492171" lon="-5.112422">
        <ele>570.3</ele>
        <time>1970-01-01T00:00:00Z</time>
      </trkpt>
      <trkpt lat="39.492171" lon="-5.112422">
        <ele>570.3</ele>
        <time>1970-01-01T00:00:00Z</time>
      </trkpt>
      <trkpt lat="39.492375" lon="-5.112205">
        <ele>571.9</ele>
        <time>1970-01-01T00:00:00Z</time>
      </trkpt>
      <trkpt lat="39.492375" lon="-5.112205">
        <ele>571.9</ele>
        <time>1970-01-01T00:00:00Z</time>
      </trkpt>
      <trkpt lat="39.492375" lon="-5.112205">
        <ele>571.9</ele>
        <time>1970-01-01T00:00:00Z</time>
      </trkpt>
      <trkpt lat="39.492375" lon="-5.112205">
        <ele>571.9</ele>
        <time>1970-01-01T00:00:00Z</time>
      </trkpt>
      <trkpt lat="39.492436" lon="-5.112141">
        <ele>572.7</ele>
        <time>1970-01-01T00:00:00Z</time>
      </trkpt>
      <trkpt lat="39.492436" lon="-5.112141">
        <ele>572.7</ele>
        <time>1970-01-01T00:00:00Z</time>
      </trkpt>
      <trkpt lat="39.492436" lon="-5.112141">
        <ele>572.7</ele>
        <time>1970-01-01T00:00:00Z</time>
      </trkpt>
      <trkpt lat="39.492436" lon="-5.112141">
        <ele>572.7</ele>
        <time>1970-01-01T00:00:00Z</time>
      </trkpt>
      <trkpt lat="39.492517" lon="-5.112038">
        <ele>574.1</ele>
        <time>1970-01-01T00:00:00Z</time>
      </trkpt>
      <trkpt lat="39.492517" lon="-5.112038">
        <ele>574.1</ele>
        <time>1970-01-01T00:00:00Z</time>
      </trkpt>
      <trkpt lat="39.492517" lon="-5.112038">
        <ele>574.1</ele>
        <time>1970-01-01T00:00:00Z</time>
      </trkpt>
      <trkpt lat="39.492517" lon="-5.112038">
        <ele>574.1</ele>
        <time>1970-01-01T00:00:00Z</time>
      </trkpt>
      <trkpt lat="39.492556" lon="-5.111943">
        <ele>575.3</ele>
        <time>1970-01-01T00:00:00Z</time>
      </trkpt>
      <trkpt lat="39.492556" lon="-5.111943">
        <ele>575.3</ele>
        <time>1970-01-01T00:00:00Z</time>
      </trkpt>
      <trkpt lat="39.492556" lon="-5.111943">
        <ele>575.3</ele>
        <time>1970-01-01T00:00:00Z</time>
      </trkpt>
      <trkpt lat="39.492556" lon="-5.111943">
        <ele>575.3</ele>
        <time>1970-01-01T00:00:00Z</time>
      </trkpt>
      <trkpt lat="39.492605" lon="-5.111742">
        <ele>578.1</ele>
        <time>1970-01-01T00:00:00Z</time>
      </trkpt>
      <trkpt lat="39.492605" lon="-5.111742">
        <ele>578.1</ele>
        <time>1970-01-01T00:00:00Z</time>
      </trkpt>
      <trkpt lat="39.492605" lon="-5.111742">
        <ele>578.1</ele>
        <time>1970-01-01T00:00:00Z</time>
      </trkpt>
      <trkpt lat="39.492605" lon="-5.111742">
        <ele>578.1</ele>
        <time>1970-01-01T00:00:00Z</time>
      </trkpt>
      <trkpt lat="39.492619" lon="-5.111681">
        <ele>579.1</ele>
        <time>1970-01-01T00:00:00Z</time>
      </trkpt>
      <trkpt lat="39.492619" lon="-5.111681">
        <ele>579.1</ele>
        <time>1970-01-01T00:00:00Z</time>
      </trkpt>
      <trkpt lat="39.492619" lon="-5.111681">
        <ele>579.1</ele>
        <time>1970-01-01T00:00:00Z</time>
      </trkpt>
      <trkpt lat="39.492619" lon="-5.111681">
        <ele>579.1</ele>
        <time>1970-01-01T00:00:00Z</time>
      </trkpt>
      <trkpt lat="39.492670" lon="-5.111483">
        <ele>582.1</ele>
        <time>1970-01-01T00:00:00Z</time>
      </trkpt>
      <trkpt lat="39.492670" lon="-5.111483">
        <ele>582.1</ele>
        <time>1970-01-01T00:00:00Z</time>
      </trkpt>
      <trkpt lat="39.492670" lon="-5.111483">
        <ele>582.1</ele>
        <time>1970-01-01T00:00:00Z</time>
      </trkpt>
      <trkpt lat="39.492670" lon="-5.111483">
        <ele>582.1</ele>
        <time>1970-01-01T00:00:00Z</time>
      </trkpt>
      <trkpt lat="39.492723" lon="-5.111272">
        <ele>584.6</ele>
        <time>1970-01-01T00:00:00Z</time>
      </trkpt>
      <trkpt lat="39.492723" lon="-5.111272">
        <ele>584.6</ele>
        <time>1970-01-01T00:00:00Z</time>
      </trkpt>
      <trkpt lat="39.492723" lon="-5.111272">
        <ele>584.6</ele>
        <time>1970-01-01T00:00:00Z</time>
      </trkpt>
      <trkpt lat="39.492723" lon="-5.111272">
        <ele>584.6</ele>
        <time>1970-01-01T00:00:00Z</time>
      </trkpt>
      <trkpt lat="39.492775" lon="-5.111067">
        <ele>587.0</ele>
        <time>1970-01-01T00:00:00Z</time>
      </trkpt>
      <trkpt lat="39.492775" lon="-5.111067">
        <ele>587.0</ele>
        <time>1970-01-01T00:00:00Z</time>
      </trkpt>
      <trkpt lat="39.492775" lon="-5.111067">
        <ele>587.0</ele>
        <time>1970-01-01T00:00:00Z</time>
      </trkpt>
      <trkpt lat="39.492775" lon="-5.111067">
        <ele>587.0</ele>
        <time>1970-01-01T00:00:00Z</time>
      </trkpt>
      <trkpt lat="39.492835" lon="-5.110792">
        <ele>589.8</ele>
        <time>1970-01-01T00:00:00Z</time>
      </trkpt>
      <trkpt lat="39.492835" lon="-5.110792">
        <ele>589.8</ele>
        <time>1970-01-01T00:00:00Z</time>
      </trkpt>
      <trkpt lat="39.492835" lon="-5.110792">
        <ele>589.8</ele>
        <time>1970-01-01T00:00:00Z</time>
      </trkpt>
      <trkpt lat="39.492835" lon="-5.110792">
        <ele>589.8</ele>
        <time>1970-01-01T00:00:00Z</time>
      </trkpt>
      <trkpt lat="39.492918" lon="-5.110490">
        <ele>591.9</ele>
        <time>1970-01-01T00:00:00Z</time>
      </trkpt>
      <trkpt lat="39.492918" lon="-5.110490">
        <ele>591.9</ele>
        <time>1970-01-01T00:00:00Z</time>
      </trkpt>
      <trkpt lat="39.492918" lon="-5.110490">
        <ele>591.9</ele>
        <time>1970-01-01T00:00:00Z</time>
      </trkpt>
      <trkpt lat="39.492918" lon="-5.110490">
        <ele>591.9</ele>
        <time>1970-01-01T00:00:00Z</time>
      </trkpt>
      <trkpt lat="39.492983" lon="-5.110186">
        <ele>591.4</ele>
        <time>1970-01-01T00:00:00Z</time>
      </trkpt>
      <trkpt lat="39.492983" lon="-5.110186">
        <ele>591.4</ele>
        <time>1970-01-01T00:00:00Z</time>
      </trkpt>
      <trkpt lat="39.492983" lon="-5.110186">
        <ele>591.4</ele>
        <time>1970-01-01T00:00:00Z</time>
      </trkpt>
      <trkpt lat="39.492983" lon="-5.110186">
        <ele>591.4</ele>
        <time>1970-01-01T00:00:00Z</time>
      </trkpt>
      <trkpt lat="39.493001" lon="-5.110068">
        <ele>590.8</ele>
        <time>1970-01-01T00:00:00Z</time>
      </trkpt>
      <trkpt lat="39.493001" lon="-5.110068">
        <ele>590.8</ele>
        <time>1970-01-01T00:00:00Z</time>
      </trkpt>
      <trkpt lat="39.493001" lon="-5.110068">
        <ele>590.8</ele>
        <time>1970-01-01T00:00:00Z</time>
      </trkpt>
      <trkpt lat="39.493001" lon="-5.110068">
        <ele>590.8</ele>
        <time>1970-01-01T00:00:00Z</time>
      </trkpt>
      <trkpt lat="39.493014" lon="-5.109969">
        <ele>590.2</ele>
        <time>1970-01-01T00:00:00Z</time>
      </trkpt>
      <trkpt lat="39.493014" lon="-5.109969">
        <ele>590.2</ele>
        <time>1970-01-01T00:00:00Z</time>
      </trkpt>
      <trkpt lat="39.493014" lon="-5.109969">
        <ele>590.2</ele>
        <time>1970-01-01T00:00:00Z</time>
      </trkpt>
      <trkpt lat="39.493014" lon="-5.109969">
        <ele>590.2</ele>
        <time>1970-01-01T00:00:00Z</time>
      </trkpt>
      <trkpt lat="39.493052" lon="-5.109826">
        <ele>589.1</ele>
        <time>1970-01-01T00:00:00Z</time>
      </trkpt>
      <trkpt lat="39.493052" lon="-5.109826">
        <ele>589.1</ele>
        <time>1970-01-01T00:00:00Z</time>
      </trkpt>
      <trkpt lat="39.493052" lon="-5.109826">
        <ele>589.1</ele>
        <time>1970-01-01T00:00:00Z</time>
      </trkpt>
      <trkpt lat="39.493052" lon="-5.109826">
        <ele>589.1</ele>
        <time>1970-01-01T00:00:00Z</time>
      </trkpt>
      <trkpt lat="39.493061" lon="-5.109785">
        <ele>588.9</ele>
        <time>1970-01-01T00:00:00Z</time>
      </trkpt>
      <trkpt lat="39.493061" lon="-5.109785">
        <ele>588.9</ele>
        <time>1970-01-01T00:00:00Z</time>
      </trkpt>
      <trkpt lat="39.493061" lon="-5.109785">
        <ele>588.9</ele>
        <time>1970-01-01T00:00:00Z</time>
      </trkpt>
      <trkpt lat="39.493061" lon="-5.109785">
        <ele>588.9</ele>
        <time>1970-01-01T00:00:00Z</time>
      </trkpt>
      <trkpt lat="39.493043" lon="-5.109737">
        <ele>588.9</ele>
        <time>1970-01-01T00:00:00Z</time>
      </trkpt>
      <trkpt lat="39.493043" lon="-5.109737">
        <ele>588.9</ele>
        <time>1970-01-01T00:00:00Z</time>
      </trkpt>
      <trkpt lat="39.493043" lon="-5.109737">
        <ele>588.9</ele>
        <time>1970-01-01T00:00:00Z</time>
      </trkpt>
      <trkpt lat="39.493043" lon="-5.109737">
        <ele>588.9</ele>
        <time>1970-01-01T00:00:00Z</time>
      </trkpt>
      <trkpt lat="39.493131" lon="-5.109646">
        <ele>588.2</ele>
        <time>1970-01-01T00:00:00Z</time>
      </trkpt>
      <trkpt lat="39.493131" lon="-5.109646">
        <ele>588.2</ele>
        <time>1970-01-01T00:00:00Z</time>
      </trkpt>
      <trkpt lat="39.493131" lon="-5.109646">
        <ele>588.2</ele>
        <time>1970-01-01T00:00:00Z</time>
      </trkpt>
      <trkpt lat="39.493131" lon="-5.109646">
        <ele>588.2</ele>
        <time>1970-01-01T00:00:00Z</time>
      </trkpt>
      <trkpt lat="39.493191" lon="-5.109636">
        <ele>587.8</ele>
        <time>1970-01-01T00:00:00Z</time>
      </trkpt>
      <trkpt lat="39.493191" lon="-5.109636">
        <ele>587.8</ele>
        <time>1970-01-01T00:00:00Z</time>
      </trkpt>
      <trkpt lat="39.493191" lon="-5.109636">
        <ele>587.8</ele>
        <time>1970-01-01T00:00:00Z</time>
      </trkpt>
      <trkpt lat="39.493191" lon="-5.109636">
        <ele>587.8</ele>
        <time>1970-01-01T00:00:00Z</time>
      </trkpt>
      <trkpt lat="39.493318" lon="-5.109662">
        <ele>586.9</ele>
        <time>1970-01-01T00:00:00Z</time>
      </trkpt>
      <trkpt lat="39.493318" lon="-5.109662">
        <ele>586.9</ele>
        <time>1970-01-01T00:00:00Z</time>
      </trkpt>
      <trkpt lat="39.493318" lon="-5.109662">
        <ele>586.9</ele>
        <time>1970-01-01T00:00:00Z</time>
      </trkpt>
      <trkpt lat="39.493318" lon="-5.109662">
        <ele>586.9</ele>
        <time>1970-01-01T00:00:00Z</time>
      </trkpt>
      <trkpt lat="39.493475" lon="-5.109716">
        <ele>585.9</ele>
        <time>1970-01-01T00:00:00Z</time>
      </trkpt>
      <trkpt lat="39.493475" lon="-5.109716">
        <ele>585.9</ele>
        <time>1970-01-01T00:00:00Z</time>
      </trkpt>
      <trkpt lat="39.493475" lon="-5.109716">
        <ele>585.9</ele>
        <time>1970-01-01T00:00:00Z</time>
      </trkpt>
      <trkpt lat="39.493475" lon="-5.109716">
        <ele>585.9</ele>
        <time>1970-01-01T00:00:00Z</time>
      </trkpt>
      <trkpt lat="39.493626" lon="-5.109779">
        <ele>584.9</ele>
        <time>1970-01-01T00:00:00Z</time>
      </trkpt>
      <trkpt lat="39.493626" lon="-5.109779">
        <ele>584.9</ele>
        <time>1970-01-01T00:00:00Z</time>
      </trkpt>
      <trkpt lat="39.493626" lon="-5.109779">
        <ele>584.9</ele>
        <time>1970-01-01T00:00:00Z</time>
      </trkpt>
      <trkpt lat="39.493626" lon="-5.109779">
        <ele>584.9</ele>
        <time>1970-01-01T00:00:00Z</time>
      </trkpt>
      <trkpt lat="39.493763" lon="-5.109843">
        <ele>583.6</ele>
        <time>1970-01-01T00:00:00Z</time>
      </trkpt>
      <trkpt lat="39.493763" lon="-5.109843">
        <ele>583.6</ele>
        <time>1970-01-01T00:00:00Z</time>
      </trkpt>
      <trkpt lat="39.493763" lon="-5.109843">
        <ele>583.6</ele>
        <time>1970-01-01T00:00:00Z</time>
      </trkpt>
      <trkpt lat="39.493763" lon="-5.109843">
        <ele>583.6</ele>
        <time>1970-01-01T00:00:00Z</time>
      </trkpt>
      <trkpt lat="39.493873" lon="-5.109927">
        <ele>583.4</ele>
        <time>1970-01-01T00:00:00Z</time>
      </trkpt>
      <trkpt lat="39.493873" lon="-5.109927">
        <ele>583.4</ele>
        <time>1970-01-01T00:00:00Z</time>
      </trkpt>
      <trkpt lat="39.493873" lon="-5.109927">
        <ele>583.4</ele>
        <time>1970-01-01T00:00:00Z</time>
      </trkpt>
      <trkpt lat="39.493873" lon="-5.109927">
        <ele>583.4</ele>
        <time>1970-01-01T00:00:00Z</time>
      </trkpt>
      <trkpt lat="39.494079" lon="-5.110138">
        <ele>583.4</ele>
        <time>1970-01-01T00:00:00Z</time>
      </trkpt>
      <trkpt lat="39.494079" lon="-5.110138">
        <ele>583.4</ele>
        <time>1970-01-01T00:00:00Z</time>
      </trkpt>
      <trkpt lat="39.494079" lon="-5.110138">
        <ele>583.4</ele>
        <time>1970-01-01T00:00:00Z</time>
      </trkpt>
      <trkpt lat="39.494079" lon="-5.110138">
        <ele>583.4</ele>
        <time>1970-01-01T00:00:00Z</time>
      </trkpt>
      <trkpt lat="39.494314" lon="-5.110344">
        <ele>582.1</ele>
        <time>1970-01-01T00:00:00Z</time>
      </trkpt>
      <trkpt lat="39.494314" lon="-5.110344">
        <ele>582.1</ele>
        <time>1970-01-01T00:00:00Z</time>
      </trkpt>
      <trkpt lat="39.494314" lon="-5.110344">
        <ele>582.1</ele>
        <time>1970-01-01T00:00:00Z</time>
      </trkpt>
      <trkpt lat="39.494314" lon="-5.110344">
        <ele>582.1</ele>
        <time>1970-01-01T00:00:00Z</time>
      </trkpt>
      <trkpt lat="39.494431" lon="-5.110422">
        <ele>581.3</ele>
        <time>1970-01-01T00:00:00Z</time>
      </trkpt>
      <trkpt lat="39.494431" lon="-5.110422">
        <ele>581.3</ele>
        <time>1970-01-01T00:00:00Z</time>
      </trkpt>
      <trkpt lat="39.494431" lon="-5.110422">
        <ele>581.3</ele>
        <time>1970-01-01T00:00:00Z</time>
      </trkpt>
      <trkpt lat="39.494431" lon="-5.110422">
        <ele>581.3</ele>
        <time>1970-01-01T00:00:00Z</time>
      </trkpt>
      <trkpt lat="39.494534" lon="-5.110472">
        <ele>580.1</ele>
        <time>1970-01-01T00:00:00Z</time>
      </trkpt>
      <trkpt lat="39.494534" lon="-5.110472">
        <ele>580.1</ele>
        <time>1970-01-01T00:00:00Z</time>
      </trkpt>
      <trkpt lat="39.494534" lon="-5.110472">
        <ele>580.1</ele>
        <time>1970-01-01T00:00:00Z</time>
      </trkpt>
      <trkpt lat="39.494534" lon="-5.110472">
        <ele>580.1</ele>
        <time>1970-01-01T00:00:00Z</time>
      </trkpt>
      <trkpt lat="39.494637" lon="-5.110519">
        <ele>579.1</ele>
        <time>1970-01-01T00:00:00Z</time>
      </trkpt>
      <trkpt lat="39.494637" lon="-5.110519">
        <ele>579.1</ele>
        <time>1970-01-01T00:00:00Z</time>
      </trkpt>
      <trkpt lat="39.494637" lon="-5.110519">
        <ele>579.1</ele>
        <time>1970-01-01T00:00:00Z</time>
      </trkpt>
      <trkpt lat="39.494637" lon="-5.110519">
        <ele>579.1</ele>
        <time>1970-01-01T00:00:00Z</time>
      </trkpt>
      <trkpt lat="39.494695" lon="-5.110565">
        <ele>578.8</ele>
        <time>1970-01-01T00:00:00Z</time>
      </trkpt>
      <trkpt lat="39.494695" lon="-5.110565">
        <ele>578.8</ele>
        <time>1970-01-01T00:00:00Z</time>
      </trkpt>
      <trkpt lat="39.494695" lon="-5.110565">
        <ele>578.8</ele>
        <time>1970-01-01T00:00:00Z</time>
      </trkpt>
      <trkpt lat="39.494695" lon="-5.110565">
        <ele>578.8</ele>
        <time>1970-01-01T00:00:00Z</time>
      </trkpt>
      <trkpt lat="39.494736" lon="-5.110608">
        <ele>578.7</ele>
        <time>1970-01-01T00:00:00Z</time>
      </trkpt>
      <trkpt lat="39.494736" lon="-5.110608">
        <ele>578.7</ele>
        <time>1970-01-01T00:00:00Z</time>
      </trkpt>
      <trkpt lat="39.494736" lon="-5.110608">
        <ele>578.7</ele>
        <time>1970-01-01T00:00:00Z</time>
      </trkpt>
      <trkpt lat="39.494736" lon="-5.110608">
        <ele>578.7</ele>
        <time>1970-01-01T00:00:00Z</time>
      </trkpt>
      <trkpt lat="39.494821" lon="-5.110660">
        <ele>578.0</ele>
        <time>1970-01-01T00:00:00Z</time>
      </trkpt>
      <trkpt lat="39.494821" lon="-5.110660">
        <ele>578.0</ele>
        <time>1970-01-01T00:00:00Z</time>
      </trkpt>
      <trkpt lat="39.494821" lon="-5.110660">
        <ele>578.0</ele>
        <time>1970-01-01T00:00:00Z</time>
      </trkpt>
      <trkpt lat="39.494821" lon="-5.110660">
        <ele>578.0</ele>
        <time>1970-01-01T00:00:00Z</time>
      </trkpt>
      <trkpt lat="39.494840" lon="-5.110638">
        <ele>577.6</ele>
        <time>1970-01-01T00:00:00Z</time>
      </trkpt>
      <trkpt lat="39.494840" lon="-5.110638">
        <ele>577.6</ele>
        <time>1970-01-01T00:00:00Z</time>
      </trkpt>
      <trkpt lat="39.494840" lon="-5.110638">
        <ele>577.6</ele>
        <time>1970-01-01T00:00:00Z</time>
      </trkpt>
      <trkpt lat="39.494840" lon="-5.110638">
        <ele>577.6</ele>
        <time>1970-01-01T00:00:00Z</time>
      </trkpt>
      <trkpt lat="39.494785" lon="-5.110548">
        <ele>577.4</ele>
        <time>1970-01-01T00:00:00Z</time>
      </trkpt>
      <trkpt lat="39.494785" lon="-5.110548">
        <ele>577.4</ele>
        <time>1970-01-01T00:00:00Z</time>
      </trkpt>
      <trkpt lat="39.494785" lon="-5.110548">
        <ele>577.4</ele>
        <time>1970-01-01T00:00:00Z</time>
      </trkpt>
      <trkpt lat="39.494785" lon="-5.110548">
        <ele>577.4</ele>
        <time>1970-01-01T00:00:00Z</time>
      </trkpt>
      <trkpt lat="39.494736" lon="-5.110483">
        <ele>577.6</ele>
        <time>1970-01-01T00:00:00Z</time>
      </trkpt>
      <trkpt lat="39.494736" lon="-5.110483">
        <ele>577.6</ele>
        <time>1970-01-01T00:00:00Z</time>
      </trkpt>
      <trkpt lat="39.494736" lon="-5.110483">
        <ele>577.6</ele>
        <time>1970-01-01T00:00:00Z</time>
      </trkpt>
      <trkpt lat="39.494736" lon="-5.110483">
        <ele>577.6</ele>
        <time>1970-01-01T00:00:00Z</time>
      </trkpt>
      <trkpt lat="39.494698" lon="-5.110417">
        <ele>577.7</ele>
        <time>1970-01-01T00:00:00Z</time>
      </trkpt>
      <trkpt lat="39.494698" lon="-5.110417">
        <ele>577.7</ele>
        <time>1970-01-01T00:00:00Z</time>
      </trkpt>
      <trkpt lat="39.494698" lon="-5.110417">
        <ele>577.7</ele>
        <time>1970-01-01T00:00:00Z</time>
      </trkpt>
      <trkpt lat="39.494698" lon="-5.110417">
        <ele>577.7</ele>
        <time>1970-01-01T00:00:00Z</time>
      </trkpt>
      <trkpt lat="39.494655" lon="-5.110347">
        <ele>577.7</ele>
        <time>1970-01-01T00:00:00Z</time>
      </trkpt>
      <trkpt lat="39.494655" lon="-5.110347">
        <ele>577.7</ele>
        <time>1970-01-01T00:00:00Z</time>
      </trkpt>
      <trkpt lat="39.494655" lon="-5.110347">
        <ele>577.7</ele>
        <time>1970-01-01T00:00:00Z</time>
      </trkpt>
      <trkpt lat="39.494655" lon="-5.110347">
        <ele>577.7</ele>
        <time>1970-01-01T00:00:00Z</time>
      </trkpt>
      <trkpt lat="39.494634" lon="-5.110306">
        <ele>577.6</ele>
        <time>1970-01-01T00:00:00Z</time>
      </trkpt>
      <trkpt lat="39.494634" lon="-5.110306">
        <ele>577.6</ele>
        <time>1970-01-01T00:00:00Z</time>
      </trkpt>
      <trkpt lat="39.494634" lon="-5.110306">
        <ele>577.6</ele>
        <time>1970-01-01T00:00:00Z</time>
      </trkpt>
      <trkpt lat="39.494634" lon="-5.110306">
        <ele>577.6</ele>
        <time>1970-01-01T00:00:00Z</time>
      </trkpt>
      <trkpt lat="39.494589" lon="-5.110205">
        <ele>577.2</ele>
        <time>1970-01-01T00:00:00Z</time>
      </trkpt>
      <trkpt lat="39.494589" lon="-5.110205">
        <ele>577.2</ele>
        <time>1970-01-01T00:00:00Z</time>
      </trkpt>
      <trkpt lat="39.494589" lon="-5.110205">
        <ele>577.2</ele>
        <time>1970-01-01T00:00:00Z</time>
      </trkpt>
      <trkpt lat="39.494589" lon="-5.110205">
        <ele>577.2</ele>
        <time>1970-01-01T00:00:00Z</time>
      </trkpt>
      <trkpt lat="39.494539" lon="-5.110098">
        <ele>576.7</ele>
        <time>1970-01-01T00:00:00Z</time>
      </trkpt>
      <trkpt lat="39.494539" lon="-5.110098">
        <ele>576.7</ele>
        <time>1970-01-01T00:00:00Z</time>
      </trkpt>
      <trkpt lat="39.494539" lon="-5.110098">
        <ele>576.7</ele>
        <time>1970-01-01T00:00:00Z</time>
      </trkpt>
      <trkpt lat="39.494539" lon="-5.110098">
        <ele>576.7</ele>
        <time>1970-01-01T00:00:00Z</time>
      </trkpt>
      <trkpt lat="39.494512" lon="-5.110033">
        <ele>576.6</ele>
        <time>1970-01-01T00:00:00Z</time>
      </trkpt>
      <trkpt lat="39.494512" lon="-5.110033">
        <ele>576.6</ele>
        <time>1970-01-01T00:00:00Z</time>
      </trkpt>
      <trkpt lat="39.494512" lon="-5.110033">
        <ele>576.6</ele>
        <time>1970-01-01T00:00:00Z</time>
      </trkpt>
      <trkpt lat="39.494512" lon="-5.110033">
        <ele>576.6</ele>
        <time>1970-01-01T00:00:00Z</time>
      </trkpt>
      <trkpt lat="39.494468" lon="-5.109950">
        <ele>576.6</ele>
        <time>1970-01-01T00:00:00Z</time>
      </trkpt>
      <trkpt lat="39.494468" lon="-5.109950">
        <ele>576.6</ele>
        <time>1970-01-01T00:00:00Z</time>
      </trkpt>
      <trkpt lat="39.494468" lon="-5.109950">
        <ele>576.6</ele>
        <time>1970-01-01T00:00:00Z</time>
      </trkpt>
      <trkpt lat="39.494468" lon="-5.109950">
        <ele>576.6</ele>
        <time>1970-01-01T00:00:00Z</time>
      </trkpt>
      <trkpt lat="39.494456" lon="-5.109918">
        <ele>576.5</ele>
        <time>1970-01-01T00:00:00Z</time>
      </trkpt>
      <trkpt lat="39.494456" lon="-5.109918">
        <ele>576.5</ele>
        <time>1970-01-01T00:00:00Z</time>
      </trkpt>
      <trkpt lat="39.494456" lon="-5.109918">
        <ele>576.5</ele>
        <time>1970-01-01T00:00:00Z</time>
      </trkpt>
      <trkpt lat="39.494456" lon="-5.109918">
        <ele>576.5</ele>
        <time>1970-01-01T00:00:00Z</time>
      </trkpt>
      <trkpt lat="39.494440" lon="-5.109880">
        <ele>576.5</ele>
        <time>1970-01-01T00:00:00Z</time>
      </trkpt>
      <trkpt lat="39.494440" lon="-5.109880">
        <ele>576.5</ele>
        <time>1970-01-01T00:00:00Z</time>
      </trkpt>
      <trkpt lat="39.494440" lon="-5.109880">
        <ele>576.5</ele>
        <time>1970-01-01T00:00:00Z</time>
      </trkpt>
      <trkpt lat="39.494440" lon="-5.109880">
        <ele>576.5</ele>
        <time>1970-01-01T00:00:00Z</time>
      </trkpt>
      <trkpt lat="39.494408" lon="-5.109771">
        <ele>576.5</ele>
        <time>1970-01-01T00:00:00Z</time>
      </trkpt>
      <trkpt lat="39.494408" lon="-5.109771">
        <ele>576.5</ele>
        <time>1970-01-01T00:00:00Z</time>
      </trkpt>
      <trkpt lat="39.494408" lon="-5.109771">
        <ele>576.5</ele>
        <time>1970-01-01T00:00:00Z</time>
      </trkpt>
      <trkpt lat="39.494408" lon="-5.109771">
        <ele>576.5</ele>
        <time>1970-01-01T00:00:00Z</time>
      </trkpt>
      <trkpt lat="39.494409" lon="-5.109724">
        <ele>576.7</ele>
        <time>1970-01-01T00:00:00Z</time>
      </trkpt>
      <trkpt lat="39.494409" lon="-5.109724">
        <ele>576.7</ele>
        <time>1970-01-01T00:00:00Z</time>
      </trkpt>
      <trkpt lat="39.494409" lon="-5.109724">
        <ele>576.7</ele>
        <time>1970-01-01T00:00:00Z</time>
      </trkpt>
      <trkpt lat="39.494409" lon="-5.109724">
        <ele>576.7</ele>
        <time>1970-01-01T00:00:00Z</time>
      </trkpt>
      <trkpt lat="39.494525" lon="-5.109737">
        <ele>575.6</ele>
        <time>1970-01-01T00:00:00Z</time>
      </trkpt>
      <trkpt lat="39.494525" lon="-5.109737">
        <ele>575.6</ele>
        <time>1970-01-01T00:00:00Z</time>
      </trkpt>
      <trkpt lat="39.494525" lon="-5.109737">
        <ele>575.6</ele>
        <time>1970-01-01T00:00:00Z</time>
      </trkpt>
      <trkpt lat="39.494525" lon="-5.109737">
        <ele>575.6</ele>
        <time>1970-01-01T00:00:00Z</time>
      </trkpt>
      <trkpt lat="39.494584" lon="-5.109749">
        <ele>575.2</ele>
        <time>1970-01-01T00:00:00Z</time>
      </trkpt>
      <trkpt lat="39.494584" lon="-5.109749">
        <ele>575.2</ele>
        <time>1970-01-01T00:00:00Z</time>
      </trkpt>
      <trkpt lat="39.494584" lon="-5.109749">
        <ele>575.2</ele>
        <time>1970-01-01T00:00:00Z</time>
      </trkpt>
      <trkpt lat="39.494584" lon="-5.109749">
        <ele>575.2</ele>
        <time>1970-01-01T00:00:00Z</time>
      </trkpt>
      <trkpt lat="39.494703" lon="-5.109764">
        <ele>574.5</ele>
        <time>1970-01-01T00:00:00Z</time>
      </trkpt>
      <trkpt lat="39.494703" lon="-5.109764">
        <ele>574.5</ele>
        <time>1970-01-01T00:00:00Z</time>
      </trkpt>
      <trkpt lat="39.494703" lon="-5.109764">
        <ele>574.5</ele>
        <time>1970-01-01T00:00:00Z</time>
      </trkpt>
      <trkpt lat="39.494703" lon="-5.109764">
        <ele>574.5</ele>
        <time>1970-01-01T00:00:00Z</time>
      </trkpt>
      <trkpt lat="39.494829" lon="-5.109772">
        <ele>574.0</ele>
        <time>1970-01-01T00:00:00Z</time>
      </trkpt>
      <trkpt lat="39.494829" lon="-5.109772">
        <ele>574.0</ele>
        <time>1970-01-01T00:00:00Z</time>
      </trkpt>
      <trkpt lat="39.494829" lon="-5.109772">
        <ele>574.0</ele>
        <time>1970-01-01T00:00:00Z</time>
      </trkpt>
      <trkpt lat="39.494829" lon="-5.109772">
        <ele>574.0</ele>
        <time>1970-01-01T00:00:00Z</time>
      </trkpt>
      <trkpt lat="39.494935" lon="-5.109809">
        <ele>574.0</ele>
        <time>1970-01-01T00:00:00Z</time>
      </trkpt>
      <trkpt lat="39.494935" lon="-5.109809">
        <ele>574.0</ele>
        <time>1970-01-01T00:00:00Z</time>
      </trkpt>
      <trkpt lat="39.494935" lon="-5.109809">
        <ele>574.0</ele>
        <time>1970-01-01T00:00:00Z</time>
      </trkpt>
      <trkpt lat="39.494935" lon="-5.109809">
        <ele>574.0</ele>
        <time>1970-01-01T00:00:00Z</time>
      </trkpt>
      <trkpt lat="39.495005" lon="-5.109846">
        <ele>574.0</ele>
        <time>1970-01-01T00:00:00Z</time>
      </trkpt>
      <trkpt lat="39.495005" lon="-5.109846">
        <ele>574.0</ele>
        <time>1970-01-01T00:00:00Z</time>
      </trkpt>
      <trkpt lat="39.495005" lon="-5.109846">
        <ele>574.0</ele>
        <time>1970-01-01T00:00:00Z</time>
      </trkpt>
      <trkpt lat="39.495005" lon="-5.109846">
        <ele>574.0</ele>
        <time>1970-01-01T00:00:00Z</time>
      </trkpt>
      <trkpt lat="39.495050" lon="-5.109876">
        <ele>574.1</ele>
        <time>1970-01-01T00:00:00Z</time>
      </trkpt>
      <trkpt lat="39.495050" lon="-5.109876">
        <ele>574.1</ele>
        <time>1970-01-01T00:00:00Z</time>
      </trkpt>
      <trkpt lat="39.495050" lon="-5.109876">
        <ele>574.1</ele>
        <time>1970-01-01T00:00:00Z</time>
      </trkpt>
      <trkpt lat="39.495050" lon="-5.109876">
        <ele>574.1</ele>
        <time>1970-01-01T00:00:00Z</time>
      </trkpt>
      <trkpt lat="39.495204" lon="-5.109908">
        <ele>574.8</ele>
        <time>1970-01-01T00:00:00Z</time>
      </trkpt>
      <trkpt lat="39.495204" lon="-5.109908">
        <ele>574.8</ele>
        <time>1970-01-01T00:00:00Z</time>
      </trkpt>
      <trkpt lat="39.495204" lon="-5.109908">
        <ele>574.8</ele>
        <time>1970-01-01T00:00:00Z</time>
      </trkpt>
      <trkpt lat="39.495204" lon="-5.109908">
        <ele>574.8</ele>
        <time>1970-01-01T00:00:00Z</time>
      </trkpt>
      <trkpt lat="39.495348" lon="-5.109925">
        <ele>575.2</ele>
        <time>1970-01-01T00:00:00Z</time>
      </trkpt>
      <trkpt lat="39.495348" lon="-5.109925">
        <ele>575.2</ele>
        <time>1970-01-01T00:00:00Z</time>
      </trkpt>
      <trkpt lat="39.495348" lon="-5.109925">
        <ele>575.2</ele>
        <time>1970-01-01T00:00:00Z</time>
      </trkpt>
      <trkpt lat="39.495348" lon="-5.109925">
        <ele>575.2</ele>
        <time>1970-01-01T00:00:00Z</time>
      </trkpt>
      <trkpt lat="39.495433" lon="-5.109945">
        <ele>575.3</ele>
        <time>1970-01-01T00:00:00Z</time>
      </trkpt>
      <trkpt lat="39.495433" lon="-5.109945">
        <ele>575.3</ele>
        <time>1970-01-01T00:00:00Z</time>
      </trkpt>
      <trkpt lat="39.495433" lon="-5.109945">
        <ele>575.3</ele>
        <time>1970-01-01T00:00:00Z</time>
      </trkpt>
      <trkpt lat="39.495433" lon="-5.109945">
        <ele>575.3</ele>
        <time>1970-01-01T00:00:00Z</time>
      </trkpt>
      <trkpt lat="39.495509" lon="-5.109957">
        <ele>575.3</ele>
        <time>1970-01-01T00:00:00Z</time>
      </trkpt>
      <trkpt lat="39.495509" lon="-5.109957">
        <ele>575.3</ele>
        <time>1970-01-01T00:00:00Z</time>
      </trkpt>
      <trkpt lat="39.495509" lon="-5.109957">
        <ele>575.3</ele>
        <time>1970-01-01T00:00:00Z</time>
      </trkpt>
      <trkpt lat="39.495509" lon="-5.109957">
        <ele>575.3</ele>
        <time>1970-01-01T00:00:00Z</time>
      </trkpt>
      <trkpt lat="39.495617" lon="-5.110007">
        <ele>574.7</ele>
        <time>1970-01-01T00:00:00Z</time>
      </trkpt>
      <trkpt lat="39.495617" lon="-5.110007">
        <ele>574.7</ele>
        <time>1970-01-01T00:00:00Z</time>
      </trkpt>
      <trkpt lat="39.495617" lon="-5.110007">
        <ele>574.7</ele>
        <time>1970-01-01T00:00:00Z</time>
      </trkpt>
      <trkpt lat="39.495617" lon="-5.110007">
        <ele>574.7</ele>
        <time>1970-01-01T00:00:00Z</time>
      </trkpt>
      <trkpt lat="39.495845" lon="-5.110157">
        <ele>572.2</ele>
        <time>1970-01-01T00:00:00Z</time>
      </trkpt>
      <trkpt lat="39.495845" lon="-5.110157">
        <ele>572.2</ele>
        <time>1970-01-01T00:00:00Z</time>
      </trkpt>
      <trkpt lat="39.495845" lon="-5.110157">
        <ele>572.2</ele>
        <time>1970-01-01T00:00:00Z</time>
      </trkpt>
      <trkpt lat="39.495845" lon="-5.110157">
        <ele>572.2</ele>
        <time>1970-01-01T00:00:00Z</time>
      </trkpt>
      <trkpt lat="39.495930" lon="-5.110199">
        <ele>571.2</ele>
        <time>1970-01-01T00:00:00Z</time>
      </trkpt>
      <trkpt lat="39.495930" lon="-5.110199">
        <ele>571.2</ele>
        <time>1970-01-01T00:00:00Z</time>
      </trkpt>
      <trkpt lat="39.495930" lon="-5.110199">
        <ele>571.2</ele>
        <time>1970-01-01T00:00:00Z</time>
      </trkpt>
      <trkpt lat="39.495930" lon="-5.110199">
        <ele>571.2</ele>
        <time>1970-01-01T00:00:00Z</time>
      </trkpt>
      <trkpt lat="39.496070" lon="-5.110179">
        <ele>571.0</ele>
        <time>1970-01-01T00:00:00Z</time>
      </trkpt>
      <trkpt lat="39.496070" lon="-5.110179">
        <ele>571.0</ele>
        <time>1970-01-01T00:00:00Z</time>
      </trkpt>
      <trkpt lat="39.496070" lon="-5.110179">
        <ele>571.0</ele>
        <time>1970-01-01T00:00:00Z</time>
      </trkpt>
      <trkpt lat="39.496070" lon="-5.110179">
        <ele>571.0</ele>
        <time>1970-01-01T00:00:00Z</time>
      </trkpt>
      <trkpt lat="39.496122" lon="-5.110152">
        <ele>571.3</ele>
        <time>1970-01-01T00:00:00Z</time>
      </trkpt>
      <trkpt lat="39.496122" lon="-5.110152">
        <ele>571.3</ele>
        <time>1970-01-01T00:00:00Z</time>
      </trkpt>
      <trkpt lat="39.496122" lon="-5.110152">
        <ele>571.3</ele>
        <time>1970-01-01T00:00:00Z</time>
      </trkpt>
      <trkpt lat="39.496122" lon="-5.110152">
        <ele>571.3</ele>
        <time>1970-01-01T00:00:00Z</time>
      </trkpt>
      <trkpt lat="39.496298" lon="-5.110056">
        <ele>572.4</ele>
        <time>1970-01-01T00:00:00Z</time>
      </trkpt>
      <trkpt lat="39.496298" lon="-5.110056">
        <ele>572.4</ele>
        <time>1970-01-01T00:00:00Z</time>
      </trkpt>
      <trkpt lat="39.496298" lon="-5.110056">
        <ele>572.4</ele>
        <time>1970-01-01T00:00:00Z</time>
      </trkpt>
      <trkpt lat="39.496298" lon="-5.110056">
        <ele>572.4</ele>
        <time>1970-01-01T00:00:00Z</time>
      </trkpt>
      <trkpt lat="39.496367" lon="-5.110018">
        <ele>572.6</ele>
        <time>1970-01-01T00:00:00Z</time>
      </trkpt>
      <trkpt lat="39.496367" lon="-5.110018">
        <ele>572.6</ele>
        <time>1970-01-01T00:00:00Z</time>
      </trkpt>
      <trkpt lat="39.496367" lon="-5.110018">
        <ele>572.6</ele>
        <time>1970-01-01T00:00:00Z</time>
      </trkpt>
      <trkpt lat="39.496367" lon="-5.110018">
        <ele>572.6</ele>
        <time>1970-01-01T00:00:00Z</time>
      </trkpt>
      <trkpt lat="39.496469" lon="-5.109996">
        <ele>572.7</ele>
        <time>1970-01-01T00:00:00Z</time>
      </trkpt>
      <trkpt lat="39.496469" lon="-5.109996">
        <ele>572.7</ele>
        <time>1970-01-01T00:00:00Z</time>
      </trkpt>
      <trkpt lat="39.496469" lon="-5.109996">
        <ele>572.7</ele>
        <time>1970-01-01T00:00:00Z</time>
      </trkpt>
      <trkpt lat="39.496469" lon="-5.109996">
        <ele>572.7</ele>
        <time>1970-01-01T00:00:00Z</time>
      </trkpt>
      <trkpt lat="39.496625" lon="-5.110013">
        <ele>572.6</ele>
        <time>1970-01-01T00:00:00Z</time>
      </trkpt>
      <trkpt lat="39.496625" lon="-5.110013">
        <ele>572.6</ele>
        <time>1970-01-01T00:00:00Z</time>
      </trkpt>
      <trkpt lat="39.496625" lon="-5.110013">
        <ele>572.6</ele>
        <time>1970-01-01T00:00:00Z</time>
      </trkpt>
      <trkpt lat="39.496625" lon="-5.110013">
        <ele>572.6</ele>
        <time>1970-01-01T00:00:00Z</time>
      </trkpt>
      <trkpt lat="39.496811" lon="-5.110073">
        <ele>572.5</ele>
        <time>1970-01-01T00:00:00Z</time>
      </trkpt>
      <trkpt lat="39.496811" lon="-5.110073">
        <ele>572.5</ele>
        <time>1970-01-01T00:00:00Z</time>
      </trkpt>
      <trkpt lat="39.496811" lon="-5.110073">
        <ele>572.5</ele>
        <time>1970-01-01T00:00:00Z</time>
      </trkpt>
      <trkpt lat="39.496811" lon="-5.110073">
        <ele>572.5</ele>
        <time>1970-01-01T00:00:00Z</time>
      </trkpt>
      <trkpt lat="39.496866" lon="-5.110092">
        <ele>572.6</ele>
        <time>1970-01-01T00:00:00Z</time>
      </trkpt>
      <trkpt lat="39.496866" lon="-5.110092">
        <ele>572.6</ele>
        <time>1970-01-01T00:00:00Z</time>
      </trkpt>
      <trkpt lat="39.496866" lon="-5.110092">
        <ele>572.6</ele>
        <time>1970-01-01T00:00:00Z</time>
      </trkpt>
      <trkpt lat="39.496866" lon="-5.110092">
        <ele>572.6</ele>
        <time>1970-01-01T00:00:00Z</time>
      </trkpt>
      <trkpt lat="39.496963" lon="-5.110090">
        <ele>573.3</ele>
        <time>1970-01-01T00:00:00Z</time>
      </trkpt>
      <trkpt lat="39.496963" lon="-5.110090">
        <ele>573.3</ele>
        <time>1970-01-01T00:00:00Z</time>
      </trkpt>
      <trkpt lat="39.496963" lon="-5.110090">
        <ele>573.3</ele>
        <time>1970-01-01T00:00:00Z</time>
      </trkpt>
      <trkpt lat="39.496963" lon="-5.110090">
        <ele>573.3</ele>
        <time>1970-01-01T00:00:00Z</time>
      </trkpt>
      <trkpt lat="39.497098" lon="-5.110005">
        <ele>575.3</ele>
        <time>1970-01-01T00:00:00Z</time>
      </trkpt>
      <trkpt lat="39.497098" lon="-5.110005">
        <ele>575.3</ele>
        <time>1970-01-01T00:00:00Z</time>
      </trkpt>
      <trkpt lat="39.497098" lon="-5.110005">
        <ele>575.3</ele>
        <time>1970-01-01T00:00:00Z</time>
      </trkpt>
      <trkpt lat="39.497098" lon="-5.110005">
        <ele>575.3</ele>
        <time>1970-01-01T00:00:00Z</time>
      </trkpt>
      <trkpt lat="39.497200" lon="-5.109957">
        <ele>576.6</ele>
        <time>1970-01-01T00:00:00Z</time>
      </trkpt>
      <trkpt lat="39.497200" lon="-5.109957">
        <ele>576.6</ele>
        <time>1970-01-01T00:00:00Z</time>
      </trkpt>
      <trkpt lat="39.497200" lon="-5.109957">
        <ele>576.6</ele>
        <time>1970-01-01T00:00:00Z</time>
      </trkpt>
      <trkpt lat="39.497200" lon="-5.109957">
        <ele>576.6</ele>
        <time>1970-01-01T00:00:00Z</time>
      </trkpt>
      <trkpt lat="39.497327" lon="-5.109909">
        <ele>578.1</ele>
        <time>1970-01-01T00:00:00Z</time>
      </trkpt>
      <trkpt lat="39.497327" lon="-5.109909">
        <ele>578.1</ele>
        <time>1970-01-01T00:00:00Z</time>
      </trkpt>
      <trkpt lat="39.497327" lon="-5.109909">
        <ele>578.1</ele>
        <time>1970-01-01T00:00:00Z</time>
      </trkpt>
      <trkpt lat="39.497327" lon="-5.109909">
        <ele>578.1</ele>
        <time>1970-01-01T00:00:00Z</time>
      </trkpt>
      <trkpt lat="39.497394" lon="-5.109893">
        <ele>579.1</ele>
        <time>1970-01-01T00:00:00Z</time>
      </trkpt>
      <trkpt lat="39.497394" lon="-5.109893">
        <ele>579.1</ele>
        <time>1970-01-01T00:00:00Z</time>
      </trkpt>
      <trkpt lat="39.497394" lon="-5.109893">
        <ele>579.1</ele>
        <time>1970-01-01T00:00:00Z</time>
      </trkpt>
      <trkpt lat="39.497394" lon="-5.109893">
        <ele>579.1</ele>
        <time>1970-01-01T00:00:00Z</time>
      </trkpt>
      <trkpt lat="39.497463" lon="-5.109876">
        <ele>580.2</ele>
        <time>1970-01-01T00:00:00Z</time>
      </trkpt>
      <trkpt lat="39.497463" lon="-5.109876">
        <ele>580.2</ele>
        <time>1970-01-01T00:00:00Z</time>
      </trkpt>
      <trkpt lat="39.497463" lon="-5.109876">
        <ele>580.2</ele>
        <time>1970-01-01T00:00:00Z</time>
      </trkpt>
      <trkpt lat="39.497463" lon="-5.109876">
        <ele>580.2</ele>
        <time>1970-01-01T00:00:00Z</time>
      </trkpt>
      <trkpt lat="39.497551" lon="-5.109859">
        <ele>581.6</ele>
        <time>1970-01-01T00:00:00Z</time>
      </trkpt>
      <trkpt lat="39.497551" lon="-5.109859">
        <ele>581.6</ele>
        <time>1970-01-01T00:00:00Z</time>
      </trkpt>
      <trkpt lat="39.497551" lon="-5.109859">
        <ele>581.6</ele>
        <time>1970-01-01T00:00:00Z</time>
      </trkpt>
      <trkpt lat="39.497551" lon="-5.109859">
        <ele>581.6</ele>
        <time>1970-01-01T00:00:00Z</time>
      </trkpt>
      <trkpt lat="39.497701" lon="-5.109834">
        <ele>584.2</ele>
        <time>1970-01-01T00:00:00Z</time>
      </trkpt>
      <trkpt lat="39.497701" lon="-5.109834">
        <ele>584.2</ele>
        <time>1970-01-01T00:00:00Z</time>
      </trkpt>
      <trkpt lat="39.497701" lon="-5.109834">
        <ele>584.2</ele>
        <time>1970-01-01T00:00:00Z</time>
      </trkpt>
      <trkpt lat="39.497701" lon="-5.109834">
        <ele>584.2</ele>
        <time>1970-01-01T00:00:00Z</time>
      </trkpt>
      <trkpt lat="39.497843" lon="-5.109831">
        <ele>586.5</ele>
        <time>1970-01-01T00:00:00Z</time>
      </trkpt>
      <trkpt lat="39.497843" lon="-5.109831">
        <ele>586.5</ele>
        <time>1970-01-01T00:00:00Z</time>
      </trkpt>
      <trkpt lat="39.497843" lon="-5.109831">
        <ele>586.5</ele>
        <time>1970-01-01T00:00:00Z</time>
      </trkpt>
      <trkpt lat="39.497843" lon="-5.109831">
        <ele>586.5</ele>
        <time>1970-01-01T00:00:00Z</time>
      </trkpt>
      <trkpt lat="39.497992" lon="-5.109803">
        <ele>588.5</ele>
        <time>1970-01-01T00:00:00Z</time>
      </trkpt>
      <trkpt lat="39.497992" lon="-5.109803">
        <ele>588.5</ele>
        <time>1970-01-01T00:00:00Z</time>
      </trkpt>
      <trkpt lat="39.497992" lon="-5.109803">
        <ele>588.5</ele>
        <time>1970-01-01T00:00:00Z</time>
      </trkpt>
      <trkpt lat="39.497992" lon="-5.109803">
        <ele>588.5</ele>
        <time>1970-01-01T00:00:00Z</time>
      </trkpt>
      <trkpt lat="39.498204" lon="-5.109696">
        <ele>592.1</ele>
        <time>1970-01-01T00:00:00Z</time>
      </trkpt>
      <trkpt lat="39.498204" lon="-5.109696">
        <ele>592.1</ele>
        <time>1970-01-01T00:00:00Z</time>
      </trkpt>
      <trkpt lat="39.498204" lon="-5.109696">
        <ele>592.1</ele>
        <time>1970-01-01T00:00:00Z</time>
      </trkpt>
      <trkpt lat="39.498204" lon="-5.109696">
        <ele>592.1</ele>
        <time>1970-01-01T00:00:00Z</time>
      </trkpt>
      <trkpt lat="39.498430" lon="-5.109615">
        <ele>595.2</ele>
        <time>1970-01-01T00:00:00Z</time>
      </trkpt>
      <trkpt lat="39.498430" lon="-5.109615">
        <ele>595.2</ele>
        <time>1970-01-01T00:00:00Z</time>
      </trkpt>
      <trkpt lat="39.498430" lon="-5.109615">
        <ele>595.2</ele>
        <time>1970-01-01T00:00:00Z</time>
      </trkpt>
      <trkpt lat="39.498430" lon="-5.109615">
        <ele>595.2</ele>
        <time>1970-01-01T00:00:00Z</time>
      </trkpt>
      <trkpt lat="39.498633" lon="-5.109552">
        <ele>597.8</ele>
        <time>1970-01-01T00:00:00Z</time>
      </trkpt>
      <trkpt lat="39.498633" lon="-5.109552">
        <ele>597.8</ele>
        <time>1970-01-01T00:00:00Z</time>
      </trkpt>
      <trkpt lat="39.498633" lon="-5.109552">
        <ele>597.8</ele>
        <time>1970-01-01T00:00:00Z</time>
      </trkpt>
      <trkpt lat="39.498633" lon="-5.109552">
        <ele>597.8</ele>
        <time>1970-01-01T00:00:00Z</time>
      </trkpt>
      <trkpt lat="39.498822" lon="-5.109452">
        <ele>601.1</ele>
        <time>1970-01-01T00:00:00Z</time>
      </trkpt>
      <trkpt lat="39.498822" lon="-5.109452">
        <ele>601.1</ele>
        <time>1970-01-01T00:00:00Z</time>
      </trkpt>
      <trkpt lat="39.498822" lon="-5.109452">
        <ele>601.1</ele>
        <time>1970-01-01T00:00:00Z</time>
      </trkpt>
      <trkpt lat="39.498822" lon="-5.109452">
        <ele>601.1</ele>
        <time>1970-01-01T00:00:00Z</time>
      </trkpt>
      <trkpt lat="39.498940" lon="-5.109383">
        <ele>603.6</ele>
        <time>1970-01-01T00:00:00Z</time>
      </trkpt>
      <trkpt lat="39.498940" lon="-5.109383">
        <ele>603.6</ele>
        <time>1970-01-01T00:00:00Z</time>
      </trkpt>
      <trkpt lat="39.498940" lon="-5.109383">
        <ele>603.6</ele>
        <time>1970-01-01T00:00:00Z</time>
      </trkpt>
      <trkpt lat="39.498940" lon="-5.109383">
        <ele>603.6</ele>
        <time>1970-01-01T00:00:00Z</time>
      </trkpt>
      <trkpt lat="39.499123" lon="-5.109269">
        <ele>607.6</ele>
        <time>1970-01-01T00:00:00Z</time>
      </trkpt>
      <trkpt lat="39.499123" lon="-5.109269">
        <ele>607.6</ele>
        <time>1970-01-01T00:00:00Z</time>
      </trkpt>
      <trkpt lat="39.499123" lon="-5.109269">
        <ele>607.6</ele>
        <time>1970-01-01T00:00:00Z</time>
      </trkpt>
      <trkpt lat="39.499123" lon="-5.109269">
        <ele>607.6</ele>
        <time>1970-01-01T00:00:00Z</time>
      </trkpt>
      <trkpt lat="39.499290" lon="-5.109180">
        <ele>610.4</ele>
        <time>1970-01-01T00:00:00Z</time>
      </trkpt>
      <trkpt lat="39.499290" lon="-5.109180">
        <ele>610.4</ele>
        <time>1970-01-01T00:00:00Z</time>
      </trkpt>
      <trkpt lat="39.499290" lon="-5.109180">
        <ele>610.4</ele>
        <time>1970-01-01T00:00:00Z</time>
      </trkpt>
      <trkpt lat="39.499290" lon="-5.109180">
        <ele>610.4</ele>
        <time>1970-01-01T00:00:00Z</time>
      </trkpt>
      <trkpt lat="39.499427" lon="-5.109138">
        <ele>612.1</ele>
        <time>1970-01-01T00:00:00Z</time>
      </trkpt>
      <trkpt lat="39.499427" lon="-5.109138">
        <ele>612.1</ele>
        <time>1970-01-01T00:00:00Z</time>
      </trkpt>
      <trkpt lat="39.499427" lon="-5.109138">
        <ele>612.1</ele>
        <time>1970-01-01T00:00:00Z</time>
      </trkpt>
      <trkpt lat="39.499427" lon="-5.109138">
        <ele>612.1</ele>
        <time>1970-01-01T00:00:00Z</time>
      </trkpt>
      <trkpt lat="39.499573" lon="-5.109078">
        <ele>613.8</ele>
        <time>1970-01-01T00:00:00Z</time>
      </trkpt>
      <trkpt lat="39.499573" lon="-5.109078">
        <ele>613.8</ele>
        <time>1970-01-01T00:00:00Z</time>
      </trkpt>
      <trkpt lat="39.499573" lon="-5.109078">
        <ele>613.8</ele>
        <time>1970-01-01T00:00:00Z</time>
      </trkpt>
      <trkpt lat="39.499573" lon="-5.109078">
        <ele>613.8</ele>
        <time>1970-01-01T00:00:00Z</time>
      </trkpt>
      <trkpt lat="39.499665" lon="-5.109049">
        <ele>614.8</ele>
        <time>1970-01-01T00:00:00Z</time>
      </trkpt>
      <trkpt lat="39.499665" lon="-5.109049">
        <ele>614.8</ele>
        <time>1970-01-01T00:00:00Z</time>
      </trkpt>
      <trkpt lat="39.499665" lon="-5.109049">
        <ele>614.8</ele>
        <time>1970-01-01T00:00:00Z</time>
      </trkpt>
      <trkpt lat="39.499665" lon="-5.109049">
        <ele>614.8</ele>
        <time>1970-01-01T00:00:00Z</time>
      </trkpt>
      <trkpt lat="39.499772" lon="-5.109019">
        <ele>615.9</ele>
        <time>1970-01-01T00:00:00Z</time>
      </trkpt>
      <trkpt lat="39.499772" lon="-5.109019">
        <ele>615.9</ele>
        <time>1970-01-01T00:00:00Z</time>
      </trkpt>
      <trkpt lat="39.499772" lon="-5.109019">
        <ele>615.9</ele>
        <time>1970-01-01T00:00:00Z</time>
      </trkpt>
      <trkpt lat="39.499772" lon="-5.109019">
        <ele>615.9</ele>
        <time>1970-01-01T00:00:00Z</time>
      </trkpt>
      <trkpt lat="39.499829" lon="-5.109007">
        <ele>616.4</ele>
        <time>1970-01-01T00:00:00Z</time>
      </trkpt>
      <trkpt lat="39.499829" lon="-5.109007">
        <ele>616.4</ele>
        <time>1970-01-01T00:00:00Z</time>
      </trkpt>
      <trkpt lat="39.499829" lon="-5.109007">
        <ele>616.4</ele>
        <time>1970-01-01T00:00:00Z</time>
      </trkpt>
      <trkpt lat="39.499829" lon="-5.109007">
        <ele>616.4</ele>
        <time>1970-01-01T00:00:00Z</time>
      </trkpt>
      <trkpt lat="39.499973" lon="-5.108970">
        <ele>617.8</ele>
        <time>1970-01-01T00:00:00Z</time>
      </trkpt>
      <trkpt lat="39.499973" lon="-5.108970">
        <ele>617.8</ele>
        <time>1970-01-01T00:00:00Z</time>
      </trkpt>
      <trkpt lat="39.499973" lon="-5.108970">
        <ele>617.8</ele>
        <time>1970-01-01T00:00:00Z</time>
      </trkpt>
      <trkpt lat="39.499973" lon="-5.108970">
        <ele>617.8</ele>
        <time>1970-01-01T00:00:00Z</time>
      </trkpt>
      <trkpt lat="39.500145" lon="-5.108963">
        <ele>620.1</ele>
        <time>1970-01-01T00:00:00Z</time>
      </trkpt>
      <trkpt lat="39.500145" lon="-5.108963">
        <ele>620.1</ele>
        <time>1970-01-01T00:00:00Z</time>
      </trkpt>
      <trkpt lat="39.500145" lon="-5.108963">
        <ele>620.1</ele>
        <time>1970-01-01T00:00:00Z</time>
      </trkpt>
      <trkpt lat="39.500145" lon="-5.108963">
        <ele>620.1</ele>
        <time>1970-01-01T00:00:00Z</time>
      </trkpt>
      <trkpt lat="39.500316" lon="-5.108980">
        <ele>622.7</ele>
        <time>1970-01-01T00:00:00Z</time>
      </trkpt>
      <trkpt lat="39.500316" lon="-5.108980">
        <ele>622.7</ele>
        <time>1970-01-01T00:00:00Z</time>
      </trkpt>
      <trkpt lat="39.500316" lon="-5.108980">
        <ele>622.7</ele>
        <time>1970-01-01T00:00:00Z</time>
      </trkpt>
      <trkpt lat="39.500316" lon="-5.108980">
        <ele>622.7</ele>
        <time>1970-01-01T00:00:00Z</time>
      </trkpt>
      <trkpt lat="39.500493" lon="-5.108990">
        <ele>625.6</ele>
        <time>1970-01-01T00:00:00Z</time>
      </trkpt>
      <trkpt lat="39.500493" lon="-5.108990">
        <ele>625.6</ele>
        <time>1970-01-01T00:00:00Z</time>
      </trkpt>
      <trkpt lat="39.500493" lon="-5.108990">
        <ele>625.6</ele>
        <time>1970-01-01T00:00:00Z</time>
      </trkpt>
      <trkpt lat="39.500493" lon="-5.108990">
        <ele>625.6</ele>
        <time>1970-01-01T00:00:00Z</time>
      </trkpt>
      <trkpt lat="39.500617" lon="-5.108977">
        <ele>627.4</ele>
        <time>1970-01-01T00:00:00Z</time>
      </trkpt>
      <trkpt lat="39.500617" lon="-5.108977">
        <ele>627.4</ele>
        <time>1970-01-01T00:00:00Z</time>
      </trkpt>
      <trkpt lat="39.500617" lon="-5.108977">
        <ele>627.4</ele>
        <time>1970-01-01T00:00:00Z</time>
      </trkpt>
      <trkpt lat="39.500617" lon="-5.108977">
        <ele>627.4</ele>
        <time>1970-01-01T00:00:00Z</time>
      </trkpt>
      <trkpt lat="39.500816" lon="-5.108936">
        <ele>630.5</ele>
        <time>1970-01-01T00:00:00Z</time>
      </trkpt>
      <trkpt lat="39.500816" lon="-5.108936">
        <ele>630.5</ele>
        <time>1970-01-01T00:00:00Z</time>
      </trkpt>
      <trkpt lat="39.500816" lon="-5.108936">
        <ele>630.5</ele>
        <time>1970-01-01T00:00:00Z</time>
      </trkpt>
      <trkpt lat="39.500816" lon="-5.108936">
        <ele>630.5</ele>
        <time>1970-01-01T00:00:00Z</time>
      </trkpt>
      <trkpt lat="39.500963" lon="-5.108908">
        <ele>632.8</ele>
        <time>1970-01-01T00:00:00Z</time>
      </trkpt>
      <trkpt lat="39.500963" lon="-5.108908">
        <ele>632.8</ele>
        <time>1970-01-01T00:00:00Z</time>
      </trkpt>
      <trkpt lat="39.500963" lon="-5.108908">
        <ele>632.8</ele>
        <time>1970-01-01T00:00:00Z</time>
      </trkpt>
      <trkpt lat="39.500963" lon="-5.108908">
        <ele>632.8</ele>
        <time>1970-01-01T00:00:00Z</time>
      </trkpt>
      <trkpt lat="39.501099" lon="-5.108898">
        <ele>634.8</ele>
        <time>1970-01-01T00:00:00Z</time>
      </trkpt>
      <trkpt lat="39.501099" lon="-5.108898">
        <ele>634.8</ele>
        <time>1970-01-01T00:00:00Z</time>
      </trkpt>
      <trkpt lat="39.501099" lon="-5.108898">
        <ele>634.8</ele>
        <time>1970-01-01T00:00:00Z</time>
      </trkpt>
      <trkpt lat="39.501099" lon="-5.108898">
        <ele>634.8</ele>
        <time>1970-01-01T00:00:00Z</time>
      </trkpt>
      <trkpt lat="39.501145" lon="-5.108880">
        <ele>635.4</ele>
        <time>1970-01-01T00:00:00Z</time>
      </trkpt>
      <trkpt lat="39.501145" lon="-5.108880">
        <ele>635.4</ele>
        <time>1970-01-01T00:00:00Z</time>
      </trkpt>
      <trkpt lat="39.501145" lon="-5.108880">
        <ele>635.4</ele>
        <time>1970-01-01T00:00:00Z</time>
      </trkpt>
      <trkpt lat="39.501145" lon="-5.108880">
        <ele>635.4</ele>
        <time>1970-01-01T00:00:00Z</time>
      </trkpt>
      <trkpt lat="39.501169" lon="-5.108846">
        <ele>635.8</ele>
        <time>1970-01-01T00:00:00Z</time>
      </trkpt>
      <trkpt lat="39.501169" lon="-5.108846">
        <ele>635.8</ele>
        <time>1970-01-01T00:00:00Z</time>
      </trkpt>
      <trkpt lat="39.501169" lon="-5.108846">
        <ele>635.8</ele>
        <time>1970-01-01T00:00:00Z</time>
      </trkpt>
      <trkpt lat="39.501169" lon="-5.108846">
        <ele>635.8</ele>
        <time>1970-01-01T00:00:00Z</time>
      </trkpt>
      <trkpt lat="39.501193" lon="-5.108773">
        <ele>636.3</ele>
        <time>1970-01-01T00:00:00Z</time>
      </trkpt>
      <trkpt lat="39.501193" lon="-5.108773">
        <ele>636.3</ele>
        <time>1970-01-01T00:00:00Z</time>
      </trkpt>
      <trkpt lat="39.501193" lon="-5.108773">
        <ele>636.3</ele>
        <time>1970-01-01T00:00:00Z</time>
      </trkpt>
      <trkpt lat="39.501193" lon="-5.108773">
        <ele>636.3</ele>
        <time>1970-01-01T00:00:00Z</time>
      </trkpt>
      <trkpt lat="39.501217" lon="-5.108621">
        <ele>637.2</ele>
        <time>1970-01-01T00:00:00Z</time>
      </trkpt>
      <trkpt lat="39.501217" lon="-5.108621">
        <ele>637.2</ele>
        <time>1970-01-01T00:00:00Z</time>
      </trkpt>
      <trkpt lat="39.501217" lon="-5.108621">
        <ele>637.2</ele>
        <time>1970-01-01T00:00:00Z</time>
      </trkpt>
      <trkpt lat="39.501217" lon="-5.108621">
        <ele>637.2</ele>
        <time>1970-01-01T00:00:00Z</time>
      </trkpt>
      <trkpt lat="39.501241" lon="-5.108439">
        <ele>638.4</ele>
        <time>1970-01-01T00:00:00Z</time>
      </trkpt>
      <trkpt lat="39.501241" lon="-5.108439">
        <ele>638.4</ele>
        <time>1970-01-01T00:00:00Z</time>
      </trkpt>
      <trkpt lat="39.501241" lon="-5.108439">
        <ele>638.4</ele>
        <time>1970-01-01T00:00:00Z</time>
      </trkpt>
      <trkpt lat="39.501241" lon="-5.108439">
        <ele>638.4</ele>
        <time>1970-01-01T00:00:00Z</time>
      </trkpt>
      <trkpt lat="39.501267" lon="-5.108356">
        <ele>639.8</ele>
        <time>1970-01-01T00:00:00Z</time>
      </trkpt>
      <trkpt lat="39.501267" lon="-5.108356">
        <ele>639.8</ele>
        <time>1970-01-01T00:00:00Z</time>
      </trkpt>
      <trkpt lat="39.501267" lon="-5.108356">
        <ele>639.8</ele>
        <time>1970-01-01T00:00:00Z</time>
      </trkpt>
      <trkpt lat="39.501267" lon="-5.108356">
        <ele>639.8</ele>
        <time>1970-01-01T00:00:00Z</time>
      </trkpt>
      <trkpt lat="39.501317" lon="-5.108307">
        <ele>641.4</ele>
        <time>1970-01-01T00:00:00Z</time>
      </trkpt>
      <trkpt lat="39.501317" lon="-5.108307">
        <ele>641.4</ele>
        <time>1970-01-01T00:00:00Z</time>
      </trkpt>
      <trkpt lat="39.501317" lon="-5.108307">
        <ele>641.4</ele>
        <time>1970-01-01T00:00:00Z</time>
      </trkpt>
      <trkpt lat="39.501317" lon="-5.108307">
        <ele>641.4</ele>
        <time>1970-01-01T00:00:00Z</time>
      </trkpt>
      <trkpt lat="39.501357" lon="-5.108307">
        <ele>642.2</ele>
        <time>1970-01-01T00:00:00Z</time>
      </trkpt>
      <trkpt lat="39.501357" lon="-5.108307">
        <ele>642.2</ele>
        <time>1970-01-01T00:00:00Z</time>
      </trkpt>
      <trkpt lat="39.501357" lon="-5.108307">
        <ele>642.2</ele>
        <time>1970-01-01T00:00:00Z</time>
      </trkpt>
      <trkpt lat="39.501357" lon="-5.108307">
        <ele>642.2</ele>
        <time>1970-01-01T00:00:00Z</time>
      </trkpt>
      <trkpt lat="39.501402" lon="-5.108312">
        <ele>643.0</ele>
        <time>1970-01-01T00:00:00Z</time>
      </trkpt>
      <trkpt lat="39.501402" lon="-5.108312">
        <ele>643.0</ele>
        <time>1970-01-01T00:00:00Z</time>
      </trkpt>
      <trkpt lat="39.501402" lon="-5.108312">
        <ele>643.0</ele>
        <time>1970-01-01T00:00:00Z</time>
      </trkpt>
      <trkpt lat="39.501402" lon="-5.108312">
        <ele>643.0</ele>
        <time>1970-01-01T00:00:00Z</time>
      </trkpt>
      <trkpt lat="39.501439" lon="-5.108354">
        <ele>643.3</ele>
        <time>1970-01-01T00:00:00Z</time>
      </trkpt>
      <trkpt lat="39.501439" lon="-5.108354">
        <ele>643.3</ele>
        <time>1970-01-01T00:00:00Z</time>
      </trkpt>
      <trkpt lat="39.501439" lon="-5.108354">
        <ele>643.3</ele>
        <time>1970-01-01T00:00:00Z</time>
      </trkpt>
      <trkpt lat="39.501439" lon="-5.108354">
        <ele>643.3</ele>
        <time>1970-01-01T00:00:00Z</time>
      </trkpt>
      <trkpt lat="39.501552" lon="-5.108507">
        <ele>644.1</ele>
        <time>1970-01-01T00:00:00Z</time>
      </trkpt>
      <trkpt lat="39.501552" lon="-5.108507">
        <ele>644.1</ele>
        <time>1970-01-01T00:00:00Z</time>
      </trkpt>
      <trkpt lat="39.501552" lon="-5.108507">
        <ele>644.1</ele>
        <time>1970-01-01T00:00:00Z</time>
      </trkpt>
      <trkpt lat="39.501552" lon="-5.108507">
        <ele>644.1</ele>
        <time>1970-01-01T00:00:00Z</time>
      </trkpt>
      <trkpt lat="39.501635" lon="-5.108654">
        <ele>643.7</ele>
        <time>1970-01-01T00:00:00Z</time>
      </trkpt>
      <trkpt lat="39.501635" lon="-5.108654">
        <ele>643.7</ele>
        <time>1970-01-01T00:00:00Z</time>
      </trkpt>
      <trkpt lat="39.501635" lon="-5.108654">
        <ele>643.7</ele>
        <time>1970-01-01T00:00:00Z</time>
      </trkpt>
      <trkpt lat="39.501635" lon="-5.108654">
        <ele>643.7</ele>
        <time>1970-01-01T00:00:00Z</time>
      </trkpt>
      <trkpt lat="39.501688" lon="-5.108729">
        <ele>644.1</ele>
        <time>1970-01-01T00:00:00Z</time>
      </trkpt>
      <trkpt lat="39.501688" lon="-5.108729">
        <ele>644.1</ele>
        <time>1970-01-01T00:00:00Z</time>
      </trkpt>
      <trkpt lat="39.501688" lon="-5.108729">
        <ele>644.1</ele>
        <time>1970-01-01T00:00:00Z</time>
      </trkpt>
      <trkpt lat="39.501688" lon="-5.108729">
        <ele>644.1</ele>
        <time>1970-01-01T00:00:00Z</time>
      </trkpt>
      <trkpt lat="39.501887" lon="-5.109023">
        <ele>646.2</ele>
        <time>1970-01-01T00:00:00Z</time>
      </trkpt>
      <trkpt lat="39.501887" lon="-5.109023">
        <ele>646.2</ele>
        <time>1970-01-01T00:00:00Z</time>
      </trkpt>
      <trkpt lat="39.501887" lon="-5.109023">
        <ele>646.2</ele>
        <time>1970-01-01T00:00:00Z</time>
      </trkpt>
      <trkpt lat="39.501887" lon="-5.109023">
        <ele>646.2</ele>
        <time>1970-01-01T00:00:00Z</time>
      </trkpt>
      <trkpt lat="39.502033" lon="-5.109192">
        <ele>647.6</ele>
        <time>1970-01-01T00:00:00Z</time>
      </trkpt>
      <trkpt lat="39.502033" lon="-5.109192">
        <ele>647.6</ele>
        <time>1970-01-01T00:00:00Z</time>
      </trkpt>
      <trkpt lat="39.502033" lon="-5.109192">
        <ele>647.6</ele>
        <time>1970-01-01T00:00:00Z</time>
      </trkpt>
      <trkpt lat="39.502033" lon="-5.109192">
        <ele>647.6</ele>
        <time>1970-01-01T00:00:00Z</time>
      </trkpt>
      <trkpt lat="39.502160" lon="-5.109332">
        <ele>649.4</ele>
        <time>1970-01-01T00:00:00Z</time>
      </trkpt>
      <trkpt lat="39.502160" lon="-5.109332">
        <ele>649.4</ele>
        <time>1970-01-01T00:00:00Z</time>
      </trkpt>
      <trkpt lat="39.502160" lon="-5.109332">
        <ele>649.4</ele>
        <time>1970-01-01T00:00:00Z</time>
      </trkpt>
      <trkpt lat="39.502160" lon="-5.109332">
        <ele>649.4</ele>
        <time>1970-01-01T00:00:00Z</time>
      </trkpt>
      <trkpt lat="39.502247" lon="-5.109406">
        <ele>651.1</ele>
        <time>1970-01-01T00:00:00Z</time>
      </trkpt>
      <trkpt lat="39.502247" lon="-5.109406">
        <ele>651.1</ele>
        <time>1970-01-01T00:00:00Z</time>
      </trkpt>
      <trkpt lat="39.502247" lon="-5.109406">
        <ele>651.1</ele>
        <time>1970-01-01T00:00:00Z</time>
      </trkpt>
      <trkpt lat="39.502247" lon="-5.109406">
        <ele>651.1</ele>
        <time>1970-01-01T00:00:00Z</time>
      </trkpt>
      <trkpt lat="39.502358" lon="-5.109493">
        <ele>653.4</ele>
        <time>1970-01-01T00:00:00Z</time>
      </trkpt>
      <trkpt lat="39.502358" lon="-5.109493">
        <ele>653.4</ele>
        <time>1970-01-01T00:00:00Z</time>
      </trkpt>
      <trkpt lat="39.502358" lon="-5.109493">
        <ele>653.4</ele>
        <time>1970-01-01T00:00:00Z</time>
      </trkpt>
      <trkpt lat="39.502358" lon="-5.109493">
        <ele>653.4</ele>
        <time>1970-01-01T00:00:00Z</time>
      </trkpt>
      <trkpt lat="39.502433" lon="-5.109577">
        <ele>655.0</ele>
        <time>1970-01-01T00:00:00Z</time>
      </trkpt>
      <trkpt lat="39.502433" lon="-5.109577">
        <ele>655.0</ele>
        <time>1970-01-01T00:00:00Z</time>
      </trkpt>
      <trkpt lat="39.502433" lon="-5.109577">
        <ele>655.0</ele>
        <time>1970-01-01T00:00:00Z</time>
      </trkpt>
      <trkpt lat="39.502433" lon="-5.109577">
        <ele>655.0</ele>
        <time>1970-01-01T00:00:00Z</time>
      </trkpt>
      <trkpt lat="39.502454" lon="-5.109597">
        <ele>655.6</ele>
        <time>1970-01-01T00:00:00Z</time>
      </trkpt>
      <trkpt lat="39.502454" lon="-5.109597">
        <ele>655.6</ele>
        <time>1970-01-01T00:00:00Z</time>
      </trkpt>
      <trkpt lat="39.502454" lon="-5.109597">
        <ele>655.6</ele>
        <time>1970-01-01T00:00:00Z</time>
      </trkpt>
      <trkpt lat="39.502454" lon="-5.109597">
        <ele>655.6</ele>
        <time>1970-01-01T00:00:00Z</time>
      </trkpt>
      <trkpt lat="39.502574" lon="-5.109672">
        <ele>658.4</ele>
        <time>1970-01-01T00:00:00Z</time>
      </trkpt>
      <trkpt lat="39.502574" lon="-5.109672">
        <ele>658.4</ele>
        <time>1970-01-01T00:00:00Z</time>
      </trkpt>
      <trkpt lat="39.502574" lon="-5.109672">
        <ele>658.4</ele>
        <time>1970-01-01T00:00:00Z</time>
      </trkpt>
      <trkpt lat="39.502574" lon="-5.109672">
        <ele>658.4</ele>
        <time>1970-01-01T00:00:00Z</time>
      </trkpt>
      <trkpt lat="39.502726" lon="-5.109825">
        <ele>662.3</ele>
        <time>1970-01-01T00:00:00Z</time>
      </trkpt>
      <trkpt lat="39.502726" lon="-5.109825">
        <ele>662.3</ele>
        <time>1970-01-01T00:00:00Z</time>
      </trkpt>
      <trkpt lat="39.502726" lon="-5.109825">
        <ele>662.3</ele>
        <time>1970-01-01T00:00:00Z</time>
      </trkpt>
      <trkpt lat="39.502726" lon="-5.109825">
        <ele>662.3</ele>
        <time>1970-01-01T00:00:00Z</time>
      </trkpt>
      <trkpt lat="39.502873" lon="-5.109971">
        <ele>666.1</ele>
        <time>1970-01-01T00:00:00Z</time>
      </trkpt>
      <trkpt lat="39.502873" lon="-5.109971">
        <ele>666.1</ele>
        <time>1970-01-01T00:00:00Z</time>
      </trkpt>
      <trkpt lat="39.502873" lon="-5.109971">
        <ele>666.1</ele>
        <time>1970-01-01T00:00:00Z</time>
      </trkpt>
      <trkpt lat="39.502873" lon="-5.109971">
        <ele>666.1</ele>
        <time>1970-01-01T00:00:00Z</time>
      </trkpt>
      <trkpt lat="39.502957" lon="-5.110092">
        <ele>668.2</ele>
        <time>1970-01-01T00:00:00Z</time>
      </trkpt>
      <trkpt lat="39.502957" lon="-5.110092">
        <ele>668.2</ele>
        <time>1970-01-01T00:00:00Z</time>
      </trkpt>
      <trkpt lat="39.502957" lon="-5.110092">
        <ele>668.2</ele>
        <time>1970-01-01T00:00:00Z</time>
      </trkpt>
      <trkpt lat="39.502957" lon="-5.110092">
        <ele>668.2</ele>
        <time>1970-01-01T00:00:00Z</time>
      </trkpt>
      <trkpt lat="39.503051" lon="-5.110295">
        <ele>670.5</ele>
        <time>1970-01-01T00:00:00Z</time>
      </trkpt>
      <trkpt lat="39.503051" lon="-5.110295">
        <ele>670.5</ele>
        <time>1970-01-01T00:00:00Z</time>
      </trkpt>
      <trkpt lat="39.503051" lon="-5.110295">
        <ele>670.5</ele>
        <time>1970-01-01T00:00:00Z</time>
      </trkpt>
      <trkpt lat="39.503051" lon="-5.110295">
        <ele>670.5</ele>
        <time>1970-01-01T00:00:00Z</time>
      </trkpt>
      <trkpt lat="39.503084" lon="-5.110379">
        <ele>671.6</ele>
        <time>1970-01-01T00:00:00Z</time>
      </trkpt>
      <trkpt lat="39.503084" lon="-5.110379">
        <ele>671.6</ele>
        <time>1970-01-01T00:00:00Z</time>
      </trkpt>
      <trkpt lat="39.503084" lon="-5.110379">
        <ele>671.6</ele>
        <time>1970-01-01T00:00:00Z</time>
      </trkpt>
      <trkpt lat="39.503084" lon="-5.110379">
        <ele>671.6</ele>
        <time>1970-01-01T00:00:00Z</time>
      </trkpt>
      <trkpt lat="39.503192" lon="-5.110611">
        <ele>673.4</ele>
        <time>1970-01-01T00:00:00Z</time>
      </trkpt>
      <trkpt lat="39.503192" lon="-5.110611">
        <ele>673.4</ele>
        <time>1970-01-01T00:00:00Z</time>
      </trkpt>
      <trkpt lat="39.503192" lon="-5.110611">
        <ele>673.4</ele>
        <time>1970-01-01T00:00:00Z</time>
      </trkpt>
      <trkpt lat="39.503192" lon="-5.110611">
        <ele>673.4</ele>
        <time>1970-01-01T00:00:00Z</time>
      </trkpt>
      <trkpt lat="39.503204" lon="-5.110647">
        <ele>673.5</ele>
        <time>1970-01-01T00:00:00Z</time>
      </trkpt>
      <trkpt lat="39.503204" lon="-5.110647">
        <ele>673.5</ele>
        <time>1970-01-01T00:00:00Z</time>
      </trkpt>
      <trkpt lat="39.503204" lon="-5.110647">
        <ele>673.5</ele>
        <time>1970-01-01T00:00:00Z</time>
      </trkpt>
      <trkpt lat="39.503204" lon="-5.110647">
        <ele>673.5</ele>
        <time>1970-01-01T00:00:00Z</time>
      </trkpt>
      <trkpt lat="39.503313" lon="-5.110839">
        <ele>674.7</ele>
        <time>1970-01-01T00:00:00Z</time>
      </trkpt>
      <trkpt lat="39.503313" lon="-5.110839">
        <ele>674.7</ele>
        <time>1970-01-01T00:00:00Z</time>
      </trkpt>
      <trkpt lat="39.503313" lon="-5.110839">
        <ele>674.7</ele>
        <time>1970-01-01T00:00:00Z</time>
      </trkpt>
      <trkpt lat="39.503313" lon="-5.110839">
        <ele>674.7</ele>
        <time>1970-01-01T00:00:00Z</time>
      </trkpt>
      <trkpt lat="39.503409" lon="-5.110940">
        <ele>675.2</ele>
        <time>1970-01-01T00:00:00Z</time>
      </trkpt>
      <trkpt lat="39.503409" lon="-5.110940">
        <ele>675.2</ele>
        <time>1970-01-01T00:00:00Z</time>
      </trkpt>
      <trkpt lat="39.503409" lon="-5.110940">
        <ele>675.2</ele>
        <time>1970-01-01T00:00:00Z</time>
      </trkpt>
      <trkpt lat="39.503409" lon="-5.110940">
        <ele>675.2</ele>
        <time>1970-01-01T00:00:00Z</time>
      </trkpt>
      <trkpt lat="39.503476" lon="-5.111011">
        <ele>675.5</ele>
        <time>1970-01-01T00:00:00Z</time>
      </trkpt>
      <trkpt lat="39.503476" lon="-5.111011">
        <ele>675.5</ele>
        <time>1970-01-01T00:00:00Z</time>
      </trkpt>
      <trkpt lat="39.503476" lon="-5.111011">
        <ele>675.5</ele>
        <time>1970-01-01T00:00:00Z</time>
      </trkpt>
      <trkpt lat="39.503476" lon="-5.111011">
        <ele>675.5</ele>
        <time>1970-01-01T00:00:00Z</time>
      </trkpt>
      <trkpt lat="39.503518" lon="-5.111042">
        <ele>675.7</ele>
        <time>1970-01-01T00:00:00Z</time>
      </trkpt>
      <trkpt lat="39.503518" lon="-5.111042">
        <ele>675.7</ele>
        <time>1970-01-01T00:00:00Z</time>
      </trkpt>
      <trkpt lat="39.503518" lon="-5.111042">
        <ele>675.7</ele>
        <time>1970-01-01T00:00:00Z</time>
      </trkpt>
      <trkpt lat="39.503518" lon="-5.111042">
        <ele>675.7</ele>
        <time>1970-01-01T00:00:00Z</time>
      </trkpt>
      <trkpt lat="39.503554" lon="-5.111048">
        <ele>675.9</ele>
        <time>1970-01-01T00:00:00Z</time>
      </trkpt>
      <trkpt lat="39.503554" lon="-5.111048">
        <ele>675.9</ele>
        <time>1970-01-01T00:00:00Z</time>
      </trkpt>
      <trkpt lat="39.503554" lon="-5.111048">
        <ele>675.9</ele>
        <time>1970-01-01T00:00:00Z</time>
      </trkpt>
      <trkpt lat="39.503554" lon="-5.111048">
        <ele>675.9</ele>
        <time>1970-01-01T00:00:00Z</time>
      </trkpt>
      <trkpt lat="39.503560" lon="-5.111048">
        <ele>675.9</ele>
        <time>1970-01-01T00:00:00Z</time>
      </trkpt>
      <trkpt lat="39.503560" lon="-5.111048">
        <ele>675.9</ele>
        <time>1970-01-01T00:00:00Z</time>
      </trkpt>
      <trkpt lat="39.503560" lon="-5.111048">
        <ele>675.9</ele>
        <time>1970-01-01T00:00:00Z</time>
      </trkpt>
      <trkpt lat="39.503560" lon="-5.111048">
        <ele>675.9</ele>
        <time>1970-01-01T00:00:00Z</time>
      </trkpt>
      <trkpt lat="39.503562" lon="-5.111048">
        <ele>675.9</ele>
        <time>1970-01-01T00:00:00Z</time>
      </trkpt>
      <trkpt lat="39.503562" lon="-5.111048">
        <ele>675.9</ele>
        <time>1970-01-01T00:00:00Z</time>
      </trkpt>
      <trkpt lat="39.503562" lon="-5.111048">
        <ele>675.9</ele>
        <time>1970-01-01T00:00:00Z</time>
      </trkpt>
      <trkpt lat="39.503562" lon="-5.111048">
        <ele>675.9</ele>
        <time>1970-01-01T00:00:00Z</time>
      </trkpt>
      <trkpt lat="39.503626" lon="-5.111053">
        <ele>676.2</ele>
        <time>1970-01-01T00:00:00Z</time>
      </trkpt>
      <trkpt lat="39.503626" lon="-5.111053">
        <ele>676.2</ele>
        <time>1970-01-01T00:00:00Z</time>
      </trkpt>
      <trkpt lat="39.503626" lon="-5.111053">
        <ele>676.2</ele>
        <time>1970-01-01T00:00:00Z</time>
      </trkpt>
      <trkpt lat="39.503626" lon="-5.111053">
        <ele>676.2</ele>
        <time>1970-01-01T00:00:00Z</time>
      </trkpt>
      <trkpt lat="39.503696" lon="-5.111082">
        <ele>676.5</ele>
        <time>1970-01-01T00:00:00Z</time>
      </trkpt>
      <trkpt lat="39.503696" lon="-5.111082">
        <ele>676.5</ele>
        <time>1970-01-01T00:00:00Z</time>
      </trkpt>
      <trkpt lat="39.503696" lon="-5.111082">
        <ele>676.5</ele>
        <time>1970-01-01T00:00:00Z</time>
      </trkpt>
      <trkpt lat="39.503696" lon="-5.111082">
        <ele>676.5</ele>
        <time>1970-01-01T00:00:00Z</time>
      </trkpt>
      <trkpt lat="39.503855" lon="-5.111148">
        <ele>677.4</ele>
        <time>1970-01-01T00:00:00Z</time>
      </trkpt>
      <trkpt lat="39.503855" lon="-5.111148">
        <ele>677.4</ele>
        <time>1970-01-01T00:00:00Z</time>
      </trkpt>
      <trkpt lat="39.503855" lon="-5.111148">
        <ele>677.4</ele>
        <time>1970-01-01T00:00:00Z</time>
      </trkpt>
      <trkpt lat="39.503855" lon="-5.111148">
        <ele>677.4</ele>
        <time>1970-01-01T00:00:00Z</time>
      </trkpt>
      <trkpt lat="39.504227" lon="-5.111251">
        <ele>683.1</ele>
        <time>1970-01-01T00:00:00Z</time>
      </trkpt>
      <trkpt lat="39.504227" lon="-5.111251">
        <ele>683.1</ele>
        <time>1970-01-01T00:00:00Z</time>
      </trkpt>
      <trkpt lat="39.504227" lon="-5.111251">
        <ele>683.1</ele>
        <time>1970-01-01T00:00:00Z</time>
      </trkpt>
      <trkpt lat="39.504227" lon="-5.111251">
        <ele>683.1</ele>
        <time>1970-01-01T00:00:00Z</time>
      </trkpt>
      <trkpt lat="39.504339" lon="-5.111276">
        <ele>685.2</ele>
        <time>1970-01-01T00:00:00Z</time>
      </trkpt>
      <trkpt lat="39.504339" lon="-5.111276">
        <ele>685.2</ele>
        <time>1970-01-01T00:00:00Z</time>
      </trkpt>
      <trkpt lat="39.504339" lon="-5.111276">
        <ele>685.2</ele>
        <time>1970-01-01T00:00:00Z</time>
      </trkpt>
      <trkpt lat="39.504339" lon="-5.111276">
        <ele>685.2</ele>
        <time>1970-01-01T00:00:00Z</time>
      </trkpt>
      <trkpt lat="39.504483" lon="-5.111313">
        <ele>688.4</ele>
        <time>1970-01-01T00:00:00Z</time>
      </trkpt>
      <trkpt lat="39.504483" lon="-5.111313">
        <ele>688.4</ele>
        <time>1970-01-01T00:00:00Z</time>
      </trkpt>
      <trkpt lat="39.504483" lon="-5.111313">
        <ele>688.4</ele>
        <time>1970-01-01T00:00:00Z</time>
      </trkpt>
      <trkpt lat="39.504483" lon="-5.111313">
        <ele>688.4</ele>
        <time>1970-01-01T00:00:00Z</time>
      </trkpt>
      <trkpt lat="39.504799" lon="-5.111430">
        <ele>695.0</ele>
        <time>1970-01-01T00:00:00Z</time>
      </trkpt>
      <trkpt lat="39.504799" lon="-5.111430">
        <ele>695.0</ele>
        <time>1970-01-01T00:00:00Z</time>
      </trkpt>
      <trkpt lat="39.504799" lon="-5.111430">
        <ele>695.0</ele>
        <time>1970-01-01T00:00:00Z</time>
      </trkpt>
      <trkpt lat="39.504799" lon="-5.111430">
        <ele>695.0</ele>
        <time>1970-01-01T00:00:00Z</time>
      </trkpt>
      <trkpt lat="39.504879" lon="-5.111481">
        <ele>696.3</ele>
        <time>1970-01-01T00:00:00Z</time>
      </trkpt>
      <trkpt lat="39.504879" lon="-5.111481">
        <ele>696.3</ele>
        <time>1970-01-01T00:00:00Z</time>
      </trkpt>
      <trkpt lat="39.504879" lon="-5.111481">
        <ele>696.3</ele>
        <time>1970-01-01T00:00:00Z</time>
      </trkpt>
      <trkpt lat="39.504879" lon="-5.111481">
        <ele>696.3</ele>
        <time>1970-01-01T00:00:00Z</time>
      </trkpt>
      <trkpt lat="39.504907" lon="-5.111524">
        <ele>696.8</ele>
        <time>1970-01-01T00:00:00Z</time>
      </trkpt>
      <trkpt lat="39.504907" lon="-5.111524">
        <ele>696.8</ele>
        <time>1970-01-01T00:00:00Z</time>
      </trkpt>
      <trkpt lat="39.504907" lon="-5.111524">
        <ele>696.8</ele>
        <time>1970-01-01T00:00:00Z</time>
      </trkpt>
      <trkpt lat="39.504907" lon="-5.111524">
        <ele>696.8</ele>
        <time>1970-01-01T00:00:00Z</time>
      </trkpt>
      <trkpt lat="39.504952" lon="-5.111641">
        <ele>697.6</ele>
        <time>1970-01-01T00:00:00Z</time>
      </trkpt>
      <trkpt lat="39.504952" lon="-5.111641">
        <ele>697.6</ele>
        <time>1970-01-01T00:00:00Z</time>
      </trkpt>
      <trkpt lat="39.504952" lon="-5.111641">
        <ele>697.6</ele>
        <time>1970-01-01T00:00:00Z</time>
      </trkpt>
      <trkpt lat="39.504952" lon="-5.111641">
        <ele>697.6</ele>
        <time>1970-01-01T00:00:00Z</time>
      </trkpt>
      <trkpt lat="39.505025" lon="-5.111825">
        <ele>698.6</ele>
        <time>1970-01-01T00:00:00Z</time>
      </trkpt>
      <trkpt lat="39.505025" lon="-5.111825">
        <ele>698.6</ele>
        <time>1970-01-01T00:00:00Z</time>
      </trkpt>
      <trkpt lat="39.505025" lon="-5.111825">
        <ele>698.6</ele>
        <time>1970-01-01T00:00:00Z</time>
      </trkpt>
      <trkpt lat="39.505025" lon="-5.111825">
        <ele>698.6</ele>
        <time>1970-01-01T00:00:00Z</time>
      </trkpt>
      <trkpt lat="39.505119" lon="-5.111984">
        <ele>700.2</ele>
        <time>1970-01-01T00:00:00Z</time>
      </trkpt>
      <trkpt lat="39.505119" lon="-5.111984">
        <ele>700.2</ele>
        <time>1970-01-01T00:00:00Z</time>
      </trkpt>
      <trkpt lat="39.505119" lon="-5.111984">
        <ele>700.2</ele>
        <time>1970-01-01T00:00:00Z</time>
      </trkpt>
      <trkpt lat="39.505119" lon="-5.111984">
        <ele>700.2</ele>
        <time>1970-01-01T00:00:00Z</time>
      </trkpt>
      <trkpt lat="39.505188" lon="-5.112128">
        <ele>701.7</ele>
        <time>1970-01-01T00:00:00Z</time>
      </trkpt>
      <trkpt lat="39.505188" lon="-5.112128">
        <ele>701.7</ele>
        <time>1970-01-01T00:00:00Z</time>
      </trkpt>
      <trkpt lat="39.505188" lon="-5.112128">
        <ele>701.7</ele>
        <time>1970-01-01T00:00:00Z</time>
      </trkpt>
      <trkpt lat="39.505188" lon="-5.112128">
        <ele>701.7</ele>
        <time>1970-01-01T00:00:00Z</time>
      </trkpt>
      <trkpt lat="39.505269" lon="-5.112262">
        <ele>702.8</ele>
        <time>1970-01-01T00:00:00Z</time>
      </trkpt>
      <trkpt lat="39.505269" lon="-5.112262">
        <ele>702.8</ele>
        <time>1970-01-01T00:00:00Z</time>
      </trkpt>
      <trkpt lat="39.505269" lon="-5.112262">
        <ele>702.8</ele>
        <time>1970-01-01T00:00:00Z</time>
      </trkpt>
      <trkpt lat="39.505269" lon="-5.112262">
        <ele>702.8</ele>
        <time>1970-01-01T00:00:00Z</time>
      </trkpt>
      <trkpt lat="39.505393" lon="-5.112447">
        <ele>705.1</ele>
        <time>1970-01-01T00:00:00Z</time>
      </trkpt>
      <trkpt lat="39.505393" lon="-5.112447">
        <ele>705.1</ele>
        <time>1970-01-01T00:00:00Z</time>
      </trkpt>
      <trkpt lat="39.505393" lon="-5.112447">
        <ele>705.1</ele>
        <time>1970-01-01T00:00:00Z</time>
      </trkpt>
      <trkpt lat="39.505393" lon="-5.112447">
        <ele>705.1</ele>
        <time>1970-01-01T00:00:00Z</time>
      </trkpt>
      <trkpt lat="39.505482" lon="-5.112580">
        <ele>707.6</ele>
        <time>1970-01-01T00:00:00Z</time>
      </trkpt>
      <trkpt lat="39.505482" lon="-5.112580">
        <ele>707.6</ele>
        <time>1970-01-01T00:00:00Z</time>
      </trkpt>
      <trkpt lat="39.505482" lon="-5.112580">
        <ele>707.6</ele>
        <time>1970-01-01T00:00:00Z</time>
      </trkpt>
      <trkpt lat="39.505482" lon="-5.112580">
        <ele>707.6</ele>
        <time>1970-01-01T00:00:00Z</time>
      </trkpt>
      <trkpt lat="39.505553" lon="-5.112694">
        <ele>709.8</ele>
        <time>1970-01-01T00:00:00Z</time>
      </trkpt>
      <trkpt lat="39.505553" lon="-5.112694">
        <ele>709.8</ele>
        <time>1970-01-01T00:00:00Z</time>
      </trkpt>
      <trkpt lat="39.505553" lon="-5.112694">
        <ele>709.8</ele>
        <time>1970-01-01T00:00:00Z</time>
      </trkpt>
      <trkpt lat="39.505553" lon="-5.112694">
        <ele>709.8</ele>
        <time>1970-01-01T00:00:00Z</time>
      </trkpt>
      <trkpt lat="39.505639" lon="-5.112864">
        <ele>712.8</ele>
        <time>1970-01-01T00:00:00Z</time>
      </trkpt>
      <trkpt lat="39.505639" lon="-5.112864">
        <ele>712.8</ele>
        <time>1970-01-01T00:00:00Z</time>
      </trkpt>
      <trkpt lat="39.505639" lon="-5.112864">
        <ele>712.8</ele>
        <time>1970-01-01T00:00:00Z</time>
      </trkpt>
      <trkpt lat="39.505639" lon="-5.112864">
        <ele>712.8</ele>
        <time>1970-01-01T00:00:00Z</time>
      </trkpt>
      <trkpt lat="39.505765" lon="-5.113097">
        <ele>716.1</ele>
        <time>1970-01-01T00:00:00Z</time>
      </trkpt>
      <trkpt lat="39.505765" lon="-5.113097">
        <ele>716.1</ele>
        <time>1970-01-01T00:00:00Z</time>
      </trkpt>
      <trkpt lat="39.505765" lon="-5.113097">
        <ele>716.1</ele>
        <time>1970-01-01T00:00:00Z</time>
      </trkpt>
      <trkpt lat="39.505765" lon="-5.113097">
        <ele>716.1</ele>
        <time>1970-01-01T00:00:00Z</time>
      </trkpt>
      <trkpt lat="39.505811" lon="-5.113157">
        <ele>716.9</ele>
        <time>1970-01-01T00:00:00Z</time>
      </trkpt>
      <trkpt lat="39.505811" lon="-5.113157">
        <ele>716.9</ele>
        <time>1970-01-01T00:00:00Z</time>
      </trkpt>
      <trkpt lat="39.505811" lon="-5.113157">
        <ele>716.9</ele>
        <time>1970-01-01T00:00:00Z</time>
      </trkpt>
      <trkpt lat="39.505811" lon="-5.113157">
        <ele>716.9</ele>
        <time>1970-01-01T00:00:00Z</time>
      </trkpt>
      <trkpt lat="39.505876" lon="-5.113197">
        <ele>717.9</ele>
        <time>1970-01-01T00:00:00Z</time>
      </trkpt>
      <trkpt lat="39.505876" lon="-5.113197">
        <ele>717.9</ele>
        <time>1970-01-01T00:00:00Z</time>
      </trkpt>
      <trkpt lat="39.505876" lon="-5.113197">
        <ele>717.9</ele>
        <time>1970-01-01T00:00:00Z</time>
      </trkpt>
      <trkpt lat="39.505876" lon="-5.113197">
        <ele>717.9</ele>
        <time>1970-01-01T00:00:00Z</time>
      </trkpt>
      <trkpt lat="39.506010" lon="-5.113279">
        <ele>719.9</ele>
        <time>1970-01-01T00:00:00Z</time>
      </trkpt>
      <trkpt lat="39.506010" lon="-5.113279">
        <ele>719.9</ele>
        <time>1970-01-01T00:00:00Z</time>
      </trkpt>
      <trkpt lat="39.506010" lon="-5.113279">
        <ele>719.9</ele>
        <time>1970-01-01T00:00:00Z</time>
      </trkpt>
      <trkpt lat="39.506010" lon="-5.113279">
        <ele>719.9</ele>
        <time>1970-01-01T00:00:00Z</time>
      </trkpt>
      <trkpt lat="39.506063" lon="-5.113320">
        <ele>720.5</ele>
        <time>1970-01-01T00:00:00Z</time>
      </trkpt>
      <trkpt lat="39.506063" lon="-5.113320">
        <ele>720.5</ele>
        <time>1970-01-01T00:00:00Z</time>
      </trkpt>
      <trkpt lat="39.506063" lon="-5.113320">
        <ele>720.5</ele>
        <time>1970-01-01T00:00:00Z</time>
      </trkpt>
      <trkpt lat="39.506063" lon="-5.113320">
        <ele>720.5</ele>
        <time>1970-01-01T00:00:00Z</time>
      </trkpt>
      <trkpt lat="39.506167" lon="-5.113417">
        <ele>722.1</ele>
        <time>1970-01-01T00:00:00Z</time>
      </trkpt>
      <trkpt lat="39.506167" lon="-5.113417">
        <ele>722.1</ele>
        <time>1970-01-01T00:00:00Z</time>
      </trkpt>
      <trkpt lat="39.506167" lon="-5.113417">
        <ele>722.1</ele>
        <time>1970-01-01T00:00:00Z</time>
      </trkpt>
      <trkpt lat="39.506167" lon="-5.113417">
        <ele>722.1</ele>
        <time>1970-01-01T00:00:00Z</time>
      </trkpt>
      <trkpt lat="39.506237" lon="-5.113504">
        <ele>723.3</ele>
        <time>1970-01-01T00:00:00Z</time>
      </trkpt>
      <trkpt lat="39.506237" lon="-5.113504">
        <ele>723.3</ele>
        <time>1970-01-01T00:00:00Z</time>
      </trkpt>
      <trkpt lat="39.506237" lon="-5.113504">
        <ele>723.3</ele>
        <time>1970-01-01T00:00:00Z</time>
      </trkpt>
      <trkpt lat="39.506237" lon="-5.113504">
        <ele>723.3</ele>
        <time>1970-01-01T00:00:00Z</time>
      </trkpt>
      <trkpt lat="39.506294" lon="-5.113604">
        <ele>723.9</ele>
        <time>1970-01-01T00:00:00Z</time>
      </trkpt>
      <trkpt lat="39.506294" lon="-5.113604">
        <ele>723.9</ele>
        <time>1970-01-01T00:00:00Z</time>
      </trkpt>
      <trkpt lat="39.506294" lon="-5.113604">
        <ele>723.9</ele>
        <time>1970-01-01T00:00:00Z</time>
      </trkpt>
      <trkpt lat="39.506294" lon="-5.113604">
        <ele>723.9</ele>
        <time>1970-01-01T00:00:00Z</time>
      </trkpt>
      <trkpt lat="39.506366" lon="-5.113775">
        <ele>724.1</ele>
        <time>1970-01-01T00:00:00Z</time>
      </trkpt>
      <trkpt lat="39.506366" lon="-5.113775">
        <ele>724.1</ele>
        <time>1970-01-01T00:00:00Z</time>
      </trkpt>
      <trkpt lat="39.506366" lon="-5.113775">
        <ele>724.1</ele>
        <time>1970-01-01T00:00:00Z</time>
      </trkpt>
      <trkpt lat="39.506366" lon="-5.113775">
        <ele>724.1</ele>
        <time>1970-01-01T00:00:00Z</time>
      </trkpt>
      <trkpt lat="39.506445" lon="-5.113908">
        <ele>725.6</ele>
        <time>1970-01-01T00:00:00Z</time>
      </trkpt>
      <trkpt lat="39.506445" lon="-5.113908">
        <ele>725.6</ele>
        <time>1970-01-01T00:00:00Z</time>
      </trkpt>
      <trkpt lat="39.506445" lon="-5.113908">
        <ele>725.6</ele>
        <time>1970-01-01T00:00:00Z</time>
      </trkpt>
      <trkpt lat="39.506445" lon="-5.113908">
        <ele>725.6</ele>
        <time>1970-01-01T00:00:00Z</time>
      </trkpt>
      <trkpt lat="39.506525" lon="-5.114001">
        <ele>726.3</ele>
        <time>1970-01-01T00:00:00Z</time>
      </trkpt>
      <trkpt lat="39.506525" lon="-5.114001">
        <ele>726.3</ele>
        <time>1970-01-01T00:00:00Z</time>
      </trkpt>
      <trkpt lat="39.506525" lon="-5.114001">
        <ele>726.3</ele>
        <time>1970-01-01T00:00:00Z</time>
      </trkpt>
      <trkpt lat="39.506525" lon="-5.114001">
        <ele>726.3</ele>
        <time>1970-01-01T00:00:00Z</time>
      </trkpt>
      <trkpt lat="39.506640" lon="-5.114128">
        <ele>726.7</ele>
        <time>1970-01-01T00:00:00Z</time>
      </trkpt>
      <trkpt lat="39.506640" lon="-5.114128">
        <ele>726.7</ele>
        <time>1970-01-01T00:00:00Z</time>
      </trkpt>
      <trkpt lat="39.506640" lon="-5.114128">
        <ele>726.7</ele>
        <time>1970-01-01T00:00:00Z</time>
      </trkpt>
      <trkpt lat="39.506640" lon="-5.114128">
        <ele>726.7</ele>
        <time>1970-01-01T00:00:00Z</time>
      </trkpt>
      <trkpt lat="39.506735" lon="-5.114212">
        <ele>726.6</ele>
        <time>1970-01-01T00:00:00Z</time>
      </trkpt>
      <trkpt lat="39.506735" lon="-5.114212">
        <ele>726.6</ele>
        <time>1970-01-01T00:00:00Z</time>
      </trkpt>
      <trkpt lat="39.506735" lon="-5.114212">
        <ele>726.6</ele>
        <time>1970-01-01T00:00:00Z</time>
      </trkpt>
      <trkpt lat="39.506735" lon="-5.114212">
        <ele>726.6</ele>
        <time>1970-01-01T00:00:00Z</time>
      </trkpt>
      <trkpt lat="39.506920" lon="-5.114296">
        <ele>725.8</ele>
        <time>1970-01-01T00:00:00Z</time>
      </trkpt>
      <trkpt lat="39.506920" lon="-5.114296">
        <ele>725.8</ele>
        <time>1970-01-01T00:00:00Z</time>
      </trkpt>
      <trkpt lat="39.506920" lon="-5.114296">
        <ele>725.8</ele>
        <time>1970-01-01T00:00:00Z</time>
      </trkpt>
      <trkpt lat="39.506920" lon="-5.114296">
        <ele>725.8</ele>
        <time>1970-01-01T00:00:00Z</time>
      </trkpt>
      <trkpt lat="39.507161" lon="-5.114365">
        <ele>725.5</ele>
        <time>1970-01-01T00:00:00Z</time>
      </trkpt>
      <trkpt lat="39.507161" lon="-5.114365">
        <ele>725.5</ele>
        <time>1970-01-01T00:00:00Z</time>
      </trkpt>
      <trkpt lat="39.507161" lon="-5.114365">
        <ele>725.5</ele>
        <time>1970-01-01T00:00:00Z</time>
      </trkpt>
      <trkpt lat="39.507161" lon="-5.114365">
        <ele>725.5</ele>
        <time>1970-01-01T00:00:00Z</time>
      </trkpt>
      <trkpt lat="39.507457" lon="-5.114431">
        <ele>728.0</ele>
        <time>1970-01-01T00:00:00Z</time>
      </trkpt>
      <trkpt lat="39.507457" lon="-5.114431">
        <ele>728.0</ele>
        <time>1970-01-01T00:00:00Z</time>
      </trkpt>
      <trkpt lat="39.507457" lon="-5.114431">
        <ele>728.0</ele>
        <time>1970-01-01T00:00:00Z</time>
      </trkpt>
      <trkpt lat="39.507457" lon="-5.114431">
        <ele>728.0</ele>
        <time>1970-01-01T00:00:00Z</time>
      </trkpt>
      <trkpt lat="39.507768" lon="-5.114504">
        <ele>733.2</ele>
        <time>1970-01-01T00:00:00Z</time>
      </trkpt>
      <trkpt lat="39.507768" lon="-5.114504">
        <ele>733.2</ele>
        <time>1970-01-01T00:00:00Z</time>
      </trkpt>
      <trkpt lat="39.507768" lon="-5.114504">
        <ele>733.2</ele>
        <time>1970-01-01T00:00:00Z</time>
      </trkpt>
      <trkpt lat="39.507768" lon="-5.114504">
        <ele>733.2</ele>
        <time>1970-01-01T00:00:00Z</time>
      </trkpt>
      <trkpt lat="39.507952" lon="-5.114537">
        <ele>735.5</ele>
        <time>1970-01-01T00:00:00Z</time>
      </trkpt>
      <trkpt lat="39.507952" lon="-5.114537">
        <ele>735.5</ele>
        <time>1970-01-01T00:00:00Z</time>
      </trkpt>
      <trkpt lat="39.507952" lon="-5.114537">
        <ele>735.5</ele>
        <time>1970-01-01T00:00:00Z</time>
      </trkpt>
      <trkpt lat="39.507952" lon="-5.114537">
        <ele>735.5</ele>
        <time>1970-01-01T00:00:00Z</time>
      </trkpt>
      <trkpt lat="39.508152" lon="-5.114562">
        <ele>738.0</ele>
        <time>1970-01-01T00:00:00Z</time>
      </trkpt>
      <trkpt lat="39.508152" lon="-5.114562">
        <ele>738.0</ele>
        <time>1970-01-01T00:00:00Z</time>
      </trkpt>
      <trkpt lat="39.508152" lon="-5.114562">
        <ele>738.0</ele>
        <time>1970-01-01T00:00:00Z</time>
      </trkpt>
      <trkpt lat="39.508152" lon="-5.114562">
        <ele>738.0</ele>
        <time>1970-01-01T00:00:00Z</time>
      </trkpt>
      <trkpt lat="39.508350" lon="-5.114576">
        <ele>740.1</ele>
        <time>1970-01-01T00:00:00Z</time>
      </trkpt>
      <trkpt lat="39.508350" lon="-5.114576">
        <ele>740.1</ele>
        <time>1970-01-01T00:00:00Z</time>
      </trkpt>
      <trkpt lat="39.508350" lon="-5.114576">
        <ele>740.1</ele>
        <time>1970-01-01T00:00:00Z</time>
      </trkpt>
      <trkpt lat="39.508350" lon="-5.114576">
        <ele>740.1</ele>
        <time>1970-01-01T00:00:00Z</time>
      </trkpt>
      <trkpt lat="39.508560" lon="-5.114586">
        <ele>742.2</ele>
        <time>1970-01-01T00:00:00Z</time>
      </trkpt>
      <trkpt lat="39.508560" lon="-5.114586">
        <ele>742.2</ele>
        <time>1970-01-01T00:00:00Z</time>
      </trkpt>
      <trkpt lat="39.508560" lon="-5.114586">
        <ele>742.2</ele>
        <time>1970-01-01T00:00:00Z</time>
      </trkpt>
      <trkpt lat="39.508560" lon="-5.114586">
        <ele>742.2</ele>
        <time>1970-01-01T00:00:00Z</time>
      </trkpt>
      <trkpt lat="39.508707" lon="-5.114610">
        <ele>743.5</ele>
        <time>1970-01-01T00:00:00Z</time>
      </trkpt>
      <trkpt lat="39.508707" lon="-5.114610">
        <ele>743.5</ele>
        <time>1970-01-01T00:00:00Z</time>
      </trkpt>
      <trkpt lat="39.508707" lon="-5.114610">
        <ele>743.5</ele>
        <time>1970-01-01T00:00:00Z</time>
      </trkpt>
      <trkpt lat="39.508707" lon="-5.114610">
        <ele>743.5</ele>
        <time>1970-01-01T00:00:00Z</time>
      </trkpt>
      <trkpt lat="39.508795" lon="-5.114667">
        <ele>743.6</ele>
        <time>1970-01-01T00:00:00Z</time>
      </trkpt>
      <trkpt lat="39.508795" lon="-5.114667">
        <ele>743.6</ele>
        <time>1970-01-01T00:00:00Z</time>
      </trkpt>
      <trkpt lat="39.508795" lon="-5.114667">
        <ele>743.6</ele>
        <time>1970-01-01T00:00:00Z</time>
      </trkpt>
      <trkpt lat="39.508795" lon="-5.114667">
        <ele>743.6</ele>
        <time>1970-01-01T00:00:00Z</time>
      </trkpt>
      <trkpt lat="39.508867" lon="-5.114755">
        <ele>743.1</ele>
        <time>1970-01-01T00:00:00Z</time>
      </trkpt>
      <trkpt lat="39.508867" lon="-5.114755">
        <ele>743.1</ele>
        <time>1970-01-01T00:00:00Z</time>
      </trkpt>
      <trkpt lat="39.508867" lon="-5.114755">
        <ele>743.1</ele>
        <time>1970-01-01T00:00:00Z</time>
      </trkpt>
      <trkpt lat="39.508867" lon="-5.114755">
        <ele>743.1</ele>
        <time>1970-01-01T00:00:00Z</time>
      </trkpt>
      <trkpt lat="39.508992" lon="-5.114940">
        <ele>742.0</ele>
        <time>1970-01-01T00:00:00Z</time>
      </trkpt>
      <trkpt lat="39.508992" lon="-5.114940">
        <ele>742.0</ele>
        <time>1970-01-01T00:00:00Z</time>
      </trkpt>
      <trkpt lat="39.508992" lon="-5.114940">
        <ele>742.0</ele>
        <time>1970-01-01T00:00:00Z</time>
      </trkpt>
      <trkpt lat="39.508992" lon="-5.114940">
        <ele>742.0</ele>
        <time>1970-01-01T00:00:00Z</time>
      </trkpt>
      <trkpt lat="39.509107" lon="-5.115128">
        <ele>741.5</ele>
        <time>1970-01-01T00:00:00Z</time>
      </trkpt>
      <trkpt lat="39.509107" lon="-5.115128">
        <ele>741.5</ele>
        <time>1970-01-01T00:00:00Z</time>
      </trkpt>
      <trkpt lat="39.509107" lon="-5.115128">
        <ele>741.5</ele>
        <time>1970-01-01T00:00:00Z</time>
      </trkpt>
      <trkpt lat="39.509107" lon="-5.115128">
        <ele>741.5</ele>
        <time>1970-01-01T00:00:00Z</time>
      </trkpt>
      <trkpt lat="39.509261" lon="-5.115350">
        <ele>742.2</ele>
        <time>1970-01-01T00:00:00Z</time>
      </trkpt>
      <trkpt lat="39.509261" lon="-5.115350">
        <ele>742.2</ele>
        <time>1970-01-01T00:00:00Z</time>
      </trkpt>
      <trkpt lat="39.509261" lon="-5.115350">
        <ele>742.2</ele>
        <time>1970-01-01T00:00:00Z</time>
      </trkpt>
      <trkpt lat="39.509261" lon="-5.115350">
        <ele>742.2</ele>
        <time>1970-01-01T00:00:00Z</time>
      </trkpt>
      <trkpt lat="39.509288" lon="-5.115388">
        <ele>742.3</ele>
        <time>1970-01-01T00:00:00Z</time>
      </trkpt>
      <trkpt lat="39.509288" lon="-5.115388">
        <ele>742.3</ele>
        <time>1970-01-01T00:00:00Z</time>
      </trkpt>
      <trkpt lat="39.509288" lon="-5.115388">
        <ele>742.3</ele>
        <time>1970-01-01T00:00:00Z</time>
      </trkpt>
      <trkpt lat="39.509288" lon="-5.115388">
        <ele>742.3</ele>
        <time>1970-01-01T00:00:00Z</time>
      </trkpt>
      <trkpt lat="39.509412" lon="-5.115564">
        <ele>742.1</ele>
        <time>1970-01-01T00:00:00Z</time>
      </trkpt>
      <trkpt lat="39.509412" lon="-5.115564">
        <ele>742.1</ele>
        <time>1970-01-01T00:00:00Z</time>
      </trkpt>
      <trkpt lat="39.509412" lon="-5.115564">
        <ele>742.1</ele>
        <time>1970-01-01T00:00:00Z</time>
      </trkpt>
      <trkpt lat="39.509412" lon="-5.115564">
        <ele>742.1</ele>
        <time>1970-01-01T00:00:00Z</time>
      </trkpt>
      <trkpt lat="39.509545" lon="-5.115744">
        <ele>742.4</ele>
        <time>1970-01-01T00:00:00Z</time>
      </trkpt>
      <trkpt lat="39.509545" lon="-5.115744">
        <ele>742.4</ele>
        <time>1970-01-01T00:00:00Z</time>
      </trkpt>
      <trkpt lat="39.509545" lon="-5.115744">
        <ele>742.4</ele>
        <time>1970-01-01T00:00:00Z</time>
      </trkpt>
      <trkpt lat="39.509545" lon="-5.115744">
        <ele>742.4</ele>
        <time>1970-01-01T00:00:00Z</time>
      </trkpt>
      <trkpt lat="39.509726" lon="-5.115881">
        <ele>743.2</ele>
        <time>1970-01-01T00:00:00Z</time>
      </trkpt>
      <trkpt lat="39.509726" lon="-5.115881">
        <ele>743.2</ele>
        <time>1970-01-01T00:00:00Z</time>
      </trkpt>
      <trkpt lat="39.509726" lon="-5.115881">
        <ele>743.2</ele>
        <time>1970-01-01T00:00:00Z</time>
      </trkpt>
      <trkpt lat="39.509726" lon="-5.115881">
        <ele>743.2</ele>
        <time>1970-01-01T00:00:00Z</time>
      </trkpt>
      <trkpt lat="39.509861" lon="-5.115953">
        <ele>743.8</ele>
        <time>1970-01-01T00:00:00Z</time>
      </trkpt>
      <trkpt lat="39.509861" lon="-5.115953">
        <ele>743.8</ele>
        <time>1970-01-01T00:00:00Z</time>
      </trkpt>
      <trkpt lat="39.509861" lon="-5.115953">
        <ele>743.8</ele>
        <time>1970-01-01T00:00:00Z</time>
      </trkpt>
      <trkpt lat="39.509861" lon="-5.115953">
        <ele>743.8</ele>
        <time>1970-01-01T00:00:00Z</time>
      </trkpt>
      <trkpt lat="39.509928" lon="-5.115973">
        <ele>744.3</ele>
        <time>1970-01-01T00:00:00Z</time>
      </trkpt>
      <trkpt lat="39.509928" lon="-5.115973">
        <ele>744.3</ele>
        <time>1970-01-01T00:00:00Z</time>
      </trkpt>
      <trkpt lat="39.509928" lon="-5.115973">
        <ele>744.3</ele>
        <time>1970-01-01T00:00:00Z</time>
      </trkpt>
      <trkpt lat="39.509928" lon="-5.115973">
        <ele>744.3</ele>
        <time>1970-01-01T00:00:00Z</time>
      </trkpt>
      <trkpt lat="39.509975" lon="-5.115989">
        <ele>744.6</ele>
        <time>1970-01-01T00:00:00Z</time>
      </trkpt>
      <trkpt lat="39.509975" lon="-5.115989">
        <ele>744.6</ele>
        <time>1970-01-01T00:00:00Z</time>
      </trkpt>
      <trkpt lat="39.509975" lon="-5.115989">
        <ele>744.6</ele>
        <time>1970-01-01T00:00:00Z</time>
      </trkpt>
      <trkpt lat="39.509975" lon="-5.115989">
        <ele>744.6</ele>
        <time>1970-01-01T00:00:00Z</time>
      </trkpt>
      <trkpt lat="39.510034" lon="-5.115996">
        <ele>745.3</ele>
        <time>1970-01-01T00:00:00Z</time>
      </trkpt>
      <trkpt lat="39.510034" lon="-5.115996">
        <ele>745.3</ele>
        <time>1970-01-01T00:00:00Z</time>
      </trkpt>
      <trkpt lat="39.510034" lon="-5.115996">
        <ele>745.3</ele>
        <time>1970-01-01T00:00:00Z</time>
      </trkpt>
      <trkpt lat="39.510034" lon="-5.115996">
        <ele>745.3</ele>
        <time>1970-01-01T00:00:00Z</time>
      </trkpt>
      <trkpt lat="39.510174" lon="-5.115978">
        <ele>747.6</ele>
        <time>1970-01-01T00:00:00Z</time>
      </trkpt>
      <trkpt lat="39.510174" lon="-5.115978">
        <ele>747.6</ele>
        <time>1970-01-01T00:00:00Z</time>
      </trkpt>
      <trkpt lat="39.510174" lon="-5.115978">
        <ele>747.6</ele>
        <time>1970-01-01T00:00:00Z</time>
      </trkpt>
      <trkpt lat="39.510174" lon="-5.115978">
        <ele>747.6</ele>
        <time>1970-01-01T00:00:00Z</time>
      </trkpt>
      <trkpt lat="39.510404" lon="-5.115971">
        <ele>750.6</ele>
        <time>1970-01-01T00:00:00Z</time>
      </trkpt>
      <trkpt lat="39.510404" lon="-5.115971">
        <ele>750.6</ele>
        <time>1970-01-01T00:00:00Z</time>
      </trkpt>
      <trkpt lat="39.510404" lon="-5.115971">
        <ele>750.6</ele>
        <time>1970-01-01T00:00:00Z</time>
      </trkpt>
      <trkpt lat="39.510404" lon="-5.115971">
        <ele>750.6</ele>
        <time>1970-01-01T00:00:00Z</time>
      </trkpt>
      <trkpt lat="39.510696" lon="-5.115971">
        <ele>753.4</ele>
        <time>1970-01-01T00:00:00Z</time>
      </trkpt>
      <trkpt lat="39.510696" lon="-5.115971">
        <ele>753.4</ele>
        <time>1970-01-01T00:00:00Z</time>
      </trkpt>
      <trkpt lat="39.510696" lon="-5.115971">
        <ele>753.4</ele>
        <time>1970-01-01T00:00:00Z</time>
      </trkpt>
      <trkpt lat="39.510696" lon="-5.115971">
        <ele>753.4</ele>
        <time>1970-01-01T00:00:00Z</time>
      </trkpt>
      <trkpt lat="39.510987" lon="-5.115981">
        <ele>756.1</ele>
        <time>1970-01-01T00:00:00Z</time>
      </trkpt>
      <trkpt lat="39.510987" lon="-5.115981">
        <ele>756.1</ele>
        <time>1970-01-01T00:00:00Z</time>
      </trkpt>
      <trkpt lat="39.510987" lon="-5.115981">
        <ele>756.1</ele>
        <time>1970-01-01T00:00:00Z</time>
      </trkpt>
      <trkpt lat="39.510987" lon="-5.115981">
        <ele>756.1</ele>
        <time>1970-01-01T00:00:00Z</time>
      </trkpt>
      <trkpt lat="39.511222" lon="-5.115988">
        <ele>758.9</ele>
        <time>1970-01-01T00:00:00Z</time>
      </trkpt>
      <trkpt lat="39.511222" lon="-5.115988">
        <ele>758.9</ele>
        <time>1970-01-01T00:00:00Z</time>
      </trkpt>
      <trkpt lat="39.511222" lon="-5.115988">
        <ele>758.9</ele>
        <time>1970-01-01T00:00:00Z</time>
      </trkpt>
      <trkpt lat="39.511222" lon="-5.115988">
        <ele>758.9</ele>
        <time>1970-01-01T00:00:00Z</time>
      </trkpt>
      <trkpt lat="39.511484" lon="-5.116005">
        <ele>762.5</ele>
        <time>1970-01-01T00:00:00Z</time>
      </trkpt>
      <trkpt lat="39.511484" lon="-5.116005">
        <ele>762.5</ele>
        <time>1970-01-01T00:00:00Z</time>
      </trkpt>
      <trkpt lat="39.511484" lon="-5.116005">
        <ele>762.5</ele>
        <time>1970-01-01T00:00:00Z</time>
      </trkpt>
      <trkpt lat="39.511484" lon="-5.116005">
        <ele>762.5</ele>
        <time>1970-01-01T00:00:00Z</time>
      </trkpt>
      <trkpt lat="39.511595" lon="-5.116005">
        <ele>763.5</ele>
        <time>1970-01-01T00:00:00Z</time>
      </trkpt>
      <trkpt lat="39.511595" lon="-5.116005">
        <ele>763.5</ele>
        <time>1970-01-01T00:00:00Z</time>
      </trkpt>
      <trkpt lat="39.511595" lon="-5.116005">
        <ele>763.5</ele>
        <time>1970-01-01T00:00:00Z</time>
      </trkpt>
      <trkpt lat="39.511595" lon="-5.116005">
        <ele>763.5</ele>
        <time>1970-01-01T00:00:00Z</time>
      </trkpt>
      <trkpt lat="39.511750" lon="-5.116014">
        <ele>764.6</ele>
        <time>1970-01-01T00:00:00Z</time>
      </trkpt>
      <trkpt lat="39.511750" lon="-5.116014">
        <ele>764.6</ele>
        <time>1970-01-01T00:00:00Z</time>
      </trkpt>
      <trkpt lat="39.511750" lon="-5.116014">
        <ele>764.6</ele>
        <time>1970-01-01T00:00:00Z</time>
      </trkpt>
      <trkpt lat="39.511750" lon="-5.116014">
        <ele>764.6</ele>
        <time>1970-01-01T00:00:00Z</time>
      </trkpt>
      <trkpt lat="39.511895" lon="-5.116014">
        <ele>765.7</ele>
        <time>1970-01-01T00:00:00Z</time>
      </trkpt>
      <trkpt lat="39.511895" lon="-5.116014">
        <ele>765.7</ele>
        <time>1970-01-01T00:00:00Z</time>
      </trkpt>
      <trkpt lat="39.511895" lon="-5.116014">
        <ele>765.7</ele>
        <time>1970-01-01T00:00:00Z</time>
      </trkpt>
      <trkpt lat="39.511895" lon="-5.116014">
        <ele>765.7</ele>
        <time>1970-01-01T00:00:00Z</time>
      </trkpt>
      <trkpt lat="39.511986" lon="-5.116051">
        <ele>765.5</ele>
        <time>1970-01-01T00:00:00Z</time>
      </trkpt>
      <trkpt lat="39.511986" lon="-5.116051">
        <ele>765.5</ele>
        <time>1970-01-01T00:00:00Z</time>
      </trkpt>
      <trkpt lat="39.511986" lon="-5.116051">
        <ele>765.5</ele>
        <time>1970-01-01T00:00:00Z</time>
      </trkpt>
      <trkpt lat="39.511986" lon="-5.116051">
        <ele>765.5</ele>
        <time>1970-01-01T00:00:00Z</time>
      </trkpt>
      <trkpt lat="39.512044" lon="-5.116102">
        <ele>764.9</ele>
        <time>1970-01-01T00:00:00Z</time>
      </trkpt>
      <trkpt lat="39.512044" lon="-5.116102">
        <ele>764.9</ele>
        <time>1970-01-01T00:00:00Z</time>
      </trkpt>
      <trkpt lat="39.512044" lon="-5.116102">
        <ele>764.9</ele>
        <time>1970-01-01T00:00:00Z</time>
      </trkpt>
      <trkpt lat="39.512044" lon="-5.116102">
        <ele>764.9</ele>
        <time>1970-01-01T00:00:00Z</time>
      </trkpt>
      <trkpt lat="39.512131" lon="-5.116181">
        <ele>763.9</ele>
        <time>1970-01-01T00:00:00Z</time>
      </trkpt>
      <trkpt lat="39.512131" lon="-5.116181">
        <ele>763.9</ele>
        <time>1970-01-01T00:00:00Z</time>
      </trkpt>
      <trkpt lat="39.512131" lon="-5.116181">
        <ele>763.9</ele>
        <time>1970-01-01T00:00:00Z</time>
      </trkpt>
      <trkpt lat="39.512131" lon="-5.116181">
        <ele>763.9</ele>
        <time>1970-01-01T00:00:00Z</time>
      </trkpt>
      <trkpt lat="39.512205" lon="-5.116250">
        <ele>763.5</ele>
        <time>1970-01-01T00:00:00Z</time>
      </trkpt>
      <trkpt lat="39.512205" lon="-5.116250">
        <ele>763.5</ele>
        <time>1970-01-01T00:00:00Z</time>
      </trkpt>
      <trkpt lat="39.512205" lon="-5.116250">
        <ele>763.5</ele>
        <time>1970-01-01T00:00:00Z</time>
      </trkpt>
      <trkpt lat="39.512205" lon="-5.116250">
        <ele>763.5</ele>
        <time>1970-01-01T00:00:00Z</time>
      </trkpt>
      <trkpt lat="39.512281" lon="-5.116375">
        <ele>762.5</ele>
        <time>1970-01-01T00:00:00Z</time>
      </trkpt>
      <trkpt lat="39.512281" lon="-5.116375">
        <ele>762.5</ele>
        <time>1970-01-01T00:00:00Z</time>
      </trkpt>
      <trkpt lat="39.512281" lon="-5.116375">
        <ele>762.5</ele>
        <time>1970-01-01T00:00:00Z</time>
      </trkpt>
      <trkpt lat="39.512281" lon="-5.116375">
        <ele>762.5</ele>
        <time>1970-01-01T00:00:00Z</time>
      </trkpt>
      <trkpt lat="39.512381" lon="-5.116580">
        <ele>760.8</ele>
        <time>1970-01-01T00:00:00Z</time>
      </trkpt>
      <trkpt lat="39.512381" lon="-5.116580">
        <ele>760.8</ele>
        <time>1970-01-01T00:00:00Z</time>
      </trkpt>
      <trkpt lat="39.512381" lon="-5.116580">
        <ele>760.8</ele>
        <time>1970-01-01T00:00:00Z</time>
      </trkpt>
      <trkpt lat="39.512381" lon="-5.116580">
        <ele>760.8</ele>
        <time>1970-01-01T00:00:00Z</time>
      </trkpt>
      <trkpt lat="39.512482" lon="-5.116760">
        <ele>759.1</ele>
        <time>1970-01-01T00:00:00Z</time>
      </trkpt>
      <trkpt lat="39.512482" lon="-5.116760">
        <ele>759.1</ele>
        <time>1970-01-01T00:00:00Z</time>
      </trkpt>
      <trkpt lat="39.512482" lon="-5.116760">
        <ele>759.1</ele>
        <time>1970-01-01T00:00:00Z</time>
      </trkpt>
      <trkpt lat="39.512482" lon="-5.116760">
        <ele>759.1</ele>
        <time>1970-01-01T00:00:00Z</time>
      </trkpt>
      <trkpt lat="39.512576" lon="-5.116875">
        <ele>758.6</ele>
        <time>1970-01-01T00:00:00Z</time>
      </trkpt>
      <trkpt lat="39.512576" lon="-5.116875">
        <ele>758.6</ele>
        <time>1970-01-01T00:00:00Z</time>
      </trkpt>
      <trkpt lat="39.512576" lon="-5.116875">
        <ele>758.6</ele>
        <time>1970-01-01T00:00:00Z</time>
      </trkpt>
      <trkpt lat="39.512576" lon="-5.116875">
        <ele>758.6</ele>
        <time>1970-01-01T00:00:00Z</time>
      </trkpt>
      <trkpt lat="39.512697" lon="-5.117001">
        <ele>758.9</ele>
        <time>1970-01-01T00:00:00Z</time>
      </trkpt>
      <trkpt lat="39.512697" lon="-5.117001">
        <ele>758.9</ele>
        <time>1970-01-01T00:00:00Z</time>
      </trkpt>
      <trkpt lat="39.512697" lon="-5.117001">
        <ele>758.9</ele>
        <time>1970-01-01T00:00:00Z</time>
      </trkpt>
      <trkpt lat="39.512697" lon="-5.117001">
        <ele>758.9</ele>
        <time>1970-01-01T00:00:00Z</time>
      </trkpt>
      <trkpt lat="39.513044" lon="-5.117201">
        <ele>758.4</ele>
        <time>1970-01-01T00:00:00Z</time>
      </trkpt>
      <trkpt lat="39.513044" lon="-5.117201">
        <ele>758.4</ele>
        <time>1970-01-01T00:00:00Z</time>
      </trkpt>
      <trkpt lat="39.513044" lon="-5.117201">
        <ele>758.4</ele>
        <time>1970-01-01T00:00:00Z</time>
      </trkpt>
      <trkpt lat="39.513044" lon="-5.117201">
        <ele>758.4</ele>
        <time>1970-01-01T00:00:00Z</time>
      </trkpt>
      <trkpt lat="39.513380" lon="-5.117319">
        <ele>756.0</ele>
        <time>1970-01-01T00:00:00Z</time>
      </trkpt>
      <trkpt lat="39.513380" lon="-5.117319">
        <ele>756.0</ele>
        <time>1970-01-01T00:00:00Z</time>
      </trkpt>
      <trkpt lat="39.513380" lon="-5.117319">
        <ele>756.0</ele>
        <time>1970-01-01T00:00:00Z</time>
      </trkpt>
      <trkpt lat="39.513380" lon="-5.117319">
        <ele>756.0</ele>
        <time>1970-01-01T00:00:00Z</time>
      </trkpt>
      <trkpt lat="39.513441" lon="-5.117335">
        <ele>755.7</ele>
        <time>1970-01-01T00:00:00Z</time>
      </trkpt>
      <trkpt lat="39.513441" lon="-5.117335">
        <ele>755.7</ele>
        <time>1970-01-01T00:00:00Z</time>
      </trkpt>
      <trkpt lat="39.513441" lon="-5.117335">
        <ele>755.7</ele>
        <time>1970-01-01T00:00:00Z</time>
      </trkpt>
      <trkpt lat="39.513441" lon="-5.117335">
        <ele>755.7</ele>
        <time>1970-01-01T00:00:00Z</time>
      </trkpt>
      <trkpt lat="39.513592" lon="-5.117354">
        <ele>756.1</ele>
        <time>1970-01-01T00:00:00Z</time>
      </trkpt>
      <trkpt lat="39.513592" lon="-5.117354">
        <ele>756.1</ele>
        <time>1970-01-01T00:00:00Z</time>
      </trkpt>
      <trkpt lat="39.513592" lon="-5.117354">
        <ele>756.1</ele>
        <time>1970-01-01T00:00:00Z</time>
      </trkpt>
      <trkpt lat="39.513592" lon="-5.117354">
        <ele>756.1</ele>
        <time>1970-01-01T00:00:00Z</time>
      </trkpt>
      <trkpt lat="39.513859" lon="-5.117306">
        <ele>761.0</ele>
        <time>1970-01-01T00:00:00Z</time>
      </trkpt>
      <trkpt lat="39.513859" lon="-5.117306">
        <ele>761.0</ele>
        <time>1970-01-01T00:00:00Z</time>
      </trkpt>
      <trkpt lat="39.513859" lon="-5.117306">
        <ele>761.0</ele>
        <time>1970-01-01T00:00:00Z</time>
      </trkpt>
      <trkpt lat="39.513859" lon="-5.117306">
        <ele>761.0</ele>
        <time>1970-01-01T00:00:00Z</time>
      </trkpt>
      <trkpt lat="39.513999" lon="-5.117275">
        <ele>763.4</ele>
        <time>1970-01-01T00:00:00Z</time>
      </trkpt>
      <trkpt lat="39.513999" lon="-5.117275">
        <ele>763.4</ele>
        <time>1970-01-01T00:00:00Z</time>
      </trkpt>
      <trkpt lat="39.513999" lon="-5.117275">
        <ele>763.4</ele>
        <time>1970-01-01T00:00:00Z</time>
      </trkpt>
      <trkpt lat="39.513999" lon="-5.117275">
        <ele>763.4</ele>
        <time>1970-01-01T00:00:00Z</time>
      </trkpt>
      <trkpt lat="39.514075" lon="-5.117261">
        <ele>764.4</ele>
        <time>1970-01-01T00:00:00Z</time>
      </trkpt>
      <trkpt lat="39.514075" lon="-5.117261">
        <ele>764.4</ele>
        <time>1970-01-01T00:00:00Z</time>
      </trkpt>
      <trkpt lat="39.514075" lon="-5.117261">
        <ele>764.4</ele>
        <time>1970-01-01T00:00:00Z</time>
      </trkpt>
      <trkpt lat="39.514075" lon="-5.117261">
        <ele>764.4</ele>
        <time>1970-01-01T00:00:00Z</time>
      </trkpt>
      <trkpt lat="39.514328" lon="-5.117163">
        <ele>769.7</ele>
        <time>1970-01-01T00:00:00Z</time>
      </trkpt>
      <trkpt lat="39.514328" lon="-5.117163">
        <ele>769.7</ele>
        <time>1970-01-01T00:00:00Z</time>
      </trkpt>
      <trkpt lat="39.514328" lon="-5.117163">
        <ele>769.7</ele>
        <time>1970-01-01T00:00:00Z</time>
      </trkpt>
      <trkpt lat="39.514328" lon="-5.117163">
        <ele>769.7</ele>
        <time>1970-01-01T00:00:00Z</time>
      </trkpt>
      <trkpt lat="39.514482" lon="-5.117092">
        <ele>773.1</ele>
        <time>1970-01-01T00:00:00Z</time>
      </trkpt>
      <trkpt lat="39.514482" lon="-5.117092">
        <ele>773.1</ele>
        <time>1970-01-01T00:00:00Z</time>
      </trkpt>
      <trkpt lat="39.514482" lon="-5.117092">
        <ele>773.1</ele>
        <time>1970-01-01T00:00:00Z</time>
      </trkpt>
      <trkpt lat="39.514482" lon="-5.117092">
        <ele>773.1</ele>
        <time>1970-01-01T00:00:00Z</time>
      </trkpt>
      <trkpt lat="39.514537" lon="-5.117044">
        <ele>774.9</ele>
        <time>1970-01-01T00:00:00Z</time>
      </trkpt>
      <trkpt lat="39.514537" lon="-5.117044">
        <ele>774.9</ele>
        <time>1970-01-01T00:00:00Z</time>
      </trkpt>
      <trkpt lat="39.514537" lon="-5.117044">
        <ele>774.9</ele>
        <time>1970-01-01T00:00:00Z</time>
      </trkpt>
      <trkpt lat="39.514537" lon="-5.117044">
        <ele>774.9</ele>
        <time>1970-01-01T00:00:00Z</time>
      </trkpt>
      <trkpt lat="39.514613" lon="-5.116963">
        <ele>778.0</ele>
        <time>1970-01-01T00:00:00Z</time>
      </trkpt>
      <trkpt lat="39.514613" lon="-5.116963">
        <ele>778.0</ele>
        <time>1970-01-01T00:00:00Z</time>
      </trkpt>
      <trkpt lat="39.514613" lon="-5.116963">
        <ele>778.0</ele>
        <time>1970-01-01T00:00:00Z</time>
      </trkpt>
      <trkpt lat="39.514613" lon="-5.116963">
        <ele>778.0</ele>
        <time>1970-01-01T00:00:00Z</time>
      </trkpt>
      <trkpt lat="39.514729" lon="-5.116843">
        <ele>782.8</ele>
        <time>1970-01-01T00:00:00Z</time>
      </trkpt>
      <trkpt lat="39.514729" lon="-5.116843">
        <ele>782.8</ele>
        <time>1970-01-01T00:00:00Z</time>
      </trkpt>
      <trkpt lat="39.514729" lon="-5.116843">
        <ele>782.8</ele>
        <time>1970-01-01T00:00:00Z</time>
      </trkpt>
      <trkpt lat="39.514729" lon="-5.116843">
        <ele>782.8</ele>
        <time>1970-01-01T00:00:00Z</time>
      </trkpt>
      <trkpt lat="39.514837" lon="-5.116780">
        <ele>785.3</ele>
        <time>1970-01-01T00:00:00Z</time>
      </trkpt>
      <trkpt lat="39.514837" lon="-5.116780">
        <ele>785.3</ele>
        <time>1970-01-01T00:00:00Z</time>
      </trkpt>
      <trkpt lat="39.514837" lon="-5.116780">
        <ele>785.3</ele>
        <time>1970-01-01T00:00:00Z</time>
      </trkpt>
      <trkpt lat="39.514837" lon="-5.116780">
        <ele>785.3</ele>
        <time>1970-01-01T00:00:00Z</time>
      </trkpt>
      <trkpt lat="39.514969" lon="-5.116777">
        <ele>785.6</ele>
        <time>1970-01-01T00:00:00Z</time>
      </trkpt>
      <trkpt lat="39.514969" lon="-5.116777">
        <ele>785.6</ele>
        <time>1970-01-01T00:00:00Z</time>
      </trkpt>
      <trkpt lat="39.514969" lon="-5.116777">
        <ele>785.6</ele>
        <time>1970-01-01T00:00:00Z</time>
      </trkpt>
      <trkpt lat="39.514969" lon="-5.116777">
        <ele>785.6</ele>
        <time>1970-01-01T00:00:00Z</time>
      </trkpt>
      <trkpt lat="39.515082" lon="-5.116783">
        <ele>785.9</ele>
        <time>1970-01-01T00:00:00Z</time>
      </trkpt>
      <trkpt lat="39.515082" lon="-5.116783">
        <ele>785.9</ele>
        <time>1970-01-01T00:00:00Z</time>
      </trkpt>
      <trkpt lat="39.515082" lon="-5.116783">
        <ele>785.9</ele>
        <time>1970-01-01T00:00:00Z</time>
      </trkpt>
      <trkpt lat="39.515082" lon="-5.116783">
        <ele>785.9</ele>
        <time>1970-01-01T00:00:00Z</time>
      </trkpt>
      <trkpt lat="39.515292" lon="-5.116843">
        <ele>785.2</ele>
        <time>1970-01-01T00:00:00Z</time>
      </trkpt>
      <trkpt lat="39.515292" lon="-5.116843">
        <ele>785.2</ele>
        <time>1970-01-01T00:00:00Z</time>
      </trkpt>
      <trkpt lat="39.515292" lon="-5.116843">
        <ele>785.2</ele>
        <time>1970-01-01T00:00:00Z</time>
      </trkpt>
      <trkpt lat="39.515292" lon="-5.116843">
        <ele>785.2</ele>
        <time>1970-01-01T00:00:00Z</time>
      </trkpt>
      <trkpt lat="39.515394" lon="-5.116886">
        <ele>784.6</ele>
        <time>1970-01-01T00:00:00Z</time>
      </trkpt>
      <trkpt lat="39.515394" lon="-5.116886">
        <ele>784.6</ele>
        <time>1970-01-01T00:00:00Z</time>
      </trkpt>
      <trkpt lat="39.515394" lon="-5.116886">
        <ele>784.6</ele>
        <time>1970-01-01T00:00:00Z</time>
      </trkpt>
      <trkpt lat="39.515394" lon="-5.116886">
        <ele>784.6</ele>
        <time>1970-01-01T00:00:00Z</time>
      </trkpt>
      <trkpt lat="39.515539" lon="-5.116933">
        <ele>785.2</ele>
        <time>1970-01-01T00:00:00Z</time>
      </trkpt>
      <trkpt lat="39.515539" lon="-5.116933">
        <ele>785.2</ele>
        <time>1970-01-01T00:00:00Z</time>
      </trkpt>
      <trkpt lat="39.515539" lon="-5.116933">
        <ele>785.2</ele>
        <time>1970-01-01T00:00:00Z</time>
      </trkpt>
      <trkpt lat="39.515539" lon="-5.116933">
        <ele>785.2</ele>
        <time>1970-01-01T00:00:00Z</time>
      </trkpt>
      <trkpt lat="39.515643" lon="-5.116963">
        <ele>786.1</ele>
        <time>1970-01-01T00:00:00Z</time>
      </trkpt>
      <trkpt lat="39.515643" lon="-5.116963">
        <ele>786.1</ele>
        <time>1970-01-01T00:00:00Z</time>
      </trkpt>
      <trkpt lat="39.515643" lon="-5.116963">
        <ele>786.1</ele>
        <time>1970-01-01T00:00:00Z</time>
      </trkpt>
      <trkpt lat="39.515643" lon="-5.116963">
        <ele>786.1</ele>
        <time>1970-01-01T00:00:00Z</time>
      </trkpt>
      <trkpt lat="39.515753" lon="-5.117006">
        <ele>787.4</ele>
        <time>1970-01-01T00:00:00Z</time>
      </trkpt>
      <trkpt lat="39.515753" lon="-5.117006">
        <ele>787.4</ele>
        <time>1970-01-01T00:00:00Z</time>
      </trkpt>
      <trkpt lat="39.515753" lon="-5.117006">
        <ele>787.4</ele>
        <time>1970-01-01T00:00:00Z</time>
      </trkpt>
      <trkpt lat="39.515753" lon="-5.117006">
        <ele>787.4</ele>
        <time>1970-01-01T00:00:00Z</time>
      </trkpt>
      <trkpt lat="39.515931" lon="-5.117113">
        <ele>788.3</ele>
        <time>1970-01-01T00:00:00Z</time>
      </trkpt>
      <trkpt lat="39.515931" lon="-5.117113">
        <ele>788.3</ele>
        <time>1970-01-01T00:00:00Z</time>
      </trkpt>
      <trkpt lat="39.515931" lon="-5.117113">
        <ele>788.3</ele>
        <time>1970-01-01T00:00:00Z</time>
      </trkpt>
      <trkpt lat="39.515931" lon="-5.117113">
        <ele>788.3</ele>
        <time>1970-01-01T00:00:00Z</time>
      </trkpt>
      <trkpt lat="39.516103" lon="-5.117180">
        <ele>790.2</ele>
        <time>1970-01-01T00:00:00Z</time>
      </trkpt>
      <trkpt lat="39.516103" lon="-5.117180">
        <ele>790.2</ele>
        <time>1970-01-01T00:00:00Z</time>
      </trkpt>
      <trkpt lat="39.516103" lon="-5.117180">
        <ele>790.2</ele>
        <time>1970-01-01T00:00:00Z</time>
      </trkpt>
      <trkpt lat="39.516103" lon="-5.117180">
        <ele>790.2</ele>
        <time>1970-01-01T00:00:00Z</time>
      </trkpt>
      <trkpt lat="39.516266" lon="-5.117237">
        <ele>791.9</ele>
        <time>1970-01-01T00:00:00Z</time>
      </trkpt>
      <trkpt lat="39.516266" lon="-5.117237">
        <ele>791.9</ele>
        <time>1970-01-01T00:00:00Z</time>
      </trkpt>
      <trkpt lat="39.516266" lon="-5.117237">
        <ele>791.9</ele>
        <time>1970-01-01T00:00:00Z</time>
      </trkpt>
      <trkpt lat="39.516266" lon="-5.117237">
        <ele>791.9</ele>
        <time>1970-01-01T00:00:00Z</time>
      </trkpt>
      <trkpt lat="39.516376" lon="-5.117273">
        <ele>792.6</ele>
        <time>1970-01-01T00:00:00Z</time>
      </trkpt>
      <trkpt lat="39.516376" lon="-5.117273">
        <ele>792.6</ele>
        <time>1970-01-01T00:00:00Z</time>
      </trkpt>
      <trkpt lat="39.516376" lon="-5.117273">
        <ele>792.6</ele>
        <time>1970-01-01T00:00:00Z</time>
      </trkpt>
      <trkpt lat="39.516376" lon="-5.117273">
        <ele>792.6</ele>
        <time>1970-01-01T00:00:00Z</time>
      </trkpt>
      <trkpt lat="39.516448" lon="-5.117277">
        <ele>793.0</ele>
        <time>1970-01-01T00:00:00Z</time>
      </trkpt>
      <trkpt lat="39.516448" lon="-5.117277">
        <ele>793.0</ele>
        <time>1970-01-01T00:00:00Z</time>
      </trkpt>
      <trkpt lat="39.516448" lon="-5.117277">
        <ele>793.0</ele>
        <time>1970-01-01T00:00:00Z</time>
      </trkpt>
      <trkpt lat="39.516448" lon="-5.117277">
        <ele>793.0</ele>
        <time>1970-01-01T00:00:00Z</time>
      </trkpt>
      <trkpt lat="39.516683" lon="-5.117232">
        <ele>794.5</ele>
        <time>1970-01-01T00:00:00Z</time>
      </trkpt>
      <trkpt lat="39.516683" lon="-5.117232">
        <ele>794.5</ele>
        <time>1970-01-01T00:00:00Z</time>
      </trkpt>
      <trkpt lat="39.516683" lon="-5.117232">
        <ele>794.5</ele>
        <time>1970-01-01T00:00:00Z</time>
      </trkpt>
      <trkpt lat="39.516683" lon="-5.117232">
        <ele>794.5</ele>
        <time>1970-01-01T00:00:00Z</time>
      </trkpt>
      <trkpt lat="39.516858" lon="-5.117189">
        <ele>795.8</ele>
        <time>1970-01-01T00:00:00Z</time>
      </trkpt>
      <trkpt lat="39.516858" lon="-5.117189">
        <ele>795.8</ele>
        <time>1970-01-01T00:00:00Z</time>
      </trkpt>
      <trkpt lat="39.516858" lon="-5.117189">
        <ele>795.8</ele>
        <time>1970-01-01T00:00:00Z</time>
      </trkpt>
      <trkpt lat="39.516858" lon="-5.117189">
        <ele>795.8</ele>
        <time>1970-01-01T00:00:00Z</time>
      </trkpt>
      <trkpt lat="39.517102" lon="-5.117135">
        <ele>797.4</ele>
        <time>1970-01-01T00:00:00Z</time>
      </trkpt>
      <trkpt lat="39.517102" lon="-5.117135">
        <ele>797.4</ele>
        <time>1970-01-01T00:00:00Z</time>
      </trkpt>
      <trkpt lat="39.517102" lon="-5.117135">
        <ele>797.4</ele>
        <time>1970-01-01T00:00:00Z</time>
      </trkpt>
      <trkpt lat="39.517102" lon="-5.117135">
        <ele>797.4</ele>
        <time>1970-01-01T00:00:00Z</time>
      </trkpt>
      <trkpt lat="39.517263" lon="-5.117090">
        <ele>798.2</ele>
        <time>1970-01-01T00:00:00Z</time>
      </trkpt>
      <trkpt lat="39.517263" lon="-5.117090">
        <ele>798.2</ele>
        <time>1970-01-01T00:00:00Z</time>
      </trkpt>
      <trkpt lat="39.517263" lon="-5.117090">
        <ele>798.2</ele>
        <time>1970-01-01T00:00:00Z</time>
      </trkpt>
      <trkpt lat="39.517263" lon="-5.117090">
        <ele>798.2</ele>
        <time>1970-01-01T00:00:00Z</time>
      </trkpt>
      <trkpt lat="39.517499" lon="-5.117061">
        <ele>798.7</ele>
        <time>1970-01-01T00:00:00Z</time>
      </trkpt>
      <trkpt lat="39.517499" lon="-5.117061">
        <ele>798.7</ele>
        <time>1970-01-01T00:00:00Z</time>
      </trkpt>
      <trkpt lat="39.517499" lon="-5.117061">
        <ele>798.7</ele>
        <time>1970-01-01T00:00:00Z</time>
      </trkpt>
      <trkpt lat="39.517499" lon="-5.117061">
        <ele>798.7</ele>
        <time>1970-01-01T00:00:00Z</time>
      </trkpt>
      <trkpt lat="39.517664" lon="-5.117018">
        <ele>799.0</ele>
        <time>1970-01-01T00:00:00Z</time>
      </trkpt>
      <trkpt lat="39.517664" lon="-5.117018">
        <ele>799.0</ele>
        <time>1970-01-01T00:00:00Z</time>
      </trkpt>
      <trkpt lat="39.517664" lon="-5.117018">
        <ele>799.0</ele>
        <time>1970-01-01T00:00:00Z</time>
      </trkpt>
      <trkpt lat="39.517664" lon="-5.117018">
        <ele>799.0</ele>
        <time>1970-01-01T00:00:00Z</time>
      </trkpt>
      <trkpt lat="39.517709" lon="-5.116997">
        <ele>799.0</ele>
        <time>1970-01-01T00:00:00Z</time>
      </trkpt>
      <trkpt lat="39.517709" lon="-5.116997">
        <ele>799.0</ele>
        <time>1970-01-01T00:00:00Z</time>
      </trkpt>
      <trkpt lat="39.517709" lon="-5.116997">
        <ele>799.0</ele>
        <time>1970-01-01T00:00:00Z</time>
      </trkpt>
      <trkpt lat="39.517709" lon="-5.116997">
        <ele>799.0</ele>
        <time>1970-01-01T00:00:00Z</time>
      </trkpt>
      <trkpt lat="39.517752" lon="-5.116961">
        <ele>799.3</ele>
        <time>1970-01-01T00:00:00Z</time>
      </trkpt>
      <trkpt lat="39.517752" lon="-5.116961">
        <ele>799.3</ele>
        <time>1970-01-01T00:00:00Z</time>
      </trkpt>
      <trkpt lat="39.517752" lon="-5.116961">
        <ele>799.3</ele>
        <time>1970-01-01T00:00:00Z</time>
      </trkpt>
      <trkpt lat="39.517752" lon="-5.116961">
        <ele>799.3</ele>
        <time>1970-01-01T00:00:00Z</time>
      </trkpt>
      <trkpt lat="39.517790" lon="-5.116937">
        <ele>799.5</ele>
        <time>1970-01-01T00:00:00Z</time>
      </trkpt>
      <trkpt lat="39.517790" lon="-5.116937">
        <ele>799.5</ele>
        <time>1970-01-01T00:00:00Z</time>
      </trkpt>
      <trkpt lat="39.517790" lon="-5.116937">
        <ele>799.5</ele>
        <time>1970-01-01T00:00:00Z</time>
      </trkpt>
      <trkpt lat="39.517790" lon="-5.116937">
        <ele>799.5</ele>
        <time>1970-01-01T00:00:00Z</time>
      </trkpt>
      <trkpt lat="39.517835" lon="-5.116935">
        <ele>799.7</ele>
        <time>1970-01-01T00:00:00Z</time>
      </trkpt>
      <trkpt lat="39.517835" lon="-5.116935">
        <ele>799.7</ele>
        <time>1970-01-01T00:00:00Z</time>
      </trkpt>
      <trkpt lat="39.517835" lon="-5.116935">
        <ele>799.7</ele>
        <time>1970-01-01T00:00:00Z</time>
      </trkpt>
      <trkpt lat="39.517835" lon="-5.116935">
        <ele>799.7</ele>
        <time>1970-01-01T00:00:00Z</time>
      </trkpt>
      <trkpt lat="39.517998" lon="-5.116881">
        <ele>799.9</ele>
        <time>1970-01-01T00:00:00Z</time>
      </trkpt>
      <trkpt lat="39.517998" lon="-5.116881">
        <ele>799.9</ele>
        <time>1970-01-01T00:00:00Z</time>
      </trkpt>
      <trkpt lat="39.517998" lon="-5.116881">
        <ele>799.9</ele>
        <time>1970-01-01T00:00:00Z</time>
      </trkpt>
      <trkpt lat="39.517998" lon="-5.116881">
        <ele>799.9</ele>
        <time>1970-01-01T00:00:00Z</time>
      </trkpt>
      <trkpt lat="39.518154" lon="-5.116852">
        <ele>799.4</ele>
        <time>1970-01-01T00:00:00Z</time>
      </trkpt>
      <trkpt lat="39.518154" lon="-5.116852">
        <ele>799.4</ele>
        <time>1970-01-01T00:00:00Z</time>
      </trkpt>
      <trkpt lat="39.518154" lon="-5.116852">
        <ele>799.4</ele>
        <time>1970-01-01T00:00:00Z</time>
      </trkpt>
      <trkpt lat="39.518154" lon="-5.116852">
        <ele>799.4</ele>
        <time>1970-01-01T00:00:00Z</time>
      </trkpt>
      <trkpt lat="39.518230" lon="-5.116842">
        <ele>799.2</ele>
        <time>1970-01-01T00:00:00Z</time>
      </trkpt>
      <trkpt lat="39.518230" lon="-5.116842">
        <ele>799.2</ele>
        <time>1970-01-01T00:00:00Z</time>
      </trkpt>
      <trkpt lat="39.518230" lon="-5.116842">
        <ele>799.2</ele>
        <time>1970-01-01T00:00:00Z</time>
      </trkpt>
      <trkpt lat="39.518230" lon="-5.116842">
        <ele>799.2</ele>
        <time>1970-01-01T00:00:00Z</time>
      </trkpt>
      <trkpt lat="39.518409" lon="-5.116790">
        <ele>798.3</ele>
        <time>1970-01-01T00:00:00Z</time>
      </trkpt>
      <trkpt lat="39.518409" lon="-5.116790">
        <ele>798.3</ele>
        <time>1970-01-01T00:00:00Z</time>
      </trkpt>
      <trkpt lat="39.518409" lon="-5.116790">
        <ele>798.3</ele>
        <time>1970-01-01T00:00:00Z</time>
      </trkpt>
      <trkpt lat="39.518409" lon="-5.116790">
        <ele>798.3</ele>
        <time>1970-01-01T00:00:00Z</time>
      </trkpt>
      <trkpt lat="39.518467" lon="-5.116750">
        <ele>797.9</ele>
        <time>1970-01-01T00:00:00Z</time>
      </trkpt>
      <trkpt lat="39.518467" lon="-5.116750">
        <ele>797.9</ele>
        <time>1970-01-01T00:00:00Z</time>
      </trkpt>
      <trkpt lat="39.518467" lon="-5.116750">
        <ele>797.9</ele>
        <time>1970-01-01T00:00:00Z</time>
      </trkpt>
      <trkpt lat="39.518467" lon="-5.116750">
        <ele>797.9</ele>
        <time>1970-01-01T00:00:00Z</time>
      </trkpt>
      <trkpt lat="39.518487" lon="-5.116684">
        <ele>797.6</ele>
        <time>1970-01-01T00:00:00Z</time>
      </trkpt>
      <trkpt lat="39.518487" lon="-5.116684">
        <ele>797.6</ele>
        <time>1970-01-01T00:00:00Z</time>
      </trkpt>
      <trkpt lat="39.518487" lon="-5.116684">
        <ele>797.6</ele>
        <time>1970-01-01T00:00:00Z</time>
      </trkpt>
      <trkpt lat="39.518487" lon="-5.116684">
        <ele>797.6</ele>
        <time>1970-01-01T00:00:00Z</time>
      </trkpt>
      <trkpt lat="39.518450" lon="-5.116521">
        <ele>796.8</ele>
        <time>1970-01-01T00:00:00Z</time>
      </trkpt>
      <trkpt lat="39.518450" lon="-5.116521">
        <ele>796.8</ele>
        <time>1970-01-01T00:00:00Z</time>
      </trkpt>
      <trkpt lat="39.518450" lon="-5.116521">
        <ele>796.8</ele>
        <time>1970-01-01T00:00:00Z</time>
      </trkpt>
      <trkpt lat="39.518450" lon="-5.116521">
        <ele>796.8</ele>
        <time>1970-01-01T00:00:00Z</time>
      </trkpt>
      <trkpt lat="39.518411" lon="-5.116364">
        <ele>796.2</ele>
        <time>1970-01-01T00:00:00Z</time>
      </trkpt>
      <trkpt lat="39.518411" lon="-5.116364">
        <ele>796.2</ele>
        <time>1970-01-01T00:00:00Z</time>
      </trkpt>
      <trkpt lat="39.518411" lon="-5.116364">
        <ele>796.2</ele>
        <time>1970-01-01T00:00:00Z</time>
      </trkpt>
      <trkpt lat="39.518411" lon="-5.116364">
        <ele>796.2</ele>
        <time>1970-01-01T00:00:00Z</time>
      </trkpt>
      <trkpt lat="39.518380" lon="-5.116357">
        <ele>796.4</ele>
        <time>1970-01-01T00:00:00Z</time>
      </trkpt>
      <trkpt lat="39.518380" lon="-5.116357">
        <ele>796.4</ele>
        <time>1970-01-01T00:00:00Z</time>
      </trkpt>
      <trkpt lat="39.518380" lon="-5.116357">
        <ele>796.4</ele>
        <time>1970-01-01T00:00:00Z</time>
      </trkpt>
      <trkpt lat="39.518380" lon="-5.116357">
        <ele>796.4</ele>
        <time>1970-01-01T00:00:00Z</time>
      </trkpt>
      <trkpt lat="39.518237" lon="-5.116385">
        <ele>797.5</ele>
        <time>1970-01-01T00:00:00Z</time>
      </trkpt>
      <trkpt lat="39.518237" lon="-5.116385">
        <ele>797.5</ele>
        <time>1970-01-01T00:00:00Z</time>
      </trkpt>
      <trkpt lat="39.518237" lon="-5.116385">
        <ele>797.5</ele>
        <time>1970-01-01T00:00:00Z</time>
      </trkpt>
      <trkpt lat="39.518237" lon="-5.116385">
        <ele>797.5</ele>
        <time>1970-01-01T00:00:00Z</time>
      </trkpt>
      <trkpt lat="39.518106" lon="-5.116446">
        <ele>798.4</ele>
        <time>1970-01-01T00:00:00Z</time>
      </trkpt>
      <trkpt lat="39.518106" lon="-5.116446">
        <ele>798.4</ele>
        <time>1970-01-01T00:00:00Z</time>
      </trkpt>
      <trkpt lat="39.518106" lon="-5.116446">
        <ele>798.4</ele>
        <time>1970-01-01T00:00:00Z</time>
      </trkpt>
      <trkpt lat="39.518106" lon="-5.116446">
        <ele>798.4</ele>
        <time>1970-01-01T00:00:00Z</time>
      </trkpt>
      <trkpt lat="39.518128" lon="-5.116514">
        <ele>798.2</ele>
        <time>1970-01-01T00:00:00Z</time>
      </trkpt>
      <trkpt lat="39.518128" lon="-5.116514">
        <ele>798.2</ele>
        <time>1970-01-01T00:00:00Z</time>
      </trkpt>
      <trkpt lat="39.518128" lon="-5.116514">
        <ele>798.2</ele>
        <time>1970-01-01T00:00:00Z</time>
      </trkpt>
      <trkpt lat="39.518128" lon="-5.116514">
        <ele>798.2</ele>
        <time>1970-01-01T00:00:00Z</time>
      </trkpt>
      <trkpt lat="39.518182" lon="-5.116549">
        <ele>798.0</ele>
        <time>1970-01-01T00:00:00Z</time>
      </trkpt>
      <trkpt lat="39.518182" lon="-5.116549">
        <ele>798.0</ele>
        <time>1970-01-01T00:00:00Z</time>
      </trkpt>
      <trkpt lat="39.518182" lon="-5.116549">
        <ele>798.0</ele>
        <time>1970-01-01T00:00:00Z</time>
      </trkpt>
      <trkpt lat="39.518182" lon="-5.116549">
        <ele>798.0</ele>
        <time>1970-01-01T00:00:00Z</time>
      </trkpt>
      <trkpt lat="39.518254" lon="-5.116523">
        <ele>797.6</ele>
        <time>1970-01-01T00:00:00Z</time>
      </trkpt>
      <trkpt lat="39.518254" lon="-5.116523">
        <ele>797.6</ele>
        <time>1970-01-01T00:00:00Z</time>
      </trkpt>
      <trkpt lat="39.518254" lon="-5.116523">
        <ele>797.6</ele>
        <time>1970-01-01T00:00:00Z</time>
      </trkpt>
      <trkpt lat="39.518254" lon="-5.116523">
        <ele>797.6</ele>
        <time>1970-01-01T00:00:00Z</time>
      </trkpt>
      <trkpt lat="39.518699" lon="-5.116272">
        <ele>793.6</ele>
        <time>1970-01-01T00:00:00Z</time>
      </trkpt>
      <trkpt lat="39.518699" lon="-5.116272">
        <ele>793.6</ele>
        <time>1970-01-01T00:00:00Z</time>
      </trkpt>
      <trkpt lat="39.518699" lon="-5.116272">
        <ele>793.6</ele>
        <time>1970-01-01T00:00:00Z</time>
      </trkpt>
      <trkpt lat="39.518699" lon="-5.116272">
        <ele>793.6</ele>
        <time>1970-01-01T00:00:00Z</time>
      </trkpt>
      <trkpt lat="39.518769" lon="-5.116217">
        <ele>792.9</ele>
        <time>1970-01-01T00:00:00Z</time>
      </trkpt>
      <trkpt lat="39.518769" lon="-5.116217">
        <ele>792.9</ele>
        <time>1970-01-01T00:00:00Z</time>
      </trkpt>
      <trkpt lat="39.518769" lon="-5.116217">
        <ele>792.9</ele>
        <time>1970-01-01T00:00:00Z</time>
      </trkpt>
      <trkpt lat="39.518769" lon="-5.116217">
        <ele>792.9</ele>
        <time>1970-01-01T00:00:00Z</time>
      </trkpt>
      <trkpt lat="39.518816" lon="-5.116170">
        <ele>792.2</ele>
        <time>1970-01-01T00:00:00Z</time>
      </trkpt>
      <trkpt lat="39.518816" lon="-5.116170">
        <ele>792.2</ele>
        <time>1970-01-01T00:00:00Z</time>
      </trkpt>
      <trkpt lat="39.518816" lon="-5.116170">
        <ele>792.2</ele>
        <time>1970-01-01T00:00:00Z</time>
      </trkpt>
      <trkpt lat="39.518816" lon="-5.116170">
        <ele>792.2</ele>
        <time>1970-01-01T00:00:00Z</time>
      </trkpt>
      <trkpt lat="39.518873" lon="-5.116094">
        <ele>791.1</ele>
        <time>1970-01-01T00:00:00Z</time>
      </trkpt>
      <trkpt lat="39.518873" lon="-5.116094">
        <ele>791.1</ele>
        <time>1970-01-01T00:00:00Z</time>
      </trkpt>
      <trkpt lat="39.518873" lon="-5.116094">
        <ele>791.1</ele>
        <time>1970-01-01T00:00:00Z</time>
      </trkpt>
      <trkpt lat="39.518873" lon="-5.116094">
        <ele>791.1</ele>
        <time>1970-01-01T00:00:00Z</time>
      </trkpt>
      <trkpt lat="39.518930" lon="-5.116037">
        <ele>789.8</ele>
        <time>1970-01-01T00:00:00Z</time>
      </trkpt>
      <trkpt lat="39.518930" lon="-5.116037">
        <ele>789.8</ele>
        <time>1970-01-01T00:00:00Z</time>
      </trkpt>
      <trkpt lat="39.518930" lon="-5.116037">
        <ele>789.8</ele>
        <time>1970-01-01T00:00:00Z</time>
      </trkpt>
      <trkpt lat="39.518930" lon="-5.116037">
        <ele>789.8</ele>
        <time>1970-01-01T00:00:00Z</time>
      </trkpt>
      <trkpt lat="39.519032" lon="-5.115963">
        <ele>787.5</ele>
        <time>1970-01-01T00:00:00Z</time>
      </trkpt>
      <trkpt lat="39.519032" lon="-5.115963">
        <ele>787.5</ele>
        <time>1970-01-01T00:00:00Z</time>
      </trkpt>
      <trkpt lat="39.519032" lon="-5.115963">
        <ele>787.5</ele>
        <time>1970-01-01T00:00:00Z</time>
      </trkpt>
      <trkpt lat="39.519032" lon="-5.115963">
        <ele>787.5</ele>
        <time>1970-01-01T00:00:00Z</time>
      </trkpt>
      <trkpt lat="39.519100" lon="-5.115902">
        <ele>785.8</ele>
        <time>1970-01-01T00:00:00Z</time>
      </trkpt>
      <trkpt lat="39.519100" lon="-5.115902">
        <ele>785.8</ele>
        <time>1970-01-01T00:00:00Z</time>
      </trkpt>
      <trkpt lat="39.519100" lon="-5.115902">
        <ele>785.8</ele>
        <time>1970-01-01T00:00:00Z</time>
      </trkpt>
      <trkpt lat="39.519100" lon="-5.115902">
        <ele>785.8</ele>
        <time>1970-01-01T00:00:00Z</time>
      </trkpt>
      <trkpt lat="39.519181" lon="-5.115844">
        <ele>783.7</ele>
        <time>1970-01-01T00:00:00Z</time>
      </trkpt>
      <trkpt lat="39.519181" lon="-5.115844">
        <ele>783.7</ele>
        <time>1970-01-01T00:00:00Z</time>
      </trkpt>
      <trkpt lat="39.519181" lon="-5.115844">
        <ele>783.7</ele>
        <time>1970-01-01T00:00:00Z</time>
      </trkpt>
      <trkpt lat="39.519181" lon="-5.115844">
        <ele>783.7</ele>
        <time>1970-01-01T00:00:00Z</time>
      </trkpt>
      <trkpt lat="39.519241" lon="-5.115812">
        <ele>782.1</ele>
        <time>1970-01-01T00:00:00Z</time>
      </trkpt>
      <trkpt lat="39.519241" lon="-5.115812">
        <ele>782.1</ele>
        <time>1970-01-01T00:00:00Z</time>
      </trkpt>
      <trkpt lat="39.519241" lon="-5.115812">
        <ele>782.1</ele>
        <time>1970-01-01T00:00:00Z</time>
      </trkpt>
      <trkpt lat="39.519241" lon="-5.115812">
        <ele>782.1</ele>
        <time>1970-01-01T00:00:00Z</time>
      </trkpt>
      <trkpt lat="39.519277" lon="-5.115787">
        <ele>781.1</ele>
        <time>1970-01-01T00:00:00Z</time>
      </trkpt>
      <trkpt lat="39.519277" lon="-5.115787">
        <ele>781.1</ele>
        <time>1970-01-01T00:00:00Z</time>
      </trkpt>
      <trkpt lat="39.519277" lon="-5.115787">
        <ele>781.1</ele>
        <time>1970-01-01T00:00:00Z</time>
      </trkpt>
      <trkpt lat="39.519277" lon="-5.115787">
        <ele>781.1</ele>
        <time>1970-01-01T00:00:00Z</time>
      </trkpt>
      <trkpt lat="39.519329" lon="-5.115747">
        <ele>779.5</ele>
        <time>1970-01-01T00:00:00Z</time>
      </trkpt>
      <trkpt lat="39.519329" lon="-5.115747">
        <ele>779.5</ele>
        <time>1970-01-01T00:00:00Z</time>
      </trkpt>
      <trkpt lat="39.519329" lon="-5.115747">
        <ele>779.5</ele>
        <time>1970-01-01T00:00:00Z</time>
      </trkpt>
      <trkpt lat="39.519329" lon="-5.115747">
        <ele>779.5</ele>
        <time>1970-01-01T00:00:00Z</time>
      </trkpt>
      <trkpt lat="39.519366" lon="-5.115723">
        <ele>778.6</ele>
        <time>1970-01-01T00:00:00Z</time>
      </trkpt>
      <trkpt lat="39.519366" lon="-5.115723">
        <ele>778.6</ele>
        <time>1970-01-01T00:00:00Z</time>
      </trkpt>
      <trkpt lat="39.519366" lon="-5.115723">
        <ele>778.6</ele>
        <time>1970-01-01T00:00:00Z</time>
      </trkpt>
      <trkpt lat="39.519366" lon="-5.115723">
        <ele>778.6</ele>
        <time>1970-01-01T00:00:00Z</time>
      </trkpt>
      <trkpt lat="39.519431" lon="-5.115686">
        <ele>777.1</ele>
        <time>1970-01-01T00:00:00Z</time>
      </trkpt>
      <trkpt lat="39.519431" lon="-5.115686">
        <ele>777.1</ele>
        <time>1970-01-01T00:00:00Z</time>
      </trkpt>
      <trkpt lat="39.519431" lon="-5.115686">
        <ele>777.1</ele>
        <time>1970-01-01T00:00:00Z</time>
      </trkpt>
      <trkpt lat="39.519431" lon="-5.115686">
        <ele>777.1</ele>
        <time>1970-01-01T00:00:00Z</time>
      </trkpt>
      <trkpt lat="39.519540" lon="-5.115636">
        <ele>774.8</ele>
        <time>1970-01-01T00:00:00Z</time>
      </trkpt>
      <trkpt lat="39.519540" lon="-5.115636">
        <ele>774.8</ele>
        <time>1970-01-01T00:00:00Z</time>
      </trkpt>
      <trkpt lat="39.519540" lon="-5.115636">
        <ele>774.8</ele>
        <time>1970-01-01T00:00:00Z</time>
      </trkpt>
      <trkpt lat="39.519540" lon="-5.115636">
        <ele>774.8</ele>
        <time>1970-01-01T00:00:00Z</time>
      </trkpt>
      <trkpt lat="39.519643" lon="-5.115564">
        <ele>772.2</ele>
        <time>1970-01-01T00:00:00Z</time>
      </trkpt>
      <trkpt lat="39.519643" lon="-5.115564">
        <ele>772.2</ele>
        <time>1970-01-01T00:00:00Z</time>
      </trkpt>
      <trkpt lat="39.519643" lon="-5.115564">
        <ele>772.2</ele>
        <time>1970-01-01T00:00:00Z</time>
      </trkpt>
      <trkpt lat="39.519643" lon="-5.115564">
        <ele>772.2</ele>
        <time>1970-01-01T00:00:00Z</time>
      </trkpt>
      <trkpt lat="39.519707" lon="-5.115492">
        <ele>769.9</ele>
        <time>1970-01-01T00:00:00Z</time>
      </trkpt>
      <trkpt lat="39.519707" lon="-5.115492">
        <ele>769.9</ele>
        <time>1970-01-01T00:00:00Z</time>
      </trkpt>
      <trkpt lat="39.519707" lon="-5.115492">
        <ele>769.9</ele>
        <time>1970-01-01T00:00:00Z</time>
      </trkpt>
      <trkpt lat="39.519707" lon="-5.115492">
        <ele>769.9</ele>
        <time>1970-01-01T00:00:00Z</time>
      </trkpt>
      <trkpt lat="39.519875" lon="-5.115316">
        <ele>764.6</ele>
        <time>1970-01-01T00:00:00Z</time>
      </trkpt>
      <trkpt lat="39.519875" lon="-5.115316">
        <ele>764.6</ele>
        <time>1970-01-01T00:00:00Z</time>
      </trkpt>
      <trkpt lat="39.519875" lon="-5.115316">
        <ele>764.6</ele>
        <time>1970-01-01T00:00:00Z</time>
      </trkpt>
      <trkpt lat="39.519875" lon="-5.115316">
        <ele>764.6</ele>
        <time>1970-01-01T00:00:00Z</time>
      </trkpt>
      <trkpt lat="39.520002" lon="-5.115156">
        <ele>761.4</ele>
        <time>1970-01-01T00:00:00Z</time>
      </trkpt>
      <trkpt lat="39.520002" lon="-5.115156">
        <ele>761.4</ele>
        <time>1970-01-01T00:00:00Z</time>
      </trkpt>
      <trkpt lat="39.520002" lon="-5.115156">
        <ele>761.4</ele>
        <time>1970-01-01T00:00:00Z</time>
      </trkpt>
      <trkpt lat="39.520002" lon="-5.115156">
        <ele>761.4</ele>
        <time>1970-01-01T00:00:00Z</time>
      </trkpt>
      <trkpt lat="39.520048" lon="-5.115117">
        <ele>760.7</ele>
        <time>1970-01-01T00:00:00Z</time>
      </trkpt>
      <trkpt lat="39.520048" lon="-5.115117">
        <ele>760.7</ele>
        <time>1970-01-01T00:00:00Z</time>
      </trkpt>
      <trkpt lat="39.520048" lon="-5.115117">
        <ele>760.7</ele>
        <time>1970-01-01T00:00:00Z</time>
      </trkpt>
      <trkpt lat="39.520048" lon="-5.115117">
        <ele>760.7</ele>
        <time>1970-01-01T00:00:00Z</time>
      </trkpt>
    </trkseg>
    <trkseg>
      <trkpt lat="39.520048" lon="-5.115117">
        <ele>760.7</ele>
        <time>1970-01-01T00:00:00Z</time>
      </trkpt>
      <trkpt lat="39.520048" lon="-5.115117">
        <ele>760.7</ele>
        <time>1970-01-01T00:00:00Z</time>
      </trkpt>
      <trkpt lat="39.520048" lon="-5.115117">
        <ele>760.7</ele>
        <time>1970-01-01T00:00:00Z</time>
      </trkpt>
      <trkpt lat="39.520048" lon="-5.115117">
        <ele>760.7</ele>
        <time>1970-01-01T00:00:00Z</time>
      </trkpt>
      <trkpt lat="39.520148" lon="-5.114986">
        <ele>758.8</ele>
        <time>1970-01-01T00:00:00Z</time>
      </trkpt>
      <trkpt lat="39.520148" lon="-5.114986">
        <ele>758.8</ele>
        <time>1970-01-01T00:00:00Z</time>
      </trkpt>
      <trkpt lat="39.520148" lon="-5.114986">
        <ele>758.8</ele>
        <time>1970-01-01T00:00:00Z</time>
      </trkpt>
      <trkpt lat="39.520148" lon="-5.114986">
        <ele>758.8</ele>
        <time>1970-01-01T00:00:00Z</time>
      </trkpt>
      <trkpt lat="39.520278" lon="-5.114853">
        <ele>756.1</ele>
        <time>1970-01-01T00:00:00Z</time>
      </trkpt>
      <trkpt lat="39.520278" lon="-5.114853">
        <ele>756.1</ele>
        <time>1970-01-01T00:00:00Z</time>
      </trkpt>
      <trkpt lat="39.520278" lon="-5.114853">
        <ele>756.1</ele>
        <time>1970-01-01T00:00:00Z</time>
      </trkpt>
      <trkpt lat="39.520278" lon="-5.114853">
        <ele>756.1</ele>
        <time>1970-01-01T00:00:00Z</time>
      </trkpt>
      <trkpt lat="39.520359" lon="-5.114708">
        <ele>753.9</ele>
        <time>1970-01-01T00:00:00Z</time>
      </trkpt>
      <trkpt lat="39.520359" lon="-5.114708">
        <ele>753.9</ele>
        <time>1970-01-01T00:00:00Z</time>
      </trkpt>
      <trkpt lat="39.520359" lon="-5.114708">
        <ele>753.9</ele>
        <time>1970-01-01T00:00:00Z</time>
      </trkpt>
      <trkpt lat="39.520359" lon="-5.114708">
        <ele>753.9</ele>
        <time>1970-01-01T00:00:00Z</time>
      </trkpt>
      <trkpt lat="39.520386" lon="-5.114639">
        <ele>753.1</ele>
        <time>1970-01-01T00:00:00Z</time>
      </trkpt>
      <trkpt lat="39.520386" lon="-5.114639">
        <ele>753.1</ele>
        <time>1970-01-01T00:00:00Z</time>
      </trkpt>
      <trkpt lat="39.520386" lon="-5.114639">
        <ele>753.1</ele>
        <time>1970-01-01T00:00:00Z</time>
      </trkpt>
      <trkpt lat="39.520386" lon="-5.114639">
        <ele>753.1</ele>
        <time>1970-01-01T00:00:00Z</time>
      </trkpt>
      <trkpt lat="39.520357" lon="-5.114482">
        <ele>751.9</ele>
        <time>1970-01-01T00:00:00Z</time>
      </trkpt>
      <trkpt lat="39.520357" lon="-5.114482">
        <ele>751.9</ele>
        <time>1970-01-01T00:00:00Z</time>
      </trkpt>
      <trkpt lat="39.520357" lon="-5.114482">
        <ele>751.9</ele>
        <time>1970-01-01T00:00:00Z</time>
      </trkpt>
      <trkpt lat="39.520357" lon="-5.114482">
        <ele>751.9</ele>
        <time>1970-01-01T00:00:00Z</time>
      </trkpt>
      <trkpt lat="39.520319" lon="-5.114339">
        <ele>751.3</ele>
        <time>1970-01-01T00:00:00Z</time>
      </trkpt>
      <trkpt lat="39.520319" lon="-5.114339">
        <ele>751.3</ele>
        <time>1970-01-01T00:00:00Z</time>
      </trkpt>
      <trkpt lat="39.520319" lon="-5.114339">
        <ele>751.3</ele>
        <time>1970-01-01T00:00:00Z</time>
      </trkpt>
      <trkpt lat="39.520319" lon="-5.114339">
        <ele>751.3</ele>
        <time>1970-01-01T00:00:00Z</time>
      </trkpt>
      <trkpt lat="39.520207" lon="-5.114140">
        <ele>751.1</ele>
        <time>1970-01-01T00:00:00Z</time>
      </trkpt>
      <trkpt lat="39.520207" lon="-5.114140">
        <ele>751.1</ele>
        <time>1970-01-01T00:00:00Z</time>
      </trkpt>
      <trkpt lat="39.520207" lon="-5.114140">
        <ele>751.1</ele>
        <time>1970-01-01T00:00:00Z</time>
      </trkpt>
      <trkpt lat="39.520207" lon="-5.114140">
        <ele>751.1</ele>
        <time>1970-01-01T00:00:00Z</time>
      </trkpt>
      <trkpt lat="39.520123" lon="-5.113970">
        <ele>751.1</ele>
        <time>1970-01-01T00:00:00Z</time>
      </trkpt>
      <trkpt lat="39.520123" lon="-5.113970">
        <ele>751.1</ele>
        <time>1970-01-01T00:00:00Z</time>
      </trkpt>
      <trkpt lat="39.520123" lon="-5.113970">
        <ele>751.1</ele>
        <time>1970-01-01T00:00:00Z</time>
      </trkpt>
      <trkpt lat="39.520123" lon="-5.113970">
        <ele>751.1</ele>
        <time>1970-01-01T00:00:00Z</time>
      </trkpt>
      <trkpt lat="39.520054" lon="-5.113872">
        <ele>751.2</ele>
        <time>1970-01-01T00:00:00Z</time>
      </trkpt>
      <trkpt lat="39.520054" lon="-5.113872">
        <ele>751.2</ele>
        <time>1970-01-01T00:00:00Z</time>
      </trkpt>
      <trkpt lat="39.520054" lon="-5.113872">
        <ele>751.2</ele>
        <time>1970-01-01T00:00:00Z</time>
      </trkpt>
      <trkpt lat="39.520054" lon="-5.113872">
        <ele>751.2</ele>
        <time>1970-01-01T00:00:00Z</time>
      </trkpt>
      <trkpt lat="39.520025" lon="-5.113756">
        <ele>751.0</ele>
        <time>1970-01-01T00:00:00Z</time>
      </trkpt>
      <trkpt lat="39.520025" lon="-5.113756">
        <ele>751.0</ele>
        <time>1970-01-01T00:00:00Z</time>
      </trkpt>
      <trkpt lat="39.520025" lon="-5.113756">
        <ele>751.0</ele>
        <time>1970-01-01T00:00:00Z</time>
      </trkpt>
      <trkpt lat="39.520025" lon="-5.113756">
        <ele>751.0</ele>
        <time>1970-01-01T00:00:00Z</time>
      </trkpt>
      <trkpt lat="39.520007" lon="-5.113635">
        <ele>750.7</ele>
        <time>1970-01-01T00:00:00Z</time>
      </trkpt>
      <trkpt lat="39.520007" lon="-5.113635">
        <ele>750.7</ele>
        <time>1970-01-01T00:00:00Z</time>
      </trkpt>
      <trkpt lat="39.520007" lon="-5.113635">
        <ele>750.7</ele>
        <time>1970-01-01T00:00:00Z</time>
      </trkpt>
      <trkpt lat="39.520007" lon="-5.113635">
        <ele>750.7</ele>
        <time>1970-01-01T00:00:00Z</time>
      </trkpt>
      <trkpt lat="39.519997" lon="-5.113488">
        <ele>750.2</ele>
        <time>1970-01-01T00:00:00Z</time>
      </trkpt>
      <trkpt lat="39.519997" lon="-5.113488">
        <ele>750.2</ele>
        <time>1970-01-01T00:00:00Z</time>
      </trkpt>
      <trkpt lat="39.519997" lon="-5.113488">
        <ele>750.2</ele>
        <time>1970-01-01T00:00:00Z</time>
      </trkpt>
      <trkpt lat="39.519997" lon="-5.113488">
        <ele>750.2</ele>
        <time>1970-01-01T00:00:00Z</time>
      </trkpt>
      <trkpt lat="39.519999" lon="-5.113327">
        <ele>749.5</ele>
        <time>1970-01-01T00:00:00Z</time>
      </trkpt>
      <trkpt lat="39.519999" lon="-5.113327">
        <ele>749.5</ele>
        <time>1970-01-01T00:00:00Z</time>
      </trkpt>
      <trkpt lat="39.519999" lon="-5.113327">
        <ele>749.5</ele>
        <time>1970-01-01T00:00:00Z</time>
      </trkpt>
      <trkpt lat="39.519999" lon="-5.113327">
        <ele>749.5</ele>
        <time>1970-01-01T00:00:00Z</time>
      </trkpt>
      <trkpt lat="39.520021" lon="-5.113175">
        <ele>748.5</ele>
        <time>1970-01-01T00:00:00Z</time>
      </trkpt>
      <trkpt lat="39.520021" lon="-5.113175">
        <ele>748.5</ele>
        <time>1970-01-01T00:00:00Z</time>
      </trkpt>
      <trkpt lat="39.520021" lon="-5.113175">
        <ele>748.5</ele>
        <time>1970-01-01T00:00:00Z</time>
      </trkpt>
      <trkpt lat="39.520021" lon="-5.113175">
        <ele>748.5</ele>
        <time>1970-01-01T00:00:00Z</time>
      </trkpt>
      <trkpt lat="39.520108" lon="-5.112858">
        <ele>745.1</ele>
        <time>1970-01-01T00:00:00Z</time>
      </trkpt>
      <trkpt lat="39.520108" lon="-5.112858">
        <ele>745.1</ele>
        <time>1970-01-01T00:00:00Z</time>
      </trkpt>
      <trkpt lat="39.520108" lon="-5.112858">
        <ele>745.1</ele>
        <time>1970-01-01T00:00:00Z</time>
      </trkpt>
      <trkpt lat="39.520108" lon="-5.112858">
        <ele>745.1</ele>
        <time>1970-01-01T00:00:00Z</time>
      </trkpt>
      <trkpt lat="39.520155" lon="-5.112675">
        <ele>743.6</ele>
        <time>1970-01-01T00:00:00Z</time>
      </trkpt>
      <trkpt lat="39.520155" lon="-5.112675">
        <ele>743.6</ele>
        <time>1970-01-01T00:00:00Z</time>
      </trkpt>
      <trkpt lat="39.520155" lon="-5.112675">
        <ele>743.6</ele>
        <time>1970-01-01T00:00:00Z</time>
      </trkpt>
      <trkpt lat="39.520155" lon="-5.112675">
        <ele>743.6</ele>
        <time>1970-01-01T00:00:00Z</time>
      </trkpt>
      <trkpt lat="39.520186" lon="-5.112570">
        <ele>742.7</ele>
        <time>1970-01-01T00:00:00Z</time>
      </trkpt>
      <trkpt lat="39.520186" lon="-5.112570">
        <ele>742.7</ele>
        <time>1970-01-01T00:00:00Z</time>
      </trkpt>
      <trkpt lat="39.520186" lon="-5.112570">
        <ele>742.7</ele>
        <time>1970-01-01T00:00:00Z</time>
      </trkpt>
      <trkpt lat="39.520186" lon="-5.112570">
        <ele>742.7</ele>
        <time>1970-01-01T00:00:00Z</time>
      </trkpt>
      <trkpt lat="39.520214" lon="-5.112429">
        <ele>741.1</ele>
        <time>1970-01-01T00:00:00Z</time>
      </trkpt>
      <trkpt lat="39.520214" lon="-5.112429">
        <ele>741.1</ele>
        <time>1970-01-01T00:00:00Z</time>
      </trkpt>
      <trkpt lat="39.520214" lon="-5.112429">
        <ele>741.1</ele>
        <time>1970-01-01T00:00:00Z</time>
      </trkpt>
      <trkpt lat="39.520214" lon="-5.112429">
        <ele>741.1</ele>
        <time>1970-01-01T00:00:00Z</time>
      </trkpt>
      <trkpt lat="39.520232" lon="-5.112290">
        <ele>739.7</ele>
        <time>1970-01-01T00:00:00Z</time>
      </trkpt>
      <trkpt lat="39.520232" lon="-5.112290">
        <ele>739.7</ele>
        <time>1970-01-01T00:00:00Z</time>
      </trkpt>
      <trkpt lat="39.520232" lon="-5.112290">
        <ele>739.7</ele>
        <time>1970-01-01T00:00:00Z</time>
      </trkpt>
      <trkpt lat="39.520232" lon="-5.112290">
        <ele>739.7</ele>
        <time>1970-01-01T00:00:00Z</time>
      </trkpt>
      <trkpt lat="39.520256" lon="-5.112130">
        <ele>738.0</ele>
        <time>1970-01-01T00:00:00Z</time>
      </trkpt>
      <trkpt lat="39.520256" lon="-5.112130">
        <ele>738.0</ele>
        <time>1970-01-01T00:00:00Z</time>
      </trkpt>
      <trkpt lat="39.520256" lon="-5.112130">
        <ele>738.0</ele>
        <time>1970-01-01T00:00:00Z</time>
      </trkpt>
      <trkpt lat="39.520256" lon="-5.112130">
        <ele>738.0</ele>
        <time>1970-01-01T00:00:00Z</time>
      </trkpt>
      <trkpt lat="39.520267" lon="-5.111946">
        <ele>736.2</ele>
        <time>1970-01-01T00:00:00Z</time>
      </trkpt>
      <trkpt lat="39.520267" lon="-5.111946">
        <ele>736.2</ele>
        <time>1970-01-01T00:00:00Z</time>
      </trkpt>
      <trkpt lat="39.520267" lon="-5.111946">
        <ele>736.2</ele>
        <time>1970-01-01T00:00:00Z</time>
      </trkpt>
      <trkpt lat="39.520267" lon="-5.111946">
        <ele>736.2</ele>
        <time>1970-01-01T00:00:00Z</time>
      </trkpt>
      <trkpt lat="39.520257" lon="-5.111746">
        <ele>734.6</ele>
        <time>1970-01-01T00:00:00Z</time>
      </trkpt>
      <trkpt lat="39.520257" lon="-5.111746">
        <ele>734.6</ele>
        <time>1970-01-01T00:00:00Z</time>
      </trkpt>
      <trkpt lat="39.520257" lon="-5.111746">
        <ele>734.6</ele>
        <time>1970-01-01T00:00:00Z</time>
      </trkpt>
      <trkpt lat="39.520257" lon="-5.111746">
        <ele>734.6</ele>
        <time>1970-01-01T00:00:00Z</time>
      </trkpt>
      <trkpt lat="39.520232" lon="-5.111672">
        <ele>734.4</ele>
        <time>1970-01-01T00:00:00Z</time>
      </trkpt>
      <trkpt lat="39.520232" lon="-5.111672">
        <ele>734.4</ele>
        <time>1970-01-01T00:00:00Z</time>
      </trkpt>
      <trkpt lat="39.520232" lon="-5.111672">
        <ele>734.4</ele>
        <time>1970-01-01T00:00:00Z</time>
      </trkpt>
      <trkpt lat="39.520232" lon="-5.111672">
        <ele>734.4</ele>
        <time>1970-01-01T00:00:00Z</time>
      </trkpt>
      <trkpt lat="39.520187" lon="-5.111611">
        <ele>734.7</ele>
        <time>1970-01-01T00:00:00Z</time>
      </trkpt>
      <trkpt lat="39.520187" lon="-5.111611">
        <ele>734.7</ele>
        <time>1970-01-01T00:00:00Z</time>
      </trkpt>
      <trkpt lat="39.520187" lon="-5.111611">
        <ele>734.7</ele>
        <time>1970-01-01T00:00:00Z</time>
      </trkpt>
      <trkpt lat="39.520187" lon="-5.111611">
        <ele>734.7</ele>
        <time>1970-01-01T00:00:00Z</time>
      </trkpt>
      <trkpt lat="39.520150" lon="-5.111508">
        <ele>734.4</ele>
        <time>1970-01-01T00:00:00Z</time>
      </trkpt>
      <trkpt lat="39.520150" lon="-5.111508">
        <ele>734.4</ele>
        <time>1970-01-01T00:00:00Z</time>
      </trkpt>
      <trkpt lat="39.520150" lon="-5.111508">
        <ele>734.4</ele>
        <time>1970-01-01T00:00:00Z</time>
      </trkpt>
      <trkpt lat="39.520150" lon="-5.111508">
        <ele>734.4</ele>
        <time>1970-01-01T00:00:00Z</time>
      </trkpt>
      <trkpt lat="39.520175" lon="-5.111404">
        <ele>733.2</ele>
        <time>1970-01-01T00:00:00Z</time>
      </trkpt>
      <trkpt lat="39.520175" lon="-5.111404">
        <ele>733.2</ele>
        <time>1970-01-01T00:00:00Z</time>
      </trkpt>
      <trkpt lat="39.520175" lon="-5.111404">
        <ele>733.2</ele>
        <time>1970-01-01T00:00:00Z</time>
      </trkpt>
      <trkpt lat="39.520175" lon="-5.111404">
        <ele>733.2</ele>
        <time>1970-01-01T00:00:00Z</time>
      </trkpt>
      <trkpt lat="39.520231" lon="-5.111265">
        <ele>731.6</ele>
        <time>1970-01-01T00:00:00Z</time>
      </trkpt>
      <trkpt lat="39.520231" lon="-5.111265">
        <ele>731.6</ele>
        <time>1970-01-01T00:00:00Z</time>
      </trkpt>
      <trkpt lat="39.520231" lon="-5.111265">
        <ele>731.6</ele>
        <time>1970-01-01T00:00:00Z</time>
      </trkpt>
      <trkpt lat="39.520231" lon="-5.111265">
        <ele>731.6</ele>
        <time>1970-01-01T00:00:00Z</time>
      </trkpt>
      <trkpt lat="39.520338" lon="-5.111043">
        <ele>729.6</ele>
        <time>1970-01-01T00:00:00Z</time>
      </trkpt>
      <trkpt lat="39.520338" lon="-5.111043">
        <ele>729.6</ele>
        <time>1970-01-01T00:00:00Z</time>
      </trkpt>
      <trkpt lat="39.520338" lon="-5.111043">
        <ele>729.6</ele>
        <time>1970-01-01T00:00:00Z</time>
      </trkpt>
      <trkpt lat="39.520338" lon="-5.111043">
        <ele>729.6</ele>
        <time>1970-01-01T00:00:00Z</time>
      </trkpt>
      <trkpt lat="39.520445" lon="-5.110803">
        <ele>727.6</ele>
        <time>1970-01-01T00:00:00Z</time>
      </trkpt>
      <trkpt lat="39.520445" lon="-5.110803">
        <ele>727.6</ele>
        <time>1970-01-01T00:00:00Z</time>
      </trkpt>
      <trkpt lat="39.520445" lon="-5.110803">
        <ele>727.6</ele>
        <time>1970-01-01T00:00:00Z</time>
      </trkpt>
      <trkpt lat="39.520445" lon="-5.110803">
        <ele>727.6</ele>
        <time>1970-01-01T00:00:00Z</time>
      </trkpt>
      <trkpt lat="39.520486" lon="-5.110660">
        <ele>727.0</ele>
        <time>1970-01-01T00:00:00Z</time>
      </trkpt>
      <trkpt lat="39.520486" lon="-5.110660">
        <ele>727.0</ele>
        <time>1970-01-01T00:00:00Z</time>
      </trkpt>
      <trkpt lat="39.520486" lon="-5.110660">
        <ele>727.0</ele>
        <time>1970-01-01T00:00:00Z</time>
      </trkpt>
      <trkpt lat="39.520486" lon="-5.110660">
        <ele>727.0</ele>
        <time>1970-01-01T00:00:00Z</time>
      </trkpt>
      <trkpt lat="39.520512" lon="-5.110591">
        <ele>726.7</ele>
        <time>1970-01-01T00:00:00Z</time>
      </trkpt>
      <trkpt lat="39.520512" lon="-5.110591">
        <ele>726.7</ele>
        <time>1970-01-01T00:00:00Z</time>
      </trkpt>
      <trkpt lat="39.520512" lon="-5.110591">
        <ele>726.7</ele>
        <time>1970-01-01T00:00:00Z</time>
      </trkpt>
      <trkpt lat="39.520512" lon="-5.110591">
        <ele>726.7</ele>
        <time>1970-01-01T00:00:00Z</time>
      </trkpt>
      <trkpt lat="39.520524" lon="-5.110546">
        <ele>726.5</ele>
        <time>1970-01-01T00:00:00Z</time>
      </trkpt>
      <trkpt lat="39.520524" lon="-5.110546">
        <ele>726.5</ele>
        <time>1970-01-01T00:00:00Z</time>
      </trkpt>
      <trkpt lat="39.520524" lon="-5.110546">
        <ele>726.5</ele>
        <time>1970-01-01T00:00:00Z</time>
      </trkpt>
      <trkpt lat="39.520524" lon="-5.110546">
        <ele>726.5</ele>
        <time>1970-01-01T00:00:00Z</time>
      </trkpt>
      <trkpt lat="39.520470" lon="-5.110413">
        <ele>726.7</ele>
        <time>1970-01-01T00:00:00Z</time>
      </trkpt>
      <trkpt lat="39.520470" lon="-5.110413">
        <ele>726.7</ele>
        <time>1970-01-01T00:00:00Z</time>
      </trkpt>
      <trkpt lat="39.520470" lon="-5.110413">
        <ele>726.7</ele>
        <time>1970-01-01T00:00:00Z</time>
      </trkpt>
      <trkpt lat="39.520470" lon="-5.110413">
        <ele>726.7</ele>
        <time>1970-01-01T00:00:00Z</time>
      </trkpt>
      <trkpt lat="39.520377" lon="-5.110142">
        <ele>726.3</ele>
        <time>1970-01-01T00:00:00Z</time>
      </trkpt>
      <trkpt lat="39.520377" lon="-5.110142">
        <ele>726.3</ele>
        <time>1970-01-01T00:00:00Z</time>
      </trkpt>
      <trkpt lat="39.520377" lon="-5.110142">
        <ele>726.3</ele>
        <time>1970-01-01T00:00:00Z</time>
      </trkpt>
      <trkpt lat="39.520377" lon="-5.110142">
        <ele>726.3</ele>
        <time>1970-01-01T00:00:00Z</time>
      </trkpt>
      <trkpt lat="39.520277" lon="-5.109892">
        <ele>726.7</ele>
        <time>1970-01-01T00:00:00Z</time>
      </trkpt>
      <trkpt lat="39.520277" lon="-5.109892">
        <ele>726.7</ele>
        <time>1970-01-01T00:00:00Z</time>
      </trkpt>
      <trkpt lat="39.520277" lon="-5.109892">
        <ele>726.7</ele>
        <time>1970-01-01T00:00:00Z</time>
      </trkpt>
      <trkpt lat="39.520277" lon="-5.109892">
        <ele>726.7</ele>
        <time>1970-01-01T00:00:00Z</time>
      </trkpt>
      <trkpt lat="39.520199" lon="-5.109697">
        <ele>727.2</ele>
        <time>1970-01-01T00:00:00Z</time>
      </trkpt>
      <trkpt lat="39.520199" lon="-5.109697">
        <ele>727.2</ele>
        <time>1970-01-01T00:00:00Z</time>
      </trkpt>
      <trkpt lat="39.520199" lon="-5.109697">
        <ele>727.2</ele>
        <time>1970-01-01T00:00:00Z</time>
      </trkpt>
      <trkpt lat="39.520199" lon="-5.109697">
        <ele>727.2</ele>
        <time>1970-01-01T00:00:00Z</time>
      </trkpt>
      <trkpt lat="39.520081" lon="-5.109385">
        <ele>727.4</ele>
        <time>1970-01-01T00:00:00Z</time>
      </trkpt>
      <trkpt lat="39.520081" lon="-5.109385">
        <ele>727.4</ele>
        <time>1970-01-01T00:00:00Z</time>
      </trkpt>
      <trkpt lat="39.520081" lon="-5.109385">
        <ele>727.4</ele>
        <time>1970-01-01T00:00:00Z</time>
      </trkpt>
      <trkpt lat="39.520081" lon="-5.109385">
        <ele>727.4</ele>
        <time>1970-01-01T00:00:00Z</time>
      </trkpt>
      <trkpt lat="39.519988" lon="-5.109167">
        <ele>728.5</ele>
        <time>1970-01-01T00:00:00Z</time>
      </trkpt>
      <trkpt lat="39.519988" lon="-5.109167">
        <ele>728.5</ele>
        <time>1970-01-01T00:00:00Z</time>
      </trkpt>
      <trkpt lat="39.519988" lon="-5.109167">
        <ele>728.5</ele>
        <time>1970-01-01T00:00:00Z</time>
      </trkpt>
      <trkpt lat="39.519988" lon="-5.109167">
        <ele>728.5</ele>
        <time>1970-01-01T00:00:00Z</time>
      </trkpt>
      <trkpt lat="39.519915" lon="-5.109007">
        <ele>728.9</ele>
        <time>1970-01-01T00:00:00Z</time>
      </trkpt>
      <trkpt lat="39.519915" lon="-5.109007">
        <ele>728.9</ele>
        <time>1970-01-01T00:00:00Z</time>
      </trkpt>
      <trkpt lat="39.519915" lon="-5.109007">
        <ele>728.9</ele>
        <time>1970-01-01T00:00:00Z</time>
      </trkpt>
      <trkpt lat="39.519915" lon="-5.109007">
        <ele>728.9</ele>
        <time>1970-01-01T00:00:00Z</time>
      </trkpt>
      <trkpt lat="39.519772" lon="-5.108801">
        <ele>730.3</ele>
        <time>1970-01-01T00:00:00Z</time>
      </trkpt>
      <trkpt lat="39.519772" lon="-5.108801">
        <ele>730.3</ele>
        <time>1970-01-01T00:00:00Z</time>
      </trkpt>
      <trkpt lat="39.519772" lon="-5.108801">
        <ele>730.3</ele>
        <time>1970-01-01T00:00:00Z</time>
      </trkpt>
      <trkpt lat="39.519772" lon="-5.108801">
        <ele>730.3</ele>
        <time>1970-01-01T00:00:00Z</time>
      </trkpt>
      <trkpt lat="39.519661" lon="-5.108634">
        <ele>731.5</ele>
        <time>1970-01-01T00:00:00Z</time>
      </trkpt>
      <trkpt lat="39.519661" lon="-5.108634">
        <ele>731.5</ele>
        <time>1970-01-01T00:00:00Z</time>
      </trkpt>
      <trkpt lat="39.519661" lon="-5.108634">
        <ele>731.5</ele>
        <time>1970-01-01T00:00:00Z</time>
      </trkpt>
      <trkpt lat="39.519661" lon="-5.108634">
        <ele>731.5</ele>
        <time>1970-01-01T00:00:00Z</time>
      </trkpt>
      <trkpt lat="39.519552" lon="-5.108502">
        <ele>732.4</ele>
        <time>1970-01-01T00:00:00Z</time>
      </trkpt>
      <trkpt lat="39.519552" lon="-5.108502">
        <ele>732.4</ele>
        <time>1970-01-01T00:00:00Z</time>
      </trkpt>
      <trkpt lat="39.519552" lon="-5.108502">
        <ele>732.4</ele>
        <time>1970-01-01T00:00:00Z</time>
      </trkpt>
      <trkpt lat="39.519552" lon="-5.108502">
        <ele>732.4</ele>
        <time>1970-01-01T00:00:00Z</time>
      </trkpt>
      <trkpt lat="39.519508" lon="-5.108440">
        <ele>732.9</ele>
        <time>1970-01-01T00:00:00Z</time>
      </trkpt>
      <trkpt lat="39.519508" lon="-5.108440">
        <ele>732.9</ele>
        <time>1970-01-01T00:00:00Z</time>
      </trkpt>
      <trkpt lat="39.519508" lon="-5.108440">
        <ele>732.9</ele>
        <time>1970-01-01T00:00:00Z</time>
      </trkpt>
      <trkpt lat="39.519508" lon="-5.108440">
        <ele>732.9</ele>
        <time>1970-01-01T00:00:00Z</time>
      </trkpt>
      <trkpt lat="39.519446" lon="-5.108343">
        <ele>733.2</ele>
        <time>1970-01-01T00:00:00Z</time>
      </trkpt>
      <trkpt lat="39.519446" lon="-5.108343">
        <ele>733.2</ele>
        <time>1970-01-01T00:00:00Z</time>
      </trkpt>
      <trkpt lat="39.519446" lon="-5.108343">
        <ele>733.2</ele>
        <time>1970-01-01T00:00:00Z</time>
      </trkpt>
      <trkpt lat="39.519446" lon="-5.108343">
        <ele>733.2</ele>
        <time>1970-01-01T00:00:00Z</time>
      </trkpt>
      <trkpt lat="39.519368" lon="-5.108139">
        <ele>733.1</ele>
        <time>1970-01-01T00:00:00Z</time>
      </trkpt>
      <trkpt lat="39.519368" lon="-5.108139">
        <ele>733.1</ele>
        <time>1970-01-01T00:00:00Z</time>
      </trkpt>
      <trkpt lat="39.519368" lon="-5.108139">
        <ele>733.1</ele>
        <time>1970-01-01T00:00:00Z</time>
      </trkpt>
      <trkpt lat="39.519368" lon="-5.108139">
        <ele>733.1</ele>
        <time>1970-01-01T00:00:00Z</time>
      </trkpt>
      <trkpt lat="39.519300" lon="-5.107951">
        <ele>733.2</ele>
        <time>1970-01-01T00:00:00Z</time>
      </trkpt>
      <trkpt lat="39.519300" lon="-5.107951">
        <ele>733.2</ele>
        <time>1970-01-01T00:00:00Z</time>
      </trkpt>
      <trkpt lat="39.519300" lon="-5.107951">
        <ele>733.2</ele>
        <time>1970-01-01T00:00:00Z</time>
      </trkpt>
      <trkpt lat="39.519300" lon="-5.107951">
        <ele>733.2</ele>
        <time>1970-01-01T00:00:00Z</time>
      </trkpt>
      <trkpt lat="39.519270" lon="-5.107800">
        <ele>732.8</ele>
        <time>1970-01-01T00:00:00Z</time>
      </trkpt>
      <trkpt lat="39.519270" lon="-5.107800">
        <ele>732.8</ele>
        <time>1970-01-01T00:00:00Z</time>
      </trkpt>
      <trkpt lat="39.519270" lon="-5.107800">
        <ele>732.8</ele>
        <time>1970-01-01T00:00:00Z</time>
      </trkpt>
      <trkpt lat="39.519270" lon="-5.107800">
        <ele>732.8</ele>
        <time>1970-01-01T00:00:00Z</time>
      </trkpt>
      <trkpt lat="39.519252" lon="-5.107676">
        <ele>732.5</ele>
        <time>1970-01-01T00:00:00Z</time>
      </trkpt>
      <trkpt lat="39.519252" lon="-5.107676">
        <ele>732.5</ele>
        <time>1970-01-01T00:00:00Z</time>
      </trkpt>
      <trkpt lat="39.519252" lon="-5.107676">
        <ele>732.5</ele>
        <time>1970-01-01T00:00:00Z</time>
      </trkpt>
      <trkpt lat="39.519252" lon="-5.107676">
        <ele>732.5</ele>
        <time>1970-01-01T00:00:00Z</time>
      </trkpt>
      <trkpt lat="39.519251" lon="-5.107577">
        <ele>732.2</ele>
        <time>1970-01-01T00:00:00Z</time>
      </trkpt>
      <trkpt lat="39.519251" lon="-5.107577">
        <ele>732.2</ele>
        <time>1970-01-01T00:00:00Z</time>
      </trkpt>
      <trkpt lat="39.519251" lon="-5.107577">
        <ele>732.2</ele>
        <time>1970-01-01T00:00:00Z</time>
      </trkpt>
      <trkpt lat="39.519251" lon="-5.107577">
        <ele>732.2</ele>
        <time>1970-01-01T00:00:00Z</time>
      </trkpt>
      <trkpt lat="39.519278" lon="-5.107411">
        <ele>731.6</ele>
        <time>1970-01-01T00:00:00Z</time>
      </trkpt>
      <trkpt lat="39.519278" lon="-5.107411">
        <ele>731.6</ele>
        <time>1970-01-01T00:00:00Z</time>
      </trkpt>
      <trkpt lat="39.519278" lon="-5.107411">
        <ele>731.6</ele>
        <time>1970-01-01T00:00:00Z</time>
      </trkpt>
      <trkpt lat="39.519278" lon="-5.107411">
        <ele>731.6</ele>
        <time>1970-01-01T00:00:00Z</time>
      </trkpt>
      <trkpt lat="39.519358" lon="-5.107139">
        <ele>730.6</ele>
        <time>1970-01-01T00:00:00Z</time>
      </trkpt>
      <trkpt lat="39.519358" lon="-5.107139">
        <ele>730.6</ele>
        <time>1970-01-01T00:00:00Z</time>
      </trkpt>
      <trkpt lat="39.519358" lon="-5.107139">
        <ele>730.6</ele>
        <time>1970-01-01T00:00:00Z</time>
      </trkpt>
      <trkpt lat="39.519358" lon="-5.107139">
        <ele>730.6</ele>
        <time>1970-01-01T00:00:00Z</time>
      </trkpt>
      <trkpt lat="39.519405" lon="-5.106985">
        <ele>729.8</ele>
        <time>1970-01-01T00:00:00Z</time>
      </trkpt>
      <trkpt lat="39.519405" lon="-5.106985">
        <ele>729.8</ele>
        <time>1970-01-01T00:00:00Z</time>
      </trkpt>
      <trkpt lat="39.519405" lon="-5.106985">
        <ele>729.8</ele>
        <time>1970-01-01T00:00:00Z</time>
      </trkpt>
      <trkpt lat="39.519405" lon="-5.106985">
        <ele>729.8</ele>
        <time>1970-01-01T00:00:00Z</time>
      </trkpt>
      <trkpt lat="39.519433" lon="-5.106833">
        <ele>728.8</ele>
        <time>1970-01-01T00:00:00Z</time>
      </trkpt>
      <trkpt lat="39.519433" lon="-5.106833">
        <ele>728.8</ele>
        <time>1970-01-01T00:00:00Z</time>
      </trkpt>
      <trkpt lat="39.519433" lon="-5.106833">
        <ele>728.8</ele>
        <time>1970-01-01T00:00:00Z</time>
      </trkpt>
      <trkpt lat="39.519433" lon="-5.106833">
        <ele>728.8</ele>
        <time>1970-01-01T00:00:00Z</time>
      </trkpt>
      <trkpt lat="39.519455" lon="-5.106687">
        <ele>728.3</ele>
        <time>1970-01-01T00:00:00Z</time>
      </trkpt>
      <trkpt lat="39.519455" lon="-5.106687">
        <ele>728.3</ele>
        <time>1970-01-01T00:00:00Z</time>
      </trkpt>
      <trkpt lat="39.519455" lon="-5.106687">
        <ele>728.3</ele>
        <time>1970-01-01T00:00:00Z</time>
      </trkpt>
      <trkpt lat="39.519455" lon="-5.106687">
        <ele>728.3</ele>
        <time>1970-01-01T00:00:00Z</time>
      </trkpt>
      <trkpt lat="39.519456" lon="-5.106508">
        <ele>728.3</ele>
        <time>1970-01-01T00:00:00Z</time>
      </trkpt>
      <trkpt lat="39.519456" lon="-5.106508">
        <ele>728.3</ele>
        <time>1970-01-01T00:00:00Z</time>
      </trkpt>
      <trkpt lat="39.519456" lon="-5.106508">
        <ele>728.3</ele>
        <time>1970-01-01T00:00:00Z</time>
      </trkpt>
      <trkpt lat="39.519456" lon="-5.106508">
        <ele>728.3</ele>
        <time>1970-01-01T00:00:00Z</time>
      </trkpt>
      <trkpt lat="39.519440" lon="-5.106301">
        <ele>728.5</ele>
        <time>1970-01-01T00:00:00Z</time>
      </trkpt>
      <trkpt lat="39.519440" lon="-5.106301">
        <ele>728.5</ele>
        <time>1970-01-01T00:00:00Z</time>
      </trkpt>
      <trkpt lat="39.519440" lon="-5.106301">
        <ele>728.5</ele>
        <time>1970-01-01T00:00:00Z</time>
      </trkpt>
      <trkpt lat="39.519440" lon="-5.106301">
        <ele>728.5</ele>
        <time>1970-01-01T00:00:00Z</time>
      </trkpt>
      <trkpt lat="39.519409" lon="-5.106059">
        <ele>729.0</ele>
        <time>1970-01-01T00:00:00Z</time>
      </trkpt>
      <trkpt lat="39.519409" lon="-5.106059">
        <ele>729.0</ele>
        <time>1970-01-01T00:00:00Z</time>
      </trkpt>
      <trkpt lat="39.519409" lon="-5.106059">
        <ele>729.0</ele>
        <time>1970-01-01T00:00:00Z</time>
      </trkpt>
      <trkpt lat="39.519409" lon="-5.106059">
        <ele>729.0</ele>
        <time>1970-01-01T00:00:00Z</time>
      </trkpt>
      <trkpt lat="39.519395" lon="-5.105883">
        <ele>729.4</ele>
        <time>1970-01-01T00:00:00Z</time>
      </trkpt>
      <trkpt lat="39.519395" lon="-5.105883">
        <ele>729.4</ele>
        <time>1970-01-01T00:00:00Z</time>
      </trkpt>
      <trkpt lat="39.519395" lon="-5.105883">
        <ele>729.4</ele>
        <time>1970-01-01T00:00:00Z</time>
      </trkpt>
      <trkpt lat="39.519395" lon="-5.105883">
        <ele>729.4</ele>
        <time>1970-01-01T00:00:00Z</time>
      </trkpt>
      <trkpt lat="39.519380" lon="-5.105699">
        <ele>729.5</ele>
        <time>1970-01-01T00:00:00Z</time>
      </trkpt>
      <trkpt lat="39.519380" lon="-5.105699">
        <ele>729.5</ele>
        <time>1970-01-01T00:00:00Z</time>
      </trkpt>
      <trkpt lat="39.519380" lon="-5.105699">
        <ele>729.5</ele>
        <time>1970-01-01T00:00:00Z</time>
      </trkpt>
      <trkpt lat="39.519380" lon="-5.105699">
        <ele>729.5</ele>
        <time>1970-01-01T00:00:00Z</time>
      </trkpt>
      <trkpt lat="39.519363" lon="-5.105428">
        <ele>729.7</ele>
        <time>1970-01-01T00:00:00Z</time>
      </trkpt>
      <trkpt lat="39.519363" lon="-5.105428">
        <ele>729.7</ele>
        <time>1970-01-01T00:00:00Z</time>
      </trkpt>
      <trkpt lat="39.519363" lon="-5.105428">
        <ele>729.7</ele>
        <time>1970-01-01T00:00:00Z</time>
      </trkpt>
      <trkpt lat="39.519363" lon="-5.105428">
        <ele>729.7</ele>
        <time>1970-01-01T00:00:00Z</time>
      </trkpt>
      <trkpt lat="39.519334" lon="-5.105177">
        <ele>729.0</ele>
        <time>1970-01-01T00:00:00Z</time>
      </trkpt>
      <trkpt lat="39.519334" lon="-5.105177">
        <ele>729.0</ele>
        <time>1970-01-01T00:00:00Z</time>
      </trkpt>
      <trkpt lat="39.519334" lon="-5.105177">
        <ele>729.0</ele>
        <time>1970-01-01T00:00:00Z</time>
      </trkpt>
      <trkpt lat="39.519334" lon="-5.105177">
        <ele>729.0</ele>
        <time>1970-01-01T00:00:00Z</time>
      </trkpt>
      <trkpt lat="39.519292" lon="-5.104929">
        <ele>729.1</ele>
        <time>1970-01-01T00:00:00Z</time>
      </trkpt>
      <trkpt lat="39.519292" lon="-5.104929">
        <ele>729.1</ele>
        <time>1970-01-01T00:00:00Z</time>
      </trkpt>
      <trkpt lat="39.519292" lon="-5.104929">
        <ele>729.1</ele>
        <time>1970-01-01T00:00:00Z</time>
      </trkpt>
      <trkpt lat="39.519292" lon="-5.104929">
        <ele>729.1</ele>
        <time>1970-01-01T00:00:00Z</time>
      </trkpt>
      <trkpt lat="39.519234" lon="-5.104757">
        <ele>728.9</ele>
        <time>1970-01-01T00:00:00Z</time>
      </trkpt>
      <trkpt lat="39.519234" lon="-5.104757">
        <ele>728.9</ele>
        <time>1970-01-01T00:00:00Z</time>
      </trkpt>
      <trkpt lat="39.519234" lon="-5.104757">
        <ele>728.9</ele>
        <time>1970-01-01T00:00:00Z</time>
      </trkpt>
      <trkpt lat="39.519234" lon="-5.104757">
        <ele>728.9</ele>
        <time>1970-01-01T00:00:00Z</time>
      </trkpt>
      <trkpt lat="39.519146" lon="-5.104548">
        <ele>728.8</ele>
        <time>1970-01-01T00:00:00Z</time>
      </trkpt>
      <trkpt lat="39.519146" lon="-5.104548">
        <ele>728.8</ele>
        <time>1970-01-01T00:00:00Z</time>
      </trkpt>
      <trkpt lat="39.519146" lon="-5.104548">
        <ele>728.8</ele>
        <time>1970-01-01T00:00:00Z</time>
      </trkpt>
      <trkpt lat="39.519146" lon="-5.104548">
        <ele>728.8</ele>
        <time>1970-01-01T00:00:00Z</time>
      </trkpt>
      <trkpt lat="39.519082" lon="-5.104390">
        <ele>728.6</ele>
        <time>1970-01-01T00:00:00Z</time>
      </trkpt>
      <trkpt lat="39.519082" lon="-5.104390">
        <ele>728.6</ele>
        <time>1970-01-01T00:00:00Z</time>
      </trkpt>
      <trkpt lat="39.519082" lon="-5.104390">
        <ele>728.6</ele>
        <time>1970-01-01T00:00:00Z</time>
      </trkpt>
      <trkpt lat="39.519082" lon="-5.104390">
        <ele>728.6</ele>
        <time>1970-01-01T00:00:00Z</time>
      </trkpt>
      <trkpt lat="39.518896" lon="-5.103917">
        <ele>727.3</ele>
        <time>1970-01-01T00:00:00Z</time>
      </trkpt>
      <trkpt lat="39.518896" lon="-5.103917">
        <ele>727.3</ele>
        <time>1970-01-01T00:00:00Z</time>
      </trkpt>
      <trkpt lat="39.518896" lon="-5.103917">
        <ele>727.3</ele>
        <time>1970-01-01T00:00:00Z</time>
      </trkpt>
      <trkpt lat="39.518896" lon="-5.103917">
        <ele>727.3</ele>
        <time>1970-01-01T00:00:00Z</time>
      </trkpt>
      <trkpt lat="39.518810" lon="-5.103719">
        <ele>726.6</ele>
        <time>1970-01-01T00:00:00Z</time>
      </trkpt>
      <trkpt lat="39.518810" lon="-5.103719">
        <ele>726.6</ele>
        <time>1970-01-01T00:00:00Z</time>
      </trkpt>
      <trkpt lat="39.518810" lon="-5.103719">
        <ele>726.6</ele>
        <time>1970-01-01T00:00:00Z</time>
      </trkpt>
      <trkpt lat="39.518810" lon="-5.103719">
        <ele>726.6</ele>
        <time>1970-01-01T00:00:00Z</time>
      </trkpt>
      <trkpt lat="39.518735" lon="-5.103533">
        <ele>726.0</ele>
        <time>1970-01-01T00:00:00Z</time>
      </trkpt>
      <trkpt lat="39.518735" lon="-5.103533">
        <ele>726.0</ele>
        <time>1970-01-01T00:00:00Z</time>
      </trkpt>
      <trkpt lat="39.518735" lon="-5.103533">
        <ele>726.0</ele>
        <time>1970-01-01T00:00:00Z</time>
      </trkpt>
      <trkpt lat="39.518735" lon="-5.103533">
        <ele>726.0</ele>
        <time>1970-01-01T00:00:00Z</time>
      </trkpt>
      <trkpt lat="39.518517" lon="-5.102967">
        <ele>724.1</ele>
        <time>1970-01-01T00:00:00Z</time>
      </trkpt>
      <trkpt lat="39.518517" lon="-5.102967">
        <ele>724.1</ele>
        <time>1970-01-01T00:00:00Z</time>
      </trkpt>
      <trkpt lat="39.518517" lon="-5.102967">
        <ele>724.1</ele>
        <time>1970-01-01T00:00:00Z</time>
      </trkpt>
      <trkpt lat="39.518517" lon="-5.102967">
        <ele>724.1</ele>
        <time>1970-01-01T00:00:00Z</time>
      </trkpt>
      <trkpt lat="39.518448" lon="-5.102784">
        <ele>723.7</ele>
        <time>1970-01-01T00:00:00Z</time>
      </trkpt>
      <trkpt lat="39.518448" lon="-5.102784">
        <ele>723.7</ele>
        <time>1970-01-01T00:00:00Z</time>
      </trkpt>
      <trkpt lat="39.518448" lon="-5.102784">
        <ele>723.7</ele>
        <time>1970-01-01T00:00:00Z</time>
      </trkpt>
      <trkpt lat="39.518448" lon="-5.102784">
        <ele>723.7</ele>
        <time>1970-01-01T00:00:00Z</time>
      </trkpt>
      <trkpt lat="39.518421" lon="-5.102656">
        <ele>723.0</ele>
        <time>1970-01-01T00:00:00Z</time>
      </trkpt>
      <trkpt lat="39.518421" lon="-5.102656">
        <ele>723.0</ele>
        <time>1970-01-01T00:00:00Z</time>
      </trkpt>
      <trkpt lat="39.518421" lon="-5.102656">
        <ele>723.0</ele>
        <time>1970-01-01T00:00:00Z</time>
      </trkpt>
      <trkpt lat="39.518421" lon="-5.102656">
        <ele>723.0</ele>
        <time>1970-01-01T00:00:00Z</time>
      </trkpt>
      <trkpt lat="39.518412" lon="-5.102344">
        <ele>722.6</ele>
        <time>1970-01-01T00:00:00Z</time>
      </trkpt>
      <trkpt lat="39.518412" lon="-5.102344">
        <ele>722.6</ele>
        <time>1970-01-01T00:00:00Z</time>
      </trkpt>
      <trkpt lat="39.518412" lon="-5.102344">
        <ele>722.6</ele>
        <time>1970-01-01T00:00:00Z</time>
      </trkpt>
      <trkpt lat="39.518412" lon="-5.102344">
        <ele>722.6</ele>
        <time>1970-01-01T00:00:00Z</time>
      </trkpt>
      <trkpt lat="39.518412" lon="-5.102005">
        <ele>721.1</ele>
        <time>1970-01-01T00:00:00Z</time>
      </trkpt>
      <trkpt lat="39.518412" lon="-5.102005">
        <ele>721.1</ele>
        <time>1970-01-01T00:00:00Z</time>
      </trkpt>
      <trkpt lat="39.518412" lon="-5.102005">
        <ele>721.1</ele>
        <time>1970-01-01T00:00:00Z</time>
      </trkpt>
      <trkpt lat="39.518412" lon="-5.102005">
        <ele>721.1</ele>
        <time>1970-01-01T00:00:00Z</time>
      </trkpt>
      <trkpt lat="39.518383" lon="-5.101643">
        <ele>720.2</ele>
        <time>1970-01-01T00:00:00Z</time>
      </trkpt>
      <trkpt lat="39.518383" lon="-5.101643">
        <ele>720.2</ele>
        <time>1970-01-01T00:00:00Z</time>
      </trkpt>
      <trkpt lat="39.518383" lon="-5.101643">
        <ele>720.2</ele>
        <time>1970-01-01T00:00:00Z</time>
      </trkpt>
      <trkpt lat="39.518383" lon="-5.101643">
        <ele>720.2</ele>
        <time>1970-01-01T00:00:00Z</time>
      </trkpt>
      <trkpt lat="39.518353" lon="-5.101489">
        <ele>720.4</ele>
        <time>1970-01-01T00:00:00Z</time>
      </trkpt>
      <trkpt lat="39.518353" lon="-5.101489">
        <ele>720.4</ele>
        <time>1970-01-01T00:00:00Z</time>
      </trkpt>
      <trkpt lat="39.518353" lon="-5.101489">
        <ele>720.4</ele>
        <time>1970-01-01T00:00:00Z</time>
      </trkpt>
      <trkpt lat="39.518353" lon="-5.101489">
        <ele>720.4</ele>
        <time>1970-01-01T00:00:00Z</time>
      </trkpt>
      <trkpt lat="39.518294" lon="-5.101283">
        <ele>720.9</ele>
        <time>1970-01-01T00:00:00Z</time>
      </trkpt>
      <trkpt lat="39.518294" lon="-5.101283">
        <ele>720.9</ele>
        <time>1970-01-01T00:00:00Z</time>
      </trkpt>
      <trkpt lat="39.518294" lon="-5.101283">
        <ele>720.9</ele>
        <time>1970-01-01T00:00:00Z</time>
      </trkpt>
      <trkpt lat="39.518294" lon="-5.101283">
        <ele>720.9</ele>
        <time>1970-01-01T00:00:00Z</time>
      </trkpt>
      <trkpt lat="39.518224" lon="-5.101031">
        <ele>720.6</ele>
        <time>1970-01-01T00:00:00Z</time>
      </trkpt>
      <trkpt lat="39.518224" lon="-5.101031">
        <ele>720.6</ele>
        <time>1970-01-01T00:00:00Z</time>
      </trkpt>
      <trkpt lat="39.518224" lon="-5.101031">
        <ele>720.6</ele>
        <time>1970-01-01T00:00:00Z</time>
      </trkpt>
      <trkpt lat="39.518224" lon="-5.101031">
        <ele>720.6</ele>
        <time>1970-01-01T00:00:00Z</time>
      </trkpt>
      <trkpt lat="39.518168" lon="-5.100822">
        <ele>720.2</ele>
        <time>1970-01-01T00:00:00Z</time>
      </trkpt>
      <trkpt lat="39.518168" lon="-5.100822">
        <ele>720.2</ele>
        <time>1970-01-01T00:00:00Z</time>
      </trkpt>
      <trkpt lat="39.518168" lon="-5.100822">
        <ele>720.2</ele>
        <time>1970-01-01T00:00:00Z</time>
      </trkpt>
      <trkpt lat="39.518168" lon="-5.100822">
        <ele>720.2</ele>
        <time>1970-01-01T00:00:00Z</time>
      </trkpt>
      <trkpt lat="39.518122" lon="-5.100589">
        <ele>719.6</ele>
        <time>1970-01-01T00:00:00Z</time>
      </trkpt>
      <trkpt lat="39.518122" lon="-5.100589">
        <ele>719.6</ele>
        <time>1970-01-01T00:00:00Z</time>
      </trkpt>
      <trkpt lat="39.518122" lon="-5.100589">
        <ele>719.6</ele>
        <time>1970-01-01T00:00:00Z</time>
      </trkpt>
      <trkpt lat="39.518122" lon="-5.100589">
        <ele>719.6</ele>
        <time>1970-01-01T00:00:00Z</time>
      </trkpt>
      <trkpt lat="39.518089" lon="-5.100396">
        <ele>719.0</ele>
        <time>1970-01-01T00:00:00Z</time>
      </trkpt>
      <trkpt lat="39.518089" lon="-5.100396">
        <ele>719.0</ele>
        <time>1970-01-01T00:00:00Z</time>
      </trkpt>
      <trkpt lat="39.518089" lon="-5.100396">
        <ele>719.0</ele>
        <time>1970-01-01T00:00:00Z</time>
      </trkpt>
      <trkpt lat="39.518089" lon="-5.100396">
        <ele>719.0</ele>
        <time>1970-01-01T00:00:00Z</time>
      </trkpt>
      <trkpt lat="39.518078" lon="-5.100226">
        <ele>718.5</ele>
        <time>1970-01-01T00:00:00Z</time>
      </trkpt>
      <trkpt lat="39.518078" lon="-5.100226">
        <ele>718.5</ele>
        <time>1970-01-01T00:00:00Z</time>
      </trkpt>
      <trkpt lat="39.518078" lon="-5.100226">
        <ele>718.5</ele>
        <time>1970-01-01T00:00:00Z</time>
      </trkpt>
      <trkpt lat="39.518078" lon="-5.100226">
        <ele>718.5</ele>
        <time>1970-01-01T00:00:00Z</time>
      </trkpt>
      <trkpt lat="39.518080" lon="-5.100065">
        <ele>718.0</ele>
        <time>1970-01-01T00:00:00Z</time>
      </trkpt>
      <trkpt lat="39.518080" lon="-5.100065">
        <ele>718.0</ele>
        <time>1970-01-01T00:00:00Z</time>
      </trkpt>
      <trkpt lat="39.518080" lon="-5.100065">
        <ele>718.0</ele>
        <time>1970-01-01T00:00:00Z</time>
      </trkpt>
      <trkpt lat="39.518080" lon="-5.100065">
        <ele>718.0</ele>
        <time>1970-01-01T00:00:00Z</time>
      </trkpt>
      <trkpt lat="39.518095" lon="-5.099900">
        <ele>717.1</ele>
        <time>1970-01-01T00:00:00Z</time>
      </trkpt>
      <trkpt lat="39.518095" lon="-5.099900">
        <ele>717.1</ele>
        <time>1970-01-01T00:00:00Z</time>
      </trkpt>
      <trkpt lat="39.518095" lon="-5.099900">
        <ele>717.1</ele>
        <time>1970-01-01T00:00:00Z</time>
      </trkpt>
      <trkpt lat="39.518095" lon="-5.099900">
        <ele>717.1</ele>
        <time>1970-01-01T00:00:00Z</time>
      </trkpt>
      <trkpt lat="39.518149" lon="-5.099582">
        <ele>714.1</ele>
        <time>1970-01-01T00:00:00Z</time>
      </trkpt>
      <trkpt lat="39.518149" lon="-5.099582">
        <ele>714.1</ele>
        <time>1970-01-01T00:00:00Z</time>
      </trkpt>
      <trkpt lat="39.518149" lon="-5.099582">
        <ele>714.1</ele>
        <time>1970-01-01T00:00:00Z</time>
      </trkpt>
      <trkpt lat="39.518149" lon="-5.099582">
        <ele>714.1</ele>
        <time>1970-01-01T00:00:00Z</time>
      </trkpt>
      <trkpt lat="39.518185" lon="-5.099406">
        <ele>712.8</ele>
        <time>1970-01-01T00:00:00Z</time>
      </trkpt>
      <trkpt lat="39.518185" lon="-5.099406">
        <ele>712.8</ele>
        <time>1970-01-01T00:00:00Z</time>
      </trkpt>
      <trkpt lat="39.518185" lon="-5.099406">
        <ele>712.8</ele>
        <time>1970-01-01T00:00:00Z</time>
      </trkpt>
      <trkpt lat="39.518185" lon="-5.099406">
        <ele>712.8</ele>
        <time>1970-01-01T00:00:00Z</time>
      </trkpt>
      <trkpt lat="39.518201" lon="-5.099173">
        <ele>711.6</ele>
        <time>1970-01-01T00:00:00Z</time>
      </trkpt>
      <trkpt lat="39.518201" lon="-5.099173">
        <ele>711.6</ele>
        <time>1970-01-01T00:00:00Z</time>
      </trkpt>
      <trkpt lat="39.518201" lon="-5.099173">
        <ele>711.6</ele>
        <time>1970-01-01T00:00:00Z</time>
      </trkpt>
      <trkpt lat="39.518201" lon="-5.099173">
        <ele>711.6</ele>
        <time>1970-01-01T00:00:00Z</time>
      </trkpt>
      <trkpt lat="39.518201" lon="-5.098923">
        <ele>710.5</ele>
        <time>1970-01-01T00:00:00Z</time>
      </trkpt>
      <trkpt lat="39.518201" lon="-5.098923">
        <ele>710.5</ele>
        <time>1970-01-01T00:00:00Z</time>
      </trkpt>
      <trkpt lat="39.518201" lon="-5.098923">
        <ele>710.5</ele>
        <time>1970-01-01T00:00:00Z</time>
      </trkpt>
      <trkpt lat="39.518201" lon="-5.098923">
        <ele>710.5</ele>
        <time>1970-01-01T00:00:00Z</time>
      </trkpt>
      <trkpt lat="39.518202" lon="-5.098501">
        <ele>707.5</ele>
        <time>1970-01-01T00:00:00Z</time>
      </trkpt>
      <trkpt lat="39.518202" lon="-5.098501">
        <ele>707.5</ele>
        <time>1970-01-01T00:00:00Z</time>
      </trkpt>
      <trkpt lat="39.518202" lon="-5.098501">
        <ele>707.5</ele>
        <time>1970-01-01T00:00:00Z</time>
      </trkpt>
      <trkpt lat="39.518202" lon="-5.098501">
        <ele>707.5</ele>
        <time>1970-01-01T00:00:00Z</time>
      </trkpt>
      <trkpt lat="39.518173" lon="-5.098218">
        <ele>705.8</ele>
        <time>1970-01-01T00:00:00Z</time>
      </trkpt>
      <trkpt lat="39.518173" lon="-5.098218">
        <ele>705.8</ele>
        <time>1970-01-01T00:00:00Z</time>
      </trkpt>
      <trkpt lat="39.518173" lon="-5.098218">
        <ele>705.8</ele>
        <time>1970-01-01T00:00:00Z</time>
      </trkpt>
      <trkpt lat="39.518173" lon="-5.098218">
        <ele>705.8</ele>
        <time>1970-01-01T00:00:00Z</time>
      </trkpt>
      <trkpt lat="39.518131" lon="-5.097610">
        <ele>702.7</ele>
        <time>1970-01-01T00:00:00Z</time>
      </trkpt>
      <trkpt lat="39.518131" lon="-5.097610">
        <ele>702.7</ele>
        <time>1970-01-01T00:00:00Z</time>
      </trkpt>
      <trkpt lat="39.518131" lon="-5.097610">
        <ele>702.7</ele>
        <time>1970-01-01T00:00:00Z</time>
      </trkpt>
      <trkpt lat="39.518131" lon="-5.097610">
        <ele>702.7</ele>
        <time>1970-01-01T00:00:00Z</time>
      </trkpt>
      <trkpt lat="39.518084" lon="-5.097155">
        <ele>700.5</ele>
        <time>1970-01-01T00:00:00Z</time>
      </trkpt>
      <trkpt lat="39.518084" lon="-5.097155">
        <ele>700.5</ele>
        <time>1970-01-01T00:00:00Z</time>
      </trkpt>
      <trkpt lat="39.518084" lon="-5.097155">
        <ele>700.5</ele>
        <time>1970-01-01T00:00:00Z</time>
      </trkpt>
      <trkpt lat="39.518084" lon="-5.097155">
        <ele>700.5</ele>
        <time>1970-01-01T00:00:00Z</time>
      </trkpt>
      <trkpt lat="39.518028" lon="-5.096705">
        <ele>698.8</ele>
        <time>1970-01-01T00:00:00Z</time>
      </trkpt>
      <trkpt lat="39.518028" lon="-5.096705">
        <ele>698.8</ele>
        <time>1970-01-01T00:00:00Z</time>
      </trkpt>
      <trkpt lat="39.518028" lon="-5.096705">
        <ele>698.8</ele>
        <time>1970-01-01T00:00:00Z</time>
      </trkpt>
      <trkpt lat="39.518028" lon="-5.096705">
        <ele>698.8</ele>
        <time>1970-01-01T00:00:00Z</time>
      </trkpt>
      <trkpt lat="39.517973" lon="-5.096100">
        <ele>694.7</ele>
        <time>1970-01-01T00:00:00Z</time>
      </trkpt>
      <trkpt lat="39.517973" lon="-5.096100">
        <ele>694.7</ele>
        <time>1970-01-01T00:00:00Z</time>
      </trkpt>
      <trkpt lat="39.517973" lon="-5.096100">
        <ele>694.7</ele>
        <time>1970-01-01T00:00:00Z</time>
      </trkpt>
      <trkpt lat="39.517973" lon="-5.096100">
        <ele>694.7</ele>
        <time>1970-01-01T00:00:00Z</time>
      </trkpt>
      <trkpt lat="39.517953" lon="-5.095732">
        <ele>693.1</ele>
        <time>1970-01-01T00:00:00Z</time>
      </trkpt>
      <trkpt lat="39.517953" lon="-5.095732">
        <ele>693.1</ele>
        <time>1970-01-01T00:00:00Z</time>
      </trkpt>
      <trkpt lat="39.517953" lon="-5.095732">
        <ele>693.1</ele>
        <time>1970-01-01T00:00:00Z</time>
      </trkpt>
      <trkpt lat="39.517953" lon="-5.095732">
        <ele>693.1</ele>
        <time>1970-01-01T00:00:00Z</time>
      </trkpt>
      <trkpt lat="39.517893" lon="-5.095227">
        <ele>691.2</ele>
        <time>1970-01-01T00:00:00Z</time>
      </trkpt>
      <trkpt lat="39.517893" lon="-5.095227">
        <ele>691.2</ele>
        <time>1970-01-01T00:00:00Z</time>
      </trkpt>
      <trkpt lat="39.517893" lon="-5.095227">
        <ele>691.2</ele>
        <time>1970-01-01T00:00:00Z</time>
      </trkpt>
      <trkpt lat="39.517893" lon="-5.095227">
        <ele>691.2</ele>
        <time>1970-01-01T00:00:00Z</time>
      </trkpt>
      <trkpt lat="39.517827" lon="-5.094809">
        <ele>690.6</ele>
        <time>1970-01-01T00:00:00Z</time>
      </trkpt>
      <trkpt lat="39.517827" lon="-5.094809">
        <ele>690.6</ele>
        <time>1970-01-01T00:00:00Z</time>
      </trkpt>
      <trkpt lat="39.517827" lon="-5.094809">
        <ele>690.6</ele>
        <time>1970-01-01T00:00:00Z</time>
      </trkpt>
      <trkpt lat="39.517827" lon="-5.094809">
        <ele>690.6</ele>
        <time>1970-01-01T00:00:00Z</time>
      </trkpt>
      <trkpt lat="39.517791" lon="-5.094595">
        <ele>689.9</ele>
        <time>1970-01-01T00:00:00Z</time>
      </trkpt>
      <trkpt lat="39.517791" lon="-5.094595">
        <ele>689.9</ele>
        <time>1970-01-01T00:00:00Z</time>
      </trkpt>
      <trkpt lat="39.517791" lon="-5.094595">
        <ele>689.9</ele>
        <time>1970-01-01T00:00:00Z</time>
      </trkpt>
      <trkpt lat="39.517791" lon="-5.094595">
        <ele>689.9</ele>
        <time>1970-01-01T00:00:00Z</time>
      </trkpt>
      <trkpt lat="39.517630" lon="-5.093650">
        <ele>688.7</ele>
        <time>1970-01-01T00:00:00Z</time>
      </trkpt>
      <trkpt lat="39.517630" lon="-5.093650">
        <ele>688.7</ele>
        <time>1970-01-01T00:00:00Z</time>
      </trkpt>
      <trkpt lat="39.517630" lon="-5.093650">
        <ele>688.7</ele>
        <time>1970-01-01T00:00:00Z</time>
      </trkpt>
      <trkpt lat="39.517630" lon="-5.093650">
        <ele>688.7</ele>
        <time>1970-01-01T00:00:00Z</time>
      </trkpt>
      <trkpt lat="39.517583" lon="-5.093375">
        <ele>688.5</ele>
        <time>1970-01-01T00:00:00Z</time>
      </trkpt>
      <trkpt lat="39.517583" lon="-5.093375">
        <ele>688.5</ele>
        <time>1970-01-01T00:00:00Z</time>
      </trkpt>
      <trkpt lat="39.517583" lon="-5.093375">
        <ele>688.5</ele>
        <time>1970-01-01T00:00:00Z</time>
      </trkpt>
      <trkpt lat="39.517583" lon="-5.093375">
        <ele>688.5</ele>
        <time>1970-01-01T00:00:00Z</time>
      </trkpt>
      <trkpt lat="39.517522" lon="-5.093056">
        <ele>687.4</ele>
        <time>1970-01-01T00:00:00Z</time>
      </trkpt>
      <trkpt lat="39.517522" lon="-5.093056">
        <ele>687.4</ele>
        <time>1970-01-01T00:00:00Z</time>
      </trkpt>
      <trkpt lat="39.517522" lon="-5.093056">
        <ele>687.4</ele>
        <time>1970-01-01T00:00:00Z</time>
      </trkpt>
      <trkpt lat="39.517522" lon="-5.093056">
        <ele>687.4</ele>
        <time>1970-01-01T00:00:00Z</time>
      </trkpt>
      <trkpt lat="39.517493" lon="-5.092887">
        <ele>686.9</ele>
        <time>1970-01-01T00:00:00Z</time>
      </trkpt>
      <trkpt lat="39.517493" lon="-5.092887">
        <ele>686.9</ele>
        <time>1970-01-01T00:00:00Z</time>
      </trkpt>
      <trkpt lat="39.517493" lon="-5.092887">
        <ele>686.9</ele>
        <time>1970-01-01T00:00:00Z</time>
      </trkpt>
      <trkpt lat="39.517493" lon="-5.092887">
        <ele>686.9</ele>
        <time>1970-01-01T00:00:00Z</time>
      </trkpt>
      <trkpt lat="39.517440" lon="-5.092747">
        <ele>687.3</ele>
        <time>1970-01-01T00:00:00Z</time>
      </trkpt>
      <trkpt lat="39.517440" lon="-5.092747">
        <ele>687.3</ele>
        <time>1970-01-01T00:00:00Z</time>
      </trkpt>
      <trkpt lat="39.517440" lon="-5.092747">
        <ele>687.3</ele>
        <time>1970-01-01T00:00:00Z</time>
      </trkpt>
      <trkpt lat="39.517440" lon="-5.092747">
        <ele>687.3</ele>
        <time>1970-01-01T00:00:00Z</time>
      </trkpt>
      <trkpt lat="39.517303" lon="-5.092463">
        <ele>688.2</ele>
        <time>1970-01-01T00:00:00Z</time>
      </trkpt>
      <trkpt lat="39.517303" lon="-5.092463">
        <ele>688.2</ele>
        <time>1970-01-01T00:00:00Z</time>
      </trkpt>
      <trkpt lat="39.517303" lon="-5.092463">
        <ele>688.2</ele>
        <time>1970-01-01T00:00:00Z</time>
      </trkpt>
      <trkpt lat="39.517303" lon="-5.092463">
        <ele>688.2</ele>
        <time>1970-01-01T00:00:00Z</time>
      </trkpt>
      <trkpt lat="39.517114" lon="-5.092136">
        <ele>689.7</ele>
        <time>1970-01-01T00:00:00Z</time>
      </trkpt>
      <trkpt lat="39.517114" lon="-5.092136">
        <ele>689.7</ele>
        <time>1970-01-01T00:00:00Z</time>
      </trkpt>
      <trkpt lat="39.517114" lon="-5.092136">
        <ele>689.7</ele>
        <time>1970-01-01T00:00:00Z</time>
      </trkpt>
      <trkpt lat="39.517114" lon="-5.092136">
        <ele>689.7</ele>
        <time>1970-01-01T00:00:00Z</time>
      </trkpt>
      <trkpt lat="39.516891" lon="-5.091739">
        <ele>691.5</ele>
        <time>1970-01-01T00:00:00Z</time>
      </trkpt>
      <trkpt lat="39.516891" lon="-5.091739">
        <ele>691.5</ele>
        <time>1970-01-01T00:00:00Z</time>
      </trkpt>
      <trkpt lat="39.516891" lon="-5.091739">
        <ele>691.5</ele>
        <time>1970-01-01T00:00:00Z</time>
      </trkpt>
      <trkpt lat="39.516891" lon="-5.091739">
        <ele>691.5</ele>
        <time>1970-01-01T00:00:00Z</time>
      </trkpt>
      <trkpt lat="39.516670" lon="-5.091477">
        <ele>692.4</ele>
        <time>1970-01-01T00:00:00Z</time>
      </trkpt>
      <trkpt lat="39.516670" lon="-5.091477">
        <ele>692.4</ele>
        <time>1970-01-01T00:00:00Z</time>
      </trkpt>
      <trkpt lat="39.516670" lon="-5.091477">
        <ele>692.4</ele>
        <time>1970-01-01T00:00:00Z</time>
      </trkpt>
      <trkpt lat="39.516670" lon="-5.091477">
        <ele>692.4</ele>
        <time>1970-01-01T00:00:00Z</time>
      </trkpt>
      <trkpt lat="39.516553" lon="-5.091382">
        <ele>692.4</ele>
        <time>1970-01-01T00:00:00Z</time>
      </trkpt>
      <trkpt lat="39.516553" lon="-5.091382">
        <ele>692.4</ele>
        <time>1970-01-01T00:00:00Z</time>
      </trkpt>
      <trkpt lat="39.516553" lon="-5.091382">
        <ele>692.4</ele>
        <time>1970-01-01T00:00:00Z</time>
      </trkpt>
      <trkpt lat="39.516553" lon="-5.091382">
        <ele>692.4</ele>
        <time>1970-01-01T00:00:00Z</time>
      </trkpt>
      <trkpt lat="39.516362" lon="-5.091223">
        <ele>692.5</ele>
        <time>1970-01-01T00:00:00Z</time>
      </trkpt>
      <trkpt lat="39.516362" lon="-5.091223">
        <ele>692.5</ele>
        <time>1970-01-01T00:00:00Z</time>
      </trkpt>
      <trkpt lat="39.516362" lon="-5.091223">
        <ele>692.5</ele>
        <time>1970-01-01T00:00:00Z</time>
      </trkpt>
      <trkpt lat="39.516362" lon="-5.091223">
        <ele>692.5</ele>
        <time>1970-01-01T00:00:00Z</time>
      </trkpt>
      <trkpt lat="39.516146" lon="-5.091054">
        <ele>691.9</ele>
        <time>1970-01-01T00:00:00Z</time>
      </trkpt>
      <trkpt lat="39.516146" lon="-5.091054">
        <ele>691.9</ele>
        <time>1970-01-01T00:00:00Z</time>
      </trkpt>
      <trkpt lat="39.516146" lon="-5.091054">
        <ele>691.9</ele>
        <time>1970-01-01T00:00:00Z</time>
      </trkpt>
      <trkpt lat="39.516146" lon="-5.091054">
        <ele>691.9</ele>
        <time>1970-01-01T00:00:00Z</time>
      </trkpt>
      <trkpt lat="39.515982" lon="-5.090891">
        <ele>691.2</ele>
        <time>1970-01-01T00:00:00Z</time>
      </trkpt>
      <trkpt lat="39.515982" lon="-5.090891">
        <ele>691.2</ele>
        <time>1970-01-01T00:00:00Z</time>
      </trkpt>
      <trkpt lat="39.515982" lon="-5.090891">
        <ele>691.2</ele>
        <time>1970-01-01T00:00:00Z</time>
      </trkpt>
      <trkpt lat="39.515982" lon="-5.090891">
        <ele>691.2</ele>
        <time>1970-01-01T00:00:00Z</time>
      </trkpt>
      <trkpt lat="39.515900" lon="-5.090743">
        <ele>690.5</ele>
        <time>1970-01-01T00:00:00Z</time>
      </trkpt>
      <trkpt lat="39.515900" lon="-5.090743">
        <ele>690.5</ele>
        <time>1970-01-01T00:00:00Z</time>
      </trkpt>
      <trkpt lat="39.515900" lon="-5.090743">
        <ele>690.5</ele>
        <time>1970-01-01T00:00:00Z</time>
      </trkpt>
      <trkpt lat="39.515900" lon="-5.090743">
        <ele>690.5</ele>
        <time>1970-01-01T00:00:00Z</time>
      </trkpt>
      <trkpt lat="39.515796" lon="-5.090487">
        <ele>689.9</ele>
        <time>1970-01-01T00:00:00Z</time>
      </trkpt>
      <trkpt lat="39.515796" lon="-5.090487">
        <ele>689.9</ele>
        <time>1970-01-01T00:00:00Z</time>
      </trkpt>
      <trkpt lat="39.515796" lon="-5.090487">
        <ele>689.9</ele>
        <time>1970-01-01T00:00:00Z</time>
      </trkpt>
      <trkpt lat="39.515796" lon="-5.090487">
        <ele>689.9</ele>
        <time>1970-01-01T00:00:00Z</time>
      </trkpt>
      <trkpt lat="39.515703" lon="-5.090221">
        <ele>690.3</ele>
        <time>1970-01-01T00:00:00Z</time>
      </trkpt>
      <trkpt lat="39.515703" lon="-5.090221">
        <ele>690.3</ele>
        <time>1970-01-01T00:00:00Z</time>
      </trkpt>
      <trkpt lat="39.515703" lon="-5.090221">
        <ele>690.3</ele>
        <time>1970-01-01T00:00:00Z</time>
      </trkpt>
      <trkpt lat="39.515703" lon="-5.090221">
        <ele>690.3</ele>
        <time>1970-01-01T00:00:00Z</time>
      </trkpt>
      <trkpt lat="39.515644" lon="-5.089953">
        <ele>690.0</ele>
        <time>1970-01-01T00:00:00Z</time>
      </trkpt>
      <trkpt lat="39.515644" lon="-5.089953">
        <ele>690.0</ele>
        <time>1970-01-01T00:00:00Z</time>
      </trkpt>
      <trkpt lat="39.515644" lon="-5.089953">
        <ele>690.0</ele>
        <time>1970-01-01T00:00:00Z</time>
      </trkpt>
      <trkpt lat="39.515644" lon="-5.089953">
        <ele>690.0</ele>
        <time>1970-01-01T00:00:00Z</time>
      </trkpt>
      <trkpt lat="39.515606" lon="-5.089665">
        <ele>690.1</ele>
        <time>1970-01-01T00:00:00Z</time>
      </trkpt>
      <trkpt lat="39.515606" lon="-5.089665">
        <ele>690.1</ele>
        <time>1970-01-01T00:00:00Z</time>
      </trkpt>
      <trkpt lat="39.515606" lon="-5.089665">
        <ele>690.1</ele>
        <time>1970-01-01T00:00:00Z</time>
      </trkpt>
      <trkpt lat="39.515606" lon="-5.089665">
        <ele>690.1</ele>
        <time>1970-01-01T00:00:00Z</time>
      </trkpt>
      <trkpt lat="39.515534" lon="-5.089224">
        <ele>689.2</ele>
        <time>1970-01-01T00:00:00Z</time>
      </trkpt>
      <trkpt lat="39.515534" lon="-5.089224">
        <ele>689.2</ele>
        <time>1970-01-01T00:00:00Z</time>
      </trkpt>
      <trkpt lat="39.515534" lon="-5.089224">
        <ele>689.2</ele>
        <time>1970-01-01T00:00:00Z</time>
      </trkpt>
      <trkpt lat="39.515534" lon="-5.089224">
        <ele>689.2</ele>
        <time>1970-01-01T00:00:00Z</time>
      </trkpt>
      <trkpt lat="39.515471" lon="-5.088992">
        <ele>689.0</ele>
        <time>1970-01-01T00:00:00Z</time>
      </trkpt>
      <trkpt lat="39.515471" lon="-5.088992">
        <ele>689.0</ele>
        <time>1970-01-01T00:00:00Z</time>
      </trkpt>
      <trkpt lat="39.515471" lon="-5.088992">
        <ele>689.0</ele>
        <time>1970-01-01T00:00:00Z</time>
      </trkpt>
      <trkpt lat="39.515471" lon="-5.088992">
        <ele>689.0</ele>
        <time>1970-01-01T00:00:00Z</time>
      </trkpt>
      <trkpt lat="39.515384" lon="-5.088795">
        <ele>689.3</ele>
        <time>1970-01-01T00:00:00Z</time>
      </trkpt>
      <trkpt lat="39.515384" lon="-5.088795">
        <ele>689.3</ele>
        <time>1970-01-01T00:00:00Z</time>
      </trkpt>
      <trkpt lat="39.515384" lon="-5.088795">
        <ele>689.3</ele>
        <time>1970-01-01T00:00:00Z</time>
      </trkpt>
      <trkpt lat="39.515384" lon="-5.088795">
        <ele>689.3</ele>
        <time>1970-01-01T00:00:00Z</time>
      </trkpt>
      <trkpt lat="39.515197" lon="-5.088427">
        <ele>689.3</ele>
        <time>1970-01-01T00:00:00Z</time>
      </trkpt>
      <trkpt lat="39.515197" lon="-5.088427">
        <ele>689.3</ele>
        <time>1970-01-01T00:00:00Z</time>
      </trkpt>
      <trkpt lat="39.515197" lon="-5.088427">
        <ele>689.3</ele>
        <time>1970-01-01T00:00:00Z</time>
      </trkpt>
      <trkpt lat="39.515197" lon="-5.088427">
        <ele>689.3</ele>
        <time>1970-01-01T00:00:00Z</time>
      </trkpt>
      <trkpt lat="39.514988" lon="-5.087929">
        <ele>688.9</ele>
        <time>1970-01-01T00:00:00Z</time>
      </trkpt>
      <trkpt lat="39.514988" lon="-5.087929">
        <ele>688.9</ele>
        <time>1970-01-01T00:00:00Z</time>
      </trkpt>
      <trkpt lat="39.514988" lon="-5.087929">
        <ele>688.9</ele>
        <time>1970-01-01T00:00:00Z</time>
      </trkpt>
      <trkpt lat="39.514988" lon="-5.087929">
        <ele>688.9</ele>
        <time>1970-01-01T00:00:00Z</time>
      </trkpt>
      <trkpt lat="39.514633" lon="-5.087184">
        <ele>688.2</ele>
        <time>1970-01-01T00:00:00Z</time>
      </trkpt>
      <trkpt lat="39.514633" lon="-5.087184">
        <ele>688.2</ele>
        <time>1970-01-01T00:00:00Z</time>
      </trkpt>
      <trkpt lat="39.514633" lon="-5.087184">
        <ele>688.2</ele>
        <time>1970-01-01T00:00:00Z</time>
      </trkpt>
      <trkpt lat="39.514633" lon="-5.087184">
        <ele>688.2</ele>
        <time>1970-01-01T00:00:00Z</time>
      </trkpt>
      <trkpt lat="39.514127" lon="-5.086060">
        <ele>685.0</ele>
        <time>1970-01-01T00:00:00Z</time>
      </trkpt>
      <trkpt lat="39.514127" lon="-5.086060">
        <ele>685.0</ele>
        <time>1970-01-01T00:00:00Z</time>
      </trkpt>
      <trkpt lat="39.514127" lon="-5.086060">
        <ele>685.0</ele>
        <time>1970-01-01T00:00:00Z</time>
      </trkpt>
      <trkpt lat="39.514127" lon="-5.086060">
        <ele>685.0</ele>
        <time>1970-01-01T00:00:00Z</time>
      </trkpt>
      <trkpt lat="39.513414" lon="-5.084517">
        <ele>681.3</ele>
        <time>1970-01-01T00:00:00Z</time>
      </trkpt>
      <trkpt lat="39.513414" lon="-5.084517">
        <ele>681.3</ele>
        <time>1970-01-01T00:00:00Z</time>
      </trkpt>
      <trkpt lat="39.513414" lon="-5.084517">
        <ele>681.3</ele>
        <time>1970-01-01T00:00:00Z</time>
      </trkpt>
      <trkpt lat="39.513414" lon="-5.084517">
        <ele>681.3</ele>
        <time>1970-01-01T00:00:00Z</time>
      </trkpt>
      <trkpt lat="39.513113" lon="-5.083885">
        <ele>680.0</ele>
        <time>1970-01-01T00:00:00Z</time>
      </trkpt>
      <trkpt lat="39.513113" lon="-5.083885">
        <ele>680.0</ele>
        <time>1970-01-01T00:00:00Z</time>
      </trkpt>
      <trkpt lat="39.513113" lon="-5.083885">
        <ele>680.0</ele>
        <time>1970-01-01T00:00:00Z</time>
      </trkpt>
      <trkpt lat="39.513113" lon="-5.083885">
        <ele>680.0</ele>
        <time>1970-01-01T00:00:00Z</time>
      </trkpt>
      <trkpt lat="39.512953" lon="-5.083568">
        <ele>681.0</ele>
        <time>1970-01-01T00:00:00Z</time>
      </trkpt>
      <trkpt lat="39.512953" lon="-5.083568">
        <ele>681.0</ele>
        <time>1970-01-01T00:00:00Z</time>
      </trkpt>
      <trkpt lat="39.512953" lon="-5.083568">
        <ele>681.0</ele>
        <time>1970-01-01T00:00:00Z</time>
      </trkpt>
      <trkpt lat="39.512953" lon="-5.083568">
        <ele>681.0</ele>
        <time>1970-01-01T00:00:00Z</time>
      </trkpt>
      <trkpt lat="39.512711" lon="-5.083038">
        <ele>681.9</ele>
        <time>1970-01-01T00:00:00Z</time>
      </trkpt>
      <trkpt lat="39.512711" lon="-5.083038">
        <ele>681.9</ele>
        <time>1970-01-01T00:00:00Z</time>
      </trkpt>
      <trkpt lat="39.512711" lon="-5.083038">
        <ele>681.9</ele>
        <time>1970-01-01T00:00:00Z</time>
      </trkpt>
      <trkpt lat="39.512711" lon="-5.083038">
        <ele>681.9</ele>
        <time>1970-01-01T00:00:00Z</time>
      </trkpt>
      <trkpt lat="39.512555" lon="-5.082701">
        <ele>681.6</ele>
        <time>1970-01-01T00:00:00Z</time>
      </trkpt>
      <trkpt lat="39.512555" lon="-5.082701">
        <ele>681.6</ele>
        <time>1970-01-01T00:00:00Z</time>
      </trkpt>
      <trkpt lat="39.512555" lon="-5.082701">
        <ele>681.6</ele>
        <time>1970-01-01T00:00:00Z</time>
      </trkpt>
      <trkpt lat="39.512555" lon="-5.082701">
        <ele>681.6</ele>
        <time>1970-01-01T00:00:00Z</time>
      </trkpt>
      <trkpt lat="39.512505" lon="-5.082599">
        <ele>680.9</ele>
        <time>1970-01-01T00:00:00Z</time>
      </trkpt>
      <trkpt lat="39.512505" lon="-5.082599">
        <ele>680.9</ele>
        <time>1970-01-01T00:00:00Z</time>
      </trkpt>
      <trkpt lat="39.512505" lon="-5.082599">
        <ele>680.9</ele>
        <time>1970-01-01T00:00:00Z</time>
      </trkpt>
      <trkpt lat="39.512505" lon="-5.082599">
        <ele>680.9</ele>
        <time>1970-01-01T00:00:00Z</time>
      </trkpt>
      <trkpt lat="39.512479" lon="-5.082495">
        <ele>680.4</ele>
        <time>1970-01-01T00:00:00Z</time>
      </trkpt>
      <trkpt lat="39.512479" lon="-5.082495">
        <ele>680.4</ele>
        <time>1970-01-01T00:00:00Z</time>
      </trkpt>
      <trkpt lat="39.512479" lon="-5.082495">
        <ele>680.4</ele>
        <time>1970-01-01T00:00:00Z</time>
      </trkpt>
      <trkpt lat="39.512479" lon="-5.082495">
        <ele>680.4</ele>
        <time>1970-01-01T00:00:00Z</time>
      </trkpt>
      <trkpt lat="39.512414" lon="-5.082186">
        <ele>679.7</ele>
        <time>1970-01-01T00:00:00Z</time>
      </trkpt>
      <trkpt lat="39.512414" lon="-5.082186">
        <ele>679.7</ele>
        <time>1970-01-01T00:00:00Z</time>
      </trkpt>
      <trkpt lat="39.512414" lon="-5.082186">
        <ele>679.7</ele>
        <time>1970-01-01T00:00:00Z</time>
      </trkpt>
      <trkpt lat="39.512414" lon="-5.082186">
        <ele>679.7</ele>
        <time>1970-01-01T00:00:00Z</time>
      </trkpt>
      <trkpt lat="39.512358" lon="-5.081745">
        <ele>678.0</ele>
        <time>1970-01-01T00:00:00Z</time>
      </trkpt>
      <trkpt lat="39.512358" lon="-5.081745">
        <ele>678.0</ele>
        <time>1970-01-01T00:00:00Z</time>
      </trkpt>
      <trkpt lat="39.512358" lon="-5.081745">
        <ele>678.0</ele>
        <time>1970-01-01T00:00:00Z</time>
      </trkpt>
      <trkpt lat="39.512358" lon="-5.081745">
        <ele>678.0</ele>
        <time>1970-01-01T00:00:00Z</time>
      </trkpt>
      <trkpt lat="39.512309" lon="-5.081324">
        <ele>677.3</ele>
        <time>1970-01-01T00:00:00Z</time>
      </trkpt>
      <trkpt lat="39.512309" lon="-5.081324">
        <ele>677.3</ele>
        <time>1970-01-01T00:00:00Z</time>
      </trkpt>
      <trkpt lat="39.512309" lon="-5.081324">
        <ele>677.3</ele>
        <time>1970-01-01T00:00:00Z</time>
      </trkpt>
      <trkpt lat="39.512309" lon="-5.081324">
        <ele>677.3</ele>
        <time>1970-01-01T00:00:00Z</time>
      </trkpt>
      <trkpt lat="39.512274" lon="-5.080871">
        <ele>676.0</ele>
        <time>1970-01-01T00:00:00Z</time>
      </trkpt>
      <trkpt lat="39.512274" lon="-5.080871">
        <ele>676.0</ele>
        <time>1970-01-01T00:00:00Z</time>
      </trkpt>
      <trkpt lat="39.512274" lon="-5.080871">
        <ele>676.0</ele>
        <time>1970-01-01T00:00:00Z</time>
      </trkpt>
      <trkpt lat="39.512274" lon="-5.080871">
        <ele>676.0</ele>
        <time>1970-01-01T00:00:00Z</time>
      </trkpt>
      <trkpt lat="39.512239" lon="-5.080433">
        <ele>674.1</ele>
        <time>1970-01-01T00:00:00Z</time>
      </trkpt>
      <trkpt lat="39.512239" lon="-5.080433">
        <ele>674.1</ele>
        <time>1970-01-01T00:00:00Z</time>
      </trkpt>
      <trkpt lat="39.512239" lon="-5.080433">
        <ele>674.1</ele>
        <time>1970-01-01T00:00:00Z</time>
      </trkpt>
      <trkpt lat="39.512239" lon="-5.080433">
        <ele>674.1</ele>
        <time>1970-01-01T00:00:00Z</time>
      </trkpt>
      <trkpt lat="39.512190" lon="-5.079823">
        <ele>671.6</ele>
        <time>1970-01-01T00:00:00Z</time>
      </trkpt>
      <trkpt lat="39.512190" lon="-5.079823">
        <ele>671.6</ele>
        <time>1970-01-01T00:00:00Z</time>
      </trkpt>
      <trkpt lat="39.512190" lon="-5.079823">
        <ele>671.6</ele>
        <time>1970-01-01T00:00:00Z</time>
      </trkpt>
      <trkpt lat="39.512190" lon="-5.079823">
        <ele>671.6</ele>
        <time>1970-01-01T00:00:00Z</time>
      </trkpt>
      <trkpt lat="39.512147" lon="-5.079264">
        <ele>669.0</ele>
        <time>1970-01-01T00:00:00Z</time>
      </trkpt>
      <trkpt lat="39.512147" lon="-5.079264">
        <ele>669.0</ele>
        <time>1970-01-01T00:00:00Z</time>
      </trkpt>
      <trkpt lat="39.512147" lon="-5.079264">
        <ele>669.0</ele>
        <time>1970-01-01T00:00:00Z</time>
      </trkpt>
      <trkpt lat="39.512147" lon="-5.079264">
        <ele>669.0</ele>
        <time>1970-01-01T00:00:00Z</time>
      </trkpt>
      <trkpt lat="39.512115" lon="-5.078824">
        <ele>666.2</ele>
        <time>1970-01-01T00:00:00Z</time>
      </trkpt>
      <trkpt lat="39.512115" lon="-5.078824">
        <ele>666.2</ele>
        <time>1970-01-01T00:00:00Z</time>
      </trkpt>
      <trkpt lat="39.512115" lon="-5.078824">
        <ele>666.2</ele>
        <time>1970-01-01T00:00:00Z</time>
      </trkpt>
      <trkpt lat="39.512115" lon="-5.078824">
        <ele>666.2</ele>
        <time>1970-01-01T00:00:00Z</time>
      </trkpt>
      <trkpt lat="39.512092" lon="-5.078328">
        <ele>664.2</ele>
        <time>1970-01-01T00:00:00Z</time>
      </trkpt>
      <trkpt lat="39.512092" lon="-5.078328">
        <ele>664.2</ele>
        <time>1970-01-01T00:00:00Z</time>
      </trkpt>
      <trkpt lat="39.512092" lon="-5.078328">
        <ele>664.2</ele>
        <time>1970-01-01T00:00:00Z</time>
      </trkpt>
      <trkpt lat="39.512092" lon="-5.078328">
        <ele>664.2</ele>
        <time>1970-01-01T00:00:00Z</time>
      </trkpt>
      <trkpt lat="39.512081" lon="-5.077774">
        <ele>663.0</ele>
        <time>1970-01-01T00:00:00Z</time>
      </trkpt>
      <trkpt lat="39.512081" lon="-5.077774">
        <ele>663.0</ele>
        <time>1970-01-01T00:00:00Z</time>
      </trkpt>
      <trkpt lat="39.512081" lon="-5.077774">
        <ele>663.0</ele>
        <time>1970-01-01T00:00:00Z</time>
      </trkpt>
      <trkpt lat="39.512081" lon="-5.077774">
        <ele>663.0</ele>
        <time>1970-01-01T00:00:00Z</time>
      </trkpt>
      <trkpt lat="39.512072" lon="-5.077380">
        <ele>662.3</ele>
        <time>1970-01-01T00:00:00Z</time>
      </trkpt>
      <trkpt lat="39.512072" lon="-5.077380">
        <ele>662.3</ele>
        <time>1970-01-01T00:00:00Z</time>
      </trkpt>
      <trkpt lat="39.512072" lon="-5.077380">
        <ele>662.3</ele>
        <time>1970-01-01T00:00:00Z</time>
      </trkpt>
      <trkpt lat="39.512072" lon="-5.077380">
        <ele>662.3</ele>
        <time>1970-01-01T00:00:00Z</time>
      </trkpt>
      <trkpt lat="39.512070" lon="-5.075319">
        <ele>659.7</ele>
        <time>1970-01-01T00:00:00Z</time>
      </trkpt>
      <trkpt lat="39.512070" lon="-5.075319">
        <ele>659.7</ele>
        <time>1970-01-01T00:00:00Z</time>
      </trkpt>
      <trkpt lat="39.512070" lon="-5.075319">
        <ele>659.7</ele>
        <time>1970-01-01T00:00:00Z</time>
      </trkpt>
      <trkpt lat="39.512070" lon="-5.075319">
        <ele>659.7</ele>
        <time>1970-01-01T00:00:00Z</time>
      </trkpt>
      <trkpt lat="39.512086" lon="-5.074895">
        <ele>658.4</ele>
        <time>1970-01-01T00:00:00Z</time>
      </trkpt>
      <trkpt lat="39.512086" lon="-5.074895">
        <ele>658.4</ele>
        <time>1970-01-01T00:00:00Z</time>
      </trkpt>
      <trkpt lat="39.512086" lon="-5.074895">
        <ele>658.4</ele>
        <time>1970-01-01T00:00:00Z</time>
      </trkpt>
      <trkpt lat="39.512086" lon="-5.074895">
        <ele>658.4</ele>
        <time>1970-01-01T00:00:00Z</time>
      </trkpt>
      <trkpt lat="39.512138" lon="-5.073610">
        <ele>653.7</ele>
        <time>1970-01-01T00:00:00Z</time>
      </trkpt>
      <trkpt lat="39.512138" lon="-5.073610">
        <ele>653.7</ele>
        <time>1970-01-01T00:00:00Z</time>
      </trkpt>
      <trkpt lat="39.512138" lon="-5.073610">
        <ele>653.7</ele>
        <time>1970-01-01T00:00:00Z</time>
      </trkpt>
      <trkpt lat="39.512138" lon="-5.073610">
        <ele>653.7</ele>
        <time>1970-01-01T00:00:00Z</time>
      </trkpt>
      <trkpt lat="39.512154" lon="-5.072447">
        <ele>650.0</ele>
        <time>1970-01-01T00:00:00Z</time>
      </trkpt>
      <trkpt lat="39.512154" lon="-5.072447">
        <ele>650.0</ele>
        <time>1970-01-01T00:00:00Z</time>
      </trkpt>
      <trkpt lat="39.512154" lon="-5.072447">
        <ele>650.0</ele>
        <time>1970-01-01T00:00:00Z</time>
      </trkpt>
      <trkpt lat="39.512154" lon="-5.072447">
        <ele>650.0</ele>
        <time>1970-01-01T00:00:00Z</time>
      </trkpt>
      <trkpt lat="39.512164" lon="-5.071910">
        <ele>649.3</ele>
        <time>1970-01-01T00:00:00Z</time>
      </trkpt>
      <trkpt lat="39.512164" lon="-5.071910">
        <ele>649.3</ele>
        <time>1970-01-01T00:00:00Z</time>
      </trkpt>
      <trkpt lat="39.512164" lon="-5.071910">
        <ele>649.3</ele>
        <time>1970-01-01T00:00:00Z</time>
      </trkpt>
      <trkpt lat="39.512164" lon="-5.071910">
        <ele>649.3</ele>
        <time>1970-01-01T00:00:00Z</time>
      </trkpt>
      <trkpt lat="39.512155" lon="-5.071736">
        <ele>649.0</ele>
        <time>1970-01-01T00:00:00Z</time>
      </trkpt>
      <trkpt lat="39.512155" lon="-5.071736">
        <ele>649.0</ele>
        <time>1970-01-01T00:00:00Z</time>
      </trkpt>
      <trkpt lat="39.512155" lon="-5.071736">
        <ele>649.0</ele>
        <time>1970-01-01T00:00:00Z</time>
      </trkpt>
      <trkpt lat="39.512155" lon="-5.071736">
        <ele>649.0</ele>
        <time>1970-01-01T00:00:00Z</time>
      </trkpt>
      <trkpt lat="39.512123" lon="-5.071551">
        <ele>648.6</ele>
        <time>1970-01-01T00:00:00Z</time>
      </trkpt>
      <trkpt lat="39.512123" lon="-5.071551">
        <ele>648.6</ele>
        <time>1970-01-01T00:00:00Z</time>
      </trkpt>
      <trkpt lat="39.512123" lon="-5.071551">
        <ele>648.6</ele>
        <time>1970-01-01T00:00:00Z</time>
      </trkpt>
      <trkpt lat="39.512123" lon="-5.071551">
        <ele>648.6</ele>
        <time>1970-01-01T00:00:00Z</time>
      </trkpt>
      <trkpt lat="39.511771" lon="-5.070475">
        <ele>644.0</ele>
        <time>1970-01-01T00:00:00Z</time>
      </trkpt>
      <trkpt lat="39.511771" lon="-5.070475">
        <ele>644.0</ele>
        <time>1970-01-01T00:00:00Z</time>
      </trkpt>
      <trkpt lat="39.511771" lon="-5.070475">
        <ele>644.0</ele>
        <time>1970-01-01T00:00:00Z</time>
      </trkpt>
      <trkpt lat="39.511771" lon="-5.070475">
        <ele>644.0</ele>
        <time>1970-01-01T00:00:00Z</time>
      </trkpt>
      <trkpt lat="39.511012" lon="-5.068153">
        <ele>647.9</ele>
        <time>1970-01-01T00:00:00Z</time>
      </trkpt>
      <trkpt lat="39.511012" lon="-5.068153">
        <ele>647.9</ele>
        <time>1970-01-01T00:00:00Z</time>
      </trkpt>
      <trkpt lat="39.511012" lon="-5.068153">
        <ele>647.9</ele>
        <time>1970-01-01T00:00:00Z</time>
      </trkpt>
      <trkpt lat="39.511012" lon="-5.068153">
        <ele>647.9</ele>
        <time>1970-01-01T00:00:00Z</time>
      </trkpt>
      <trkpt lat="39.510777" lon="-5.067483">
        <ele>651.8</ele>
        <time>1970-01-01T00:00:00Z</time>
      </trkpt>
      <trkpt lat="39.510777" lon="-5.067483">
        <ele>651.8</ele>
        <time>1970-01-01T00:00:00Z</time>
      </trkpt>
      <trkpt lat="39.510777" lon="-5.067483">
        <ele>651.8</ele>
        <time>1970-01-01T00:00:00Z</time>
      </trkpt>
      <trkpt lat="39.510777" lon="-5.067483">
        <ele>651.8</ele>
        <time>1970-01-01T00:00:00Z</time>
      </trkpt>
      <trkpt lat="39.510672" lon="-5.067173">
        <ele>654.8</ele>
        <time>1970-01-01T00:00:00Z</time>
      </trkpt>
      <trkpt lat="39.510672" lon="-5.067173">
        <ele>654.8</ele>
        <time>1970-01-01T00:00:00Z</time>
      </trkpt>
      <trkpt lat="39.510672" lon="-5.067173">
        <ele>654.8</ele>
        <time>1970-01-01T00:00:00Z</time>
      </trkpt>
      <trkpt lat="39.510672" lon="-5.067173">
        <ele>654.8</ele>
        <time>1970-01-01T00:00:00Z</time>
      </trkpt>
      <trkpt lat="39.510451" lon="-5.066487">
        <ele>660.5</ele>
        <time>1970-01-01T00:00:00Z</time>
      </trkpt>
      <trkpt lat="39.510451" lon="-5.066487">
        <ele>660.5</ele>
        <time>1970-01-01T00:00:00Z</time>
      </trkpt>
      <trkpt lat="39.510451" lon="-5.066487">
        <ele>660.5</ele>
        <time>1970-01-01T00:00:00Z</time>
      </trkpt>
      <trkpt lat="39.510451" lon="-5.066487">
        <ele>660.5</ele>
        <time>1970-01-01T00:00:00Z</time>
      </trkpt>
      <trkpt lat="39.510311" lon="-5.066090">
        <ele>662.0</ele>
        <time>1970-01-01T00:00:00Z</time>
      </trkpt>
      <trkpt lat="39.510311" lon="-5.066090">
        <ele>662.0</ele>
        <time>1970-01-01T00:00:00Z</time>
      </trkpt>
      <trkpt lat="39.510311" lon="-5.066090">
        <ele>662.0</ele>
        <time>1970-01-01T00:00:00Z</time>
      </trkpt>
      <trkpt lat="39.510311" lon="-5.066090">
        <ele>662.0</ele>
        <time>1970-01-01T00:00:00Z</time>
      </trkpt>
      <trkpt lat="39.509780" lon="-5.064960">
        <ele>662.2</ele>
        <time>1970-01-01T00:00:00Z</time>
      </trkpt>
      <trkpt lat="39.509780" lon="-5.064960">
        <ele>662.2</ele>
        <time>1970-01-01T00:00:00Z</time>
      </trkpt>
      <trkpt lat="39.509780" lon="-5.064960">
        <ele>662.2</ele>
        <time>1970-01-01T00:00:00Z</time>
      </trkpt>
      <trkpt lat="39.509780" lon="-5.064960">
        <ele>662.2</ele>
        <time>1970-01-01T00:00:00Z</time>
      </trkpt>
      <trkpt lat="39.509158" lon="-5.063700">
        <ele>668.2</ele>
        <time>1970-01-01T00:00:00Z</time>
      </trkpt>
      <trkpt lat="39.509158" lon="-5.063700">
        <ele>668.2</ele>
        <time>1970-01-01T00:00:00Z</time>
      </trkpt>
      <trkpt lat="39.509158" lon="-5.063700">
        <ele>668.2</ele>
        <time>1970-01-01T00:00:00Z</time>
      </trkpt>
      <trkpt lat="39.509158" lon="-5.063700">
        <ele>668.2</ele>
        <time>1970-01-01T00:00:00Z</time>
      </trkpt>
      <trkpt lat="39.508848" lon="-5.063085">
        <ele>668.8</ele>
        <time>1970-01-01T00:00:00Z</time>
      </trkpt>
      <trkpt lat="39.508848" lon="-5.063085">
        <ele>668.8</ele>
        <time>1970-01-01T00:00:00Z</time>
      </trkpt>
      <trkpt lat="39.508848" lon="-5.063085">
        <ele>668.8</ele>
        <time>1970-01-01T00:00:00Z</time>
      </trkpt>
      <trkpt lat="39.508848" lon="-5.063085">
        <ele>668.8</ele>
        <time>1970-01-01T00:00:00Z</time>
      </trkpt>
      <trkpt lat="39.508471" lon="-5.062450">
        <ele>662.6</ele>
        <time>1970-01-01T00:00:00Z</time>
      </trkpt>
      <trkpt lat="39.508471" lon="-5.062450">
        <ele>662.6</ele>
        <time>1970-01-01T00:00:00Z</time>
      </trkpt>
      <trkpt lat="39.508471" lon="-5.062450">
        <ele>662.6</ele>
        <time>1970-01-01T00:00:00Z</time>
      </trkpt>
      <trkpt lat="39.508471" lon="-5.062450">
        <ele>662.6</ele>
        <time>1970-01-01T00:00:00Z</time>
      </trkpt>
      <trkpt lat="39.508105" lon="-5.061867">
        <ele>661.5</ele>
        <time>1970-01-01T00:00:00Z</time>
      </trkpt>
      <trkpt lat="39.508105" lon="-5.061867">
        <ele>661.5</ele>
        <time>1970-01-01T00:00:00Z</time>
      </trkpt>
      <trkpt lat="39.508105" lon="-5.061867">
        <ele>661.5</ele>
        <time>1970-01-01T00:00:00Z</time>
      </trkpt>
      <trkpt lat="39.508105" lon="-5.061867">
        <ele>661.5</ele>
        <time>1970-01-01T00:00:00Z</time>
      </trkpt>
      <trkpt lat="39.507900" lon="-5.061521">
        <ele>662.6</ele>
        <time>1970-01-01T00:00:00Z</time>
      </trkpt>
      <trkpt lat="39.507900" lon="-5.061521">
        <ele>662.6</ele>
        <time>1970-01-01T00:00:00Z</time>
      </trkpt>
      <trkpt lat="39.507900" lon="-5.061521">
        <ele>662.6</ele>
        <time>1970-01-01T00:00:00Z</time>
      </trkpt>
      <trkpt lat="39.507900" lon="-5.061521">
        <ele>662.6</ele>
        <time>1970-01-01T00:00:00Z</time>
      </trkpt>
      <trkpt lat="39.507693" lon="-5.061177">
        <ele>665.3</ele>
        <time>1970-01-01T00:00:00Z</time>
      </trkpt>
      <trkpt lat="39.507693" lon="-5.061177">
        <ele>665.3</ele>
        <time>1970-01-01T00:00:00Z</time>
      </trkpt>
      <trkpt lat="39.507693" lon="-5.061177">
        <ele>665.3</ele>
        <time>1970-01-01T00:00:00Z</time>
      </trkpt>
      <trkpt lat="39.507693" lon="-5.061177">
        <ele>665.3</ele>
        <time>1970-01-01T00:00:00Z</time>
      </trkpt>
      <trkpt lat="39.507594" lon="-5.060998">
        <ele>665.7</ele>
        <time>1970-01-01T00:00:00Z</time>
      </trkpt>
      <trkpt lat="39.507594" lon="-5.060998">
        <ele>665.7</ele>
        <time>1970-01-01T00:00:00Z</time>
      </trkpt>
      <trkpt lat="39.507594" lon="-5.060998">
        <ele>665.7</ele>
        <time>1970-01-01T00:00:00Z</time>
      </trkpt>
      <trkpt lat="39.507594" lon="-5.060998">
        <ele>665.7</ele>
        <time>1970-01-01T00:00:00Z</time>
      </trkpt>
      <trkpt lat="39.507478" lon="-5.060762">
        <ele>666.0</ele>
        <time>1970-01-01T00:00:00Z</time>
      </trkpt>
      <trkpt lat="39.507478" lon="-5.060762">
        <ele>666.0</ele>
        <time>1970-01-01T00:00:00Z</time>
      </trkpt>
      <trkpt lat="39.507478" lon="-5.060762">
        <ele>666.0</ele>
        <time>1970-01-01T00:00:00Z</time>
      </trkpt>
      <trkpt lat="39.507478" lon="-5.060762">
        <ele>666.0</ele>
        <time>1970-01-01T00:00:00Z</time>
      </trkpt>
      <trkpt lat="39.507201" lon="-5.060052">
        <ele>667.6</ele>
        <time>1970-01-01T00:00:00Z</time>
      </trkpt>
      <trkpt lat="39.507201" lon="-5.060052">
        <ele>667.6</ele>
        <time>1970-01-01T00:00:00Z</time>
      </trkpt>
      <trkpt lat="39.507201" lon="-5.060052">
        <ele>667.6</ele>
        <time>1970-01-01T00:00:00Z</time>
      </trkpt>
      <trkpt lat="39.507201" lon="-5.060052">
        <ele>667.6</ele>
        <time>1970-01-01T00:00:00Z</time>
      </trkpt>
      <trkpt lat="39.507006" lon="-5.059518">
        <ele>671.1</ele>
        <time>1970-01-01T00:00:00Z</time>
      </trkpt>
      <trkpt lat="39.507006" lon="-5.059518">
        <ele>671.1</ele>
        <time>1970-01-01T00:00:00Z</time>
      </trkpt>
      <trkpt lat="39.507006" lon="-5.059518">
        <ele>671.1</ele>
        <time>1970-01-01T00:00:00Z</time>
      </trkpt>
      <trkpt lat="39.507006" lon="-5.059518">
        <ele>671.1</ele>
        <time>1970-01-01T00:00:00Z</time>
      </trkpt>
      <trkpt lat="39.506842" lon="-5.059050">
        <ele>673.3</ele>
        <time>1970-01-01T00:00:00Z</time>
      </trkpt>
      <trkpt lat="39.506842" lon="-5.059050">
        <ele>673.3</ele>
        <time>1970-01-01T00:00:00Z</time>
      </trkpt>
      <trkpt lat="39.506842" lon="-5.059050">
        <ele>673.3</ele>
        <time>1970-01-01T00:00:00Z</time>
      </trkpt>
      <trkpt lat="39.506842" lon="-5.059050">
        <ele>673.3</ele>
        <time>1970-01-01T00:00:00Z</time>
      </trkpt>
      <trkpt lat="39.506656" lon="-5.058575">
        <ele>676.0</ele>
        <time>1970-01-01T00:00:00Z</time>
      </trkpt>
      <trkpt lat="39.506656" lon="-5.058575">
        <ele>676.0</ele>
        <time>1970-01-01T00:00:00Z</time>
      </trkpt>
      <trkpt lat="39.506656" lon="-5.058575">
        <ele>676.0</ele>
        <time>1970-01-01T00:00:00Z</time>
      </trkpt>
      <trkpt lat="39.506656" lon="-5.058575">
        <ele>676.0</ele>
        <time>1970-01-01T00:00:00Z</time>
      </trkpt>
      <trkpt lat="39.506169" lon="-5.057457">
        <ele>681.9</ele>
        <time>1970-01-01T00:00:00Z</time>
      </trkpt>
      <trkpt lat="39.506169" lon="-5.057457">
        <ele>681.9</ele>
        <time>1970-01-01T00:00:00Z</time>
      </trkpt>
      <trkpt lat="39.506169" lon="-5.057457">
        <ele>681.9</ele>
        <time>1970-01-01T00:00:00Z</time>
      </trkpt>
      <trkpt lat="39.506169" lon="-5.057457">
        <ele>681.9</ele>
        <time>1970-01-01T00:00:00Z</time>
      </trkpt>
      <trkpt lat="39.505874" lon="-5.056704">
        <ele>687.6</ele>
        <time>1970-01-01T00:00:00Z</time>
      </trkpt>
      <trkpt lat="39.505874" lon="-5.056704">
        <ele>687.6</ele>
        <time>1970-01-01T00:00:00Z</time>
      </trkpt>
      <trkpt lat="39.505874" lon="-5.056704">
        <ele>687.6</ele>
        <time>1970-01-01T00:00:00Z</time>
      </trkpt>
      <trkpt lat="39.505874" lon="-5.056704">
        <ele>687.6</ele>
        <time>1970-01-01T00:00:00Z</time>
      </trkpt>
      <trkpt lat="39.505694" lon="-5.056275">
        <ele>689.9</ele>
        <time>1970-01-01T00:00:00Z</time>
      </trkpt>
      <trkpt lat="39.505694" lon="-5.056275">
        <ele>689.9</ele>
        <time>1970-01-01T00:00:00Z</time>
      </trkpt>
      <trkpt lat="39.505694" lon="-5.056275">
        <ele>689.9</ele>
        <time>1970-01-01T00:00:00Z</time>
      </trkpt>
      <trkpt lat="39.505694" lon="-5.056275">
        <ele>689.9</ele>
        <time>1970-01-01T00:00:00Z</time>
      </trkpt>
      <trkpt lat="39.505626" lon="-5.056104">
        <ele>690.2</ele>
        <time>1970-01-01T00:00:00Z</time>
      </trkpt>
      <trkpt lat="39.505626" lon="-5.056104">
        <ele>690.2</ele>
        <time>1970-01-01T00:00:00Z</time>
      </trkpt>
      <trkpt lat="39.505626" lon="-5.056104">
        <ele>690.2</ele>
        <time>1970-01-01T00:00:00Z</time>
      </trkpt>
      <trkpt lat="39.505626" lon="-5.056104">
        <ele>690.2</ele>
        <time>1970-01-01T00:00:00Z</time>
      </trkpt>
      <trkpt lat="39.505558" lon="-5.055923">
        <ele>690.9</ele>
        <time>1970-01-01T00:00:00Z</time>
      </trkpt>
      <trkpt lat="39.505558" lon="-5.055923">
        <ele>690.9</ele>
        <time>1970-01-01T00:00:00Z</time>
      </trkpt>
      <trkpt lat="39.505558" lon="-5.055923">
        <ele>690.9</ele>
        <time>1970-01-01T00:00:00Z</time>
      </trkpt>
      <trkpt lat="39.505558" lon="-5.055923">
        <ele>690.9</ele>
        <time>1970-01-01T00:00:00Z</time>
      </trkpt>
      <trkpt lat="39.505474" lon="-5.055721">
        <ele>691.0</ele>
        <time>1970-01-01T00:00:00Z</time>
      </trkpt>
      <trkpt lat="39.505474" lon="-5.055721">
        <ele>691.0</ele>
        <time>1970-01-01T00:00:00Z</time>
      </trkpt>
      <trkpt lat="39.505474" lon="-5.055721">
        <ele>691.0</ele>
        <time>1970-01-01T00:00:00Z</time>
      </trkpt>
      <trkpt lat="39.505474" lon="-5.055721">
        <ele>691.0</ele>
        <time>1970-01-01T00:00:00Z</time>
      </trkpt>
      <trkpt lat="39.505420" lon="-5.055504">
        <ele>690.4</ele>
        <time>1970-01-01T00:00:00Z</time>
      </trkpt>
      <trkpt lat="39.505420" lon="-5.055504">
        <ele>690.4</ele>
        <time>1970-01-01T00:00:00Z</time>
      </trkpt>
      <trkpt lat="39.505420" lon="-5.055504">
        <ele>690.4</ele>
        <time>1970-01-01T00:00:00Z</time>
      </trkpt>
      <trkpt lat="39.505420" lon="-5.055504">
        <ele>690.4</ele>
        <time>1970-01-01T00:00:00Z</time>
      </trkpt>
      <trkpt lat="39.505389" lon="-5.054934">
        <ele>689.1</ele>
        <time>1970-01-01T00:00:00Z</time>
      </trkpt>
      <trkpt lat="39.505389" lon="-5.054934">
        <ele>689.1</ele>
        <time>1970-01-01T00:00:00Z</time>
      </trkpt>
      <trkpt lat="39.505389" lon="-5.054934">
        <ele>689.1</ele>
        <time>1970-01-01T00:00:00Z</time>
      </trkpt>
      <trkpt lat="39.505389" lon="-5.054934">
        <ele>689.1</ele>
        <time>1970-01-01T00:00:00Z</time>
      </trkpt>
      <trkpt lat="39.505363" lon="-5.054599">
        <ele>688.1</ele>
        <time>1970-01-01T00:00:00Z</time>
      </trkpt>
      <trkpt lat="39.505363" lon="-5.054599">
        <ele>688.1</ele>
        <time>1970-01-01T00:00:00Z</time>
      </trkpt>
      <trkpt lat="39.505363" lon="-5.054599">
        <ele>688.1</ele>
        <time>1970-01-01T00:00:00Z</time>
      </trkpt>
      <trkpt lat="39.505363" lon="-5.054599">
        <ele>688.1</ele>
        <time>1970-01-01T00:00:00Z</time>
      </trkpt>
      <trkpt lat="39.505342" lon="-5.054291">
        <ele>687.8</ele>
        <time>1970-01-01T00:00:00Z</time>
      </trkpt>
      <trkpt lat="39.505342" lon="-5.054291">
        <ele>687.8</ele>
        <time>1970-01-01T00:00:00Z</time>
      </trkpt>
      <trkpt lat="39.505342" lon="-5.054291">
        <ele>687.8</ele>
        <time>1970-01-01T00:00:00Z</time>
      </trkpt>
      <trkpt lat="39.505342" lon="-5.054291">
        <ele>687.8</ele>
        <time>1970-01-01T00:00:00Z</time>
      </trkpt>
      <trkpt lat="39.505327" lon="-5.053921">
        <ele>686.7</ele>
        <time>1970-01-01T00:00:00Z</time>
      </trkpt>
      <trkpt lat="39.505327" lon="-5.053921">
        <ele>686.7</ele>
        <time>1970-01-01T00:00:00Z</time>
      </trkpt>
      <trkpt lat="39.505327" lon="-5.053921">
        <ele>686.7</ele>
        <time>1970-01-01T00:00:00Z</time>
      </trkpt>
      <trkpt lat="39.505327" lon="-5.053921">
        <ele>686.7</ele>
        <time>1970-01-01T00:00:00Z</time>
      </trkpt>
      <trkpt lat="39.505309" lon="-5.053589">
        <ele>686.1</ele>
        <time>1970-01-01T00:00:00Z</time>
      </trkpt>
      <trkpt lat="39.505309" lon="-5.053589">
        <ele>686.1</ele>
        <time>1970-01-01T00:00:00Z</time>
      </trkpt>
      <trkpt lat="39.505309" lon="-5.053589">
        <ele>686.1</ele>
        <time>1970-01-01T00:00:00Z</time>
      </trkpt>
      <trkpt lat="39.505309" lon="-5.053589">
        <ele>686.1</ele>
        <time>1970-01-01T00:00:00Z</time>
      </trkpt>
      <trkpt lat="39.505301" lon="-5.053313">
        <ele>685.0</ele>
        <time>1970-01-01T00:00:00Z</time>
      </trkpt>
      <trkpt lat="39.505301" lon="-5.053313">
        <ele>685.0</ele>
        <time>1970-01-01T00:00:00Z</time>
      </trkpt>
      <trkpt lat="39.505301" lon="-5.053313">
        <ele>685.0</ele>
        <time>1970-01-01T00:00:00Z</time>
      </trkpt>
      <trkpt lat="39.505301" lon="-5.053313">
        <ele>685.0</ele>
        <time>1970-01-01T00:00:00Z</time>
      </trkpt>
      <trkpt lat="39.505288" lon="-5.053182">
        <ele>685.0</ele>
        <time>1970-01-01T00:00:00Z</time>
      </trkpt>
      <trkpt lat="39.505288" lon="-5.053182">
        <ele>685.0</ele>
        <time>1970-01-01T00:00:00Z</time>
      </trkpt>
      <trkpt lat="39.505288" lon="-5.053182">
        <ele>685.0</ele>
        <time>1970-01-01T00:00:00Z</time>
      </trkpt>
      <trkpt lat="39.505288" lon="-5.053182">
        <ele>685.0</ele>
        <time>1970-01-01T00:00:00Z</time>
      </trkpt>
      <trkpt lat="39.505226" lon="-5.052559">
        <ele>683.3</ele>
        <time>1970-01-01T00:00:00Z</time>
      </trkpt>
      <trkpt lat="39.505226" lon="-5.052559">
        <ele>683.3</ele>
        <time>1970-01-01T00:00:00Z</time>
      </trkpt>
      <trkpt lat="39.505226" lon="-5.052559">
        <ele>683.3</ele>
        <time>1970-01-01T00:00:00Z</time>
      </trkpt>
      <trkpt lat="39.505226" lon="-5.052559">
        <ele>683.3</ele>
        <time>1970-01-01T00:00:00Z</time>
      </trkpt>
      <trkpt lat="39.505198" lon="-5.052328">
        <ele>681.7</ele>
        <time>1970-01-01T00:00:00Z</time>
      </trkpt>
      <trkpt lat="39.505198" lon="-5.052328">
        <ele>681.7</ele>
        <time>1970-01-01T00:00:00Z</time>
      </trkpt>
      <trkpt lat="39.505198" lon="-5.052328">
        <ele>681.7</ele>
        <time>1970-01-01T00:00:00Z</time>
      </trkpt>
      <trkpt lat="39.505198" lon="-5.052328">
        <ele>681.7</ele>
        <time>1970-01-01T00:00:00Z</time>
      </trkpt>
      <trkpt lat="39.505124" lon="-5.051846">
        <ele>679.9</ele>
        <time>1970-01-01T00:00:00Z</time>
      </trkpt>
      <trkpt lat="39.505124" lon="-5.051846">
        <ele>679.9</ele>
        <time>1970-01-01T00:00:00Z</time>
      </trkpt>
      <trkpt lat="39.505124" lon="-5.051846">
        <ele>679.9</ele>
        <time>1970-01-01T00:00:00Z</time>
      </trkpt>
      <trkpt lat="39.505124" lon="-5.051846">
        <ele>679.9</ele>
        <time>1970-01-01T00:00:00Z</time>
      </trkpt>
      <trkpt lat="39.505090" lon="-5.051583">
        <ele>677.9</ele>
        <time>1970-01-01T00:00:00Z</time>
      </trkpt>
      <trkpt lat="39.505090" lon="-5.051583">
        <ele>677.9</ele>
        <time>1970-01-01T00:00:00Z</time>
      </trkpt>
      <trkpt lat="39.505090" lon="-5.051583">
        <ele>677.9</ele>
        <time>1970-01-01T00:00:00Z</time>
      </trkpt>
      <trkpt lat="39.505090" lon="-5.051583">
        <ele>677.9</ele>
        <time>1970-01-01T00:00:00Z</time>
      </trkpt>
      <trkpt lat="39.505057" lon="-5.051382">
        <ele>675.7</ele>
        <time>1970-01-01T00:00:00Z</time>
      </trkpt>
      <trkpt lat="39.505057" lon="-5.051382">
        <ele>675.7</ele>
        <time>1970-01-01T00:00:00Z</time>
      </trkpt>
      <trkpt lat="39.505057" lon="-5.051382">
        <ele>675.7</ele>
        <time>1970-01-01T00:00:00Z</time>
      </trkpt>
      <trkpt lat="39.505057" lon="-5.051382">
        <ele>675.7</ele>
        <time>1970-01-01T00:00:00Z</time>
      </trkpt>
      <trkpt lat="39.505000" lon="-5.051049">
        <ele>672.3</ele>
        <time>1970-01-01T00:00:00Z</time>
      </trkpt>
      <trkpt lat="39.505000" lon="-5.051049">
        <ele>672.3</ele>
        <time>1970-01-01T00:00:00Z</time>
      </trkpt>
      <trkpt lat="39.505000" lon="-5.051049">
        <ele>672.3</ele>
        <time>1970-01-01T00:00:00Z</time>
      </trkpt>
      <trkpt lat="39.505000" lon="-5.051049">
        <ele>672.3</ele>
        <time>1970-01-01T00:00:00Z</time>
      </trkpt>
      <trkpt lat="39.504957" lon="-5.050807">
        <ele>670.1</ele>
        <time>1970-01-01T00:00:00Z</time>
      </trkpt>
      <trkpt lat="39.504957" lon="-5.050807">
        <ele>670.1</ele>
        <time>1970-01-01T00:00:00Z</time>
      </trkpt>
      <trkpt lat="39.504957" lon="-5.050807">
        <ele>670.1</ele>
        <time>1970-01-01T00:00:00Z</time>
      </trkpt>
      <trkpt lat="39.504957" lon="-5.050807">
        <ele>670.1</ele>
        <time>1970-01-01T00:00:00Z</time>
      </trkpt>
      <trkpt lat="39.504900" lon="-5.050403">
        <ele>666.8</ele>
        <time>1970-01-01T00:00:00Z</time>
      </trkpt>
      <trkpt lat="39.504900" lon="-5.050403">
        <ele>666.8</ele>
        <time>1970-01-01T00:00:00Z</time>
      </trkpt>
      <trkpt lat="39.504900" lon="-5.050403">
        <ele>666.8</ele>
        <time>1970-01-01T00:00:00Z</time>
      </trkpt>
      <trkpt lat="39.504900" lon="-5.050403">
        <ele>666.8</ele>
        <time>1970-01-01T00:00:00Z</time>
      </trkpt>
      <trkpt lat="39.504862" lon="-5.050049">
        <ele>664.6</ele>
        <time>1970-01-01T00:00:00Z</time>
      </trkpt>
      <trkpt lat="39.504862" lon="-5.050049">
        <ele>664.6</ele>
        <time>1970-01-01T00:00:00Z</time>
      </trkpt>
      <trkpt lat="39.504862" lon="-5.050049">
        <ele>664.6</ele>
        <time>1970-01-01T00:00:00Z</time>
      </trkpt>
      <trkpt lat="39.504862" lon="-5.050049">
        <ele>664.6</ele>
        <time>1970-01-01T00:00:00Z</time>
      </trkpt>
      <trkpt lat="39.504824" lon="-5.049716">
        <ele>662.2</ele>
        <time>1970-01-01T00:00:00Z</time>
      </trkpt>
      <trkpt lat="39.504824" lon="-5.049716">
        <ele>662.2</ele>
        <time>1970-01-01T00:00:00Z</time>
      </trkpt>
      <trkpt lat="39.504824" lon="-5.049716">
        <ele>662.2</ele>
        <time>1970-01-01T00:00:00Z</time>
      </trkpt>
      <trkpt lat="39.504824" lon="-5.049716">
        <ele>662.2</ele>
        <time>1970-01-01T00:00:00Z</time>
      </trkpt>
      <trkpt lat="39.504750" lon="-5.049208">
        <ele>658.4</ele>
        <time>1970-01-01T00:00:00Z</time>
      </trkpt>
      <trkpt lat="39.504750" lon="-5.049208">
        <ele>658.4</ele>
        <time>1970-01-01T00:00:00Z</time>
      </trkpt>
      <trkpt lat="39.504750" lon="-5.049208">
        <ele>658.4</ele>
        <time>1970-01-01T00:00:00Z</time>
      </trkpt>
      <trkpt lat="39.504750" lon="-5.049208">
        <ele>658.4</ele>
        <time>1970-01-01T00:00:00Z</time>
      </trkpt>
      <trkpt lat="39.504698" lon="-5.048834">
        <ele>656.0</ele>
        <time>1970-01-01T00:00:00Z</time>
      </trkpt>
      <trkpt lat="39.504698" lon="-5.048834">
        <ele>656.0</ele>
        <time>1970-01-01T00:00:00Z</time>
      </trkpt>
      <trkpt lat="39.504698" lon="-5.048834">
        <ele>656.0</ele>
        <time>1970-01-01T00:00:00Z</time>
      </trkpt>
      <trkpt lat="39.504698" lon="-5.048834">
        <ele>656.0</ele>
        <time>1970-01-01T00:00:00Z</time>
      </trkpt>
      <trkpt lat="39.504651" lon="-5.048536">
        <ele>654.3</ele>
        <time>1970-01-01T00:00:00Z</time>
      </trkpt>
      <trkpt lat="39.504651" lon="-5.048536">
        <ele>654.3</ele>
        <time>1970-01-01T00:00:00Z</time>
      </trkpt>
      <trkpt lat="39.504651" lon="-5.048536">
        <ele>654.3</ele>
        <time>1970-01-01T00:00:00Z</time>
      </trkpt>
      <trkpt lat="39.504651" lon="-5.048536">
        <ele>654.3</ele>
        <time>1970-01-01T00:00:00Z</time>
      </trkpt>
      <trkpt lat="39.504616" lon="-5.048295">
        <ele>653.2</ele>
        <time>1970-01-01T00:00:00Z</time>
      </trkpt>
      <trkpt lat="39.504616" lon="-5.048295">
        <ele>653.2</ele>
        <time>1970-01-01T00:00:00Z</time>
      </trkpt>
      <trkpt lat="39.504616" lon="-5.048295">
        <ele>653.2</ele>
        <time>1970-01-01T00:00:00Z</time>
      </trkpt>
      <trkpt lat="39.504616" lon="-5.048295">
        <ele>653.2</ele>
        <time>1970-01-01T00:00:00Z</time>
      </trkpt>
      <trkpt lat="39.504555" lon="-5.047946">
        <ele>651.8</ele>
        <time>1970-01-01T00:00:00Z</time>
      </trkpt>
      <trkpt lat="39.504555" lon="-5.047946">
        <ele>651.8</ele>
        <time>1970-01-01T00:00:00Z</time>
      </trkpt>
      <trkpt lat="39.504555" lon="-5.047946">
        <ele>651.8</ele>
        <time>1970-01-01T00:00:00Z</time>
      </trkpt>
      <trkpt lat="39.504555" lon="-5.047946">
        <ele>651.8</ele>
        <time>1970-01-01T00:00:00Z</time>
      </trkpt>
      <trkpt lat="39.504545" lon="-5.047857">
        <ele>651.4</ele>
        <time>1970-01-01T00:00:00Z</time>
      </trkpt>
      <trkpt lat="39.504545" lon="-5.047857">
        <ele>651.4</ele>
        <time>1970-01-01T00:00:00Z</time>
      </trkpt>
      <trkpt lat="39.504545" lon="-5.047857">
        <ele>651.4</ele>
        <time>1970-01-01T00:00:00Z</time>
      </trkpt>
      <trkpt lat="39.504545" lon="-5.047857">
        <ele>651.4</ele>
        <time>1970-01-01T00:00:00Z</time>
      </trkpt>
      <trkpt lat="39.504484" lon="-5.047731">
        <ele>651.3</ele>
        <time>1970-01-01T00:00:00Z</time>
      </trkpt>
      <trkpt lat="39.504484" lon="-5.047731">
        <ele>651.3</ele>
        <time>1970-01-01T00:00:00Z</time>
      </trkpt>
      <trkpt lat="39.504484" lon="-5.047731">
        <ele>651.3</ele>
        <time>1970-01-01T00:00:00Z</time>
      </trkpt>
      <trkpt lat="39.504484" lon="-5.047731">
        <ele>651.3</ele>
        <time>1970-01-01T00:00:00Z</time>
      </trkpt>
      <trkpt lat="39.504148" lon="-5.047285">
        <ele>651.5</ele>
        <time>1970-01-01T00:00:00Z</time>
      </trkpt>
      <trkpt lat="39.504148" lon="-5.047285">
        <ele>651.5</ele>
        <time>1970-01-01T00:00:00Z</time>
      </trkpt>
      <trkpt lat="39.504148" lon="-5.047285">
        <ele>651.5</ele>
        <time>1970-01-01T00:00:00Z</time>
      </trkpt>
      <trkpt lat="39.504148" lon="-5.047285">
        <ele>651.5</ele>
        <time>1970-01-01T00:00:00Z</time>
      </trkpt>
      <trkpt lat="39.503951" lon="-5.047029">
        <ele>651.8</ele>
        <time>1970-01-01T00:00:00Z</time>
      </trkpt>
      <trkpt lat="39.503951" lon="-5.047029">
        <ele>651.8</ele>
        <time>1970-01-01T00:00:00Z</time>
      </trkpt>
      <trkpt lat="39.503951" lon="-5.047029">
        <ele>651.8</ele>
        <time>1970-01-01T00:00:00Z</time>
      </trkpt>
      <trkpt lat="39.503951" lon="-5.047029">
        <ele>651.8</ele>
        <time>1970-01-01T00:00:00Z</time>
      </trkpt>
      <trkpt lat="39.503782" lon="-5.046779">
        <ele>652.0</ele>
        <time>1970-01-01T00:00:00Z</time>
      </trkpt>
      <trkpt lat="39.503782" lon="-5.046779">
        <ele>652.0</ele>
        <time>1970-01-01T00:00:00Z</time>
      </trkpt>
      <trkpt lat="39.503782" lon="-5.046779">
        <ele>652.0</ele>
        <time>1970-01-01T00:00:00Z</time>
      </trkpt>
      <trkpt lat="39.503782" lon="-5.046779">
        <ele>652.0</ele>
        <time>1970-01-01T00:00:00Z</time>
      </trkpt>
      <trkpt lat="39.503610" lon="-5.046560">
        <ele>653.5</ele>
        <time>1970-01-01T00:00:00Z</time>
      </trkpt>
      <trkpt lat="39.503610" lon="-5.046560">
        <ele>653.5</ele>
        <time>1970-01-01T00:00:00Z</time>
      </trkpt>
      <trkpt lat="39.503610" lon="-5.046560">
        <ele>653.5</ele>
        <time>1970-01-01T00:00:00Z</time>
      </trkpt>
      <trkpt lat="39.503610" lon="-5.046560">
        <ele>653.5</ele>
        <time>1970-01-01T00:00:00Z</time>
      </trkpt>
      <trkpt lat="39.503525" lon="-5.046446">
        <ele>653.8</ele>
        <time>1970-01-01T00:00:00Z</time>
      </trkpt>
      <trkpt lat="39.503525" lon="-5.046446">
        <ele>653.8</ele>
        <time>1970-01-01T00:00:00Z</time>
      </trkpt>
      <trkpt lat="39.503525" lon="-5.046446">
        <ele>653.8</ele>
        <time>1970-01-01T00:00:00Z</time>
      </trkpt>
      <trkpt lat="39.503525" lon="-5.046446">
        <ele>653.8</ele>
        <time>1970-01-01T00:00:00Z</time>
      </trkpt>
      <trkpt lat="39.503474" lon="-5.046339">
        <ele>654.0</ele>
        <time>1970-01-01T00:00:00Z</time>
      </trkpt>
      <trkpt lat="39.503474" lon="-5.046339">
        <ele>654.0</ele>
        <time>1970-01-01T00:00:00Z</time>
      </trkpt>
      <trkpt lat="39.503474" lon="-5.046339">
        <ele>654.0</ele>
        <time>1970-01-01T00:00:00Z</time>
      </trkpt>
      <trkpt lat="39.503474" lon="-5.046339">
        <ele>654.0</ele>
        <time>1970-01-01T00:00:00Z</time>
      </trkpt>
      <trkpt lat="39.503456" lon="-5.046192">
        <ele>654.1</ele>
        <time>1970-01-01T00:00:00Z</time>
      </trkpt>
      <trkpt lat="39.503456" lon="-5.046192">
        <ele>654.1</ele>
        <time>1970-01-01T00:00:00Z</time>
      </trkpt>
      <trkpt lat="39.503456" lon="-5.046192">
        <ele>654.1</ele>
        <time>1970-01-01T00:00:00Z</time>
      </trkpt>
      <trkpt lat="39.503456" lon="-5.046192">
        <ele>654.1</ele>
        <time>1970-01-01T00:00:00Z</time>
      </trkpt>
      <trkpt lat="39.503444" lon="-5.046008">
        <ele>654.5</ele>
        <time>1970-01-01T00:00:00Z</time>
      </trkpt>
      <trkpt lat="39.503444" lon="-5.046008">
        <ele>654.5</ele>
        <time>1970-01-01T00:00:00Z</time>
      </trkpt>
      <trkpt lat="39.503444" lon="-5.046008">
        <ele>654.5</ele>
        <time>1970-01-01T00:00:00Z</time>
      </trkpt>
      <trkpt lat="39.503444" lon="-5.046008">
        <ele>654.5</ele>
        <time>1970-01-01T00:00:00Z</time>
      </trkpt>
      <trkpt lat="39.503413" lon="-5.045617">
        <ele>656.1</ele>
        <time>1970-01-01T00:00:00Z</time>
      </trkpt>
      <trkpt lat="39.503413" lon="-5.045617">
        <ele>656.1</ele>
        <time>1970-01-01T00:00:00Z</time>
      </trkpt>
      <trkpt lat="39.503413" lon="-5.045617">
        <ele>656.1</ele>
        <time>1970-01-01T00:00:00Z</time>
      </trkpt>
      <trkpt lat="39.503413" lon="-5.045617">
        <ele>656.1</ele>
        <time>1970-01-01T00:00:00Z</time>
      </trkpt>
      <trkpt lat="39.503392" lon="-5.045259">
        <ele>658.6</ele>
        <time>1970-01-01T00:00:00Z</time>
      </trkpt>
      <trkpt lat="39.503392" lon="-5.045259">
        <ele>658.6</ele>
        <time>1970-01-01T00:00:00Z</time>
      </trkpt>
      <trkpt lat="39.503392" lon="-5.045259">
        <ele>658.6</ele>
        <time>1970-01-01T00:00:00Z</time>
      </trkpt>
      <trkpt lat="39.503392" lon="-5.045259">
        <ele>658.6</ele>
        <time>1970-01-01T00:00:00Z</time>
      </trkpt>
      <trkpt lat="39.503363" lon="-5.045115">
        <ele>660.0</ele>
        <time>1970-01-01T00:00:00Z</time>
      </trkpt>
      <trkpt lat="39.503363" lon="-5.045115">
        <ele>660.0</ele>
        <time>1970-01-01T00:00:00Z</time>
      </trkpt>
      <trkpt lat="39.503363" lon="-5.045115">
        <ele>660.0</ele>
        <time>1970-01-01T00:00:00Z</time>
      </trkpt>
      <trkpt lat="39.503363" lon="-5.045115">
        <ele>660.0</ele>
        <time>1970-01-01T00:00:00Z</time>
      </trkpt>
      <trkpt lat="39.503282" lon="-5.044974">
        <ele>661.3</ele>
        <time>1970-01-01T00:00:00Z</time>
      </trkpt>
      <trkpt lat="39.503282" lon="-5.044974">
        <ele>661.3</ele>
        <time>1970-01-01T00:00:00Z</time>
      </trkpt>
      <trkpt lat="39.503282" lon="-5.044974">
        <ele>661.3</ele>
        <time>1970-01-01T00:00:00Z</time>
      </trkpt>
      <trkpt lat="39.503282" lon="-5.044974">
        <ele>661.3</ele>
        <time>1970-01-01T00:00:00Z</time>
      </trkpt>
      <trkpt lat="39.503184" lon="-5.044844">
        <ele>662.6</ele>
        <time>1970-01-01T00:00:00Z</time>
      </trkpt>
      <trkpt lat="39.503184" lon="-5.044844">
        <ele>662.6</ele>
        <time>1970-01-01T00:00:00Z</time>
      </trkpt>
      <trkpt lat="39.503184" lon="-5.044844">
        <ele>662.6</ele>
        <time>1970-01-01T00:00:00Z</time>
      </trkpt>
      <trkpt lat="39.503184" lon="-5.044844">
        <ele>662.6</ele>
        <time>1970-01-01T00:00:00Z</time>
      </trkpt>
      <trkpt lat="39.503077" lon="-5.044742">
        <ele>663.2</ele>
        <time>1970-01-01T00:00:00Z</time>
      </trkpt>
      <trkpt lat="39.503077" lon="-5.044742">
        <ele>663.2</ele>
        <time>1970-01-01T00:00:00Z</time>
      </trkpt>
      <trkpt lat="39.503077" lon="-5.044742">
        <ele>663.2</ele>
        <time>1970-01-01T00:00:00Z</time>
      </trkpt>
      <trkpt lat="39.503077" lon="-5.044742">
        <ele>663.2</ele>
        <time>1970-01-01T00:00:00Z</time>
      </trkpt>
      <trkpt lat="39.502937" lon="-5.044636">
        <ele>663.7</ele>
        <time>1970-01-01T00:00:00Z</time>
      </trkpt>
      <trkpt lat="39.502937" lon="-5.044636">
        <ele>663.7</ele>
        <time>1970-01-01T00:00:00Z</time>
      </trkpt>
      <trkpt lat="39.502937" lon="-5.044636">
        <ele>663.7</ele>
        <time>1970-01-01T00:00:00Z</time>
      </trkpt>
      <trkpt lat="39.502937" lon="-5.044636">
        <ele>663.7</ele>
        <time>1970-01-01T00:00:00Z</time>
      </trkpt>
      <trkpt lat="39.502763" lon="-5.044508">
        <ele>663.7</ele>
        <time>1970-01-01T00:00:00Z</time>
      </trkpt>
      <trkpt lat="39.502763" lon="-5.044508">
        <ele>663.7</ele>
        <time>1970-01-01T00:00:00Z</time>
      </trkpt>
      <trkpt lat="39.502763" lon="-5.044508">
        <ele>663.7</ele>
        <time>1970-01-01T00:00:00Z</time>
      </trkpt>
      <trkpt lat="39.502763" lon="-5.044508">
        <ele>663.7</ele>
        <time>1970-01-01T00:00:00Z</time>
      </trkpt>
      <trkpt lat="39.502285" lon="-5.044233">
        <ele>665.4</ele>
        <time>1970-01-01T00:00:00Z</time>
      </trkpt>
      <trkpt lat="39.502285" lon="-5.044233">
        <ele>665.4</ele>
        <time>1970-01-01T00:00:00Z</time>
      </trkpt>
      <trkpt lat="39.502285" lon="-5.044233">
        <ele>665.4</ele>
        <time>1970-01-01T00:00:00Z</time>
      </trkpt>
      <trkpt lat="39.502285" lon="-5.044233">
        <ele>665.4</ele>
        <time>1970-01-01T00:00:00Z</time>
      </trkpt>
      <trkpt lat="39.502085" lon="-5.044115">
        <ele>666.3</ele>
        <time>1970-01-01T00:00:00Z</time>
      </trkpt>
      <trkpt lat="39.502085" lon="-5.044115">
        <ele>666.3</ele>
        <time>1970-01-01T00:00:00Z</time>
      </trkpt>
      <trkpt lat="39.502085" lon="-5.044115">
        <ele>666.3</ele>
        <time>1970-01-01T00:00:00Z</time>
      </trkpt>
      <trkpt lat="39.502085" lon="-5.044115">
        <ele>666.3</ele>
        <time>1970-01-01T00:00:00Z</time>
      </trkpt>
      <trkpt lat="39.501804" lon="-5.043952">
        <ele>665.8</ele>
        <time>1970-01-01T00:00:00Z</time>
      </trkpt>
      <trkpt lat="39.501804" lon="-5.043952">
        <ele>665.8</ele>
        <time>1970-01-01T00:00:00Z</time>
      </trkpt>
      <trkpt lat="39.501804" lon="-5.043952">
        <ele>665.8</ele>
        <time>1970-01-01T00:00:00Z</time>
      </trkpt>
      <trkpt lat="39.501804" lon="-5.043952">
        <ele>665.8</ele>
        <time>1970-01-01T00:00:00Z</time>
      </trkpt>
      <trkpt lat="39.501495" lon="-5.043778">
        <ele>665.3</ele>
        <time>1970-01-01T00:00:00Z</time>
      </trkpt>
      <trkpt lat="39.501495" lon="-5.043778">
        <ele>665.3</ele>
        <time>1970-01-01T00:00:00Z</time>
      </trkpt>
      <trkpt lat="39.501495" lon="-5.043778">
        <ele>665.3</ele>
        <time>1970-01-01T00:00:00Z</time>
      </trkpt>
      <trkpt lat="39.501495" lon="-5.043778">
        <ele>665.3</ele>
        <time>1970-01-01T00:00:00Z</time>
      </trkpt>
      <trkpt lat="39.501412" lon="-5.043724">
        <ele>665.3</ele>
        <time>1970-01-01T00:00:00Z</time>
      </trkpt>
      <trkpt lat="39.501412" lon="-5.043724">
        <ele>665.3</ele>
        <time>1970-01-01T00:00:00Z</time>
      </trkpt>
      <trkpt lat="39.501412" lon="-5.043724">
        <ele>665.3</ele>
        <time>1970-01-01T00:00:00Z</time>
      </trkpt>
      <trkpt lat="39.501412" lon="-5.043724">
        <ele>665.3</ele>
        <time>1970-01-01T00:00:00Z</time>
      </trkpt>
      <trkpt lat="39.501345" lon="-5.043636">
        <ele>665.3</ele>
        <time>1970-01-01T00:00:00Z</time>
      </trkpt>
      <trkpt lat="39.501345" lon="-5.043636">
        <ele>665.3</ele>
        <time>1970-01-01T00:00:00Z</time>
      </trkpt>
      <trkpt lat="39.501345" lon="-5.043636">
        <ele>665.3</ele>
        <time>1970-01-01T00:00:00Z</time>
      </trkpt>
      <trkpt lat="39.501345" lon="-5.043636">
        <ele>665.3</ele>
        <time>1970-01-01T00:00:00Z</time>
      </trkpt>
      <trkpt lat="39.501281" lon="-5.043383">
        <ele>667.0</ele>
        <time>1970-01-01T00:00:00Z</time>
      </trkpt>
      <trkpt lat="39.501281" lon="-5.043383">
        <ele>667.0</ele>
        <time>1970-01-01T00:00:00Z</time>
      </trkpt>
      <trkpt lat="39.501281" lon="-5.043383">
        <ele>667.0</ele>
        <time>1970-01-01T00:00:00Z</time>
      </trkpt>
      <trkpt lat="39.501281" lon="-5.043383">
        <ele>667.0</ele>
        <time>1970-01-01T00:00:00Z</time>
      </trkpt>
      <trkpt lat="39.501157" lon="-5.042848">
        <ele>668.3</ele>
        <time>1970-01-01T00:00:00Z</time>
      </trkpt>
      <trkpt lat="39.501157" lon="-5.042848">
        <ele>668.3</ele>
        <time>1970-01-01T00:00:00Z</time>
      </trkpt>
      <trkpt lat="39.501157" lon="-5.042848">
        <ele>668.3</ele>
        <time>1970-01-01T00:00:00Z</time>
      </trkpt>
      <trkpt lat="39.501157" lon="-5.042848">
        <ele>668.3</ele>
        <time>1970-01-01T00:00:00Z</time>
      </trkpt>
      <trkpt lat="39.500936" lon="-5.041839">
        <ele>670.4</ele>
        <time>1970-01-01T00:00:00Z</time>
      </trkpt>
      <trkpt lat="39.500936" lon="-5.041839">
        <ele>670.4</ele>
        <time>1970-01-01T00:00:00Z</time>
      </trkpt>
      <trkpt lat="39.500936" lon="-5.041839">
        <ele>670.4</ele>
        <time>1970-01-01T00:00:00Z</time>
      </trkpt>
      <trkpt lat="39.500936" lon="-5.041839">
        <ele>670.4</ele>
        <time>1970-01-01T00:00:00Z</time>
      </trkpt>
      <trkpt lat="39.500805" lon="-5.041154">
        <ele>670.0</ele>
        <time>1970-01-01T00:00:00Z</time>
      </trkpt>
      <trkpt lat="39.500805" lon="-5.041154">
        <ele>670.0</ele>
        <time>1970-01-01T00:00:00Z</time>
      </trkpt>
      <trkpt lat="39.500805" lon="-5.041154">
        <ele>670.0</ele>
        <time>1970-01-01T00:00:00Z</time>
      </trkpt>
      <trkpt lat="39.500805" lon="-5.041154">
        <ele>670.0</ele>
        <time>1970-01-01T00:00:00Z</time>
      </trkpt>
      <trkpt lat="39.500696" lon="-5.040643">
        <ele>669.1</ele>
        <time>1970-01-01T00:00:00Z</time>
      </trkpt>
      <trkpt lat="39.500696" lon="-5.040643">
        <ele>669.1</ele>
        <time>1970-01-01T00:00:00Z</time>
      </trkpt>
      <trkpt lat="39.500696" lon="-5.040643">
        <ele>669.1</ele>
        <time>1970-01-01T00:00:00Z</time>
      </trkpt>
      <trkpt lat="39.500696" lon="-5.040643">
        <ele>669.1</ele>
        <time>1970-01-01T00:00:00Z</time>
      </trkpt>
      <trkpt lat="39.500624" lon="-5.040250">
        <ele>667.6</ele>
        <time>1970-01-01T00:00:00Z</time>
      </trkpt>
      <trkpt lat="39.500624" lon="-5.040250">
        <ele>667.6</ele>
        <time>1970-01-01T00:00:00Z</time>
      </trkpt>
      <trkpt lat="39.500624" lon="-5.040250">
        <ele>667.6</ele>
        <time>1970-01-01T00:00:00Z</time>
      </trkpt>
      <trkpt lat="39.500624" lon="-5.040250">
        <ele>667.6</ele>
        <time>1970-01-01T00:00:00Z</time>
      </trkpt>
      <trkpt lat="39.500496" lon="-5.039569">
        <ele>663.7</ele>
        <time>1970-01-01T00:00:00Z</time>
      </trkpt>
      <trkpt lat="39.500496" lon="-5.039569">
        <ele>663.7</ele>
        <time>1970-01-01T00:00:00Z</time>
      </trkpt>
      <trkpt lat="39.500496" lon="-5.039569">
        <ele>663.7</ele>
        <time>1970-01-01T00:00:00Z</time>
      </trkpt>
      <trkpt lat="39.500496" lon="-5.039569">
        <ele>663.7</ele>
        <time>1970-01-01T00:00:00Z</time>
      </trkpt>
      <trkpt lat="39.500457" lon="-5.039374">
        <ele>662.5</ele>
        <time>1970-01-01T00:00:00Z</time>
      </trkpt>
      <trkpt lat="39.500457" lon="-5.039374">
        <ele>662.5</ele>
        <time>1970-01-01T00:00:00Z</time>
      </trkpt>
      <trkpt lat="39.500457" lon="-5.039374">
        <ele>662.5</ele>
        <time>1970-01-01T00:00:00Z</time>
      </trkpt>
      <trkpt lat="39.500457" lon="-5.039374">
        <ele>662.5</ele>
        <time>1970-01-01T00:00:00Z</time>
      </trkpt>
      <trkpt lat="39.500398" lon="-5.039121">
        <ele>661.0</ele>
        <time>1970-01-01T00:00:00Z</time>
      </trkpt>
      <trkpt lat="39.500398" lon="-5.039121">
        <ele>661.0</ele>
        <time>1970-01-01T00:00:00Z</time>
      </trkpt>
      <trkpt lat="39.500398" lon="-5.039121">
        <ele>661.0</ele>
        <time>1970-01-01T00:00:00Z</time>
      </trkpt>
      <trkpt lat="39.500398" lon="-5.039121">
        <ele>661.0</ele>
        <time>1970-01-01T00:00:00Z</time>
      </trkpt>
      <trkpt lat="39.500358" lon="-5.038865">
        <ele>658.9</ele>
        <time>1970-01-01T00:00:00Z</time>
      </trkpt>
      <trkpt lat="39.500358" lon="-5.038865">
        <ele>658.9</ele>
        <time>1970-01-01T00:00:00Z</time>
      </trkpt>
      <trkpt lat="39.500358" lon="-5.038865">
        <ele>658.9</ele>
        <time>1970-01-01T00:00:00Z</time>
      </trkpt>
      <trkpt lat="39.500358" lon="-5.038865">
        <ele>658.9</ele>
        <time>1970-01-01T00:00:00Z</time>
      </trkpt>
      <trkpt lat="39.500341" lon="-5.038711">
        <ele>657.8</ele>
        <time>1970-01-01T00:00:00Z</time>
      </trkpt>
      <trkpt lat="39.500341" lon="-5.038711">
        <ele>657.8</ele>
        <time>1970-01-01T00:00:00Z</time>
      </trkpt>
      <trkpt lat="39.500341" lon="-5.038711">
        <ele>657.8</ele>
        <time>1970-01-01T00:00:00Z</time>
      </trkpt>
      <trkpt lat="39.500341" lon="-5.038711">
        <ele>657.8</ele>
        <time>1970-01-01T00:00:00Z</time>
      </trkpt>
      <trkpt lat="39.500310" lon="-5.038329">
        <ele>655.3</ele>
        <time>1970-01-01T00:00:00Z</time>
      </trkpt>
      <trkpt lat="39.500310" lon="-5.038329">
        <ele>655.3</ele>
        <time>1970-01-01T00:00:00Z</time>
      </trkpt>
      <trkpt lat="39.500310" lon="-5.038329">
        <ele>655.3</ele>
        <time>1970-01-01T00:00:00Z</time>
      </trkpt>
      <trkpt lat="39.500310" lon="-5.038329">
        <ele>655.3</ele>
        <time>1970-01-01T00:00:00Z</time>
      </trkpt>
      <trkpt lat="39.500303" lon="-5.037873">
        <ele>651.2</ele>
        <time>1970-01-01T00:00:00Z</time>
      </trkpt>
      <trkpt lat="39.500303" lon="-5.037873">
        <ele>651.2</ele>
        <time>1970-01-01T00:00:00Z</time>
      </trkpt>
      <trkpt lat="39.500303" lon="-5.037873">
        <ele>651.2</ele>
        <time>1970-01-01T00:00:00Z</time>
      </trkpt>
      <trkpt lat="39.500303" lon="-5.037873">
        <ele>651.2</ele>
        <time>1970-01-01T00:00:00Z</time>
      </trkpt>
      <trkpt lat="39.500286" lon="-5.037198">
        <ele>648.3</ele>
        <time>1970-01-01T00:00:00Z</time>
      </trkpt>
      <trkpt lat="39.500286" lon="-5.037198">
        <ele>648.3</ele>
        <time>1970-01-01T00:00:00Z</time>
      </trkpt>
      <trkpt lat="39.500286" lon="-5.037198">
        <ele>648.3</ele>
        <time>1970-01-01T00:00:00Z</time>
      </trkpt>
      <trkpt lat="39.500286" lon="-5.037198">
        <ele>648.3</ele>
        <time>1970-01-01T00:00:00Z</time>
      </trkpt>
      <trkpt lat="39.500282" lon="-5.036559">
        <ele>648.0</ele>
        <time>1970-01-01T00:00:00Z</time>
      </trkpt>
      <trkpt lat="39.500282" lon="-5.036559">
        <ele>648.0</ele>
        <time>1970-01-01T00:00:00Z</time>
      </trkpt>
      <trkpt lat="39.500282" lon="-5.036559">
        <ele>648.0</ele>
        <time>1970-01-01T00:00:00Z</time>
      </trkpt>
      <trkpt lat="39.500282" lon="-5.036559">
        <ele>648.0</ele>
        <time>1970-01-01T00:00:00Z</time>
      </trkpt>
      <trkpt lat="39.500264" lon="-5.036129">
        <ele>647.8</ele>
        <time>1970-01-01T00:00:00Z</time>
      </trkpt>
      <trkpt lat="39.500264" lon="-5.036129">
        <ele>647.8</ele>
        <time>1970-01-01T00:00:00Z</time>
      </trkpt>
      <trkpt lat="39.500264" lon="-5.036129">
        <ele>647.8</ele>
        <time>1970-01-01T00:00:00Z</time>
      </trkpt>
      <trkpt lat="39.500264" lon="-5.036129">
        <ele>647.8</ele>
        <time>1970-01-01T00:00:00Z</time>
      </trkpt>
      <trkpt lat="39.500236" lon="-5.035924">
        <ele>647.6</ele>
        <time>1970-01-01T00:00:00Z</time>
      </trkpt>
      <trkpt lat="39.500236" lon="-5.035924">
        <ele>647.6</ele>
        <time>1970-01-01T00:00:00Z</time>
      </trkpt>
      <trkpt lat="39.500236" lon="-5.035924">
        <ele>647.6</ele>
        <time>1970-01-01T00:00:00Z</time>
      </trkpt>
      <trkpt lat="39.500236" lon="-5.035924">
        <ele>647.6</ele>
        <time>1970-01-01T00:00:00Z</time>
      </trkpt>
      <trkpt lat="39.500186" lon="-5.035766">
        <ele>648.0</ele>
        <time>1970-01-01T00:00:00Z</time>
      </trkpt>
      <trkpt lat="39.500186" lon="-5.035766">
        <ele>648.0</ele>
        <time>1970-01-01T00:00:00Z</time>
      </trkpt>
      <trkpt lat="39.500186" lon="-5.035766">
        <ele>648.0</ele>
        <time>1970-01-01T00:00:00Z</time>
      </trkpt>
      <trkpt lat="39.500186" lon="-5.035766">
        <ele>648.0</ele>
        <time>1970-01-01T00:00:00Z</time>
      </trkpt>
      <trkpt lat="39.499991" lon="-5.035391">
        <ele>647.5</ele>
        <time>1970-01-01T00:00:00Z</time>
      </trkpt>
      <trkpt lat="39.499991" lon="-5.035391">
        <ele>647.5</ele>
        <time>1970-01-01T00:00:00Z</time>
      </trkpt>
      <trkpt lat="39.499991" lon="-5.035391">
        <ele>647.5</ele>
        <time>1970-01-01T00:00:00Z</time>
      </trkpt>
      <trkpt lat="39.499991" lon="-5.035391">
        <ele>647.5</ele>
        <time>1970-01-01T00:00:00Z</time>
      </trkpt>
      <trkpt lat="39.499763" lon="-5.034944">
        <ele>645.3</ele>
        <time>1970-01-01T00:00:00Z</time>
      </trkpt>
      <trkpt lat="39.499763" lon="-5.034944">
        <ele>645.3</ele>
        <time>1970-01-01T00:00:00Z</time>
      </trkpt>
      <trkpt lat="39.499763" lon="-5.034944">
        <ele>645.3</ele>
        <time>1970-01-01T00:00:00Z</time>
      </trkpt>
      <trkpt lat="39.499763" lon="-5.034944">
        <ele>645.3</ele>
        <time>1970-01-01T00:00:00Z</time>
      </trkpt>
      <trkpt lat="39.499494" lon="-5.034451">
        <ele>645.7</ele>
        <time>1970-01-01T00:00:00Z</time>
      </trkpt>
      <trkpt lat="39.499494" lon="-5.034451">
        <ele>645.7</ele>
        <time>1970-01-01T00:00:00Z</time>
      </trkpt>
      <trkpt lat="39.499494" lon="-5.034451">
        <ele>645.7</ele>
        <time>1970-01-01T00:00:00Z</time>
      </trkpt>
      <trkpt lat="39.499494" lon="-5.034451">
        <ele>645.7</ele>
        <time>1970-01-01T00:00:00Z</time>
      </trkpt>
      <trkpt lat="39.499128" lon="-5.033803">
        <ele>646.7</ele>
        <time>1970-01-01T00:00:00Z</time>
      </trkpt>
      <trkpt lat="39.499128" lon="-5.033803">
        <ele>646.7</ele>
        <time>1970-01-01T00:00:00Z</time>
      </trkpt>
      <trkpt lat="39.499128" lon="-5.033803">
        <ele>646.7</ele>
        <time>1970-01-01T00:00:00Z</time>
      </trkpt>
      <trkpt lat="39.499128" lon="-5.033803">
        <ele>646.7</ele>
        <time>1970-01-01T00:00:00Z</time>
      </trkpt>
      <trkpt lat="39.498909" lon="-5.033434">
        <ele>646.2</ele>
        <time>1970-01-01T00:00:00Z</time>
      </trkpt>
      <trkpt lat="39.498909" lon="-5.033434">
        <ele>646.2</ele>
        <time>1970-01-01T00:00:00Z</time>
      </trkpt>
      <trkpt lat="39.498909" lon="-5.033434">
        <ele>646.2</ele>
        <time>1970-01-01T00:00:00Z</time>
      </trkpt>
      <trkpt lat="39.498909" lon="-5.033434">
        <ele>646.2</ele>
        <time>1970-01-01T00:00:00Z</time>
      </trkpt>
      <trkpt lat="39.498771" lon="-5.033221">
        <ele>646.1</ele>
        <time>1970-01-01T00:00:00Z</time>
      </trkpt>
      <trkpt lat="39.498771" lon="-5.033221">
        <ele>646.1</ele>
        <time>1970-01-01T00:00:00Z</time>
      </trkpt>
      <trkpt lat="39.498771" lon="-5.033221">
        <ele>646.1</ele>
        <time>1970-01-01T00:00:00Z</time>
      </trkpt>
      <trkpt lat="39.498771" lon="-5.033221">
        <ele>646.1</ele>
        <time>1970-01-01T00:00:00Z</time>
      </trkpt>
      <trkpt lat="39.498569" lon="-5.032970">
        <ele>647.7</ele>
        <time>1970-01-01T00:00:00Z</time>
      </trkpt>
      <trkpt lat="39.498569" lon="-5.032970">
        <ele>647.7</ele>
        <time>1970-01-01T00:00:00Z</time>
      </trkpt>
      <trkpt lat="39.498569" lon="-5.032970">
        <ele>647.7</ele>
        <time>1970-01-01T00:00:00Z</time>
      </trkpt>
      <trkpt lat="39.498569" lon="-5.032970">
        <ele>647.7</ele>
        <time>1970-01-01T00:00:00Z</time>
      </trkpt>
      <trkpt lat="39.498292" lon="-5.032633">
        <ele>649.0</ele>
        <time>1970-01-01T00:00:00Z</time>
      </trkpt>
      <trkpt lat="39.498292" lon="-5.032633">
        <ele>649.0</ele>
        <time>1970-01-01T00:00:00Z</time>
      </trkpt>
      <trkpt lat="39.498292" lon="-5.032633">
        <ele>649.0</ele>
        <time>1970-01-01T00:00:00Z</time>
      </trkpt>
      <trkpt lat="39.498292" lon="-5.032633">
        <ele>649.0</ele>
        <time>1970-01-01T00:00:00Z</time>
      </trkpt>
      <trkpt lat="39.497994" lon="-5.032300">
        <ele>649.1</ele>
        <time>1970-01-01T00:00:00Z</time>
      </trkpt>
      <trkpt lat="39.497994" lon="-5.032300">
        <ele>649.1</ele>
        <time>1970-01-01T00:00:00Z</time>
      </trkpt>
      <trkpt lat="39.497994" lon="-5.032300">
        <ele>649.1</ele>
        <time>1970-01-01T00:00:00Z</time>
      </trkpt>
      <trkpt lat="39.497994" lon="-5.032300">
        <ele>649.1</ele>
        <time>1970-01-01T00:00:00Z</time>
      </trkpt>
      <trkpt lat="39.497668" lon="-5.031918">
        <ele>651.8</ele>
        <time>1970-01-01T00:00:00Z</time>
      </trkpt>
      <trkpt lat="39.497668" lon="-5.031918">
        <ele>651.8</ele>
        <time>1970-01-01T00:00:00Z</time>
      </trkpt>
      <trkpt lat="39.497668" lon="-5.031918">
        <ele>651.8</ele>
        <time>1970-01-01T00:00:00Z</time>
      </trkpt>
      <trkpt lat="39.497668" lon="-5.031918">
        <ele>651.8</ele>
        <time>1970-01-01T00:00:00Z</time>
      </trkpt>
      <trkpt lat="39.497357" lon="-5.031577">
        <ele>654.9</ele>
        <time>1970-01-01T00:00:00Z</time>
      </trkpt>
      <trkpt lat="39.497357" lon="-5.031577">
        <ele>654.9</ele>
        <time>1970-01-01T00:00:00Z</time>
      </trkpt>
      <trkpt lat="39.497357" lon="-5.031577">
        <ele>654.9</ele>
        <time>1970-01-01T00:00:00Z</time>
      </trkpt>
      <trkpt lat="39.497357" lon="-5.031577">
        <ele>654.9</ele>
        <time>1970-01-01T00:00:00Z</time>
      </trkpt>
      <trkpt lat="39.497078" lon="-5.031273">
        <ele>656.5</ele>
        <time>1970-01-01T00:00:00Z</time>
      </trkpt>
      <trkpt lat="39.497078" lon="-5.031273">
        <ele>656.5</ele>
        <time>1970-01-01T00:00:00Z</time>
      </trkpt>
      <trkpt lat="39.497078" lon="-5.031273">
        <ele>656.5</ele>
        <time>1970-01-01T00:00:00Z</time>
      </trkpt>
      <trkpt lat="39.497078" lon="-5.031273">
        <ele>656.5</ele>
        <time>1970-01-01T00:00:00Z</time>
      </trkpt>
      <trkpt lat="39.496927" lon="-5.031095">
        <ele>657.8</ele>
        <time>1970-01-01T00:00:00Z</time>
      </trkpt>
      <trkpt lat="39.496927" lon="-5.031095">
        <ele>657.8</ele>
        <time>1970-01-01T00:00:00Z</time>
      </trkpt>
      <trkpt lat="39.496927" lon="-5.031095">
        <ele>657.8</ele>
        <time>1970-01-01T00:00:00Z</time>
      </trkpt>
      <trkpt lat="39.496927" lon="-5.031095">
        <ele>657.8</ele>
        <time>1970-01-01T00:00:00Z</time>
      </trkpt>
      <trkpt lat="39.496869" lon="-5.030997">
        <ele>658.0</ele>
        <time>1970-01-01T00:00:00Z</time>
      </trkpt>
      <trkpt lat="39.496869" lon="-5.030997">
        <ele>658.0</ele>
        <time>1970-01-01T00:00:00Z</time>
      </trkpt>
      <trkpt lat="39.496869" lon="-5.030997">
        <ele>658.0</ele>
        <time>1970-01-01T00:00:00Z</time>
      </trkpt>
      <trkpt lat="39.496869" lon="-5.030997">
        <ele>658.0</ele>
        <time>1970-01-01T00:00:00Z</time>
      </trkpt>
      <trkpt lat="39.496660" lon="-5.030449">
        <ele>657.1</ele>
        <time>1970-01-01T00:00:00Z</time>
      </trkpt>
      <trkpt lat="39.496660" lon="-5.030449">
        <ele>657.1</ele>
        <time>1970-01-01T00:00:00Z</time>
      </trkpt>
      <trkpt lat="39.496660" lon="-5.030449">
        <ele>657.1</ele>
        <time>1970-01-01T00:00:00Z</time>
      </trkpt>
      <trkpt lat="39.496660" lon="-5.030449">
        <ele>657.1</ele>
        <time>1970-01-01T00:00:00Z</time>
      </trkpt>
      <trkpt lat="39.496396" lon="-5.029706">
        <ele>653.9</ele>
        <time>1970-01-01T00:00:00Z</time>
      </trkpt>
      <trkpt lat="39.496396" lon="-5.029706">
        <ele>653.9</ele>
        <time>1970-01-01T00:00:00Z</time>
      </trkpt>
      <trkpt lat="39.496396" lon="-5.029706">
        <ele>653.9</ele>
        <time>1970-01-01T00:00:00Z</time>
      </trkpt>
      <trkpt lat="39.496396" lon="-5.029706">
        <ele>653.9</ele>
        <time>1970-01-01T00:00:00Z</time>
      </trkpt>
      <trkpt lat="39.496044" lon="-5.028773">
        <ele>647.8</ele>
        <time>1970-01-01T00:00:00Z</time>
      </trkpt>
      <trkpt lat="39.496044" lon="-5.028773">
        <ele>647.8</ele>
        <time>1970-01-01T00:00:00Z</time>
      </trkpt>
      <trkpt lat="39.496044" lon="-5.028773">
        <ele>647.8</ele>
        <time>1970-01-01T00:00:00Z</time>
      </trkpt>
      <trkpt lat="39.496044" lon="-5.028773">
        <ele>647.8</ele>
        <time>1970-01-01T00:00:00Z</time>
      </trkpt>
      <trkpt lat="39.495724" lon="-5.027870">
        <ele>644.0</ele>
        <time>1970-01-01T00:00:00Z</time>
      </trkpt>
      <trkpt lat="39.495724" lon="-5.027870">
        <ele>644.0</ele>
        <time>1970-01-01T00:00:00Z</time>
      </trkpt>
      <trkpt lat="39.495724" lon="-5.027870">
        <ele>644.0</ele>
        <time>1970-01-01T00:00:00Z</time>
      </trkpt>
      <trkpt lat="39.495724" lon="-5.027870">
        <ele>644.0</ele>
        <time>1970-01-01T00:00:00Z</time>
      </trkpt>
      <trkpt lat="39.495239" lon="-5.026476">
        <ele>637.1</ele>
        <time>1970-01-01T00:00:00Z</time>
      </trkpt>
      <trkpt lat="39.495239" lon="-5.026476">
        <ele>637.1</ele>
        <time>1970-01-01T00:00:00Z</time>
      </trkpt>
      <trkpt lat="39.495239" lon="-5.026476">
        <ele>637.1</ele>
        <time>1970-01-01T00:00:00Z</time>
      </trkpt>
      <trkpt lat="39.495239" lon="-5.026476">
        <ele>637.1</ele>
        <time>1970-01-01T00:00:00Z</time>
      </trkpt>
      <trkpt lat="39.494854" lon="-5.025372">
        <ele>641.0</ele>
        <time>1970-01-01T00:00:00Z</time>
      </trkpt>
      <trkpt lat="39.494854" lon="-5.025372">
        <ele>641.0</ele>
        <time>1970-01-01T00:00:00Z</time>
      </trkpt>
      <trkpt lat="39.494854" lon="-5.025372">
        <ele>641.0</ele>
        <time>1970-01-01T00:00:00Z</time>
      </trkpt>
      <trkpt lat="39.494854" lon="-5.025372">
        <ele>641.0</ele>
        <time>1970-01-01T00:00:00Z</time>
      </trkpt>
      <trkpt lat="39.494655" lon="-5.024812">
        <ele>646.0</ele>
        <time>1970-01-01T00:00:00Z</time>
      </trkpt>
      <trkpt lat="39.494655" lon="-5.024812">
        <ele>646.0</ele>
        <time>1970-01-01T00:00:00Z</time>
      </trkpt>
      <trkpt lat="39.494655" lon="-5.024812">
        <ele>646.0</ele>
        <time>1970-01-01T00:00:00Z</time>
      </trkpt>
      <trkpt lat="39.494655" lon="-5.024812">
        <ele>646.0</ele>
        <time>1970-01-01T00:00:00Z</time>
      </trkpt>
      <trkpt lat="39.494623" lon="-5.024769">
        <ele>646.6</ele>
        <time>1970-01-01T00:00:00Z</time>
      </trkpt>
      <trkpt lat="39.494623" lon="-5.024769">
        <ele>646.6</ele>
        <time>1970-01-01T00:00:00Z</time>
      </trkpt>
      <trkpt lat="39.494623" lon="-5.024769">
        <ele>646.6</ele>
        <time>1970-01-01T00:00:00Z</time>
      </trkpt>
      <trkpt lat="39.494623" lon="-5.024769">
        <ele>646.6</ele>
        <time>1970-01-01T00:00:00Z</time>
      </trkpt>
      <trkpt lat="39.494612" lon="-5.024838">
        <ele>646.4</ele>
        <time>1970-01-01T00:00:00Z</time>
      </trkpt>
      <trkpt lat="39.494612" lon="-5.024838">
        <ele>646.4</ele>
        <time>1970-01-01T00:00:00Z</time>
      </trkpt>
      <trkpt lat="39.494612" lon="-5.024838">
        <ele>646.4</ele>
        <time>1970-01-01T00:00:00Z</time>
      </trkpt>
      <trkpt lat="39.494612" lon="-5.024838">
        <ele>646.4</ele>
        <time>1970-01-01T00:00:00Z</time>
      </trkpt>
      <trkpt lat="39.494622" lon="-5.024950">
        <ele>645.8</ele>
        <time>1970-01-01T00:00:00Z</time>
      </trkpt>
      <trkpt lat="39.494622" lon="-5.024950">
        <ele>645.8</ele>
        <time>1970-01-01T00:00:00Z</time>
      </trkpt>
      <trkpt lat="39.494622" lon="-5.024950">
        <ele>645.8</ele>
        <time>1970-01-01T00:00:00Z</time>
      </trkpt>
      <trkpt lat="39.494622" lon="-5.024950">
        <ele>645.8</ele>
        <time>1970-01-01T00:00:00Z</time>
      </trkpt>
      <trkpt lat="39.494606" lon="-5.025134">
        <ele>645.2</ele>
        <time>1970-01-01T00:00:00Z</time>
      </trkpt>
      <trkpt lat="39.494606" lon="-5.025134">
        <ele>645.2</ele>
        <time>1970-01-01T00:00:00Z</time>
      </trkpt>
      <trkpt lat="39.494606" lon="-5.025134">
        <ele>645.2</ele>
        <time>1970-01-01T00:00:00Z</time>
      </trkpt>
      <trkpt lat="39.494606" lon="-5.025134">
        <ele>645.2</ele>
        <time>1970-01-01T00:00:00Z</time>
      </trkpt>
      <trkpt lat="39.494546" lon="-5.025382">
        <ele>644.7</ele>
        <time>1970-01-01T00:00:00Z</time>
      </trkpt>
      <trkpt lat="39.494546" lon="-5.025382">
        <ele>644.7</ele>
        <time>1970-01-01T00:00:00Z</time>
      </trkpt>
      <trkpt lat="39.494546" lon="-5.025382">
        <ele>644.7</ele>
        <time>1970-01-01T00:00:00Z</time>
      </trkpt>
      <trkpt lat="39.494546" lon="-5.025382">
        <ele>644.7</ele>
        <time>1970-01-01T00:00:00Z</time>
      </trkpt>
      <trkpt lat="39.494476" lon="-5.025544">
        <ele>643.9</ele>
        <time>1970-01-01T00:00:00Z</time>
      </trkpt>
      <trkpt lat="39.494476" lon="-5.025544">
        <ele>643.9</ele>
        <time>1970-01-01T00:00:00Z</time>
      </trkpt>
      <trkpt lat="39.494476" lon="-5.025544">
        <ele>643.9</ele>
        <time>1970-01-01T00:00:00Z</time>
      </trkpt>
      <trkpt lat="39.494476" lon="-5.025544">
        <ele>643.9</ele>
        <time>1970-01-01T00:00:00Z</time>
      </trkpt>
      <trkpt lat="39.494359" lon="-5.025728">
        <ele>644.6</ele>
        <time>1970-01-01T00:00:00Z</time>
      </trkpt>
      <trkpt lat="39.494359" lon="-5.025728">
        <ele>644.6</ele>
        <time>1970-01-01T00:00:00Z</time>
      </trkpt>
      <trkpt lat="39.494359" lon="-5.025728">
        <ele>644.6</ele>
        <time>1970-01-01T00:00:00Z</time>
      </trkpt>
      <trkpt lat="39.494359" lon="-5.025728">
        <ele>644.6</ele>
        <time>1970-01-01T00:00:00Z</time>
      </trkpt>
      <trkpt lat="39.494180" lon="-5.025969">
        <ele>646.2</ele>
        <time>1970-01-01T00:00:00Z</time>
      </trkpt>
      <trkpt lat="39.494180" lon="-5.025969">
        <ele>646.2</ele>
        <time>1970-01-01T00:00:00Z</time>
      </trkpt>
      <trkpt lat="39.494180" lon="-5.025969">
        <ele>646.2</ele>
        <time>1970-01-01T00:00:00Z</time>
      </trkpt>
      <trkpt lat="39.494180" lon="-5.025969">
        <ele>646.2</ele>
        <time>1970-01-01T00:00:00Z</time>
      </trkpt>
      <trkpt lat="39.493382" lon="-5.027071">
        <ele>655.7</ele>
        <time>1970-01-01T00:00:00Z</time>
      </trkpt>
      <trkpt lat="39.493382" lon="-5.027071">
        <ele>655.7</ele>
        <time>1970-01-01T00:00:00Z</time>
      </trkpt>
      <trkpt lat="39.493382" lon="-5.027071">
        <ele>655.7</ele>
        <time>1970-01-01T00:00:00Z</time>
      </trkpt>
      <trkpt lat="39.493382" lon="-5.027071">
        <ele>655.7</ele>
        <time>1970-01-01T00:00:00Z</time>
      </trkpt>
      <trkpt lat="39.492591" lon="-5.028148">
        <ele>659.0</ele>
        <time>1970-01-01T00:00:00Z</time>
      </trkpt>
      <trkpt lat="39.492591" lon="-5.028148">
        <ele>659.0</ele>
        <time>1970-01-01T00:00:00Z</time>
      </trkpt>
      <trkpt lat="39.492591" lon="-5.028148">
        <ele>659.0</ele>
        <time>1970-01-01T00:00:00Z</time>
      </trkpt>
      <trkpt lat="39.492591" lon="-5.028148">
        <ele>659.0</ele>
        <time>1970-01-01T00:00:00Z</time>
      </trkpt>
      <trkpt lat="39.492179" lon="-5.028722">
        <ele>659.8</ele>
        <time>1970-01-01T00:00:00Z</time>
      </trkpt>
      <trkpt lat="39.492179" lon="-5.028722">
        <ele>659.8</ele>
        <time>1970-01-01T00:00:00Z</time>
      </trkpt>
      <trkpt lat="39.492179" lon="-5.028722">
        <ele>659.8</ele>
        <time>1970-01-01T00:00:00Z</time>
      </trkpt>
      <trkpt lat="39.492179" lon="-5.028722">
        <ele>659.8</ele>
        <time>1970-01-01T00:00:00Z</time>
      </trkpt>
      <trkpt lat="39.491866" lon="-5.029167">
        <ele>659.2</ele>
        <time>1970-01-01T00:00:00Z</time>
      </trkpt>
      <trkpt lat="39.491866" lon="-5.029167">
        <ele>659.2</ele>
        <time>1970-01-01T00:00:00Z</time>
      </trkpt>
      <trkpt lat="39.491866" lon="-5.029167">
        <ele>659.2</ele>
        <time>1970-01-01T00:00:00Z</time>
      </trkpt>
      <trkpt lat="39.491866" lon="-5.029167">
        <ele>659.2</ele>
        <time>1970-01-01T00:00:00Z</time>
      </trkpt>
      <trkpt lat="39.491489" lon="-5.029693">
        <ele>659.6</ele>
        <time>1970-01-01T00:00:00Z</time>
      </trkpt>
      <trkpt lat="39.491489" lon="-5.029693">
        <ele>659.6</ele>
        <time>1970-01-01T00:00:00Z</time>
      </trkpt>
      <trkpt lat="39.491489" lon="-5.029693">
        <ele>659.6</ele>
        <time>1970-01-01T00:00:00Z</time>
      </trkpt>
      <trkpt lat="39.491489" lon="-5.029693">
        <ele>659.6</ele>
        <time>1970-01-01T00:00:00Z</time>
      </trkpt>
      <trkpt lat="39.491302" lon="-5.029938">
        <ele>660.0</ele>
        <time>1970-01-01T00:00:00Z</time>
      </trkpt>
      <trkpt lat="39.491302" lon="-5.029938">
        <ele>660.0</ele>
        <time>1970-01-01T00:00:00Z</time>
      </trkpt>
      <trkpt lat="39.491302" lon="-5.029938">
        <ele>660.0</ele>
        <time>1970-01-01T00:00:00Z</time>
      </trkpt>
      <trkpt lat="39.491302" lon="-5.029938">
        <ele>660.0</ele>
        <time>1970-01-01T00:00:00Z</time>
      </trkpt>
      <trkpt lat="39.491202" lon="-5.030021">
        <ele>660.8</ele>
        <time>1970-01-01T00:00:00Z</time>
      </trkpt>
      <trkpt lat="39.491202" lon="-5.030021">
        <ele>660.8</ele>
        <time>1970-01-01T00:00:00Z</time>
      </trkpt>
      <trkpt lat="39.491202" lon="-5.030021">
        <ele>660.8</ele>
        <time>1970-01-01T00:00:00Z</time>
      </trkpt>
      <trkpt lat="39.491202" lon="-5.030021">
        <ele>660.8</ele>
        <time>1970-01-01T00:00:00Z</time>
      </trkpt>
      <trkpt lat="39.491118" lon="-5.030109">
        <ele>661.5</ele>
        <time>1970-01-01T00:00:00Z</time>
      </trkpt>
      <trkpt lat="39.491118" lon="-5.030109">
        <ele>661.5</ele>
        <time>1970-01-01T00:00:00Z</time>
      </trkpt>
      <trkpt lat="39.491118" lon="-5.030109">
        <ele>661.5</ele>
        <time>1970-01-01T00:00:00Z</time>
      </trkpt>
      <trkpt lat="39.491118" lon="-5.030109">
        <ele>661.5</ele>
        <time>1970-01-01T00:00:00Z</time>
      </trkpt>
      <trkpt lat="39.491006" lon="-5.030190">
        <ele>662.0</ele>
        <time>1970-01-01T00:00:00Z</time>
      </trkpt>
      <trkpt lat="39.491006" lon="-5.030190">
        <ele>662.0</ele>
        <time>1970-01-01T00:00:00Z</time>
      </trkpt>
      <trkpt lat="39.491006" lon="-5.030190">
        <ele>662.0</ele>
        <time>1970-01-01T00:00:00Z</time>
      </trkpt>
      <trkpt lat="39.491006" lon="-5.030190">
        <ele>662.0</ele>
        <time>1970-01-01T00:00:00Z</time>
      </trkpt>
      <trkpt lat="39.490922" lon="-5.030225">
        <ele>662.1</ele>
        <time>1970-01-01T00:00:00Z</time>
      </trkpt>
      <trkpt lat="39.490922" lon="-5.030225">
        <ele>662.1</ele>
        <time>1970-01-01T00:00:00Z</time>
      </trkpt>
      <trkpt lat="39.490922" lon="-5.030225">
        <ele>662.1</ele>
        <time>1970-01-01T00:00:00Z</time>
      </trkpt>
      <trkpt lat="39.490922" lon="-5.030225">
        <ele>662.1</ele>
        <time>1970-01-01T00:00:00Z</time>
      </trkpt>
      <trkpt lat="39.490872" lon="-5.030200">
        <ele>662.0</ele>
        <time>1970-01-01T00:00:00Z</time>
      </trkpt>
      <trkpt lat="39.490872" lon="-5.030200">
        <ele>662.0</ele>
        <time>1970-01-01T00:00:00Z</time>
      </trkpt>
      <trkpt lat="39.490872" lon="-5.030200">
        <ele>662.0</ele>
        <time>1970-01-01T00:00:00Z</time>
      </trkpt>
      <trkpt lat="39.490872" lon="-5.030200">
        <ele>662.0</ele>
        <time>1970-01-01T00:00:00Z</time>
      </trkpt>
      <trkpt lat="39.490845" lon="-5.030140">
        <ele>662.0</ele>
        <time>1970-01-01T00:00:00Z</time>
      </trkpt>
      <trkpt lat="39.490845" lon="-5.030140">
        <ele>662.0</ele>
        <time>1970-01-01T00:00:00Z</time>
      </trkpt>
      <trkpt lat="39.490845" lon="-5.030140">
        <ele>662.0</ele>
        <time>1970-01-01T00:00:00Z</time>
      </trkpt>
      <trkpt lat="39.490845" lon="-5.030140">
        <ele>662.0</ele>
        <time>1970-01-01T00:00:00Z</time>
      </trkpt>
      <trkpt lat="39.490845" lon="-5.030075">
        <ele>662.0</ele>
        <time>1970-01-01T00:00:00Z</time>
      </trkpt>
      <trkpt lat="39.490845" lon="-5.030075">
        <ele>662.0</ele>
        <time>1970-01-01T00:00:00Z</time>
      </trkpt>
      <trkpt lat="39.490845" lon="-5.030075">
        <ele>662.0</ele>
        <time>1970-01-01T00:00:00Z</time>
      </trkpt>
      <trkpt lat="39.490845" lon="-5.030075">
        <ele>662.0</ele>
        <time>1970-01-01T00:00:00Z</time>
      </trkpt>
      <trkpt lat="39.490940" lon="-5.029864">
        <ele>661.2</ele>
        <time>1970-01-01T00:00:00Z</time>
      </trkpt>
      <trkpt lat="39.490940" lon="-5.029864">
        <ele>661.2</ele>
        <time>1970-01-01T00:00:00Z</time>
      </trkpt>
      <trkpt lat="39.490940" lon="-5.029864">
        <ele>661.2</ele>
        <time>1970-01-01T00:00:00Z</time>
      </trkpt>
      <trkpt lat="39.490940" lon="-5.029864">
        <ele>661.2</ele>
        <time>1970-01-01T00:00:00Z</time>
      </trkpt>
      <trkpt lat="39.491008" lon="-5.029726">
        <ele>660.3</ele>
        <time>1970-01-01T00:00:00Z</time>
      </trkpt>
      <trkpt lat="39.491008" lon="-5.029726">
        <ele>660.3</ele>
        <time>1970-01-01T00:00:00Z</time>
      </trkpt>
      <trkpt lat="39.491008" lon="-5.029726">
        <ele>660.3</ele>
        <time>1970-01-01T00:00:00Z</time>
      </trkpt>
      <trkpt lat="39.491008" lon="-5.029726">
        <ele>660.3</ele>
        <time>1970-01-01T00:00:00Z</time>
      </trkpt>
      <trkpt lat="39.491025" lon="-5.029688">
        <ele>660.1</ele>
        <time>1970-01-01T00:00:00Z</time>
      </trkpt>
      <trkpt lat="39.491025" lon="-5.029688">
        <ele>660.1</ele>
        <time>1970-01-01T00:00:00Z</time>
      </trkpt>
      <trkpt lat="39.491025" lon="-5.029688">
        <ele>660.1</ele>
        <time>1970-01-01T00:00:00Z</time>
      </trkpt>
      <trkpt lat="39.491025" lon="-5.029688">
        <ele>660.1</ele>
        <time>1970-01-01T00:00:00Z</time>
      </trkpt>
      <trkpt lat="39.491040" lon="-5.029652">
        <ele>659.9</ele>
        <time>1970-01-01T00:00:00Z</time>
      </trkpt>
      <trkpt lat="39.491040" lon="-5.029652">
        <ele>659.9</ele>
        <time>1970-01-01T00:00:00Z</time>
      </trkpt>
      <trkpt lat="39.491040" lon="-5.029652">
        <ele>659.9</ele>
        <time>1970-01-01T00:00:00Z</time>
      </trkpt>
      <trkpt lat="39.491040" lon="-5.029652">
        <ele>659.9</ele>
        <time>1970-01-01T00:00:00Z</time>
      </trkpt>
    </trkseg>
  </trk>
</gpx>
